<?xml version="1.0" encoding="UTF-8" standalone="no" ?>
<gpx xmlns="http://www.topografix.com/GPX/1/1" xmlns:xsi="http://www.w3.org/2001/XMLSchema-instance" xsi:schemaLocation="http://www.topografix.com/GPX/1/1 http://www.topografix.com/GPX/1/1/gpx.xsd" version="1.1" creator="VisuGPX - https://www.visugpx.com">
  <metadata>
    <name>Lake Challenge 2023 By YoYo</name>
    <desc><![CDATA[Challenge gravel: Effectuer les contours des 12 plus gros lacs Suisse.
Manque le Lac Majeur qui sera ajouté en 2024]]></desc>
  </metadata>
  <trk>
    <name><![CDATA[Zugersee]]></name>
    <desc><![CDATA[February]]></desc>
    <extensions>
      <line xmlns="http://www.topografix.com/GPX/gpx_style/0/2">
        <color>ff8c00</color>
        <width>2</width>
          <extensions>
            <sens>1</sens>
          </extensions>
      </line>
    </extensions>
    <trkseg>
      <trkpt lat="47.17321" lon="8.5135">
        <ele>419.4</ele>
        <time>2023-02-12T08:10:52Z</time>
      </trkpt>
      <trkpt lat="47.1732" lon="8.51349">
        <ele>419.4</ele>
        <time>2023-02-12T08:10:53Z</time>
      </trkpt>
      <trkpt lat="47.17319" lon="8.51348">
        <ele>419.4</ele>
        <time>2023-02-12T08:10:54Z</time>
      </trkpt>
      <trkpt lat="47.17317" lon="8.51346">
        <ele>418.8</ele>
        <time>2023-02-12T08:10:55Z</time>
      </trkpt>
      <trkpt lat="47.17316" lon="8.51343">
        <ele>418.8</ele>
        <time>2023-02-12T08:10:56Z</time>
      </trkpt>
      <trkpt lat="47.17315" lon="8.5134">
        <ele>418.2</ele>
        <time>2023-02-12T08:10:57Z</time>
      </trkpt>
      <trkpt lat="47.17315" lon="8.51337">
        <ele>418</ele>
        <time>2023-02-12T08:10:58Z</time>
      </trkpt>
      <trkpt lat="47.17314" lon="8.51334">
        <ele>417.8</ele>
        <time>2023-02-12T08:10:59Z</time>
      </trkpt>
      <trkpt lat="47.17313" lon="8.51333">
        <ele>417.8</ele>
        <time>2023-02-12T08:11:00Z</time>
      </trkpt>
      <trkpt lat="47.17313" lon="8.51333">
        <ele>417.6</ele>
        <time>2023-02-12T08:11:01Z</time>
      </trkpt>
      <trkpt lat="47.17313" lon="8.51333">
        <ele>417.6</ele>
        <time>2023-02-12T08:11:02Z</time>
      </trkpt>
      <trkpt lat="47.17312" lon="8.51333">
        <ele>417.6</ele>
        <time>2023-02-12T08:11:03Z</time>
      </trkpt>
      <trkpt lat="47.17311" lon="8.51333">
        <ele>417.6</ele>
        <time>2023-02-12T08:11:04Z</time>
      </trkpt>
      <trkpt lat="47.1731" lon="8.51332">
        <ele>417.6</ele>
        <time>2023-02-12T08:11:05Z</time>
      </trkpt>
      <trkpt lat="47.1731" lon="8.51332">
        <ele>417.4</ele>
        <time>2023-02-12T08:11:06Z</time>
      </trkpt>
      <trkpt lat="47.17308" lon="8.51333">
        <ele>417.4</ele>
        <time>2023-02-12T08:11:07Z</time>
      </trkpt>
      <trkpt lat="47.17306" lon="8.51334">
        <ele>417.4</ele>
        <time>2023-02-12T08:11:08Z</time>
      </trkpt>
      <trkpt lat="47.17304" lon="8.51334">
        <ele>417.2</ele>
        <time>2023-02-12T08:11:09Z</time>
      </trkpt>
      <trkpt lat="47.17301" lon="8.51335">
        <ele>417.2</ele>
        <time>2023-02-12T08:11:10Z</time>
      </trkpt>
      <trkpt lat="47.17296" lon="8.51337">
        <ele>417.2</ele>
        <time>2023-02-12T08:11:11Z</time>
      </trkpt>
      <trkpt lat="47.1729" lon="8.51341">
        <ele>417.2</ele>
        <time>2023-02-12T08:11:12Z</time>
      </trkpt>
      <trkpt lat="47.17286" lon="8.51344">
        <ele>417.2</ele>
        <time>2023-02-12T08:11:13Z</time>
      </trkpt>
      <trkpt lat="47.17285" lon="8.51346">
        <ele>417.2</ele>
        <time>2023-02-12T08:11:14Z</time>
      </trkpt>
      <trkpt lat="47.17283" lon="8.51348">
        <ele>417.2</ele>
        <time>2023-02-12T08:11:15Z</time>
      </trkpt>
      <trkpt lat="47.17282" lon="8.51351">
        <ele>417.2</ele>
        <time>2023-02-12T08:11:16Z</time>
      </trkpt>
      <trkpt lat="47.1728" lon="8.51354">
        <ele>417.2</ele>
        <time>2023-02-12T08:11:17Z</time>
      </trkpt>
      <trkpt lat="47.17278" lon="8.51358">
        <ele>417.2</ele>
        <time>2023-02-12T08:11:18Z</time>
      </trkpt>
      <trkpt lat="47.17276" lon="8.51362">
        <ele>417.4</ele>
        <time>2023-02-12T08:11:19Z</time>
      </trkpt>
      <trkpt lat="47.17275" lon="8.51367">
        <ele>417.4</ele>
        <time>2023-02-12T08:11:20Z</time>
      </trkpt>
      <trkpt lat="47.17274" lon="8.51371">
        <ele>417.4</ele>
        <time>2023-02-12T08:11:21Z</time>
      </trkpt>
      <trkpt lat="47.17272" lon="8.51376">
        <ele>417.4</ele>
        <time>2023-02-12T08:11:22Z</time>
      </trkpt>
      <trkpt lat="47.17271" lon="8.51381">
        <ele>417.6</ele>
        <time>2023-02-12T08:11:23Z</time>
      </trkpt>
      <trkpt lat="47.1727" lon="8.51386">
        <ele>417.6</ele>
        <time>2023-02-12T08:11:24Z</time>
      </trkpt>
      <trkpt lat="47.17268" lon="8.51391">
        <ele>417.8</ele>
        <time>2023-02-12T08:11:25Z</time>
      </trkpt>
      <trkpt lat="47.17267" lon="8.51396">
        <ele>418</ele>
        <time>2023-02-12T08:11:26Z</time>
      </trkpt>
      <trkpt lat="47.17266" lon="8.51402">
        <ele>418.2</ele>
        <time>2023-02-12T08:11:27Z</time>
      </trkpt>
      <trkpt lat="47.17264" lon="8.51408">
        <ele>418.2</ele>
        <time>2023-02-12T08:11:28Z</time>
      </trkpt>
      <trkpt lat="47.17263" lon="8.51414">
        <ele>418.4</ele>
        <time>2023-02-12T08:11:29Z</time>
      </trkpt>
      <trkpt lat="47.17261" lon="8.51419">
        <ele>418.4</ele>
        <time>2023-02-12T08:11:30Z</time>
      </trkpt>
      <trkpt lat="47.17259" lon="8.51423">
        <ele>418.6</ele>
        <time>2023-02-12T08:11:31Z</time>
      </trkpt>
      <trkpt lat="47.17257" lon="8.51429">
        <ele>418.6</ele>
        <time>2023-02-12T08:11:32Z</time>
      </trkpt>
      <trkpt lat="47.17255" lon="8.51434">
        <ele>418.6</ele>
        <time>2023-02-12T08:11:33Z</time>
      </trkpt>
      <trkpt lat="47.17253" lon="8.51441">
        <ele>418.8</ele>
        <time>2023-02-12T08:11:34Z</time>
      </trkpt>
      <trkpt lat="47.17251" lon="8.51447">
        <ele>418.8</ele>
        <time>2023-02-12T08:11:35Z</time>
      </trkpt>
      <trkpt lat="47.17249" lon="8.51453">
        <ele>418.8</ele>
        <time>2023-02-12T08:11:36Z</time>
      </trkpt>
      <trkpt lat="47.17246" lon="8.51458">
        <ele>418.8</ele>
        <time>2023-02-12T08:11:37Z</time>
      </trkpt>
      <trkpt lat="47.17242" lon="8.51459">
        <ele>419</ele>
        <time>2023-02-12T08:11:38Z</time>
      </trkpt>
      <trkpt lat="47.17237" lon="8.51459">
        <ele>419</ele>
        <time>2023-02-12T08:11:39Z</time>
      </trkpt>
      <trkpt lat="47.17232" lon="8.51456">
        <ele>419</ele>
        <time>2023-02-12T08:11:40Z</time>
      </trkpt>
      <trkpt lat="47.17228" lon="8.51454">
        <ele>419</ele>
        <time>2023-02-12T08:11:41Z</time>
      </trkpt>
      <trkpt lat="47.17224" lon="8.51452">
        <ele>419</ele>
        <time>2023-02-12T08:11:42Z</time>
      </trkpt>
      <trkpt lat="47.17221" lon="8.51449">
        <ele>419.2</ele>
        <time>2023-02-12T08:11:43Z</time>
      </trkpt>
      <trkpt lat="47.17216" lon="8.51447">
        <ele>419.2</ele>
        <time>2023-02-12T08:11:44Z</time>
      </trkpt>
      <trkpt lat="47.17212" lon="8.51445">
        <ele>419.2</ele>
        <time>2023-02-12T08:11:45Z</time>
      </trkpt>
      <trkpt lat="47.17208" lon="8.51442">
        <ele>419.2</ele>
        <time>2023-02-12T08:11:46Z</time>
      </trkpt>
      <trkpt lat="47.17203" lon="8.51441">
        <ele>419.2</ele>
        <time>2023-02-12T08:11:47Z</time>
      </trkpt>
      <trkpt lat="47.17199" lon="8.51438">
        <ele>419.2</ele>
        <time>2023-02-12T08:11:48Z</time>
      </trkpt>
      <trkpt lat="47.17194" lon="8.51435">
        <ele>419.2</ele>
        <time>2023-02-12T08:11:49Z</time>
      </trkpt>
      <trkpt lat="47.17189" lon="8.51432">
        <ele>419.2</ele>
        <time>2023-02-12T08:11:50Z</time>
      </trkpt>
      <trkpt lat="47.17184" lon="8.51429">
        <ele>419.2</ele>
        <time>2023-02-12T08:11:51Z</time>
      </trkpt>
      <trkpt lat="47.17179" lon="8.51427">
        <ele>419.2</ele>
        <time>2023-02-12T08:11:52Z</time>
      </trkpt>
      <trkpt lat="47.17174" lon="8.51424">
        <ele>419.4</ele>
        <time>2023-02-12T08:11:53Z</time>
      </trkpt>
      <trkpt lat="47.17169" lon="8.51422">
        <ele>419.4</ele>
        <time>2023-02-12T08:11:54Z</time>
      </trkpt>
      <trkpt lat="47.17164" lon="8.51419">
        <ele>419.4</ele>
        <time>2023-02-12T08:11:55Z</time>
      </trkpt>
      <trkpt lat="47.17159" lon="8.51417">
        <ele>419.4</ele>
        <time>2023-02-12T08:11:56Z</time>
      </trkpt>
      <trkpt lat="47.17155" lon="8.51414">
        <ele>419.4</ele>
        <time>2023-02-12T08:11:57Z</time>
      </trkpt>
      <trkpt lat="47.1715" lon="8.51411">
        <ele>419.4</ele>
        <time>2023-02-12T08:11:58Z</time>
      </trkpt>
      <trkpt lat="47.17146" lon="8.51406">
        <ele>419.4</ele>
        <time>2023-02-12T08:11:59Z</time>
      </trkpt>
      <trkpt lat="47.17141" lon="8.51401">
        <ele>419.4</ele>
        <time>2023-02-12T08:12:00Z</time>
      </trkpt>
      <trkpt lat="47.17137" lon="8.51397">
        <ele>419.4</ele>
        <time>2023-02-12T08:12:01Z</time>
      </trkpt>
      <trkpt lat="47.17133" lon="8.51394">
        <ele>419.2</ele>
        <time>2023-02-12T08:12:02Z</time>
      </trkpt>
      <trkpt lat="47.17129" lon="8.51391">
        <ele>419.2</ele>
        <time>2023-02-12T08:12:03Z</time>
      </trkpt>
      <trkpt lat="47.17124" lon="8.51388">
        <ele>419.2</ele>
        <time>2023-02-12T08:12:04Z</time>
      </trkpt>
      <trkpt lat="47.1712" lon="8.51385">
        <ele>419.2</ele>
        <time>2023-02-12T08:12:05Z</time>
      </trkpt>
      <trkpt lat="47.17115" lon="8.51382">
        <ele>419.2</ele>
        <time>2023-02-12T08:12:06Z</time>
      </trkpt>
      <trkpt lat="47.17111" lon="8.51379">
        <ele>419</ele>
        <time>2023-02-12T08:12:07Z</time>
      </trkpt>
      <trkpt lat="47.17106" lon="8.51376">
        <ele>418.8</ele>
        <time>2023-02-12T08:12:08Z</time>
      </trkpt>
      <trkpt lat="47.17101" lon="8.51374">
        <ele>418.8</ele>
        <time>2023-02-12T08:12:09Z</time>
      </trkpt>
      <trkpt lat="47.17096" lon="8.51371">
        <ele>418.6</ele>
        <time>2023-02-12T08:12:10Z</time>
      </trkpt>
      <trkpt lat="47.1709" lon="8.51368">
        <ele>418.6</ele>
        <time>2023-02-12T08:12:11Z</time>
      </trkpt>
      <trkpt lat="47.17086" lon="8.51365">
        <ele>418.4</ele>
        <time>2023-02-12T08:12:12Z</time>
      </trkpt>
      <trkpt lat="47.17081" lon="8.51362">
        <ele>418.4</ele>
        <time>2023-02-12T08:12:13Z</time>
      </trkpt>
      <trkpt lat="47.17077" lon="8.51358">
        <ele>418.4</ele>
        <time>2023-02-12T08:12:14Z</time>
      </trkpt>
      <trkpt lat="47.17072" lon="8.51356">
        <ele>418.2</ele>
        <time>2023-02-12T08:12:15Z</time>
      </trkpt>
      <trkpt lat="47.17067" lon="8.51353">
        <ele>417.8</ele>
        <time>2023-02-12T08:12:16Z</time>
      </trkpt>
      <trkpt lat="47.17063" lon="8.51351">
        <ele>417.6</ele>
        <time>2023-02-12T08:12:17Z</time>
      </trkpt>
      <trkpt lat="47.1706" lon="8.51348">
        <ele>417.4</ele>
        <time>2023-02-12T08:12:18Z</time>
      </trkpt>
      <trkpt lat="47.17056" lon="8.51346">
        <ele>417.2</ele>
        <time>2023-02-12T08:12:19Z</time>
      </trkpt>
      <trkpt lat="47.17053" lon="8.51346">
        <ele>417</ele>
        <time>2023-02-12T08:12:20Z</time>
      </trkpt>
      <trkpt lat="47.1705" lon="8.51347">
        <ele>417</ele>
        <time>2023-02-12T08:12:21Z</time>
      </trkpt>
      <trkpt lat="47.17048" lon="8.51349">
        <ele>416.6</ele>
        <time>2023-02-12T08:12:22Z</time>
      </trkpt>
      <trkpt lat="47.17046" lon="8.51351">
        <ele>416.6</ele>
        <time>2023-02-12T08:12:23Z</time>
      </trkpt>
      <trkpt lat="47.17044" lon="8.51352">
        <ele>416.4</ele>
        <time>2023-02-12T08:12:24Z</time>
      </trkpt>
      <trkpt lat="47.17042" lon="8.51353">
        <ele>416.2</ele>
        <time>2023-02-12T08:12:25Z</time>
      </trkpt>
      <trkpt lat="47.1704" lon="8.51353">
        <ele>416.2</ele>
        <time>2023-02-12T08:12:26Z</time>
      </trkpt>
      <trkpt lat="47.1704" lon="8.51353">
        <ele>416.2</ele>
        <time>2023-02-12T08:12:27Z</time>
      </trkpt>
      <trkpt lat="47.1704" lon="8.51353">
        <ele>416.2</ele>
        <time>2023-02-12T08:12:28Z</time>
      </trkpt>
      <trkpt lat="47.1704" lon="8.51353">
        <ele>416.2</ele>
        <time>2023-02-12T08:12:29Z</time>
      </trkpt>
      <trkpt lat="47.1704" lon="8.51353">
        <ele>416.2</ele>
        <time>2023-02-12T08:12:30Z</time>
      </trkpt>
      <trkpt lat="47.1704" lon="8.51353">
        <ele>416.2</ele>
        <time>2023-02-12T08:12:31Z</time>
      </trkpt>
      <trkpt lat="47.1704" lon="8.51353">
        <ele>416.2</ele>
        <time>2023-02-12T08:12:32Z</time>
      </trkpt>
      <trkpt lat="47.1704" lon="8.51353">
        <ele>416.2</ele>
        <time>2023-02-12T08:12:33Z</time>
      </trkpt>
      <trkpt lat="47.1704" lon="8.51353">
        <ele>416.2</ele>
        <time>2023-02-12T08:12:34Z</time>
      </trkpt>
      <trkpt lat="47.1704" lon="8.51353">
        <ele>416.2</ele>
        <time>2023-02-12T08:12:35Z</time>
      </trkpt>
      <trkpt lat="47.1704" lon="8.51353">
        <ele>416.2</ele>
        <time>2023-02-12T08:12:36Z</time>
      </trkpt>
      <trkpt lat="47.1704" lon="8.51353">
        <ele>416.2</ele>
        <time>2023-02-12T08:12:37Z</time>
      </trkpt>
      <trkpt lat="47.1704" lon="8.51353">
        <ele>416.2</ele>
        <time>2023-02-12T08:12:38Z</time>
      </trkpt>
      <trkpt lat="47.1704" lon="8.51353">
        <ele>416.2</ele>
        <time>2023-02-12T08:12:39Z</time>
      </trkpt>
      <trkpt lat="47.1704" lon="8.51353">
        <ele>416</ele>
        <time>2023-02-12T08:12:40Z</time>
      </trkpt>
      <trkpt lat="47.1704" lon="8.51353">
        <ele>416</ele>
        <time>2023-02-12T08:12:41Z</time>
      </trkpt>
      <trkpt lat="47.1704" lon="8.51353">
        <ele>416</ele>
        <time>2023-02-12T08:12:42Z</time>
      </trkpt>
      <trkpt lat="47.1704" lon="8.51353">
        <ele>416</ele>
        <time>2023-02-12T08:12:43Z</time>
      </trkpt>
      <trkpt lat="47.1704" lon="8.51353">
        <ele>416</ele>
        <time>2023-02-12T08:12:44Z</time>
      </trkpt>
      <trkpt lat="47.1704" lon="8.51353">
        <ele>415.8</ele>
        <time>2023-02-12T08:12:45Z</time>
      </trkpt>
      <trkpt lat="47.1704" lon="8.51353">
        <ele>415.8</ele>
        <time>2023-02-12T08:12:46Z</time>
      </trkpt>
      <trkpt lat="47.1704" lon="8.51353">
        <ele>415.8</ele>
        <time>2023-02-12T08:12:47Z</time>
      </trkpt>
      <trkpt lat="47.1704" lon="8.51353">
        <ele>415.8</ele>
        <time>2023-02-12T08:12:48Z</time>
      </trkpt>
      <trkpt lat="47.1704" lon="8.51353">
        <ele>415.8</ele>
        <time>2023-02-12T08:12:49Z</time>
      </trkpt>
      <trkpt lat="47.1704" lon="8.51353">
        <ele>415.8</ele>
        <time>2023-02-12T08:12:50Z</time>
      </trkpt>
      <trkpt lat="47.1704" lon="8.51353">
        <ele>415.8</ele>
        <time>2023-02-12T08:12:51Z</time>
      </trkpt>
      <trkpt lat="47.1704" lon="8.51353">
        <ele>415.8</ele>
        <time>2023-02-12T08:12:52Z</time>
      </trkpt>
      <trkpt lat="47.1704" lon="8.51353">
        <ele>415.8</ele>
        <time>2023-02-12T08:12:53Z</time>
      </trkpt>
      <trkpt lat="47.1704" lon="8.51353">
        <ele>415.8</ele>
        <time>2023-02-12T08:12:54Z</time>
      </trkpt>
      <trkpt lat="47.1704" lon="8.51353">
        <ele>415.8</ele>
        <time>2023-02-12T08:12:55Z</time>
      </trkpt>
      <trkpt lat="47.1704" lon="8.51353">
        <ele>415.8</ele>
        <time>2023-02-12T08:12:56Z</time>
      </trkpt>
      <trkpt lat="47.1704" lon="8.51353">
        <ele>415.8</ele>
        <time>2023-02-12T08:12:57Z</time>
      </trkpt>
      <trkpt lat="47.1704" lon="8.51353">
        <ele>416</ele>
        <time>2023-02-12T08:12:58Z</time>
      </trkpt>
      <trkpt lat="47.1704" lon="8.51353">
        <ele>416</ele>
        <time>2023-02-12T08:12:59Z</time>
      </trkpt>
      <trkpt lat="47.1704" lon="8.51353">
        <ele>416</ele>
        <time>2023-02-12T08:13:00Z</time>
      </trkpt>
      <trkpt lat="47.1704" lon="8.51353">
        <ele>416</ele>
        <time>2023-02-12T08:13:01Z</time>
      </trkpt>
      <trkpt lat="47.1704" lon="8.51353">
        <ele>416</ele>
        <time>2023-02-12T08:13:02Z</time>
      </trkpt>
      <trkpt lat="47.1704" lon="8.51353">
        <ele>415.8</ele>
        <time>2023-02-12T08:13:03Z</time>
      </trkpt>
      <trkpt lat="47.1704" lon="8.51353">
        <ele>416</ele>
        <time>2023-02-12T08:13:04Z</time>
      </trkpt>
      <trkpt lat="47.1704" lon="8.51353">
        <ele>415.8</ele>
        <time>2023-02-12T08:13:05Z</time>
      </trkpt>
      <trkpt lat="47.1704" lon="8.51353">
        <ele>415.8</ele>
        <time>2023-02-12T08:13:06Z</time>
      </trkpt>
      <trkpt lat="47.1704" lon="8.51353">
        <ele>415.8</ele>
        <time>2023-02-12T08:13:07Z</time>
      </trkpt>
      <trkpt lat="47.1704" lon="8.51353">
        <ele>415.8</ele>
        <time>2023-02-12T08:13:08Z</time>
      </trkpt>
      <trkpt lat="47.1704" lon="8.51353">
        <ele>416</ele>
        <time>2023-02-12T08:13:09Z</time>
      </trkpt>
      <trkpt lat="47.1704" lon="8.51353">
        <ele>416</ele>
        <time>2023-02-12T08:13:10Z</time>
      </trkpt>
      <trkpt lat="47.1704" lon="8.51353">
        <ele>416</ele>
        <time>2023-02-12T08:13:11Z</time>
      </trkpt>
      <trkpt lat="47.1704" lon="8.51353">
        <ele>416</ele>
        <time>2023-02-12T08:13:12Z</time>
      </trkpt>
      <trkpt lat="47.1704" lon="8.51353">
        <ele>416</ele>
        <time>2023-02-12T08:13:13Z</time>
      </trkpt>
      <trkpt lat="47.1704" lon="8.51353">
        <ele>416</ele>
        <time>2023-02-12T08:13:14Z</time>
      </trkpt>
      <trkpt lat="47.1704" lon="8.51353">
        <ele>416</ele>
        <time>2023-02-12T08:13:15Z</time>
      </trkpt>
      <trkpt lat="47.1704" lon="8.51353">
        <ele>416</ele>
        <time>2023-02-12T08:13:16Z</time>
      </trkpt>
      <trkpt lat="47.1704" lon="8.51353">
        <ele>416</ele>
        <time>2023-02-12T08:13:17Z</time>
      </trkpt>
      <trkpt lat="47.1704" lon="8.51353">
        <ele>416</ele>
        <time>2023-02-12T08:13:18Z</time>
      </trkpt>
      <trkpt lat="47.1704" lon="8.51353">
        <ele>416</ele>
        <time>2023-02-12T08:13:19Z</time>
      </trkpt>
      <trkpt lat="47.1704" lon="8.51353">
        <ele>416</ele>
        <time>2023-02-12T08:13:20Z</time>
      </trkpt>
      <trkpt lat="47.1704" lon="8.51353">
        <ele>416</ele>
        <time>2023-02-12T08:13:21Z</time>
      </trkpt>
      <trkpt lat="47.17039" lon="8.51353">
        <ele>415.4</ele>
        <time>2023-02-12T08:13:34Z</time>
      </trkpt>
      <trkpt lat="47.17039" lon="8.51354">
        <ele>415.4</ele>
        <time>2023-02-12T08:13:35Z</time>
      </trkpt>
      <trkpt lat="47.17039" lon="8.51354">
        <ele>415.4</ele>
        <time>2023-02-12T08:13:36Z</time>
      </trkpt>
      <trkpt lat="47.17039" lon="8.51354">
        <ele>415.4</ele>
        <time>2023-02-12T08:13:37Z</time>
      </trkpt>
      <trkpt lat="47.17039" lon="8.51354">
        <ele>415.4</ele>
        <time>2023-02-12T08:13:38Z</time>
      </trkpt>
      <trkpt lat="47.17039" lon="8.51354">
        <ele>415.4</ele>
        <time>2023-02-12T08:13:39Z</time>
      </trkpt>
      <trkpt lat="47.17039" lon="8.51354">
        <ele>415.4</ele>
        <time>2023-02-12T08:13:40Z</time>
      </trkpt>
      <trkpt lat="47.17039" lon="8.51354">
        <ele>415.4</ele>
        <time>2023-02-12T08:13:41Z</time>
      </trkpt>
      <trkpt lat="47.17038" lon="8.51355">
        <ele>415.4</ele>
        <time>2023-02-12T08:13:42Z</time>
      </trkpt>
      <trkpt lat="47.17038" lon="8.51355">
        <ele>415.4</ele>
        <time>2023-02-12T08:13:43Z</time>
      </trkpt>
      <trkpt lat="47.17038" lon="8.51355">
        <ele>415.4</ele>
        <time>2023-02-12T08:13:44Z</time>
      </trkpt>
      <trkpt lat="47.17038" lon="8.51355">
        <ele>415.4</ele>
        <time>2023-02-12T08:13:45Z</time>
      </trkpt>
      <trkpt lat="47.17038" lon="8.51355">
        <ele>415.4</ele>
        <time>2023-02-12T08:13:46Z</time>
      </trkpt>
      <trkpt lat="47.17038" lon="8.51355">
        <ele>415.4</ele>
        <time>2023-02-12T08:13:47Z</time>
      </trkpt>
      <trkpt lat="47.17038" lon="8.51355">
        <ele>415.4</ele>
        <time>2023-02-12T08:13:48Z</time>
      </trkpt>
      <trkpt lat="47.17038" lon="8.51355">
        <ele>415.4</ele>
        <time>2023-02-12T08:13:49Z</time>
      </trkpt>
      <trkpt lat="47.17038" lon="8.51355">
        <ele>415.4</ele>
        <time>2023-02-12T08:13:50Z</time>
      </trkpt>
      <trkpt lat="47.17038" lon="8.51355">
        <ele>415.4</ele>
        <time>2023-02-12T08:13:51Z</time>
      </trkpt>
      <trkpt lat="47.17038" lon="8.51355">
        <ele>415.4</ele>
        <time>2023-02-12T08:13:52Z</time>
      </trkpt>
      <trkpt lat="47.17038" lon="8.51355">
        <ele>415.4</ele>
        <time>2023-02-12T08:13:53Z</time>
      </trkpt>
      <trkpt lat="47.17038" lon="8.51355">
        <ele>415.4</ele>
        <time>2023-02-12T08:13:54Z</time>
      </trkpt>
      <trkpt lat="47.17038" lon="8.51355">
        <ele>415.4</ele>
        <time>2023-02-12T08:13:55Z</time>
      </trkpt>
      <trkpt lat="47.17038" lon="8.51355">
        <ele>415.4</ele>
        <time>2023-02-12T08:13:56Z</time>
      </trkpt>
      <trkpt lat="47.17038" lon="8.51355">
        <ele>415.4</ele>
        <time>2023-02-12T08:13:57Z</time>
      </trkpt>
      <trkpt lat="47.17038" lon="8.51355">
        <ele>415.4</ele>
        <time>2023-02-12T08:13:58Z</time>
      </trkpt>
      <trkpt lat="47.17038" lon="8.51354">
        <ele>415.4</ele>
        <time>2023-02-12T08:13:59Z</time>
      </trkpt>
      <trkpt lat="47.17038" lon="8.51354">
        <ele>415.4</ele>
        <time>2023-02-12T08:14:00Z</time>
      </trkpt>
      <trkpt lat="47.17038" lon="8.51354">
        <ele>415.4</ele>
        <time>2023-02-12T08:14:01Z</time>
      </trkpt>
      <trkpt lat="47.17038" lon="8.51354">
        <ele>415.4</ele>
        <time>2023-02-12T08:14:02Z</time>
      </trkpt>
      <trkpt lat="47.17038" lon="8.51354">
        <ele>415.4</ele>
        <time>2023-02-12T08:14:03Z</time>
      </trkpt>
      <trkpt lat="47.17038" lon="8.51354">
        <ele>415.4</ele>
        <time>2023-02-12T08:14:04Z</time>
      </trkpt>
      <trkpt lat="47.17038" lon="8.51354">
        <ele>415.4</ele>
        <time>2023-02-12T08:14:05Z</time>
      </trkpt>
      <trkpt lat="47.17038" lon="8.51354">
        <ele>415.4</ele>
        <time>2023-02-12T08:14:06Z</time>
      </trkpt>
      <trkpt lat="47.17038" lon="8.51354">
        <ele>415.4</ele>
        <time>2023-02-12T08:14:07Z</time>
      </trkpt>
      <trkpt lat="47.17038" lon="8.51354">
        <ele>415.4</ele>
        <time>2023-02-12T08:14:08Z</time>
      </trkpt>
      <trkpt lat="47.17038" lon="8.51354">
        <ele>415.4</ele>
        <time>2023-02-12T08:14:09Z</time>
      </trkpt>
      <trkpt lat="47.17038" lon="8.51354">
        <ele>415.4</ele>
        <time>2023-02-12T08:14:10Z</time>
      </trkpt>
      <trkpt lat="47.17038" lon="8.51354">
        <ele>415.4</ele>
        <time>2023-02-12T08:14:11Z</time>
      </trkpt>
      <trkpt lat="47.17038" lon="8.51354">
        <ele>415.4</ele>
        <time>2023-02-12T08:14:12Z</time>
      </trkpt>
      <trkpt lat="47.17038" lon="8.51354">
        <ele>415.4</ele>
        <time>2023-02-12T08:14:13Z</time>
      </trkpt>
      <trkpt lat="47.17038" lon="8.51354">
        <ele>415.4</ele>
        <time>2023-02-12T08:14:14Z</time>
      </trkpt>
      <trkpt lat="47.17038" lon="8.51354">
        <ele>415.4</ele>
        <time>2023-02-12T08:14:15Z</time>
      </trkpt>
      <trkpt lat="47.17038" lon="8.51354">
        <ele>415.4</ele>
        <time>2023-02-12T08:14:16Z</time>
      </trkpt>
      <trkpt lat="47.17038" lon="8.51354">
        <ele>415.4</ele>
        <time>2023-02-12T08:14:17Z</time>
      </trkpt>
      <trkpt lat="47.17038" lon="8.51354">
        <ele>415.4</ele>
        <time>2023-02-12T08:14:18Z</time>
      </trkpt>
      <trkpt lat="47.17038" lon="8.51354">
        <ele>415.4</ele>
        <time>2023-02-12T08:14:19Z</time>
      </trkpt>
      <trkpt lat="47.17038" lon="8.51354">
        <ele>415.4</ele>
        <time>2023-02-12T08:14:20Z</time>
      </trkpt>
      <trkpt lat="47.17038" lon="8.51354">
        <ele>415.4</ele>
        <time>2023-02-12T08:14:21Z</time>
      </trkpt>
      <trkpt lat="47.17038" lon="8.51354">
        <ele>415.4</ele>
        <time>2023-02-12T08:14:22Z</time>
      </trkpt>
      <trkpt lat="47.17038" lon="8.51354">
        <ele>415.4</ele>
        <time>2023-02-12T08:14:23Z</time>
      </trkpt>
      <trkpt lat="47.17038" lon="8.51354">
        <ele>415.4</ele>
        <time>2023-02-12T08:14:24Z</time>
      </trkpt>
      <trkpt lat="47.17038" lon="8.51354">
        <ele>415.4</ele>
        <time>2023-02-12T08:14:25Z</time>
      </trkpt>
      <trkpt lat="47.17038" lon="8.51354">
        <ele>415.4</ele>
        <time>2023-02-12T08:14:26Z</time>
      </trkpt>
      <trkpt lat="47.17038" lon="8.51354">
        <ele>415.4</ele>
        <time>2023-02-12T08:14:27Z</time>
      </trkpt>
      <trkpt lat="47.17038" lon="8.51354">
        <ele>415.4</ele>
        <time>2023-02-12T08:14:28Z</time>
      </trkpt>
      <trkpt lat="47.17038" lon="8.51354">
        <ele>415.4</ele>
        <time>2023-02-12T08:14:29Z</time>
      </trkpt>
      <trkpt lat="47.17038" lon="8.51354">
        <ele>415.4</ele>
        <time>2023-02-12T08:14:30Z</time>
      </trkpt>
      <trkpt lat="47.17038" lon="8.51354">
        <ele>415.4</ele>
        <time>2023-02-12T08:14:31Z</time>
      </trkpt>
      <trkpt lat="47.17038" lon="8.51354">
        <ele>415.4</ele>
        <time>2023-02-12T08:14:32Z</time>
      </trkpt>
      <trkpt lat="47.17038" lon="8.51354">
        <ele>415.4</ele>
        <time>2023-02-12T08:14:33Z</time>
      </trkpt>
      <trkpt lat="47.17038" lon="8.51354">
        <ele>415.4</ele>
        <time>2023-02-12T08:14:34Z</time>
      </trkpt>
      <trkpt lat="47.17038" lon="8.51354">
        <ele>415.4</ele>
        <time>2023-02-12T08:14:35Z</time>
      </trkpt>
      <trkpt lat="47.17038" lon="8.51354">
        <ele>415.4</ele>
        <time>2023-02-12T08:14:36Z</time>
      </trkpt>
      <trkpt lat="47.17038" lon="8.51354">
        <ele>415.4</ele>
        <time>2023-02-12T08:14:37Z</time>
      </trkpt>
      <trkpt lat="47.17038" lon="8.51354">
        <ele>415.4</ele>
        <time>2023-02-12T08:14:38Z</time>
      </trkpt>
      <trkpt lat="47.17038" lon="8.51354">
        <ele>415.4</ele>
        <time>2023-02-12T08:14:39Z</time>
      </trkpt>
      <trkpt lat="47.17038" lon="8.51354">
        <ele>415.4</ele>
        <time>2023-02-12T08:14:40Z</time>
      </trkpt>
      <trkpt lat="47.17037" lon="8.51354">
        <ele>415.4</ele>
        <time>2023-02-12T08:14:41Z</time>
      </trkpt>
      <trkpt lat="47.17036" lon="8.51355">
        <ele>415.4</ele>
        <time>2023-02-12T08:14:42Z</time>
      </trkpt>
      <trkpt lat="47.17036" lon="8.51356">
        <ele>416.4</ele>
        <time>2023-02-12T08:14:43Z</time>
      </trkpt>
      <trkpt lat="47.17034" lon="8.51358">
        <ele>416.4</ele>
        <time>2023-02-12T08:14:44Z</time>
      </trkpt>
      <trkpt lat="47.17033" lon="8.5136">
        <ele>416.4</ele>
        <time>2023-02-12T08:14:45Z</time>
      </trkpt>
      <trkpt lat="47.17032" lon="8.51361">
        <ele>416.4</ele>
        <time>2023-02-12T08:14:46Z</time>
      </trkpt>
      <trkpt lat="47.17031" lon="8.51363">
        <ele>416.4</ele>
        <time>2023-02-12T08:14:47Z</time>
      </trkpt>
      <trkpt lat="47.17029" lon="8.51365">
        <ele>416.4</ele>
        <time>2023-02-12T08:14:48Z</time>
      </trkpt>
      <trkpt lat="47.17027" lon="8.51367">
        <ele>416.4</ele>
        <time>2023-02-12T08:14:49Z</time>
      </trkpt>
      <trkpt lat="47.17024" lon="8.51368">
        <ele>416.4</ele>
        <time>2023-02-12T08:14:50Z</time>
      </trkpt>
      <trkpt lat="47.17022" lon="8.5137">
        <ele>416.4</ele>
        <time>2023-02-12T08:14:51Z</time>
      </trkpt>
      <trkpt lat="47.1702" lon="8.51371">
        <ele>416.4</ele>
        <time>2023-02-12T08:14:52Z</time>
      </trkpt>
      <trkpt lat="47.17018" lon="8.51373">
        <ele>416.4</ele>
        <time>2023-02-12T08:14:53Z</time>
      </trkpt>
      <trkpt lat="47.17015" lon="8.51375">
        <ele>416.4</ele>
        <time>2023-02-12T08:14:54Z</time>
      </trkpt>
      <trkpt lat="47.17013" lon="8.51377">
        <ele>416.2</ele>
        <time>2023-02-12T08:14:55Z</time>
      </trkpt>
      <trkpt lat="47.1701" lon="8.51379">
        <ele>416.2</ele>
        <time>2023-02-12T08:14:56Z</time>
      </trkpt>
      <trkpt lat="47.17008" lon="8.5138">
        <ele>416.2</ele>
        <time>2023-02-12T08:14:57Z</time>
      </trkpt>
      <trkpt lat="47.17007" lon="8.5138">
        <ele>416.2</ele>
        <time>2023-02-12T08:14:58Z</time>
      </trkpt>
      <trkpt lat="47.17006" lon="8.5138">
        <ele>416.2</ele>
        <time>2023-02-12T08:14:59Z</time>
      </trkpt>
      <trkpt lat="47.17004" lon="8.51381">
        <ele>416.2</ele>
        <time>2023-02-12T08:15:00Z</time>
      </trkpt>
      <trkpt lat="47.17005" lon="8.51384">
        <ele>416.2</ele>
        <time>2023-02-12T08:15:01Z</time>
      </trkpt>
      <trkpt lat="47.17007" lon="8.51384">
        <ele>416.2</ele>
        <time>2023-02-12T08:15:02Z</time>
      </trkpt>
      <trkpt lat="47.17009" lon="8.51382">
        <ele>416.2</ele>
        <time>2023-02-12T08:15:03Z</time>
      </trkpt>
      <trkpt lat="47.17011" lon="8.5138">
        <ele>416.2</ele>
        <time>2023-02-12T08:15:04Z</time>
      </trkpt>
      <trkpt lat="47.17014" lon="8.51377">
        <ele>416.4</ele>
        <time>2023-02-12T08:15:05Z</time>
      </trkpt>
      <trkpt lat="47.17016" lon="8.51374">
        <ele>416.4</ele>
        <time>2023-02-12T08:15:06Z</time>
      </trkpt>
      <trkpt lat="47.17019" lon="8.51371">
        <ele>416.4</ele>
        <time>2023-02-12T08:15:07Z</time>
      </trkpt>
      <trkpt lat="47.17021" lon="8.51368">
        <ele>416.4</ele>
        <time>2023-02-12T08:15:08Z</time>
      </trkpt>
      <trkpt lat="47.17023" lon="8.51366">
        <ele>416.4</ele>
        <time>2023-02-12T08:15:09Z</time>
      </trkpt>
      <trkpt lat="47.17026" lon="8.51363">
        <ele>416.4</ele>
        <time>2023-02-12T08:15:10Z</time>
      </trkpt>
      <trkpt lat="47.17029" lon="8.51361">
        <ele>416.4</ele>
        <time>2023-02-12T08:15:11Z</time>
      </trkpt>
      <trkpt lat="47.17032" lon="8.51358">
        <ele>416.4</ele>
        <time>2023-02-12T08:15:12Z</time>
      </trkpt>
      <trkpt lat="47.17035" lon="8.51356">
        <ele>416.4</ele>
        <time>2023-02-12T08:15:13Z</time>
      </trkpt>
      <trkpt lat="47.17038" lon="8.51354">
        <ele>416.4</ele>
        <time>2023-02-12T08:15:14Z</time>
      </trkpt>
      <trkpt lat="47.17041" lon="8.51352">
        <ele>416.4</ele>
        <time>2023-02-12T08:15:15Z</time>
      </trkpt>
      <trkpt lat="47.17044" lon="8.5135">
        <ele>416.4</ele>
        <time>2023-02-12T08:15:16Z</time>
      </trkpt>
      <trkpt lat="47.17048" lon="8.51348">
        <ele>416.4</ele>
        <time>2023-02-12T08:15:17Z</time>
      </trkpt>
      <trkpt lat="47.17052" lon="8.51346">
        <ele>416.6</ele>
        <time>2023-02-12T08:15:18Z</time>
      </trkpt>
      <trkpt lat="47.17056" lon="8.51343">
        <ele>416.6</ele>
        <time>2023-02-12T08:15:19Z</time>
      </trkpt>
      <trkpt lat="47.17059" lon="8.5134">
        <ele>416.6</ele>
        <time>2023-02-12T08:15:20Z</time>
      </trkpt>
      <trkpt lat="47.17062" lon="8.51336">
        <ele>416.6</ele>
        <time>2023-02-12T08:15:21Z</time>
      </trkpt>
      <trkpt lat="47.17066" lon="8.51333">
        <ele>416.6</ele>
        <time>2023-02-12T08:15:22Z</time>
      </trkpt>
      <trkpt lat="47.17069" lon="8.51328">
        <ele>416.8</ele>
        <time>2023-02-12T08:15:23Z</time>
      </trkpt>
      <trkpt lat="47.17073" lon="8.51324">
        <ele>416.8</ele>
        <time>2023-02-12T08:15:24Z</time>
      </trkpt>
      <trkpt lat="47.17076" lon="8.5132">
        <ele>416.8</ele>
        <time>2023-02-12T08:15:25Z</time>
      </trkpt>
      <trkpt lat="47.1708" lon="8.51315">
        <ele>416.8</ele>
        <time>2023-02-12T08:15:26Z</time>
      </trkpt>
      <trkpt lat="47.17083" lon="8.5131">
        <ele>417</ele>
        <time>2023-02-12T08:15:27Z</time>
      </trkpt>
      <trkpt lat="47.17087" lon="8.51304">
        <ele>417</ele>
        <time>2023-02-12T08:15:28Z</time>
      </trkpt>
      <trkpt lat="47.1709" lon="8.51299">
        <ele>417</ele>
        <time>2023-02-12T08:15:29Z</time>
      </trkpt>
      <trkpt lat="47.17094" lon="8.51293">
        <ele>417</ele>
        <time>2023-02-12T08:15:30Z</time>
      </trkpt>
      <trkpt lat="47.17097" lon="8.51288">
        <ele>417</ele>
        <time>2023-02-12T08:15:31Z</time>
      </trkpt>
      <trkpt lat="47.17101" lon="8.51283">
        <ele>417</ele>
        <time>2023-02-12T08:15:32Z</time>
      </trkpt>
      <trkpt lat="47.17104" lon="8.51277">
        <ele>417</ele>
        <time>2023-02-12T08:15:33Z</time>
      </trkpt>
      <trkpt lat="47.17107" lon="8.51272">
        <ele>417</ele>
        <time>2023-02-12T08:15:34Z</time>
      </trkpt>
      <trkpt lat="47.17113" lon="8.51265">
        <ele>417</ele>
        <time>2023-02-12T08:15:35Z</time>
      </trkpt>
      <trkpt lat="47.17114" lon="8.51263">
        <ele>417</ele>
        <time>2023-02-12T08:15:36Z</time>
      </trkpt>
      <trkpt lat="47.17118" lon="8.51257">
        <ele>417</ele>
        <time>2023-02-12T08:15:37Z</time>
      </trkpt>
      <trkpt lat="47.17121" lon="8.51251">
        <ele>417</ele>
        <time>2023-02-12T08:15:38Z</time>
      </trkpt>
      <trkpt lat="47.17124" lon="8.51245">
        <ele>416.8</ele>
        <time>2023-02-12T08:15:39Z</time>
      </trkpt>
      <trkpt lat="47.17127" lon="8.5124">
        <ele>416.8</ele>
        <time>2023-02-12T08:15:40Z</time>
      </trkpt>
      <trkpt lat="47.17131" lon="8.51234">
        <ele>416.8</ele>
        <time>2023-02-12T08:15:41Z</time>
      </trkpt>
      <trkpt lat="47.17134" lon="8.51228">
        <ele>416.8</ele>
        <time>2023-02-12T08:15:42Z</time>
      </trkpt>
      <trkpt lat="47.17137" lon="8.51221">
        <ele>416.8</ele>
        <time>2023-02-12T08:15:43Z</time>
      </trkpt>
      <trkpt lat="47.1714" lon="8.51214">
        <ele>416.8</ele>
        <time>2023-02-12T08:15:44Z</time>
      </trkpt>
      <trkpt lat="47.17143" lon="8.51207">
        <ele>416.8</ele>
        <time>2023-02-12T08:15:45Z</time>
      </trkpt>
      <trkpt lat="47.17146" lon="8.51201">
        <ele>416.8</ele>
        <time>2023-02-12T08:15:46Z</time>
      </trkpt>
      <trkpt lat="47.17149" lon="8.51196">
        <ele>417</ele>
        <time>2023-02-12T08:15:47Z</time>
      </trkpt>
      <trkpt lat="47.17152" lon="8.51189">
        <ele>417</ele>
        <time>2023-02-12T08:15:48Z</time>
      </trkpt>
      <trkpt lat="47.17155" lon="8.51183">
        <ele>417</ele>
        <time>2023-02-12T08:15:49Z</time>
      </trkpt>
      <trkpt lat="47.17158" lon="8.51179">
        <ele>417</ele>
        <time>2023-02-12T08:15:50Z</time>
      </trkpt>
      <trkpt lat="47.17161" lon="8.51173">
        <ele>417</ele>
        <time>2023-02-12T08:15:51Z</time>
      </trkpt>
      <trkpt lat="47.17165" lon="8.51167">
        <ele>417</ele>
        <time>2023-02-12T08:15:52Z</time>
      </trkpt>
      <trkpt lat="47.17169" lon="8.5116">
        <ele>417</ele>
        <time>2023-02-12T08:15:53Z</time>
      </trkpt>
      <trkpt lat="47.17172" lon="8.51154">
        <ele>417</ele>
        <time>2023-02-12T08:15:54Z</time>
      </trkpt>
      <trkpt lat="47.17176" lon="8.51148">
        <ele>417</ele>
        <time>2023-02-12T08:15:55Z</time>
      </trkpt>
      <trkpt lat="47.17178" lon="8.51141">
        <ele>417</ele>
        <time>2023-02-12T08:15:56Z</time>
      </trkpt>
      <trkpt lat="47.1718" lon="8.51134">
        <ele>417</ele>
        <time>2023-02-12T08:15:57Z</time>
      </trkpt>
      <trkpt lat="47.17182" lon="8.51128">
        <ele>417</ele>
        <time>2023-02-12T08:15:58Z</time>
      </trkpt>
      <trkpt lat="47.17184" lon="8.51121">
        <ele>417</ele>
        <time>2023-02-12T08:15:59Z</time>
      </trkpt>
      <trkpt lat="47.17187" lon="8.51115">
        <ele>417</ele>
        <time>2023-02-12T08:16:00Z</time>
      </trkpt>
      <trkpt lat="47.17189" lon="8.51108">
        <ele>417</ele>
        <time>2023-02-12T08:16:01Z</time>
      </trkpt>
      <trkpt lat="47.17192" lon="8.51101">
        <ele>417</ele>
        <time>2023-02-12T08:16:02Z</time>
      </trkpt>
      <trkpt lat="47.17195" lon="8.51094">
        <ele>417</ele>
        <time>2023-02-12T08:16:03Z</time>
      </trkpt>
      <trkpt lat="47.17198" lon="8.51087">
        <ele>417</ele>
        <time>2023-02-12T08:16:04Z</time>
      </trkpt>
      <trkpt lat="47.17201" lon="8.51081">
        <ele>417</ele>
        <time>2023-02-12T08:16:05Z</time>
      </trkpt>
      <trkpt lat="47.17204" lon="8.51075">
        <ele>417</ele>
        <time>2023-02-12T08:16:06Z</time>
      </trkpt>
      <trkpt lat="47.17206" lon="8.51068">
        <ele>417</ele>
        <time>2023-02-12T08:16:07Z</time>
      </trkpt>
      <trkpt lat="47.17209" lon="8.51062">
        <ele>417</ele>
        <time>2023-02-12T08:16:08Z</time>
      </trkpt>
      <trkpt lat="47.17211" lon="8.51055">
        <ele>417</ele>
        <time>2023-02-12T08:16:09Z</time>
      </trkpt>
      <trkpt lat="47.17213" lon="8.51047">
        <ele>417</ele>
        <time>2023-02-12T08:16:10Z</time>
      </trkpt>
      <trkpt lat="47.17215" lon="8.5104">
        <ele>417</ele>
        <time>2023-02-12T08:16:11Z</time>
      </trkpt>
      <trkpt lat="47.17218" lon="8.51033">
        <ele>417</ele>
        <time>2023-02-12T08:16:12Z</time>
      </trkpt>
      <trkpt lat="47.1722" lon="8.51026">
        <ele>417</ele>
        <time>2023-02-12T08:16:13Z</time>
      </trkpt>
      <trkpt lat="47.17222" lon="8.51018">
        <ele>417</ele>
        <time>2023-02-12T08:16:14Z</time>
      </trkpt>
      <trkpt lat="47.17225" lon="8.51011">
        <ele>417</ele>
        <time>2023-02-12T08:16:15Z</time>
      </trkpt>
      <trkpt lat="47.17227" lon="8.51005">
        <ele>417</ele>
        <time>2023-02-12T08:16:16Z</time>
      </trkpt>
      <trkpt lat="47.1723" lon="8.50998">
        <ele>417</ele>
        <time>2023-02-12T08:16:17Z</time>
      </trkpt>
      <trkpt lat="47.17233" lon="8.50991">
        <ele>417</ele>
        <time>2023-02-12T08:16:18Z</time>
      </trkpt>
      <trkpt lat="47.17235" lon="8.50984">
        <ele>417</ele>
        <time>2023-02-12T08:16:19Z</time>
      </trkpt>
      <trkpt lat="47.17237" lon="8.50977">
        <ele>417</ele>
        <time>2023-02-12T08:16:20Z</time>
      </trkpt>
      <trkpt lat="47.17239" lon="8.5097">
        <ele>417</ele>
        <time>2023-02-12T08:16:21Z</time>
      </trkpt>
      <trkpt lat="47.17241" lon="8.50963">
        <ele>417</ele>
        <time>2023-02-12T08:16:22Z</time>
      </trkpt>
      <trkpt lat="47.17243" lon="8.50956">
        <ele>417.2</ele>
        <time>2023-02-12T08:16:23Z</time>
      </trkpt>
      <trkpt lat="47.17245" lon="8.50948">
        <ele>417.2</ele>
        <time>2023-02-12T08:16:24Z</time>
      </trkpt>
      <trkpt lat="47.17247" lon="8.50941">
        <ele>417.2</ele>
        <time>2023-02-12T08:16:25Z</time>
      </trkpt>
      <trkpt lat="47.17249" lon="8.50935">
        <ele>417.2</ele>
        <time>2023-02-12T08:16:26Z</time>
      </trkpt>
      <trkpt lat="47.17251" lon="8.50928">
        <ele>417.2</ele>
        <time>2023-02-12T08:16:27Z</time>
      </trkpt>
      <trkpt lat="47.17253" lon="8.50922">
        <ele>417.2</ele>
        <time>2023-02-12T08:16:28Z</time>
      </trkpt>
      <trkpt lat="47.17256" lon="8.50914">
        <ele>417.4</ele>
        <time>2023-02-12T08:16:29Z</time>
      </trkpt>
      <trkpt lat="47.17258" lon="8.50908">
        <ele>417.4</ele>
        <time>2023-02-12T08:16:30Z</time>
      </trkpt>
      <trkpt lat="47.1726" lon="8.50901">
        <ele>417.4</ele>
        <time>2023-02-12T08:16:31Z</time>
      </trkpt>
      <trkpt lat="47.17263" lon="8.50895">
        <ele>417.4</ele>
        <time>2023-02-12T08:16:32Z</time>
      </trkpt>
      <trkpt lat="47.17264" lon="8.50888">
        <ele>417.4</ele>
        <time>2023-02-12T08:16:33Z</time>
      </trkpt>
      <trkpt lat="47.17266" lon="8.50881">
        <ele>417.4</ele>
        <time>2023-02-12T08:16:34Z</time>
      </trkpt>
      <trkpt lat="47.17269" lon="8.50874">
        <ele>417.4</ele>
        <time>2023-02-12T08:16:35Z</time>
      </trkpt>
      <trkpt lat="47.17271" lon="8.50868">
        <ele>417.4</ele>
        <time>2023-02-12T08:16:36Z</time>
      </trkpt>
      <trkpt lat="47.17273" lon="8.50861">
        <ele>417.4</ele>
        <time>2023-02-12T08:16:37Z</time>
      </trkpt>
      <trkpt lat="47.17275" lon="8.50854">
        <ele>417.4</ele>
        <time>2023-02-12T08:16:38Z</time>
      </trkpt>
      <trkpt lat="47.17277" lon="8.50847">
        <ele>417.4</ele>
        <time>2023-02-12T08:16:39Z</time>
      </trkpt>
      <trkpt lat="47.17279" lon="8.5084">
        <ele>417.4</ele>
        <time>2023-02-12T08:16:40Z</time>
      </trkpt>
      <trkpt lat="47.17281" lon="8.50833">
        <ele>417.4</ele>
        <time>2023-02-12T08:16:41Z</time>
      </trkpt>
      <trkpt lat="47.17283" lon="8.50826">
        <ele>417.4</ele>
        <time>2023-02-12T08:16:42Z</time>
      </trkpt>
      <trkpt lat="47.17285" lon="8.50819">
        <ele>417.4</ele>
        <time>2023-02-12T08:16:43Z</time>
      </trkpt>
      <trkpt lat="47.17287" lon="8.50812">
        <ele>417.6</ele>
        <time>2023-02-12T08:16:44Z</time>
      </trkpt>
      <trkpt lat="47.17289" lon="8.50805">
        <ele>417.6</ele>
        <time>2023-02-12T08:16:45Z</time>
      </trkpt>
      <trkpt lat="47.17291" lon="8.50799">
        <ele>417.6</ele>
        <time>2023-02-12T08:16:46Z</time>
      </trkpt>
      <trkpt lat="47.17293" lon="8.50793">
        <ele>417.6</ele>
        <time>2023-02-12T08:16:47Z</time>
      </trkpt>
      <trkpt lat="47.17295" lon="8.50786">
        <ele>417.6</ele>
        <time>2023-02-12T08:16:48Z</time>
      </trkpt>
      <trkpt lat="47.17298" lon="8.50779">
        <ele>417.6</ele>
        <time>2023-02-12T08:16:49Z</time>
      </trkpt>
      <trkpt lat="47.173" lon="8.50772">
        <ele>417.6</ele>
        <time>2023-02-12T08:16:50Z</time>
      </trkpt>
      <trkpt lat="47.17302" lon="8.50765">
        <ele>417.6</ele>
        <time>2023-02-12T08:16:51Z</time>
      </trkpt>
      <trkpt lat="47.17304" lon="8.50759">
        <ele>417.6</ele>
        <time>2023-02-12T08:16:52Z</time>
      </trkpt>
      <trkpt lat="47.17306" lon="8.50752">
        <ele>417.6</ele>
        <time>2023-02-12T08:16:53Z</time>
      </trkpt>
      <trkpt lat="47.17308" lon="8.50746">
        <ele>417.6</ele>
        <time>2023-02-12T08:16:54Z</time>
      </trkpt>
      <trkpt lat="47.1731" lon="8.5074">
        <ele>417.6</ele>
        <time>2023-02-12T08:16:55Z</time>
      </trkpt>
      <trkpt lat="47.17313" lon="8.50733">
        <ele>417.6</ele>
        <time>2023-02-12T08:16:56Z</time>
      </trkpt>
      <trkpt lat="47.17314" lon="8.50726">
        <ele>417.6</ele>
        <time>2023-02-12T08:16:57Z</time>
      </trkpt>
      <trkpt lat="47.17316" lon="8.5072">
        <ele>417.6</ele>
        <time>2023-02-12T08:16:58Z</time>
      </trkpt>
      <trkpt lat="47.17317" lon="8.50712">
        <ele>417.6</ele>
        <time>2023-02-12T08:16:59Z</time>
      </trkpt>
      <trkpt lat="47.17319" lon="8.50705">
        <ele>417.6</ele>
        <time>2023-02-12T08:17:00Z</time>
      </trkpt>
      <trkpt lat="47.17321" lon="8.50699">
        <ele>417.6</ele>
        <time>2023-02-12T08:17:01Z</time>
      </trkpt>
      <trkpt lat="47.17323" lon="8.50694">
        <ele>417.6</ele>
        <time>2023-02-12T08:17:02Z</time>
      </trkpt>
      <trkpt lat="47.17325" lon="8.50687">
        <ele>417.6</ele>
        <time>2023-02-12T08:17:03Z</time>
      </trkpt>
      <trkpt lat="47.17327" lon="8.5068">
        <ele>417.6</ele>
        <time>2023-02-12T08:17:04Z</time>
      </trkpt>
      <trkpt lat="47.17328" lon="8.50673">
        <ele>417.6</ele>
        <time>2023-02-12T08:17:05Z</time>
      </trkpt>
      <trkpt lat="47.17328" lon="8.50666">
        <ele>417.6</ele>
        <time>2023-02-12T08:17:06Z</time>
      </trkpt>
      <trkpt lat="47.17329" lon="8.50659">
        <ele>417.6</ele>
        <time>2023-02-12T08:17:07Z</time>
      </trkpt>
      <trkpt lat="47.17332" lon="8.50652">
        <ele>417.6</ele>
        <time>2023-02-12T08:17:08Z</time>
      </trkpt>
      <trkpt lat="47.17334" lon="8.50646">
        <ele>417.6</ele>
        <time>2023-02-12T08:17:09Z</time>
      </trkpt>
      <trkpt lat="47.17336" lon="8.50639">
        <ele>417.6</ele>
        <time>2023-02-12T08:17:10Z</time>
      </trkpt>
      <trkpt lat="47.17339" lon="8.50633">
        <ele>417.6</ele>
        <time>2023-02-12T08:17:11Z</time>
      </trkpt>
      <trkpt lat="47.17341" lon="8.50627">
        <ele>417.6</ele>
        <time>2023-02-12T08:17:12Z</time>
      </trkpt>
      <trkpt lat="47.17343" lon="8.50621">
        <ele>417.6</ele>
        <time>2023-02-12T08:17:13Z</time>
      </trkpt>
      <trkpt lat="47.17345" lon="8.50613">
        <ele>417.6</ele>
        <time>2023-02-12T08:17:14Z</time>
      </trkpt>
      <trkpt lat="47.17346" lon="8.50606">
        <ele>417.4</ele>
        <time>2023-02-12T08:17:15Z</time>
      </trkpt>
      <trkpt lat="47.17348" lon="8.506">
        <ele>417.4</ele>
        <time>2023-02-12T08:17:16Z</time>
      </trkpt>
      <trkpt lat="47.1735" lon="8.50593">
        <ele>417.4</ele>
        <time>2023-02-12T08:17:17Z</time>
      </trkpt>
      <trkpt lat="47.17352" lon="8.50586">
        <ele>417.4</ele>
        <time>2023-02-12T08:17:18Z</time>
      </trkpt>
      <trkpt lat="47.17355" lon="8.5058">
        <ele>417.4</ele>
        <time>2023-02-12T08:17:19Z</time>
      </trkpt>
      <trkpt lat="47.17358" lon="8.50573">
        <ele>417.4</ele>
        <time>2023-02-12T08:17:20Z</time>
      </trkpt>
      <trkpt lat="47.17362" lon="8.50568">
        <ele>417.4</ele>
        <time>2023-02-12T08:17:21Z</time>
      </trkpt>
      <trkpt lat="47.17366" lon="8.50563">
        <ele>417.4</ele>
        <time>2023-02-12T08:17:22Z</time>
      </trkpt>
      <trkpt lat="47.17369" lon="8.50558">
        <ele>417.6</ele>
        <time>2023-02-12T08:17:23Z</time>
      </trkpt>
      <trkpt lat="47.17372" lon="8.50552">
        <ele>417.6</ele>
        <time>2023-02-12T08:17:24Z</time>
      </trkpt>
      <trkpt lat="47.17376" lon="8.50547">
        <ele>417.6</ele>
        <time>2023-02-12T08:17:25Z</time>
      </trkpt>
      <trkpt lat="47.17379" lon="8.5054">
        <ele>417.6</ele>
        <time>2023-02-12T08:17:26Z</time>
      </trkpt>
      <trkpt lat="47.17381" lon="8.50534">
        <ele>417.8</ele>
        <time>2023-02-12T08:17:27Z</time>
      </trkpt>
      <trkpt lat="47.17384" lon="8.50527">
        <ele>417.8</ele>
        <time>2023-02-12T08:17:28Z</time>
      </trkpt>
      <trkpt lat="47.17387" lon="8.50521">
        <ele>417.8</ele>
        <time>2023-02-12T08:17:29Z</time>
      </trkpt>
      <trkpt lat="47.1739" lon="8.50515">
        <ele>417.8</ele>
        <time>2023-02-12T08:17:30Z</time>
      </trkpt>
      <trkpt lat="47.17393" lon="8.50509">
        <ele>417.8</ele>
        <time>2023-02-12T08:17:31Z</time>
      </trkpt>
      <trkpt lat="47.17397" lon="8.50503">
        <ele>417.8</ele>
        <time>2023-02-12T08:17:32Z</time>
      </trkpt>
      <trkpt lat="47.174" lon="8.50498">
        <ele>417.8</ele>
        <time>2023-02-12T08:17:33Z</time>
      </trkpt>
      <trkpt lat="47.17404" lon="8.50491">
        <ele>417.6</ele>
        <time>2023-02-12T08:17:34Z</time>
      </trkpt>
      <trkpt lat="47.17408" lon="8.50485">
        <ele>417.6</ele>
        <time>2023-02-12T08:17:35Z</time>
      </trkpt>
      <trkpt lat="47.17411" lon="8.50478">
        <ele>417.6</ele>
        <time>2023-02-12T08:17:36Z</time>
      </trkpt>
      <trkpt lat="47.17414" lon="8.50472">
        <ele>417.6</ele>
        <time>2023-02-12T08:17:37Z</time>
      </trkpt>
      <trkpt lat="47.17417" lon="8.50465">
        <ele>417.6</ele>
        <time>2023-02-12T08:17:38Z</time>
      </trkpt>
      <trkpt lat="47.1742" lon="8.50459">
        <ele>417.6</ele>
        <time>2023-02-12T08:17:39Z</time>
      </trkpt>
      <trkpt lat="47.17424" lon="8.50453">
        <ele>417.6</ele>
        <time>2023-02-12T08:17:40Z</time>
      </trkpt>
      <trkpt lat="47.17427" lon="8.50447">
        <ele>417.6</ele>
        <time>2023-02-12T08:17:41Z</time>
      </trkpt>
      <trkpt lat="47.17431" lon="8.5044">
        <ele>417.6</ele>
        <time>2023-02-12T08:17:42Z</time>
      </trkpt>
      <trkpt lat="47.17434" lon="8.50433">
        <ele>417.6</ele>
        <time>2023-02-12T08:17:43Z</time>
      </trkpt>
      <trkpt lat="47.17438" lon="8.50426">
        <ele>417.6</ele>
        <time>2023-02-12T08:17:44Z</time>
      </trkpt>
      <trkpt lat="47.17441" lon="8.50419">
        <ele>417.6</ele>
        <time>2023-02-12T08:17:45Z</time>
      </trkpt>
      <trkpt lat="47.17445" lon="8.50413">
        <ele>417.6</ele>
        <time>2023-02-12T08:17:46Z</time>
      </trkpt>
      <trkpt lat="47.17448" lon="8.50406">
        <ele>417.4</ele>
        <time>2023-02-12T08:17:47Z</time>
      </trkpt>
      <trkpt lat="47.17452" lon="8.50399">
        <ele>417.4</ele>
        <time>2023-02-12T08:17:48Z</time>
      </trkpt>
      <trkpt lat="47.17456" lon="8.50392">
        <ele>417.2</ele>
        <time>2023-02-12T08:17:49Z</time>
      </trkpt>
      <trkpt lat="47.1746" lon="8.50385">
        <ele>417.2</ele>
        <time>2023-02-12T08:17:50Z</time>
      </trkpt>
      <trkpt lat="47.17464" lon="8.50379">
        <ele>417</ele>
        <time>2023-02-12T08:17:51Z</time>
      </trkpt>
      <trkpt lat="47.17469" lon="8.50374">
        <ele>417</ele>
        <time>2023-02-12T08:17:52Z</time>
      </trkpt>
      <trkpt lat="47.17473" lon="8.50367">
        <ele>416.8</ele>
        <time>2023-02-12T08:17:53Z</time>
      </trkpt>
      <trkpt lat="47.17476" lon="8.50359">
        <ele>416.6</ele>
        <time>2023-02-12T08:17:54Z</time>
      </trkpt>
      <trkpt lat="47.17479" lon="8.50352">
        <ele>416.4</ele>
        <time>2023-02-12T08:17:55Z</time>
      </trkpt>
      <trkpt lat="47.17482" lon="8.50345">
        <ele>416.2</ele>
        <time>2023-02-12T08:17:56Z</time>
      </trkpt>
      <trkpt lat="47.17485" lon="8.50338">
        <ele>416</ele>
        <time>2023-02-12T08:17:57Z</time>
      </trkpt>
      <trkpt lat="47.17488" lon="8.50331">
        <ele>415.8</ele>
        <time>2023-02-12T08:17:58Z</time>
      </trkpt>
      <trkpt lat="47.1749" lon="8.50325">
        <ele>415.8</ele>
        <time>2023-02-12T08:17:59Z</time>
      </trkpt>
      <trkpt lat="47.17492" lon="8.50318">
        <ele>415.8</ele>
        <time>2023-02-12T08:18:00Z</time>
      </trkpt>
      <trkpt lat="47.17495" lon="8.50311">
        <ele>415.8</ele>
        <time>2023-02-12T08:18:01Z</time>
      </trkpt>
      <trkpt lat="47.17497" lon="8.50304">
        <ele>415.8</ele>
        <time>2023-02-12T08:18:02Z</time>
      </trkpt>
      <trkpt lat="47.175" lon="8.50297">
        <ele>416</ele>
        <time>2023-02-12T08:18:03Z</time>
      </trkpt>
      <trkpt lat="47.17502" lon="8.5029">
        <ele>416</ele>
        <time>2023-02-12T08:18:04Z</time>
      </trkpt>
      <trkpt lat="47.17504" lon="8.50283">
        <ele>416</ele>
        <time>2023-02-12T08:18:05Z</time>
      </trkpt>
      <trkpt lat="47.17506" lon="8.50276">
        <ele>416</ele>
        <time>2023-02-12T08:18:06Z</time>
      </trkpt>
      <trkpt lat="47.17509" lon="8.50269">
        <ele>416</ele>
        <time>2023-02-12T08:18:07Z</time>
      </trkpt>
      <trkpt lat="47.17511" lon="8.50262">
        <ele>416</ele>
        <time>2023-02-12T08:18:08Z</time>
      </trkpt>
      <trkpt lat="47.17513" lon="8.50254">
        <ele>416</ele>
        <time>2023-02-12T08:18:09Z</time>
      </trkpt>
      <trkpt lat="47.17515" lon="8.50248">
        <ele>416.2</ele>
        <time>2023-02-12T08:18:10Z</time>
      </trkpt>
      <trkpt lat="47.17518" lon="8.50241">
        <ele>416.2</ele>
        <time>2023-02-12T08:18:11Z</time>
      </trkpt>
      <trkpt lat="47.17521" lon="8.50233">
        <ele>416.2</ele>
        <time>2023-02-12T08:18:12Z</time>
      </trkpt>
      <trkpt lat="47.17523" lon="8.50226">
        <ele>416.2</ele>
        <time>2023-02-12T08:18:13Z</time>
      </trkpt>
      <trkpt lat="47.17525" lon="8.50218">
        <ele>416.2</ele>
        <time>2023-02-12T08:18:14Z</time>
      </trkpt>
      <trkpt lat="47.17528" lon="8.50211">
        <ele>416.2</ele>
        <time>2023-02-12T08:18:15Z</time>
      </trkpt>
      <trkpt lat="47.1753" lon="8.50203">
        <ele>416.2</ele>
        <time>2023-02-12T08:18:16Z</time>
      </trkpt>
      <trkpt lat="47.17533" lon="8.50196">
        <ele>416</ele>
        <time>2023-02-12T08:18:17Z</time>
      </trkpt>
      <trkpt lat="47.17535" lon="8.50188">
        <ele>416</ele>
        <time>2023-02-12T08:18:18Z</time>
      </trkpt>
      <trkpt lat="47.17537" lon="8.50182">
        <ele>416</ele>
        <time>2023-02-12T08:18:19Z</time>
      </trkpt>
      <trkpt lat="47.17539" lon="8.50175">
        <ele>416</ele>
        <time>2023-02-12T08:18:20Z</time>
      </trkpt>
      <trkpt lat="47.17541" lon="8.50168">
        <ele>416</ele>
        <time>2023-02-12T08:18:21Z</time>
      </trkpt>
      <trkpt lat="47.17543" lon="8.50162">
        <ele>415.8</ele>
        <time>2023-02-12T08:18:22Z</time>
      </trkpt>
      <trkpt lat="47.17545" lon="8.50155">
        <ele>415.8</ele>
        <time>2023-02-12T08:18:23Z</time>
      </trkpt>
      <trkpt lat="47.17547" lon="8.50147">
        <ele>415.8</ele>
        <time>2023-02-12T08:18:24Z</time>
      </trkpt>
      <trkpt lat="47.1755" lon="8.5014">
        <ele>415.8</ele>
        <time>2023-02-12T08:18:25Z</time>
      </trkpt>
      <trkpt lat="47.17552" lon="8.50133">
        <ele>415.8</ele>
        <time>2023-02-12T08:18:26Z</time>
      </trkpt>
      <trkpt lat="47.17555" lon="8.50126">
        <ele>415.6</ele>
        <time>2023-02-12T08:18:27Z</time>
      </trkpt>
      <trkpt lat="47.17557" lon="8.5012">
        <ele>415.6</ele>
        <time>2023-02-12T08:18:28Z</time>
      </trkpt>
      <trkpt lat="47.1756" lon="8.50113">
        <ele>415.6</ele>
        <time>2023-02-12T08:18:29Z</time>
      </trkpt>
      <trkpt lat="47.17563" lon="8.50106">
        <ele>415.6</ele>
        <time>2023-02-12T08:18:30Z</time>
      </trkpt>
      <trkpt lat="47.17564" lon="8.50098">
        <ele>415.8</ele>
        <time>2023-02-12T08:18:31Z</time>
      </trkpt>
      <trkpt lat="47.17566" lon="8.50091">
        <ele>415.8</ele>
        <time>2023-02-12T08:18:32Z</time>
      </trkpt>
      <trkpt lat="47.17569" lon="8.50084">
        <ele>415.8</ele>
        <time>2023-02-12T08:18:33Z</time>
      </trkpt>
      <trkpt lat="47.17571" lon="8.50077">
        <ele>415.8</ele>
        <time>2023-02-12T08:18:34Z</time>
      </trkpt>
      <trkpt lat="47.17573" lon="8.50069">
        <ele>415.8</ele>
        <time>2023-02-12T08:18:35Z</time>
      </trkpt>
      <trkpt lat="47.17574" lon="8.50063">
        <ele>416</ele>
        <time>2023-02-12T08:18:36Z</time>
      </trkpt>
      <trkpt lat="47.17577" lon="8.50055">
        <ele>416</ele>
        <time>2023-02-12T08:18:37Z</time>
      </trkpt>
      <trkpt lat="47.17579" lon="8.50048">
        <ele>416</ele>
        <time>2023-02-12T08:18:38Z</time>
      </trkpt>
      <trkpt lat="47.17581" lon="8.50041">
        <ele>416</ele>
        <time>2023-02-12T08:18:39Z</time>
      </trkpt>
      <trkpt lat="47.17583" lon="8.50033">
        <ele>416</ele>
        <time>2023-02-12T08:18:40Z</time>
      </trkpt>
      <trkpt lat="47.17586" lon="8.50026">
        <ele>416</ele>
        <time>2023-02-12T08:18:41Z</time>
      </trkpt>
      <trkpt lat="47.17588" lon="8.50018">
        <ele>416</ele>
        <time>2023-02-12T08:18:42Z</time>
      </trkpt>
      <trkpt lat="47.1759" lon="8.50011">
        <ele>416</ele>
        <time>2023-02-12T08:18:43Z</time>
      </trkpt>
      <trkpt lat="47.17592" lon="8.50003">
        <ele>416</ele>
        <time>2023-02-12T08:18:44Z</time>
      </trkpt>
      <trkpt lat="47.17594" lon="8.49995">
        <ele>416</ele>
        <time>2023-02-12T08:18:45Z</time>
      </trkpt>
      <trkpt lat="47.17597" lon="8.49988">
        <ele>416</ele>
        <time>2023-02-12T08:18:46Z</time>
      </trkpt>
      <trkpt lat="47.17599" lon="8.49981">
        <ele>415.8</ele>
        <time>2023-02-12T08:18:47Z</time>
      </trkpt>
      <trkpt lat="47.17601" lon="8.49973">
        <ele>415.8</ele>
        <time>2023-02-12T08:18:48Z</time>
      </trkpt>
      <trkpt lat="47.17604" lon="8.49966">
        <ele>415.8</ele>
        <time>2023-02-12T08:18:49Z</time>
      </trkpt>
      <trkpt lat="47.17606" lon="8.49958">
        <ele>415.8</ele>
        <time>2023-02-12T08:18:50Z</time>
      </trkpt>
      <trkpt lat="47.17608" lon="8.49951">
        <ele>415.8</ele>
        <time>2023-02-12T08:18:51Z</time>
      </trkpt>
      <trkpt lat="47.17611" lon="8.49944">
        <ele>415.8</ele>
        <time>2023-02-12T08:18:52Z</time>
      </trkpt>
      <trkpt lat="47.17614" lon="8.49937">
        <ele>415.8</ele>
        <time>2023-02-12T08:18:53Z</time>
      </trkpt>
      <trkpt lat="47.17616" lon="8.4993">
        <ele>415.8</ele>
        <time>2023-02-12T08:18:54Z</time>
      </trkpt>
      <trkpt lat="47.17618" lon="8.49922">
        <ele>415.8</ele>
        <time>2023-02-12T08:18:55Z</time>
      </trkpt>
      <trkpt lat="47.1762" lon="8.49915">
        <ele>415.8</ele>
        <time>2023-02-12T08:18:56Z</time>
      </trkpt>
      <trkpt lat="47.17622" lon="8.49908">
        <ele>415.8</ele>
        <time>2023-02-12T08:18:57Z</time>
      </trkpt>
      <trkpt lat="47.17625" lon="8.49901">
        <ele>415.8</ele>
        <time>2023-02-12T08:18:58Z</time>
      </trkpt>
      <trkpt lat="47.17627" lon="8.49894">
        <ele>415.8</ele>
        <time>2023-02-12T08:18:59Z</time>
      </trkpt>
      <trkpt lat="47.17629" lon="8.49886">
        <ele>415.8</ele>
        <time>2023-02-12T08:19:00Z</time>
      </trkpt>
      <trkpt lat="47.17632" lon="8.49879">
        <ele>415.8</ele>
        <time>2023-02-12T08:19:01Z</time>
      </trkpt>
      <trkpt lat="47.17634" lon="8.49872">
        <ele>415.8</ele>
        <time>2023-02-12T08:19:02Z</time>
      </trkpt>
      <trkpt lat="47.17637" lon="8.49864">
        <ele>415.8</ele>
        <time>2023-02-12T08:19:03Z</time>
      </trkpt>
      <trkpt lat="47.17639" lon="8.49856">
        <ele>415.8</ele>
        <time>2023-02-12T08:19:04Z</time>
      </trkpt>
      <trkpt lat="47.17641" lon="8.49849">
        <ele>415.8</ele>
        <time>2023-02-12T08:19:05Z</time>
      </trkpt>
      <trkpt lat="47.17643" lon="8.49842">
        <ele>415.8</ele>
        <time>2023-02-12T08:19:06Z</time>
      </trkpt>
      <trkpt lat="47.17645" lon="8.49835">
        <ele>415.8</ele>
        <time>2023-02-12T08:19:07Z</time>
      </trkpt>
      <trkpt lat="47.17648" lon="8.49827">
        <ele>415.8</ele>
        <time>2023-02-12T08:19:08Z</time>
      </trkpt>
      <trkpt lat="47.1765" lon="8.4982">
        <ele>415.8</ele>
        <time>2023-02-12T08:19:09Z</time>
      </trkpt>
      <trkpt lat="47.17653" lon="8.49813">
        <ele>415.8</ele>
        <time>2023-02-12T08:19:10Z</time>
      </trkpt>
      <trkpt lat="47.17655" lon="8.49805">
        <ele>415.8</ele>
        <time>2023-02-12T08:19:11Z</time>
      </trkpt>
      <trkpt lat="47.17657" lon="8.49798">
        <ele>415.8</ele>
        <time>2023-02-12T08:19:12Z</time>
      </trkpt>
      <trkpt lat="47.17659" lon="8.49791">
        <ele>415.6</ele>
        <time>2023-02-12T08:19:13Z</time>
      </trkpt>
      <trkpt lat="47.17662" lon="8.49784">
        <ele>415.6</ele>
        <time>2023-02-12T08:19:14Z</time>
      </trkpt>
      <trkpt lat="47.17664" lon="8.49777">
        <ele>415.6</ele>
        <time>2023-02-12T08:19:15Z</time>
      </trkpt>
      <trkpt lat="47.17667" lon="8.4977">
        <ele>415.6</ele>
        <time>2023-02-12T08:19:16Z</time>
      </trkpt>
      <trkpt lat="47.17669" lon="8.49763">
        <ele>415.4</ele>
        <time>2023-02-12T08:19:17Z</time>
      </trkpt>
      <trkpt lat="47.17671" lon="8.49756">
        <ele>415.4</ele>
        <time>2023-02-12T08:19:18Z</time>
      </trkpt>
      <trkpt lat="47.17673" lon="8.4975">
        <ele>415.4</ele>
        <time>2023-02-12T08:19:19Z</time>
      </trkpt>
      <trkpt lat="47.17675" lon="8.49744">
        <ele>415.4</ele>
        <time>2023-02-12T08:19:20Z</time>
      </trkpt>
      <trkpt lat="47.17676" lon="8.49738">
        <ele>415.4</ele>
        <time>2023-02-12T08:19:21Z</time>
      </trkpt>
      <trkpt lat="47.17678" lon="8.49733">
        <ele>415.6</ele>
        <time>2023-02-12T08:19:22Z</time>
      </trkpt>
      <trkpt lat="47.17679" lon="8.49729">
        <ele>415.6</ele>
        <time>2023-02-12T08:19:23Z</time>
      </trkpt>
      <trkpt lat="47.17678" lon="8.49724">
        <ele>415.6</ele>
        <time>2023-02-12T08:19:24Z</time>
      </trkpt>
      <trkpt lat="47.17677" lon="8.49718">
        <ele>415.6</ele>
        <time>2023-02-12T08:19:25Z</time>
      </trkpt>
      <trkpt lat="47.17678" lon="8.49712">
        <ele>415.6</ele>
        <time>2023-02-12T08:19:26Z</time>
      </trkpt>
      <trkpt lat="47.1768" lon="8.49706">
        <ele>415.6</ele>
        <time>2023-02-12T08:19:27Z</time>
      </trkpt>
      <trkpt lat="47.17682" lon="8.49699">
        <ele>415.6</ele>
        <time>2023-02-12T08:19:28Z</time>
      </trkpt>
      <trkpt lat="47.17685" lon="8.49694">
        <ele>415.6</ele>
        <time>2023-02-12T08:19:29Z</time>
      </trkpt>
      <trkpt lat="47.17687" lon="8.49687">
        <ele>415.6</ele>
        <time>2023-02-12T08:19:30Z</time>
      </trkpt>
      <trkpt lat="47.17689" lon="8.49681">
        <ele>415.4</ele>
        <time>2023-02-12T08:19:31Z</time>
      </trkpt>
      <trkpt lat="47.17691" lon="8.49674">
        <ele>415.4</ele>
        <time>2023-02-12T08:19:32Z</time>
      </trkpt>
      <trkpt lat="47.17693" lon="8.49667">
        <ele>415.4</ele>
        <time>2023-02-12T08:19:33Z</time>
      </trkpt>
      <trkpt lat="47.17695" lon="8.4966">
        <ele>415.2</ele>
        <time>2023-02-12T08:19:34Z</time>
      </trkpt>
      <trkpt lat="47.17697" lon="8.49653">
        <ele>415.2</ele>
        <time>2023-02-12T08:19:35Z</time>
      </trkpt>
      <trkpt lat="47.17699" lon="8.49646">
        <ele>415.2</ele>
        <time>2023-02-12T08:19:36Z</time>
      </trkpt>
      <trkpt lat="47.177" lon="8.49639">
        <ele>415.2</ele>
        <time>2023-02-12T08:19:37Z</time>
      </trkpt>
      <trkpt lat="47.17702" lon="8.49632">
        <ele>415</ele>
        <time>2023-02-12T08:19:38Z</time>
      </trkpt>
      <trkpt lat="47.17704" lon="8.49625">
        <ele>415</ele>
        <time>2023-02-12T08:19:39Z</time>
      </trkpt>
      <trkpt lat="47.17706" lon="8.49617">
        <ele>415</ele>
        <time>2023-02-12T08:19:40Z</time>
      </trkpt>
      <trkpt lat="47.17708" lon="8.49611">
        <ele>415</ele>
        <time>2023-02-12T08:19:41Z</time>
      </trkpt>
      <trkpt lat="47.1771" lon="8.49605">
        <ele>414.8</ele>
        <time>2023-02-12T08:19:42Z</time>
      </trkpt>
      <trkpt lat="47.17712" lon="8.49598">
        <ele>414.8</ele>
        <time>2023-02-12T08:19:43Z</time>
      </trkpt>
      <trkpt lat="47.17715" lon="8.49592">
        <ele>414.6</ele>
        <time>2023-02-12T08:19:44Z</time>
      </trkpt>
      <trkpt lat="47.17717" lon="8.49586">
        <ele>414.6</ele>
        <time>2023-02-12T08:19:45Z</time>
      </trkpt>
      <trkpt lat="47.17719" lon="8.49579">
        <ele>414.6</ele>
        <time>2023-02-12T08:19:46Z</time>
      </trkpt>
      <trkpt lat="47.17721" lon="8.49572">
        <ele>414.6</ele>
        <time>2023-02-12T08:19:47Z</time>
      </trkpt>
      <trkpt lat="47.17724" lon="8.49566">
        <ele>414.6</ele>
        <time>2023-02-12T08:19:48Z</time>
      </trkpt>
      <trkpt lat="47.17726" lon="8.49559">
        <ele>414.6</ele>
        <time>2023-02-12T08:19:49Z</time>
      </trkpt>
      <trkpt lat="47.17728" lon="8.49553">
        <ele>414.6</ele>
        <time>2023-02-12T08:19:50Z</time>
      </trkpt>
      <trkpt lat="47.1773" lon="8.49545">
        <ele>414.6</ele>
        <time>2023-02-12T08:19:51Z</time>
      </trkpt>
      <trkpt lat="47.17732" lon="8.49539">
        <ele>414.6</ele>
        <time>2023-02-12T08:19:52Z</time>
      </trkpt>
      <trkpt lat="47.17735" lon="8.49532">
        <ele>414.6</ele>
        <time>2023-02-12T08:19:53Z</time>
      </trkpt>
      <trkpt lat="47.17737" lon="8.49524">
        <ele>414.4</ele>
        <time>2023-02-12T08:19:54Z</time>
      </trkpt>
      <trkpt lat="47.17739" lon="8.49518">
        <ele>414.4</ele>
        <time>2023-02-12T08:19:55Z</time>
      </trkpt>
      <trkpt lat="47.17741" lon="8.49511">
        <ele>414.4</ele>
        <time>2023-02-12T08:19:56Z</time>
      </trkpt>
      <trkpt lat="47.17744" lon="8.49504">
        <ele>414.4</ele>
        <time>2023-02-12T08:19:57Z</time>
      </trkpt>
      <trkpt lat="47.17746" lon="8.49497">
        <ele>414.4</ele>
        <time>2023-02-12T08:19:58Z</time>
      </trkpt>
      <trkpt lat="47.17748" lon="8.4949">
        <ele>414.6</ele>
        <time>2023-02-12T08:19:59Z</time>
      </trkpt>
      <trkpt lat="47.1775" lon="8.49484">
        <ele>414.6</ele>
        <time>2023-02-12T08:20:00Z</time>
      </trkpt>
      <trkpt lat="47.17753" lon="8.49478">
        <ele>414.6</ele>
        <time>2023-02-12T08:20:01Z</time>
      </trkpt>
      <trkpt lat="47.17755" lon="8.49471">
        <ele>414.6</ele>
        <time>2023-02-12T08:20:02Z</time>
      </trkpt>
      <trkpt lat="47.17757" lon="8.49464">
        <ele>414.6</ele>
        <time>2023-02-12T08:20:03Z</time>
      </trkpt>
      <trkpt lat="47.17759" lon="8.49458">
        <ele>414.6</ele>
        <time>2023-02-12T08:20:04Z</time>
      </trkpt>
      <trkpt lat="47.17761" lon="8.49451">
        <ele>414.8</ele>
        <time>2023-02-12T08:20:05Z</time>
      </trkpt>
      <trkpt lat="47.17763" lon="8.49444">
        <ele>414.8</ele>
        <time>2023-02-12T08:20:06Z</time>
      </trkpt>
      <trkpt lat="47.17766" lon="8.4944">
        <ele>414.8</ele>
        <time>2023-02-12T08:20:07Z</time>
      </trkpt>
      <trkpt lat="47.17767" lon="8.49434">
        <ele>414.8</ele>
        <time>2023-02-12T08:20:08Z</time>
      </trkpt>
      <trkpt lat="47.17768" lon="8.49427">
        <ele>414.8</ele>
        <time>2023-02-12T08:20:09Z</time>
      </trkpt>
      <trkpt lat="47.17768" lon="8.49421">
        <ele>414.8</ele>
        <time>2023-02-12T08:20:10Z</time>
      </trkpt>
      <trkpt lat="47.17767" lon="8.49414">
        <ele>415</ele>
        <time>2023-02-12T08:20:11Z</time>
      </trkpt>
      <trkpt lat="47.17766" lon="8.49407">
        <ele>415</ele>
        <time>2023-02-12T08:20:12Z</time>
      </trkpt>
      <trkpt lat="47.17764" lon="8.49401">
        <ele>415</ele>
        <time>2023-02-12T08:20:13Z</time>
      </trkpt>
      <trkpt lat="47.17762" lon="8.49395">
        <ele>415</ele>
        <time>2023-02-12T08:20:14Z</time>
      </trkpt>
      <trkpt lat="47.1776" lon="8.49389">
        <ele>415</ele>
        <time>2023-02-12T08:20:15Z</time>
      </trkpt>
      <trkpt lat="47.17759" lon="8.49381">
        <ele>415.2</ele>
        <time>2023-02-12T08:20:16Z</time>
      </trkpt>
      <trkpt lat="47.17759" lon="8.49374">
        <ele>415.2</ele>
        <time>2023-02-12T08:20:17Z</time>
      </trkpt>
      <trkpt lat="47.17759" lon="8.49366">
        <ele>415.2</ele>
        <time>2023-02-12T08:20:18Z</time>
      </trkpt>
      <trkpt lat="47.1776" lon="8.49359">
        <ele>415.2</ele>
        <time>2023-02-12T08:20:19Z</time>
      </trkpt>
      <trkpt lat="47.17763" lon="8.49351">
        <ele>415.2</ele>
        <time>2023-02-12T08:20:20Z</time>
      </trkpt>
      <trkpt lat="47.17765" lon="8.49344">
        <ele>415.2</ele>
        <time>2023-02-12T08:20:21Z</time>
      </trkpt>
      <trkpt lat="47.17768" lon="8.49338">
        <ele>415.2</ele>
        <time>2023-02-12T08:20:22Z</time>
      </trkpt>
      <trkpt lat="47.17772" lon="8.49332">
        <ele>415.2</ele>
        <time>2023-02-12T08:20:23Z</time>
      </trkpt>
      <trkpt lat="47.17776" lon="8.49328">
        <ele>415.2</ele>
        <time>2023-02-12T08:20:24Z</time>
      </trkpt>
      <trkpt lat="47.1778" lon="8.49323">
        <ele>415.2</ele>
        <time>2023-02-12T08:20:25Z</time>
      </trkpt>
      <trkpt lat="47.17785" lon="8.49319">
        <ele>415.2</ele>
        <time>2023-02-12T08:20:26Z</time>
      </trkpt>
      <trkpt lat="47.1779" lon="8.49315">
        <ele>415.2</ele>
        <time>2023-02-12T08:20:27Z</time>
      </trkpt>
      <trkpt lat="47.17795" lon="8.4931">
        <ele>415.2</ele>
        <time>2023-02-12T08:20:28Z</time>
      </trkpt>
      <trkpt lat="47.17799" lon="8.49306">
        <ele>415.2</ele>
        <time>2023-02-12T08:20:29Z</time>
      </trkpt>
      <trkpt lat="47.17804" lon="8.49301">
        <ele>415.2</ele>
        <time>2023-02-12T08:20:30Z</time>
      </trkpt>
      <trkpt lat="47.17808" lon="8.49296">
        <ele>415.2</ele>
        <time>2023-02-12T08:20:31Z</time>
      </trkpt>
      <trkpt lat="47.17811" lon="8.49291">
        <ele>415.2</ele>
        <time>2023-02-12T08:20:32Z</time>
      </trkpt>
      <trkpt lat="47.17814" lon="8.49285">
        <ele>415.2</ele>
        <time>2023-02-12T08:20:33Z</time>
      </trkpt>
      <trkpt lat="47.17815" lon="8.49279">
        <ele>415.4</ele>
        <time>2023-02-12T08:20:34Z</time>
      </trkpt>
      <trkpt lat="47.17817" lon="8.49273">
        <ele>415.4</ele>
        <time>2023-02-12T08:20:35Z</time>
      </trkpt>
      <trkpt lat="47.17819" lon="8.49266">
        <ele>415.4</ele>
        <time>2023-02-12T08:20:36Z</time>
      </trkpt>
      <trkpt lat="47.17821" lon="8.49259">
        <ele>415.6</ele>
        <time>2023-02-12T08:20:37Z</time>
      </trkpt>
      <trkpt lat="47.17823" lon="8.49252">
        <ele>415.6</ele>
        <time>2023-02-12T08:20:38Z</time>
      </trkpt>
      <trkpt lat="47.17826" lon="8.49245">
        <ele>415.6</ele>
        <time>2023-02-12T08:20:39Z</time>
      </trkpt>
      <trkpt lat="47.17828" lon="8.49237">
        <ele>415.6</ele>
        <time>2023-02-12T08:20:40Z</time>
      </trkpt>
      <trkpt lat="47.1783" lon="8.4923">
        <ele>415.6</ele>
        <time>2023-02-12T08:20:41Z</time>
      </trkpt>
      <trkpt lat="47.17833" lon="8.49223">
        <ele>415.4</ele>
        <time>2023-02-12T08:20:42Z</time>
      </trkpt>
      <trkpt lat="47.17834" lon="8.49217">
        <ele>415.4</ele>
        <time>2023-02-12T08:20:43Z</time>
      </trkpt>
      <trkpt lat="47.17836" lon="8.4921">
        <ele>415.4</ele>
        <time>2023-02-12T08:20:44Z</time>
      </trkpt>
      <trkpt lat="47.17838" lon="8.49202">
        <ele>415.4</ele>
        <time>2023-02-12T08:20:45Z</time>
      </trkpt>
      <trkpt lat="47.1784" lon="8.49196">
        <ele>415.4</ele>
        <time>2023-02-12T08:20:46Z</time>
      </trkpt>
      <trkpt lat="47.17842" lon="8.49189">
        <ele>415.4</ele>
        <time>2023-02-12T08:20:47Z</time>
      </trkpt>
      <trkpt lat="47.17844" lon="8.49182">
        <ele>415.4</ele>
        <time>2023-02-12T08:20:48Z</time>
      </trkpt>
      <trkpt lat="47.17846" lon="8.49176">
        <ele>415.4</ele>
        <time>2023-02-12T08:20:49Z</time>
      </trkpt>
      <trkpt lat="47.17849" lon="8.49169">
        <ele>415.4</ele>
        <time>2023-02-12T08:20:50Z</time>
      </trkpt>
      <trkpt lat="47.17851" lon="8.49163">
        <ele>415.6</ele>
        <time>2023-02-12T08:20:51Z</time>
      </trkpt>
      <trkpt lat="47.17853" lon="8.49156">
        <ele>415.6</ele>
        <time>2023-02-12T08:20:52Z</time>
      </trkpt>
      <trkpt lat="47.17855" lon="8.49149">
        <ele>415.6</ele>
        <time>2023-02-12T08:20:53Z</time>
      </trkpt>
      <trkpt lat="47.17858" lon="8.49142">
        <ele>415.6</ele>
        <time>2023-02-12T08:20:54Z</time>
      </trkpt>
      <trkpt lat="47.1786" lon="8.49135">
        <ele>415.6</ele>
        <time>2023-02-12T08:20:55Z</time>
      </trkpt>
      <trkpt lat="47.17862" lon="8.49128">
        <ele>415.8</ele>
        <time>2023-02-12T08:20:56Z</time>
      </trkpt>
      <trkpt lat="47.17865" lon="8.4912">
        <ele>416</ele>
        <time>2023-02-12T08:20:57Z</time>
      </trkpt>
      <trkpt lat="47.17867" lon="8.49113">
        <ele>416.2</ele>
        <time>2023-02-12T08:20:58Z</time>
      </trkpt>
      <trkpt lat="47.17869" lon="8.49106">
        <ele>416.2</ele>
        <time>2023-02-12T08:20:59Z</time>
      </trkpt>
      <trkpt lat="47.17871" lon="8.49098">
        <ele>416.4</ele>
        <time>2023-02-12T08:21:00Z</time>
      </trkpt>
      <trkpt lat="47.17874" lon="8.49091">
        <ele>416.2</ele>
        <time>2023-02-12T08:21:01Z</time>
      </trkpt>
      <trkpt lat="47.17876" lon="8.49084">
        <ele>416.2</ele>
        <time>2023-02-12T08:21:02Z</time>
      </trkpt>
      <trkpt lat="47.17878" lon="8.49076">
        <ele>416.2</ele>
        <time>2023-02-12T08:21:03Z</time>
      </trkpt>
      <trkpt lat="47.17881" lon="8.49069">
        <ele>416.2</ele>
        <time>2023-02-12T08:21:04Z</time>
      </trkpt>
      <trkpt lat="47.17883" lon="8.49062">
        <ele>416.2</ele>
        <time>2023-02-12T08:21:05Z</time>
      </trkpt>
      <trkpt lat="47.17885" lon="8.49054">
        <ele>416</ele>
        <time>2023-02-12T08:21:06Z</time>
      </trkpt>
      <trkpt lat="47.17887" lon="8.49047">
        <ele>416</ele>
        <time>2023-02-12T08:21:07Z</time>
      </trkpt>
      <trkpt lat="47.17889" lon="8.4904">
        <ele>416</ele>
        <time>2023-02-12T08:21:08Z</time>
      </trkpt>
      <trkpt lat="47.17891" lon="8.49034">
        <ele>416</ele>
        <time>2023-02-12T08:21:09Z</time>
      </trkpt>
      <trkpt lat="47.17893" lon="8.49027">
        <ele>416</ele>
        <time>2023-02-12T08:21:10Z</time>
      </trkpt>
      <trkpt lat="47.17895" lon="8.49019">
        <ele>415.8</ele>
        <time>2023-02-12T08:21:11Z</time>
      </trkpt>
      <trkpt lat="47.17897" lon="8.49012">
        <ele>415.8</ele>
        <time>2023-02-12T08:21:12Z</time>
      </trkpt>
      <trkpt lat="47.17899" lon="8.49005">
        <ele>415.8</ele>
        <time>2023-02-12T08:21:13Z</time>
      </trkpt>
      <trkpt lat="47.17901" lon="8.48999">
        <ele>415.8</ele>
        <time>2023-02-12T08:21:14Z</time>
      </trkpt>
      <trkpt lat="47.17904" lon="8.48992">
        <ele>415.8</ele>
        <time>2023-02-12T08:21:15Z</time>
      </trkpt>
      <trkpt lat="47.17906" lon="8.48984">
        <ele>415.8</ele>
        <time>2023-02-12T08:21:16Z</time>
      </trkpt>
      <trkpt lat="47.17908" lon="8.48977">
        <ele>415.8</ele>
        <time>2023-02-12T08:21:17Z</time>
      </trkpt>
      <trkpt lat="47.17911" lon="8.4897">
        <ele>415.8</ele>
        <time>2023-02-12T08:21:18Z</time>
      </trkpt>
      <trkpt lat="47.17912" lon="8.48963">
        <ele>415.8</ele>
        <time>2023-02-12T08:21:19Z</time>
      </trkpt>
      <trkpt lat="47.17915" lon="8.48956">
        <ele>416</ele>
        <time>2023-02-12T08:21:20Z</time>
      </trkpt>
      <trkpt lat="47.17917" lon="8.48949">
        <ele>416</ele>
        <time>2023-02-12T08:21:21Z</time>
      </trkpt>
      <trkpt lat="47.17919" lon="8.48942">
        <ele>416</ele>
        <time>2023-02-12T08:21:22Z</time>
      </trkpt>
      <trkpt lat="47.17921" lon="8.48935">
        <ele>416</ele>
        <time>2023-02-12T08:21:23Z</time>
      </trkpt>
      <trkpt lat="47.17923" lon="8.48929">
        <ele>416</ele>
        <time>2023-02-12T08:21:24Z</time>
      </trkpt>
      <trkpt lat="47.17926" lon="8.48922">
        <ele>416</ele>
        <time>2023-02-12T08:21:25Z</time>
      </trkpt>
      <trkpt lat="47.17928" lon="8.48914">
        <ele>416.2</ele>
        <time>2023-02-12T08:21:26Z</time>
      </trkpt>
      <trkpt lat="47.17931" lon="8.48907">
        <ele>416.4</ele>
        <time>2023-02-12T08:21:27Z</time>
      </trkpt>
      <trkpt lat="47.17933" lon="8.48901">
        <ele>416.4</ele>
        <time>2023-02-12T08:21:28Z</time>
      </trkpt>
      <trkpt lat="47.17935" lon="8.48893">
        <ele>416.6</ele>
        <time>2023-02-12T08:21:29Z</time>
      </trkpt>
      <trkpt lat="47.17937" lon="8.48886">
        <ele>416.6</ele>
        <time>2023-02-12T08:21:30Z</time>
      </trkpt>
      <trkpt lat="47.17939" lon="8.48879">
        <ele>416.6</ele>
        <time>2023-02-12T08:21:31Z</time>
      </trkpt>
      <trkpt lat="47.1794" lon="8.48872">
        <ele>416.6</ele>
        <time>2023-02-12T08:21:32Z</time>
      </trkpt>
      <trkpt lat="47.17942" lon="8.48864">
        <ele>416.4</ele>
        <time>2023-02-12T08:21:33Z</time>
      </trkpt>
      <trkpt lat="47.17945" lon="8.48856">
        <ele>416.4</ele>
        <time>2023-02-12T08:21:34Z</time>
      </trkpt>
      <trkpt lat="47.17948" lon="8.48849">
        <ele>416.4</ele>
        <time>2023-02-12T08:21:35Z</time>
      </trkpt>
      <trkpt lat="47.17951" lon="8.48842">
        <ele>416.4</ele>
        <time>2023-02-12T08:21:36Z</time>
      </trkpt>
      <trkpt lat="47.17953" lon="8.48834">
        <ele>416.4</ele>
        <time>2023-02-12T08:21:37Z</time>
      </trkpt>
      <trkpt lat="47.17954" lon="8.48828">
        <ele>416.4</ele>
        <time>2023-02-12T08:21:38Z</time>
      </trkpt>
      <trkpt lat="47.17957" lon="8.48821">
        <ele>416.4</ele>
        <time>2023-02-12T08:21:39Z</time>
      </trkpt>
      <trkpt lat="47.17959" lon="8.48813">
        <ele>416.2</ele>
        <time>2023-02-12T08:21:40Z</time>
      </trkpt>
      <trkpt lat="47.17961" lon="8.48806">
        <ele>416</ele>
        <time>2023-02-12T08:21:41Z</time>
      </trkpt>
      <trkpt lat="47.17964" lon="8.48798">
        <ele>416</ele>
        <time>2023-02-12T08:21:42Z</time>
      </trkpt>
      <trkpt lat="47.17966" lon="8.48791">
        <ele>416</ele>
        <time>2023-02-12T08:21:43Z</time>
      </trkpt>
      <trkpt lat="47.17968" lon="8.48784">
        <ele>415.8</ele>
        <time>2023-02-12T08:21:44Z</time>
      </trkpt>
      <trkpt lat="47.1797" lon="8.48777">
        <ele>415.8</ele>
        <time>2023-02-12T08:21:45Z</time>
      </trkpt>
      <trkpt lat="47.17972" lon="8.4877">
        <ele>415.6</ele>
        <time>2023-02-12T08:21:46Z</time>
      </trkpt>
      <trkpt lat="47.17974" lon="8.48763">
        <ele>415.8</ele>
        <time>2023-02-12T08:21:47Z</time>
      </trkpt>
      <trkpt lat="47.17976" lon="8.48756">
        <ele>415.6</ele>
        <time>2023-02-12T08:21:48Z</time>
      </trkpt>
      <trkpt lat="47.17978" lon="8.48749">
        <ele>415.6</ele>
        <time>2023-02-12T08:21:49Z</time>
      </trkpt>
      <trkpt lat="47.17981" lon="8.48742">
        <ele>415.8</ele>
        <time>2023-02-12T08:21:50Z</time>
      </trkpt>
      <trkpt lat="47.17983" lon="8.48735">
        <ele>415.8</ele>
        <time>2023-02-12T08:21:51Z</time>
      </trkpt>
      <trkpt lat="47.17985" lon="8.48729">
        <ele>416</ele>
        <time>2023-02-12T08:21:52Z</time>
      </trkpt>
      <trkpt lat="47.17987" lon="8.48722">
        <ele>416</ele>
        <time>2023-02-12T08:21:53Z</time>
      </trkpt>
      <trkpt lat="47.1799" lon="8.48715">
        <ele>416</ele>
        <time>2023-02-12T08:21:54Z</time>
      </trkpt>
      <trkpt lat="47.17992" lon="8.48708">
        <ele>416</ele>
        <time>2023-02-12T08:21:55Z</time>
      </trkpt>
      <trkpt lat="47.17995" lon="8.48701">
        <ele>416</ele>
        <time>2023-02-12T08:21:56Z</time>
      </trkpt>
      <trkpt lat="47.17997" lon="8.48694">
        <ele>416</ele>
        <time>2023-02-12T08:21:57Z</time>
      </trkpt>
      <trkpt lat="47.17999" lon="8.48687">
        <ele>416</ele>
        <time>2023-02-12T08:21:58Z</time>
      </trkpt>
      <trkpt lat="47.18002" lon="8.4868">
        <ele>416</ele>
        <time>2023-02-12T08:21:59Z</time>
      </trkpt>
      <trkpt lat="47.18004" lon="8.48672">
        <ele>416</ele>
        <time>2023-02-12T08:22:00Z</time>
      </trkpt>
      <trkpt lat="47.18005" lon="8.48666">
        <ele>416</ele>
        <time>2023-02-12T08:22:01Z</time>
      </trkpt>
      <trkpt lat="47.18007" lon="8.48659">
        <ele>416</ele>
        <time>2023-02-12T08:22:02Z</time>
      </trkpt>
      <trkpt lat="47.1801" lon="8.48652">
        <ele>416</ele>
        <time>2023-02-12T08:22:03Z</time>
      </trkpt>
      <trkpt lat="47.18012" lon="8.48645">
        <ele>416</ele>
        <time>2023-02-12T08:22:04Z</time>
      </trkpt>
      <trkpt lat="47.18014" lon="8.48637">
        <ele>416</ele>
        <time>2023-02-12T08:22:05Z</time>
      </trkpt>
      <trkpt lat="47.18016" lon="8.48631">
        <ele>416</ele>
        <time>2023-02-12T08:22:06Z</time>
      </trkpt>
      <trkpt lat="47.18018" lon="8.48624">
        <ele>416</ele>
        <time>2023-02-12T08:22:07Z</time>
      </trkpt>
      <trkpt lat="47.1802" lon="8.48617">
        <ele>416</ele>
        <time>2023-02-12T08:22:08Z</time>
      </trkpt>
      <trkpt lat="47.18022" lon="8.4861">
        <ele>416</ele>
        <time>2023-02-12T08:22:09Z</time>
      </trkpt>
      <trkpt lat="47.18024" lon="8.48602">
        <ele>416</ele>
        <time>2023-02-12T08:22:10Z</time>
      </trkpt>
      <trkpt lat="47.18026" lon="8.48595">
        <ele>416</ele>
        <time>2023-02-12T08:22:11Z</time>
      </trkpt>
      <trkpt lat="47.18028" lon="8.48588">
        <ele>416</ele>
        <time>2023-02-12T08:22:12Z</time>
      </trkpt>
      <trkpt lat="47.18031" lon="8.48581">
        <ele>416</ele>
        <time>2023-02-12T08:22:13Z</time>
      </trkpt>
      <trkpt lat="47.18033" lon="8.48575">
        <ele>416</ele>
        <time>2023-02-12T08:22:14Z</time>
      </trkpt>
      <trkpt lat="47.18035" lon="8.48568">
        <ele>416</ele>
        <time>2023-02-12T08:22:15Z</time>
      </trkpt>
      <trkpt lat="47.18038" lon="8.48561">
        <ele>416</ele>
        <time>2023-02-12T08:22:16Z</time>
      </trkpt>
      <trkpt lat="47.1804" lon="8.48553">
        <ele>416</ele>
        <time>2023-02-12T08:22:17Z</time>
      </trkpt>
      <trkpt lat="47.18042" lon="8.48547">
        <ele>416</ele>
        <time>2023-02-12T08:22:18Z</time>
      </trkpt>
      <trkpt lat="47.18045" lon="8.4854">
        <ele>416</ele>
        <time>2023-02-12T08:22:19Z</time>
      </trkpt>
      <trkpt lat="47.18047" lon="8.48532">
        <ele>416.2</ele>
        <time>2023-02-12T08:22:20Z</time>
      </trkpt>
      <trkpt lat="47.18049" lon="8.48525">
        <ele>416.2</ele>
        <time>2023-02-12T08:22:21Z</time>
      </trkpt>
      <trkpt lat="47.18051" lon="8.48518">
        <ele>416.2</ele>
        <time>2023-02-12T08:22:22Z</time>
      </trkpt>
      <trkpt lat="47.18054" lon="8.48512">
        <ele>416.4</ele>
        <time>2023-02-12T08:22:23Z</time>
      </trkpt>
      <trkpt lat="47.18056" lon="8.48506">
        <ele>416.4</ele>
        <time>2023-02-12T08:22:24Z</time>
      </trkpt>
      <trkpt lat="47.18059" lon="8.48499">
        <ele>416.6</ele>
        <time>2023-02-12T08:22:25Z</time>
      </trkpt>
      <trkpt lat="47.18061" lon="8.48493">
        <ele>416.8</ele>
        <time>2023-02-12T08:22:26Z</time>
      </trkpt>
      <trkpt lat="47.18063" lon="8.48487">
        <ele>416.8</ele>
        <time>2023-02-12T08:22:27Z</time>
      </trkpt>
      <trkpt lat="47.18064" lon="8.4848">
        <ele>417</ele>
        <time>2023-02-12T08:22:28Z</time>
      </trkpt>
      <trkpt lat="47.18066" lon="8.48474">
        <ele>417</ele>
        <time>2023-02-12T08:22:29Z</time>
      </trkpt>
      <trkpt lat="47.18069" lon="8.48468">
        <ele>417</ele>
        <time>2023-02-12T08:22:30Z</time>
      </trkpt>
      <trkpt lat="47.18071" lon="8.4846">
        <ele>417</ele>
        <time>2023-02-12T08:22:31Z</time>
      </trkpt>
      <trkpt lat="47.18073" lon="8.48453">
        <ele>417</ele>
        <time>2023-02-12T08:22:32Z</time>
      </trkpt>
      <trkpt lat="47.18075" lon="8.48447">
        <ele>417</ele>
        <time>2023-02-12T08:22:33Z</time>
      </trkpt>
      <trkpt lat="47.18077" lon="8.48439">
        <ele>417</ele>
        <time>2023-02-12T08:22:34Z</time>
      </trkpt>
      <trkpt lat="47.18079" lon="8.48432">
        <ele>417</ele>
        <time>2023-02-12T08:22:35Z</time>
      </trkpt>
      <trkpt lat="47.1808" lon="8.48426">
        <ele>417</ele>
        <time>2023-02-12T08:22:36Z</time>
      </trkpt>
      <trkpt lat="47.18082" lon="8.48418">
        <ele>417.2</ele>
        <time>2023-02-12T08:22:37Z</time>
      </trkpt>
      <trkpt lat="47.18083" lon="8.48411">
        <ele>417.4</ele>
        <time>2023-02-12T08:22:38Z</time>
      </trkpt>
      <trkpt lat="47.18082" lon="8.48404">
        <ele>417.4</ele>
        <time>2023-02-12T08:22:39Z</time>
      </trkpt>
      <trkpt lat="47.1808" lon="8.48397">
        <ele>417.4</ele>
        <time>2023-02-12T08:22:40Z</time>
      </trkpt>
      <trkpt lat="47.18076" lon="8.48391">
        <ele>417.4</ele>
        <time>2023-02-12T08:22:41Z</time>
      </trkpt>
      <trkpt lat="47.18073" lon="8.48385">
        <ele>417.4</ele>
        <time>2023-02-12T08:22:42Z</time>
      </trkpt>
      <trkpt lat="47.18069" lon="8.48379">
        <ele>417.6</ele>
        <time>2023-02-12T08:22:43Z</time>
      </trkpt>
      <trkpt lat="47.18065" lon="8.48373">
        <ele>417.4</ele>
        <time>2023-02-12T08:22:44Z</time>
      </trkpt>
      <trkpt lat="47.18062" lon="8.48368">
        <ele>417.4</ele>
        <time>2023-02-12T08:22:45Z</time>
      </trkpt>
      <trkpt lat="47.18058" lon="8.48363">
        <ele>417.4</ele>
        <time>2023-02-12T08:22:46Z</time>
      </trkpt>
      <trkpt lat="47.18056" lon="8.48357">
        <ele>417.2</ele>
        <time>2023-02-12T08:22:47Z</time>
      </trkpt>
      <trkpt lat="47.18056" lon="8.48351">
        <ele>417.2</ele>
        <time>2023-02-12T08:22:48Z</time>
      </trkpt>
      <trkpt lat="47.18057" lon="8.48348">
        <ele>417.2</ele>
        <time>2023-02-12T08:22:49Z</time>
      </trkpt>
      <trkpt lat="47.1806" lon="8.48344">
        <ele>417.2</ele>
        <time>2023-02-12T08:22:50Z</time>
      </trkpt>
      <trkpt lat="47.18062" lon="8.48339">
        <ele>417</ele>
        <time>2023-02-12T08:22:51Z</time>
      </trkpt>
      <trkpt lat="47.18064" lon="8.48332">
        <ele>417</ele>
        <time>2023-02-12T08:22:52Z</time>
      </trkpt>
      <trkpt lat="47.18065" lon="8.48326">
        <ele>416.8</ele>
        <time>2023-02-12T08:22:53Z</time>
      </trkpt>
      <trkpt lat="47.18067" lon="8.48319">
        <ele>416.8</ele>
        <time>2023-02-12T08:22:54Z</time>
      </trkpt>
      <trkpt lat="47.18068" lon="8.48313">
        <ele>416.8</ele>
        <time>2023-02-12T08:22:55Z</time>
      </trkpt>
      <trkpt lat="47.18071" lon="8.48306">
        <ele>416.8</ele>
        <time>2023-02-12T08:22:56Z</time>
      </trkpt>
      <trkpt lat="47.18073" lon="8.48299">
        <ele>416.8</ele>
        <time>2023-02-12T08:22:57Z</time>
      </trkpt>
      <trkpt lat="47.18075" lon="8.48294">
        <ele>416.6</ele>
        <time>2023-02-12T08:22:58Z</time>
      </trkpt>
      <trkpt lat="47.18078" lon="8.48288">
        <ele>416.6</ele>
        <time>2023-02-12T08:22:59Z</time>
      </trkpt>
      <trkpt lat="47.18081" lon="8.48283">
        <ele>416.6</ele>
        <time>2023-02-12T08:23:00Z</time>
      </trkpt>
      <trkpt lat="47.18086" lon="8.48278">
        <ele>416.6</ele>
        <time>2023-02-12T08:23:01Z</time>
      </trkpt>
      <trkpt lat="47.1809" lon="8.48273">
        <ele>416.6</ele>
        <time>2023-02-12T08:23:02Z</time>
      </trkpt>
      <trkpt lat="47.18093" lon="8.48267">
        <ele>416.6</ele>
        <time>2023-02-12T08:23:03Z</time>
      </trkpt>
      <trkpt lat="47.18097" lon="8.48262">
        <ele>416.6</ele>
        <time>2023-02-12T08:23:04Z</time>
      </trkpt>
      <trkpt lat="47.18101" lon="8.48257">
        <ele>416.8</ele>
        <time>2023-02-12T08:23:05Z</time>
      </trkpt>
      <trkpt lat="47.18105" lon="8.48251">
        <ele>416.8</ele>
        <time>2023-02-12T08:23:06Z</time>
      </trkpt>
      <trkpt lat="47.18109" lon="8.48248">
        <ele>416.8</ele>
        <time>2023-02-12T08:23:07Z</time>
      </trkpt>
      <trkpt lat="47.18114" lon="8.48246">
        <ele>416.8</ele>
        <time>2023-02-12T08:23:08Z</time>
      </trkpt>
      <trkpt lat="47.18119" lon="8.48246">
        <ele>416.6</ele>
        <time>2023-02-12T08:23:09Z</time>
      </trkpt>
      <trkpt lat="47.18124" lon="8.48246">
        <ele>416.6</ele>
        <time>2023-02-12T08:23:10Z</time>
      </trkpt>
      <trkpt lat="47.18129" lon="8.48246">
        <ele>416.6</ele>
        <time>2023-02-12T08:23:11Z</time>
      </trkpt>
      <trkpt lat="47.18134" lon="8.48243">
        <ele>416.4</ele>
        <time>2023-02-12T08:23:12Z</time>
      </trkpt>
      <trkpt lat="47.18138" lon="8.48238">
        <ele>416.4</ele>
        <time>2023-02-12T08:23:13Z</time>
      </trkpt>
      <trkpt lat="47.1814" lon="8.48231">
        <ele>416.4</ele>
        <time>2023-02-12T08:23:14Z</time>
      </trkpt>
      <trkpt lat="47.18142" lon="8.48223">
        <ele>416.2</ele>
        <time>2023-02-12T08:23:15Z</time>
      </trkpt>
      <trkpt lat="47.18144" lon="8.48216">
        <ele>416.2</ele>
        <time>2023-02-12T08:23:16Z</time>
      </trkpt>
      <trkpt lat="47.18146" lon="8.48209">
        <ele>416.2</ele>
        <time>2023-02-12T08:23:17Z</time>
      </trkpt>
      <trkpt lat="47.18148" lon="8.48202">
        <ele>416.2</ele>
        <time>2023-02-12T08:23:18Z</time>
      </trkpt>
      <trkpt lat="47.1815" lon="8.48194">
        <ele>416.2</ele>
        <time>2023-02-12T08:23:19Z</time>
      </trkpt>
      <trkpt lat="47.18152" lon="8.48188">
        <ele>416.2</ele>
        <time>2023-02-12T08:23:20Z</time>
      </trkpt>
      <trkpt lat="47.18155" lon="8.48181">
        <ele>416.2</ele>
        <time>2023-02-12T08:23:21Z</time>
      </trkpt>
      <trkpt lat="47.18157" lon="8.48173">
        <ele>416</ele>
        <time>2023-02-12T08:23:22Z</time>
      </trkpt>
      <trkpt lat="47.18159" lon="8.48167">
        <ele>416</ele>
        <time>2023-02-12T08:23:23Z</time>
      </trkpt>
      <trkpt lat="47.18161" lon="8.4816">
        <ele>416</ele>
        <time>2023-02-12T08:23:24Z</time>
      </trkpt>
      <trkpt lat="47.18163" lon="8.48153">
        <ele>415.8</ele>
        <time>2023-02-12T08:23:25Z</time>
      </trkpt>
      <trkpt lat="47.18165" lon="8.48146">
        <ele>415.8</ele>
        <time>2023-02-12T08:23:26Z</time>
      </trkpt>
      <trkpt lat="47.18167" lon="8.48139">
        <ele>415.8</ele>
        <time>2023-02-12T08:23:27Z</time>
      </trkpt>
      <trkpt lat="47.1817" lon="8.48132">
        <ele>415.8</ele>
        <time>2023-02-12T08:23:28Z</time>
      </trkpt>
      <trkpt lat="47.18173" lon="8.48126">
        <ele>415.8</ele>
        <time>2023-02-12T08:23:29Z</time>
      </trkpt>
      <trkpt lat="47.18175" lon="8.48118">
        <ele>415.8</ele>
        <time>2023-02-12T08:23:30Z</time>
      </trkpt>
      <trkpt lat="47.18177" lon="8.48111">
        <ele>415.8</ele>
        <time>2023-02-12T08:23:31Z</time>
      </trkpt>
      <trkpt lat="47.1818" lon="8.48104">
        <ele>415.8</ele>
        <time>2023-02-12T08:23:32Z</time>
      </trkpt>
      <trkpt lat="47.18182" lon="8.48097">
        <ele>415.8</ele>
        <time>2023-02-12T08:23:33Z</time>
      </trkpt>
      <trkpt lat="47.18184" lon="8.48089">
        <ele>415.8</ele>
        <time>2023-02-12T08:23:34Z</time>
      </trkpt>
      <trkpt lat="47.18186" lon="8.48082">
        <ele>416</ele>
        <time>2023-02-12T08:23:35Z</time>
      </trkpt>
      <trkpt lat="47.18189" lon="8.48075">
        <ele>415.8</ele>
        <time>2023-02-12T08:23:36Z</time>
      </trkpt>
      <trkpt lat="47.18191" lon="8.48067">
        <ele>415.8</ele>
        <time>2023-02-12T08:23:37Z</time>
      </trkpt>
      <trkpt lat="47.18194" lon="8.48059">
        <ele>415.6</ele>
        <time>2023-02-12T08:23:38Z</time>
      </trkpt>
      <trkpt lat="47.18196" lon="8.48052">
        <ele>415.6</ele>
        <time>2023-02-12T08:23:39Z</time>
      </trkpt>
      <trkpt lat="47.18198" lon="8.48044">
        <ele>415.6</ele>
        <time>2023-02-12T08:23:40Z</time>
      </trkpt>
      <trkpt lat="47.182" lon="8.48037">
        <ele>415.4</ele>
        <time>2023-02-12T08:23:41Z</time>
      </trkpt>
      <trkpt lat="47.18202" lon="8.48029">
        <ele>415.4</ele>
        <time>2023-02-12T08:23:42Z</time>
      </trkpt>
      <trkpt lat="47.18205" lon="8.4802">
        <ele>415.4</ele>
        <time>2023-02-12T08:23:43Z</time>
      </trkpt>
      <trkpt lat="47.18208" lon="8.48012">
        <ele>415.2</ele>
        <time>2023-02-12T08:23:44Z</time>
      </trkpt>
      <trkpt lat="47.1821" lon="8.48005">
        <ele>415.2</ele>
        <time>2023-02-12T08:23:45Z</time>
      </trkpt>
      <trkpt lat="47.18212" lon="8.47997">
        <ele>415</ele>
        <time>2023-02-12T08:23:46Z</time>
      </trkpt>
      <trkpt lat="47.18215" lon="8.4799">
        <ele>415</ele>
        <time>2023-02-12T08:23:47Z</time>
      </trkpt>
      <trkpt lat="47.18217" lon="8.47983">
        <ele>415</ele>
        <time>2023-02-12T08:23:48Z</time>
      </trkpt>
      <trkpt lat="47.1822" lon="8.47975">
        <ele>415</ele>
        <time>2023-02-12T08:23:49Z</time>
      </trkpt>
      <trkpt lat="47.18222" lon="8.47968">
        <ele>414.8</ele>
        <time>2023-02-12T08:23:50Z</time>
      </trkpt>
      <trkpt lat="47.18225" lon="8.4796">
        <ele>414.6</ele>
        <time>2023-02-12T08:23:51Z</time>
      </trkpt>
      <trkpt lat="47.18227" lon="8.47952">
        <ele>414.4</ele>
        <time>2023-02-12T08:23:52Z</time>
      </trkpt>
      <trkpt lat="47.18229" lon="8.47945">
        <ele>414.4</ele>
        <time>2023-02-12T08:23:53Z</time>
      </trkpt>
      <trkpt lat="47.18232" lon="8.47937">
        <ele>414.2</ele>
        <time>2023-02-12T08:23:54Z</time>
      </trkpt>
      <trkpt lat="47.18234" lon="8.47929">
        <ele>414.2</ele>
        <time>2023-02-12T08:23:55Z</time>
      </trkpt>
      <trkpt lat="47.18237" lon="8.47921">
        <ele>414.2</ele>
        <time>2023-02-12T08:23:56Z</time>
      </trkpt>
      <trkpt lat="47.18239" lon="8.47913">
        <ele>414.2</ele>
        <time>2023-02-12T08:23:57Z</time>
      </trkpt>
      <trkpt lat="47.18241" lon="8.47906">
        <ele>414.2</ele>
        <time>2023-02-12T08:23:58Z</time>
      </trkpt>
      <trkpt lat="47.18244" lon="8.47898">
        <ele>414.2</ele>
        <time>2023-02-12T08:23:59Z</time>
      </trkpt>
      <trkpt lat="47.18246" lon="8.47891">
        <ele>414</ele>
        <time>2023-02-12T08:24:00Z</time>
      </trkpt>
      <trkpt lat="47.18249" lon="8.47883">
        <ele>414</ele>
        <time>2023-02-12T08:24:01Z</time>
      </trkpt>
      <trkpt lat="47.18251" lon="8.47875">
        <ele>414</ele>
        <time>2023-02-12T08:24:02Z</time>
      </trkpt>
      <trkpt lat="47.18254" lon="8.47867">
        <ele>414</ele>
        <time>2023-02-12T08:24:03Z</time>
      </trkpt>
      <trkpt lat="47.18256" lon="8.47859">
        <ele>413.8</ele>
        <time>2023-02-12T08:24:04Z</time>
      </trkpt>
      <trkpt lat="47.18258" lon="8.47851">
        <ele>413.8</ele>
        <time>2023-02-12T08:24:05Z</time>
      </trkpt>
      <trkpt lat="47.1826" lon="8.47844">
        <ele>413.8</ele>
        <time>2023-02-12T08:24:06Z</time>
      </trkpt>
      <trkpt lat="47.18263" lon="8.47836">
        <ele>413.8</ele>
        <time>2023-02-12T08:24:07Z</time>
      </trkpt>
      <trkpt lat="47.18265" lon="8.47828">
        <ele>413.8</ele>
        <time>2023-02-12T08:24:08Z</time>
      </trkpt>
      <trkpt lat="47.18267" lon="8.47821">
        <ele>413.8</ele>
        <time>2023-02-12T08:24:09Z</time>
      </trkpt>
      <trkpt lat="47.18269" lon="8.47813">
        <ele>413.6</ele>
        <time>2023-02-12T08:24:10Z</time>
      </trkpt>
      <trkpt lat="47.18271" lon="8.47805">
        <ele>413.4</ele>
        <time>2023-02-12T08:24:11Z</time>
      </trkpt>
      <trkpt lat="47.18273" lon="8.47797">
        <ele>413.4</ele>
        <time>2023-02-12T08:24:12Z</time>
      </trkpt>
      <trkpt lat="47.18275" lon="8.47789">
        <ele>413.4</ele>
        <time>2023-02-12T08:24:13Z</time>
      </trkpt>
      <trkpt lat="47.18276" lon="8.47781">
        <ele>413.4</ele>
        <time>2023-02-12T08:24:14Z</time>
      </trkpt>
      <trkpt lat="47.18278" lon="8.47773">
        <ele>413.4</ele>
        <time>2023-02-12T08:24:15Z</time>
      </trkpt>
      <trkpt lat="47.18279" lon="8.47765">
        <ele>413.4</ele>
        <time>2023-02-12T08:24:16Z</time>
      </trkpt>
      <trkpt lat="47.18281" lon="8.47757">
        <ele>413.4</ele>
        <time>2023-02-12T08:24:17Z</time>
      </trkpt>
      <trkpt lat="47.18282" lon="8.47749">
        <ele>413.4</ele>
        <time>2023-02-12T08:24:18Z</time>
      </trkpt>
      <trkpt lat="47.18283" lon="8.47741">
        <ele>413.4</ele>
        <time>2023-02-12T08:24:19Z</time>
      </trkpt>
      <trkpt lat="47.18284" lon="8.47733">
        <ele>413.4</ele>
        <time>2023-02-12T08:24:20Z</time>
      </trkpt>
      <trkpt lat="47.18286" lon="8.47725">
        <ele>413.4</ele>
        <time>2023-02-12T08:24:21Z</time>
      </trkpt>
      <trkpt lat="47.18287" lon="8.47717">
        <ele>413.2</ele>
        <time>2023-02-12T08:24:22Z</time>
      </trkpt>
      <trkpt lat="47.18288" lon="8.47709">
        <ele>413.2</ele>
        <time>2023-02-12T08:24:23Z</time>
      </trkpt>
      <trkpt lat="47.18289" lon="8.47701">
        <ele>413.4</ele>
        <time>2023-02-12T08:24:24Z</time>
      </trkpt>
      <trkpt lat="47.18289" lon="8.47694">
        <ele>413.4</ele>
        <time>2023-02-12T08:24:25Z</time>
      </trkpt>
      <trkpt lat="47.1829" lon="8.47687">
        <ele>413.4</ele>
        <time>2023-02-12T08:24:26Z</time>
      </trkpt>
      <trkpt lat="47.18291" lon="8.47679">
        <ele>413.4</ele>
        <time>2023-02-12T08:24:27Z</time>
      </trkpt>
      <trkpt lat="47.18291" lon="8.4767">
        <ele>413.4</ele>
        <time>2023-02-12T08:24:28Z</time>
      </trkpt>
      <trkpt lat="47.18292" lon="8.47662">
        <ele>413.4</ele>
        <time>2023-02-12T08:24:29Z</time>
      </trkpt>
      <trkpt lat="47.18293" lon="8.47655">
        <ele>413.2</ele>
        <time>2023-02-12T08:24:30Z</time>
      </trkpt>
      <trkpt lat="47.18294" lon="8.47647">
        <ele>413.2</ele>
        <time>2023-02-12T08:24:31Z</time>
      </trkpt>
      <trkpt lat="47.18294" lon="8.47639">
        <ele>413.2</ele>
        <time>2023-02-12T08:24:32Z</time>
      </trkpt>
      <trkpt lat="47.18295" lon="8.4763">
        <ele>413.2</ele>
        <time>2023-02-12T08:24:33Z</time>
      </trkpt>
      <trkpt lat="47.18295" lon="8.47623">
        <ele>413.2</ele>
        <time>2023-02-12T08:24:34Z</time>
      </trkpt>
      <trkpt lat="47.18296" lon="8.47616">
        <ele>413.4</ele>
        <time>2023-02-12T08:24:35Z</time>
      </trkpt>
      <trkpt lat="47.18296" lon="8.47607">
        <ele>413.4</ele>
        <time>2023-02-12T08:24:36Z</time>
      </trkpt>
      <trkpt lat="47.18296" lon="8.476">
        <ele>413.6</ele>
        <time>2023-02-12T08:24:37Z</time>
      </trkpt>
      <trkpt lat="47.18296" lon="8.47592">
        <ele>413.6</ele>
        <time>2023-02-12T08:24:38Z</time>
      </trkpt>
      <trkpt lat="47.18296" lon="8.47584">
        <ele>413.6</ele>
        <time>2023-02-12T08:24:39Z</time>
      </trkpt>
      <trkpt lat="47.18296" lon="8.47577">
        <ele>413.6</ele>
        <time>2023-02-12T08:24:40Z</time>
      </trkpt>
      <trkpt lat="47.18297" lon="8.47568">
        <ele>413.6</ele>
        <time>2023-02-12T08:24:41Z</time>
      </trkpt>
      <trkpt lat="47.18297" lon="8.4756">
        <ele>413.6</ele>
        <time>2023-02-12T08:24:42Z</time>
      </trkpt>
      <trkpt lat="47.18297" lon="8.47553">
        <ele>413.6</ele>
        <time>2023-02-12T08:24:43Z</time>
      </trkpt>
      <trkpt lat="47.18297" lon="8.47545">
        <ele>413.6</ele>
        <time>2023-02-12T08:24:44Z</time>
      </trkpt>
      <trkpt lat="47.18297" lon="8.47537">
        <ele>413.8</ele>
        <time>2023-02-12T08:24:45Z</time>
      </trkpt>
      <trkpt lat="47.18297" lon="8.47529">
        <ele>413.8</ele>
        <time>2023-02-12T08:24:46Z</time>
      </trkpt>
      <trkpt lat="47.18296" lon="8.47521">
        <ele>413.8</ele>
        <time>2023-02-12T08:24:47Z</time>
      </trkpt>
      <trkpt lat="47.18296" lon="8.47513">
        <ele>413.8</ele>
        <time>2023-02-12T08:24:48Z</time>
      </trkpt>
      <trkpt lat="47.18296" lon="8.47506">
        <ele>413.8</ele>
        <time>2023-02-12T08:24:49Z</time>
      </trkpt>
      <trkpt lat="47.18296" lon="8.47498">
        <ele>413.8</ele>
        <time>2023-02-12T08:24:50Z</time>
      </trkpt>
      <trkpt lat="47.18295" lon="8.47489">
        <ele>413.8</ele>
        <time>2023-02-12T08:24:51Z</time>
      </trkpt>
      <trkpt lat="47.18295" lon="8.47481">
        <ele>413.8</ele>
        <time>2023-02-12T08:24:52Z</time>
      </trkpt>
      <trkpt lat="47.18295" lon="8.47474">
        <ele>413.8</ele>
        <time>2023-02-12T08:24:53Z</time>
      </trkpt>
      <trkpt lat="47.18294" lon="8.47466">
        <ele>413.8</ele>
        <time>2023-02-12T08:24:54Z</time>
      </trkpt>
      <trkpt lat="47.18294" lon="8.47458">
        <ele>413.8</ele>
        <time>2023-02-12T08:24:55Z</time>
      </trkpt>
      <trkpt lat="47.18293" lon="8.47449">
        <ele>413.8</ele>
        <time>2023-02-12T08:24:56Z</time>
      </trkpt>
      <trkpt lat="47.18292" lon="8.4744">
        <ele>413.8</ele>
        <time>2023-02-12T08:24:57Z</time>
      </trkpt>
      <trkpt lat="47.18291" lon="8.47432">
        <ele>413.8</ele>
        <time>2023-02-12T08:24:58Z</time>
      </trkpt>
      <trkpt lat="47.1829" lon="8.47424">
        <ele>413.8</ele>
        <time>2023-02-12T08:24:59Z</time>
      </trkpt>
      <trkpt lat="47.18289" lon="8.47416">
        <ele>413.8</ele>
        <time>2023-02-12T08:25:00Z</time>
      </trkpt>
      <trkpt lat="47.18288" lon="8.47408">
        <ele>413.8</ele>
        <time>2023-02-12T08:25:01Z</time>
      </trkpt>
      <trkpt lat="47.18287" lon="8.47401">
        <ele>413.8</ele>
        <time>2023-02-12T08:25:02Z</time>
      </trkpt>
      <trkpt lat="47.18286" lon="8.47393">
        <ele>413.8</ele>
        <time>2023-02-12T08:25:03Z</time>
      </trkpt>
      <trkpt lat="47.18285" lon="8.47385">
        <ele>413.8</ele>
        <time>2023-02-12T08:25:04Z</time>
      </trkpt>
      <trkpt lat="47.18284" lon="8.47376">
        <ele>413.8</ele>
        <time>2023-02-12T08:25:05Z</time>
      </trkpt>
      <trkpt lat="47.18283" lon="8.47369">
        <ele>413.6</ele>
        <time>2023-02-12T08:25:06Z</time>
      </trkpt>
      <trkpt lat="47.18282" lon="8.47361">
        <ele>413.6</ele>
        <time>2023-02-12T08:25:07Z</time>
      </trkpt>
      <trkpt lat="47.1828" lon="8.47352">
        <ele>413.6</ele>
        <time>2023-02-12T08:25:08Z</time>
      </trkpt>
      <trkpt lat="47.18279" lon="8.47345">
        <ele>413.6</ele>
        <time>2023-02-12T08:25:09Z</time>
      </trkpt>
      <trkpt lat="47.18277" lon="8.47337">
        <ele>413.6</ele>
        <time>2023-02-12T08:25:10Z</time>
      </trkpt>
      <trkpt lat="47.18276" lon="8.47329">
        <ele>413.6</ele>
        <time>2023-02-12T08:25:11Z</time>
      </trkpt>
      <trkpt lat="47.18274" lon="8.47321">
        <ele>413.6</ele>
        <time>2023-02-12T08:25:12Z</time>
      </trkpt>
      <trkpt lat="47.18272" lon="8.47314">
        <ele>413.6</ele>
        <time>2023-02-12T08:25:13Z</time>
      </trkpt>
      <trkpt lat="47.18271" lon="8.47305">
        <ele>413.6</ele>
        <time>2023-02-12T08:25:14Z</time>
      </trkpt>
      <trkpt lat="47.18269" lon="8.47297">
        <ele>413.6</ele>
        <time>2023-02-12T08:25:15Z</time>
      </trkpt>
      <trkpt lat="47.18267" lon="8.47289">
        <ele>413.6</ele>
        <time>2023-02-12T08:25:16Z</time>
      </trkpt>
      <trkpt lat="47.18265" lon="8.47283">
        <ele>413.8</ele>
        <time>2023-02-12T08:25:17Z</time>
      </trkpt>
      <trkpt lat="47.18263" lon="8.47277">
        <ele>413.8</ele>
        <time>2023-02-12T08:25:18Z</time>
      </trkpt>
      <trkpt lat="47.18261" lon="8.4727">
        <ele>413.6</ele>
        <time>2023-02-12T08:25:19Z</time>
      </trkpt>
      <trkpt lat="47.18259" lon="8.47262">
        <ele>413.6</ele>
        <time>2023-02-12T08:25:20Z</time>
      </trkpt>
      <trkpt lat="47.18257" lon="8.47256">
        <ele>413.6</ele>
        <time>2023-02-12T08:25:21Z</time>
      </trkpt>
      <trkpt lat="47.18256" lon="8.4725">
        <ele>413.6</ele>
        <time>2023-02-12T08:25:22Z</time>
      </trkpt>
      <trkpt lat="47.18254" lon="8.47243">
        <ele>413.6</ele>
        <time>2023-02-12T08:25:23Z</time>
      </trkpt>
      <trkpt lat="47.18251" lon="8.47237">
        <ele>413.6</ele>
        <time>2023-02-12T08:25:24Z</time>
      </trkpt>
      <trkpt lat="47.18249" lon="8.4723">
        <ele>413.6</ele>
        <time>2023-02-12T08:25:25Z</time>
      </trkpt>
      <trkpt lat="47.18247" lon="8.47222">
        <ele>413.4</ele>
        <time>2023-02-12T08:25:26Z</time>
      </trkpt>
      <trkpt lat="47.18245" lon="8.47216">
        <ele>413.6</ele>
        <time>2023-02-12T08:25:27Z</time>
      </trkpt>
      <trkpt lat="47.18242" lon="8.47209">
        <ele>413.6</ele>
        <time>2023-02-12T08:25:28Z</time>
      </trkpt>
      <trkpt lat="47.1824" lon="8.47202">
        <ele>413.6</ele>
        <time>2023-02-12T08:25:29Z</time>
      </trkpt>
      <trkpt lat="47.18238" lon="8.47194">
        <ele>413.6</ele>
        <time>2023-02-12T08:25:30Z</time>
      </trkpt>
      <trkpt lat="47.18236" lon="8.47187">
        <ele>413.6</ele>
        <time>2023-02-12T08:25:31Z</time>
      </trkpt>
      <trkpt lat="47.18233" lon="8.4718">
        <ele>413.6</ele>
        <time>2023-02-12T08:25:32Z</time>
      </trkpt>
      <trkpt lat="47.18231" lon="8.47173">
        <ele>413.6</ele>
        <time>2023-02-12T08:25:33Z</time>
      </trkpt>
      <trkpt lat="47.18229" lon="8.47166">
        <ele>413.6</ele>
        <time>2023-02-12T08:25:34Z</time>
      </trkpt>
      <trkpt lat="47.18227" lon="8.47159">
        <ele>413.6</ele>
        <time>2023-02-12T08:25:35Z</time>
      </trkpt>
      <trkpt lat="47.18225" lon="8.47152">
        <ele>413.6</ele>
        <time>2023-02-12T08:25:36Z</time>
      </trkpt>
      <trkpt lat="47.18223" lon="8.47145">
        <ele>413.6</ele>
        <time>2023-02-12T08:25:37Z</time>
      </trkpt>
      <trkpt lat="47.18221" lon="8.47137">
        <ele>413.6</ele>
        <time>2023-02-12T08:25:38Z</time>
      </trkpt>
      <trkpt lat="47.18219" lon="8.4713">
        <ele>413.4</ele>
        <time>2023-02-12T08:25:39Z</time>
      </trkpt>
      <trkpt lat="47.18216" lon="8.47123">
        <ele>413.4</ele>
        <time>2023-02-12T08:25:40Z</time>
      </trkpt>
      <trkpt lat="47.18214" lon="8.47116">
        <ele>413.4</ele>
        <time>2023-02-12T08:25:41Z</time>
      </trkpt>
      <trkpt lat="47.18212" lon="8.47109">
        <ele>413.4</ele>
        <time>2023-02-12T08:25:42Z</time>
      </trkpt>
      <trkpt lat="47.1821" lon="8.47102">
        <ele>413.4</ele>
        <time>2023-02-12T08:25:43Z</time>
      </trkpt>
      <trkpt lat="47.18207" lon="8.47094">
        <ele>413.4</ele>
        <time>2023-02-12T08:25:44Z</time>
      </trkpt>
      <trkpt lat="47.18205" lon="8.47087">
        <ele>413.4</ele>
        <time>2023-02-12T08:25:45Z</time>
      </trkpt>
      <trkpt lat="47.18202" lon="8.47079">
        <ele>413.4</ele>
        <time>2023-02-12T08:25:46Z</time>
      </trkpt>
      <trkpt lat="47.182" lon="8.47072">
        <ele>413.4</ele>
        <time>2023-02-12T08:25:47Z</time>
      </trkpt>
      <trkpt lat="47.18197" lon="8.47065">
        <ele>413.4</ele>
        <time>2023-02-12T08:25:48Z</time>
      </trkpt>
      <trkpt lat="47.18195" lon="8.47057">
        <ele>413.4</ele>
        <time>2023-02-12T08:25:49Z</time>
      </trkpt>
      <trkpt lat="47.18192" lon="8.4705">
        <ele>413.4</ele>
        <time>2023-02-12T08:25:50Z</time>
      </trkpt>
      <trkpt lat="47.1819" lon="8.47043">
        <ele>413.4</ele>
        <time>2023-02-12T08:25:51Z</time>
      </trkpt>
      <trkpt lat="47.18188" lon="8.47036">
        <ele>413.4</ele>
        <time>2023-02-12T08:25:52Z</time>
      </trkpt>
      <trkpt lat="47.18185" lon="8.4703">
        <ele>413.4</ele>
        <time>2023-02-12T08:25:53Z</time>
      </trkpt>
      <trkpt lat="47.18183" lon="8.47023">
        <ele>413.6</ele>
        <time>2023-02-12T08:25:54Z</time>
      </trkpt>
      <trkpt lat="47.18181" lon="8.47016">
        <ele>413.6</ele>
        <time>2023-02-12T08:25:55Z</time>
      </trkpt>
      <trkpt lat="47.18178" lon="8.47008">
        <ele>413.6</ele>
        <time>2023-02-12T08:25:56Z</time>
      </trkpt>
      <trkpt lat="47.18176" lon="8.47">
        <ele>413.6</ele>
        <time>2023-02-12T08:25:57Z</time>
      </trkpt>
      <trkpt lat="47.18174" lon="8.46994">
        <ele>413.6</ele>
        <time>2023-02-12T08:25:58Z</time>
      </trkpt>
      <trkpt lat="47.18172" lon="8.46986">
        <ele>413.6</ele>
        <time>2023-02-12T08:25:59Z</time>
      </trkpt>
      <trkpt lat="47.1817" lon="8.46979">
        <ele>413.6</ele>
        <time>2023-02-12T08:26:00Z</time>
      </trkpt>
      <trkpt lat="47.18168" lon="8.46971">
        <ele>413.6</ele>
        <time>2023-02-12T08:26:01Z</time>
      </trkpt>
      <trkpt lat="47.18165" lon="8.46964">
        <ele>413.6</ele>
        <time>2023-02-12T08:26:02Z</time>
      </trkpt>
      <trkpt lat="47.18163" lon="8.46956">
        <ele>413.6</ele>
        <time>2023-02-12T08:26:03Z</time>
      </trkpt>
      <trkpt lat="47.18161" lon="8.4695">
        <ele>413.6</ele>
        <time>2023-02-12T08:26:04Z</time>
      </trkpt>
      <trkpt lat="47.18159" lon="8.46943">
        <ele>413.6</ele>
        <time>2023-02-12T08:26:05Z</time>
      </trkpt>
      <trkpt lat="47.18156" lon="8.46936">
        <ele>413.6</ele>
        <time>2023-02-12T08:26:06Z</time>
      </trkpt>
      <trkpt lat="47.18154" lon="8.46928">
        <ele>413.6</ele>
        <time>2023-02-12T08:26:07Z</time>
      </trkpt>
      <trkpt lat="47.18152" lon="8.46921">
        <ele>413.6</ele>
        <time>2023-02-12T08:26:08Z</time>
      </trkpt>
      <trkpt lat="47.1815" lon="8.46914">
        <ele>413.8</ele>
        <time>2023-02-12T08:26:09Z</time>
      </trkpt>
      <trkpt lat="47.18148" lon="8.46907">
        <ele>413.8</ele>
        <time>2023-02-12T08:26:10Z</time>
      </trkpt>
      <trkpt lat="47.18146" lon="8.469">
        <ele>413.8</ele>
        <time>2023-02-12T08:26:11Z</time>
      </trkpt>
      <trkpt lat="47.18144" lon="8.46893">
        <ele>414</ele>
        <time>2023-02-12T08:26:12Z</time>
      </trkpt>
      <trkpt lat="47.18142" lon="8.46886">
        <ele>414</ele>
        <time>2023-02-12T08:26:13Z</time>
      </trkpt>
      <trkpt lat="47.1814" lon="8.46879">
        <ele>414</ele>
        <time>2023-02-12T08:26:14Z</time>
      </trkpt>
      <trkpt lat="47.18138" lon="8.46873">
        <ele>414.2</ele>
        <time>2023-02-12T08:26:15Z</time>
      </trkpt>
      <trkpt lat="47.18136" lon="8.46866">
        <ele>414.2</ele>
        <time>2023-02-12T08:26:16Z</time>
      </trkpt>
      <trkpt lat="47.18134" lon="8.4686">
        <ele>414.2</ele>
        <time>2023-02-12T08:26:17Z</time>
      </trkpt>
      <trkpt lat="47.18132" lon="8.46853">
        <ele>414.2</ele>
        <time>2023-02-12T08:26:18Z</time>
      </trkpt>
      <trkpt lat="47.1813" lon="8.46847">
        <ele>414.4</ele>
        <time>2023-02-12T08:26:19Z</time>
      </trkpt>
      <trkpt lat="47.18128" lon="8.4684">
        <ele>414.4</ele>
        <time>2023-02-12T08:26:20Z</time>
      </trkpt>
      <trkpt lat="47.18127" lon="8.46834">
        <ele>414.6</ele>
        <time>2023-02-12T08:26:21Z</time>
      </trkpt>
      <trkpt lat="47.18125" lon="8.46827">
        <ele>414.6</ele>
        <time>2023-02-12T08:26:22Z</time>
      </trkpt>
      <trkpt lat="47.18122" lon="8.46821">
        <ele>414.6</ele>
        <time>2023-02-12T08:26:23Z</time>
      </trkpt>
      <trkpt lat="47.1812" lon="8.46815">
        <ele>414.6</ele>
        <time>2023-02-12T08:26:24Z</time>
      </trkpt>
      <trkpt lat="47.18117" lon="8.46809">
        <ele>414.8</ele>
        <time>2023-02-12T08:26:25Z</time>
      </trkpt>
      <trkpt lat="47.18114" lon="8.46803">
        <ele>414.8</ele>
        <time>2023-02-12T08:26:26Z</time>
      </trkpt>
      <trkpt lat="47.18112" lon="8.46798">
        <ele>414.8</ele>
        <time>2023-02-12T08:26:27Z</time>
      </trkpt>
      <trkpt lat="47.18109" lon="8.46793">
        <ele>414.8</ele>
        <time>2023-02-12T08:26:28Z</time>
      </trkpt>
      <trkpt lat="47.18106" lon="8.46788">
        <ele>414.8</ele>
        <time>2023-02-12T08:26:29Z</time>
      </trkpt>
      <trkpt lat="47.18104" lon="8.46783">
        <ele>415</ele>
        <time>2023-02-12T08:26:30Z</time>
      </trkpt>
      <trkpt lat="47.181" lon="8.46778">
        <ele>415</ele>
        <time>2023-02-12T08:26:31Z</time>
      </trkpt>
      <trkpt lat="47.18097" lon="8.46774">
        <ele>415</ele>
        <time>2023-02-12T08:26:32Z</time>
      </trkpt>
      <trkpt lat="47.18093" lon="8.4677">
        <ele>415</ele>
        <time>2023-02-12T08:26:33Z</time>
      </trkpt>
      <trkpt lat="47.18089" lon="8.46766">
        <ele>415.2</ele>
        <time>2023-02-12T08:26:34Z</time>
      </trkpt>
      <trkpt lat="47.18085" lon="8.46762">
        <ele>415.2</ele>
        <time>2023-02-12T08:26:35Z</time>
      </trkpt>
      <trkpt lat="47.18081" lon="8.46759">
        <ele>415.2</ele>
        <time>2023-02-12T08:26:36Z</time>
      </trkpt>
      <trkpt lat="47.18076" lon="8.46754">
        <ele>415.2</ele>
        <time>2023-02-12T08:26:37Z</time>
      </trkpt>
      <trkpt lat="47.18072" lon="8.46751">
        <ele>415.2</ele>
        <time>2023-02-12T08:26:38Z</time>
      </trkpt>
      <trkpt lat="47.18068" lon="8.46747">
        <ele>415</ele>
        <time>2023-02-12T08:26:39Z</time>
      </trkpt>
      <trkpt lat="47.18064" lon="8.46743">
        <ele>415</ele>
        <time>2023-02-12T08:26:40Z</time>
      </trkpt>
      <trkpt lat="47.18059" lon="8.4674">
        <ele>415</ele>
        <time>2023-02-12T08:26:41Z</time>
      </trkpt>
      <trkpt lat="47.18055" lon="8.46736">
        <ele>415</ele>
        <time>2023-02-12T08:26:42Z</time>
      </trkpt>
      <trkpt lat="47.18051" lon="8.46732">
        <ele>415</ele>
        <time>2023-02-12T08:26:43Z</time>
      </trkpt>
      <trkpt lat="47.18048" lon="8.46728">
        <ele>415</ele>
        <time>2023-02-12T08:26:44Z</time>
      </trkpt>
      <trkpt lat="47.18044" lon="8.46723">
        <ele>415</ele>
        <time>2023-02-12T08:26:45Z</time>
      </trkpt>
      <trkpt lat="47.1804" lon="8.46719">
        <ele>415.2</ele>
        <time>2023-02-12T08:26:46Z</time>
      </trkpt>
      <trkpt lat="47.18036" lon="8.46714">
        <ele>415.2</ele>
        <time>2023-02-12T08:26:47Z</time>
      </trkpt>
      <trkpt lat="47.18033" lon="8.46709">
        <ele>415.2</ele>
        <time>2023-02-12T08:26:48Z</time>
      </trkpt>
      <trkpt lat="47.18029" lon="8.46706">
        <ele>415.2</ele>
        <time>2023-02-12T08:26:49Z</time>
      </trkpt>
      <trkpt lat="47.18026" lon="8.46701">
        <ele>415.2</ele>
        <time>2023-02-12T08:26:50Z</time>
      </trkpt>
      <trkpt lat="47.18022" lon="8.46696">
        <ele>415.2</ele>
        <time>2023-02-12T08:26:51Z</time>
      </trkpt>
      <trkpt lat="47.1802" lon="8.46691">
        <ele>415.4</ele>
        <time>2023-02-12T08:26:52Z</time>
      </trkpt>
      <trkpt lat="47.18018" lon="8.46686">
        <ele>415.4</ele>
        <time>2023-02-12T08:26:53Z</time>
      </trkpt>
      <trkpt lat="47.18017" lon="8.46682">
        <ele>415.6</ele>
        <time>2023-02-12T08:26:54Z</time>
      </trkpt>
      <trkpt lat="47.18016" lon="8.46678">
        <ele>415.8</ele>
        <time>2023-02-12T08:26:55Z</time>
      </trkpt>
      <trkpt lat="47.18015" lon="8.46674">
        <ele>416</ele>
        <time>2023-02-12T08:26:56Z</time>
      </trkpt>
      <trkpt lat="47.18014" lon="8.4667">
        <ele>416.2</ele>
        <time>2023-02-12T08:26:57Z</time>
      </trkpt>
      <trkpt lat="47.18013" lon="8.46666">
        <ele>416.4</ele>
        <time>2023-02-12T08:26:58Z</time>
      </trkpt>
      <trkpt lat="47.18012" lon="8.46662">
        <ele>416.6</ele>
        <time>2023-02-12T08:26:59Z</time>
      </trkpt>
      <trkpt lat="47.18011" lon="8.46658">
        <ele>417</ele>
        <time>2023-02-12T08:27:00Z</time>
      </trkpt>
      <trkpt lat="47.1801" lon="8.46653">
        <ele>417.4</ele>
        <time>2023-02-12T08:27:01Z</time>
      </trkpt>
      <trkpt lat="47.18009" lon="8.46649">
        <ele>417.8</ele>
        <time>2023-02-12T08:27:02Z</time>
      </trkpt>
      <trkpt lat="47.18008" lon="8.46644">
        <ele>418.2</ele>
        <time>2023-02-12T08:27:03Z</time>
      </trkpt>
      <trkpt lat="47.18008" lon="8.46639">
        <ele>418.6</ele>
        <time>2023-02-12T08:27:04Z</time>
      </trkpt>
      <trkpt lat="47.18007" lon="8.46635">
        <ele>418.8</ele>
        <time>2023-02-12T08:27:05Z</time>
      </trkpt>
      <trkpt lat="47.18006" lon="8.4663">
        <ele>419.2</ele>
        <time>2023-02-12T08:27:06Z</time>
      </trkpt>
      <trkpt lat="47.18006" lon="8.46627">
        <ele>419.6</ele>
        <time>2023-02-12T08:27:07Z</time>
      </trkpt>
      <trkpt lat="47.18005" lon="8.46622">
        <ele>420</ele>
        <time>2023-02-12T08:27:08Z</time>
      </trkpt>
      <trkpt lat="47.18005" lon="8.46619">
        <ele>420.4</ele>
        <time>2023-02-12T08:27:09Z</time>
      </trkpt>
      <trkpt lat="47.18004" lon="8.46614">
        <ele>421</ele>
        <time>2023-02-12T08:27:10Z</time>
      </trkpt>
      <trkpt lat="47.18004" lon="8.46611">
        <ele>421.4</ele>
        <time>2023-02-12T08:27:11Z</time>
      </trkpt>
      <trkpt lat="47.18004" lon="8.46607">
        <ele>422</ele>
        <time>2023-02-12T08:27:12Z</time>
      </trkpt>
      <trkpt lat="47.18004" lon="8.46603">
        <ele>422.6</ele>
        <time>2023-02-12T08:27:13Z</time>
      </trkpt>
      <trkpt lat="47.18004" lon="8.46599">
        <ele>423</ele>
        <time>2023-02-12T08:27:14Z</time>
      </trkpt>
      <trkpt lat="47.18004" lon="8.46595">
        <ele>423</ele>
        <time>2023-02-12T08:27:15Z</time>
      </trkpt>
      <trkpt lat="47.18004" lon="8.46591">
        <ele>423.6</ele>
        <time>2023-02-12T08:27:16Z</time>
      </trkpt>
      <trkpt lat="47.18003" lon="8.46587">
        <ele>424</ele>
        <time>2023-02-12T08:27:17Z</time>
      </trkpt>
      <trkpt lat="47.18003" lon="8.46582">
        <ele>424.4</ele>
        <time>2023-02-12T08:27:18Z</time>
      </trkpt>
      <trkpt lat="47.18003" lon="8.46578">
        <ele>424.6</ele>
        <time>2023-02-12T08:27:19Z</time>
      </trkpt>
      <trkpt lat="47.18002" lon="8.46575">
        <ele>424.8</ele>
        <time>2023-02-12T08:27:20Z</time>
      </trkpt>
      <trkpt lat="47.18002" lon="8.4657">
        <ele>425</ele>
        <time>2023-02-12T08:27:21Z</time>
      </trkpt>
      <trkpt lat="47.18001" lon="8.46565">
        <ele>425</ele>
        <time>2023-02-12T08:27:22Z</time>
      </trkpt>
      <trkpt lat="47.18" lon="8.4656">
        <ele>425.2</ele>
        <time>2023-02-12T08:27:23Z</time>
      </trkpt>
      <trkpt lat="47.17999" lon="8.46554">
        <ele>425.2</ele>
        <time>2023-02-12T08:27:24Z</time>
      </trkpt>
      <trkpt lat="47.17998" lon="8.46549">
        <ele>425.2</ele>
        <time>2023-02-12T08:27:25Z</time>
      </trkpt>
      <trkpt lat="47.17996" lon="8.46544">
        <ele>425.2</ele>
        <time>2023-02-12T08:27:26Z</time>
      </trkpt>
      <trkpt lat="47.17995" lon="8.46539">
        <ele>425.2</ele>
        <time>2023-02-12T08:27:27Z</time>
      </trkpt>
      <trkpt lat="47.17994" lon="8.46533">
        <ele>425.2</ele>
        <time>2023-02-12T08:27:28Z</time>
      </trkpt>
      <trkpt lat="47.17992" lon="8.46527">
        <ele>425</ele>
        <time>2023-02-12T08:27:29Z</time>
      </trkpt>
      <trkpt lat="47.17991" lon="8.46521">
        <ele>425</ele>
        <time>2023-02-12T08:27:30Z</time>
      </trkpt>
      <trkpt lat="47.17989" lon="8.46514">
        <ele>424.8</ele>
        <time>2023-02-12T08:27:31Z</time>
      </trkpt>
      <trkpt lat="47.17987" lon="8.46508">
        <ele>424.8</ele>
        <time>2023-02-12T08:27:32Z</time>
      </trkpt>
      <trkpt lat="47.17985" lon="8.465">
        <ele>424.6</ele>
        <time>2023-02-12T08:27:33Z</time>
      </trkpt>
      <trkpt lat="47.17983" lon="8.46493">
        <ele>424.4</ele>
        <time>2023-02-12T08:27:34Z</time>
      </trkpt>
      <trkpt lat="47.17981" lon="8.46486">
        <ele>424.2</ele>
        <time>2023-02-12T08:27:35Z</time>
      </trkpt>
      <trkpt lat="47.17979" lon="8.46478">
        <ele>424</ele>
        <time>2023-02-12T08:27:36Z</time>
      </trkpt>
      <trkpt lat="47.17977" lon="8.46471">
        <ele>423.6</ele>
        <time>2023-02-12T08:27:37Z</time>
      </trkpt>
      <trkpt lat="47.17975" lon="8.46464">
        <ele>423.2</ele>
        <time>2023-02-12T08:27:38Z</time>
      </trkpt>
      <trkpt lat="47.17973" lon="8.46457">
        <ele>422.8</ele>
        <time>2023-02-12T08:27:39Z</time>
      </trkpt>
      <trkpt lat="47.17972" lon="8.46449">
        <ele>422.4</ele>
        <time>2023-02-12T08:27:40Z</time>
      </trkpt>
      <trkpt lat="47.1797" lon="8.46441">
        <ele>422.4</ele>
        <time>2023-02-12T08:27:41Z</time>
      </trkpt>
      <trkpt lat="47.17969" lon="8.46433">
        <ele>422</ele>
        <time>2023-02-12T08:27:42Z</time>
      </trkpt>
      <trkpt lat="47.17967" lon="8.46424">
        <ele>421.4</ele>
        <time>2023-02-12T08:27:43Z</time>
      </trkpt>
      <trkpt lat="47.17964" lon="8.46416">
        <ele>421</ele>
        <time>2023-02-12T08:27:44Z</time>
      </trkpt>
      <trkpt lat="47.17962" lon="8.46407">
        <ele>420.4</ele>
        <time>2023-02-12T08:27:45Z</time>
      </trkpt>
      <trkpt lat="47.17959" lon="8.46398">
        <ele>420</ele>
        <time>2023-02-12T08:27:46Z</time>
      </trkpt>
      <trkpt lat="47.17956" lon="8.46389">
        <ele>419.4</ele>
        <time>2023-02-12T08:27:47Z</time>
      </trkpt>
      <trkpt lat="47.17954" lon="8.4638">
        <ele>418.8</ele>
        <time>2023-02-12T08:27:48Z</time>
      </trkpt>
      <trkpt lat="47.17951" lon="8.46372">
        <ele>418</ele>
        <time>2023-02-12T08:27:49Z</time>
      </trkpt>
      <trkpt lat="47.17949" lon="8.46363">
        <ele>417.4</ele>
        <time>2023-02-12T08:27:50Z</time>
      </trkpt>
      <trkpt lat="47.17946" lon="8.46355">
        <ele>417</ele>
        <time>2023-02-12T08:27:51Z</time>
      </trkpt>
      <trkpt lat="47.17944" lon="8.46347">
        <ele>416.4</ele>
        <time>2023-02-12T08:27:52Z</time>
      </trkpt>
      <trkpt lat="47.17942" lon="8.4634">
        <ele>416</ele>
        <time>2023-02-12T08:27:53Z</time>
      </trkpt>
      <trkpt lat="47.1794" lon="8.46333">
        <ele>415.6</ele>
        <time>2023-02-12T08:27:54Z</time>
      </trkpt>
      <trkpt lat="47.17938" lon="8.46328">
        <ele>415.4</ele>
        <time>2023-02-12T08:27:55Z</time>
      </trkpt>
      <trkpt lat="47.17935" lon="8.46323">
        <ele>415</ele>
        <time>2023-02-12T08:27:56Z</time>
      </trkpt>
      <trkpt lat="47.17931" lon="8.46322">
        <ele>414.8</ele>
        <time>2023-02-12T08:27:57Z</time>
      </trkpt>
      <trkpt lat="47.17928" lon="8.46322">
        <ele>414.6</ele>
        <time>2023-02-12T08:27:58Z</time>
      </trkpt>
      <trkpt lat="47.17924" lon="8.46322">
        <ele>414.4</ele>
        <time>2023-02-12T08:27:59Z</time>
      </trkpt>
      <trkpt lat="47.1792" lon="8.46322">
        <ele>414.2</ele>
        <time>2023-02-12T08:28:00Z</time>
      </trkpt>
      <trkpt lat="47.17916" lon="8.46323">
        <ele>414</ele>
        <time>2023-02-12T08:28:01Z</time>
      </trkpt>
      <trkpt lat="47.17912" lon="8.46323">
        <ele>413.6</ele>
        <time>2023-02-12T08:28:02Z</time>
      </trkpt>
      <trkpt lat="47.17908" lon="8.46323">
        <ele>413.4</ele>
        <time>2023-02-12T08:28:03Z</time>
      </trkpt>
      <trkpt lat="47.17905" lon="8.46323">
        <ele>413.4</ele>
        <time>2023-02-12T08:28:04Z</time>
      </trkpt>
      <trkpt lat="47.17901" lon="8.46325">
        <ele>413.2</ele>
        <time>2023-02-12T08:28:05Z</time>
      </trkpt>
      <trkpt lat="47.17898" lon="8.46326">
        <ele>413.2</ele>
        <time>2023-02-12T08:28:06Z</time>
      </trkpt>
      <trkpt lat="47.17895" lon="8.46327">
        <ele>413.2</ele>
        <time>2023-02-12T08:28:07Z</time>
      </trkpt>
      <trkpt lat="47.17892" lon="8.46328">
        <ele>413.2</ele>
        <time>2023-02-12T08:28:08Z</time>
      </trkpt>
      <trkpt lat="47.17889" lon="8.46329">
        <ele>413.2</ele>
        <time>2023-02-12T08:28:09Z</time>
      </trkpt>
      <trkpt lat="47.17886" lon="8.46331">
        <ele>413.2</ele>
        <time>2023-02-12T08:28:10Z</time>
      </trkpt>
      <trkpt lat="47.17883" lon="8.46333">
        <ele>413.2</ele>
        <time>2023-02-12T08:28:11Z</time>
      </trkpt>
      <trkpt lat="47.17881" lon="8.46335">
        <ele>413.2</ele>
        <time>2023-02-12T08:28:12Z</time>
      </trkpt>
      <trkpt lat="47.17878" lon="8.46337">
        <ele>413.2</ele>
        <time>2023-02-12T08:28:13Z</time>
      </trkpt>
      <trkpt lat="47.17876" lon="8.46339">
        <ele>413.2</ele>
        <time>2023-02-12T08:28:14Z</time>
      </trkpt>
      <trkpt lat="47.17873" lon="8.46341">
        <ele>413</ele>
        <time>2023-02-12T08:28:15Z</time>
      </trkpt>
      <trkpt lat="47.17871" lon="8.46344">
        <ele>413</ele>
        <time>2023-02-12T08:28:16Z</time>
      </trkpt>
      <trkpt lat="47.1787" lon="8.46346">
        <ele>412.8</ele>
        <time>2023-02-12T08:28:17Z</time>
      </trkpt>
      <trkpt lat="47.1787" lon="8.46346">
        <ele>412.8</ele>
        <time>2023-02-12T08:28:18Z</time>
      </trkpt>
      <trkpt lat="47.1787" lon="8.46347">
        <ele>412.8</ele>
        <time>2023-02-12T08:28:19Z</time>
      </trkpt>
      <trkpt lat="47.1787" lon="8.46347">
        <ele>412.8</ele>
        <time>2023-02-12T08:28:20Z</time>
      </trkpt>
      <trkpt lat="47.17869" lon="8.46348">
        <ele>412.8</ele>
        <time>2023-02-12T08:28:21Z</time>
      </trkpt>
      <trkpt lat="47.17869" lon="8.46348">
        <ele>412.8</ele>
        <time>2023-02-12T08:28:22Z</time>
      </trkpt>
      <trkpt lat="47.17868" lon="8.46349">
        <ele>412.8</ele>
        <time>2023-02-12T08:28:23Z</time>
      </trkpt>
      <trkpt lat="47.17868" lon="8.4635">
        <ele>412.8</ele>
        <time>2023-02-12T08:28:24Z</time>
      </trkpt>
      <trkpt lat="47.17867" lon="8.46351">
        <ele>412.8</ele>
        <time>2023-02-12T08:28:25Z</time>
      </trkpt>
      <trkpt lat="47.17866" lon="8.46351">
        <ele>412.8</ele>
        <time>2023-02-12T08:28:26Z</time>
      </trkpt>
      <trkpt lat="47.17866" lon="8.46352">
        <ele>412.8</ele>
        <time>2023-02-12T08:28:27Z</time>
      </trkpt>
      <trkpt lat="47.17865" lon="8.46352">
        <ele>412.8</ele>
        <time>2023-02-12T08:28:28Z</time>
      </trkpt>
      <trkpt lat="47.17865" lon="8.46352">
        <ele>412.8</ele>
        <time>2023-02-12T08:28:29Z</time>
      </trkpt>
      <trkpt lat="47.17864" lon="8.46352">
        <ele>412.8</ele>
        <time>2023-02-12T08:28:30Z</time>
      </trkpt>
      <trkpt lat="47.17864" lon="8.46352">
        <ele>412.8</ele>
        <time>2023-02-12T08:28:31Z</time>
      </trkpt>
      <trkpt lat="47.17864" lon="8.46352">
        <ele>412.8</ele>
        <time>2023-02-12T08:28:32Z</time>
      </trkpt>
      <trkpt lat="47.17864" lon="8.46352">
        <ele>412.8</ele>
        <time>2023-02-12T08:28:33Z</time>
      </trkpt>
      <trkpt lat="47.17864" lon="8.46352">
        <ele>412.8</ele>
        <time>2023-02-12T08:28:34Z</time>
      </trkpt>
      <trkpt lat="47.17864" lon="8.46351">
        <ele>413</ele>
        <time>2023-02-12T08:28:35Z</time>
      </trkpt>
      <trkpt lat="47.17863" lon="8.46349">
        <ele>413</ele>
        <time>2023-02-12T08:28:36Z</time>
      </trkpt>
      <trkpt lat="47.17863" lon="8.46347">
        <ele>413</ele>
        <time>2023-02-12T08:28:37Z</time>
      </trkpt>
      <trkpt lat="47.17863" lon="8.46346">
        <ele>413</ele>
        <time>2023-02-12T08:28:38Z</time>
      </trkpt>
      <trkpt lat="47.17863" lon="8.46344">
        <ele>413</ele>
        <time>2023-02-12T08:28:39Z</time>
      </trkpt>
      <trkpt lat="47.17863" lon="8.46342">
        <ele>412.8</ele>
        <time>2023-02-12T08:28:40Z</time>
      </trkpt>
      <trkpt lat="47.17862" lon="8.46341">
        <ele>412.8</ele>
        <time>2023-02-12T08:28:41Z</time>
      </trkpt>
      <trkpt lat="47.17861" lon="8.46341">
        <ele>412.8</ele>
        <time>2023-02-12T08:28:42Z</time>
      </trkpt>
      <trkpt lat="47.17861" lon="8.46341">
        <ele>412.8</ele>
        <time>2023-02-12T08:28:43Z</time>
      </trkpt>
      <trkpt lat="47.17861" lon="8.46341">
        <ele>412.8</ele>
        <time>2023-02-12T08:28:44Z</time>
      </trkpt>
      <trkpt lat="47.17861" lon="8.4634">
        <ele>412.8</ele>
        <time>2023-02-12T08:28:45Z</time>
      </trkpt>
      <trkpt lat="47.17861" lon="8.4634">
        <ele>413</ele>
        <time>2023-02-12T08:28:46Z</time>
      </trkpt>
      <trkpt lat="47.17861" lon="8.4634">
        <ele>413</ele>
        <time>2023-02-12T08:28:47Z</time>
      </trkpt>
      <trkpt lat="47.17861" lon="8.4634">
        <ele>413</ele>
        <time>2023-02-12T08:28:48Z</time>
      </trkpt>
      <trkpt lat="47.17861" lon="8.4634">
        <ele>413</ele>
        <time>2023-02-12T08:28:49Z</time>
      </trkpt>
      <trkpt lat="47.17861" lon="8.4634">
        <ele>413</ele>
        <time>2023-02-12T08:28:50Z</time>
      </trkpt>
      <trkpt lat="47.17861" lon="8.4634">
        <ele>413</ele>
        <time>2023-02-12T08:28:51Z</time>
      </trkpt>
      <trkpt lat="47.17861" lon="8.4634">
        <ele>413</ele>
        <time>2023-02-12T08:28:52Z</time>
      </trkpt>
      <trkpt lat="47.17861" lon="8.4634">
        <ele>413</ele>
        <time>2023-02-12T08:28:53Z</time>
      </trkpt>
      <trkpt lat="47.17861" lon="8.4634">
        <ele>412.8</ele>
        <time>2023-02-12T08:28:54Z</time>
      </trkpt>
      <trkpt lat="47.17861" lon="8.4634">
        <ele>412.8</ele>
        <time>2023-02-12T08:28:55Z</time>
      </trkpt>
      <trkpt lat="47.17861" lon="8.4634">
        <ele>413</ele>
        <time>2023-02-12T08:28:56Z</time>
      </trkpt>
      <trkpt lat="47.17861" lon="8.4634">
        <ele>413</ele>
        <time>2023-02-12T08:28:57Z</time>
      </trkpt>
      <trkpt lat="47.17861" lon="8.4634">
        <ele>413</ele>
        <time>2023-02-12T08:28:58Z</time>
      </trkpt>
      <trkpt lat="47.17861" lon="8.4634">
        <ele>413</ele>
        <time>2023-02-12T08:28:59Z</time>
      </trkpt>
      <trkpt lat="47.17861" lon="8.4634">
        <ele>413</ele>
        <time>2023-02-12T08:29:00Z</time>
      </trkpt>
      <trkpt lat="47.17861" lon="8.4634">
        <ele>413</ele>
        <time>2023-02-12T08:29:01Z</time>
      </trkpt>
      <trkpt lat="47.17861" lon="8.4634">
        <ele>413</ele>
        <time>2023-02-12T08:29:02Z</time>
      </trkpt>
      <trkpt lat="47.17861" lon="8.4634">
        <ele>413</ele>
        <time>2023-02-12T08:29:03Z</time>
      </trkpt>
      <trkpt lat="47.17861" lon="8.4634">
        <ele>413</ele>
        <time>2023-02-12T08:29:04Z</time>
      </trkpt>
      <trkpt lat="47.17861" lon="8.4634">
        <ele>413</ele>
        <time>2023-02-12T08:29:05Z</time>
      </trkpt>
      <trkpt lat="47.17861" lon="8.4634">
        <ele>413</ele>
        <time>2023-02-12T08:29:06Z</time>
      </trkpt>
      <trkpt lat="47.17861" lon="8.4634">
        <ele>413</ele>
        <time>2023-02-12T08:29:07Z</time>
      </trkpt>
      <trkpt lat="47.17861" lon="8.4634">
        <ele>413</ele>
        <time>2023-02-12T08:29:08Z</time>
      </trkpt>
      <trkpt lat="47.17861" lon="8.4634">
        <ele>413</ele>
        <time>2023-02-12T08:29:09Z</time>
      </trkpt>
      <trkpt lat="47.17861" lon="8.4634">
        <ele>413</ele>
        <time>2023-02-12T08:29:10Z</time>
      </trkpt>
      <trkpt lat="47.17861" lon="8.4634">
        <ele>413</ele>
        <time>2023-02-12T08:29:11Z</time>
      </trkpt>
      <trkpt lat="47.17861" lon="8.4634">
        <ele>413</ele>
        <time>2023-02-12T08:29:12Z</time>
      </trkpt>
      <trkpt lat="47.17861" lon="8.4634">
        <ele>413</ele>
        <time>2023-02-12T08:29:13Z</time>
      </trkpt>
      <trkpt lat="47.17861" lon="8.4634">
        <ele>413</ele>
        <time>2023-02-12T08:29:14Z</time>
      </trkpt>
      <trkpt lat="47.17861" lon="8.4634">
        <ele>413</ele>
        <time>2023-02-12T08:29:15Z</time>
      </trkpt>
      <trkpt lat="47.17861" lon="8.4634">
        <ele>413</ele>
        <time>2023-02-12T08:29:16Z</time>
      </trkpt>
      <trkpt lat="47.17861" lon="8.4634">
        <ele>413</ele>
        <time>2023-02-12T08:29:17Z</time>
      </trkpt>
      <trkpt lat="47.17861" lon="8.4634">
        <ele>413</ele>
        <time>2023-02-12T08:29:18Z</time>
      </trkpt>
      <trkpt lat="47.17861" lon="8.4634">
        <ele>413</ele>
        <time>2023-02-12T08:29:19Z</time>
      </trkpt>
      <trkpt lat="47.17861" lon="8.4634">
        <ele>413</ele>
        <time>2023-02-12T08:29:20Z</time>
      </trkpt>
      <trkpt lat="47.17861" lon="8.4634">
        <ele>413</ele>
        <time>2023-02-12T08:29:21Z</time>
      </trkpt>
      <trkpt lat="47.17861" lon="8.4634">
        <ele>413</ele>
        <time>2023-02-12T08:29:22Z</time>
      </trkpt>
      <trkpt lat="47.17861" lon="8.4634">
        <ele>413</ele>
        <time>2023-02-12T08:29:23Z</time>
      </trkpt>
      <trkpt lat="47.17861" lon="8.4634">
        <ele>413</ele>
        <time>2023-02-12T08:29:24Z</time>
      </trkpt>
      <trkpt lat="47.17861" lon="8.4634">
        <ele>413</ele>
        <time>2023-02-12T08:29:25Z</time>
      </trkpt>
      <trkpt lat="47.17861" lon="8.4634">
        <ele>413</ele>
        <time>2023-02-12T08:29:26Z</time>
      </trkpt>
      <trkpt lat="47.17861" lon="8.4634">
        <ele>413</ele>
        <time>2023-02-12T08:29:27Z</time>
      </trkpt>
      <trkpt lat="47.17861" lon="8.4634">
        <ele>413</ele>
        <time>2023-02-12T08:29:28Z</time>
      </trkpt>
      <trkpt lat="47.17861" lon="8.4634">
        <ele>413</ele>
        <time>2023-02-12T08:29:29Z</time>
      </trkpt>
      <trkpt lat="47.17861" lon="8.4634">
        <ele>413</ele>
        <time>2023-02-12T08:29:30Z</time>
      </trkpt>
      <trkpt lat="47.17861" lon="8.4634">
        <ele>413</ele>
        <time>2023-02-12T08:29:31Z</time>
      </trkpt>
      <trkpt lat="47.17861" lon="8.4634">
        <ele>413</ele>
        <time>2023-02-12T08:29:32Z</time>
      </trkpt>
      <trkpt lat="47.17861" lon="8.4634">
        <ele>413</ele>
        <time>2023-02-12T08:29:33Z</time>
      </trkpt>
      <trkpt lat="47.17861" lon="8.4634">
        <ele>413</ele>
        <time>2023-02-12T08:29:34Z</time>
      </trkpt>
      <trkpt lat="47.17861" lon="8.4634">
        <ele>413</ele>
        <time>2023-02-12T08:29:35Z</time>
      </trkpt>
      <trkpt lat="47.17861" lon="8.4634">
        <ele>413</ele>
        <time>2023-02-12T08:29:36Z</time>
      </trkpt>
      <trkpt lat="47.17861" lon="8.4634">
        <ele>413</ele>
        <time>2023-02-12T08:29:37Z</time>
      </trkpt>
      <trkpt lat="47.17861" lon="8.4634">
        <ele>413</ele>
        <time>2023-02-12T08:29:38Z</time>
      </trkpt>
      <trkpt lat="47.17861" lon="8.4634">
        <ele>413</ele>
        <time>2023-02-12T08:29:39Z</time>
      </trkpt>
      <trkpt lat="47.17861" lon="8.4634">
        <ele>413</ele>
        <time>2023-02-12T08:29:40Z</time>
      </trkpt>
      <trkpt lat="47.17861" lon="8.4634">
        <ele>413</ele>
        <time>2023-02-12T08:29:41Z</time>
      </trkpt>
      <trkpt lat="47.17861" lon="8.4634">
        <ele>413</ele>
        <time>2023-02-12T08:29:42Z</time>
      </trkpt>
      <trkpt lat="47.17861" lon="8.4634">
        <ele>413</ele>
        <time>2023-02-12T08:29:43Z</time>
      </trkpt>
      <trkpt lat="47.17861" lon="8.4634">
        <ele>413</ele>
        <time>2023-02-12T08:29:44Z</time>
      </trkpt>
      <trkpt lat="47.17861" lon="8.4634">
        <ele>413</ele>
        <time>2023-02-12T08:29:45Z</time>
      </trkpt>
      <trkpt lat="47.17861" lon="8.4634">
        <ele>413</ele>
        <time>2023-02-12T08:29:46Z</time>
      </trkpt>
      <trkpt lat="47.17861" lon="8.4634">
        <ele>413</ele>
        <time>2023-02-12T08:29:47Z</time>
      </trkpt>
      <trkpt lat="47.17861" lon="8.4634">
        <ele>413</ele>
        <time>2023-02-12T08:29:48Z</time>
      </trkpt>
      <trkpt lat="47.17861" lon="8.4634">
        <ele>413</ele>
        <time>2023-02-12T08:29:49Z</time>
      </trkpt>
      <trkpt lat="47.17861" lon="8.4634">
        <ele>413</ele>
        <time>2023-02-12T08:29:50Z</time>
      </trkpt>
      <trkpt lat="47.17861" lon="8.4634">
        <ele>413</ele>
        <time>2023-02-12T08:29:51Z</time>
      </trkpt>
      <trkpt lat="47.17861" lon="8.4634">
        <ele>413</ele>
        <time>2023-02-12T08:29:52Z</time>
      </trkpt>
      <trkpt lat="47.17861" lon="8.4634">
        <ele>413</ele>
        <time>2023-02-12T08:29:53Z</time>
      </trkpt>
      <trkpt lat="47.17861" lon="8.4634">
        <ele>413</ele>
        <time>2023-02-12T08:29:54Z</time>
      </trkpt>
      <trkpt lat="47.17861" lon="8.4634">
        <ele>413</ele>
        <time>2023-02-12T08:29:55Z</time>
      </trkpt>
      <trkpt lat="47.17861" lon="8.4634">
        <ele>413</ele>
        <time>2023-02-12T08:29:56Z</time>
      </trkpt>
      <trkpt lat="47.17861" lon="8.4634">
        <ele>413</ele>
        <time>2023-02-12T08:29:57Z</time>
      </trkpt>
      <trkpt lat="47.17861" lon="8.4634">
        <ele>413</ele>
        <time>2023-02-12T08:29:58Z</time>
      </trkpt>
      <trkpt lat="47.17861" lon="8.4634">
        <ele>413</ele>
        <time>2023-02-12T08:29:59Z</time>
      </trkpt>
      <trkpt lat="47.17861" lon="8.4634">
        <ele>413</ele>
        <time>2023-02-12T08:30:00Z</time>
      </trkpt>
      <trkpt lat="47.17861" lon="8.4634">
        <ele>413</ele>
        <time>2023-02-12T08:30:01Z</time>
      </trkpt>
      <trkpt lat="47.17861" lon="8.4634">
        <ele>413</ele>
        <time>2023-02-12T08:30:02Z</time>
      </trkpt>
      <trkpt lat="47.17861" lon="8.4634">
        <ele>413</ele>
        <time>2023-02-12T08:30:03Z</time>
      </trkpt>
      <trkpt lat="47.17861" lon="8.4634">
        <ele>413</ele>
        <time>2023-02-12T08:30:04Z</time>
      </trkpt>
      <trkpt lat="47.17861" lon="8.4634">
        <ele>413</ele>
        <time>2023-02-12T08:30:05Z</time>
      </trkpt>
      <trkpt lat="47.17861" lon="8.4634">
        <ele>413</ele>
        <time>2023-02-12T08:30:06Z</time>
      </trkpt>
      <trkpt lat="47.17861" lon="8.4634">
        <ele>413</ele>
        <time>2023-02-12T08:30:07Z</time>
      </trkpt>
      <trkpt lat="47.17861" lon="8.4634">
        <ele>413</ele>
        <time>2023-02-12T08:30:08Z</time>
      </trkpt>
      <trkpt lat="47.17861" lon="8.4634">
        <ele>413</ele>
        <time>2023-02-12T08:30:09Z</time>
      </trkpt>
      <trkpt lat="47.17861" lon="8.4634">
        <ele>413</ele>
        <time>2023-02-12T08:30:10Z</time>
      </trkpt>
      <trkpt lat="47.17861" lon="8.4634">
        <ele>413</ele>
        <time>2023-02-12T08:30:11Z</time>
      </trkpt>
      <trkpt lat="47.17861" lon="8.4634">
        <ele>413</ele>
        <time>2023-02-12T08:30:12Z</time>
      </trkpt>
      <trkpt lat="47.17861" lon="8.4634">
        <ele>413</ele>
        <time>2023-02-12T08:30:13Z</time>
      </trkpt>
      <trkpt lat="47.17861" lon="8.4634">
        <ele>413</ele>
        <time>2023-02-12T08:30:14Z</time>
      </trkpt>
      <trkpt lat="47.17861" lon="8.4634">
        <ele>413</ele>
        <time>2023-02-12T08:30:15Z</time>
      </trkpt>
      <trkpt lat="47.17861" lon="8.4634">
        <ele>413</ele>
        <time>2023-02-12T08:30:16Z</time>
      </trkpt>
      <trkpt lat="47.17861" lon="8.4634">
        <ele>413</ele>
        <time>2023-02-12T08:30:17Z</time>
      </trkpt>
      <trkpt lat="47.17861" lon="8.4634">
        <ele>413</ele>
        <time>2023-02-12T08:30:18Z</time>
      </trkpt>
      <trkpt lat="47.17861" lon="8.4634">
        <ele>413</ele>
        <time>2023-02-12T08:30:19Z</time>
      </trkpt>
      <trkpt lat="47.17861" lon="8.4634">
        <ele>413</ele>
        <time>2023-02-12T08:30:20Z</time>
      </trkpt>
      <trkpt lat="47.17861" lon="8.4634">
        <ele>413</ele>
        <time>2023-02-12T08:30:21Z</time>
      </trkpt>
      <trkpt lat="47.17861" lon="8.4634">
        <ele>413</ele>
        <time>2023-02-12T08:30:22Z</time>
      </trkpt>
      <trkpt lat="47.17861" lon="8.4634">
        <ele>413</ele>
        <time>2023-02-12T08:30:23Z</time>
      </trkpt>
      <trkpt lat="47.17861" lon="8.4634">
        <ele>413</ele>
        <time>2023-02-12T08:30:24Z</time>
      </trkpt>
      <trkpt lat="47.17861" lon="8.4634">
        <ele>413</ele>
        <time>2023-02-12T08:30:25Z</time>
      </trkpt>
      <trkpt lat="47.17861" lon="8.4634">
        <ele>413</ele>
        <time>2023-02-12T08:30:26Z</time>
      </trkpt>
      <trkpt lat="47.17861" lon="8.4634">
        <ele>413</ele>
        <time>2023-02-12T08:30:27Z</time>
      </trkpt>
      <trkpt lat="47.17861" lon="8.4634">
        <ele>413</ele>
        <time>2023-02-12T08:30:28Z</time>
      </trkpt>
      <trkpt lat="47.17861" lon="8.4634">
        <ele>413</ele>
        <time>2023-02-12T08:30:29Z</time>
      </trkpt>
      <trkpt lat="47.17861" lon="8.4634">
        <ele>413</ele>
        <time>2023-02-12T08:30:30Z</time>
      </trkpt>
      <trkpt lat="47.17861" lon="8.4634">
        <ele>413</ele>
        <time>2023-02-12T08:30:31Z</time>
      </trkpt>
      <trkpt lat="47.17861" lon="8.4634">
        <ele>413</ele>
        <time>2023-02-12T08:30:32Z</time>
      </trkpt>
      <trkpt lat="47.17861" lon="8.4634">
        <ele>413</ele>
        <time>2023-02-12T08:30:33Z</time>
      </trkpt>
      <trkpt lat="47.17861" lon="8.4634">
        <ele>413</ele>
        <time>2023-02-12T08:30:34Z</time>
      </trkpt>
      <trkpt lat="47.17861" lon="8.4634">
        <ele>413</ele>
        <time>2023-02-12T08:30:35Z</time>
      </trkpt>
      <trkpt lat="47.17861" lon="8.4634">
        <ele>413</ele>
        <time>2023-02-12T08:30:36Z</time>
      </trkpt>
      <trkpt lat="47.17861" lon="8.4634">
        <ele>413</ele>
        <time>2023-02-12T08:30:37Z</time>
      </trkpt>
      <trkpt lat="47.17861" lon="8.4634">
        <ele>413</ele>
        <time>2023-02-12T08:30:38Z</time>
      </trkpt>
      <trkpt lat="47.17861" lon="8.4634">
        <ele>413</ele>
        <time>2023-02-12T08:30:39Z</time>
      </trkpt>
      <trkpt lat="47.17861" lon="8.4634">
        <ele>413</ele>
        <time>2023-02-12T08:30:40Z</time>
      </trkpt>
      <trkpt lat="47.17861" lon="8.4634">
        <ele>413</ele>
        <time>2023-02-12T08:30:41Z</time>
      </trkpt>
      <trkpt lat="47.17861" lon="8.4634">
        <ele>413</ele>
        <time>2023-02-12T08:30:42Z</time>
      </trkpt>
      <trkpt lat="47.17861" lon="8.4634">
        <ele>413</ele>
        <time>2023-02-12T08:30:43Z</time>
      </trkpt>
      <trkpt lat="47.17861" lon="8.4634">
        <ele>413</ele>
        <time>2023-02-12T08:30:44Z</time>
      </trkpt>
      <trkpt lat="47.17861" lon="8.4634">
        <ele>413</ele>
        <time>2023-02-12T08:30:45Z</time>
      </trkpt>
      <trkpt lat="47.17861" lon="8.4634">
        <ele>413</ele>
        <time>2023-02-12T08:30:46Z</time>
      </trkpt>
      <trkpt lat="47.17861" lon="8.4634">
        <ele>413</ele>
        <time>2023-02-12T08:30:47Z</time>
      </trkpt>
      <trkpt lat="47.17861" lon="8.4634">
        <ele>413</ele>
        <time>2023-02-12T08:30:48Z</time>
      </trkpt>
      <trkpt lat="47.17861" lon="8.4634">
        <ele>413</ele>
        <time>2023-02-12T08:30:49Z</time>
      </trkpt>
      <trkpt lat="47.17861" lon="8.4634">
        <ele>413</ele>
        <time>2023-02-12T08:30:50Z</time>
      </trkpt>
      <trkpt lat="47.17861" lon="8.4634">
        <ele>413</ele>
        <time>2023-02-12T08:30:51Z</time>
      </trkpt>
      <trkpt lat="47.17861" lon="8.4634">
        <ele>413</ele>
        <time>2023-02-12T08:30:52Z</time>
      </trkpt>
      <trkpt lat="47.17861" lon="8.4634">
        <ele>413</ele>
        <time>2023-02-12T08:30:53Z</time>
      </trkpt>
      <trkpt lat="47.17861" lon="8.4634">
        <ele>413</ele>
        <time>2023-02-12T08:30:54Z</time>
      </trkpt>
      <trkpt lat="47.17861" lon="8.4634">
        <ele>413</ele>
        <time>2023-02-12T08:30:55Z</time>
      </trkpt>
      <trkpt lat="47.17861" lon="8.4634">
        <ele>413</ele>
        <time>2023-02-12T08:30:56Z</time>
      </trkpt>
      <trkpt lat="47.17861" lon="8.4634">
        <ele>413</ele>
        <time>2023-02-12T08:30:57Z</time>
      </trkpt>
      <trkpt lat="47.17861" lon="8.4634">
        <ele>413</ele>
        <time>2023-02-12T08:30:58Z</time>
      </trkpt>
      <trkpt lat="47.17861" lon="8.4634">
        <ele>413</ele>
        <time>2023-02-12T08:30:59Z</time>
      </trkpt>
      <trkpt lat="47.17861" lon="8.4634">
        <ele>413</ele>
        <time>2023-02-12T08:31:00Z</time>
      </trkpt>
      <trkpt lat="47.17861" lon="8.4634">
        <ele>413</ele>
        <time>2023-02-12T08:31:01Z</time>
      </trkpt>
      <trkpt lat="47.17861" lon="8.4634">
        <ele>413</ele>
        <time>2023-02-12T08:31:02Z</time>
      </trkpt>
      <trkpt lat="47.17861" lon="8.4634">
        <ele>413</ele>
        <time>2023-02-12T08:31:03Z</time>
      </trkpt>
      <trkpt lat="47.17861" lon="8.4634">
        <ele>413</ele>
        <time>2023-02-12T08:31:04Z</time>
      </trkpt>
      <trkpt lat="47.17861" lon="8.4634">
        <ele>413</ele>
        <time>2023-02-12T08:31:05Z</time>
      </trkpt>
      <trkpt lat="47.17861" lon="8.4634">
        <ele>413</ele>
        <time>2023-02-12T08:31:06Z</time>
      </trkpt>
      <trkpt lat="47.17861" lon="8.4634">
        <ele>413</ele>
        <time>2023-02-12T08:31:07Z</time>
      </trkpt>
      <trkpt lat="47.17861" lon="8.4634">
        <ele>413</ele>
        <time>2023-02-12T08:31:08Z</time>
      </trkpt>
      <trkpt lat="47.17861" lon="8.4634">
        <ele>413</ele>
        <time>2023-02-12T08:31:09Z</time>
      </trkpt>
      <trkpt lat="47.17861" lon="8.4634">
        <ele>413</ele>
        <time>2023-02-12T08:31:10Z</time>
      </trkpt>
      <trkpt lat="47.17861" lon="8.4634">
        <ele>413</ele>
        <time>2023-02-12T08:31:11Z</time>
      </trkpt>
      <trkpt lat="47.17861" lon="8.4634">
        <ele>413</ele>
        <time>2023-02-12T08:31:12Z</time>
      </trkpt>
      <trkpt lat="47.17861" lon="8.4634">
        <ele>413</ele>
        <time>2023-02-12T08:31:13Z</time>
      </trkpt>
      <trkpt lat="47.17861" lon="8.4634">
        <ele>413</ele>
        <time>2023-02-12T08:31:14Z</time>
      </trkpt>
      <trkpt lat="47.17861" lon="8.4634">
        <ele>413</ele>
        <time>2023-02-12T08:31:15Z</time>
      </trkpt>
      <trkpt lat="47.17861" lon="8.4634">
        <ele>413</ele>
        <time>2023-02-12T08:31:16Z</time>
      </trkpt>
      <trkpt lat="47.17861" lon="8.4634">
        <ele>413</ele>
        <time>2023-02-12T08:31:17Z</time>
      </trkpt>
      <trkpt lat="47.17861" lon="8.4634">
        <ele>413</ele>
        <time>2023-02-12T08:31:18Z</time>
      </trkpt>
      <trkpt lat="47.17861" lon="8.4634">
        <ele>413</ele>
        <time>2023-02-12T08:31:19Z</time>
      </trkpt>
      <trkpt lat="47.17861" lon="8.4634">
        <ele>413</ele>
        <time>2023-02-12T08:31:20Z</time>
      </trkpt>
      <trkpt lat="47.17861" lon="8.4634">
        <ele>413</ele>
        <time>2023-02-12T08:31:21Z</time>
      </trkpt>
      <trkpt lat="47.17861" lon="8.4634">
        <ele>413</ele>
        <time>2023-02-12T08:31:22Z</time>
      </trkpt>
      <trkpt lat="47.17861" lon="8.4634">
        <ele>413</ele>
        <time>2023-02-12T08:31:23Z</time>
      </trkpt>
      <trkpt lat="47.17861" lon="8.4634">
        <ele>413</ele>
        <time>2023-02-12T08:31:24Z</time>
      </trkpt>
      <trkpt lat="47.17861" lon="8.4634">
        <ele>413</ele>
        <time>2023-02-12T08:31:25Z</time>
      </trkpt>
      <trkpt lat="47.17861" lon="8.4634">
        <ele>413</ele>
        <time>2023-02-12T08:31:26Z</time>
      </trkpt>
      <trkpt lat="47.17861" lon="8.4634">
        <ele>413</ele>
        <time>2023-02-12T08:31:27Z</time>
      </trkpt>
      <trkpt lat="47.17861" lon="8.4634">
        <ele>413</ele>
        <time>2023-02-12T08:31:28Z</time>
      </trkpt>
      <trkpt lat="47.17861" lon="8.4634">
        <ele>413</ele>
        <time>2023-02-12T08:31:29Z</time>
      </trkpt>
      <trkpt lat="47.17861" lon="8.4634">
        <ele>413</ele>
        <time>2023-02-12T08:31:30Z</time>
      </trkpt>
      <trkpt lat="47.17861" lon="8.4634">
        <ele>413</ele>
        <time>2023-02-12T08:31:31Z</time>
      </trkpt>
      <trkpt lat="47.17861" lon="8.4634">
        <ele>413</ele>
        <time>2023-02-12T08:31:32Z</time>
      </trkpt>
      <trkpt lat="47.17861" lon="8.4634">
        <ele>413</ele>
        <time>2023-02-12T08:31:33Z</time>
      </trkpt>
      <trkpt lat="47.17861" lon="8.4634">
        <ele>413</ele>
        <time>2023-02-12T08:31:34Z</time>
      </trkpt>
      <trkpt lat="47.17861" lon="8.4634">
        <ele>413</ele>
        <time>2023-02-12T08:31:35Z</time>
      </trkpt>
      <trkpt lat="47.17861" lon="8.4634">
        <ele>413</ele>
        <time>2023-02-12T08:31:36Z</time>
      </trkpt>
      <trkpt lat="47.17861" lon="8.4634">
        <ele>413</ele>
        <time>2023-02-12T08:31:37Z</time>
      </trkpt>
      <trkpt lat="47.17861" lon="8.4634">
        <ele>413</ele>
        <time>2023-02-12T08:31:38Z</time>
      </trkpt>
      <trkpt lat="47.17861" lon="8.4634">
        <ele>413</ele>
        <time>2023-02-12T08:31:39Z</time>
      </trkpt>
      <trkpt lat="47.17861" lon="8.4634">
        <ele>413</ele>
        <time>2023-02-12T08:31:40Z</time>
      </trkpt>
      <trkpt lat="47.17861" lon="8.4634">
        <ele>413</ele>
        <time>2023-02-12T08:31:41Z</time>
      </trkpt>
      <trkpt lat="47.17861" lon="8.4634">
        <ele>413</ele>
        <time>2023-02-12T08:31:42Z</time>
      </trkpt>
      <trkpt lat="47.17861" lon="8.4634">
        <ele>413</ele>
        <time>2023-02-12T08:31:43Z</time>
      </trkpt>
      <trkpt lat="47.17861" lon="8.4634">
        <ele>413</ele>
        <time>2023-02-12T08:31:44Z</time>
      </trkpt>
      <trkpt lat="47.17861" lon="8.4634">
        <ele>413</ele>
        <time>2023-02-12T08:31:45Z</time>
      </trkpt>
      <trkpt lat="47.17861" lon="8.4634">
        <ele>413</ele>
        <time>2023-02-12T08:31:46Z</time>
      </trkpt>
      <trkpt lat="47.17861" lon="8.4634">
        <ele>413</ele>
        <time>2023-02-12T08:31:47Z</time>
      </trkpt>
      <trkpt lat="47.17861" lon="8.4634">
        <ele>413</ele>
        <time>2023-02-12T08:31:48Z</time>
      </trkpt>
      <trkpt lat="47.17861" lon="8.4634">
        <ele>413</ele>
        <time>2023-02-12T08:31:49Z</time>
      </trkpt>
      <trkpt lat="47.17861" lon="8.4634">
        <ele>413</ele>
        <time>2023-02-12T08:31:50Z</time>
      </trkpt>
      <trkpt lat="47.17861" lon="8.4634">
        <ele>413</ele>
        <time>2023-02-12T08:31:51Z</time>
      </trkpt>
      <trkpt lat="47.17861" lon="8.4634">
        <ele>413</ele>
        <time>2023-02-12T08:31:52Z</time>
      </trkpt>
      <trkpt lat="47.17861" lon="8.4634">
        <ele>413</ele>
        <time>2023-02-12T08:31:53Z</time>
      </trkpt>
      <trkpt lat="47.17861" lon="8.4634">
        <ele>413</ele>
        <time>2023-02-12T08:31:54Z</time>
      </trkpt>
      <trkpt lat="47.17861" lon="8.4634">
        <ele>413</ele>
        <time>2023-02-12T08:31:55Z</time>
      </trkpt>
      <trkpt lat="47.17861" lon="8.4634">
        <ele>413</ele>
        <time>2023-02-12T08:31:56Z</time>
      </trkpt>
      <trkpt lat="47.17861" lon="8.4634">
        <ele>413</ele>
        <time>2023-02-12T08:31:57Z</time>
      </trkpt>
      <trkpt lat="47.17861" lon="8.4634">
        <ele>413</ele>
        <time>2023-02-12T08:31:58Z</time>
      </trkpt>
      <trkpt lat="47.17861" lon="8.4634">
        <ele>413</ele>
        <time>2023-02-12T08:31:59Z</time>
      </trkpt>
      <trkpt lat="47.17861" lon="8.4634">
        <ele>413</ele>
        <time>2023-02-12T08:32:00Z</time>
      </trkpt>
      <trkpt lat="47.17861" lon="8.4634">
        <ele>413</ele>
        <time>2023-02-12T08:32:01Z</time>
      </trkpt>
      <trkpt lat="47.17861" lon="8.4634">
        <ele>413</ele>
        <time>2023-02-12T08:32:02Z</time>
      </trkpt>
      <trkpt lat="47.17861" lon="8.4634">
        <ele>413</ele>
        <time>2023-02-12T08:32:03Z</time>
      </trkpt>
      <trkpt lat="47.17861" lon="8.4634">
        <ele>413</ele>
        <time>2023-02-12T08:32:04Z</time>
      </trkpt>
      <trkpt lat="47.17861" lon="8.4634">
        <ele>413</ele>
        <time>2023-02-12T08:32:05Z</time>
      </trkpt>
      <trkpt lat="47.17861" lon="8.4634">
        <ele>413</ele>
        <time>2023-02-12T08:32:06Z</time>
      </trkpt>
      <trkpt lat="47.17861" lon="8.4634">
        <ele>413</ele>
        <time>2023-02-12T08:32:07Z</time>
      </trkpt>
      <trkpt lat="47.17861" lon="8.4634">
        <ele>413</ele>
        <time>2023-02-12T08:32:08Z</time>
      </trkpt>
      <trkpt lat="47.17861" lon="8.4634">
        <ele>413</ele>
        <time>2023-02-12T08:32:09Z</time>
      </trkpt>
      <trkpt lat="47.17861" lon="8.4634">
        <ele>413</ele>
        <time>2023-02-12T08:32:10Z</time>
      </trkpt>
      <trkpt lat="47.17861" lon="8.4634">
        <ele>413</ele>
        <time>2023-02-12T08:32:11Z</time>
      </trkpt>
      <trkpt lat="47.17861" lon="8.4634">
        <ele>413</ele>
        <time>2023-02-12T08:32:12Z</time>
      </trkpt>
      <trkpt lat="47.17861" lon="8.4634">
        <ele>413</ele>
        <time>2023-02-12T08:32:13Z</time>
      </trkpt>
      <trkpt lat="47.17861" lon="8.4634">
        <ele>413</ele>
        <time>2023-02-12T08:32:14Z</time>
      </trkpt>
      <trkpt lat="47.17861" lon="8.4634">
        <ele>413</ele>
        <time>2023-02-12T08:32:15Z</time>
      </trkpt>
      <trkpt lat="47.17861" lon="8.4634">
        <ele>413</ele>
        <time>2023-02-12T08:32:16Z</time>
      </trkpt>
      <trkpt lat="47.17861" lon="8.4634">
        <ele>413</ele>
        <time>2023-02-12T08:32:17Z</time>
      </trkpt>
      <trkpt lat="47.17861" lon="8.4634">
        <ele>413</ele>
        <time>2023-02-12T08:32:18Z</time>
      </trkpt>
      <trkpt lat="47.17861" lon="8.4634">
        <ele>413</ele>
        <time>2023-02-12T08:32:19Z</time>
      </trkpt>
      <trkpt lat="47.17861" lon="8.4634">
        <ele>413</ele>
        <time>2023-02-12T08:32:20Z</time>
      </trkpt>
      <trkpt lat="47.17861" lon="8.46341">
        <ele>413</ele>
        <time>2023-02-12T08:32:21Z</time>
      </trkpt>
      <trkpt lat="47.17862" lon="8.46342">
        <ele>413</ele>
        <time>2023-02-12T08:32:22Z</time>
      </trkpt>
      <trkpt lat="47.17862" lon="8.46342">
        <ele>413</ele>
        <time>2023-02-12T08:32:23Z</time>
      </trkpt>
      <trkpt lat="47.17862" lon="8.46342">
        <ele>413</ele>
        <time>2023-02-12T08:32:24Z</time>
      </trkpt>
      <trkpt lat="47.17862" lon="8.46342">
        <ele>413</ele>
        <time>2023-02-12T08:32:25Z</time>
      </trkpt>
      <trkpt lat="47.17862" lon="8.46342">
        <ele>413</ele>
        <time>2023-02-12T08:32:26Z</time>
      </trkpt>
      <trkpt lat="47.17862" lon="8.46342">
        <ele>413</ele>
        <time>2023-02-12T08:32:27Z</time>
      </trkpt>
      <trkpt lat="47.17862" lon="8.46342">
        <ele>413</ele>
        <time>2023-02-12T08:32:28Z</time>
      </trkpt>
      <trkpt lat="47.17862" lon="8.46342">
        <ele>413</ele>
        <time>2023-02-12T08:32:29Z</time>
      </trkpt>
      <trkpt lat="47.17862" lon="8.46342">
        <ele>413</ele>
        <time>2023-02-12T08:32:30Z</time>
      </trkpt>
      <trkpt lat="47.17862" lon="8.46342">
        <ele>413</ele>
        <time>2023-02-12T08:32:31Z</time>
      </trkpt>
      <trkpt lat="47.17862" lon="8.46342">
        <ele>413</ele>
        <time>2023-02-12T08:32:32Z</time>
      </trkpt>
      <trkpt lat="47.17863" lon="8.46344">
        <ele>413</ele>
        <time>2023-02-12T08:32:33Z</time>
      </trkpt>
      <trkpt lat="47.17863" lon="8.46346">
        <ele>413</ele>
        <time>2023-02-12T08:32:34Z</time>
      </trkpt>
      <trkpt lat="47.17864" lon="8.46349">
        <ele>412.8</ele>
        <time>2023-02-12T08:32:35Z</time>
      </trkpt>
      <trkpt lat="47.17865" lon="8.46352">
        <ele>412.8</ele>
        <time>2023-02-12T08:32:36Z</time>
      </trkpt>
      <trkpt lat="47.17866" lon="8.46352">
        <ele>412.8</ele>
        <time>2023-02-12T08:32:37Z</time>
      </trkpt>
      <trkpt lat="47.17868" lon="8.4635">
        <ele>412.8</ele>
        <time>2023-02-12T08:32:38Z</time>
      </trkpt>
      <trkpt lat="47.17869" lon="8.46348">
        <ele>412.8</ele>
        <time>2023-02-12T08:32:39Z</time>
      </trkpt>
      <trkpt lat="47.17871" lon="8.46344">
        <ele>412.8</ele>
        <time>2023-02-12T08:32:40Z</time>
      </trkpt>
      <trkpt lat="47.17873" lon="8.46341">
        <ele>412.8</ele>
        <time>2023-02-12T08:32:41Z</time>
      </trkpt>
      <trkpt lat="47.17876" lon="8.46339">
        <ele>412.8</ele>
        <time>2023-02-12T08:32:42Z</time>
      </trkpt>
      <trkpt lat="47.17878" lon="8.46337">
        <ele>412.8</ele>
        <time>2023-02-12T08:32:43Z</time>
      </trkpt>
      <trkpt lat="47.17881" lon="8.46335">
        <ele>412.8</ele>
        <time>2023-02-12T08:32:44Z</time>
      </trkpt>
      <trkpt lat="47.17883" lon="8.46333">
        <ele>412.8</ele>
        <time>2023-02-12T08:32:45Z</time>
      </trkpt>
      <trkpt lat="47.17886" lon="8.46331">
        <ele>412.8</ele>
        <time>2023-02-12T08:32:46Z</time>
      </trkpt>
      <trkpt lat="47.17888" lon="8.46329">
        <ele>412.8</ele>
        <time>2023-02-12T08:32:47Z</time>
      </trkpt>
      <trkpt lat="47.17891" lon="8.46327">
        <ele>412.8</ele>
        <time>2023-02-12T08:32:48Z</time>
      </trkpt>
      <trkpt lat="47.17893" lon="8.46326">
        <ele>412.8</ele>
        <time>2023-02-12T08:32:49Z</time>
      </trkpt>
      <trkpt lat="47.17896" lon="8.46324">
        <ele>412.6</ele>
        <time>2023-02-12T08:32:50Z</time>
      </trkpt>
      <trkpt lat="47.17899" lon="8.46322">
        <ele>412.6</ele>
        <time>2023-02-12T08:32:51Z</time>
      </trkpt>
      <trkpt lat="47.17901" lon="8.46321">
        <ele>412.6</ele>
        <time>2023-02-12T08:32:52Z</time>
      </trkpt>
      <trkpt lat="47.17903" lon="8.46319">
        <ele>412.6</ele>
        <time>2023-02-12T08:32:53Z</time>
      </trkpt>
      <trkpt lat="47.17905" lon="8.46317">
        <ele>412.6</ele>
        <time>2023-02-12T08:32:54Z</time>
      </trkpt>
      <trkpt lat="47.17908" lon="8.46315">
        <ele>412.6</ele>
        <time>2023-02-12T08:32:55Z</time>
      </trkpt>
      <trkpt lat="47.1791" lon="8.46314">
        <ele>412.8</ele>
        <time>2023-02-12T08:32:56Z</time>
      </trkpt>
      <trkpt lat="47.17913" lon="8.46313">
        <ele>412.8</ele>
        <time>2023-02-12T08:32:57Z</time>
      </trkpt>
      <trkpt lat="47.17916" lon="8.4631">
        <ele>412.8</ele>
        <time>2023-02-12T08:32:58Z</time>
      </trkpt>
      <trkpt lat="47.17918" lon="8.46308">
        <ele>412.8</ele>
        <time>2023-02-12T08:32:59Z</time>
      </trkpt>
      <trkpt lat="47.17921" lon="8.46306">
        <ele>412.8</ele>
        <time>2023-02-12T08:33:00Z</time>
      </trkpt>
      <trkpt lat="47.17924" lon="8.46303">
        <ele>412.8</ele>
        <time>2023-02-12T08:33:01Z</time>
      </trkpt>
      <trkpt lat="47.17927" lon="8.46301">
        <ele>412.8</ele>
        <time>2023-02-12T08:33:02Z</time>
      </trkpt>
      <trkpt lat="47.1793" lon="8.46299">
        <ele>412.8</ele>
        <time>2023-02-12T08:33:03Z</time>
      </trkpt>
      <trkpt lat="47.17933" lon="8.46297">
        <ele>412.8</ele>
        <time>2023-02-12T08:33:04Z</time>
      </trkpt>
      <trkpt lat="47.17936" lon="8.46295">
        <ele>412.8</ele>
        <time>2023-02-12T08:33:05Z</time>
      </trkpt>
      <trkpt lat="47.17939" lon="8.46292">
        <ele>412.8</ele>
        <time>2023-02-12T08:33:06Z</time>
      </trkpt>
      <trkpt lat="47.17941" lon="8.46289">
        <ele>412.8</ele>
        <time>2023-02-12T08:33:07Z</time>
      </trkpt>
      <trkpt lat="47.17944" lon="8.46285">
        <ele>412.8</ele>
        <time>2023-02-12T08:33:08Z</time>
      </trkpt>
      <trkpt lat="47.17947" lon="8.46281">
        <ele>413</ele>
        <time>2023-02-12T08:33:09Z</time>
      </trkpt>
      <trkpt lat="47.17949" lon="8.46277">
        <ele>413</ele>
        <time>2023-02-12T08:33:10Z</time>
      </trkpt>
      <trkpt lat="47.1795" lon="8.46272">
        <ele>413</ele>
        <time>2023-02-12T08:33:11Z</time>
      </trkpt>
      <trkpt lat="47.17949" lon="8.46267">
        <ele>413</ele>
        <time>2023-02-12T08:33:12Z</time>
      </trkpt>
      <trkpt lat="47.17949" lon="8.46262">
        <ele>413</ele>
        <time>2023-02-12T08:33:13Z</time>
      </trkpt>
      <trkpt lat="47.17948" lon="8.46256">
        <ele>413</ele>
        <time>2023-02-12T08:33:14Z</time>
      </trkpt>
      <trkpt lat="47.17947" lon="8.46251">
        <ele>413</ele>
        <time>2023-02-12T08:33:15Z</time>
      </trkpt>
      <trkpt lat="47.17946" lon="8.46246">
        <ele>413.2</ele>
        <time>2023-02-12T08:33:16Z</time>
      </trkpt>
      <trkpt lat="47.17944" lon="8.46241">
        <ele>413.2</ele>
        <time>2023-02-12T08:33:17Z</time>
      </trkpt>
      <trkpt lat="47.17943" lon="8.46235">
        <ele>413.4</ele>
        <time>2023-02-12T08:33:18Z</time>
      </trkpt>
      <trkpt lat="47.17942" lon="8.46229">
        <ele>413.8</ele>
        <time>2023-02-12T08:33:19Z</time>
      </trkpt>
      <trkpt lat="47.1794" lon="8.46224">
        <ele>413.8</ele>
        <time>2023-02-12T08:33:20Z</time>
      </trkpt>
      <trkpt lat="47.17939" lon="8.46218">
        <ele>414</ele>
        <time>2023-02-12T08:33:21Z</time>
      </trkpt>
      <trkpt lat="47.17938" lon="8.46212">
        <ele>414.4</ele>
        <time>2023-02-12T08:33:22Z</time>
      </trkpt>
      <trkpt lat="47.17936" lon="8.46207">
        <ele>414.6</ele>
        <time>2023-02-12T08:33:23Z</time>
      </trkpt>
      <trkpt lat="47.17934" lon="8.46202">
        <ele>414.8</ele>
        <time>2023-02-12T08:33:24Z</time>
      </trkpt>
      <trkpt lat="47.17932" lon="8.46196">
        <ele>415.2</ele>
        <time>2023-02-12T08:33:25Z</time>
      </trkpt>
      <trkpt lat="47.17931" lon="8.4619">
        <ele>415.2</ele>
        <time>2023-02-12T08:33:26Z</time>
      </trkpt>
      <trkpt lat="47.17929" lon="8.46184">
        <ele>415.4</ele>
        <time>2023-02-12T08:33:27Z</time>
      </trkpt>
      <trkpt lat="47.17927" lon="8.46178">
        <ele>415.4</ele>
        <time>2023-02-12T08:33:28Z</time>
      </trkpt>
      <trkpt lat="47.17926" lon="8.46172">
        <ele>415.6</ele>
        <time>2023-02-12T08:33:29Z</time>
      </trkpt>
      <trkpt lat="47.17924" lon="8.46165">
        <ele>415.6</ele>
        <time>2023-02-12T08:33:30Z</time>
      </trkpt>
      <trkpt lat="47.17922" lon="8.46158">
        <ele>415.6</ele>
        <time>2023-02-12T08:33:31Z</time>
      </trkpt>
      <trkpt lat="47.1792" lon="8.46152">
        <ele>415.6</ele>
        <time>2023-02-12T08:33:32Z</time>
      </trkpt>
      <trkpt lat="47.17918" lon="8.46146">
        <ele>415.6</ele>
        <time>2023-02-12T08:33:33Z</time>
      </trkpt>
      <trkpt lat="47.17916" lon="8.4614">
        <ele>415.8</ele>
        <time>2023-02-12T08:33:34Z</time>
      </trkpt>
      <trkpt lat="47.17913" lon="8.46133">
        <ele>415.6</ele>
        <time>2023-02-12T08:33:35Z</time>
      </trkpt>
      <trkpt lat="47.1791" lon="8.46125">
        <ele>415.6</ele>
        <time>2023-02-12T08:33:36Z</time>
      </trkpt>
      <trkpt lat="47.17908" lon="8.46118">
        <ele>415.6</ele>
        <time>2023-02-12T08:33:37Z</time>
      </trkpt>
      <trkpt lat="47.17905" lon="8.46111">
        <ele>415.6</ele>
        <time>2023-02-12T08:33:38Z</time>
      </trkpt>
      <trkpt lat="47.17902" lon="8.46103">
        <ele>415.6</ele>
        <time>2023-02-12T08:33:39Z</time>
      </trkpt>
      <trkpt lat="47.17899" lon="8.46096">
        <ele>415.6</ele>
        <time>2023-02-12T08:33:40Z</time>
      </trkpt>
      <trkpt lat="47.17896" lon="8.4609">
        <ele>415.6</ele>
        <time>2023-02-12T08:33:41Z</time>
      </trkpt>
      <trkpt lat="47.17893" lon="8.46084">
        <ele>415.4</ele>
        <time>2023-02-12T08:33:42Z</time>
      </trkpt>
      <trkpt lat="47.1789" lon="8.4608">
        <ele>415.4</ele>
        <time>2023-02-12T08:33:43Z</time>
      </trkpt>
      <trkpt lat="47.17888" lon="8.46077">
        <ele>415.4</ele>
        <time>2023-02-12T08:33:44Z</time>
      </trkpt>
      <trkpt lat="47.17886" lon="8.46073">
        <ele>415.4</ele>
        <time>2023-02-12T08:33:45Z</time>
      </trkpt>
      <trkpt lat="47.17884" lon="8.46069">
        <ele>415.4</ele>
        <time>2023-02-12T08:33:46Z</time>
      </trkpt>
      <trkpt lat="47.17884" lon="8.46065">
        <ele>415.4</ele>
        <time>2023-02-12T08:33:47Z</time>
      </trkpt>
      <trkpt lat="47.17884" lon="8.4606">
        <ele>415.4</ele>
        <time>2023-02-12T08:33:48Z</time>
      </trkpt>
      <trkpt lat="47.17886" lon="8.46056">
        <ele>415.6</ele>
        <time>2023-02-12T08:33:49Z</time>
      </trkpt>
      <trkpt lat="47.17888" lon="8.46052">
        <ele>415.8</ele>
        <time>2023-02-12T08:33:50Z</time>
      </trkpt>
      <trkpt lat="47.17888" lon="8.46046">
        <ele>416.2</ele>
        <time>2023-02-12T08:33:51Z</time>
      </trkpt>
      <trkpt lat="47.17887" lon="8.46041">
        <ele>416.4</ele>
        <time>2023-02-12T08:33:52Z</time>
      </trkpt>
      <trkpt lat="47.17886" lon="8.46037">
        <ele>416.6</ele>
        <time>2023-02-12T08:33:53Z</time>
      </trkpt>
      <trkpt lat="47.17884" lon="8.46031">
        <ele>416.8</ele>
        <time>2023-02-12T08:33:54Z</time>
      </trkpt>
      <trkpt lat="47.17882" lon="8.46024">
        <ele>417</ele>
        <time>2023-02-12T08:33:55Z</time>
      </trkpt>
      <trkpt lat="47.1788" lon="8.46018">
        <ele>417</ele>
        <time>2023-02-12T08:33:56Z</time>
      </trkpt>
      <trkpt lat="47.17879" lon="8.46012">
        <ele>417.2</ele>
        <time>2023-02-12T08:33:57Z</time>
      </trkpt>
      <trkpt lat="47.17877" lon="8.46005">
        <ele>417.2</ele>
        <time>2023-02-12T08:33:58Z</time>
      </trkpt>
      <trkpt lat="47.17875" lon="8.45999">
        <ele>417.4</ele>
        <time>2023-02-12T08:33:59Z</time>
      </trkpt>
      <trkpt lat="47.17873" lon="8.45993">
        <ele>417.4</ele>
        <time>2023-02-12T08:34:00Z</time>
      </trkpt>
      <trkpt lat="47.17871" lon="8.45986">
        <ele>417.4</ele>
        <time>2023-02-12T08:34:01Z</time>
      </trkpt>
      <trkpt lat="47.17869" lon="8.4598">
        <ele>417.4</ele>
        <time>2023-02-12T08:34:02Z</time>
      </trkpt>
      <trkpt lat="47.17867" lon="8.45973">
        <ele>417.4</ele>
        <time>2023-02-12T08:34:03Z</time>
      </trkpt>
      <trkpt lat="47.17865" lon="8.45967">
        <ele>417.4</ele>
        <time>2023-02-12T08:34:04Z</time>
      </trkpt>
      <trkpt lat="47.17863" lon="8.45961">
        <ele>417.4</ele>
        <time>2023-02-12T08:34:05Z</time>
      </trkpt>
      <trkpt lat="47.1786" lon="8.45954">
        <ele>417.4</ele>
        <time>2023-02-12T08:34:06Z</time>
      </trkpt>
      <trkpt lat="47.17858" lon="8.45948">
        <ele>417.2</ele>
        <time>2023-02-12T08:34:07Z</time>
      </trkpt>
      <trkpt lat="47.17856" lon="8.45942">
        <ele>417.2</ele>
        <time>2023-02-12T08:34:08Z</time>
      </trkpt>
      <trkpt lat="47.17854" lon="8.45936">
        <ele>417.2</ele>
        <time>2023-02-12T08:34:09Z</time>
      </trkpt>
      <trkpt lat="47.17851" lon="8.45929">
        <ele>417</ele>
        <time>2023-02-12T08:34:10Z</time>
      </trkpt>
      <trkpt lat="47.17849" lon="8.45921">
        <ele>417</ele>
        <time>2023-02-12T08:34:11Z</time>
      </trkpt>
      <trkpt lat="47.17846" lon="8.45913">
        <ele>417</ele>
        <time>2023-02-12T08:34:12Z</time>
      </trkpt>
      <trkpt lat="47.17842" lon="8.45906">
        <ele>416.8</ele>
        <time>2023-02-12T08:34:13Z</time>
      </trkpt>
      <trkpt lat="47.1784" lon="8.45898">
        <ele>416.6</ele>
        <time>2023-02-12T08:34:14Z</time>
      </trkpt>
      <trkpt lat="47.17836" lon="8.4589">
        <ele>416.6</ele>
        <time>2023-02-12T08:34:15Z</time>
      </trkpt>
      <trkpt lat="47.17834" lon="8.45883">
        <ele>416.6</ele>
        <time>2023-02-12T08:34:16Z</time>
      </trkpt>
      <trkpt lat="47.17831" lon="8.45875">
        <ele>416.4</ele>
        <time>2023-02-12T08:34:17Z</time>
      </trkpt>
      <trkpt lat="47.17828" lon="8.45867">
        <ele>416.4</ele>
        <time>2023-02-12T08:34:18Z</time>
      </trkpt>
      <trkpt lat="47.17826" lon="8.45859">
        <ele>416.2</ele>
        <time>2023-02-12T08:34:19Z</time>
      </trkpt>
      <trkpt lat="47.17824" lon="8.45851">
        <ele>416</ele>
        <time>2023-02-12T08:34:20Z</time>
      </trkpt>
      <trkpt lat="47.17822" lon="8.45843">
        <ele>416</ele>
        <time>2023-02-12T08:34:21Z</time>
      </trkpt>
      <trkpt lat="47.17821" lon="8.45834">
        <ele>416</ele>
        <time>2023-02-12T08:34:22Z</time>
      </trkpt>
      <trkpt lat="47.17819" lon="8.45827">
        <ele>416</ele>
        <time>2023-02-12T08:34:23Z</time>
      </trkpt>
      <trkpt lat="47.17818" lon="8.4582">
        <ele>416</ele>
        <time>2023-02-12T08:34:24Z</time>
      </trkpt>
      <trkpt lat="47.17816" lon="8.45814">
        <ele>416</ele>
        <time>2023-02-12T08:34:25Z</time>
      </trkpt>
      <trkpt lat="47.17814" lon="8.45808">
        <ele>416</ele>
        <time>2023-02-12T08:34:26Z</time>
      </trkpt>
      <trkpt lat="47.17812" lon="8.45802">
        <ele>416.2</ele>
        <time>2023-02-12T08:34:27Z</time>
      </trkpt>
      <trkpt lat="47.17811" lon="8.45797">
        <ele>416.6</ele>
        <time>2023-02-12T08:34:28Z</time>
      </trkpt>
      <trkpt lat="47.17809" lon="8.45791">
        <ele>417</ele>
        <time>2023-02-12T08:34:29Z</time>
      </trkpt>
      <trkpt lat="47.17807" lon="8.45785">
        <ele>417.2</ele>
        <time>2023-02-12T08:34:30Z</time>
      </trkpt>
      <trkpt lat="47.17805" lon="8.45778">
        <ele>417.6</ele>
        <time>2023-02-12T08:34:31Z</time>
      </trkpt>
      <trkpt lat="47.17803" lon="8.45771">
        <ele>417.6</ele>
        <time>2023-02-12T08:34:32Z</time>
      </trkpt>
      <trkpt lat="47.178" lon="8.45763">
        <ele>417.8</ele>
        <time>2023-02-12T08:34:33Z</time>
      </trkpt>
      <trkpt lat="47.17797" lon="8.45756">
        <ele>417.8</ele>
        <time>2023-02-12T08:34:34Z</time>
      </trkpt>
      <trkpt lat="47.17794" lon="8.45749">
        <ele>417.4</ele>
        <time>2023-02-12T08:34:35Z</time>
      </trkpt>
      <trkpt lat="47.17792" lon="8.45741">
        <ele>417.2</ele>
        <time>2023-02-12T08:34:36Z</time>
      </trkpt>
      <trkpt lat="47.17789" lon="8.45733">
        <ele>417</ele>
        <time>2023-02-12T08:34:37Z</time>
      </trkpt>
      <trkpt lat="47.17787" lon="8.45725">
        <ele>417</ele>
        <time>2023-02-12T08:34:38Z</time>
      </trkpt>
      <trkpt lat="47.17784" lon="8.45717">
        <ele>416.6</ele>
        <time>2023-02-12T08:34:39Z</time>
      </trkpt>
      <trkpt lat="47.17781" lon="8.45709">
        <ele>416.4</ele>
        <time>2023-02-12T08:34:40Z</time>
      </trkpt>
      <trkpt lat="47.17778" lon="8.45702">
        <ele>416.4</ele>
        <time>2023-02-12T08:34:41Z</time>
      </trkpt>
      <trkpt lat="47.17776" lon="8.45694">
        <ele>416.2</ele>
        <time>2023-02-12T08:34:42Z</time>
      </trkpt>
      <trkpt lat="47.17774" lon="8.45687">
        <ele>416</ele>
        <time>2023-02-12T08:34:43Z</time>
      </trkpt>
      <trkpt lat="47.17772" lon="8.45679">
        <ele>416</ele>
        <time>2023-02-12T08:34:44Z</time>
      </trkpt>
      <trkpt lat="47.1777" lon="8.45672">
        <ele>416</ele>
        <time>2023-02-12T08:34:45Z</time>
      </trkpt>
      <trkpt lat="47.17767" lon="8.45665">
        <ele>416</ele>
        <time>2023-02-12T08:34:46Z</time>
      </trkpt>
      <trkpt lat="47.17766" lon="8.45658">
        <ele>416</ele>
        <time>2023-02-12T08:34:47Z</time>
      </trkpt>
      <trkpt lat="47.17764" lon="8.45651">
        <ele>416</ele>
        <time>2023-02-12T08:34:48Z</time>
      </trkpt>
      <trkpt lat="47.17762" lon="8.45644">
        <ele>416</ele>
        <time>2023-02-12T08:34:49Z</time>
      </trkpt>
      <trkpt lat="47.1776" lon="8.45637">
        <ele>416</ele>
        <time>2023-02-12T08:34:50Z</time>
      </trkpt>
      <trkpt lat="47.17758" lon="8.45631">
        <ele>416</ele>
        <time>2023-02-12T08:34:51Z</time>
      </trkpt>
      <trkpt lat="47.17756" lon="8.45624">
        <ele>416</ele>
        <time>2023-02-12T08:34:52Z</time>
      </trkpt>
      <trkpt lat="47.17754" lon="8.45617">
        <ele>416.2</ele>
        <time>2023-02-12T08:34:53Z</time>
      </trkpt>
      <trkpt lat="47.17752" lon="8.45611">
        <ele>416.2</ele>
        <time>2023-02-12T08:34:54Z</time>
      </trkpt>
      <trkpt lat="47.1775" lon="8.45605">
        <ele>416.4</ele>
        <time>2023-02-12T08:34:55Z</time>
      </trkpt>
      <trkpt lat="47.17748" lon="8.45599">
        <ele>416.6</ele>
        <time>2023-02-12T08:34:56Z</time>
      </trkpt>
      <trkpt lat="47.17746" lon="8.45593">
        <ele>416.6</ele>
        <time>2023-02-12T08:34:57Z</time>
      </trkpt>
      <trkpt lat="47.17745" lon="8.45588">
        <ele>416.8</ele>
        <time>2023-02-12T08:34:58Z</time>
      </trkpt>
      <trkpt lat="47.17743" lon="8.45581">
        <ele>416.8</ele>
        <time>2023-02-12T08:34:59Z</time>
      </trkpt>
      <trkpt lat="47.17741" lon="8.45575">
        <ele>417</ele>
        <time>2023-02-12T08:35:00Z</time>
      </trkpt>
      <trkpt lat="47.17739" lon="8.45569">
        <ele>417</ele>
        <time>2023-02-12T08:35:01Z</time>
      </trkpt>
      <trkpt lat="47.17737" lon="8.45563">
        <ele>417</ele>
        <time>2023-02-12T08:35:02Z</time>
      </trkpt>
      <trkpt lat="47.17736" lon="8.45557">
        <ele>417</ele>
        <time>2023-02-12T08:35:03Z</time>
      </trkpt>
      <trkpt lat="47.17734" lon="8.45551">
        <ele>417</ele>
        <time>2023-02-12T08:35:04Z</time>
      </trkpt>
      <trkpt lat="47.17732" lon="8.45545">
        <ele>417.2</ele>
        <time>2023-02-12T08:35:05Z</time>
      </trkpt>
      <trkpt lat="47.17731" lon="8.45539">
        <ele>417.2</ele>
        <time>2023-02-12T08:35:06Z</time>
      </trkpt>
      <trkpt lat="47.17729" lon="8.45533">
        <ele>417.2</ele>
        <time>2023-02-12T08:35:07Z</time>
      </trkpt>
      <trkpt lat="47.17727" lon="8.45527">
        <ele>417.4</ele>
        <time>2023-02-12T08:35:08Z</time>
      </trkpt>
      <trkpt lat="47.17726" lon="8.45521">
        <ele>417.4</ele>
        <time>2023-02-12T08:35:09Z</time>
      </trkpt>
      <trkpt lat="47.17724" lon="8.45515">
        <ele>417.4</ele>
        <time>2023-02-12T08:35:10Z</time>
      </trkpt>
      <trkpt lat="47.17722" lon="8.45509">
        <ele>417.4</ele>
        <time>2023-02-12T08:35:11Z</time>
      </trkpt>
      <trkpt lat="47.1772" lon="8.45503">
        <ele>417.4</ele>
        <time>2023-02-12T08:35:12Z</time>
      </trkpt>
      <trkpt lat="47.17718" lon="8.45497">
        <ele>417.4</ele>
        <time>2023-02-12T08:35:13Z</time>
      </trkpt>
      <trkpt lat="47.17716" lon="8.4549">
        <ele>417.6</ele>
        <time>2023-02-12T08:35:14Z</time>
      </trkpt>
      <trkpt lat="47.17714" lon="8.45484">
        <ele>417.6</ele>
        <time>2023-02-12T08:35:15Z</time>
      </trkpt>
      <trkpt lat="47.17711" lon="8.45479">
        <ele>417.6</ele>
        <time>2023-02-12T08:35:16Z</time>
      </trkpt>
      <trkpt lat="47.17708" lon="8.45473">
        <ele>417.6</ele>
        <time>2023-02-12T08:35:17Z</time>
      </trkpt>
      <trkpt lat="47.17706" lon="8.45467">
        <ele>417.6</ele>
        <time>2023-02-12T08:35:18Z</time>
      </trkpt>
      <trkpt lat="47.17703" lon="8.45461">
        <ele>417.6</ele>
        <time>2023-02-12T08:35:19Z</time>
      </trkpt>
      <trkpt lat="47.17701" lon="8.45454">
        <ele>417.6</ele>
        <time>2023-02-12T08:35:20Z</time>
      </trkpt>
      <trkpt lat="47.17698" lon="8.45448">
        <ele>417.6</ele>
        <time>2023-02-12T08:35:21Z</time>
      </trkpt>
      <trkpt lat="47.17696" lon="8.45442">
        <ele>417.6</ele>
        <time>2023-02-12T08:35:22Z</time>
      </trkpt>
      <trkpt lat="47.17694" lon="8.45435">
        <ele>417.6</ele>
        <time>2023-02-12T08:35:23Z</time>
      </trkpt>
      <trkpt lat="47.17691" lon="8.45429">
        <ele>417.6</ele>
        <time>2023-02-12T08:35:24Z</time>
      </trkpt>
      <trkpt lat="47.17689" lon="8.45423">
        <ele>417.6</ele>
        <time>2023-02-12T08:35:25Z</time>
      </trkpt>
      <trkpt lat="47.17686" lon="8.45417">
        <ele>417.6</ele>
        <time>2023-02-12T08:35:26Z</time>
      </trkpt>
      <trkpt lat="47.17683" lon="8.45409">
        <ele>417.8</ele>
        <time>2023-02-12T08:35:27Z</time>
      </trkpt>
      <trkpt lat="47.1768" lon="8.45402">
        <ele>417.8</ele>
        <time>2023-02-12T08:35:28Z</time>
      </trkpt>
      <trkpt lat="47.17676" lon="8.45395">
        <ele>417.6</ele>
        <time>2023-02-12T08:35:29Z</time>
      </trkpt>
      <trkpt lat="47.17672" lon="8.45388">
        <ele>417.6</ele>
        <time>2023-02-12T08:35:30Z</time>
      </trkpt>
      <trkpt lat="47.17669" lon="8.45382">
        <ele>417.6</ele>
        <time>2023-02-12T08:35:31Z</time>
      </trkpt>
      <trkpt lat="47.17666" lon="8.45375">
        <ele>417.6</ele>
        <time>2023-02-12T08:35:32Z</time>
      </trkpt>
      <trkpt lat="47.17663" lon="8.45369">
        <ele>417.6</ele>
        <time>2023-02-12T08:35:33Z</time>
      </trkpt>
      <trkpt lat="47.1766" lon="8.45364">
        <ele>417.6</ele>
        <time>2023-02-12T08:35:34Z</time>
      </trkpt>
      <trkpt lat="47.17657" lon="8.45358">
        <ele>417.6</ele>
        <time>2023-02-12T08:35:35Z</time>
      </trkpt>
      <trkpt lat="47.17654" lon="8.45352">
        <ele>417.6</ele>
        <time>2023-02-12T08:35:36Z</time>
      </trkpt>
      <trkpt lat="47.17651" lon="8.45346">
        <ele>417.6</ele>
        <time>2023-02-12T08:35:37Z</time>
      </trkpt>
      <trkpt lat="47.17648" lon="8.45341">
        <ele>417.6</ele>
        <time>2023-02-12T08:35:38Z</time>
      </trkpt>
      <trkpt lat="47.17645" lon="8.45335">
        <ele>417.6</ele>
        <time>2023-02-12T08:35:39Z</time>
      </trkpt>
      <trkpt lat="47.17642" lon="8.45329">
        <ele>417.6</ele>
        <time>2023-02-12T08:35:40Z</time>
      </trkpt>
      <trkpt lat="47.17639" lon="8.45323">
        <ele>417.8</ele>
        <time>2023-02-12T08:35:41Z</time>
      </trkpt>
      <trkpt lat="47.17636" lon="8.45317">
        <ele>417.8</ele>
        <time>2023-02-12T08:35:42Z</time>
      </trkpt>
      <trkpt lat="47.17633" lon="8.45312">
        <ele>417.8</ele>
        <time>2023-02-12T08:35:43Z</time>
      </trkpt>
      <trkpt lat="47.17629" lon="8.45307">
        <ele>417.8</ele>
        <time>2023-02-12T08:35:44Z</time>
      </trkpt>
      <trkpt lat="47.17626" lon="8.45301">
        <ele>417.8</ele>
        <time>2023-02-12T08:35:45Z</time>
      </trkpt>
      <trkpt lat="47.17623" lon="8.45296">
        <ele>417.8</ele>
        <time>2023-02-12T08:35:46Z</time>
      </trkpt>
      <trkpt lat="47.17619" lon="8.45291">
        <ele>417.8</ele>
        <time>2023-02-12T08:35:47Z</time>
      </trkpt>
      <trkpt lat="47.17616" lon="8.45285">
        <ele>417.8</ele>
        <time>2023-02-12T08:35:48Z</time>
      </trkpt>
      <trkpt lat="47.17613" lon="8.4528">
        <ele>417.8</ele>
        <time>2023-02-12T08:35:49Z</time>
      </trkpt>
      <trkpt lat="47.1761" lon="8.45275">
        <ele>417.8</ele>
        <time>2023-02-12T08:35:50Z</time>
      </trkpt>
      <trkpt lat="47.17606" lon="8.4527">
        <ele>417.6</ele>
        <time>2023-02-12T08:35:51Z</time>
      </trkpt>
      <trkpt lat="47.17603" lon="8.45264">
        <ele>417.6</ele>
        <time>2023-02-12T08:35:52Z</time>
      </trkpt>
      <trkpt lat="47.176" lon="8.45259">
        <ele>417.6</ele>
        <time>2023-02-12T08:35:53Z</time>
      </trkpt>
      <trkpt lat="47.17596" lon="8.45254">
        <ele>417.6</ele>
        <time>2023-02-12T08:35:54Z</time>
      </trkpt>
      <trkpt lat="47.17592" lon="8.45248">
        <ele>417.6</ele>
        <time>2023-02-12T08:35:55Z</time>
      </trkpt>
      <trkpt lat="47.17589" lon="8.45243">
        <ele>417.4</ele>
        <time>2023-02-12T08:35:56Z</time>
      </trkpt>
      <trkpt lat="47.17585" lon="8.45238">
        <ele>417.4</ele>
        <time>2023-02-12T08:35:57Z</time>
      </trkpt>
      <trkpt lat="47.17581" lon="8.45234">
        <ele>417.2</ele>
        <time>2023-02-12T08:35:58Z</time>
      </trkpt>
      <trkpt lat="47.17578" lon="8.45229">
        <ele>417.2</ele>
        <time>2023-02-12T08:35:59Z</time>
      </trkpt>
      <trkpt lat="47.17574" lon="8.45224">
        <ele>417.2</ele>
        <time>2023-02-12T08:36:00Z</time>
      </trkpt>
      <trkpt lat="47.17571" lon="8.45219">
        <ele>417.2</ele>
        <time>2023-02-12T08:36:01Z</time>
      </trkpt>
      <trkpt lat="47.17568" lon="8.45214">
        <ele>417.2</ele>
        <time>2023-02-12T08:36:02Z</time>
      </trkpt>
      <trkpt lat="47.17564" lon="8.45209">
        <ele>417.2</ele>
        <time>2023-02-12T08:36:03Z</time>
      </trkpt>
      <trkpt lat="47.17561" lon="8.45205">
        <ele>417.2</ele>
        <time>2023-02-12T08:36:04Z</time>
      </trkpt>
      <trkpt lat="47.17558" lon="8.452">
        <ele>417.2</ele>
        <time>2023-02-12T08:36:05Z</time>
      </trkpt>
      <trkpt lat="47.17554" lon="8.45194">
        <ele>417.2</ele>
        <time>2023-02-12T08:36:06Z</time>
      </trkpt>
      <trkpt lat="47.1755" lon="8.45189">
        <ele>417.4</ele>
        <time>2023-02-12T08:36:07Z</time>
      </trkpt>
      <trkpt lat="47.17546" lon="8.45184">
        <ele>417.4</ele>
        <time>2023-02-12T08:36:08Z</time>
      </trkpt>
      <trkpt lat="47.17542" lon="8.4518">
        <ele>417.4</ele>
        <time>2023-02-12T08:36:09Z</time>
      </trkpt>
      <trkpt lat="47.17538" lon="8.45175">
        <ele>417.4</ele>
        <time>2023-02-12T08:36:10Z</time>
      </trkpt>
      <trkpt lat="47.17534" lon="8.45171">
        <ele>417.2</ele>
        <time>2023-02-12T08:36:11Z</time>
      </trkpt>
      <trkpt lat="47.17529" lon="8.45169">
        <ele>417.2</ele>
        <time>2023-02-12T08:36:12Z</time>
      </trkpt>
      <trkpt lat="47.17523" lon="8.4517">
        <ele>417.2</ele>
        <time>2023-02-12T08:36:13Z</time>
      </trkpt>
      <trkpt lat="47.17519" lon="8.45174">
        <ele>417.2</ele>
        <time>2023-02-12T08:36:14Z</time>
      </trkpt>
      <trkpt lat="47.17515" lon="8.45177">
        <ele>417.2</ele>
        <time>2023-02-12T08:36:15Z</time>
      </trkpt>
      <trkpt lat="47.17511" lon="8.4518">
        <ele>417</ele>
        <time>2023-02-12T08:36:16Z</time>
      </trkpt>
      <trkpt lat="47.17506" lon="8.45184">
        <ele>417</ele>
        <time>2023-02-12T08:36:17Z</time>
      </trkpt>
      <trkpt lat="47.17502" lon="8.45188">
        <ele>417</ele>
        <time>2023-02-12T08:36:18Z</time>
      </trkpt>
      <trkpt lat="47.17498" lon="8.45192">
        <ele>417</ele>
        <time>2023-02-12T08:36:19Z</time>
      </trkpt>
      <trkpt lat="47.17494" lon="8.45196">
        <ele>416.8</ele>
        <time>2023-02-12T08:36:20Z</time>
      </trkpt>
      <trkpt lat="47.1749" lon="8.452">
        <ele>416.8</ele>
        <time>2023-02-12T08:36:21Z</time>
      </trkpt>
      <trkpt lat="47.17486" lon="8.45205">
        <ele>416.8</ele>
        <time>2023-02-12T08:36:22Z</time>
      </trkpt>
      <trkpt lat="47.17483" lon="8.45211">
        <ele>416.8</ele>
        <time>2023-02-12T08:36:23Z</time>
      </trkpt>
      <trkpt lat="47.17479" lon="8.45217">
        <ele>416.8</ele>
        <time>2023-02-12T08:36:24Z</time>
      </trkpt>
      <trkpt lat="47.17476" lon="8.45223">
        <ele>416.6</ele>
        <time>2023-02-12T08:36:25Z</time>
      </trkpt>
      <trkpt lat="47.17473" lon="8.4523">
        <ele>416.6</ele>
        <time>2023-02-12T08:36:26Z</time>
      </trkpt>
      <trkpt lat="47.17469" lon="8.45235">
        <ele>416.4</ele>
        <time>2023-02-12T08:36:27Z</time>
      </trkpt>
      <trkpt lat="47.17465" lon="8.45237">
        <ele>416.4</ele>
        <time>2023-02-12T08:36:28Z</time>
      </trkpt>
      <trkpt lat="47.17461" lon="8.45234">
        <ele>416.2</ele>
        <time>2023-02-12T08:36:29Z</time>
      </trkpt>
      <trkpt lat="47.17458" lon="8.45231">
        <ele>416.2</ele>
        <time>2023-02-12T08:36:30Z</time>
      </trkpt>
      <trkpt lat="47.17454" lon="8.45228">
        <ele>416</ele>
        <time>2023-02-12T08:36:31Z</time>
      </trkpt>
      <trkpt lat="47.1745" lon="8.45226">
        <ele>415.8</ele>
        <time>2023-02-12T08:36:32Z</time>
      </trkpt>
      <trkpt lat="47.17445" lon="8.45222">
        <ele>415.8</ele>
        <time>2023-02-12T08:36:33Z</time>
      </trkpt>
      <trkpt lat="47.17441" lon="8.45218">
        <ele>415.6</ele>
        <time>2023-02-12T08:36:34Z</time>
      </trkpt>
      <trkpt lat="47.17437" lon="8.45214">
        <ele>415.6</ele>
        <time>2023-02-12T08:36:35Z</time>
      </trkpt>
      <trkpt lat="47.17433" lon="8.4521">
        <ele>415.6</ele>
        <time>2023-02-12T08:36:36Z</time>
      </trkpt>
      <trkpt lat="47.17428" lon="8.45206">
        <ele>415.4</ele>
        <time>2023-02-12T08:36:37Z</time>
      </trkpt>
      <trkpt lat="47.17424" lon="8.45203">
        <ele>415.4</ele>
        <time>2023-02-12T08:36:38Z</time>
      </trkpt>
      <trkpt lat="47.1742" lon="8.452">
        <ele>415.4</ele>
        <time>2023-02-12T08:36:39Z</time>
      </trkpt>
      <trkpt lat="47.17415" lon="8.45197">
        <ele>415.2</ele>
        <time>2023-02-12T08:36:40Z</time>
      </trkpt>
      <trkpt lat="47.1741" lon="8.45194">
        <ele>415.2</ele>
        <time>2023-02-12T08:36:41Z</time>
      </trkpt>
      <trkpt lat="47.17406" lon="8.45192">
        <ele>415.2</ele>
        <time>2023-02-12T08:36:42Z</time>
      </trkpt>
      <trkpt lat="47.17401" lon="8.45189">
        <ele>415</ele>
        <time>2023-02-12T08:36:43Z</time>
      </trkpt>
      <trkpt lat="47.17397" lon="8.45186">
        <ele>415</ele>
        <time>2023-02-12T08:36:44Z</time>
      </trkpt>
      <trkpt lat="47.17392" lon="8.45183">
        <ele>415</ele>
        <time>2023-02-12T08:36:45Z</time>
      </trkpt>
      <trkpt lat="47.17388" lon="8.45181">
        <ele>415</ele>
        <time>2023-02-12T08:36:46Z</time>
      </trkpt>
      <trkpt lat="47.17383" lon="8.45177">
        <ele>415</ele>
        <time>2023-02-12T08:36:47Z</time>
      </trkpt>
      <trkpt lat="47.17378" lon="8.45175">
        <ele>415</ele>
        <time>2023-02-12T08:36:48Z</time>
      </trkpt>
      <trkpt lat="47.17374" lon="8.45173">
        <ele>415</ele>
        <time>2023-02-12T08:36:49Z</time>
      </trkpt>
      <trkpt lat="47.17369" lon="8.45171">
        <ele>415</ele>
        <time>2023-02-12T08:36:50Z</time>
      </trkpt>
      <trkpt lat="47.17365" lon="8.45167">
        <ele>415</ele>
        <time>2023-02-12T08:36:51Z</time>
      </trkpt>
      <trkpt lat="47.1736" lon="8.45163">
        <ele>414.8</ele>
        <time>2023-02-12T08:36:52Z</time>
      </trkpt>
      <trkpt lat="47.17356" lon="8.45159">
        <ele>414.8</ele>
        <time>2023-02-12T08:36:53Z</time>
      </trkpt>
      <trkpt lat="47.17351" lon="8.45156">
        <ele>414.8</ele>
        <time>2023-02-12T08:36:54Z</time>
      </trkpt>
      <trkpt lat="47.17346" lon="8.45153">
        <ele>414.8</ele>
        <time>2023-02-12T08:36:55Z</time>
      </trkpt>
      <trkpt lat="47.17341" lon="8.4515">
        <ele>414.8</ele>
        <time>2023-02-12T08:36:56Z</time>
      </trkpt>
      <trkpt lat="47.17337" lon="8.45148">
        <ele>414.8</ele>
        <time>2023-02-12T08:36:57Z</time>
      </trkpt>
      <trkpt lat="47.17332" lon="8.45146">
        <ele>414.8</ele>
        <time>2023-02-12T08:36:58Z</time>
      </trkpt>
      <trkpt lat="47.17327" lon="8.45144">
        <ele>414.8</ele>
        <time>2023-02-12T08:36:59Z</time>
      </trkpt>
      <trkpt lat="47.17323" lon="8.4514">
        <ele>414.8</ele>
        <time>2023-02-12T08:37:00Z</time>
      </trkpt>
      <trkpt lat="47.17319" lon="8.45137">
        <ele>414.8</ele>
        <time>2023-02-12T08:37:01Z</time>
      </trkpt>
      <trkpt lat="47.17315" lon="8.45132">
        <ele>414.8</ele>
        <time>2023-02-12T08:37:02Z</time>
      </trkpt>
      <trkpt lat="47.17312" lon="8.45127">
        <ele>414.8</ele>
        <time>2023-02-12T08:37:03Z</time>
      </trkpt>
      <trkpt lat="47.17309" lon="8.45121">
        <ele>414.8</ele>
        <time>2023-02-12T08:37:04Z</time>
      </trkpt>
      <trkpt lat="47.17306" lon="8.45116">
        <ele>414.6</ele>
        <time>2023-02-12T08:37:05Z</time>
      </trkpt>
      <trkpt lat="47.17302" lon="8.45115">
        <ele>414.6</ele>
        <time>2023-02-12T08:37:06Z</time>
      </trkpt>
      <trkpt lat="47.17297" lon="8.45115">
        <ele>414.6</ele>
        <time>2023-02-12T08:37:07Z</time>
      </trkpt>
      <trkpt lat="47.17293" lon="8.45118">
        <ele>414.4</ele>
        <time>2023-02-12T08:37:08Z</time>
      </trkpt>
      <trkpt lat="47.17288" lon="8.45119">
        <ele>414.4</ele>
        <time>2023-02-12T08:37:09Z</time>
      </trkpt>
      <trkpt lat="47.17284" lon="8.45121">
        <ele>414.4</ele>
        <time>2023-02-12T08:37:10Z</time>
      </trkpt>
      <trkpt lat="47.17279" lon="8.45123">
        <ele>414.4</ele>
        <time>2023-02-12T08:37:11Z</time>
      </trkpt>
      <trkpt lat="47.17274" lon="8.45124">
        <ele>414.4</ele>
        <time>2023-02-12T08:37:12Z</time>
      </trkpt>
      <trkpt lat="47.17269" lon="8.45124">
        <ele>414.4</ele>
        <time>2023-02-12T08:37:13Z</time>
      </trkpt>
      <trkpt lat="47.17264" lon="8.45125">
        <ele>414.4</ele>
        <time>2023-02-12T08:37:14Z</time>
      </trkpt>
      <trkpt lat="47.17259" lon="8.45126">
        <ele>414.4</ele>
        <time>2023-02-12T08:37:15Z</time>
      </trkpt>
      <trkpt lat="47.17254" lon="8.45127">
        <ele>414.4</ele>
        <time>2023-02-12T08:37:16Z</time>
      </trkpt>
      <trkpt lat="47.17249" lon="8.45128">
        <ele>414.4</ele>
        <time>2023-02-12T08:37:17Z</time>
      </trkpt>
      <trkpt lat="47.17244" lon="8.45129">
        <ele>414.4</ele>
        <time>2023-02-12T08:37:18Z</time>
      </trkpt>
      <trkpt lat="47.17239" lon="8.4513">
        <ele>414.4</ele>
        <time>2023-02-12T08:37:19Z</time>
      </trkpt>
      <trkpt lat="47.17234" lon="8.4513">
        <ele>414.6</ele>
        <time>2023-02-12T08:37:20Z</time>
      </trkpt>
      <trkpt lat="47.17229" lon="8.45131">
        <ele>414.6</ele>
        <time>2023-02-12T08:37:21Z</time>
      </trkpt>
      <trkpt lat="47.17224" lon="8.45132">
        <ele>414.6</ele>
        <time>2023-02-12T08:37:22Z</time>
      </trkpt>
      <trkpt lat="47.17219" lon="8.45133">
        <ele>414.6</ele>
        <time>2023-02-12T08:37:23Z</time>
      </trkpt>
      <trkpt lat="47.17214" lon="8.45134">
        <ele>414.6</ele>
        <time>2023-02-12T08:37:24Z</time>
      </trkpt>
      <trkpt lat="47.17209" lon="8.45135">
        <ele>414.6</ele>
        <time>2023-02-12T08:37:25Z</time>
      </trkpt>
      <trkpt lat="47.17204" lon="8.45135">
        <ele>414.8</ele>
        <time>2023-02-12T08:37:26Z</time>
      </trkpt>
      <trkpt lat="47.17199" lon="8.45136">
        <ele>414.8</ele>
        <time>2023-02-12T08:37:27Z</time>
      </trkpt>
      <trkpt lat="47.17194" lon="8.45136">
        <ele>414.8</ele>
        <time>2023-02-12T08:37:28Z</time>
      </trkpt>
      <trkpt lat="47.1719" lon="8.45137">
        <ele>414.8</ele>
        <time>2023-02-12T08:37:29Z</time>
      </trkpt>
      <trkpt lat="47.17185" lon="8.45137">
        <ele>414.8</ele>
        <time>2023-02-12T08:37:30Z</time>
      </trkpt>
      <trkpt lat="47.1718" lon="8.45138">
        <ele>414.8</ele>
        <time>2023-02-12T08:37:31Z</time>
      </trkpt>
      <trkpt lat="47.17174" lon="8.45139">
        <ele>414.8</ele>
        <time>2023-02-12T08:37:32Z</time>
      </trkpt>
      <trkpt lat="47.17169" lon="8.4514">
        <ele>415</ele>
        <time>2023-02-12T08:37:33Z</time>
      </trkpt>
      <trkpt lat="47.17165" lon="8.45141">
        <ele>415</ele>
        <time>2023-02-12T08:37:34Z</time>
      </trkpt>
      <trkpt lat="47.17159" lon="8.45141">
        <ele>415</ele>
        <time>2023-02-12T08:37:35Z</time>
      </trkpt>
      <trkpt lat="47.17154" lon="8.45141">
        <ele>415</ele>
        <time>2023-02-12T08:37:36Z</time>
      </trkpt>
      <trkpt lat="47.17149" lon="8.45142">
        <ele>415</ele>
        <time>2023-02-12T08:37:37Z</time>
      </trkpt>
      <trkpt lat="47.17144" lon="8.45142">
        <ele>415</ele>
        <time>2023-02-12T08:37:38Z</time>
      </trkpt>
      <trkpt lat="47.17139" lon="8.45143">
        <ele>415</ele>
        <time>2023-02-12T08:37:39Z</time>
      </trkpt>
      <trkpt lat="47.17133" lon="8.45144">
        <ele>415</ele>
        <time>2023-02-12T08:37:40Z</time>
      </trkpt>
      <trkpt lat="47.17128" lon="8.45144">
        <ele>415</ele>
        <time>2023-02-12T08:37:41Z</time>
      </trkpt>
      <trkpt lat="47.17123" lon="8.45145">
        <ele>415</ele>
        <time>2023-02-12T08:37:42Z</time>
      </trkpt>
      <trkpt lat="47.17118" lon="8.45145">
        <ele>415</ele>
        <time>2023-02-12T08:37:43Z</time>
      </trkpt>
      <trkpt lat="47.17113" lon="8.45146">
        <ele>415</ele>
        <time>2023-02-12T08:37:44Z</time>
      </trkpt>
      <trkpt lat="47.17107" lon="8.45147">
        <ele>415</ele>
        <time>2023-02-12T08:37:45Z</time>
      </trkpt>
      <trkpt lat="47.17102" lon="8.45148">
        <ele>415</ele>
        <time>2023-02-12T08:37:46Z</time>
      </trkpt>
      <trkpt lat="47.17097" lon="8.45149">
        <ele>415</ele>
        <time>2023-02-12T08:37:47Z</time>
      </trkpt>
      <trkpt lat="47.17091" lon="8.4515">
        <ele>415</ele>
        <time>2023-02-12T08:37:48Z</time>
      </trkpt>
      <trkpt lat="47.17086" lon="8.4515">
        <ele>415</ele>
        <time>2023-02-12T08:37:49Z</time>
      </trkpt>
      <trkpt lat="47.17081" lon="8.45151">
        <ele>415</ele>
        <time>2023-02-12T08:37:50Z</time>
      </trkpt>
      <trkpt lat="47.17076" lon="8.45152">
        <ele>415</ele>
        <time>2023-02-12T08:37:51Z</time>
      </trkpt>
      <trkpt lat="47.1707" lon="8.45153">
        <ele>414.8</ele>
        <time>2023-02-12T08:37:52Z</time>
      </trkpt>
      <trkpt lat="47.17065" lon="8.45155">
        <ele>414.8</ele>
        <time>2023-02-12T08:37:53Z</time>
      </trkpt>
      <trkpt lat="47.1706" lon="8.45156">
        <ele>414.8</ele>
        <time>2023-02-12T08:37:54Z</time>
      </trkpt>
      <trkpt lat="47.17054" lon="8.45156">
        <ele>414.8</ele>
        <time>2023-02-12T08:37:55Z</time>
      </trkpt>
      <trkpt lat="47.17049" lon="8.45157">
        <ele>414.8</ele>
        <time>2023-02-12T08:37:56Z</time>
      </trkpt>
      <trkpt lat="47.17044" lon="8.45157">
        <ele>414.8</ele>
        <time>2023-02-12T08:37:57Z</time>
      </trkpt>
      <trkpt lat="47.17039" lon="8.45158">
        <ele>414.8</ele>
        <time>2023-02-12T08:37:58Z</time>
      </trkpt>
      <trkpt lat="47.17034" lon="8.45159">
        <ele>414.8</ele>
        <time>2023-02-12T08:37:59Z</time>
      </trkpt>
      <trkpt lat="47.17029" lon="8.45159">
        <ele>414.8</ele>
        <time>2023-02-12T08:38:00Z</time>
      </trkpt>
      <trkpt lat="47.17023" lon="8.4516">
        <ele>414.8</ele>
        <time>2023-02-12T08:38:01Z</time>
      </trkpt>
      <trkpt lat="47.17018" lon="8.4516">
        <ele>414.8</ele>
        <time>2023-02-12T08:38:02Z</time>
      </trkpt>
      <trkpt lat="47.17013" lon="8.45161">
        <ele>414.8</ele>
        <time>2023-02-12T08:38:03Z</time>
      </trkpt>
      <trkpt lat="47.17007" lon="8.45161">
        <ele>415</ele>
        <time>2023-02-12T08:38:04Z</time>
      </trkpt>
      <trkpt lat="47.17002" lon="8.45161">
        <ele>415</ele>
        <time>2023-02-12T08:38:05Z</time>
      </trkpt>
      <trkpt lat="47.16997" lon="8.45161">
        <ele>415</ele>
        <time>2023-02-12T08:38:06Z</time>
      </trkpt>
      <trkpt lat="47.16993" lon="8.45162">
        <ele>415</ele>
        <time>2023-02-12T08:38:07Z</time>
      </trkpt>
      <trkpt lat="47.16987" lon="8.45162">
        <ele>415</ele>
        <time>2023-02-12T08:38:08Z</time>
      </trkpt>
      <trkpt lat="47.16982" lon="8.45162">
        <ele>415.2</ele>
        <time>2023-02-12T08:38:09Z</time>
      </trkpt>
      <trkpt lat="47.16977" lon="8.45162">
        <ele>415.2</ele>
        <time>2023-02-12T08:38:10Z</time>
      </trkpt>
      <trkpt lat="47.16972" lon="8.45163">
        <ele>415.2</ele>
        <time>2023-02-12T08:38:11Z</time>
      </trkpt>
      <trkpt lat="47.16967" lon="8.45163">
        <ele>415.2</ele>
        <time>2023-02-12T08:38:12Z</time>
      </trkpt>
      <trkpt lat="47.16961" lon="8.45163">
        <ele>415.2</ele>
        <time>2023-02-12T08:38:13Z</time>
      </trkpt>
      <trkpt lat="47.16956" lon="8.45163">
        <ele>415.4</ele>
        <time>2023-02-12T08:38:14Z</time>
      </trkpt>
      <trkpt lat="47.16951" lon="8.45163">
        <ele>415.4</ele>
        <time>2023-02-12T08:38:15Z</time>
      </trkpt>
      <trkpt lat="47.16946" lon="8.45163">
        <ele>415.4</ele>
        <time>2023-02-12T08:38:16Z</time>
      </trkpt>
      <trkpt lat="47.16941" lon="8.45163">
        <ele>415.4</ele>
        <time>2023-02-12T08:38:17Z</time>
      </trkpt>
      <trkpt lat="47.16936" lon="8.45163">
        <ele>415.6</ele>
        <time>2023-02-12T08:38:18Z</time>
      </trkpt>
      <trkpt lat="47.16931" lon="8.45163">
        <ele>415.6</ele>
        <time>2023-02-12T08:38:19Z</time>
      </trkpt>
      <trkpt lat="47.16925" lon="8.45164">
        <ele>415.6</ele>
        <time>2023-02-12T08:38:20Z</time>
      </trkpt>
      <trkpt lat="47.1692" lon="8.45164">
        <ele>415.6</ele>
        <time>2023-02-12T08:38:21Z</time>
      </trkpt>
      <trkpt lat="47.16915" lon="8.45164">
        <ele>415.8</ele>
        <time>2023-02-12T08:38:22Z</time>
      </trkpt>
      <trkpt lat="47.1691" lon="8.45164">
        <ele>415.8</ele>
        <time>2023-02-12T08:38:23Z</time>
      </trkpt>
      <trkpt lat="47.16906" lon="8.45163">
        <ele>415.8</ele>
        <time>2023-02-12T08:38:24Z</time>
      </trkpt>
      <trkpt lat="47.16901" lon="8.45164">
        <ele>416</ele>
        <time>2023-02-12T08:38:25Z</time>
      </trkpt>
      <trkpt lat="47.16896" lon="8.45163">
        <ele>416</ele>
        <time>2023-02-12T08:38:26Z</time>
      </trkpt>
      <trkpt lat="47.16891" lon="8.45164">
        <ele>416</ele>
        <time>2023-02-12T08:38:27Z</time>
      </trkpt>
      <trkpt lat="47.16886" lon="8.45164">
        <ele>416</ele>
        <time>2023-02-12T08:38:28Z</time>
      </trkpt>
      <trkpt lat="47.1688" lon="8.45164">
        <ele>416.2</ele>
        <time>2023-02-12T08:38:29Z</time>
      </trkpt>
      <trkpt lat="47.16875" lon="8.45163">
        <ele>416.2</ele>
        <time>2023-02-12T08:38:30Z</time>
      </trkpt>
      <trkpt lat="47.16869" lon="8.45163">
        <ele>416.2</ele>
        <time>2023-02-12T08:38:31Z</time>
      </trkpt>
      <trkpt lat="47.16864" lon="8.45163">
        <ele>416.2</ele>
        <time>2023-02-12T08:38:32Z</time>
      </trkpt>
      <trkpt lat="47.16859" lon="8.45163">
        <ele>416.2</ele>
        <time>2023-02-12T08:38:33Z</time>
      </trkpt>
      <trkpt lat="47.16854" lon="8.45163">
        <ele>416.4</ele>
        <time>2023-02-12T08:38:34Z</time>
      </trkpt>
      <trkpt lat="47.16849" lon="8.45163">
        <ele>416.4</ele>
        <time>2023-02-12T08:38:35Z</time>
      </trkpt>
      <trkpt lat="47.16844" lon="8.45164">
        <ele>416.4</ele>
        <time>2023-02-12T08:38:36Z</time>
      </trkpt>
      <trkpt lat="47.16839" lon="8.45164">
        <ele>416.4</ele>
        <time>2023-02-12T08:38:37Z</time>
      </trkpt>
      <trkpt lat="47.16834" lon="8.45164">
        <ele>416.4</ele>
        <time>2023-02-12T08:38:38Z</time>
      </trkpt>
      <trkpt lat="47.16829" lon="8.45164">
        <ele>416.6</ele>
        <time>2023-02-12T08:38:39Z</time>
      </trkpt>
      <trkpt lat="47.16824" lon="8.45164">
        <ele>416.6</ele>
        <time>2023-02-12T08:38:40Z</time>
      </trkpt>
      <trkpt lat="47.16819" lon="8.45164">
        <ele>416.6</ele>
        <time>2023-02-12T08:38:41Z</time>
      </trkpt>
      <trkpt lat="47.16814" lon="8.45164">
        <ele>416.8</ele>
        <time>2023-02-12T08:38:42Z</time>
      </trkpt>
      <trkpt lat="47.16808" lon="8.45164">
        <ele>416.8</ele>
        <time>2023-02-12T08:38:43Z</time>
      </trkpt>
      <trkpt lat="47.16803" lon="8.45164">
        <ele>416.8</ele>
        <time>2023-02-12T08:38:44Z</time>
      </trkpt>
      <trkpt lat="47.16798" lon="8.45164">
        <ele>416.8</ele>
        <time>2023-02-12T08:38:45Z</time>
      </trkpt>
      <trkpt lat="47.16793" lon="8.45164">
        <ele>417</ele>
        <time>2023-02-12T08:38:46Z</time>
      </trkpt>
      <trkpt lat="47.16788" lon="8.45164">
        <ele>417.2</ele>
        <time>2023-02-12T08:38:47Z</time>
      </trkpt>
      <trkpt lat="47.16783" lon="8.45164">
        <ele>417.2</ele>
        <time>2023-02-12T08:38:48Z</time>
      </trkpt>
      <trkpt lat="47.16778" lon="8.45164">
        <ele>417.4</ele>
        <time>2023-02-12T08:38:49Z</time>
      </trkpt>
      <trkpt lat="47.16774" lon="8.45164">
        <ele>417.4</ele>
        <time>2023-02-12T08:38:50Z</time>
      </trkpt>
      <trkpt lat="47.16769" lon="8.45164">
        <ele>417.4</ele>
        <time>2023-02-12T08:38:51Z</time>
      </trkpt>
      <trkpt lat="47.16764" lon="8.45163">
        <ele>417.4</ele>
        <time>2023-02-12T08:38:52Z</time>
      </trkpt>
      <trkpt lat="47.1676" lon="8.45163">
        <ele>417.6</ele>
        <time>2023-02-12T08:38:53Z</time>
      </trkpt>
      <trkpt lat="47.16755" lon="8.45163">
        <ele>417.8</ele>
        <time>2023-02-12T08:38:54Z</time>
      </trkpt>
      <trkpt lat="47.16751" lon="8.45164">
        <ele>418</ele>
        <time>2023-02-12T08:38:55Z</time>
      </trkpt>
      <trkpt lat="47.16746" lon="8.45164">
        <ele>418</ele>
        <time>2023-02-12T08:38:56Z</time>
      </trkpt>
      <trkpt lat="47.16741" lon="8.45164">
        <ele>418.2</ele>
        <time>2023-02-12T08:38:57Z</time>
      </trkpt>
      <trkpt lat="47.16736" lon="8.45164">
        <ele>418.4</ele>
        <time>2023-02-12T08:38:58Z</time>
      </trkpt>
      <trkpt lat="47.16731" lon="8.45164">
        <ele>418.4</ele>
        <time>2023-02-12T08:38:59Z</time>
      </trkpt>
      <trkpt lat="47.16726" lon="8.45165">
        <ele>418.6</ele>
        <time>2023-02-12T08:39:00Z</time>
      </trkpt>
      <trkpt lat="47.16722" lon="8.45166">
        <ele>418.8</ele>
        <time>2023-02-12T08:39:01Z</time>
      </trkpt>
      <trkpt lat="47.16718" lon="8.45166">
        <ele>419</ele>
        <time>2023-02-12T08:39:02Z</time>
      </trkpt>
      <trkpt lat="47.16713" lon="8.45166">
        <ele>419</ele>
        <time>2023-02-12T08:39:03Z</time>
      </trkpt>
      <trkpt lat="47.16709" lon="8.45166">
        <ele>419.2</ele>
        <time>2023-02-12T08:39:04Z</time>
      </trkpt>
      <trkpt lat="47.16705" lon="8.45166">
        <ele>419.4</ele>
        <time>2023-02-12T08:39:05Z</time>
      </trkpt>
      <trkpt lat="47.16701" lon="8.45167">
        <ele>419.8</ele>
        <time>2023-02-12T08:39:06Z</time>
      </trkpt>
      <trkpt lat="47.16697" lon="8.45167">
        <ele>420</ele>
        <time>2023-02-12T08:39:07Z</time>
      </trkpt>
      <trkpt lat="47.16693" lon="8.45167">
        <ele>420.4</ele>
        <time>2023-02-12T08:39:08Z</time>
      </trkpt>
      <trkpt lat="47.16689" lon="8.45166">
        <ele>420.6</ele>
        <time>2023-02-12T08:39:09Z</time>
      </trkpt>
      <trkpt lat="47.16684" lon="8.45167">
        <ele>421</ele>
        <time>2023-02-12T08:39:10Z</time>
      </trkpt>
      <trkpt lat="47.1668" lon="8.45167">
        <ele>421.2</ele>
        <time>2023-02-12T08:39:11Z</time>
      </trkpt>
      <trkpt lat="47.16676" lon="8.45168">
        <ele>421.4</ele>
        <time>2023-02-12T08:39:12Z</time>
      </trkpt>
      <trkpt lat="47.16673" lon="8.45171">
        <ele>421.8</ele>
        <time>2023-02-12T08:39:13Z</time>
      </trkpt>
      <trkpt lat="47.1667" lon="8.45175">
        <ele>422</ele>
        <time>2023-02-12T08:39:14Z</time>
      </trkpt>
      <trkpt lat="47.16669" lon="8.4518">
        <ele>422.2</ele>
        <time>2023-02-12T08:39:15Z</time>
      </trkpt>
      <trkpt lat="47.16668" lon="8.45185">
        <ele>422.4</ele>
        <time>2023-02-12T08:39:16Z</time>
      </trkpt>
      <trkpt lat="47.16667" lon="8.45192">
        <ele>422.6</ele>
        <time>2023-02-12T08:39:17Z</time>
      </trkpt>
      <trkpt lat="47.16666" lon="8.45199">
        <ele>422.6</ele>
        <time>2023-02-12T08:39:18Z</time>
      </trkpt>
      <trkpt lat="47.16664" lon="8.45207">
        <ele>422.8</ele>
        <time>2023-02-12T08:39:19Z</time>
      </trkpt>
      <trkpt lat="47.1666" lon="8.45215">
        <ele>422.8</ele>
        <time>2023-02-12T08:39:20Z</time>
      </trkpt>
      <trkpt lat="47.16657" lon="8.45221">
        <ele>422.8</ele>
        <time>2023-02-12T08:39:21Z</time>
      </trkpt>
      <trkpt lat="47.16653" lon="8.45228">
        <ele>422.8</ele>
        <time>2023-02-12T08:39:22Z</time>
      </trkpt>
      <trkpt lat="47.1665" lon="8.45234">
        <ele>422.6</ele>
        <time>2023-02-12T08:39:23Z</time>
      </trkpt>
      <trkpt lat="47.16646" lon="8.4524">
        <ele>422.4</ele>
        <time>2023-02-12T08:39:24Z</time>
      </trkpt>
      <trkpt lat="47.16644" lon="8.45246">
        <ele>422.2</ele>
        <time>2023-02-12T08:39:25Z</time>
      </trkpt>
      <trkpt lat="47.16641" lon="8.45252">
        <ele>422.2</ele>
        <time>2023-02-12T08:39:26Z</time>
      </trkpt>
      <trkpt lat="47.16638" lon="8.45258">
        <ele>422</ele>
        <time>2023-02-12T08:39:27Z</time>
      </trkpt>
      <trkpt lat="47.16635" lon="8.45264">
        <ele>422</ele>
        <time>2023-02-12T08:39:28Z</time>
      </trkpt>
      <trkpt lat="47.16632" lon="8.45269">
        <ele>422.2</ele>
        <time>2023-02-12T08:39:29Z</time>
      </trkpt>
      <trkpt lat="47.16629" lon="8.45275">
        <ele>422.2</ele>
        <time>2023-02-12T08:39:30Z</time>
      </trkpt>
      <trkpt lat="47.16627" lon="8.45281">
        <ele>422.4</ele>
        <time>2023-02-12T08:39:31Z</time>
      </trkpt>
      <trkpt lat="47.16624" lon="8.45287">
        <ele>422.4</ele>
        <time>2023-02-12T08:39:32Z</time>
      </trkpt>
      <trkpt lat="47.16622" lon="8.45293">
        <ele>422.6</ele>
        <time>2023-02-12T08:39:33Z</time>
      </trkpt>
      <trkpt lat="47.1662" lon="8.453">
        <ele>422.8</ele>
        <time>2023-02-12T08:39:34Z</time>
      </trkpt>
      <trkpt lat="47.16617" lon="8.45305">
        <ele>423</ele>
        <time>2023-02-12T08:39:35Z</time>
      </trkpt>
      <trkpt lat="47.16615" lon="8.45312">
        <ele>423</ele>
        <time>2023-02-12T08:39:36Z</time>
      </trkpt>
      <trkpt lat="47.16613" lon="8.45318">
        <ele>423.2</ele>
        <time>2023-02-12T08:39:37Z</time>
      </trkpt>
      <trkpt lat="47.16611" lon="8.45325">
        <ele>423.4</ele>
        <time>2023-02-12T08:39:38Z</time>
      </trkpt>
      <trkpt lat="47.1661" lon="8.45332">
        <ele>423.4</ele>
        <time>2023-02-12T08:39:39Z</time>
      </trkpt>
      <trkpt lat="47.16608" lon="8.4534">
        <ele>423.4</ele>
        <time>2023-02-12T08:39:40Z</time>
      </trkpt>
      <trkpt lat="47.16605" lon="8.45347">
        <ele>423.4</ele>
        <time>2023-02-12T08:39:41Z</time>
      </trkpt>
      <trkpt lat="47.16601" lon="8.45355">
        <ele>423.2</ele>
        <time>2023-02-12T08:39:42Z</time>
      </trkpt>
      <trkpt lat="47.16598" lon="8.45363">
        <ele>423.2</ele>
        <time>2023-02-12T08:39:43Z</time>
      </trkpt>
      <trkpt lat="47.16595" lon="8.45369">
        <ele>423.2</ele>
        <time>2023-02-12T08:39:44Z</time>
      </trkpt>
      <trkpt lat="47.16591" lon="8.45374">
        <ele>422.8</ele>
        <time>2023-02-12T08:39:45Z</time>
      </trkpt>
      <trkpt lat="47.16586" lon="8.45378">
        <ele>422.4</ele>
        <time>2023-02-12T08:39:46Z</time>
      </trkpt>
      <trkpt lat="47.1658" lon="8.45379">
        <ele>422.2</ele>
        <time>2023-02-12T08:39:47Z</time>
      </trkpt>
      <trkpt lat="47.16573" lon="8.45381">
        <ele>421.8</ele>
        <time>2023-02-12T08:39:48Z</time>
      </trkpt>
      <trkpt lat="47.16567" lon="8.45382">
        <ele>421.4</ele>
        <time>2023-02-12T08:39:49Z</time>
      </trkpt>
      <trkpt lat="47.16561" lon="8.45382">
        <ele>421</ele>
        <time>2023-02-12T08:39:50Z</time>
      </trkpt>
      <trkpt lat="47.16556" lon="8.45383">
        <ele>420.6</ele>
        <time>2023-02-12T08:39:51Z</time>
      </trkpt>
      <trkpt lat="47.16551" lon="8.45383">
        <ele>420.4</ele>
        <time>2023-02-12T08:39:52Z</time>
      </trkpt>
      <trkpt lat="47.16546" lon="8.45382">
        <ele>420.2</ele>
        <time>2023-02-12T08:39:53Z</time>
      </trkpt>
      <trkpt lat="47.16541" lon="8.4538">
        <ele>420.2</ele>
        <time>2023-02-12T08:39:54Z</time>
      </trkpt>
      <trkpt lat="47.16537" lon="8.45379">
        <ele>420.2</ele>
        <time>2023-02-12T08:39:55Z</time>
      </trkpt>
      <trkpt lat="47.16533" lon="8.45376">
        <ele>420.4</ele>
        <time>2023-02-12T08:39:56Z</time>
      </trkpt>
      <trkpt lat="47.16528" lon="8.45374">
        <ele>420.8</ele>
        <time>2023-02-12T08:39:57Z</time>
      </trkpt>
      <trkpt lat="47.16524" lon="8.45372">
        <ele>421</ele>
        <time>2023-02-12T08:39:58Z</time>
      </trkpt>
      <trkpt lat="47.1652" lon="8.45371">
        <ele>421.4</ele>
        <time>2023-02-12T08:39:59Z</time>
      </trkpt>
      <trkpt lat="47.16516" lon="8.45369">
        <ele>421.8</ele>
        <time>2023-02-12T08:40:00Z</time>
      </trkpt>
      <trkpt lat="47.16513" lon="8.45368">
        <ele>422.2</ele>
        <time>2023-02-12T08:40:01Z</time>
      </trkpt>
      <trkpt lat="47.16509" lon="8.45367">
        <ele>422.6</ele>
        <time>2023-02-12T08:40:02Z</time>
      </trkpt>
      <trkpt lat="47.16505" lon="8.45366">
        <ele>423</ele>
        <time>2023-02-12T08:40:03Z</time>
      </trkpt>
      <trkpt lat="47.16501" lon="8.45364">
        <ele>423.2</ele>
        <time>2023-02-12T08:40:04Z</time>
      </trkpt>
      <trkpt lat="47.16497" lon="8.45362">
        <ele>423.6</ele>
        <time>2023-02-12T08:40:05Z</time>
      </trkpt>
      <trkpt lat="47.16493" lon="8.45361">
        <ele>424</ele>
        <time>2023-02-12T08:40:06Z</time>
      </trkpt>
      <trkpt lat="47.16489" lon="8.4536">
        <ele>424.2</ele>
        <time>2023-02-12T08:40:07Z</time>
      </trkpt>
      <trkpt lat="47.16485" lon="8.4536">
        <ele>424.4</ele>
        <time>2023-02-12T08:40:08Z</time>
      </trkpt>
      <trkpt lat="47.16481" lon="8.4536">
        <ele>424.4</ele>
        <time>2023-02-12T08:40:09Z</time>
      </trkpt>
      <trkpt lat="47.16477" lon="8.4536">
        <ele>424.8</ele>
        <time>2023-02-12T08:40:10Z</time>
      </trkpt>
      <trkpt lat="47.16473" lon="8.45359">
        <ele>425</ele>
        <time>2023-02-12T08:40:11Z</time>
      </trkpt>
      <trkpt lat="47.16468" lon="8.45359">
        <ele>425.4</ele>
        <time>2023-02-12T08:40:12Z</time>
      </trkpt>
      <trkpt lat="47.16464" lon="8.4536">
        <ele>425.6</ele>
        <time>2023-02-12T08:40:13Z</time>
      </trkpt>
      <trkpt lat="47.1646" lon="8.45361">
        <ele>426</ele>
        <time>2023-02-12T08:40:14Z</time>
      </trkpt>
      <trkpt lat="47.16456" lon="8.45363">
        <ele>426.2</ele>
        <time>2023-02-12T08:40:15Z</time>
      </trkpt>
      <trkpt lat="47.16452" lon="8.45365">
        <ele>426.4</ele>
        <time>2023-02-12T08:40:16Z</time>
      </trkpt>
      <trkpt lat="47.16448" lon="8.45367">
        <ele>426.6</ele>
        <time>2023-02-12T08:40:17Z</time>
      </trkpt>
      <trkpt lat="47.16444" lon="8.45369">
        <ele>426.8</ele>
        <time>2023-02-12T08:40:18Z</time>
      </trkpt>
      <trkpt lat="47.16441" lon="8.45371">
        <ele>427.2</ele>
        <time>2023-02-12T08:40:19Z</time>
      </trkpt>
      <trkpt lat="47.16437" lon="8.45373">
        <ele>427.4</ele>
        <time>2023-02-12T08:40:20Z</time>
      </trkpt>
      <trkpt lat="47.16433" lon="8.45375">
        <ele>427.8</ele>
        <time>2023-02-12T08:40:21Z</time>
      </trkpt>
      <trkpt lat="47.1643" lon="8.45377">
        <ele>428</ele>
        <time>2023-02-12T08:40:22Z</time>
      </trkpt>
      <trkpt lat="47.16426" lon="8.4538">
        <ele>428</ele>
        <time>2023-02-12T08:40:23Z</time>
      </trkpt>
      <trkpt lat="47.16422" lon="8.45382">
        <ele>428.2</ele>
        <time>2023-02-12T08:40:24Z</time>
      </trkpt>
      <trkpt lat="47.16418" lon="8.45385">
        <ele>428.4</ele>
        <time>2023-02-12T08:40:25Z</time>
      </trkpt>
      <trkpt lat="47.16414" lon="8.45388">
        <ele>428.4</ele>
        <time>2023-02-12T08:40:26Z</time>
      </trkpt>
      <trkpt lat="47.1641" lon="8.45392">
        <ele>428.6</ele>
        <time>2023-02-12T08:40:27Z</time>
      </trkpt>
      <trkpt lat="47.16406" lon="8.45394">
        <ele>428.8</ele>
        <time>2023-02-12T08:40:28Z</time>
      </trkpt>
      <trkpt lat="47.16402" lon="8.45397">
        <ele>428.8</ele>
        <time>2023-02-12T08:40:29Z</time>
      </trkpt>
      <trkpt lat="47.16398" lon="8.454">
        <ele>428.8</ele>
        <time>2023-02-12T08:40:30Z</time>
      </trkpt>
      <trkpt lat="47.16394" lon="8.45403">
        <ele>429</ele>
        <time>2023-02-12T08:40:31Z</time>
      </trkpt>
      <trkpt lat="47.1639" lon="8.45406">
        <ele>429</ele>
        <time>2023-02-12T08:40:32Z</time>
      </trkpt>
      <trkpt lat="47.16385" lon="8.45409">
        <ele>429</ele>
        <time>2023-02-12T08:40:33Z</time>
      </trkpt>
      <trkpt lat="47.16381" lon="8.45411">
        <ele>429</ele>
        <time>2023-02-12T08:40:34Z</time>
      </trkpt>
      <trkpt lat="47.16377" lon="8.45412">
        <ele>429</ele>
        <time>2023-02-12T08:40:35Z</time>
      </trkpt>
      <trkpt lat="47.16372" lon="8.45413">
        <ele>429</ele>
        <time>2023-02-12T08:40:36Z</time>
      </trkpt>
      <trkpt lat="47.16367" lon="8.45411">
        <ele>429</ele>
        <time>2023-02-12T08:40:37Z</time>
      </trkpt>
      <trkpt lat="47.16363" lon="8.4541">
        <ele>429</ele>
        <time>2023-02-12T08:40:38Z</time>
      </trkpt>
      <trkpt lat="47.16358" lon="8.45407">
        <ele>429</ele>
        <time>2023-02-12T08:40:39Z</time>
      </trkpt>
      <trkpt lat="47.16354" lon="8.45405">
        <ele>429</ele>
        <time>2023-02-12T08:40:40Z</time>
      </trkpt>
      <trkpt lat="47.1635" lon="8.45402">
        <ele>429.2</ele>
        <time>2023-02-12T08:40:41Z</time>
      </trkpt>
      <trkpt lat="47.16346" lon="8.45399">
        <ele>429.2</ele>
        <time>2023-02-12T08:40:42Z</time>
      </trkpt>
      <trkpt lat="47.16343" lon="8.45396">
        <ele>429.2</ele>
        <time>2023-02-12T08:40:43Z</time>
      </trkpt>
      <trkpt lat="47.16339" lon="8.45394">
        <ele>429.4</ele>
        <time>2023-02-12T08:40:44Z</time>
      </trkpt>
      <trkpt lat="47.16335" lon="8.45391">
        <ele>429.4</ele>
        <time>2023-02-12T08:40:45Z</time>
      </trkpt>
      <trkpt lat="47.16331" lon="8.45389">
        <ele>429.6</ele>
        <time>2023-02-12T08:40:46Z</time>
      </trkpt>
      <trkpt lat="47.16326" lon="8.45386">
        <ele>429.6</ele>
        <time>2023-02-12T08:40:47Z</time>
      </trkpt>
      <trkpt lat="47.16322" lon="8.45383">
        <ele>429.6</ele>
        <time>2023-02-12T08:40:48Z</time>
      </trkpt>
      <trkpt lat="47.16317" lon="8.4538">
        <ele>429.8</ele>
        <time>2023-02-12T08:40:49Z</time>
      </trkpt>
      <trkpt lat="47.16313" lon="8.45377">
        <ele>429.8</ele>
        <time>2023-02-12T08:40:50Z</time>
      </trkpt>
      <trkpt lat="47.16309" lon="8.45375">
        <ele>429.8</ele>
        <time>2023-02-12T08:40:51Z</time>
      </trkpt>
      <trkpt lat="47.16304" lon="8.45373">
        <ele>429.8</ele>
        <time>2023-02-12T08:40:52Z</time>
      </trkpt>
      <trkpt lat="47.16299" lon="8.4537">
        <ele>429.8</ele>
        <time>2023-02-12T08:40:53Z</time>
      </trkpt>
      <trkpt lat="47.16294" lon="8.45368">
        <ele>429.8</ele>
        <time>2023-02-12T08:40:54Z</time>
      </trkpt>
      <trkpt lat="47.1629" lon="8.45366">
        <ele>429.8</ele>
        <time>2023-02-12T08:40:55Z</time>
      </trkpt>
      <trkpt lat="47.16285" lon="8.45363">
        <ele>429.8</ele>
        <time>2023-02-12T08:40:56Z</time>
      </trkpt>
      <trkpt lat="47.1628" lon="8.45362">
        <ele>429.8</ele>
        <time>2023-02-12T08:40:57Z</time>
      </trkpt>
      <trkpt lat="47.16275" lon="8.4536">
        <ele>429.6</ele>
        <time>2023-02-12T08:40:58Z</time>
      </trkpt>
      <trkpt lat="47.16271" lon="8.45358">
        <ele>429.6</ele>
        <time>2023-02-12T08:40:59Z</time>
      </trkpt>
      <trkpt lat="47.16266" lon="8.45356">
        <ele>429.6</ele>
        <time>2023-02-12T08:41:00Z</time>
      </trkpt>
      <trkpt lat="47.16261" lon="8.45354">
        <ele>429.6</ele>
        <time>2023-02-12T08:41:01Z</time>
      </trkpt>
      <trkpt lat="47.16256" lon="8.45352">
        <ele>429.4</ele>
        <time>2023-02-12T08:41:02Z</time>
      </trkpt>
      <trkpt lat="47.1625" lon="8.45351">
        <ele>429.4</ele>
        <time>2023-02-12T08:41:03Z</time>
      </trkpt>
      <trkpt lat="47.16246" lon="8.45349">
        <ele>429.4</ele>
        <time>2023-02-12T08:41:04Z</time>
      </trkpt>
      <trkpt lat="47.1624" lon="8.45347">
        <ele>429.2</ele>
        <time>2023-02-12T08:41:05Z</time>
      </trkpt>
      <trkpt lat="47.16235" lon="8.45346">
        <ele>429.2</ele>
        <time>2023-02-12T08:41:06Z</time>
      </trkpt>
      <trkpt lat="47.16229" lon="8.45343">
        <ele>429.2</ele>
        <time>2023-02-12T08:41:07Z</time>
      </trkpt>
      <trkpt lat="47.16224" lon="8.45341">
        <ele>429</ele>
        <time>2023-02-12T08:41:08Z</time>
      </trkpt>
      <trkpt lat="47.16218" lon="8.4534">
        <ele>429</ele>
        <time>2023-02-12T08:41:09Z</time>
      </trkpt>
      <trkpt lat="47.16213" lon="8.45338">
        <ele>428.8</ele>
        <time>2023-02-12T08:41:10Z</time>
      </trkpt>
      <trkpt lat="47.16207" lon="8.45336">
        <ele>428.8</ele>
        <time>2023-02-12T08:41:11Z</time>
      </trkpt>
      <trkpt lat="47.16202" lon="8.45335">
        <ele>428.8</ele>
        <time>2023-02-12T08:41:12Z</time>
      </trkpt>
      <trkpt lat="47.16197" lon="8.45333">
        <ele>428.8</ele>
        <time>2023-02-12T08:41:13Z</time>
      </trkpt>
      <trkpt lat="47.16192" lon="8.45331">
        <ele>428.8</ele>
        <time>2023-02-12T08:41:14Z</time>
      </trkpt>
      <trkpt lat="47.16187" lon="8.4533">
        <ele>428.8</ele>
        <time>2023-02-12T08:41:15Z</time>
      </trkpt>
      <trkpt lat="47.16182" lon="8.45328">
        <ele>428.8</ele>
        <time>2023-02-12T08:41:16Z</time>
      </trkpt>
      <trkpt lat="47.16177" lon="8.45326">
        <ele>428.8</ele>
        <time>2023-02-12T08:41:17Z</time>
      </trkpt>
      <trkpt lat="47.16173" lon="8.45324">
        <ele>428.8</ele>
        <time>2023-02-12T08:41:18Z</time>
      </trkpt>
      <trkpt lat="47.16168" lon="8.45323">
        <ele>428.8</ele>
        <time>2023-02-12T08:41:19Z</time>
      </trkpt>
      <trkpt lat="47.16165" lon="8.45322">
        <ele>429.2</ele>
        <time>2023-02-12T08:41:20Z</time>
      </trkpt>
      <trkpt lat="47.16161" lon="8.45323">
        <ele>429.4</ele>
        <time>2023-02-12T08:41:21Z</time>
      </trkpt>
      <trkpt lat="47.16157" lon="8.45324">
        <ele>429.6</ele>
        <time>2023-02-12T08:41:22Z</time>
      </trkpt>
      <trkpt lat="47.16154" lon="8.45326">
        <ele>429.8</ele>
        <time>2023-02-12T08:41:23Z</time>
      </trkpt>
      <trkpt lat="47.1615" lon="8.45328">
        <ele>430.2</ele>
        <time>2023-02-12T08:41:24Z</time>
      </trkpt>
      <trkpt lat="47.16145" lon="8.4533">
        <ele>430.6</ele>
        <time>2023-02-12T08:41:25Z</time>
      </trkpt>
      <trkpt lat="47.1614" lon="8.45332">
        <ele>430.6</ele>
        <time>2023-02-12T08:41:26Z</time>
      </trkpt>
      <trkpt lat="47.16136" lon="8.45335">
        <ele>430.8</ele>
        <time>2023-02-12T08:41:27Z</time>
      </trkpt>
      <trkpt lat="47.16131" lon="8.45338">
        <ele>430.8</ele>
        <time>2023-02-12T08:41:28Z</time>
      </trkpt>
      <trkpt lat="47.16126" lon="8.45341">
        <ele>431</ele>
        <time>2023-02-12T08:41:29Z</time>
      </trkpt>
      <trkpt lat="47.16121" lon="8.45344">
        <ele>431</ele>
        <time>2023-02-12T08:41:30Z</time>
      </trkpt>
      <trkpt lat="47.16116" lon="8.45348">
        <ele>431</ele>
        <time>2023-02-12T08:41:31Z</time>
      </trkpt>
      <trkpt lat="47.16111" lon="8.45353">
        <ele>430.8</ele>
        <time>2023-02-12T08:41:32Z</time>
      </trkpt>
      <trkpt lat="47.16106" lon="8.45358">
        <ele>430.8</ele>
        <time>2023-02-12T08:41:33Z</time>
      </trkpt>
      <trkpt lat="47.16101" lon="8.45363">
        <ele>430.6</ele>
        <time>2023-02-12T08:41:34Z</time>
      </trkpt>
      <trkpt lat="47.16096" lon="8.45368">
        <ele>430.6</ele>
        <time>2023-02-12T08:41:35Z</time>
      </trkpt>
      <trkpt lat="47.16091" lon="8.45373">
        <ele>430.2</ele>
        <time>2023-02-12T08:41:36Z</time>
      </trkpt>
      <trkpt lat="47.16086" lon="8.45377">
        <ele>430</ele>
        <time>2023-02-12T08:41:37Z</time>
      </trkpt>
      <trkpt lat="47.16081" lon="8.45381">
        <ele>430</ele>
        <time>2023-02-12T08:41:38Z</time>
      </trkpt>
      <trkpt lat="47.16076" lon="8.45385">
        <ele>429.8</ele>
        <time>2023-02-12T08:41:39Z</time>
      </trkpt>
      <trkpt lat="47.1607" lon="8.45388">
        <ele>429.6</ele>
        <time>2023-02-12T08:41:40Z</time>
      </trkpt>
      <trkpt lat="47.16064" lon="8.4539">
        <ele>429.4</ele>
        <time>2023-02-12T08:41:41Z</time>
      </trkpt>
      <trkpt lat="47.16059" lon="8.45392">
        <ele>429.2</ele>
        <time>2023-02-12T08:41:42Z</time>
      </trkpt>
      <trkpt lat="47.16053" lon="8.45394">
        <ele>429</ele>
        <time>2023-02-12T08:41:43Z</time>
      </trkpt>
      <trkpt lat="47.16047" lon="8.45395">
        <ele>429</ele>
        <time>2023-02-12T08:41:44Z</time>
      </trkpt>
      <trkpt lat="47.16042" lon="8.45397">
        <ele>428.8</ele>
        <time>2023-02-12T08:41:45Z</time>
      </trkpt>
      <trkpt lat="47.16036" lon="8.45398">
        <ele>428.8</ele>
        <time>2023-02-12T08:41:46Z</time>
      </trkpt>
      <trkpt lat="47.16029" lon="8.45399">
        <ele>428.6</ele>
        <time>2023-02-12T08:41:47Z</time>
      </trkpt>
      <trkpt lat="47.16023" lon="8.45401">
        <ele>428.4</ele>
        <time>2023-02-12T08:41:48Z</time>
      </trkpt>
      <trkpt lat="47.16017" lon="8.45403">
        <ele>428.2</ele>
        <time>2023-02-12T08:41:49Z</time>
      </trkpt>
      <trkpt lat="47.16011" lon="8.45406">
        <ele>428</ele>
        <time>2023-02-12T08:41:50Z</time>
      </trkpt>
      <trkpt lat="47.16004" lon="8.4541">
        <ele>428</ele>
        <time>2023-02-12T08:41:51Z</time>
      </trkpt>
      <trkpt lat="47.15997" lon="8.45415">
        <ele>427.8</ele>
        <time>2023-02-12T08:41:52Z</time>
      </trkpt>
      <trkpt lat="47.1599" lon="8.45421">
        <ele>427.6</ele>
        <time>2023-02-12T08:41:53Z</time>
      </trkpt>
      <trkpt lat="47.15983" lon="8.45428">
        <ele>427.4</ele>
        <time>2023-02-12T08:41:54Z</time>
      </trkpt>
      <trkpt lat="47.15976" lon="8.45435">
        <ele>427</ele>
        <time>2023-02-12T08:41:55Z</time>
      </trkpt>
      <trkpt lat="47.15968" lon="8.45441">
        <ele>426.6</ele>
        <time>2023-02-12T08:41:56Z</time>
      </trkpt>
      <trkpt lat="47.1596" lon="8.45444">
        <ele>425.8</ele>
        <time>2023-02-12T08:41:57Z</time>
      </trkpt>
      <trkpt lat="47.15952" lon="8.45444">
        <ele>425.4</ele>
        <time>2023-02-12T08:41:58Z</time>
      </trkpt>
      <trkpt lat="47.15944" lon="8.45445">
        <ele>424.6</ele>
        <time>2023-02-12T08:41:59Z</time>
      </trkpt>
      <trkpt lat="47.15937" lon="8.45445">
        <ele>424.2</ele>
        <time>2023-02-12T08:42:00Z</time>
      </trkpt>
      <trkpt lat="47.1593" lon="8.45445">
        <ele>423.8</ele>
        <time>2023-02-12T08:42:01Z</time>
      </trkpt>
      <trkpt lat="47.15923" lon="8.45444">
        <ele>423.8</ele>
        <time>2023-02-12T08:42:02Z</time>
      </trkpt>
      <trkpt lat="47.15918" lon="8.45444">
        <ele>423.6</ele>
        <time>2023-02-12T08:42:03Z</time>
      </trkpt>
      <trkpt lat="47.15912" lon="8.45445">
        <ele>423.6</ele>
        <time>2023-02-12T08:42:04Z</time>
      </trkpt>
      <trkpt lat="47.15907" lon="8.45445">
        <ele>423.6</ele>
        <time>2023-02-12T08:42:05Z</time>
      </trkpt>
      <trkpt lat="47.15902" lon="8.45446">
        <ele>423.8</ele>
        <time>2023-02-12T08:42:06Z</time>
      </trkpt>
      <trkpt lat="47.15897" lon="8.45447">
        <ele>424</ele>
        <time>2023-02-12T08:42:07Z</time>
      </trkpt>
      <trkpt lat="47.15893" lon="8.45449">
        <ele>424.4</ele>
        <time>2023-02-12T08:42:08Z</time>
      </trkpt>
      <trkpt lat="47.15888" lon="8.4545">
        <ele>424.6</ele>
        <time>2023-02-12T08:42:09Z</time>
      </trkpt>
      <trkpt lat="47.15883" lon="8.45452">
        <ele>425</ele>
        <time>2023-02-12T08:42:10Z</time>
      </trkpt>
      <trkpt lat="47.15879" lon="8.45454">
        <ele>425.2</ele>
        <time>2023-02-12T08:42:11Z</time>
      </trkpt>
      <trkpt lat="47.15874" lon="8.45456">
        <ele>425.4</ele>
        <time>2023-02-12T08:42:12Z</time>
      </trkpt>
      <trkpt lat="47.15869" lon="8.45458">
        <ele>425.4</ele>
        <time>2023-02-12T08:42:13Z</time>
      </trkpt>
      <trkpt lat="47.15863" lon="8.4546">
        <ele>425.4</ele>
        <time>2023-02-12T08:42:14Z</time>
      </trkpt>
      <trkpt lat="47.15857" lon="8.45463">
        <ele>425.6</ele>
        <time>2023-02-12T08:42:15Z</time>
      </trkpt>
      <trkpt lat="47.15851" lon="8.45465">
        <ele>425.6</ele>
        <time>2023-02-12T08:42:16Z</time>
      </trkpt>
      <trkpt lat="47.15845" lon="8.45468">
        <ele>425.4</ele>
        <time>2023-02-12T08:42:17Z</time>
      </trkpt>
      <trkpt lat="47.15838" lon="8.45469">
        <ele>425.4</ele>
        <time>2023-02-12T08:42:18Z</time>
      </trkpt>
      <trkpt lat="47.15831" lon="8.4547">
        <ele>425.2</ele>
        <time>2023-02-12T08:42:19Z</time>
      </trkpt>
      <trkpt lat="47.15823" lon="8.45471">
        <ele>425</ele>
        <time>2023-02-12T08:42:20Z</time>
      </trkpt>
      <trkpt lat="47.15816" lon="8.45472">
        <ele>424.8</ele>
        <time>2023-02-12T08:42:21Z</time>
      </trkpt>
      <trkpt lat="47.15807" lon="8.45471">
        <ele>424.2</ele>
        <time>2023-02-12T08:42:22Z</time>
      </trkpt>
      <trkpt lat="47.15799" lon="8.4547">
        <ele>424</ele>
        <time>2023-02-12T08:42:23Z</time>
      </trkpt>
      <trkpt lat="47.15791" lon="8.45468">
        <ele>423.2</ele>
        <time>2023-02-12T08:42:24Z</time>
      </trkpt>
      <trkpt lat="47.15784" lon="8.45465">
        <ele>422.8</ele>
        <time>2023-02-12T08:42:25Z</time>
      </trkpt>
      <trkpt lat="47.15776" lon="8.45461">
        <ele>422.4</ele>
        <time>2023-02-12T08:42:26Z</time>
      </trkpt>
      <trkpt lat="47.15768" lon="8.45456">
        <ele>421.8</ele>
        <time>2023-02-12T08:42:27Z</time>
      </trkpt>
      <trkpt lat="47.15762" lon="8.4545">
        <ele>421.2</ele>
        <time>2023-02-12T08:42:28Z</time>
      </trkpt>
      <trkpt lat="47.15757" lon="8.45444">
        <ele>420.8</ele>
        <time>2023-02-12T08:42:29Z</time>
      </trkpt>
      <trkpt lat="47.15751" lon="8.45439">
        <ele>420.4</ele>
        <time>2023-02-12T08:42:30Z</time>
      </trkpt>
      <trkpt lat="47.15747" lon="8.45432">
        <ele>419.8</ele>
        <time>2023-02-12T08:42:31Z</time>
      </trkpt>
      <trkpt lat="47.15743" lon="8.45426">
        <ele>419.4</ele>
        <time>2023-02-12T08:42:32Z</time>
      </trkpt>
      <trkpt lat="47.15739" lon="8.45419">
        <ele>419</ele>
        <time>2023-02-12T08:42:33Z</time>
      </trkpt>
      <trkpt lat="47.15735" lon="8.45412">
        <ele>418.8</ele>
        <time>2023-02-12T08:42:34Z</time>
      </trkpt>
      <trkpt lat="47.15732" lon="8.45406">
        <ele>418.6</ele>
        <time>2023-02-12T08:42:35Z</time>
      </trkpt>
      <trkpt lat="47.15729" lon="8.45401">
        <ele>418.4</ele>
        <time>2023-02-12T08:42:36Z</time>
      </trkpt>
      <trkpt lat="47.15725" lon="8.45395">
        <ele>418.2</ele>
        <time>2023-02-12T08:42:37Z</time>
      </trkpt>
      <trkpt lat="47.15722" lon="8.45389">
        <ele>418.2</ele>
        <time>2023-02-12T08:42:38Z</time>
      </trkpt>
      <trkpt lat="47.15719" lon="8.45383">
        <ele>418</ele>
        <time>2023-02-12T08:42:39Z</time>
      </trkpt>
      <trkpt lat="47.15717" lon="8.45378">
        <ele>418</ele>
        <time>2023-02-12T08:42:40Z</time>
      </trkpt>
      <trkpt lat="47.15714" lon="8.45373">
        <ele>418</ele>
        <time>2023-02-12T08:42:41Z</time>
      </trkpt>
      <trkpt lat="47.15711" lon="8.45367">
        <ele>418</ele>
        <time>2023-02-12T08:42:42Z</time>
      </trkpt>
      <trkpt lat="47.15708" lon="8.45362">
        <ele>418.2</ele>
        <time>2023-02-12T08:42:43Z</time>
      </trkpt>
      <trkpt lat="47.15705" lon="8.45357">
        <ele>418.2</ele>
        <time>2023-02-12T08:42:44Z</time>
      </trkpt>
      <trkpt lat="47.15701" lon="8.45351">
        <ele>418.4</ele>
        <time>2023-02-12T08:42:45Z</time>
      </trkpt>
      <trkpt lat="47.15698" lon="8.45346">
        <ele>418.6</ele>
        <time>2023-02-12T08:42:46Z</time>
      </trkpt>
      <trkpt lat="47.15695" lon="8.45341">
        <ele>418.6</ele>
        <time>2023-02-12T08:42:47Z</time>
      </trkpt>
      <trkpt lat="47.15692" lon="8.45335">
        <ele>418.8</ele>
        <time>2023-02-12T08:42:48Z</time>
      </trkpt>
      <trkpt lat="47.15689" lon="8.45331">
        <ele>419</ele>
        <time>2023-02-12T08:42:49Z</time>
      </trkpt>
      <trkpt lat="47.15686" lon="8.45326">
        <ele>419.2</ele>
        <time>2023-02-12T08:42:50Z</time>
      </trkpt>
      <trkpt lat="47.15683" lon="8.45322">
        <ele>419.4</ele>
        <time>2023-02-12T08:42:51Z</time>
      </trkpt>
      <trkpt lat="47.15679" lon="8.45318">
        <ele>419.6</ele>
        <time>2023-02-12T08:42:52Z</time>
      </trkpt>
      <trkpt lat="47.15676" lon="8.45314">
        <ele>419.8</ele>
        <time>2023-02-12T08:42:53Z</time>
      </trkpt>
      <trkpt lat="47.15673" lon="8.4531">
        <ele>419.8</ele>
        <time>2023-02-12T08:42:54Z</time>
      </trkpt>
      <trkpt lat="47.15669" lon="8.45305">
        <ele>420</ele>
        <time>2023-02-12T08:42:55Z</time>
      </trkpt>
      <trkpt lat="47.15665" lon="8.45301">
        <ele>420.2</ele>
        <time>2023-02-12T08:42:56Z</time>
      </trkpt>
      <trkpt lat="47.15662" lon="8.45298">
        <ele>420.4</ele>
        <time>2023-02-12T08:42:57Z</time>
      </trkpt>
      <trkpt lat="47.15658" lon="8.45294">
        <ele>420.6</ele>
        <time>2023-02-12T08:42:58Z</time>
      </trkpt>
      <trkpt lat="47.15654" lon="8.4529">
        <ele>420.6</ele>
        <time>2023-02-12T08:42:59Z</time>
      </trkpt>
      <trkpt lat="47.1565" lon="8.45286">
        <ele>420.8</ele>
        <time>2023-02-12T08:43:00Z</time>
      </trkpt>
      <trkpt lat="47.15647" lon="8.45283">
        <ele>421</ele>
        <time>2023-02-12T08:43:01Z</time>
      </trkpt>
      <trkpt lat="47.15643" lon="8.4528">
        <ele>421.2</ele>
        <time>2023-02-12T08:43:02Z</time>
      </trkpt>
      <trkpt lat="47.15639" lon="8.45277">
        <ele>421.4</ele>
        <time>2023-02-12T08:43:03Z</time>
      </trkpt>
      <trkpt lat="47.15635" lon="8.45275">
        <ele>421.6</ele>
        <time>2023-02-12T08:43:04Z</time>
      </trkpt>
      <trkpt lat="47.15631" lon="8.45272">
        <ele>421.8</ele>
        <time>2023-02-12T08:43:05Z</time>
      </trkpt>
      <trkpt lat="47.15627" lon="8.45269">
        <ele>422</ele>
        <time>2023-02-12T08:43:06Z</time>
      </trkpt>
      <trkpt lat="47.15623" lon="8.45266">
        <ele>422</ele>
        <time>2023-02-12T08:43:07Z</time>
      </trkpt>
      <trkpt lat="47.15619" lon="8.45263">
        <ele>422.2</ele>
        <time>2023-02-12T08:43:08Z</time>
      </trkpt>
      <trkpt lat="47.15615" lon="8.45261">
        <ele>422.4</ele>
        <time>2023-02-12T08:43:09Z</time>
      </trkpt>
      <trkpt lat="47.15611" lon="8.45258">
        <ele>422.6</ele>
        <time>2023-02-12T08:43:10Z</time>
      </trkpt>
      <trkpt lat="47.15607" lon="8.45256">
        <ele>422.8</ele>
        <time>2023-02-12T08:43:11Z</time>
      </trkpt>
      <trkpt lat="47.15603" lon="8.45254">
        <ele>423</ele>
        <time>2023-02-12T08:43:12Z</time>
      </trkpt>
      <trkpt lat="47.15599" lon="8.45252">
        <ele>423.2</ele>
        <time>2023-02-12T08:43:13Z</time>
      </trkpt>
      <trkpt lat="47.15594" lon="8.4525">
        <ele>423.4</ele>
        <time>2023-02-12T08:43:14Z</time>
      </trkpt>
      <trkpt lat="47.1559" lon="8.45249">
        <ele>423.6</ele>
        <time>2023-02-12T08:43:15Z</time>
      </trkpt>
      <trkpt lat="47.15586" lon="8.45248">
        <ele>423.8</ele>
        <time>2023-02-12T08:43:16Z</time>
      </trkpt>
      <trkpt lat="47.15581" lon="8.45247">
        <ele>424</ele>
        <time>2023-02-12T08:43:17Z</time>
      </trkpt>
      <trkpt lat="47.15577" lon="8.45246">
        <ele>424.2</ele>
        <time>2023-02-12T08:43:18Z</time>
      </trkpt>
      <trkpt lat="47.15573" lon="8.45245">
        <ele>424.4</ele>
        <time>2023-02-12T08:43:19Z</time>
      </trkpt>
      <trkpt lat="47.15568" lon="8.45244">
        <ele>424.6</ele>
        <time>2023-02-12T08:43:20Z</time>
      </trkpt>
      <trkpt lat="47.15564" lon="8.45243">
        <ele>424.6</ele>
        <time>2023-02-12T08:43:21Z</time>
      </trkpt>
      <trkpt lat="47.15559" lon="8.45242">
        <ele>425</ele>
        <time>2023-02-12T08:43:22Z</time>
      </trkpt>
      <trkpt lat="47.15556" lon="8.45242">
        <ele>425.2</ele>
        <time>2023-02-12T08:43:23Z</time>
      </trkpt>
      <trkpt lat="47.15551" lon="8.45241">
        <ele>425.2</ele>
        <time>2023-02-12T08:43:24Z</time>
      </trkpt>
      <trkpt lat="47.15547" lon="8.45241">
        <ele>425.4</ele>
        <time>2023-02-12T08:43:25Z</time>
      </trkpt>
      <trkpt lat="47.15542" lon="8.45241">
        <ele>425.6</ele>
        <time>2023-02-12T08:43:26Z</time>
      </trkpt>
      <trkpt lat="47.15538" lon="8.45241">
        <ele>425.8</ele>
        <time>2023-02-12T08:43:27Z</time>
      </trkpt>
      <trkpt lat="47.15534" lon="8.4524">
        <ele>426</ele>
        <time>2023-02-12T08:43:28Z</time>
      </trkpt>
      <trkpt lat="47.15529" lon="8.45241">
        <ele>426.2</ele>
        <time>2023-02-12T08:43:29Z</time>
      </trkpt>
      <trkpt lat="47.15525" lon="8.45241">
        <ele>426.2</ele>
        <time>2023-02-12T08:43:30Z</time>
      </trkpt>
      <trkpt lat="47.15521" lon="8.45242">
        <ele>426.4</ele>
        <time>2023-02-12T08:43:31Z</time>
      </trkpt>
      <trkpt lat="47.15516" lon="8.45243">
        <ele>426.4</ele>
        <time>2023-02-12T08:43:32Z</time>
      </trkpt>
      <trkpt lat="47.15512" lon="8.45244">
        <ele>426.6</ele>
        <time>2023-02-12T08:43:33Z</time>
      </trkpt>
      <trkpt lat="47.15507" lon="8.45245">
        <ele>426.8</ele>
        <time>2023-02-12T08:43:34Z</time>
      </trkpt>
      <trkpt lat="47.15502" lon="8.45246">
        <ele>427</ele>
        <time>2023-02-12T08:43:35Z</time>
      </trkpt>
      <trkpt lat="47.15498" lon="8.45248">
        <ele>427.2</ele>
        <time>2023-02-12T08:43:36Z</time>
      </trkpt>
      <trkpt lat="47.15493" lon="8.45249">
        <ele>427.2</ele>
        <time>2023-02-12T08:43:37Z</time>
      </trkpt>
      <trkpt lat="47.15488" lon="8.45251">
        <ele>427.4</ele>
        <time>2023-02-12T08:43:38Z</time>
      </trkpt>
      <trkpt lat="47.15484" lon="8.45252">
        <ele>427.4</ele>
        <time>2023-02-12T08:43:39Z</time>
      </trkpt>
      <trkpt lat="47.1548" lon="8.45254">
        <ele>427.6</ele>
        <time>2023-02-12T08:43:40Z</time>
      </trkpt>
      <trkpt lat="47.15475" lon="8.45256">
        <ele>427.8</ele>
        <time>2023-02-12T08:43:41Z</time>
      </trkpt>
      <trkpt lat="47.15471" lon="8.45258">
        <ele>428</ele>
        <time>2023-02-12T08:43:42Z</time>
      </trkpt>
      <trkpt lat="47.15466" lon="8.45261">
        <ele>428</ele>
        <time>2023-02-12T08:43:43Z</time>
      </trkpt>
      <trkpt lat="47.15461" lon="8.45263">
        <ele>428.2</ele>
        <time>2023-02-12T08:43:44Z</time>
      </trkpt>
      <trkpt lat="47.15457" lon="8.45266">
        <ele>428.4</ele>
        <time>2023-02-12T08:43:45Z</time>
      </trkpt>
      <trkpt lat="47.15452" lon="8.45269">
        <ele>428.6</ele>
        <time>2023-02-12T08:43:46Z</time>
      </trkpt>
      <trkpt lat="47.15448" lon="8.45271">
        <ele>428.8</ele>
        <time>2023-02-12T08:43:47Z</time>
      </trkpt>
      <trkpt lat="47.15443" lon="8.45274">
        <ele>429</ele>
        <time>2023-02-12T08:43:48Z</time>
      </trkpt>
      <trkpt lat="47.15439" lon="8.45277">
        <ele>429.2</ele>
        <time>2023-02-12T08:43:49Z</time>
      </trkpt>
      <trkpt lat="47.15435" lon="8.4528">
        <ele>429.4</ele>
        <time>2023-02-12T08:43:50Z</time>
      </trkpt>
      <trkpt lat="47.15431" lon="8.45283">
        <ele>429.6</ele>
        <time>2023-02-12T08:43:51Z</time>
      </trkpt>
      <trkpt lat="47.15427" lon="8.45286">
        <ele>429.6</ele>
        <time>2023-02-12T08:43:52Z</time>
      </trkpt>
      <trkpt lat="47.15422" lon="8.4529">
        <ele>429.8</ele>
        <time>2023-02-12T08:43:53Z</time>
      </trkpt>
      <trkpt lat="47.15418" lon="8.45293">
        <ele>430</ele>
        <time>2023-02-12T08:43:54Z</time>
      </trkpt>
      <trkpt lat="47.15414" lon="8.45297">
        <ele>430.4</ele>
        <time>2023-02-12T08:43:55Z</time>
      </trkpt>
      <trkpt lat="47.1541" lon="8.45301">
        <ele>430.4</ele>
        <time>2023-02-12T08:43:56Z</time>
      </trkpt>
      <trkpt lat="47.15406" lon="8.45306">
        <ele>430.4</ele>
        <time>2023-02-12T08:43:57Z</time>
      </trkpt>
      <trkpt lat="47.15403" lon="8.4531">
        <ele>430.6</ele>
        <time>2023-02-12T08:43:58Z</time>
      </trkpt>
      <trkpt lat="47.154" lon="8.45315">
        <ele>430.8</ele>
        <time>2023-02-12T08:43:59Z</time>
      </trkpt>
      <trkpt lat="47.15396" lon="8.4532">
        <ele>431</ele>
        <time>2023-02-12T08:44:00Z</time>
      </trkpt>
      <trkpt lat="47.15392" lon="8.45325">
        <ele>431</ele>
        <time>2023-02-12T08:44:01Z</time>
      </trkpt>
      <trkpt lat="47.15389" lon="8.45329">
        <ele>431.2</ele>
        <time>2023-02-12T08:44:02Z</time>
      </trkpt>
      <trkpt lat="47.15386" lon="8.45333">
        <ele>431.4</ele>
        <time>2023-02-12T08:44:03Z</time>
      </trkpt>
      <trkpt lat="47.15382" lon="8.45337">
        <ele>431.4</ele>
        <time>2023-02-12T08:44:04Z</time>
      </trkpt>
      <trkpt lat="47.15378" lon="8.45342">
        <ele>431.6</ele>
        <time>2023-02-12T08:44:05Z</time>
      </trkpt>
      <trkpt lat="47.15375" lon="8.45346">
        <ele>431.8</ele>
        <time>2023-02-12T08:44:06Z</time>
      </trkpt>
      <trkpt lat="47.15371" lon="8.4535">
        <ele>432</ele>
        <time>2023-02-12T08:44:07Z</time>
      </trkpt>
      <trkpt lat="47.15367" lon="8.45354">
        <ele>432</ele>
        <time>2023-02-12T08:44:08Z</time>
      </trkpt>
      <trkpt lat="47.15364" lon="8.45359">
        <ele>432.2</ele>
        <time>2023-02-12T08:44:09Z</time>
      </trkpt>
      <trkpt lat="47.1536" lon="8.45363">
        <ele>432.4</ele>
        <time>2023-02-12T08:44:10Z</time>
      </trkpt>
      <trkpt lat="47.15357" lon="8.45368">
        <ele>432.6</ele>
        <time>2023-02-12T08:44:11Z</time>
      </trkpt>
      <trkpt lat="47.15353" lon="8.45372">
        <ele>432.8</ele>
        <time>2023-02-12T08:44:12Z</time>
      </trkpt>
      <trkpt lat="47.15349" lon="8.45376">
        <ele>432.8</ele>
        <time>2023-02-12T08:44:13Z</time>
      </trkpt>
      <trkpt lat="47.15346" lon="8.45381">
        <ele>433</ele>
        <time>2023-02-12T08:44:14Z</time>
      </trkpt>
      <trkpt lat="47.15343" lon="8.45385">
        <ele>433.2</ele>
        <time>2023-02-12T08:44:15Z</time>
      </trkpt>
      <trkpt lat="47.15339" lon="8.45388">
        <ele>433.4</ele>
        <time>2023-02-12T08:44:16Z</time>
      </trkpt>
      <trkpt lat="47.15335" lon="8.45393">
        <ele>433.6</ele>
        <time>2023-02-12T08:44:17Z</time>
      </trkpt>
      <trkpt lat="47.15331" lon="8.45397">
        <ele>433.8</ele>
        <time>2023-02-12T08:44:18Z</time>
      </trkpt>
      <trkpt lat="47.15327" lon="8.45401">
        <ele>434</ele>
        <time>2023-02-12T08:44:19Z</time>
      </trkpt>
      <trkpt lat="47.15323" lon="8.45405">
        <ele>434</ele>
        <time>2023-02-12T08:44:20Z</time>
      </trkpt>
      <trkpt lat="47.1532" lon="8.4541">
        <ele>434.2</ele>
        <time>2023-02-12T08:44:21Z</time>
      </trkpt>
      <trkpt lat="47.15317" lon="8.45414">
        <ele>434.4</ele>
        <time>2023-02-12T08:44:22Z</time>
      </trkpt>
      <trkpt lat="47.15313" lon="8.45419">
        <ele>434.4</ele>
        <time>2023-02-12T08:44:23Z</time>
      </trkpt>
      <trkpt lat="47.15309" lon="8.45423">
        <ele>434.6</ele>
        <time>2023-02-12T08:44:24Z</time>
      </trkpt>
      <trkpt lat="47.15306" lon="8.45428">
        <ele>434.8</ele>
        <time>2023-02-12T08:44:25Z</time>
      </trkpt>
      <trkpt lat="47.15302" lon="8.45432">
        <ele>434.8</ele>
        <time>2023-02-12T08:44:26Z</time>
      </trkpt>
      <trkpt lat="47.15299" lon="8.45436">
        <ele>435</ele>
        <time>2023-02-12T08:44:27Z</time>
      </trkpt>
      <trkpt lat="47.15296" lon="8.4544">
        <ele>435.2</ele>
        <time>2023-02-12T08:44:28Z</time>
      </trkpt>
      <trkpt lat="47.15292" lon="8.45443">
        <ele>435.2</ele>
        <time>2023-02-12T08:44:29Z</time>
      </trkpt>
      <trkpt lat="47.15288" lon="8.45447">
        <ele>435.4</ele>
        <time>2023-02-12T08:44:30Z</time>
      </trkpt>
      <trkpt lat="47.15284" lon="8.4545">
        <ele>435.6</ele>
        <time>2023-02-12T08:44:31Z</time>
      </trkpt>
      <trkpt lat="47.1528" lon="8.45454">
        <ele>435.6</ele>
        <time>2023-02-12T08:44:32Z</time>
      </trkpt>
      <trkpt lat="47.15276" lon="8.45457">
        <ele>435.8</ele>
        <time>2023-02-12T08:44:33Z</time>
      </trkpt>
      <trkpt lat="47.15272" lon="8.45461">
        <ele>436</ele>
        <time>2023-02-12T08:44:34Z</time>
      </trkpt>
      <trkpt lat="47.15269" lon="8.45463">
        <ele>436.2</ele>
        <time>2023-02-12T08:44:35Z</time>
      </trkpt>
      <trkpt lat="47.15265" lon="8.45466">
        <ele>436.4</ele>
        <time>2023-02-12T08:44:36Z</time>
      </trkpt>
      <trkpt lat="47.15261" lon="8.45469">
        <ele>436.6</ele>
        <time>2023-02-12T08:44:37Z</time>
      </trkpt>
      <trkpt lat="47.15257" lon="8.45472">
        <ele>436.6</ele>
        <time>2023-02-12T08:44:38Z</time>
      </trkpt>
      <trkpt lat="47.15253" lon="8.45475">
        <ele>436.8</ele>
        <time>2023-02-12T08:44:39Z</time>
      </trkpt>
      <trkpt lat="47.15248" lon="8.45477">
        <ele>436.8</ele>
        <time>2023-02-12T08:44:40Z</time>
      </trkpt>
      <trkpt lat="47.15244" lon="8.4548">
        <ele>436.8</ele>
        <time>2023-02-12T08:44:41Z</time>
      </trkpt>
      <trkpt lat="47.15239" lon="8.45482">
        <ele>436.8</ele>
        <time>2023-02-12T08:44:42Z</time>
      </trkpt>
      <trkpt lat="47.15234" lon="8.45484">
        <ele>436.8</ele>
        <time>2023-02-12T08:44:43Z</time>
      </trkpt>
      <trkpt lat="47.15229" lon="8.45486">
        <ele>436.6</ele>
        <time>2023-02-12T08:44:44Z</time>
      </trkpt>
      <trkpt lat="47.15224" lon="8.45488">
        <ele>436.6</ele>
        <time>2023-02-12T08:44:45Z</time>
      </trkpt>
      <trkpt lat="47.15219" lon="8.4549">
        <ele>436.4</ele>
        <time>2023-02-12T08:44:46Z</time>
      </trkpt>
      <trkpt lat="47.15214" lon="8.45491">
        <ele>436.4</ele>
        <time>2023-02-12T08:44:47Z</time>
      </trkpt>
      <trkpt lat="47.15208" lon="8.45492">
        <ele>436.4</ele>
        <time>2023-02-12T08:44:48Z</time>
      </trkpt>
      <trkpt lat="47.15202" lon="8.45494">
        <ele>436.2</ele>
        <time>2023-02-12T08:44:49Z</time>
      </trkpt>
      <trkpt lat="47.15197" lon="8.45495">
        <ele>436</ele>
        <time>2023-02-12T08:44:50Z</time>
      </trkpt>
      <trkpt lat="47.15192" lon="8.45496">
        <ele>436</ele>
        <time>2023-02-12T08:44:51Z</time>
      </trkpt>
      <trkpt lat="47.15186" lon="8.45496">
        <ele>435.8</ele>
        <time>2023-02-12T08:44:52Z</time>
      </trkpt>
      <trkpt lat="47.1518" lon="8.45498">
        <ele>435.8</ele>
        <time>2023-02-12T08:44:53Z</time>
      </trkpt>
      <trkpt lat="47.15174" lon="8.45499">
        <ele>435.6</ele>
        <time>2023-02-12T08:44:54Z</time>
      </trkpt>
      <trkpt lat="47.15167" lon="8.455">
        <ele>435.4</ele>
        <time>2023-02-12T08:44:55Z</time>
      </trkpt>
      <trkpt lat="47.15161" lon="8.45501">
        <ele>435.2</ele>
        <time>2023-02-12T08:44:56Z</time>
      </trkpt>
      <trkpt lat="47.15154" lon="8.45501">
        <ele>435</ele>
        <time>2023-02-12T08:44:57Z</time>
      </trkpt>
      <trkpt lat="47.15148" lon="8.45502">
        <ele>434.8</ele>
        <time>2023-02-12T08:44:58Z</time>
      </trkpt>
      <trkpt lat="47.15142" lon="8.45502">
        <ele>434.6</ele>
        <time>2023-02-12T08:44:59Z</time>
      </trkpt>
      <trkpt lat="47.15136" lon="8.45502">
        <ele>434.6</ele>
        <time>2023-02-12T08:45:00Z</time>
      </trkpt>
      <trkpt lat="47.15129" lon="8.45501">
        <ele>434.2</ele>
        <time>2023-02-12T08:45:01Z</time>
      </trkpt>
      <trkpt lat="47.15122" lon="8.455">
        <ele>433.6</ele>
        <time>2023-02-12T08:45:02Z</time>
      </trkpt>
      <trkpt lat="47.15115" lon="8.45499">
        <ele>433.4</ele>
        <time>2023-02-12T08:45:03Z</time>
      </trkpt>
      <trkpt lat="47.15108" lon="8.45498">
        <ele>433.2</ele>
        <time>2023-02-12T08:45:04Z</time>
      </trkpt>
      <trkpt lat="47.15101" lon="8.45498">
        <ele>432.8</ele>
        <time>2023-02-12T08:45:05Z</time>
      </trkpt>
      <trkpt lat="47.15094" lon="8.45497">
        <ele>432.4</ele>
        <time>2023-02-12T08:45:06Z</time>
      </trkpt>
      <trkpt lat="47.15087" lon="8.45496">
        <ele>431.8</ele>
        <time>2023-02-12T08:45:07Z</time>
      </trkpt>
      <trkpt lat="47.15079" lon="8.45495">
        <ele>431.4</ele>
        <time>2023-02-12T08:45:08Z</time>
      </trkpt>
      <trkpt lat="47.15071" lon="8.45494">
        <ele>431</ele>
        <time>2023-02-12T08:45:09Z</time>
      </trkpt>
      <trkpt lat="47.15063" lon="8.45492">
        <ele>430.2</ele>
        <time>2023-02-12T08:45:10Z</time>
      </trkpt>
      <trkpt lat="47.15056" lon="8.4549">
        <ele>429.8</ele>
        <time>2023-02-12T08:45:11Z</time>
      </trkpt>
      <trkpt lat="47.15049" lon="8.45488">
        <ele>429.6</ele>
        <time>2023-02-12T08:45:12Z</time>
      </trkpt>
      <trkpt lat="47.15043" lon="8.45487">
        <ele>429.4</ele>
        <time>2023-02-12T08:45:13Z</time>
      </trkpt>
      <trkpt lat="47.15038" lon="8.45486">
        <ele>429.4</ele>
        <time>2023-02-12T08:45:14Z</time>
      </trkpt>
      <trkpt lat="47.15032" lon="8.45486">
        <ele>429.2</ele>
        <time>2023-02-12T08:45:15Z</time>
      </trkpt>
      <trkpt lat="47.15027" lon="8.45485">
        <ele>429.2</ele>
        <time>2023-02-12T08:45:16Z</time>
      </trkpt>
      <trkpt lat="47.15022" lon="8.45485">
        <ele>429.4</ele>
        <time>2023-02-12T08:45:17Z</time>
      </trkpt>
      <trkpt lat="47.15017" lon="8.45484">
        <ele>429.4</ele>
        <time>2023-02-12T08:45:18Z</time>
      </trkpt>
      <trkpt lat="47.15012" lon="8.45483">
        <ele>429.6</ele>
        <time>2023-02-12T08:45:19Z</time>
      </trkpt>
      <trkpt lat="47.15007" lon="8.45483">
        <ele>429.8</ele>
        <time>2023-02-12T08:45:20Z</time>
      </trkpt>
      <trkpt lat="47.15002" lon="8.45483">
        <ele>430</ele>
        <time>2023-02-12T08:45:21Z</time>
      </trkpt>
      <trkpt lat="47.14998" lon="8.45483">
        <ele>430.2</ele>
        <time>2023-02-12T08:45:22Z</time>
      </trkpt>
      <trkpt lat="47.14994" lon="8.45483">
        <ele>430.4</ele>
        <time>2023-02-12T08:45:23Z</time>
      </trkpt>
      <trkpt lat="47.1499" lon="8.45483">
        <ele>430.4</ele>
        <time>2023-02-12T08:45:24Z</time>
      </trkpt>
      <trkpt lat="47.14985" lon="8.45482">
        <ele>430.6</ele>
        <time>2023-02-12T08:45:25Z</time>
      </trkpt>
      <trkpt lat="47.14981" lon="8.45482">
        <ele>430.6</ele>
        <time>2023-02-12T08:45:26Z</time>
      </trkpt>
      <trkpt lat="47.14976" lon="8.45481">
        <ele>430.8</ele>
        <time>2023-02-12T08:45:27Z</time>
      </trkpt>
      <trkpt lat="47.14971" lon="8.4548">
        <ele>431</ele>
        <time>2023-02-12T08:45:28Z</time>
      </trkpt>
      <trkpt lat="47.14966" lon="8.45477">
        <ele>431</ele>
        <time>2023-02-12T08:45:29Z</time>
      </trkpt>
      <trkpt lat="47.14961" lon="8.45474">
        <ele>431</ele>
        <time>2023-02-12T08:45:30Z</time>
      </trkpt>
      <trkpt lat="47.14955" lon="8.4547">
        <ele>431.2</ele>
        <time>2023-02-12T08:45:31Z</time>
      </trkpt>
      <trkpt lat="47.14949" lon="8.45467">
        <ele>431.2</ele>
        <time>2023-02-12T08:45:32Z</time>
      </trkpt>
      <trkpt lat="47.14942" lon="8.45464">
        <ele>430.8</ele>
        <time>2023-02-12T08:45:33Z</time>
      </trkpt>
      <trkpt lat="47.14934" lon="8.45461">
        <ele>430.6</ele>
        <time>2023-02-12T08:45:34Z</time>
      </trkpt>
      <trkpt lat="47.14926" lon="8.45459">
        <ele>430.2</ele>
        <time>2023-02-12T08:45:35Z</time>
      </trkpt>
      <trkpt lat="47.14918" lon="8.45457">
        <ele>429.6</ele>
        <time>2023-02-12T08:45:36Z</time>
      </trkpt>
      <trkpt lat="47.1491" lon="8.45456">
        <ele>429</ele>
        <time>2023-02-12T08:45:37Z</time>
      </trkpt>
      <trkpt lat="47.14901" lon="8.45455">
        <ele>428.6</ele>
        <time>2023-02-12T08:45:38Z</time>
      </trkpt>
      <trkpt lat="47.14893" lon="8.45456">
        <ele>428.6</ele>
        <time>2023-02-12T08:45:39Z</time>
      </trkpt>
      <trkpt lat="47.14884" lon="8.45458">
        <ele>428</ele>
        <time>2023-02-12T08:45:40Z</time>
      </trkpt>
      <trkpt lat="47.14876" lon="8.45461">
        <ele>427.4</ele>
        <time>2023-02-12T08:45:41Z</time>
      </trkpt>
      <trkpt lat="47.14869" lon="8.45465">
        <ele>426.8</ele>
        <time>2023-02-12T08:45:42Z</time>
      </trkpt>
      <trkpt lat="47.14862" lon="8.4547">
        <ele>426.4</ele>
        <time>2023-02-12T08:45:43Z</time>
      </trkpt>
      <trkpt lat="47.14855" lon="8.45475">
        <ele>426</ele>
        <time>2023-02-12T08:45:44Z</time>
      </trkpt>
      <trkpt lat="47.14848" lon="8.45479">
        <ele>425.8</ele>
        <time>2023-02-12T08:45:45Z</time>
      </trkpt>
      <trkpt lat="47.1484" lon="8.45484">
        <ele>425.4</ele>
        <time>2023-02-12T08:45:46Z</time>
      </trkpt>
      <trkpt lat="47.14832" lon="8.45488">
        <ele>425.2</ele>
        <time>2023-02-12T08:45:47Z</time>
      </trkpt>
      <trkpt lat="47.14824" lon="8.45492">
        <ele>424.8</ele>
        <time>2023-02-12T08:45:48Z</time>
      </trkpt>
      <trkpt lat="47.14816" lon="8.45495">
        <ele>424.6</ele>
        <time>2023-02-12T08:45:49Z</time>
      </trkpt>
      <trkpt lat="47.14808" lon="8.45499">
        <ele>424</ele>
        <time>2023-02-12T08:45:50Z</time>
      </trkpt>
      <trkpt lat="47.148" lon="8.45504">
        <ele>423.6</ele>
        <time>2023-02-12T08:45:51Z</time>
      </trkpt>
      <trkpt lat="47.14792" lon="8.45509">
        <ele>423.2</ele>
        <time>2023-02-12T08:45:52Z</time>
      </trkpt>
      <trkpt lat="47.14784" lon="8.45515">
        <ele>422.6</ele>
        <time>2023-02-12T08:45:53Z</time>
      </trkpt>
      <trkpt lat="47.14777" lon="8.4552">
        <ele>422.2</ele>
        <time>2023-02-12T08:45:54Z</time>
      </trkpt>
      <trkpt lat="47.1477" lon="8.45526">
        <ele>421.8</ele>
        <time>2023-02-12T08:45:55Z</time>
      </trkpt>
      <trkpt lat="47.14763" lon="8.45532">
        <ele>421.4</ele>
        <time>2023-02-12T08:45:56Z</time>
      </trkpt>
      <trkpt lat="47.14756" lon="8.45537">
        <ele>421</ele>
        <time>2023-02-12T08:45:57Z</time>
      </trkpt>
      <trkpt lat="47.1475" lon="8.45542">
        <ele>420.8</ele>
        <time>2023-02-12T08:45:58Z</time>
      </trkpt>
      <trkpt lat="47.14744" lon="8.45547">
        <ele>420.6</ele>
        <time>2023-02-12T08:45:59Z</time>
      </trkpt>
      <trkpt lat="47.14739" lon="8.45552">
        <ele>420.4</ele>
        <time>2023-02-12T08:46:00Z</time>
      </trkpt>
      <trkpt lat="47.14734" lon="8.45557">
        <ele>420.2</ele>
        <time>2023-02-12T08:46:01Z</time>
      </trkpt>
      <trkpt lat="47.14728" lon="8.45561">
        <ele>420.2</ele>
        <time>2023-02-12T08:46:02Z</time>
      </trkpt>
      <trkpt lat="47.14722" lon="8.45565">
        <ele>420.2</ele>
        <time>2023-02-12T08:46:03Z</time>
      </trkpt>
      <trkpt lat="47.14716" lon="8.45568">
        <ele>420.2</ele>
        <time>2023-02-12T08:46:04Z</time>
      </trkpt>
      <trkpt lat="47.14711" lon="8.45572">
        <ele>420.2</ele>
        <time>2023-02-12T08:46:05Z</time>
      </trkpt>
      <trkpt lat="47.14706" lon="8.45574">
        <ele>420.2</ele>
        <time>2023-02-12T08:46:06Z</time>
      </trkpt>
      <trkpt lat="47.14702" lon="8.45576">
        <ele>420</ele>
        <time>2023-02-12T08:46:07Z</time>
      </trkpt>
      <trkpt lat="47.147" lon="8.45578">
        <ele>419.8</ele>
        <time>2023-02-12T08:46:08Z</time>
      </trkpt>
      <trkpt lat="47.14699" lon="8.45578">
        <ele>419.4</ele>
        <time>2023-02-12T08:46:09Z</time>
      </trkpt>
      <trkpt lat="47.14699" lon="8.45578">
        <ele>419</ele>
        <time>2023-02-12T08:46:10Z</time>
      </trkpt>
      <trkpt lat="47.14699" lon="8.45578">
        <ele>418.8</ele>
        <time>2023-02-12T08:46:11Z</time>
      </trkpt>
      <trkpt lat="47.14699" lon="8.45578">
        <ele>418.4</ele>
        <time>2023-02-12T08:46:12Z</time>
      </trkpt>
      <trkpt lat="47.14699" lon="8.45578">
        <ele>418.2</ele>
        <time>2023-02-12T08:46:13Z</time>
      </trkpt>
      <trkpt lat="47.14699" lon="8.45578">
        <ele>418.2</ele>
        <time>2023-02-12T08:46:14Z</time>
      </trkpt>
      <trkpt lat="47.14699" lon="8.45578">
        <ele>418</ele>
        <time>2023-02-12T08:46:15Z</time>
      </trkpt>
      <trkpt lat="47.14699" lon="8.45578">
        <ele>418</ele>
        <time>2023-02-12T08:46:16Z</time>
      </trkpt>
      <trkpt lat="47.14699" lon="8.45578">
        <ele>417.8</ele>
        <time>2023-02-12T08:46:17Z</time>
      </trkpt>
      <trkpt lat="47.14699" lon="8.45578">
        <ele>417.8</ele>
        <time>2023-02-12T08:46:18Z</time>
      </trkpt>
      <trkpt lat="47.14699" lon="8.45578">
        <ele>417.8</ele>
        <time>2023-02-12T08:46:19Z</time>
      </trkpt>
      <trkpt lat="47.14699" lon="8.45578">
        <ele>417.8</ele>
        <time>2023-02-12T08:46:20Z</time>
      </trkpt>
      <trkpt lat="47.14699" lon="8.45578">
        <ele>417.8</ele>
        <time>2023-02-12T08:46:21Z</time>
      </trkpt>
      <trkpt lat="47.14699" lon="8.45578">
        <ele>417.8</ele>
        <time>2023-02-12T08:46:22Z</time>
      </trkpt>
      <trkpt lat="47.14699" lon="8.45578">
        <ele>417.8</ele>
        <time>2023-02-12T08:46:23Z</time>
      </trkpt>
      <trkpt lat="47.14699" lon="8.45578">
        <ele>417.8</ele>
        <time>2023-02-12T08:46:24Z</time>
      </trkpt>
      <trkpt lat="47.14699" lon="8.45578">
        <ele>417.8</ele>
        <time>2023-02-12T08:46:25Z</time>
      </trkpt>
      <trkpt lat="47.14699" lon="8.45578">
        <ele>417.8</ele>
        <time>2023-02-12T08:46:26Z</time>
      </trkpt>
      <trkpt lat="47.14699" lon="8.45578">
        <ele>417.8</ele>
        <time>2023-02-12T08:46:27Z</time>
      </trkpt>
      <trkpt lat="47.14699" lon="8.45578">
        <ele>417.8</ele>
        <time>2023-02-12T08:46:28Z</time>
      </trkpt>
      <trkpt lat="47.14699" lon="8.45578">
        <ele>417.8</ele>
        <time>2023-02-12T08:46:29Z</time>
      </trkpt>
      <trkpt lat="47.14699" lon="8.45578">
        <ele>417.8</ele>
        <time>2023-02-12T08:46:30Z</time>
      </trkpt>
      <trkpt lat="47.14699" lon="8.45579">
        <ele>417.8</ele>
        <time>2023-02-12T08:46:31Z</time>
      </trkpt>
      <trkpt lat="47.14699" lon="8.45579">
        <ele>417.8</ele>
        <time>2023-02-12T08:46:32Z</time>
      </trkpt>
      <trkpt lat="47.14699" lon="8.45579">
        <ele>417.6</ele>
        <time>2023-02-12T08:46:33Z</time>
      </trkpt>
      <trkpt lat="47.14699" lon="8.45579">
        <ele>417.6</ele>
        <time>2023-02-12T08:46:34Z</time>
      </trkpt>
      <trkpt lat="47.14699" lon="8.45579">
        <ele>417.6</ele>
        <time>2023-02-12T08:46:35Z</time>
      </trkpt>
      <trkpt lat="47.14698" lon="8.45579">
        <ele>417.6</ele>
        <time>2023-02-12T08:46:36Z</time>
      </trkpt>
      <trkpt lat="47.14696" lon="8.4558">
        <ele>417.6</ele>
        <time>2023-02-12T08:46:37Z</time>
      </trkpt>
      <trkpt lat="47.14694" lon="8.4558">
        <ele>417.6</ele>
        <time>2023-02-12T08:46:38Z</time>
      </trkpt>
      <trkpt lat="47.14691" lon="8.45582">
        <ele>417.6</ele>
        <time>2023-02-12T08:46:39Z</time>
      </trkpt>
      <trkpt lat="47.14688" lon="8.45583">
        <ele>417.4</ele>
        <time>2023-02-12T08:46:40Z</time>
      </trkpt>
      <trkpt lat="47.14685" lon="8.45584">
        <ele>417.4</ele>
        <time>2023-02-12T08:46:41Z</time>
      </trkpt>
      <trkpt lat="47.14682" lon="8.45585">
        <ele>417.4</ele>
        <time>2023-02-12T08:46:42Z</time>
      </trkpt>
      <trkpt lat="47.14678" lon="8.45587">
        <ele>417.4</ele>
        <time>2023-02-12T08:46:43Z</time>
      </trkpt>
      <trkpt lat="47.14675" lon="8.45588">
        <ele>417.2</ele>
        <time>2023-02-12T08:46:44Z</time>
      </trkpt>
      <trkpt lat="47.14672" lon="8.4559">
        <ele>417.2</ele>
        <time>2023-02-12T08:46:45Z</time>
      </trkpt>
      <trkpt lat="47.14669" lon="8.45591">
        <ele>417</ele>
        <time>2023-02-12T08:46:46Z</time>
      </trkpt>
      <trkpt lat="47.14667" lon="8.45592">
        <ele>416.8</ele>
        <time>2023-02-12T08:46:47Z</time>
      </trkpt>
      <trkpt lat="47.14664" lon="8.45593">
        <ele>416.6</ele>
        <time>2023-02-12T08:46:48Z</time>
      </trkpt>
      <trkpt lat="47.14662" lon="8.45593">
        <ele>416.6</ele>
        <time>2023-02-12T08:46:49Z</time>
      </trkpt>
      <trkpt lat="47.1466" lon="8.45594">
        <ele>416.4</ele>
        <time>2023-02-12T08:46:50Z</time>
      </trkpt>
      <trkpt lat="47.14658" lon="8.45595">
        <ele>416.4</ele>
        <time>2023-02-12T08:46:51Z</time>
      </trkpt>
      <trkpt lat="47.14656" lon="8.45595">
        <ele>416.4</ele>
        <time>2023-02-12T08:46:52Z</time>
      </trkpt>
      <trkpt lat="47.14654" lon="8.45596">
        <ele>416.4</ele>
        <time>2023-02-12T08:46:53Z</time>
      </trkpt>
      <trkpt lat="47.14652" lon="8.45596">
        <ele>416.2</ele>
        <time>2023-02-12T08:46:54Z</time>
      </trkpt>
      <trkpt lat="47.1465" lon="8.45597">
        <ele>416.2</ele>
        <time>2023-02-12T08:46:55Z</time>
      </trkpt>
      <trkpt lat="47.14649" lon="8.45598">
        <ele>416.2</ele>
        <time>2023-02-12T08:46:56Z</time>
      </trkpt>
      <trkpt lat="47.14647" lon="8.45598">
        <ele>416.2</ele>
        <time>2023-02-12T08:46:57Z</time>
      </trkpt>
      <trkpt lat="47.14646" lon="8.45599">
        <ele>416.2</ele>
        <time>2023-02-12T08:46:58Z</time>
      </trkpt>
      <trkpt lat="47.14645" lon="8.45599">
        <ele>416.2</ele>
        <time>2023-02-12T08:46:59Z</time>
      </trkpt>
      <trkpt lat="47.14644" lon="8.456">
        <ele>416.2</ele>
        <time>2023-02-12T08:47:00Z</time>
      </trkpt>
      <trkpt lat="47.14643" lon="8.456">
        <ele>416.2</ele>
        <time>2023-02-12T08:47:01Z</time>
      </trkpt>
      <trkpt lat="47.14641" lon="8.456">
        <ele>416.2</ele>
        <time>2023-02-12T08:47:02Z</time>
      </trkpt>
      <trkpt lat="47.1464" lon="8.45601">
        <ele>416.2</ele>
        <time>2023-02-12T08:47:03Z</time>
      </trkpt>
      <trkpt lat="47.14639" lon="8.45601">
        <ele>416.2</ele>
        <time>2023-02-12T08:47:04Z</time>
      </trkpt>
      <trkpt lat="47.14638" lon="8.45602">
        <ele>416.2</ele>
        <time>2023-02-12T08:47:05Z</time>
      </trkpt>
      <trkpt lat="47.14637" lon="8.45602">
        <ele>416.2</ele>
        <time>2023-02-12T08:47:06Z</time>
      </trkpt>
      <trkpt lat="47.14635" lon="8.45602">
        <ele>416.4</ele>
        <time>2023-02-12T08:47:07Z</time>
      </trkpt>
      <trkpt lat="47.14634" lon="8.45602">
        <ele>416.2</ele>
        <time>2023-02-12T08:47:08Z</time>
      </trkpt>
      <trkpt lat="47.14633" lon="8.45602">
        <ele>416.2</ele>
        <time>2023-02-12T08:47:09Z</time>
      </trkpt>
      <trkpt lat="47.14632" lon="8.45603">
        <ele>416.2</ele>
        <time>2023-02-12T08:47:10Z</time>
      </trkpt>
      <trkpt lat="47.14631" lon="8.45604">
        <ele>416.2</ele>
        <time>2023-02-12T08:47:11Z</time>
      </trkpt>
      <trkpt lat="47.1463" lon="8.45604">
        <ele>416.2</ele>
        <time>2023-02-12T08:47:12Z</time>
      </trkpt>
      <trkpt lat="47.14629" lon="8.45605">
        <ele>416.4</ele>
        <time>2023-02-12T08:47:13Z</time>
      </trkpt>
      <trkpt lat="47.14627" lon="8.45604">
        <ele>416.2</ele>
        <time>2023-02-12T08:47:14Z</time>
      </trkpt>
      <trkpt lat="47.14626" lon="8.45604">
        <ele>416.2</ele>
        <time>2023-02-12T08:47:15Z</time>
      </trkpt>
      <trkpt lat="47.14625" lon="8.45604">
        <ele>416.2</ele>
        <time>2023-02-12T08:47:16Z</time>
      </trkpt>
      <trkpt lat="47.14624" lon="8.45604">
        <ele>416.2</ele>
        <time>2023-02-12T08:47:17Z</time>
      </trkpt>
      <trkpt lat="47.14622" lon="8.45604">
        <ele>416.2</ele>
        <time>2023-02-12T08:47:18Z</time>
      </trkpt>
      <trkpt lat="47.14621" lon="8.45603">
        <ele>416.2</ele>
        <time>2023-02-12T08:47:19Z</time>
      </trkpt>
      <trkpt lat="47.1462" lon="8.45603">
        <ele>416.2</ele>
        <time>2023-02-12T08:47:20Z</time>
      </trkpt>
      <trkpt lat="47.14618" lon="8.45603">
        <ele>416.2</ele>
        <time>2023-02-12T08:47:21Z</time>
      </trkpt>
      <trkpt lat="47.14616" lon="8.45602">
        <ele>416.2</ele>
        <time>2023-02-12T08:47:22Z</time>
      </trkpt>
      <trkpt lat="47.14615" lon="8.45601">
        <ele>416.2</ele>
        <time>2023-02-12T08:47:23Z</time>
      </trkpt>
      <trkpt lat="47.14614" lon="8.456">
        <ele>416.2</ele>
        <time>2023-02-12T08:47:24Z</time>
      </trkpt>
      <trkpt lat="47.14613" lon="8.456">
        <ele>416.2</ele>
        <time>2023-02-12T08:47:25Z</time>
      </trkpt>
      <trkpt lat="47.14612" lon="8.45601">
        <ele>416.2</ele>
        <time>2023-02-12T08:47:26Z</time>
      </trkpt>
      <trkpt lat="47.14611" lon="8.45601">
        <ele>416.2</ele>
        <time>2023-02-12T08:47:27Z</time>
      </trkpt>
      <trkpt lat="47.1461" lon="8.45602">
        <ele>416.2</ele>
        <time>2023-02-12T08:47:28Z</time>
      </trkpt>
      <trkpt lat="47.14609" lon="8.45602">
        <ele>416.2</ele>
        <time>2023-02-12T08:47:29Z</time>
      </trkpt>
      <trkpt lat="47.14608" lon="8.45601">
        <ele>416.2</ele>
        <time>2023-02-12T08:47:30Z</time>
      </trkpt>
      <trkpt lat="47.14606" lon="8.456">
        <ele>416.2</ele>
        <time>2023-02-12T08:47:31Z</time>
      </trkpt>
      <trkpt lat="47.14605" lon="8.456">
        <ele>416.2</ele>
        <time>2023-02-12T08:47:32Z</time>
      </trkpt>
      <trkpt lat="47.14604" lon="8.456">
        <ele>416.2</ele>
        <time>2023-02-12T08:47:33Z</time>
      </trkpt>
      <trkpt lat="47.14602" lon="8.45599">
        <ele>416.2</ele>
        <time>2023-02-12T08:47:34Z</time>
      </trkpt>
      <trkpt lat="47.14601" lon="8.45598">
        <ele>416.4</ele>
        <time>2023-02-12T08:47:35Z</time>
      </trkpt>
      <trkpt lat="47.14599" lon="8.45597">
        <ele>416.4</ele>
        <time>2023-02-12T08:47:36Z</time>
      </trkpt>
      <trkpt lat="47.14598" lon="8.45597">
        <ele>416.6</ele>
        <time>2023-02-12T08:47:37Z</time>
      </trkpt>
      <trkpt lat="47.14597" lon="8.45597">
        <ele>416.6</ele>
        <time>2023-02-12T08:47:38Z</time>
      </trkpt>
      <trkpt lat="47.14596" lon="8.45596">
        <ele>416.6</ele>
        <time>2023-02-12T08:47:39Z</time>
      </trkpt>
      <trkpt lat="47.14595" lon="8.45596">
        <ele>416.6</ele>
        <time>2023-02-12T08:47:40Z</time>
      </trkpt>
      <trkpt lat="47.14594" lon="8.45596">
        <ele>416.6</ele>
        <time>2023-02-12T08:47:41Z</time>
      </trkpt>
      <trkpt lat="47.14593" lon="8.45596">
        <ele>416.6</ele>
        <time>2023-02-12T08:47:42Z</time>
      </trkpt>
      <trkpt lat="47.14591" lon="8.45596">
        <ele>416.8</ele>
        <time>2023-02-12T08:47:43Z</time>
      </trkpt>
      <trkpt lat="47.1459" lon="8.45596">
        <ele>416.8</ele>
        <time>2023-02-12T08:47:44Z</time>
      </trkpt>
      <trkpt lat="47.14588" lon="8.45595">
        <ele>416.8</ele>
        <time>2023-02-12T08:47:45Z</time>
      </trkpt>
      <trkpt lat="47.14587" lon="8.45595">
        <ele>416.8</ele>
        <time>2023-02-12T08:47:46Z</time>
      </trkpt>
      <trkpt lat="47.14586" lon="8.45594">
        <ele>416.8</ele>
        <time>2023-02-12T08:47:47Z</time>
      </trkpt>
      <trkpt lat="47.14584" lon="8.45594">
        <ele>417</ele>
        <time>2023-02-12T08:47:48Z</time>
      </trkpt>
      <trkpt lat="47.14583" lon="8.45594">
        <ele>417</ele>
        <time>2023-02-12T08:47:49Z</time>
      </trkpt>
      <trkpt lat="47.14581" lon="8.45593">
        <ele>417</ele>
        <time>2023-02-12T08:47:50Z</time>
      </trkpt>
      <trkpt lat="47.1458" lon="8.45593">
        <ele>417</ele>
        <time>2023-02-12T08:47:51Z</time>
      </trkpt>
      <trkpt lat="47.14579" lon="8.45592">
        <ele>417</ele>
        <time>2023-02-12T08:47:52Z</time>
      </trkpt>
      <trkpt lat="47.14578" lon="8.45591">
        <ele>417</ele>
        <time>2023-02-12T08:47:53Z</time>
      </trkpt>
      <trkpt lat="47.14576" lon="8.45591">
        <ele>417</ele>
        <time>2023-02-12T08:47:54Z</time>
      </trkpt>
      <trkpt lat="47.14574" lon="8.45591">
        <ele>417.2</ele>
        <time>2023-02-12T08:47:55Z</time>
      </trkpt>
      <trkpt lat="47.14573" lon="8.45591">
        <ele>417.2</ele>
        <time>2023-02-12T08:47:56Z</time>
      </trkpt>
      <trkpt lat="47.14571" lon="8.45591">
        <ele>417.4</ele>
        <time>2023-02-12T08:47:57Z</time>
      </trkpt>
      <trkpt lat="47.1457" lon="8.45591">
        <ele>417.4</ele>
        <time>2023-02-12T08:47:58Z</time>
      </trkpt>
      <trkpt lat="47.14568" lon="8.45591">
        <ele>417.6</ele>
        <time>2023-02-12T08:47:59Z</time>
      </trkpt>
      <trkpt lat="47.14567" lon="8.4559">
        <ele>417.6</ele>
        <time>2023-02-12T08:48:00Z</time>
      </trkpt>
      <trkpt lat="47.14565" lon="8.4559">
        <ele>417.8</ele>
        <time>2023-02-12T08:48:01Z</time>
      </trkpt>
      <trkpt lat="47.14564" lon="8.4559">
        <ele>417.8</ele>
        <time>2023-02-12T08:48:02Z</time>
      </trkpt>
      <trkpt lat="47.14562" lon="8.45589">
        <ele>418</ele>
        <time>2023-02-12T08:48:03Z</time>
      </trkpt>
      <trkpt lat="47.1456" lon="8.45589">
        <ele>418.2</ele>
        <time>2023-02-12T08:48:04Z</time>
      </trkpt>
      <trkpt lat="47.14559" lon="8.45589">
        <ele>418.2</ele>
        <time>2023-02-12T08:48:05Z</time>
      </trkpt>
      <trkpt lat="47.14557" lon="8.45588">
        <ele>418.4</ele>
        <time>2023-02-12T08:48:06Z</time>
      </trkpt>
      <trkpt lat="47.14555" lon="8.45588">
        <ele>418.4</ele>
        <time>2023-02-12T08:48:07Z</time>
      </trkpt>
      <trkpt lat="47.14554" lon="8.45588">
        <ele>418.6</ele>
        <time>2023-02-12T08:48:08Z</time>
      </trkpt>
      <trkpt lat="47.14552" lon="8.45587">
        <ele>418.8</ele>
        <time>2023-02-12T08:48:09Z</time>
      </trkpt>
      <trkpt lat="47.1455" lon="8.45587">
        <ele>418.8</ele>
        <time>2023-02-12T08:48:10Z</time>
      </trkpt>
      <trkpt lat="47.14549" lon="8.45587">
        <ele>418.8</ele>
        <time>2023-02-12T08:48:11Z</time>
      </trkpt>
      <trkpt lat="47.14547" lon="8.45586">
        <ele>419</ele>
        <time>2023-02-12T08:48:12Z</time>
      </trkpt>
      <trkpt lat="47.14545" lon="8.45586">
        <ele>419</ele>
        <time>2023-02-12T08:48:13Z</time>
      </trkpt>
      <trkpt lat="47.14543" lon="8.45586">
        <ele>419.2</ele>
        <time>2023-02-12T08:48:14Z</time>
      </trkpt>
      <trkpt lat="47.14541" lon="8.45586">
        <ele>419.4</ele>
        <time>2023-02-12T08:48:15Z</time>
      </trkpt>
      <trkpt lat="47.14539" lon="8.45585">
        <ele>419.6</ele>
        <time>2023-02-12T08:48:16Z</time>
      </trkpt>
      <trkpt lat="47.14537" lon="8.45585">
        <ele>419.6</ele>
        <time>2023-02-12T08:48:17Z</time>
      </trkpt>
      <trkpt lat="47.14535" lon="8.45585">
        <ele>419.8</ele>
        <time>2023-02-12T08:48:18Z</time>
      </trkpt>
      <trkpt lat="47.14534" lon="8.45584">
        <ele>420</ele>
        <time>2023-02-12T08:48:19Z</time>
      </trkpt>
      <trkpt lat="47.14531" lon="8.45584">
        <ele>420.4</ele>
        <time>2023-02-12T08:48:20Z</time>
      </trkpt>
      <trkpt lat="47.14529" lon="8.45583">
        <ele>420.4</ele>
        <time>2023-02-12T08:48:21Z</time>
      </trkpt>
      <trkpt lat="47.14527" lon="8.45583">
        <ele>420.6</ele>
        <time>2023-02-12T08:48:22Z</time>
      </trkpt>
      <trkpt lat="47.14525" lon="8.45582">
        <ele>420.8</ele>
        <time>2023-02-12T08:48:23Z</time>
      </trkpt>
      <trkpt lat="47.14523" lon="8.45582">
        <ele>421</ele>
        <time>2023-02-12T08:48:24Z</time>
      </trkpt>
      <trkpt lat="47.14522" lon="8.45581">
        <ele>421.2</ele>
        <time>2023-02-12T08:48:25Z</time>
      </trkpt>
      <trkpt lat="47.14519" lon="8.45581">
        <ele>421.4</ele>
        <time>2023-02-12T08:48:26Z</time>
      </trkpt>
      <trkpt lat="47.14517" lon="8.45581">
        <ele>421.6</ele>
        <time>2023-02-12T08:48:27Z</time>
      </trkpt>
      <trkpt lat="47.14514" lon="8.4558">
        <ele>422</ele>
        <time>2023-02-12T08:48:28Z</time>
      </trkpt>
      <trkpt lat="47.14511" lon="8.4558">
        <ele>422.2</ele>
        <time>2023-02-12T08:48:29Z</time>
      </trkpt>
      <trkpt lat="47.14509" lon="8.45579">
        <ele>422.4</ele>
        <time>2023-02-12T08:48:30Z</time>
      </trkpt>
      <trkpt lat="47.14506" lon="8.45579">
        <ele>422.4</ele>
        <time>2023-02-12T08:48:31Z</time>
      </trkpt>
      <trkpt lat="47.14504" lon="8.45579">
        <ele>422.6</ele>
        <time>2023-02-12T08:48:32Z</time>
      </trkpt>
      <trkpt lat="47.14501" lon="8.45577">
        <ele>423</ele>
        <time>2023-02-12T08:48:33Z</time>
      </trkpt>
      <trkpt lat="47.14498" lon="8.45576">
        <ele>423.4</ele>
        <time>2023-02-12T08:48:34Z</time>
      </trkpt>
      <trkpt lat="47.14495" lon="8.45576">
        <ele>423.6</ele>
        <time>2023-02-12T08:48:35Z</time>
      </trkpt>
      <trkpt lat="47.14492" lon="8.45576">
        <ele>423.6</ele>
        <time>2023-02-12T08:48:36Z</time>
      </trkpt>
      <trkpt lat="47.14488" lon="8.45575">
        <ele>424</ele>
        <time>2023-02-12T08:48:37Z</time>
      </trkpt>
      <trkpt lat="47.14485" lon="8.45575">
        <ele>424.4</ele>
        <time>2023-02-12T08:48:38Z</time>
      </trkpt>
      <trkpt lat="47.14483" lon="8.45574">
        <ele>424.8</ele>
        <time>2023-02-12T08:48:39Z</time>
      </trkpt>
      <trkpt lat="47.1448" lon="8.45574">
        <ele>425</ele>
        <time>2023-02-12T08:48:40Z</time>
      </trkpt>
      <trkpt lat="47.14477" lon="8.45574">
        <ele>425.4</ele>
        <time>2023-02-12T08:48:41Z</time>
      </trkpt>
      <trkpt lat="47.14474" lon="8.45573">
        <ele>425.8</ele>
        <time>2023-02-12T08:48:42Z</time>
      </trkpt>
      <trkpt lat="47.14471" lon="8.45573">
        <ele>426.2</ele>
        <time>2023-02-12T08:48:43Z</time>
      </trkpt>
      <trkpt lat="47.14468" lon="8.45572">
        <ele>426.4</ele>
        <time>2023-02-12T08:48:44Z</time>
      </trkpt>
      <trkpt lat="47.14464" lon="8.45571">
        <ele>426.8</ele>
        <time>2023-02-12T08:48:45Z</time>
      </trkpt>
      <trkpt lat="47.14461" lon="8.45571">
        <ele>427</ele>
        <time>2023-02-12T08:48:46Z</time>
      </trkpt>
      <trkpt lat="47.14459" lon="8.4557">
        <ele>427.4</ele>
        <time>2023-02-12T08:48:47Z</time>
      </trkpt>
      <trkpt lat="47.14456" lon="8.45569">
        <ele>427.8</ele>
        <time>2023-02-12T08:48:48Z</time>
      </trkpt>
      <trkpt lat="47.14453" lon="8.45569">
        <ele>428.4</ele>
        <time>2023-02-12T08:48:49Z</time>
      </trkpt>
      <trkpt lat="47.1445" lon="8.45568">
        <ele>428.8</ele>
        <time>2023-02-12T08:48:50Z</time>
      </trkpt>
      <trkpt lat="47.14447" lon="8.45568">
        <ele>429.2</ele>
        <time>2023-02-12T08:48:51Z</time>
      </trkpt>
      <trkpt lat="47.14444" lon="8.45567">
        <ele>429.4</ele>
        <time>2023-02-12T08:48:52Z</time>
      </trkpt>
      <trkpt lat="47.14441" lon="8.45567">
        <ele>429.8</ele>
        <time>2023-02-12T08:48:53Z</time>
      </trkpt>
      <trkpt lat="47.14438" lon="8.45566">
        <ele>430</ele>
        <time>2023-02-12T08:48:54Z</time>
      </trkpt>
      <trkpt lat="47.14436" lon="8.45565">
        <ele>430.4</ele>
        <time>2023-02-12T08:48:55Z</time>
      </trkpt>
      <trkpt lat="47.14433" lon="8.45565">
        <ele>430.6</ele>
        <time>2023-02-12T08:48:56Z</time>
      </trkpt>
      <trkpt lat="47.1443" lon="8.45565">
        <ele>431</ele>
        <time>2023-02-12T08:48:57Z</time>
      </trkpt>
      <trkpt lat="47.14427" lon="8.45564">
        <ele>431.2</ele>
        <time>2023-02-12T08:48:58Z</time>
      </trkpt>
      <trkpt lat="47.14423" lon="8.45563">
        <ele>431.6</ele>
        <time>2023-02-12T08:48:59Z</time>
      </trkpt>
      <trkpt lat="47.1442" lon="8.45563">
        <ele>431.8</ele>
        <time>2023-02-12T08:49:00Z</time>
      </trkpt>
      <trkpt lat="47.14417" lon="8.45563">
        <ele>432</ele>
        <time>2023-02-12T08:49:01Z</time>
      </trkpt>
      <trkpt lat="47.14414" lon="8.45562">
        <ele>432</ele>
        <time>2023-02-12T08:49:02Z</time>
      </trkpt>
      <trkpt lat="47.1441" lon="8.45561">
        <ele>432.2</ele>
        <time>2023-02-12T08:49:03Z</time>
      </trkpt>
      <trkpt lat="47.14407" lon="8.4556">
        <ele>432.2</ele>
        <time>2023-02-12T08:49:04Z</time>
      </trkpt>
      <trkpt lat="47.14404" lon="8.4556">
        <ele>432.4</ele>
        <time>2023-02-12T08:49:05Z</time>
      </trkpt>
      <trkpt lat="47.14401" lon="8.45559">
        <ele>432.6</ele>
        <time>2023-02-12T08:49:06Z</time>
      </trkpt>
      <trkpt lat="47.14397" lon="8.45558">
        <ele>432.6</ele>
        <time>2023-02-12T08:49:07Z</time>
      </trkpt>
      <trkpt lat="47.14394" lon="8.45557">
        <ele>432.8</ele>
        <time>2023-02-12T08:49:08Z</time>
      </trkpt>
      <trkpt lat="47.1439" lon="8.45557">
        <ele>432.8</ele>
        <time>2023-02-12T08:49:09Z</time>
      </trkpt>
      <trkpt lat="47.14386" lon="8.45556">
        <ele>432.8</ele>
        <time>2023-02-12T08:49:10Z</time>
      </trkpt>
      <trkpt lat="47.14382" lon="8.45555">
        <ele>432.8</ele>
        <time>2023-02-12T08:49:11Z</time>
      </trkpt>
      <trkpt lat="47.14377" lon="8.45555">
        <ele>432.8</ele>
        <time>2023-02-12T08:49:12Z</time>
      </trkpt>
      <trkpt lat="47.1437" lon="8.45554">
        <ele>432.8</ele>
        <time>2023-02-12T08:49:13Z</time>
      </trkpt>
      <trkpt lat="47.14364" lon="8.45553">
        <ele>432.6</ele>
        <time>2023-02-12T08:49:14Z</time>
      </trkpt>
      <trkpt lat="47.14358" lon="8.45552">
        <ele>432.2</ele>
        <time>2023-02-12T08:49:15Z</time>
      </trkpt>
      <trkpt lat="47.14351" lon="8.45553">
        <ele>432</ele>
        <time>2023-02-12T08:49:16Z</time>
      </trkpt>
      <trkpt lat="47.14345" lon="8.45554">
        <ele>431.6</ele>
        <time>2023-02-12T08:49:17Z</time>
      </trkpt>
      <trkpt lat="47.14338" lon="8.45555">
        <ele>431</ele>
        <time>2023-02-12T08:49:18Z</time>
      </trkpt>
      <trkpt lat="47.14332" lon="8.45556">
        <ele>430.6</ele>
        <time>2023-02-12T08:49:19Z</time>
      </trkpt>
      <trkpt lat="47.14326" lon="8.45558">
        <ele>430.2</ele>
        <time>2023-02-12T08:49:20Z</time>
      </trkpt>
      <trkpt lat="47.1432" lon="8.45561">
        <ele>430</ele>
        <time>2023-02-12T08:49:21Z</time>
      </trkpt>
      <trkpt lat="47.14313" lon="8.45565">
        <ele>429.4</ele>
        <time>2023-02-12T08:49:22Z</time>
      </trkpt>
      <trkpt lat="47.14306" lon="8.45568">
        <ele>429.2</ele>
        <time>2023-02-12T08:49:23Z</time>
      </trkpt>
      <trkpt lat="47.14298" lon="8.45569">
        <ele>429</ele>
        <time>2023-02-12T08:49:24Z</time>
      </trkpt>
      <trkpt lat="47.1429" lon="8.45571">
        <ele>428.4</ele>
        <time>2023-02-12T08:49:25Z</time>
      </trkpt>
      <trkpt lat="47.14282" lon="8.45573">
        <ele>428.4</ele>
        <time>2023-02-12T08:49:26Z</time>
      </trkpt>
      <trkpt lat="47.14275" lon="8.45574">
        <ele>427.8</ele>
        <time>2023-02-12T08:49:27Z</time>
      </trkpt>
      <trkpt lat="47.14267" lon="8.45575">
        <ele>427.6</ele>
        <time>2023-02-12T08:49:28Z</time>
      </trkpt>
      <trkpt lat="47.14261" lon="8.45576">
        <ele>427.2</ele>
        <time>2023-02-12T08:49:29Z</time>
      </trkpt>
      <trkpt lat="47.14254" lon="8.45576">
        <ele>426.8</ele>
        <time>2023-02-12T08:49:30Z</time>
      </trkpt>
      <trkpt lat="47.14247" lon="8.45577">
        <ele>426.4</ele>
        <time>2023-02-12T08:49:31Z</time>
      </trkpt>
      <trkpt lat="47.14241" lon="8.45579">
        <ele>426.2</ele>
        <time>2023-02-12T08:49:32Z</time>
      </trkpt>
      <trkpt lat="47.14235" lon="8.45582">
        <ele>426</ele>
        <time>2023-02-12T08:49:33Z</time>
      </trkpt>
      <trkpt lat="47.1423" lon="8.45586">
        <ele>425.8</ele>
        <time>2023-02-12T08:49:34Z</time>
      </trkpt>
      <trkpt lat="47.14226" lon="8.4559">
        <ele>425.6</ele>
        <time>2023-02-12T08:49:35Z</time>
      </trkpt>
      <trkpt lat="47.14223" lon="8.45594">
        <ele>425.6</ele>
        <time>2023-02-12T08:49:36Z</time>
      </trkpt>
      <trkpt lat="47.1422" lon="8.45599">
        <ele>425.6</ele>
        <time>2023-02-12T08:49:37Z</time>
      </trkpt>
      <trkpt lat="47.14216" lon="8.45602">
        <ele>425.8</ele>
        <time>2023-02-12T08:49:38Z</time>
      </trkpt>
      <trkpt lat="47.14212" lon="8.45606">
        <ele>426</ele>
        <time>2023-02-12T08:49:39Z</time>
      </trkpt>
      <trkpt lat="47.14208" lon="8.45608">
        <ele>426.2</ele>
        <time>2023-02-12T08:49:40Z</time>
      </trkpt>
      <trkpt lat="47.14204" lon="8.45612">
        <ele>426.4</ele>
        <time>2023-02-12T08:49:41Z</time>
      </trkpt>
      <trkpt lat="47.14199" lon="8.45615">
        <ele>426.4</ele>
        <time>2023-02-12T08:49:42Z</time>
      </trkpt>
      <trkpt lat="47.14195" lon="8.45617">
        <ele>426.6</ele>
        <time>2023-02-12T08:49:43Z</time>
      </trkpt>
      <trkpt lat="47.1419" lon="8.4562">
        <ele>426.6</ele>
        <time>2023-02-12T08:49:44Z</time>
      </trkpt>
      <trkpt lat="47.14185" lon="8.45623">
        <ele>426.6</ele>
        <time>2023-02-12T08:49:45Z</time>
      </trkpt>
      <trkpt lat="47.1418" lon="8.45626">
        <ele>426.8</ele>
        <time>2023-02-12T08:49:46Z</time>
      </trkpt>
      <trkpt lat="47.14176" lon="8.45628">
        <ele>426.8</ele>
        <time>2023-02-12T08:49:47Z</time>
      </trkpt>
      <trkpt lat="47.14171" lon="8.45632">
        <ele>426.8</ele>
        <time>2023-02-12T08:49:48Z</time>
      </trkpt>
      <trkpt lat="47.14166" lon="8.45634">
        <ele>426.8</ele>
        <time>2023-02-12T08:49:49Z</time>
      </trkpt>
      <trkpt lat="47.14162" lon="8.45637">
        <ele>426.8</ele>
        <time>2023-02-12T08:49:50Z</time>
      </trkpt>
      <trkpt lat="47.14157" lon="8.4564">
        <ele>426.8</ele>
        <time>2023-02-12T08:49:51Z</time>
      </trkpt>
      <trkpt lat="47.14152" lon="8.45643">
        <ele>426.6</ele>
        <time>2023-02-12T08:49:52Z</time>
      </trkpt>
      <trkpt lat="47.14148" lon="8.45646">
        <ele>426.6</ele>
        <time>2023-02-12T08:49:53Z</time>
      </trkpt>
      <trkpt lat="47.14142" lon="8.45649">
        <ele>426.6</ele>
        <time>2023-02-12T08:49:54Z</time>
      </trkpt>
      <trkpt lat="47.14138" lon="8.45652">
        <ele>426.6</ele>
        <time>2023-02-12T08:49:55Z</time>
      </trkpt>
      <trkpt lat="47.14133" lon="8.45655">
        <ele>426.6</ele>
        <time>2023-02-12T08:49:56Z</time>
      </trkpt>
      <trkpt lat="47.14129" lon="8.45658">
        <ele>426.6</ele>
        <time>2023-02-12T08:49:57Z</time>
      </trkpt>
      <trkpt lat="47.14124" lon="8.45661">
        <ele>426.6</ele>
        <time>2023-02-12T08:49:58Z</time>
      </trkpt>
      <trkpt lat="47.1412" lon="8.45665">
        <ele>426.8</ele>
        <time>2023-02-12T08:49:59Z</time>
      </trkpt>
      <trkpt lat="47.14116" lon="8.45668">
        <ele>426.8</ele>
        <time>2023-02-12T08:50:00Z</time>
      </trkpt>
      <trkpt lat="47.14112" lon="8.4567">
        <ele>427</ele>
        <time>2023-02-12T08:50:01Z</time>
      </trkpt>
      <trkpt lat="47.14108" lon="8.45672">
        <ele>427</ele>
        <time>2023-02-12T08:50:02Z</time>
      </trkpt>
      <trkpt lat="47.14103" lon="8.45673">
        <ele>427.2</ele>
        <time>2023-02-12T08:50:03Z</time>
      </trkpt>
      <trkpt lat="47.14099" lon="8.45673">
        <ele>427.4</ele>
        <time>2023-02-12T08:50:04Z</time>
      </trkpt>
      <trkpt lat="47.14095" lon="8.45671">
        <ele>427.6</ele>
        <time>2023-02-12T08:50:05Z</time>
      </trkpt>
      <trkpt lat="47.14092" lon="8.45667">
        <ele>427.8</ele>
        <time>2023-02-12T08:50:06Z</time>
      </trkpt>
      <trkpt lat="47.14089" lon="8.45662">
        <ele>427.8</ele>
        <time>2023-02-12T08:50:07Z</time>
      </trkpt>
      <trkpt lat="47.14085" lon="8.45657">
        <ele>428</ele>
        <time>2023-02-12T08:50:08Z</time>
      </trkpt>
      <trkpt lat="47.14082" lon="8.45652">
        <ele>428.4</ele>
        <time>2023-02-12T08:50:09Z</time>
      </trkpt>
      <trkpt lat="47.14078" lon="8.4565">
        <ele>428.6</ele>
        <time>2023-02-12T08:50:10Z</time>
      </trkpt>
      <trkpt lat="47.14073" lon="8.45652">
        <ele>429</ele>
        <time>2023-02-12T08:50:11Z</time>
      </trkpt>
      <trkpt lat="47.1407" lon="8.45655">
        <ele>429.4</ele>
        <time>2023-02-12T08:50:12Z</time>
      </trkpt>
      <trkpt lat="47.14066" lon="8.45659">
        <ele>429.8</ele>
        <time>2023-02-12T08:50:13Z</time>
      </trkpt>
      <trkpt lat="47.14063" lon="8.45664">
        <ele>430.2</ele>
        <time>2023-02-12T08:50:14Z</time>
      </trkpt>
      <trkpt lat="47.14059" lon="8.45668">
        <ele>430.8</ele>
        <time>2023-02-12T08:50:15Z</time>
      </trkpt>
      <trkpt lat="47.14056" lon="8.45671">
        <ele>430.8</ele>
        <time>2023-02-12T08:50:16Z</time>
      </trkpt>
      <trkpt lat="47.14052" lon="8.45675">
        <ele>431.2</ele>
        <time>2023-02-12T08:50:17Z</time>
      </trkpt>
      <trkpt lat="47.14049" lon="8.45678">
        <ele>431.8</ele>
        <time>2023-02-12T08:50:18Z</time>
      </trkpt>
      <trkpt lat="47.14046" lon="8.45681">
        <ele>432.2</ele>
        <time>2023-02-12T08:50:19Z</time>
      </trkpt>
      <trkpt lat="47.14042" lon="8.45684">
        <ele>432.6</ele>
        <time>2023-02-12T08:50:20Z</time>
      </trkpt>
      <trkpt lat="47.14038" lon="8.45687">
        <ele>433</ele>
        <time>2023-02-12T08:50:21Z</time>
      </trkpt>
      <trkpt lat="47.14034" lon="8.45689">
        <ele>433.2</ele>
        <time>2023-02-12T08:50:22Z</time>
      </trkpt>
      <trkpt lat="47.14031" lon="8.45692">
        <ele>433.4</ele>
        <time>2023-02-12T08:50:23Z</time>
      </trkpt>
      <trkpt lat="47.14028" lon="8.45694">
        <ele>433.8</ele>
        <time>2023-02-12T08:50:24Z</time>
      </trkpt>
      <trkpt lat="47.14024" lon="8.45696">
        <ele>434</ele>
        <time>2023-02-12T08:50:25Z</time>
      </trkpt>
      <trkpt lat="47.14022" lon="8.45698">
        <ele>434.4</ele>
        <time>2023-02-12T08:50:26Z</time>
      </trkpt>
      <trkpt lat="47.14019" lon="8.45699">
        <ele>434.6</ele>
        <time>2023-02-12T08:50:27Z</time>
      </trkpt>
      <trkpt lat="47.14017" lon="8.45701">
        <ele>435</ele>
        <time>2023-02-12T08:50:28Z</time>
      </trkpt>
      <trkpt lat="47.14014" lon="8.45703">
        <ele>435.4</ele>
        <time>2023-02-12T08:50:29Z</time>
      </trkpt>
      <trkpt lat="47.14012" lon="8.45704">
        <ele>435.6</ele>
        <time>2023-02-12T08:50:30Z</time>
      </trkpt>
      <trkpt lat="47.14009" lon="8.45706">
        <ele>435.8</ele>
        <time>2023-02-12T08:50:31Z</time>
      </trkpt>
      <trkpt lat="47.14007" lon="8.45708">
        <ele>436</ele>
        <time>2023-02-12T08:50:32Z</time>
      </trkpt>
      <trkpt lat="47.14004" lon="8.4571">
        <ele>436.2</ele>
        <time>2023-02-12T08:50:33Z</time>
      </trkpt>
      <trkpt lat="47.14001" lon="8.45712">
        <ele>436.4</ele>
        <time>2023-02-12T08:50:34Z</time>
      </trkpt>
      <trkpt lat="47.13999" lon="8.45714">
        <ele>436.8</ele>
        <time>2023-02-12T08:50:35Z</time>
      </trkpt>
      <trkpt lat="47.13997" lon="8.45716">
        <ele>436.8</ele>
        <time>2023-02-12T08:50:36Z</time>
      </trkpt>
      <trkpt lat="47.13994" lon="8.45719">
        <ele>437.2</ele>
        <time>2023-02-12T08:50:37Z</time>
      </trkpt>
      <trkpt lat="47.13992" lon="8.4572">
        <ele>437.4</ele>
        <time>2023-02-12T08:50:38Z</time>
      </trkpt>
      <trkpt lat="47.13989" lon="8.45721">
        <ele>437.6</ele>
        <time>2023-02-12T08:50:39Z</time>
      </trkpt>
      <trkpt lat="47.13986" lon="8.45723">
        <ele>437.8</ele>
        <time>2023-02-12T08:50:40Z</time>
      </trkpt>
      <trkpt lat="47.13983" lon="8.45724">
        <ele>437.8</ele>
        <time>2023-02-12T08:50:41Z</time>
      </trkpt>
      <trkpt lat="47.1398" lon="8.45726">
        <ele>438</ele>
        <time>2023-02-12T08:50:42Z</time>
      </trkpt>
      <trkpt lat="47.13978" lon="8.45727">
        <ele>438.2</ele>
        <time>2023-02-12T08:50:43Z</time>
      </trkpt>
      <trkpt lat="47.13975" lon="8.45729">
        <ele>438.4</ele>
        <time>2023-02-12T08:50:44Z</time>
      </trkpt>
      <trkpt lat="47.13973" lon="8.45731">
        <ele>438.6</ele>
        <time>2023-02-12T08:50:45Z</time>
      </trkpt>
      <trkpt lat="47.1397" lon="8.45732">
        <ele>438.8</ele>
        <time>2023-02-12T08:50:46Z</time>
      </trkpt>
      <trkpt lat="47.13968" lon="8.45734">
        <ele>439</ele>
        <time>2023-02-12T08:50:47Z</time>
      </trkpt>
      <trkpt lat="47.13966" lon="8.45736">
        <ele>439.2</ele>
        <time>2023-02-12T08:50:48Z</time>
      </trkpt>
      <trkpt lat="47.13963" lon="8.45737">
        <ele>439.6</ele>
        <time>2023-02-12T08:50:49Z</time>
      </trkpt>
      <trkpt lat="47.13961" lon="8.45739">
        <ele>440</ele>
        <time>2023-02-12T08:50:50Z</time>
      </trkpt>
      <trkpt lat="47.13959" lon="8.4574">
        <ele>440.4</ele>
        <time>2023-02-12T08:50:51Z</time>
      </trkpt>
      <trkpt lat="47.13956" lon="8.45742">
        <ele>440.6</ele>
        <time>2023-02-12T08:50:52Z</time>
      </trkpt>
      <trkpt lat="47.13954" lon="8.45744">
        <ele>441</ele>
        <time>2023-02-12T08:50:53Z</time>
      </trkpt>
      <trkpt lat="47.13951" lon="8.45746">
        <ele>441.2</ele>
        <time>2023-02-12T08:50:54Z</time>
      </trkpt>
      <trkpt lat="47.13949" lon="8.45748">
        <ele>441.6</ele>
        <time>2023-02-12T08:50:55Z</time>
      </trkpt>
      <trkpt lat="47.13947" lon="8.4575">
        <ele>441.8</ele>
        <time>2023-02-12T08:50:56Z</time>
      </trkpt>
      <trkpt lat="47.13944" lon="8.45752">
        <ele>442</ele>
        <time>2023-02-12T08:50:57Z</time>
      </trkpt>
      <trkpt lat="47.13942" lon="8.45754">
        <ele>442.2</ele>
        <time>2023-02-12T08:50:58Z</time>
      </trkpt>
      <trkpt lat="47.1394" lon="8.45757">
        <ele>442.6</ele>
        <time>2023-02-12T08:50:59Z</time>
      </trkpt>
      <trkpt lat="47.13938" lon="8.45759">
        <ele>442.8</ele>
        <time>2023-02-12T08:51:00Z</time>
      </trkpt>
      <trkpt lat="47.13935" lon="8.45762">
        <ele>443</ele>
        <time>2023-02-12T08:51:01Z</time>
      </trkpt>
      <trkpt lat="47.13933" lon="8.45764">
        <ele>443.2</ele>
        <time>2023-02-12T08:51:02Z</time>
      </trkpt>
      <trkpt lat="47.13931" lon="8.45767">
        <ele>443.4</ele>
        <time>2023-02-12T08:51:03Z</time>
      </trkpt>
      <trkpt lat="47.13928" lon="8.45769">
        <ele>443.6</ele>
        <time>2023-02-12T08:51:04Z</time>
      </trkpt>
      <trkpt lat="47.13927" lon="8.45772">
        <ele>443.6</ele>
        <time>2023-02-12T08:51:05Z</time>
      </trkpt>
      <trkpt lat="47.13925" lon="8.45775">
        <ele>443.8</ele>
        <time>2023-02-12T08:51:06Z</time>
      </trkpt>
      <trkpt lat="47.13922" lon="8.45777">
        <ele>444.2</ele>
        <time>2023-02-12T08:51:07Z</time>
      </trkpt>
      <trkpt lat="47.1392" lon="8.4578">
        <ele>444.4</ele>
        <time>2023-02-12T08:51:08Z</time>
      </trkpt>
      <trkpt lat="47.13918" lon="8.45782">
        <ele>444.8</ele>
        <time>2023-02-12T08:51:09Z</time>
      </trkpt>
      <trkpt lat="47.13916" lon="8.45784">
        <ele>445</ele>
        <time>2023-02-12T08:51:10Z</time>
      </trkpt>
      <trkpt lat="47.13914" lon="8.45786">
        <ele>445.2</ele>
        <time>2023-02-12T08:51:11Z</time>
      </trkpt>
      <trkpt lat="47.13912" lon="8.45787">
        <ele>445.4</ele>
        <time>2023-02-12T08:51:12Z</time>
      </trkpt>
      <trkpt lat="47.13911" lon="8.45788">
        <ele>445.8</ele>
        <time>2023-02-12T08:51:13Z</time>
      </trkpt>
      <trkpt lat="47.13909" lon="8.4579">
        <ele>446</ele>
        <time>2023-02-12T08:51:14Z</time>
      </trkpt>
      <trkpt lat="47.13907" lon="8.45791">
        <ele>446.4</ele>
        <time>2023-02-12T08:51:15Z</time>
      </trkpt>
      <trkpt lat="47.13904" lon="8.45791">
        <ele>446.4</ele>
        <time>2023-02-12T08:51:16Z</time>
      </trkpt>
      <trkpt lat="47.13901" lon="8.45791">
        <ele>446.6</ele>
        <time>2023-02-12T08:51:17Z</time>
      </trkpt>
      <trkpt lat="47.13897" lon="8.45792">
        <ele>446.6</ele>
        <time>2023-02-12T08:51:18Z</time>
      </trkpt>
      <trkpt lat="47.13894" lon="8.45794">
        <ele>446.8</ele>
        <time>2023-02-12T08:51:19Z</time>
      </trkpt>
      <trkpt lat="47.13891" lon="8.45797">
        <ele>446.8</ele>
        <time>2023-02-12T08:51:20Z</time>
      </trkpt>
      <trkpt lat="47.13889" lon="8.458">
        <ele>446.8</ele>
        <time>2023-02-12T08:51:21Z</time>
      </trkpt>
      <trkpt lat="47.13886" lon="8.45804">
        <ele>446.8</ele>
        <time>2023-02-12T08:51:22Z</time>
      </trkpt>
      <trkpt lat="47.13883" lon="8.45808">
        <ele>446.8</ele>
        <time>2023-02-12T08:51:23Z</time>
      </trkpt>
      <trkpt lat="47.13881" lon="8.45811">
        <ele>446.8</ele>
        <time>2023-02-12T08:51:24Z</time>
      </trkpt>
      <trkpt lat="47.13878" lon="8.45813">
        <ele>446.8</ele>
        <time>2023-02-12T08:51:25Z</time>
      </trkpt>
      <trkpt lat="47.13876" lon="8.45817">
        <ele>446.8</ele>
        <time>2023-02-12T08:51:26Z</time>
      </trkpt>
      <trkpt lat="47.13873" lon="8.4582">
        <ele>446.8</ele>
        <time>2023-02-12T08:51:27Z</time>
      </trkpt>
      <trkpt lat="47.1387" lon="8.45823">
        <ele>446.8</ele>
        <time>2023-02-12T08:51:28Z</time>
      </trkpt>
      <trkpt lat="47.13868" lon="8.45827">
        <ele>447</ele>
        <time>2023-02-12T08:51:29Z</time>
      </trkpt>
      <trkpt lat="47.13865" lon="8.4583">
        <ele>447</ele>
        <time>2023-02-12T08:51:30Z</time>
      </trkpt>
      <trkpt lat="47.13862" lon="8.45834">
        <ele>447</ele>
        <time>2023-02-12T08:51:31Z</time>
      </trkpt>
      <trkpt lat="47.13859" lon="8.45837">
        <ele>447.2</ele>
        <time>2023-02-12T08:51:32Z</time>
      </trkpt>
      <trkpt lat="47.13857" lon="8.45841">
        <ele>447.2</ele>
        <time>2023-02-12T08:51:33Z</time>
      </trkpt>
      <trkpt lat="47.13854" lon="8.45844">
        <ele>447.4</ele>
        <time>2023-02-12T08:51:34Z</time>
      </trkpt>
      <trkpt lat="47.13851" lon="8.45848">
        <ele>447.6</ele>
        <time>2023-02-12T08:51:35Z</time>
      </trkpt>
      <trkpt lat="47.13848" lon="8.45851">
        <ele>447.6</ele>
        <time>2023-02-12T08:51:36Z</time>
      </trkpt>
      <trkpt lat="47.13846" lon="8.45854">
        <ele>447.6</ele>
        <time>2023-02-12T08:51:37Z</time>
      </trkpt>
      <trkpt lat="47.13843" lon="8.45858">
        <ele>447.8</ele>
        <time>2023-02-12T08:51:38Z</time>
      </trkpt>
      <trkpt lat="47.13841" lon="8.45862">
        <ele>447.8</ele>
        <time>2023-02-12T08:51:39Z</time>
      </trkpt>
      <trkpt lat="47.13839" lon="8.45866">
        <ele>447.8</ele>
        <time>2023-02-12T08:51:40Z</time>
      </trkpt>
      <trkpt lat="47.13836" lon="8.4587">
        <ele>448</ele>
        <time>2023-02-12T08:51:41Z</time>
      </trkpt>
      <trkpt lat="47.13834" lon="8.45875">
        <ele>448</ele>
        <time>2023-02-12T08:51:42Z</time>
      </trkpt>
      <trkpt lat="47.13832" lon="8.45879">
        <ele>448</ele>
        <time>2023-02-12T08:51:43Z</time>
      </trkpt>
      <trkpt lat="47.1383" lon="8.45884">
        <ele>448</ele>
        <time>2023-02-12T08:51:44Z</time>
      </trkpt>
      <trkpt lat="47.13828" lon="8.45888">
        <ele>448.2</ele>
        <time>2023-02-12T08:51:45Z</time>
      </trkpt>
      <trkpt lat="47.13826" lon="8.45894">
        <ele>448.2</ele>
        <time>2023-02-12T08:51:46Z</time>
      </trkpt>
      <trkpt lat="47.13825" lon="8.45899">
        <ele>448.2</ele>
        <time>2023-02-12T08:51:47Z</time>
      </trkpt>
      <trkpt lat="47.13824" lon="8.45905">
        <ele>448.2</ele>
        <time>2023-02-12T08:51:48Z</time>
      </trkpt>
      <trkpt lat="47.13822" lon="8.45911">
        <ele>448.2</ele>
        <time>2023-02-12T08:51:49Z</time>
      </trkpt>
      <trkpt lat="47.13821" lon="8.45917">
        <ele>448.4</ele>
        <time>2023-02-12T08:51:50Z</time>
      </trkpt>
      <trkpt lat="47.13821" lon="8.45923">
        <ele>448.4</ele>
        <time>2023-02-12T08:51:51Z</time>
      </trkpt>
      <trkpt lat="47.1382" lon="8.45929">
        <ele>448.4</ele>
        <time>2023-02-12T08:51:52Z</time>
      </trkpt>
      <trkpt lat="47.1382" lon="8.45935">
        <ele>448.6</ele>
        <time>2023-02-12T08:51:53Z</time>
      </trkpt>
      <trkpt lat="47.13819" lon="8.45941">
        <ele>448.6</ele>
        <time>2023-02-12T08:51:54Z</time>
      </trkpt>
      <trkpt lat="47.13819" lon="8.45947">
        <ele>448.6</ele>
        <time>2023-02-12T08:51:55Z</time>
      </trkpt>
      <trkpt lat="47.13819" lon="8.45953">
        <ele>448.6</ele>
        <time>2023-02-12T08:51:56Z</time>
      </trkpt>
      <trkpt lat="47.13819" lon="8.45959">
        <ele>448.6</ele>
        <time>2023-02-12T08:51:57Z</time>
      </trkpt>
      <trkpt lat="47.13818" lon="8.45965">
        <ele>448.8</ele>
        <time>2023-02-12T08:51:58Z</time>
      </trkpt>
      <trkpt lat="47.13818" lon="8.45971">
        <ele>448.8</ele>
        <time>2023-02-12T08:51:59Z</time>
      </trkpt>
      <trkpt lat="47.13818" lon="8.45977">
        <ele>448.8</ele>
        <time>2023-02-12T08:52:00Z</time>
      </trkpt>
      <trkpt lat="47.13817" lon="8.45982">
        <ele>449</ele>
        <time>2023-02-12T08:52:01Z</time>
      </trkpt>
      <trkpt lat="47.13817" lon="8.45989">
        <ele>449</ele>
        <time>2023-02-12T08:52:02Z</time>
      </trkpt>
      <trkpt lat="47.13817" lon="8.45995">
        <ele>449</ele>
        <time>2023-02-12T08:52:03Z</time>
      </trkpt>
      <trkpt lat="47.13817" lon="8.46001">
        <ele>449</ele>
        <time>2023-02-12T08:52:04Z</time>
      </trkpt>
      <trkpt lat="47.13817" lon="8.46007">
        <ele>449</ele>
        <time>2023-02-12T08:52:05Z</time>
      </trkpt>
      <trkpt lat="47.13816" lon="8.46013">
        <ele>449</ele>
        <time>2023-02-12T08:52:06Z</time>
      </trkpt>
      <trkpt lat="47.13816" lon="8.46018">
        <ele>449.2</ele>
        <time>2023-02-12T08:52:07Z</time>
      </trkpt>
      <trkpt lat="47.13816" lon="8.46024">
        <ele>449.2</ele>
        <time>2023-02-12T08:52:08Z</time>
      </trkpt>
      <trkpt lat="47.13816" lon="8.4603">
        <ele>449.2</ele>
        <time>2023-02-12T08:52:09Z</time>
      </trkpt>
      <trkpt lat="47.13815" lon="8.46035">
        <ele>449.4</ele>
        <time>2023-02-12T08:52:10Z</time>
      </trkpt>
      <trkpt lat="47.13815" lon="8.46041">
        <ele>449.4</ele>
        <time>2023-02-12T08:52:11Z</time>
      </trkpt>
      <trkpt lat="47.13815" lon="8.46047">
        <ele>449.4</ele>
        <time>2023-02-12T08:52:12Z</time>
      </trkpt>
      <trkpt lat="47.13815" lon="8.46053">
        <ele>449.4</ele>
        <time>2023-02-12T08:52:13Z</time>
      </trkpt>
      <trkpt lat="47.13815" lon="8.46058">
        <ele>449.4</ele>
        <time>2023-02-12T08:52:14Z</time>
      </trkpt>
      <trkpt lat="47.13814" lon="8.46065">
        <ele>449.6</ele>
        <time>2023-02-12T08:52:15Z</time>
      </trkpt>
      <trkpt lat="47.13814" lon="8.4607">
        <ele>449.6</ele>
        <time>2023-02-12T08:52:16Z</time>
      </trkpt>
      <trkpt lat="47.13814" lon="8.46075">
        <ele>449.6</ele>
        <time>2023-02-12T08:52:17Z</time>
      </trkpt>
      <trkpt lat="47.13813" lon="8.46081">
        <ele>449.8</ele>
        <time>2023-02-12T08:52:18Z</time>
      </trkpt>
      <trkpt lat="47.13813" lon="8.46086">
        <ele>449.8</ele>
        <time>2023-02-12T08:52:19Z</time>
      </trkpt>
      <trkpt lat="47.13813" lon="8.46092">
        <ele>449.8</ele>
        <time>2023-02-12T08:52:20Z</time>
      </trkpt>
      <trkpt lat="47.13813" lon="8.46097">
        <ele>449.8</ele>
        <time>2023-02-12T08:52:21Z</time>
      </trkpt>
      <trkpt lat="47.13813" lon="8.46102">
        <ele>449.8</ele>
        <time>2023-02-12T08:52:22Z</time>
      </trkpt>
      <trkpt lat="47.13813" lon="8.46107">
        <ele>450</ele>
        <time>2023-02-12T08:52:23Z</time>
      </trkpt>
      <trkpt lat="47.13812" lon="8.46113">
        <ele>450</ele>
        <time>2023-02-12T08:52:24Z</time>
      </trkpt>
      <trkpt lat="47.13812" lon="8.46119">
        <ele>450</ele>
        <time>2023-02-12T08:52:25Z</time>
      </trkpt>
      <trkpt lat="47.13812" lon="8.46126">
        <ele>450.2</ele>
        <time>2023-02-12T08:52:26Z</time>
      </trkpt>
      <trkpt lat="47.13812" lon="8.46131">
        <ele>450.2</ele>
        <time>2023-02-12T08:52:27Z</time>
      </trkpt>
      <trkpt lat="47.13811" lon="8.46137">
        <ele>450.2</ele>
        <time>2023-02-12T08:52:28Z</time>
      </trkpt>
      <trkpt lat="47.13811" lon="8.46143">
        <ele>450.2</ele>
        <time>2023-02-12T08:52:29Z</time>
      </trkpt>
      <trkpt lat="47.1381" lon="8.46148">
        <ele>450.2</ele>
        <time>2023-02-12T08:52:30Z</time>
      </trkpt>
      <trkpt lat="47.13809" lon="8.46153">
        <ele>450.2</ele>
        <time>2023-02-12T08:52:31Z</time>
      </trkpt>
      <trkpt lat="47.13809" lon="8.46159">
        <ele>450.4</ele>
        <time>2023-02-12T08:52:32Z</time>
      </trkpt>
      <trkpt lat="47.13809" lon="8.46166">
        <ele>450.4</ele>
        <time>2023-02-12T08:52:33Z</time>
      </trkpt>
      <trkpt lat="47.13809" lon="8.46171">
        <ele>450.4</ele>
        <time>2023-02-12T08:52:34Z</time>
      </trkpt>
      <trkpt lat="47.13808" lon="8.46176">
        <ele>450.4</ele>
        <time>2023-02-12T08:52:35Z</time>
      </trkpt>
      <trkpt lat="47.13807" lon="8.46182">
        <ele>450.4</ele>
        <time>2023-02-12T08:52:36Z</time>
      </trkpt>
      <trkpt lat="47.13807" lon="8.46188">
        <ele>450.6</ele>
        <time>2023-02-12T08:52:37Z</time>
      </trkpt>
      <trkpt lat="47.13806" lon="8.46193">
        <ele>450.6</ele>
        <time>2023-02-12T08:52:38Z</time>
      </trkpt>
      <trkpt lat="47.13805" lon="8.46199">
        <ele>450.6</ele>
        <time>2023-02-12T08:52:39Z</time>
      </trkpt>
      <trkpt lat="47.13803" lon="8.46204">
        <ele>450.8</ele>
        <time>2023-02-12T08:52:40Z</time>
      </trkpt>
      <trkpt lat="47.13802" lon="8.4621">
        <ele>450.8</ele>
        <time>2023-02-12T08:52:41Z</time>
      </trkpt>
      <trkpt lat="47.13801" lon="8.46215">
        <ele>450.8</ele>
        <time>2023-02-12T08:52:42Z</time>
      </trkpt>
      <trkpt lat="47.13799" lon="8.46221">
        <ele>450.8</ele>
        <time>2023-02-12T08:52:43Z</time>
      </trkpt>
      <trkpt lat="47.13797" lon="8.46227">
        <ele>450.8</ele>
        <time>2023-02-12T08:52:44Z</time>
      </trkpt>
      <trkpt lat="47.13795" lon="8.46232">
        <ele>450.8</ele>
        <time>2023-02-12T08:52:45Z</time>
      </trkpt>
      <trkpt lat="47.13794" lon="8.46237">
        <ele>450.8</ele>
        <time>2023-02-12T08:52:46Z</time>
      </trkpt>
      <trkpt lat="47.13792" lon="8.46243">
        <ele>451</ele>
        <time>2023-02-12T08:52:47Z</time>
      </trkpt>
      <trkpt lat="47.1379" lon="8.46249">
        <ele>451</ele>
        <time>2023-02-12T08:52:48Z</time>
      </trkpt>
      <trkpt lat="47.13789" lon="8.46254">
        <ele>451</ele>
        <time>2023-02-12T08:52:49Z</time>
      </trkpt>
      <trkpt lat="47.13787" lon="8.4626">
        <ele>451</ele>
        <time>2023-02-12T08:52:50Z</time>
      </trkpt>
      <trkpt lat="47.13785" lon="8.46266">
        <ele>451</ele>
        <time>2023-02-12T08:52:51Z</time>
      </trkpt>
      <trkpt lat="47.13783" lon="8.46272">
        <ele>451</ele>
        <time>2023-02-12T08:52:52Z</time>
      </trkpt>
      <trkpt lat="47.13781" lon="8.46278">
        <ele>451</ele>
        <time>2023-02-12T08:52:53Z</time>
      </trkpt>
      <trkpt lat="47.13779" lon="8.46284">
        <ele>451</ele>
        <time>2023-02-12T08:52:54Z</time>
      </trkpt>
      <trkpt lat="47.13777" lon="8.4629">
        <ele>451</ele>
        <time>2023-02-12T08:52:55Z</time>
      </trkpt>
      <trkpt lat="47.13775" lon="8.46297">
        <ele>451</ele>
        <time>2023-02-12T08:52:56Z</time>
      </trkpt>
      <trkpt lat="47.13773" lon="8.46303">
        <ele>451</ele>
        <time>2023-02-12T08:52:57Z</time>
      </trkpt>
      <trkpt lat="47.13771" lon="8.46309">
        <ele>451</ele>
        <time>2023-02-12T08:52:58Z</time>
      </trkpt>
      <trkpt lat="47.13768" lon="8.46315">
        <ele>451</ele>
        <time>2023-02-12T08:52:59Z</time>
      </trkpt>
      <trkpt lat="47.13766" lon="8.46322">
        <ele>450.8</ele>
        <time>2023-02-12T08:53:00Z</time>
      </trkpt>
      <trkpt lat="47.13764" lon="8.46329">
        <ele>450.6</ele>
        <time>2023-02-12T08:53:01Z</time>
      </trkpt>
      <trkpt lat="47.13762" lon="8.46336">
        <ele>450.6</ele>
        <time>2023-02-12T08:53:02Z</time>
      </trkpt>
      <trkpt lat="47.13759" lon="8.46344">
        <ele>450.4</ele>
        <time>2023-02-12T08:53:03Z</time>
      </trkpt>
      <trkpt lat="47.13756" lon="8.46351">
        <ele>450.2</ele>
        <time>2023-02-12T08:53:04Z</time>
      </trkpt>
      <trkpt lat="47.13754" lon="8.46357">
        <ele>450</ele>
        <time>2023-02-12T08:53:05Z</time>
      </trkpt>
      <trkpt lat="47.13751" lon="8.46365">
        <ele>449.8</ele>
        <time>2023-02-12T08:53:06Z</time>
      </trkpt>
      <trkpt lat="47.13748" lon="8.46373">
        <ele>449.8</ele>
        <time>2023-02-12T08:53:07Z</time>
      </trkpt>
      <trkpt lat="47.13744" lon="8.46381">
        <ele>449.8</ele>
        <time>2023-02-12T08:53:08Z</time>
      </trkpt>
      <trkpt lat="47.13741" lon="8.46388">
        <ele>449.6</ele>
        <time>2023-02-12T08:53:09Z</time>
      </trkpt>
      <trkpt lat="47.13737" lon="8.46396">
        <ele>449.4</ele>
        <time>2023-02-12T08:53:10Z</time>
      </trkpt>
      <trkpt lat="47.13734" lon="8.46403">
        <ele>449.2</ele>
        <time>2023-02-12T08:53:11Z</time>
      </trkpt>
      <trkpt lat="47.13729" lon="8.4641">
        <ele>449</ele>
        <time>2023-02-12T08:53:12Z</time>
      </trkpt>
      <trkpt lat="47.13726" lon="8.46417">
        <ele>449</ele>
        <time>2023-02-12T08:53:13Z</time>
      </trkpt>
      <trkpt lat="47.13721" lon="8.46423">
        <ele>448.8</ele>
        <time>2023-02-12T08:53:14Z</time>
      </trkpt>
      <trkpt lat="47.13716" lon="8.46431">
        <ele>448.6</ele>
        <time>2023-02-12T08:53:15Z</time>
      </trkpt>
      <trkpt lat="47.13712" lon="8.46438">
        <ele>448.6</ele>
        <time>2023-02-12T08:53:16Z</time>
      </trkpt>
      <trkpt lat="47.13708" lon="8.46445">
        <ele>448.2</ele>
        <time>2023-02-12T08:53:17Z</time>
      </trkpt>
      <trkpt lat="47.13703" lon="8.46452">
        <ele>448.2</ele>
        <time>2023-02-12T08:53:18Z</time>
      </trkpt>
      <trkpt lat="47.13698" lon="8.46459">
        <ele>448</ele>
        <time>2023-02-12T08:53:19Z</time>
      </trkpt>
      <trkpt lat="47.13694" lon="8.46466">
        <ele>447.8</ele>
        <time>2023-02-12T08:53:20Z</time>
      </trkpt>
      <trkpt lat="47.13689" lon="8.46474">
        <ele>447.6</ele>
        <time>2023-02-12T08:53:21Z</time>
      </trkpt>
      <trkpt lat="47.13683" lon="8.46481">
        <ele>447.6</ele>
        <time>2023-02-12T08:53:22Z</time>
      </trkpt>
      <trkpt lat="47.13677" lon="8.46488">
        <ele>447.2</ele>
        <time>2023-02-12T08:53:23Z</time>
      </trkpt>
      <trkpt lat="47.13671" lon="8.46495">
        <ele>447</ele>
        <time>2023-02-12T08:53:24Z</time>
      </trkpt>
      <trkpt lat="47.13664" lon="8.465">
        <ele>446.6</ele>
        <time>2023-02-12T08:53:25Z</time>
      </trkpt>
      <trkpt lat="47.13657" lon="8.46506">
        <ele>446.4</ele>
        <time>2023-02-12T08:53:26Z</time>
      </trkpt>
      <trkpt lat="47.13649" lon="8.4651">
        <ele>446</ele>
        <time>2023-02-12T08:53:27Z</time>
      </trkpt>
      <trkpt lat="47.1364" lon="8.46515">
        <ele>445.6</ele>
        <time>2023-02-12T08:53:28Z</time>
      </trkpt>
      <trkpt lat="47.13632" lon="8.4652">
        <ele>445.4</ele>
        <time>2023-02-12T08:53:29Z</time>
      </trkpt>
      <trkpt lat="47.13623" lon="8.46525">
        <ele>445</ele>
        <time>2023-02-12T08:53:30Z</time>
      </trkpt>
      <trkpt lat="47.13614" lon="8.4653">
        <ele>444.6</ele>
        <time>2023-02-12T08:53:31Z</time>
      </trkpt>
      <trkpt lat="47.13605" lon="8.46534">
        <ele>444.2</ele>
        <time>2023-02-12T08:53:32Z</time>
      </trkpt>
      <trkpt lat="47.13596" lon="8.46538">
        <ele>443.8</ele>
        <time>2023-02-12T08:53:33Z</time>
      </trkpt>
      <trkpt lat="47.13587" lon="8.46542">
        <ele>443.8</ele>
        <time>2023-02-12T08:53:34Z</time>
      </trkpt>
      <trkpt lat="47.13578" lon="8.46546">
        <ele>443.4</ele>
        <time>2023-02-12T08:53:35Z</time>
      </trkpt>
      <trkpt lat="47.1357" lon="8.46551">
        <ele>443</ele>
        <time>2023-02-12T08:53:36Z</time>
      </trkpt>
      <trkpt lat="47.13561" lon="8.46555">
        <ele>442.6</ele>
        <time>2023-02-12T08:53:37Z</time>
      </trkpt>
      <trkpt lat="47.13553" lon="8.46559">
        <ele>442.2</ele>
        <time>2023-02-12T08:53:38Z</time>
      </trkpt>
      <trkpt lat="47.13545" lon="8.46563">
        <ele>442</ele>
        <time>2023-02-12T08:53:39Z</time>
      </trkpt>
      <trkpt lat="47.13538" lon="8.46567">
        <ele>441.8</ele>
        <time>2023-02-12T08:53:40Z</time>
      </trkpt>
      <trkpt lat="47.13531" lon="8.4657">
        <ele>441.6</ele>
        <time>2023-02-12T08:53:41Z</time>
      </trkpt>
      <trkpt lat="47.13524" lon="8.46573">
        <ele>441.4</ele>
        <time>2023-02-12T08:53:42Z</time>
      </trkpt>
      <trkpt lat="47.13517" lon="8.46576">
        <ele>441</ele>
        <time>2023-02-12T08:53:43Z</time>
      </trkpt>
      <trkpt lat="47.13511" lon="8.46579">
        <ele>440.8</ele>
        <time>2023-02-12T08:53:44Z</time>
      </trkpt>
      <trkpt lat="47.13504" lon="8.46582">
        <ele>440.6</ele>
        <time>2023-02-12T08:53:45Z</time>
      </trkpt>
      <trkpt lat="47.13497" lon="8.46586">
        <ele>440.4</ele>
        <time>2023-02-12T08:53:46Z</time>
      </trkpt>
      <trkpt lat="47.13491" lon="8.46589">
        <ele>440.2</ele>
        <time>2023-02-12T08:53:47Z</time>
      </trkpt>
      <trkpt lat="47.13484" lon="8.46592">
        <ele>439.8</ele>
        <time>2023-02-12T08:53:48Z</time>
      </trkpt>
      <trkpt lat="47.13477" lon="8.46596">
        <ele>439.6</ele>
        <time>2023-02-12T08:53:49Z</time>
      </trkpt>
      <trkpt lat="47.13471" lon="8.46599">
        <ele>439.4</ele>
        <time>2023-02-12T08:53:50Z</time>
      </trkpt>
      <trkpt lat="47.13464" lon="8.46603">
        <ele>439.2</ele>
        <time>2023-02-12T08:53:51Z</time>
      </trkpt>
      <trkpt lat="47.13457" lon="8.46606">
        <ele>439</ele>
        <time>2023-02-12T08:53:52Z</time>
      </trkpt>
      <trkpt lat="47.13451" lon="8.4661">
        <ele>438.6</ele>
        <time>2023-02-12T08:53:53Z</time>
      </trkpt>
      <trkpt lat="47.13443" lon="8.46612">
        <ele>438.6</ele>
        <time>2023-02-12T08:53:54Z</time>
      </trkpt>
      <trkpt lat="47.13435" lon="8.46613">
        <ele>438.2</ele>
        <time>2023-02-12T08:53:55Z</time>
      </trkpt>
      <trkpt lat="47.13428" lon="8.46612">
        <ele>438</ele>
        <time>2023-02-12T08:53:56Z</time>
      </trkpt>
      <trkpt lat="47.13421" lon="8.46608">
        <ele>437.6</ele>
        <time>2023-02-12T08:53:57Z</time>
      </trkpt>
      <trkpt lat="47.13414" lon="8.46604">
        <ele>437.2</ele>
        <time>2023-02-12T08:53:58Z</time>
      </trkpt>
      <trkpt lat="47.13409" lon="8.46598">
        <ele>437.2</ele>
        <time>2023-02-12T08:53:59Z</time>
      </trkpt>
      <trkpt lat="47.13405" lon="8.46592">
        <ele>437</ele>
        <time>2023-02-12T08:54:00Z</time>
      </trkpt>
      <trkpt lat="47.13401" lon="8.46585">
        <ele>436.8</ele>
        <time>2023-02-12T08:54:01Z</time>
      </trkpt>
      <trkpt lat="47.13396" lon="8.4658">
        <ele>436.8</ele>
        <time>2023-02-12T08:54:02Z</time>
      </trkpt>
      <trkpt lat="47.13392" lon="8.46575">
        <ele>436.8</ele>
        <time>2023-02-12T08:54:03Z</time>
      </trkpt>
      <trkpt lat="47.13388" lon="8.4657">
        <ele>436.8</ele>
        <time>2023-02-12T08:54:04Z</time>
      </trkpt>
      <trkpt lat="47.13384" lon="8.46566">
        <ele>437</ele>
        <time>2023-02-12T08:54:05Z</time>
      </trkpt>
      <trkpt lat="47.1338" lon="8.46561">
        <ele>437.2</ele>
        <time>2023-02-12T08:54:06Z</time>
      </trkpt>
      <trkpt lat="47.13377" lon="8.46556">
        <ele>437.4</ele>
        <time>2023-02-12T08:54:07Z</time>
      </trkpt>
      <trkpt lat="47.13373" lon="8.46552">
        <ele>437.6</ele>
        <time>2023-02-12T08:54:08Z</time>
      </trkpt>
      <trkpt lat="47.13369" lon="8.46547">
        <ele>437.6</ele>
        <time>2023-02-12T08:54:09Z</time>
      </trkpt>
      <trkpt lat="47.13365" lon="8.46542">
        <ele>437.8</ele>
        <time>2023-02-12T08:54:10Z</time>
      </trkpt>
      <trkpt lat="47.13361" lon="8.46538">
        <ele>438</ele>
        <time>2023-02-12T08:54:11Z</time>
      </trkpt>
      <trkpt lat="47.13357" lon="8.46533">
        <ele>438.2</ele>
        <time>2023-02-12T08:54:12Z</time>
      </trkpt>
      <trkpt lat="47.13353" lon="8.46529">
        <ele>438.4</ele>
        <time>2023-02-12T08:54:13Z</time>
      </trkpt>
      <trkpt lat="47.13349" lon="8.46525">
        <ele>438.6</ele>
        <time>2023-02-12T08:54:14Z</time>
      </trkpt>
      <trkpt lat="47.13346" lon="8.46521">
        <ele>438.8</ele>
        <time>2023-02-12T08:54:15Z</time>
      </trkpt>
      <trkpt lat="47.13342" lon="8.46517">
        <ele>439</ele>
        <time>2023-02-12T08:54:16Z</time>
      </trkpt>
      <trkpt lat="47.13338" lon="8.46513">
        <ele>439.2</ele>
        <time>2023-02-12T08:54:17Z</time>
      </trkpt>
      <trkpt lat="47.13335" lon="8.46509">
        <ele>439.6</ele>
        <time>2023-02-12T08:54:18Z</time>
      </trkpt>
      <trkpt lat="47.13331" lon="8.46505">
        <ele>439.6</ele>
        <time>2023-02-12T08:54:19Z</time>
      </trkpt>
      <trkpt lat="47.13327" lon="8.46501">
        <ele>439.8</ele>
        <time>2023-02-12T08:54:20Z</time>
      </trkpt>
      <trkpt lat="47.13323" lon="8.46497">
        <ele>440</ele>
        <time>2023-02-12T08:54:21Z</time>
      </trkpt>
      <trkpt lat="47.13319" lon="8.46493">
        <ele>440</ele>
        <time>2023-02-12T08:54:22Z</time>
      </trkpt>
      <trkpt lat="47.13315" lon="8.46489">
        <ele>440.2</ele>
        <time>2023-02-12T08:54:23Z</time>
      </trkpt>
      <trkpt lat="47.13311" lon="8.46484">
        <ele>440.2</ele>
        <time>2023-02-12T08:54:24Z</time>
      </trkpt>
      <trkpt lat="47.13308" lon="8.46481">
        <ele>440.4</ele>
        <time>2023-02-12T08:54:25Z</time>
      </trkpt>
      <trkpt lat="47.13304" lon="8.46477">
        <ele>440.6</ele>
        <time>2023-02-12T08:54:26Z</time>
      </trkpt>
      <trkpt lat="47.133" lon="8.46473">
        <ele>440.6</ele>
        <time>2023-02-12T08:54:27Z</time>
      </trkpt>
      <trkpt lat="47.13296" lon="8.46469">
        <ele>440.8</ele>
        <time>2023-02-12T08:54:28Z</time>
      </trkpt>
      <trkpt lat="47.13291" lon="8.46466">
        <ele>441</ele>
        <time>2023-02-12T08:54:29Z</time>
      </trkpt>
      <trkpt lat="47.13287" lon="8.46463">
        <ele>441</ele>
        <time>2023-02-12T08:54:30Z</time>
      </trkpt>
      <trkpt lat="47.13284" lon="8.46461">
        <ele>441</ele>
        <time>2023-02-12T08:54:31Z</time>
      </trkpt>
      <trkpt lat="47.13281" lon="8.46458">
        <ele>441.2</ele>
        <time>2023-02-12T08:54:32Z</time>
      </trkpt>
      <trkpt lat="47.13278" lon="8.46455">
        <ele>441.2</ele>
        <time>2023-02-12T08:54:33Z</time>
      </trkpt>
      <trkpt lat="47.13275" lon="8.46452">
        <ele>441.4</ele>
        <time>2023-02-12T08:54:34Z</time>
      </trkpt>
      <trkpt lat="47.13273" lon="8.4645">
        <ele>441.4</ele>
        <time>2023-02-12T08:54:35Z</time>
      </trkpt>
      <trkpt lat="47.1327" lon="8.46447">
        <ele>441.4</ele>
        <time>2023-02-12T08:54:36Z</time>
      </trkpt>
      <trkpt lat="47.13267" lon="8.46444">
        <ele>441.4</ele>
        <time>2023-02-12T08:54:37Z</time>
      </trkpt>
      <trkpt lat="47.13265" lon="8.4644">
        <ele>441.4</ele>
        <time>2023-02-12T08:54:38Z</time>
      </trkpt>
      <trkpt lat="47.13261" lon="8.46437">
        <ele>441.4</ele>
        <time>2023-02-12T08:54:39Z</time>
      </trkpt>
      <trkpt lat="47.13258" lon="8.46434">
        <ele>441.4</ele>
        <time>2023-02-12T08:54:40Z</time>
      </trkpt>
      <trkpt lat="47.13254" lon="8.4643">
        <ele>441.6</ele>
        <time>2023-02-12T08:54:41Z</time>
      </trkpt>
      <trkpt lat="47.1325" lon="8.46427">
        <ele>441.6</ele>
        <time>2023-02-12T08:54:42Z</time>
      </trkpt>
      <trkpt lat="47.13246" lon="8.46423">
        <ele>441.6</ele>
        <time>2023-02-12T08:54:43Z</time>
      </trkpt>
      <trkpt lat="47.13243" lon="8.46419">
        <ele>441.6</ele>
        <time>2023-02-12T08:54:44Z</time>
      </trkpt>
      <trkpt lat="47.13239" lon="8.46416">
        <ele>441.6</ele>
        <time>2023-02-12T08:54:45Z</time>
      </trkpt>
      <trkpt lat="47.13235" lon="8.46412">
        <ele>441.8</ele>
        <time>2023-02-12T08:54:46Z</time>
      </trkpt>
      <trkpt lat="47.13231" lon="8.46409">
        <ele>441.8</ele>
        <time>2023-02-12T08:54:47Z</time>
      </trkpt>
      <trkpt lat="47.13228" lon="8.46405">
        <ele>441.8</ele>
        <time>2023-02-12T08:54:48Z</time>
      </trkpt>
      <trkpt lat="47.13224" lon="8.46402">
        <ele>441.8</ele>
        <time>2023-02-12T08:54:49Z</time>
      </trkpt>
      <trkpt lat="47.1322" lon="8.46398">
        <ele>441.8</ele>
        <time>2023-02-12T08:54:50Z</time>
      </trkpt>
      <trkpt lat="47.13216" lon="8.46394">
        <ele>441.8</ele>
        <time>2023-02-12T08:54:51Z</time>
      </trkpt>
      <trkpt lat="47.13213" lon="8.46391">
        <ele>441.8</ele>
        <time>2023-02-12T08:54:52Z</time>
      </trkpt>
      <trkpt lat="47.1321" lon="8.46388">
        <ele>441.8</ele>
        <time>2023-02-12T08:54:53Z</time>
      </trkpt>
      <trkpt lat="47.13206" lon="8.46385">
        <ele>442</ele>
        <time>2023-02-12T08:54:54Z</time>
      </trkpt>
      <trkpt lat="47.13203" lon="8.46382">
        <ele>442</ele>
        <time>2023-02-12T08:54:55Z</time>
      </trkpt>
      <trkpt lat="47.13199" lon="8.46379">
        <ele>442.2</ele>
        <time>2023-02-12T08:54:56Z</time>
      </trkpt>
      <trkpt lat="47.13196" lon="8.46375">
        <ele>442.2</ele>
        <time>2023-02-12T08:54:57Z</time>
      </trkpt>
      <trkpt lat="47.13192" lon="8.46372">
        <ele>442.2</ele>
        <time>2023-02-12T08:54:58Z</time>
      </trkpt>
      <trkpt lat="47.13188" lon="8.46368">
        <ele>442.2</ele>
        <time>2023-02-12T08:54:59Z</time>
      </trkpt>
      <trkpt lat="47.13184" lon="8.46364">
        <ele>442.2</ele>
        <time>2023-02-12T08:55:00Z</time>
      </trkpt>
      <trkpt lat="47.1318" lon="8.4636">
        <ele>442.2</ele>
        <time>2023-02-12T08:55:01Z</time>
      </trkpt>
      <trkpt lat="47.13176" lon="8.46356">
        <ele>442.4</ele>
        <time>2023-02-12T08:55:02Z</time>
      </trkpt>
      <trkpt lat="47.13172" lon="8.46352">
        <ele>442.4</ele>
        <time>2023-02-12T08:55:03Z</time>
      </trkpt>
      <trkpt lat="47.13169" lon="8.46348">
        <ele>442.4</ele>
        <time>2023-02-12T08:55:04Z</time>
      </trkpt>
      <trkpt lat="47.13164" lon="8.46344">
        <ele>442.4</ele>
        <time>2023-02-12T08:55:05Z</time>
      </trkpt>
      <trkpt lat="47.1316" lon="8.46341">
        <ele>442.4</ele>
        <time>2023-02-12T08:55:06Z</time>
      </trkpt>
      <trkpt lat="47.13156" lon="8.46337">
        <ele>442.4</ele>
        <time>2023-02-12T08:55:07Z</time>
      </trkpt>
      <trkpt lat="47.13151" lon="8.46334">
        <ele>442.4</ele>
        <time>2023-02-12T08:55:08Z</time>
      </trkpt>
      <trkpt lat="47.13147" lon="8.4633">
        <ele>442.4</ele>
        <time>2023-02-12T08:55:09Z</time>
      </trkpt>
      <trkpt lat="47.13143" lon="8.46327">
        <ele>442.6</ele>
        <time>2023-02-12T08:55:10Z</time>
      </trkpt>
      <trkpt lat="47.13139" lon="8.46323">
        <ele>442.6</ele>
        <time>2023-02-12T08:55:11Z</time>
      </trkpt>
      <trkpt lat="47.13135" lon="8.46319">
        <ele>442.6</ele>
        <time>2023-02-12T08:55:12Z</time>
      </trkpt>
      <trkpt lat="47.13131" lon="8.46314">
        <ele>442.8</ele>
        <time>2023-02-12T08:55:13Z</time>
      </trkpt>
      <trkpt lat="47.13127" lon="8.4631">
        <ele>442.8</ele>
        <time>2023-02-12T08:55:14Z</time>
      </trkpt>
      <trkpt lat="47.13123" lon="8.46306">
        <ele>442.8</ele>
        <time>2023-02-12T08:55:15Z</time>
      </trkpt>
      <trkpt lat="47.13119" lon="8.46302">
        <ele>442.8</ele>
        <time>2023-02-12T08:55:16Z</time>
      </trkpt>
      <trkpt lat="47.13115" lon="8.46298">
        <ele>443</ele>
        <time>2023-02-12T08:55:17Z</time>
      </trkpt>
      <trkpt lat="47.13111" lon="8.46294">
        <ele>443</ele>
        <time>2023-02-12T08:55:18Z</time>
      </trkpt>
      <trkpt lat="47.13107" lon="8.46291">
        <ele>443</ele>
        <time>2023-02-12T08:55:19Z</time>
      </trkpt>
      <trkpt lat="47.13103" lon="8.46287">
        <ele>443.2</ele>
        <time>2023-02-12T08:55:20Z</time>
      </trkpt>
      <trkpt lat="47.13099" lon="8.46283">
        <ele>443.2</ele>
        <time>2023-02-12T08:55:21Z</time>
      </trkpt>
      <trkpt lat="47.13095" lon="8.46279">
        <ele>443.2</ele>
        <time>2023-02-12T08:55:22Z</time>
      </trkpt>
      <trkpt lat="47.13091" lon="8.46275">
        <ele>443.2</ele>
        <time>2023-02-12T08:55:23Z</time>
      </trkpt>
      <trkpt lat="47.13087" lon="8.46271">
        <ele>443.4</ele>
        <time>2023-02-12T08:55:24Z</time>
      </trkpt>
      <trkpt lat="47.13083" lon="8.46267">
        <ele>443.4</ele>
        <time>2023-02-12T08:55:25Z</time>
      </trkpt>
      <trkpt lat="47.13079" lon="8.46263">
        <ele>443.4</ele>
        <time>2023-02-12T08:55:26Z</time>
      </trkpt>
      <trkpt lat="47.13075" lon="8.46259">
        <ele>443.4</ele>
        <time>2023-02-12T08:55:27Z</time>
      </trkpt>
      <trkpt lat="47.1307" lon="8.46255">
        <ele>443.6</ele>
        <time>2023-02-12T08:55:28Z</time>
      </trkpt>
      <trkpt lat="47.13066" lon="8.46251">
        <ele>443.6</ele>
        <time>2023-02-12T08:55:29Z</time>
      </trkpt>
      <trkpt lat="47.13062" lon="8.46246">
        <ele>443.6</ele>
        <time>2023-02-12T08:55:30Z</time>
      </trkpt>
      <trkpt lat="47.13058" lon="8.46242">
        <ele>443.6</ele>
        <time>2023-02-12T08:55:31Z</time>
      </trkpt>
      <trkpt lat="47.13054" lon="8.46239">
        <ele>443.8</ele>
        <time>2023-02-12T08:55:32Z</time>
      </trkpt>
      <trkpt lat="47.13049" lon="8.46235">
        <ele>443.8</ele>
        <time>2023-02-12T08:55:33Z</time>
      </trkpt>
      <trkpt lat="47.13045" lon="8.46231">
        <ele>443.8</ele>
        <time>2023-02-12T08:55:34Z</time>
      </trkpt>
      <trkpt lat="47.13041" lon="8.46226">
        <ele>443.8</ele>
        <time>2023-02-12T08:55:35Z</time>
      </trkpt>
      <trkpt lat="47.13036" lon="8.46223">
        <ele>443.8</ele>
        <time>2023-02-12T08:55:36Z</time>
      </trkpt>
      <trkpt lat="47.13032" lon="8.4622">
        <ele>443.8</ele>
        <time>2023-02-12T08:55:37Z</time>
      </trkpt>
      <trkpt lat="47.13026" lon="8.46216">
        <ele>443.8</ele>
        <time>2023-02-12T08:55:38Z</time>
      </trkpt>
      <trkpt lat="47.13021" lon="8.46213">
        <ele>443.6</ele>
        <time>2023-02-12T08:55:39Z</time>
      </trkpt>
      <trkpt lat="47.13015" lon="8.4621">
        <ele>443.6</ele>
        <time>2023-02-12T08:55:40Z</time>
      </trkpt>
      <trkpt lat="47.13009" lon="8.46207">
        <ele>443.6</ele>
        <time>2023-02-12T08:55:41Z</time>
      </trkpt>
      <trkpt lat="47.13004" lon="8.46204">
        <ele>443.4</ele>
        <time>2023-02-12T08:55:42Z</time>
      </trkpt>
      <trkpt lat="47.12998" lon="8.46201">
        <ele>443.2</ele>
        <time>2023-02-12T08:55:43Z</time>
      </trkpt>
      <trkpt lat="47.12993" lon="8.46199">
        <ele>443.2</ele>
        <time>2023-02-12T08:55:44Z</time>
      </trkpt>
      <trkpt lat="47.12988" lon="8.46197">
        <ele>443</ele>
        <time>2023-02-12T08:55:45Z</time>
      </trkpt>
      <trkpt lat="47.12982" lon="8.46195">
        <ele>442.8</ele>
        <time>2023-02-12T08:55:46Z</time>
      </trkpt>
      <trkpt lat="47.12976" lon="8.46193">
        <ele>442.6</ele>
        <time>2023-02-12T08:55:47Z</time>
      </trkpt>
      <trkpt lat="47.1297" lon="8.46191">
        <ele>442.4</ele>
        <time>2023-02-12T08:55:48Z</time>
      </trkpt>
      <trkpt lat="47.12964" lon="8.46189">
        <ele>442.2</ele>
        <time>2023-02-12T08:55:49Z</time>
      </trkpt>
      <trkpt lat="47.12959" lon="8.46186">
        <ele>442</ele>
        <time>2023-02-12T08:55:50Z</time>
      </trkpt>
      <trkpt lat="47.12954" lon="8.46184">
        <ele>441.6</ele>
        <time>2023-02-12T08:55:51Z</time>
      </trkpt>
      <trkpt lat="47.12949" lon="8.46183">
        <ele>441.4</ele>
        <time>2023-02-12T08:55:52Z</time>
      </trkpt>
      <trkpt lat="47.12944" lon="8.46181">
        <ele>441.2</ele>
        <time>2023-02-12T08:55:53Z</time>
      </trkpt>
      <trkpt lat="47.12939" lon="8.46179">
        <ele>441</ele>
        <time>2023-02-12T08:55:54Z</time>
      </trkpt>
      <trkpt lat="47.12934" lon="8.46177">
        <ele>440.8</ele>
        <time>2023-02-12T08:55:55Z</time>
      </trkpt>
      <trkpt lat="47.1293" lon="8.46175">
        <ele>440.8</ele>
        <time>2023-02-12T08:55:56Z</time>
      </trkpt>
      <trkpt lat="47.12925" lon="8.46173">
        <ele>440.6</ele>
        <time>2023-02-12T08:55:57Z</time>
      </trkpt>
      <trkpt lat="47.12919" lon="8.46171">
        <ele>440.4</ele>
        <time>2023-02-12T08:55:58Z</time>
      </trkpt>
      <trkpt lat="47.12914" lon="8.46169">
        <ele>440.2</ele>
        <time>2023-02-12T08:55:59Z</time>
      </trkpt>
      <trkpt lat="47.12909" lon="8.46166">
        <ele>440</ele>
        <time>2023-02-12T08:56:00Z</time>
      </trkpt>
      <trkpt lat="47.12903" lon="8.46164">
        <ele>439.8</ele>
        <time>2023-02-12T08:56:01Z</time>
      </trkpt>
      <trkpt lat="47.12898" lon="8.46163">
        <ele>439.6</ele>
        <time>2023-02-12T08:56:02Z</time>
      </trkpt>
      <trkpt lat="47.12892" lon="8.46161">
        <ele>439.4</ele>
        <time>2023-02-12T08:56:03Z</time>
      </trkpt>
      <trkpt lat="47.12887" lon="8.46159">
        <ele>439.2</ele>
        <time>2023-02-12T08:56:04Z</time>
      </trkpt>
      <trkpt lat="47.12882" lon="8.46157">
        <ele>439.2</ele>
        <time>2023-02-12T08:56:05Z</time>
      </trkpt>
      <trkpt lat="47.12876" lon="8.46155">
        <ele>439</ele>
        <time>2023-02-12T08:56:06Z</time>
      </trkpt>
      <trkpt lat="47.1287" lon="8.46152">
        <ele>439</ele>
        <time>2023-02-12T08:56:07Z</time>
      </trkpt>
      <trkpt lat="47.12864" lon="8.4615">
        <ele>438.8</ele>
        <time>2023-02-12T08:56:08Z</time>
      </trkpt>
      <trkpt lat="47.12859" lon="8.46149">
        <ele>438.4</ele>
        <time>2023-02-12T08:56:09Z</time>
      </trkpt>
      <trkpt lat="47.12853" lon="8.46148">
        <ele>438.2</ele>
        <time>2023-02-12T08:56:10Z</time>
      </trkpt>
      <trkpt lat="47.12847" lon="8.46147">
        <ele>438</ele>
        <time>2023-02-12T08:56:11Z</time>
      </trkpt>
      <trkpt lat="47.12841" lon="8.46146">
        <ele>437.8</ele>
        <time>2023-02-12T08:56:12Z</time>
      </trkpt>
      <trkpt lat="47.12834" lon="8.46145">
        <ele>437.8</ele>
        <time>2023-02-12T08:56:13Z</time>
      </trkpt>
      <trkpt lat="47.12828" lon="8.46145">
        <ele>437.6</ele>
        <time>2023-02-12T08:56:14Z</time>
      </trkpt>
      <trkpt lat="47.12822" lon="8.46144">
        <ele>437.6</ele>
        <time>2023-02-12T08:56:15Z</time>
      </trkpt>
      <trkpt lat="47.12816" lon="8.46144">
        <ele>437.2</ele>
        <time>2023-02-12T08:56:16Z</time>
      </trkpt>
      <trkpt lat="47.12809" lon="8.46143">
        <ele>437</ele>
        <time>2023-02-12T08:56:17Z</time>
      </trkpt>
      <trkpt lat="47.12802" lon="8.46142">
        <ele>436.8</ele>
        <time>2023-02-12T08:56:18Z</time>
      </trkpt>
      <trkpt lat="47.12796" lon="8.46142">
        <ele>436.4</ele>
        <time>2023-02-12T08:56:19Z</time>
      </trkpt>
      <trkpt lat="47.12789" lon="8.46142">
        <ele>436.2</ele>
        <time>2023-02-12T08:56:20Z</time>
      </trkpt>
      <trkpt lat="47.12782" lon="8.46142">
        <ele>435.8</ele>
        <time>2023-02-12T08:56:21Z</time>
      </trkpt>
      <trkpt lat="47.12775" lon="8.46141">
        <ele>435.6</ele>
        <time>2023-02-12T08:56:22Z</time>
      </trkpt>
      <trkpt lat="47.12769" lon="8.4614">
        <ele>435.4</ele>
        <time>2023-02-12T08:56:23Z</time>
      </trkpt>
      <trkpt lat="47.12762" lon="8.46139">
        <ele>435.2</ele>
        <time>2023-02-12T08:56:24Z</time>
      </trkpt>
      <trkpt lat="47.12755" lon="8.46138">
        <ele>434.8</ele>
        <time>2023-02-12T08:56:25Z</time>
      </trkpt>
      <trkpt lat="47.12748" lon="8.46138">
        <ele>434.6</ele>
        <time>2023-02-12T08:56:26Z</time>
      </trkpt>
      <trkpt lat="47.12741" lon="8.46138">
        <ele>434.4</ele>
        <time>2023-02-12T08:56:27Z</time>
      </trkpt>
      <trkpt lat="47.12734" lon="8.46137">
        <ele>434.2</ele>
        <time>2023-02-12T08:56:28Z</time>
      </trkpt>
      <trkpt lat="47.12728" lon="8.46137">
        <ele>433.8</ele>
        <time>2023-02-12T08:56:29Z</time>
      </trkpt>
      <trkpt lat="47.12721" lon="8.46136">
        <ele>433.6</ele>
        <time>2023-02-12T08:56:30Z</time>
      </trkpt>
      <trkpt lat="47.12714" lon="8.46137">
        <ele>433.6</ele>
        <time>2023-02-12T08:56:31Z</time>
      </trkpt>
      <trkpt lat="47.12708" lon="8.46137">
        <ele>433.4</ele>
        <time>2023-02-12T08:56:32Z</time>
      </trkpt>
      <trkpt lat="47.12701" lon="8.46138">
        <ele>433.2</ele>
        <time>2023-02-12T08:56:33Z</time>
      </trkpt>
      <trkpt lat="47.12695" lon="8.46139">
        <ele>433.2</ele>
        <time>2023-02-12T08:56:34Z</time>
      </trkpt>
      <trkpt lat="47.12688" lon="8.4614">
        <ele>433</ele>
        <time>2023-02-12T08:56:35Z</time>
      </trkpt>
      <trkpt lat="47.12682" lon="8.46141">
        <ele>432.6</ele>
        <time>2023-02-12T08:56:36Z</time>
      </trkpt>
      <trkpt lat="47.12675" lon="8.46143">
        <ele>432.6</ele>
        <time>2023-02-12T08:56:37Z</time>
      </trkpt>
      <trkpt lat="47.12668" lon="8.46144">
        <ele>432.4</ele>
        <time>2023-02-12T08:56:38Z</time>
      </trkpt>
      <trkpt lat="47.12662" lon="8.46145">
        <ele>432.2</ele>
        <time>2023-02-12T08:56:39Z</time>
      </trkpt>
      <trkpt lat="47.12655" lon="8.46146">
        <ele>432</ele>
        <time>2023-02-12T08:56:40Z</time>
      </trkpt>
      <trkpt lat="47.12648" lon="8.46147">
        <ele>431.6</ele>
        <time>2023-02-12T08:56:41Z</time>
      </trkpt>
      <trkpt lat="47.12642" lon="8.46147">
        <ele>431.4</ele>
        <time>2023-02-12T08:56:42Z</time>
      </trkpt>
      <trkpt lat="47.12635" lon="8.46148">
        <ele>431.4</ele>
        <time>2023-02-12T08:56:43Z</time>
      </trkpt>
      <trkpt lat="47.12629" lon="8.4615">
        <ele>431.2</ele>
        <time>2023-02-12T08:56:44Z</time>
      </trkpt>
      <trkpt lat="47.12622" lon="8.46152">
        <ele>431</ele>
        <time>2023-02-12T08:56:45Z</time>
      </trkpt>
      <trkpt lat="47.12616" lon="8.46153">
        <ele>430.8</ele>
        <time>2023-02-12T08:56:46Z</time>
      </trkpt>
      <trkpt lat="47.12609" lon="8.46155">
        <ele>430.6</ele>
        <time>2023-02-12T08:56:47Z</time>
      </trkpt>
      <trkpt lat="47.12603" lon="8.46156">
        <ele>430.4</ele>
        <time>2023-02-12T08:56:48Z</time>
      </trkpt>
      <trkpt lat="47.12597" lon="8.46158">
        <ele>430.2</ele>
        <time>2023-02-12T08:56:49Z</time>
      </trkpt>
      <trkpt lat="47.1259" lon="8.4616">
        <ele>430</ele>
        <time>2023-02-12T08:56:50Z</time>
      </trkpt>
      <trkpt lat="47.12583" lon="8.46162">
        <ele>429.8</ele>
        <time>2023-02-12T08:56:51Z</time>
      </trkpt>
      <trkpt lat="47.12577" lon="8.46163">
        <ele>429.6</ele>
        <time>2023-02-12T08:56:52Z</time>
      </trkpt>
      <trkpt lat="47.12571" lon="8.46164">
        <ele>429.4</ele>
        <time>2023-02-12T08:56:53Z</time>
      </trkpt>
      <trkpt lat="47.12564" lon="8.46165">
        <ele>429.2</ele>
        <time>2023-02-12T08:56:54Z</time>
      </trkpt>
      <trkpt lat="47.12558" lon="8.46166">
        <ele>429</ele>
        <time>2023-02-12T08:56:55Z</time>
      </trkpt>
      <trkpt lat="47.12551" lon="8.46167">
        <ele>429</ele>
        <time>2023-02-12T08:56:56Z</time>
      </trkpt>
      <trkpt lat="47.12544" lon="8.46169">
        <ele>428.8</ele>
        <time>2023-02-12T08:56:57Z</time>
      </trkpt>
      <trkpt lat="47.12538" lon="8.4617">
        <ele>428.8</ele>
        <time>2023-02-12T08:56:58Z</time>
      </trkpt>
      <trkpt lat="47.12532" lon="8.46172">
        <ele>428.6</ele>
        <time>2023-02-12T08:56:59Z</time>
      </trkpt>
      <trkpt lat="47.12525" lon="8.46173">
        <ele>428.4</ele>
        <time>2023-02-12T08:57:00Z</time>
      </trkpt>
      <trkpt lat="47.12518" lon="8.46174">
        <ele>428.2</ele>
        <time>2023-02-12T08:57:01Z</time>
      </trkpt>
      <trkpt lat="47.12511" lon="8.46175">
        <ele>428</ele>
        <time>2023-02-12T08:57:02Z</time>
      </trkpt>
      <trkpt lat="47.12505" lon="8.46177">
        <ele>427.6</ele>
        <time>2023-02-12T08:57:03Z</time>
      </trkpt>
      <trkpt lat="47.12499" lon="8.46178">
        <ele>427.4</ele>
        <time>2023-02-12T08:57:04Z</time>
      </trkpt>
      <trkpt lat="47.12493" lon="8.4618">
        <ele>427.2</ele>
        <time>2023-02-12T08:57:05Z</time>
      </trkpt>
      <trkpt lat="47.12487" lon="8.46181">
        <ele>427</ele>
        <time>2023-02-12T08:57:06Z</time>
      </trkpt>
      <trkpt lat="47.1248" lon="8.46182">
        <ele>426.8</ele>
        <time>2023-02-12T08:57:07Z</time>
      </trkpt>
      <trkpt lat="47.12473" lon="8.46185">
        <ele>426.8</ele>
        <time>2023-02-12T08:57:08Z</time>
      </trkpt>
      <trkpt lat="47.12467" lon="8.46188">
        <ele>426.6</ele>
        <time>2023-02-12T08:57:09Z</time>
      </trkpt>
      <trkpt lat="47.1246" lon="8.4619">
        <ele>426.4</ele>
        <time>2023-02-12T08:57:10Z</time>
      </trkpt>
      <trkpt lat="47.12454" lon="8.46193">
        <ele>426.2</ele>
        <time>2023-02-12T08:57:11Z</time>
      </trkpt>
      <trkpt lat="47.12447" lon="8.46195">
        <ele>425.8</ele>
        <time>2023-02-12T08:57:12Z</time>
      </trkpt>
      <trkpt lat="47.12441" lon="8.46199">
        <ele>425.6</ele>
        <time>2023-02-12T08:57:13Z</time>
      </trkpt>
      <trkpt lat="47.12435" lon="8.46201">
        <ele>425.4</ele>
        <time>2023-02-12T08:57:14Z</time>
      </trkpt>
      <trkpt lat="47.12428" lon="8.46205">
        <ele>425.2</ele>
        <time>2023-02-12T08:57:15Z</time>
      </trkpt>
      <trkpt lat="47.12422" lon="8.46207">
        <ele>425.2</ele>
        <time>2023-02-12T08:57:16Z</time>
      </trkpt>
      <trkpt lat="47.12416" lon="8.4621">
        <ele>425</ele>
        <time>2023-02-12T08:57:17Z</time>
      </trkpt>
      <trkpt lat="47.12411" lon="8.46213">
        <ele>424.8</ele>
        <time>2023-02-12T08:57:18Z</time>
      </trkpt>
      <trkpt lat="47.12405" lon="8.46215">
        <ele>424.8</ele>
        <time>2023-02-12T08:57:19Z</time>
      </trkpt>
      <trkpt lat="47.124" lon="8.46218">
        <ele>424.6</ele>
        <time>2023-02-12T08:57:20Z</time>
      </trkpt>
      <trkpt lat="47.12394" lon="8.4622">
        <ele>424.6</ele>
        <time>2023-02-12T08:57:21Z</time>
      </trkpt>
      <trkpt lat="47.12389" lon="8.46223">
        <ele>424.6</ele>
        <time>2023-02-12T08:57:22Z</time>
      </trkpt>
      <trkpt lat="47.12383" lon="8.46225">
        <ele>424.4</ele>
        <time>2023-02-12T08:57:23Z</time>
      </trkpt>
      <trkpt lat="47.12378" lon="8.46227">
        <ele>424.4</ele>
        <time>2023-02-12T08:57:24Z</time>
      </trkpt>
      <trkpt lat="47.12373" lon="8.46229">
        <ele>424.4</ele>
        <time>2023-02-12T08:57:25Z</time>
      </trkpt>
      <trkpt lat="47.12368" lon="8.46231">
        <ele>424.4</ele>
        <time>2023-02-12T08:57:26Z</time>
      </trkpt>
      <trkpt lat="47.12363" lon="8.46233">
        <ele>424.4</ele>
        <time>2023-02-12T08:57:27Z</time>
      </trkpt>
      <trkpt lat="47.12358" lon="8.46234">
        <ele>424.4</ele>
        <time>2023-02-12T08:57:28Z</time>
      </trkpt>
      <trkpt lat="47.12353" lon="8.46236">
        <ele>424.4</ele>
        <time>2023-02-12T08:57:29Z</time>
      </trkpt>
      <trkpt lat="47.12348" lon="8.46237">
        <ele>424.6</ele>
        <time>2023-02-12T08:57:30Z</time>
      </trkpt>
      <trkpt lat="47.12343" lon="8.46238">
        <ele>424.6</ele>
        <time>2023-02-12T08:57:31Z</time>
      </trkpt>
      <trkpt lat="47.12338" lon="8.46239">
        <ele>424.6</ele>
        <time>2023-02-12T08:57:32Z</time>
      </trkpt>
      <trkpt lat="47.12333" lon="8.46239">
        <ele>424.6</ele>
        <time>2023-02-12T08:57:33Z</time>
      </trkpt>
      <trkpt lat="47.12328" lon="8.46239">
        <ele>424.8</ele>
        <time>2023-02-12T08:57:34Z</time>
      </trkpt>
      <trkpt lat="47.12322" lon="8.4624">
        <ele>424.8</ele>
        <time>2023-02-12T08:57:35Z</time>
      </trkpt>
      <trkpt lat="47.12317" lon="8.46241">
        <ele>424.8</ele>
        <time>2023-02-12T08:57:36Z</time>
      </trkpt>
      <trkpt lat="47.12312" lon="8.46241">
        <ele>424.8</ele>
        <time>2023-02-12T08:57:37Z</time>
      </trkpt>
      <trkpt lat="47.12307" lon="8.46241">
        <ele>424.8</ele>
        <time>2023-02-12T08:57:38Z</time>
      </trkpt>
      <trkpt lat="47.12302" lon="8.46241">
        <ele>425</ele>
        <time>2023-02-12T08:57:39Z</time>
      </trkpt>
      <trkpt lat="47.12297" lon="8.4624">
        <ele>425</ele>
        <time>2023-02-12T08:57:40Z</time>
      </trkpt>
      <trkpt lat="47.12292" lon="8.4624">
        <ele>425</ele>
        <time>2023-02-12T08:57:41Z</time>
      </trkpt>
      <trkpt lat="47.12287" lon="8.46239">
        <ele>425</ele>
        <time>2023-02-12T08:57:42Z</time>
      </trkpt>
      <trkpt lat="47.12282" lon="8.46238">
        <ele>425</ele>
        <time>2023-02-12T08:57:43Z</time>
      </trkpt>
      <trkpt lat="47.12277" lon="8.46237">
        <ele>425</ele>
        <time>2023-02-12T08:57:44Z</time>
      </trkpt>
      <trkpt lat="47.12272" lon="8.46237">
        <ele>425</ele>
        <time>2023-02-12T08:57:45Z</time>
      </trkpt>
      <trkpt lat="47.12267" lon="8.46236">
        <ele>425</ele>
        <time>2023-02-12T08:57:46Z</time>
      </trkpt>
      <trkpt lat="47.12262" lon="8.46236">
        <ele>425</ele>
        <time>2023-02-12T08:57:47Z</time>
      </trkpt>
      <trkpt lat="47.12257" lon="8.46236">
        <ele>425</ele>
        <time>2023-02-12T08:57:48Z</time>
      </trkpt>
      <trkpt lat="47.12252" lon="8.46235">
        <ele>425</ele>
        <time>2023-02-12T08:57:49Z</time>
      </trkpt>
      <trkpt lat="47.12247" lon="8.46234">
        <ele>425</ele>
        <time>2023-02-12T08:57:50Z</time>
      </trkpt>
      <trkpt lat="47.12242" lon="8.46233">
        <ele>425.2</ele>
        <time>2023-02-12T08:57:51Z</time>
      </trkpt>
      <trkpt lat="47.12238" lon="8.46233">
        <ele>425</ele>
        <time>2023-02-12T08:57:52Z</time>
      </trkpt>
      <trkpt lat="47.12233" lon="8.46232">
        <ele>425</ele>
        <time>2023-02-12T08:57:53Z</time>
      </trkpt>
      <trkpt lat="47.12227" lon="8.46231">
        <ele>425</ele>
        <time>2023-02-12T08:57:54Z</time>
      </trkpt>
      <trkpt lat="47.12222" lon="8.46231">
        <ele>425</ele>
        <time>2023-02-12T08:57:55Z</time>
      </trkpt>
      <trkpt lat="47.12217" lon="8.4623">
        <ele>425</ele>
        <time>2023-02-12T08:57:56Z</time>
      </trkpt>
      <trkpt lat="47.12211" lon="8.46229">
        <ele>425</ele>
        <time>2023-02-12T08:57:57Z</time>
      </trkpt>
      <trkpt lat="47.12206" lon="8.46229">
        <ele>425</ele>
        <time>2023-02-12T08:57:58Z</time>
      </trkpt>
      <trkpt lat="47.122" lon="8.46228">
        <ele>425</ele>
        <time>2023-02-12T08:57:59Z</time>
      </trkpt>
      <trkpt lat="47.12195" lon="8.46227">
        <ele>425</ele>
        <time>2023-02-12T08:58:00Z</time>
      </trkpt>
      <trkpt lat="47.12189" lon="8.46227">
        <ele>425</ele>
        <time>2023-02-12T08:58:01Z</time>
      </trkpt>
      <trkpt lat="47.12184" lon="8.46227">
        <ele>425</ele>
        <time>2023-02-12T08:58:02Z</time>
      </trkpt>
      <trkpt lat="47.12178" lon="8.46226">
        <ele>425</ele>
        <time>2023-02-12T08:58:03Z</time>
      </trkpt>
      <trkpt lat="47.12173" lon="8.46226">
        <ele>425</ele>
        <time>2023-02-12T08:58:04Z</time>
      </trkpt>
      <trkpt lat="47.12167" lon="8.46226">
        <ele>425.2</ele>
        <time>2023-02-12T08:58:05Z</time>
      </trkpt>
      <trkpt lat="47.12162" lon="8.46225">
        <ele>425.2</ele>
        <time>2023-02-12T08:58:06Z</time>
      </trkpt>
      <trkpt lat="47.12157" lon="8.46225">
        <ele>425.2</ele>
        <time>2023-02-12T08:58:07Z</time>
      </trkpt>
      <trkpt lat="47.12151" lon="8.46224">
        <ele>425.2</ele>
        <time>2023-02-12T08:58:08Z</time>
      </trkpt>
      <trkpt lat="47.12146" lon="8.46223">
        <ele>425.2</ele>
        <time>2023-02-12T08:58:09Z</time>
      </trkpt>
      <trkpt lat="47.12141" lon="8.46223">
        <ele>425.2</ele>
        <time>2023-02-12T08:58:10Z</time>
      </trkpt>
      <trkpt lat="47.12136" lon="8.46222">
        <ele>425.2</ele>
        <time>2023-02-12T08:58:11Z</time>
      </trkpt>
      <trkpt lat="47.12131" lon="8.46222">
        <ele>425.2</ele>
        <time>2023-02-12T08:58:12Z</time>
      </trkpt>
      <trkpt lat="47.12126" lon="8.46221">
        <ele>425.4</ele>
        <time>2023-02-12T08:58:13Z</time>
      </trkpt>
      <trkpt lat="47.12121" lon="8.46221">
        <ele>425.4</ele>
        <time>2023-02-12T08:58:14Z</time>
      </trkpt>
      <trkpt lat="47.12116" lon="8.46221">
        <ele>425.4</ele>
        <time>2023-02-12T08:58:15Z</time>
      </trkpt>
      <trkpt lat="47.12111" lon="8.4622">
        <ele>425.4</ele>
        <time>2023-02-12T08:58:16Z</time>
      </trkpt>
      <trkpt lat="47.12106" lon="8.46219">
        <ele>425.4</ele>
        <time>2023-02-12T08:58:17Z</time>
      </trkpt>
      <trkpt lat="47.12101" lon="8.46219">
        <ele>425.6</ele>
        <time>2023-02-12T08:58:18Z</time>
      </trkpt>
      <trkpt lat="47.12096" lon="8.46218">
        <ele>425.6</ele>
        <time>2023-02-12T08:58:19Z</time>
      </trkpt>
      <trkpt lat="47.12091" lon="8.46218">
        <ele>425.6</ele>
        <time>2023-02-12T08:58:20Z</time>
      </trkpt>
      <trkpt lat="47.12086" lon="8.46217">
        <ele>425.8</ele>
        <time>2023-02-12T08:58:21Z</time>
      </trkpt>
      <trkpt lat="47.12081" lon="8.46217">
        <ele>425.8</ele>
        <time>2023-02-12T08:58:22Z</time>
      </trkpt>
      <trkpt lat="47.12075" lon="8.46217">
        <ele>425.8</ele>
        <time>2023-02-12T08:58:23Z</time>
      </trkpt>
      <trkpt lat="47.1207" lon="8.46216">
        <ele>426</ele>
        <time>2023-02-12T08:58:24Z</time>
      </trkpt>
      <trkpt lat="47.12065" lon="8.46216">
        <ele>426.2</ele>
        <time>2023-02-12T08:58:25Z</time>
      </trkpt>
      <trkpt lat="47.1206" lon="8.46215">
        <ele>426.4</ele>
        <time>2023-02-12T08:58:26Z</time>
      </trkpt>
      <trkpt lat="47.12054" lon="8.46215">
        <ele>426.4</ele>
        <time>2023-02-12T08:58:27Z</time>
      </trkpt>
      <trkpt lat="47.1205" lon="8.46215">
        <ele>426.6</ele>
        <time>2023-02-12T08:58:28Z</time>
      </trkpt>
      <trkpt lat="47.12046" lon="8.46214">
        <ele>426.8</ele>
        <time>2023-02-12T08:58:29Z</time>
      </trkpt>
      <trkpt lat="47.12041" lon="8.46214">
        <ele>427</ele>
        <time>2023-02-12T08:58:30Z</time>
      </trkpt>
      <trkpt lat="47.12036" lon="8.46214">
        <ele>427.2</ele>
        <time>2023-02-12T08:58:31Z</time>
      </trkpt>
      <trkpt lat="47.12031" lon="8.46215">
        <ele>427.2</ele>
        <time>2023-02-12T08:58:32Z</time>
      </trkpt>
      <trkpt lat="47.12027" lon="8.46216">
        <ele>427.4</ele>
        <time>2023-02-12T08:58:33Z</time>
      </trkpt>
      <trkpt lat="47.12022" lon="8.46217">
        <ele>427.6</ele>
        <time>2023-02-12T08:58:34Z</time>
      </trkpt>
      <trkpt lat="47.12018" lon="8.46218">
        <ele>427.8</ele>
        <time>2023-02-12T08:58:35Z</time>
      </trkpt>
      <trkpt lat="47.12013" lon="8.4622">
        <ele>428</ele>
        <time>2023-02-12T08:58:36Z</time>
      </trkpt>
      <trkpt lat="47.12009" lon="8.46221">
        <ele>428</ele>
        <time>2023-02-12T08:58:37Z</time>
      </trkpt>
      <trkpt lat="47.12005" lon="8.46223">
        <ele>428.2</ele>
        <time>2023-02-12T08:58:38Z</time>
      </trkpt>
      <trkpt lat="47.12" lon="8.46225">
        <ele>428.4</ele>
        <time>2023-02-12T08:58:39Z</time>
      </trkpt>
      <trkpt lat="47.11996" lon="8.46227">
        <ele>428.6</ele>
        <time>2023-02-12T08:58:40Z</time>
      </trkpt>
      <trkpt lat="47.11992" lon="8.4623">
        <ele>428.8</ele>
        <time>2023-02-12T08:58:41Z</time>
      </trkpt>
      <trkpt lat="47.11988" lon="8.46232">
        <ele>429</ele>
        <time>2023-02-12T08:58:42Z</time>
      </trkpt>
      <trkpt lat="47.11985" lon="8.46236">
        <ele>429.2</ele>
        <time>2023-02-12T08:58:43Z</time>
      </trkpt>
      <trkpt lat="47.11981" lon="8.46239">
        <ele>429.4</ele>
        <time>2023-02-12T08:58:44Z</time>
      </trkpt>
      <trkpt lat="47.11977" lon="8.46242">
        <ele>429.4</ele>
        <time>2023-02-12T08:58:45Z</time>
      </trkpt>
      <trkpt lat="47.11973" lon="8.46245">
        <ele>429.6</ele>
        <time>2023-02-12T08:58:46Z</time>
      </trkpt>
      <trkpt lat="47.11969" lon="8.46248">
        <ele>429.8</ele>
        <time>2023-02-12T08:58:47Z</time>
      </trkpt>
      <trkpt lat="47.11965" lon="8.46252">
        <ele>430</ele>
        <time>2023-02-12T08:58:48Z</time>
      </trkpt>
      <trkpt lat="47.11961" lon="8.46255">
        <ele>430</ele>
        <time>2023-02-12T08:58:49Z</time>
      </trkpt>
      <trkpt lat="47.11957" lon="8.46259">
        <ele>430.2</ele>
        <time>2023-02-12T08:58:50Z</time>
      </trkpt>
      <trkpt lat="47.11954" lon="8.46262">
        <ele>430.2</ele>
        <time>2023-02-12T08:58:51Z</time>
      </trkpt>
      <trkpt lat="47.1195" lon="8.46265">
        <ele>430.4</ele>
        <time>2023-02-12T08:58:52Z</time>
      </trkpt>
      <trkpt lat="47.11946" lon="8.46268">
        <ele>430.4</ele>
        <time>2023-02-12T08:58:53Z</time>
      </trkpt>
      <trkpt lat="47.11942" lon="8.46271">
        <ele>430.4</ele>
        <time>2023-02-12T08:58:54Z</time>
      </trkpt>
      <trkpt lat="47.11938" lon="8.46274">
        <ele>430.4</ele>
        <time>2023-02-12T08:58:55Z</time>
      </trkpt>
      <trkpt lat="47.11934" lon="8.46278">
        <ele>430.4</ele>
        <time>2023-02-12T08:58:56Z</time>
      </trkpt>
      <trkpt lat="47.11929" lon="8.46281">
        <ele>430.4</ele>
        <time>2023-02-12T08:58:57Z</time>
      </trkpt>
      <trkpt lat="47.11924" lon="8.46284">
        <ele>430.4</ele>
        <time>2023-02-12T08:58:58Z</time>
      </trkpt>
      <trkpt lat="47.1192" lon="8.46286">
        <ele>430.2</ele>
        <time>2023-02-12T08:58:59Z</time>
      </trkpt>
      <trkpt lat="47.11915" lon="8.46289">
        <ele>430.2</ele>
        <time>2023-02-12T08:59:00Z</time>
      </trkpt>
      <trkpt lat="47.11909" lon="8.4629">
        <ele>430.2</ele>
        <time>2023-02-12T08:59:01Z</time>
      </trkpt>
      <trkpt lat="47.11904" lon="8.46293">
        <ele>430.2</ele>
        <time>2023-02-12T08:59:02Z</time>
      </trkpt>
      <trkpt lat="47.11899" lon="8.46294">
        <ele>430.2</ele>
        <time>2023-02-12T08:59:03Z</time>
      </trkpt>
      <trkpt lat="47.11893" lon="8.46296">
        <ele>430</ele>
        <time>2023-02-12T08:59:04Z</time>
      </trkpt>
      <trkpt lat="47.11887" lon="8.46296">
        <ele>430</ele>
        <time>2023-02-12T08:59:05Z</time>
      </trkpt>
      <trkpt lat="47.11882" lon="8.46297">
        <ele>429.8</ele>
        <time>2023-02-12T08:59:06Z</time>
      </trkpt>
      <trkpt lat="47.11875" lon="8.46297">
        <ele>429.6</ele>
        <time>2023-02-12T08:59:07Z</time>
      </trkpt>
      <trkpt lat="47.11869" lon="8.46296">
        <ele>429.4</ele>
        <time>2023-02-12T08:59:08Z</time>
      </trkpt>
      <trkpt lat="47.11863" lon="8.46296">
        <ele>429.2</ele>
        <time>2023-02-12T08:59:09Z</time>
      </trkpt>
      <trkpt lat="47.11857" lon="8.46294">
        <ele>429</ele>
        <time>2023-02-12T08:59:10Z</time>
      </trkpt>
      <trkpt lat="47.1185" lon="8.46292">
        <ele>428.6</ele>
        <time>2023-02-12T08:59:11Z</time>
      </trkpt>
      <trkpt lat="47.11844" lon="8.46291">
        <ele>428.4</ele>
        <time>2023-02-12T08:59:12Z</time>
      </trkpt>
      <trkpt lat="47.11838" lon="8.46289">
        <ele>428.2</ele>
        <time>2023-02-12T08:59:13Z</time>
      </trkpt>
      <trkpt lat="47.11831" lon="8.46287">
        <ele>427.8</ele>
        <time>2023-02-12T08:59:14Z</time>
      </trkpt>
      <trkpt lat="47.11824" lon="8.46285">
        <ele>427.6</ele>
        <time>2023-02-12T08:59:15Z</time>
      </trkpt>
      <trkpt lat="47.11818" lon="8.46284">
        <ele>427.4</ele>
        <time>2023-02-12T08:59:16Z</time>
      </trkpt>
      <trkpt lat="47.11811" lon="8.46282">
        <ele>427</ele>
        <time>2023-02-12T08:59:17Z</time>
      </trkpt>
      <trkpt lat="47.11804" lon="8.46281">
        <ele>426.8</ele>
        <time>2023-02-12T08:59:18Z</time>
      </trkpt>
      <trkpt lat="47.11797" lon="8.46279">
        <ele>426.4</ele>
        <time>2023-02-12T08:59:19Z</time>
      </trkpt>
      <trkpt lat="47.1179" lon="8.46277">
        <ele>426.2</ele>
        <time>2023-02-12T08:59:20Z</time>
      </trkpt>
      <trkpt lat="47.11784" lon="8.46276">
        <ele>426</ele>
        <time>2023-02-12T08:59:21Z</time>
      </trkpt>
      <trkpt lat="47.11777" lon="8.46275">
        <ele>425.6</ele>
        <time>2023-02-12T08:59:22Z</time>
      </trkpt>
      <trkpt lat="47.11772" lon="8.46275">
        <ele>425.4</ele>
        <time>2023-02-12T08:59:23Z</time>
      </trkpt>
      <trkpt lat="47.11766" lon="8.46277">
        <ele>425.2</ele>
        <time>2023-02-12T08:59:24Z</time>
      </trkpt>
      <trkpt lat="47.11761" lon="8.46277">
        <ele>425.2</ele>
        <time>2023-02-12T08:59:25Z</time>
      </trkpt>
      <trkpt lat="47.11755" lon="8.46279">
        <ele>425</ele>
        <time>2023-02-12T08:59:26Z</time>
      </trkpt>
      <trkpt lat="47.11749" lon="8.46284">
        <ele>424.8</ele>
        <time>2023-02-12T08:59:27Z</time>
      </trkpt>
      <trkpt lat="47.11746" lon="8.46291">
        <ele>424.8</ele>
        <time>2023-02-12T08:59:28Z</time>
      </trkpt>
      <trkpt lat="47.11745" lon="8.46299">
        <ele>424.4</ele>
        <time>2023-02-12T08:59:29Z</time>
      </trkpt>
      <trkpt lat="47.11747" lon="8.46307">
        <ele>424.2</ele>
        <time>2023-02-12T08:59:30Z</time>
      </trkpt>
      <trkpt lat="47.1175" lon="8.46315">
        <ele>423.6</ele>
        <time>2023-02-12T08:59:31Z</time>
      </trkpt>
      <trkpt lat="47.11754" lon="8.46322">
        <ele>422.6</ele>
        <time>2023-02-12T08:59:32Z</time>
      </trkpt>
      <trkpt lat="47.11758" lon="8.46328">
        <ele>421.8</ele>
        <time>2023-02-12T08:59:33Z</time>
      </trkpt>
      <trkpt lat="47.11762" lon="8.46333">
        <ele>421.2</ele>
        <time>2023-02-12T08:59:34Z</time>
      </trkpt>
      <trkpt lat="47.11766" lon="8.46339">
        <ele>420.8</ele>
        <time>2023-02-12T08:59:35Z</time>
      </trkpt>
      <trkpt lat="47.11769" lon="8.46345">
        <ele>420.6</ele>
        <time>2023-02-12T08:59:36Z</time>
      </trkpt>
      <trkpt lat="47.1177" lon="8.46352">
        <ele>420.2</ele>
        <time>2023-02-12T08:59:37Z</time>
      </trkpt>
      <trkpt lat="47.11771" lon="8.46359">
        <ele>420.2</ele>
        <time>2023-02-12T08:59:38Z</time>
      </trkpt>
      <trkpt lat="47.11771" lon="8.46366">
        <ele>420</ele>
        <time>2023-02-12T08:59:39Z</time>
      </trkpt>
      <trkpt lat="47.1177" lon="8.46373">
        <ele>420</ele>
        <time>2023-02-12T08:59:40Z</time>
      </trkpt>
      <trkpt lat="47.11769" lon="8.4638">
        <ele>420</ele>
        <time>2023-02-12T08:59:41Z</time>
      </trkpt>
      <trkpt lat="47.11767" lon="8.46388">
        <ele>420</ele>
        <time>2023-02-12T08:59:42Z</time>
      </trkpt>
      <trkpt lat="47.11766" lon="8.46396">
        <ele>419.8</ele>
        <time>2023-02-12T08:59:43Z</time>
      </trkpt>
      <trkpt lat="47.11765" lon="8.46404">
        <ele>419.8</ele>
        <time>2023-02-12T08:59:44Z</time>
      </trkpt>
      <trkpt lat="47.11763" lon="8.46413">
        <ele>419.8</ele>
        <time>2023-02-12T08:59:45Z</time>
      </trkpt>
      <trkpt lat="47.11762" lon="8.46422">
        <ele>419.6</ele>
        <time>2023-02-12T08:59:46Z</time>
      </trkpt>
      <trkpt lat="47.11761" lon="8.46432">
        <ele>419.2</ele>
        <time>2023-02-12T08:59:47Z</time>
      </trkpt>
      <trkpt lat="47.11759" lon="8.46441">
        <ele>418.8</ele>
        <time>2023-02-12T08:59:48Z</time>
      </trkpt>
      <trkpt lat="47.11758" lon="8.4645">
        <ele>418.6</ele>
        <time>2023-02-12T08:59:49Z</time>
      </trkpt>
      <trkpt lat="47.11756" lon="8.4646">
        <ele>418.2</ele>
        <time>2023-02-12T08:59:50Z</time>
      </trkpt>
      <trkpt lat="47.11755" lon="8.46469">
        <ele>417.8</ele>
        <time>2023-02-12T08:59:51Z</time>
      </trkpt>
      <trkpt lat="47.11754" lon="8.46478">
        <ele>417.6</ele>
        <time>2023-02-12T08:59:52Z</time>
      </trkpt>
      <trkpt lat="47.11752" lon="8.46486">
        <ele>417.6</ele>
        <time>2023-02-12T08:59:53Z</time>
      </trkpt>
      <trkpt lat="47.11751" lon="8.46494">
        <ele>417.4</ele>
        <time>2023-02-12T08:59:54Z</time>
      </trkpt>
      <trkpt lat="47.1175" lon="8.46502">
        <ele>417.2</ele>
        <time>2023-02-12T08:59:55Z</time>
      </trkpt>
      <trkpt lat="47.11748" lon="8.4651">
        <ele>417.2</ele>
        <time>2023-02-12T08:59:56Z</time>
      </trkpt>
      <trkpt lat="47.11747" lon="8.46517">
        <ele>417</ele>
        <time>2023-02-12T08:59:57Z</time>
      </trkpt>
      <trkpt lat="47.11746" lon="8.46525">
        <ele>417</ele>
        <time>2023-02-12T08:59:58Z</time>
      </trkpt>
      <trkpt lat="47.11745" lon="8.46533">
        <ele>417</ele>
        <time>2023-02-12T08:59:59Z</time>
      </trkpt>
      <trkpt lat="47.11744" lon="8.46541">
        <ele>417</ele>
        <time>2023-02-12T09:00:00Z</time>
      </trkpt>
      <trkpt lat="47.11743" lon="8.46549">
        <ele>417</ele>
        <time>2023-02-12T09:00:01Z</time>
      </trkpt>
      <trkpt lat="47.11742" lon="8.46557">
        <ele>417</ele>
        <time>2023-02-12T09:00:02Z</time>
      </trkpt>
      <trkpt lat="47.11741" lon="8.46565">
        <ele>417</ele>
        <time>2023-02-12T09:00:03Z</time>
      </trkpt>
      <trkpt lat="47.1174" lon="8.46573">
        <ele>416.8</ele>
        <time>2023-02-12T09:00:04Z</time>
      </trkpt>
      <trkpt lat="47.11738" lon="8.46581">
        <ele>416.8</ele>
        <time>2023-02-12T09:00:05Z</time>
      </trkpt>
      <trkpt lat="47.11737" lon="8.46589">
        <ele>416.8</ele>
        <time>2023-02-12T09:00:06Z</time>
      </trkpt>
      <trkpt lat="47.11736" lon="8.46597">
        <ele>416.6</ele>
        <time>2023-02-12T09:00:07Z</time>
      </trkpt>
      <trkpt lat="47.11735" lon="8.46605">
        <ele>416.6</ele>
        <time>2023-02-12T09:00:08Z</time>
      </trkpt>
      <trkpt lat="47.11733" lon="8.46613">
        <ele>416.6</ele>
        <time>2023-02-12T09:00:09Z</time>
      </trkpt>
      <trkpt lat="47.11732" lon="8.46621">
        <ele>416.4</ele>
        <time>2023-02-12T09:00:10Z</time>
      </trkpt>
      <trkpt lat="47.1173" lon="8.46629">
        <ele>416.4</ele>
        <time>2023-02-12T09:00:11Z</time>
      </trkpt>
      <trkpt lat="47.1173" lon="8.46637">
        <ele>416.4</ele>
        <time>2023-02-12T09:00:12Z</time>
      </trkpt>
      <trkpt lat="47.11729" lon="8.46645">
        <ele>416.4</ele>
        <time>2023-02-12T09:00:13Z</time>
      </trkpt>
      <trkpt lat="47.11728" lon="8.46653">
        <ele>416.4</ele>
        <time>2023-02-12T09:00:14Z</time>
      </trkpt>
      <trkpt lat="47.11727" lon="8.4666">
        <ele>416.4</ele>
        <time>2023-02-12T09:00:15Z</time>
      </trkpt>
      <trkpt lat="47.11726" lon="8.46668">
        <ele>416.4</ele>
        <time>2023-02-12T09:00:16Z</time>
      </trkpt>
      <trkpt lat="47.11725" lon="8.46674">
        <ele>416.4</ele>
        <time>2023-02-12T09:00:17Z</time>
      </trkpt>
      <trkpt lat="47.11724" lon="8.46682">
        <ele>416.4</ele>
        <time>2023-02-12T09:00:18Z</time>
      </trkpt>
      <trkpt lat="47.11723" lon="8.46689">
        <ele>416.6</ele>
        <time>2023-02-12T09:00:19Z</time>
      </trkpt>
      <trkpt lat="47.11723" lon="8.46696">
        <ele>416.6</ele>
        <time>2023-02-12T09:00:20Z</time>
      </trkpt>
      <trkpt lat="47.11722" lon="8.46704">
        <ele>416.8</ele>
        <time>2023-02-12T09:00:21Z</time>
      </trkpt>
      <trkpt lat="47.11721" lon="8.46711">
        <ele>416.8</ele>
        <time>2023-02-12T09:00:22Z</time>
      </trkpt>
      <trkpt lat="47.11719" lon="8.46718">
        <ele>417</ele>
        <time>2023-02-12T09:00:23Z</time>
      </trkpt>
      <trkpt lat="47.11717" lon="8.46724">
        <ele>417</ele>
        <time>2023-02-12T09:00:24Z</time>
      </trkpt>
      <trkpt lat="47.11714" lon="8.46729">
        <ele>417</ele>
        <time>2023-02-12T09:00:25Z</time>
      </trkpt>
      <trkpt lat="47.1171" lon="8.46735">
        <ele>417</ele>
        <time>2023-02-12T09:00:26Z</time>
      </trkpt>
      <trkpt lat="47.11707" lon="8.4674">
        <ele>417</ele>
        <time>2023-02-12T09:00:27Z</time>
      </trkpt>
      <trkpt lat="47.11704" lon="8.46746">
        <ele>417</ele>
        <time>2023-02-12T09:00:28Z</time>
      </trkpt>
      <trkpt lat="47.11702" lon="8.46753">
        <ele>417</ele>
        <time>2023-02-12T09:00:29Z</time>
      </trkpt>
      <trkpt lat="47.117" lon="8.4676">
        <ele>417.2</ele>
        <time>2023-02-12T09:00:30Z</time>
      </trkpt>
      <trkpt lat="47.11699" lon="8.46768">
        <ele>417</ele>
        <time>2023-02-12T09:00:31Z</time>
      </trkpt>
      <trkpt lat="47.11697" lon="8.46775">
        <ele>417</ele>
        <time>2023-02-12T09:00:32Z</time>
      </trkpt>
      <trkpt lat="47.11696" lon="8.46783">
        <ele>417</ele>
        <time>2023-02-12T09:00:33Z</time>
      </trkpt>
      <trkpt lat="47.11694" lon="8.46792">
        <ele>416.8</ele>
        <time>2023-02-12T09:00:34Z</time>
      </trkpt>
      <trkpt lat="47.11691" lon="8.468">
        <ele>416.8</ele>
        <time>2023-02-12T09:00:35Z</time>
      </trkpt>
      <trkpt lat="47.11688" lon="8.46808">
        <ele>416.8</ele>
        <time>2023-02-12T09:00:36Z</time>
      </trkpt>
      <trkpt lat="47.11684" lon="8.46815">
        <ele>416.6</ele>
        <time>2023-02-12T09:00:37Z</time>
      </trkpt>
      <trkpt lat="47.11681" lon="8.46821">
        <ele>416.4</ele>
        <time>2023-02-12T09:00:38Z</time>
      </trkpt>
      <trkpt lat="47.11677" lon="8.46828">
        <ele>416.4</ele>
        <time>2023-02-12T09:00:39Z</time>
      </trkpt>
      <trkpt lat="47.11674" lon="8.46835">
        <ele>416.2</ele>
        <time>2023-02-12T09:00:40Z</time>
      </trkpt>
      <trkpt lat="47.11671" lon="8.46843">
        <ele>416</ele>
        <time>2023-02-12T09:00:41Z</time>
      </trkpt>
      <trkpt lat="47.11669" lon="8.46851">
        <ele>415.8</ele>
        <time>2023-02-12T09:00:42Z</time>
      </trkpt>
      <trkpt lat="47.11666" lon="8.46858">
        <ele>415.8</ele>
        <time>2023-02-12T09:00:43Z</time>
      </trkpt>
      <trkpt lat="47.11663" lon="8.46865">
        <ele>415.8</ele>
        <time>2023-02-12T09:00:44Z</time>
      </trkpt>
      <trkpt lat="47.11661" lon="8.46871">
        <ele>415.6</ele>
        <time>2023-02-12T09:00:45Z</time>
      </trkpt>
      <trkpt lat="47.11658" lon="8.46876">
        <ele>415.4</ele>
        <time>2023-02-12T09:00:46Z</time>
      </trkpt>
      <trkpt lat="47.11655" lon="8.46882">
        <ele>415.2</ele>
        <time>2023-02-12T09:00:47Z</time>
      </trkpt>
      <trkpt lat="47.11653" lon="8.46889">
        <ele>415.2</ele>
        <time>2023-02-12T09:00:48Z</time>
      </trkpt>
      <trkpt lat="47.11651" lon="8.46894">
        <ele>415.2</ele>
        <time>2023-02-12T09:00:49Z</time>
      </trkpt>
      <trkpt lat="47.11649" lon="8.46902">
        <ele>415.2</ele>
        <time>2023-02-12T09:00:50Z</time>
      </trkpt>
      <trkpt lat="47.11646" lon="8.46909">
        <ele>415.2</ele>
        <time>2023-02-12T09:00:51Z</time>
      </trkpt>
      <trkpt lat="47.11643" lon="8.46917">
        <ele>415.2</ele>
        <time>2023-02-12T09:00:52Z</time>
      </trkpt>
      <trkpt lat="47.1164" lon="8.46924">
        <ele>415.2</ele>
        <time>2023-02-12T09:00:53Z</time>
      </trkpt>
      <trkpt lat="47.11637" lon="8.4693">
        <ele>415.2</ele>
        <time>2023-02-12T09:00:54Z</time>
      </trkpt>
      <trkpt lat="47.11634" lon="8.46937">
        <ele>415.2</ele>
        <time>2023-02-12T09:00:55Z</time>
      </trkpt>
      <trkpt lat="47.11631" lon="8.46944">
        <ele>415</ele>
        <time>2023-02-12T09:00:56Z</time>
      </trkpt>
      <trkpt lat="47.11628" lon="8.46951">
        <ele>415</ele>
        <time>2023-02-12T09:00:57Z</time>
      </trkpt>
      <trkpt lat="47.11625" lon="8.46957">
        <ele>415</ele>
        <time>2023-02-12T09:00:58Z</time>
      </trkpt>
      <trkpt lat="47.11622" lon="8.46964">
        <ele>415</ele>
        <time>2023-02-12T09:00:59Z</time>
      </trkpt>
      <trkpt lat="47.1162" lon="8.46971">
        <ele>415</ele>
        <time>2023-02-12T09:01:00Z</time>
      </trkpt>
      <trkpt lat="47.11617" lon="8.46977">
        <ele>415</ele>
        <time>2023-02-12T09:01:01Z</time>
      </trkpt>
      <trkpt lat="47.11615" lon="8.46982">
        <ele>415</ele>
        <time>2023-02-12T09:01:02Z</time>
      </trkpt>
      <trkpt lat="47.11613" lon="8.46988">
        <ele>415</ele>
        <time>2023-02-12T09:01:03Z</time>
      </trkpt>
      <trkpt lat="47.11611" lon="8.46993">
        <ele>415.2</ele>
        <time>2023-02-12T09:01:04Z</time>
      </trkpt>
      <trkpt lat="47.11608" lon="8.46999">
        <ele>415.4</ele>
        <time>2023-02-12T09:01:05Z</time>
      </trkpt>
      <trkpt lat="47.11607" lon="8.47004">
        <ele>415.6</ele>
        <time>2023-02-12T09:01:06Z</time>
      </trkpt>
      <trkpt lat="47.11605" lon="8.47009">
        <ele>416</ele>
        <time>2023-02-12T09:01:07Z</time>
      </trkpt>
      <trkpt lat="47.11603" lon="8.47015">
        <ele>416.2</ele>
        <time>2023-02-12T09:01:08Z</time>
      </trkpt>
      <trkpt lat="47.11601" lon="8.47021">
        <ele>416.2</ele>
        <time>2023-02-12T09:01:09Z</time>
      </trkpt>
      <trkpt lat="47.11599" lon="8.47028">
        <ele>416.4</ele>
        <time>2023-02-12T09:01:10Z</time>
      </trkpt>
      <trkpt lat="47.11597" lon="8.47035">
        <ele>416.6</ele>
        <time>2023-02-12T09:01:11Z</time>
      </trkpt>
      <trkpt lat="47.11595" lon="8.47041">
        <ele>416.8</ele>
        <time>2023-02-12T09:01:12Z</time>
      </trkpt>
      <trkpt lat="47.11592" lon="8.47048">
        <ele>416.8</ele>
        <time>2023-02-12T09:01:13Z</time>
      </trkpt>
      <trkpt lat="47.1159" lon="8.47055">
        <ele>416.8</ele>
        <time>2023-02-12T09:01:14Z</time>
      </trkpt>
      <trkpt lat="47.11588" lon="8.47063">
        <ele>416.8</ele>
        <time>2023-02-12T09:01:15Z</time>
      </trkpt>
      <trkpt lat="47.11586" lon="8.4707">
        <ele>416.8</ele>
        <time>2023-02-12T09:01:16Z</time>
      </trkpt>
      <trkpt lat="47.11583" lon="8.47076">
        <ele>416.8</ele>
        <time>2023-02-12T09:01:17Z</time>
      </trkpt>
      <trkpt lat="47.1158" lon="8.47081">
        <ele>416.8</ele>
        <time>2023-02-12T09:01:18Z</time>
      </trkpt>
      <trkpt lat="47.11577" lon="8.47086">
        <ele>416.8</ele>
        <time>2023-02-12T09:01:19Z</time>
      </trkpt>
      <trkpt lat="47.11573" lon="8.47089">
        <ele>416.8</ele>
        <time>2023-02-12T09:01:20Z</time>
      </trkpt>
      <trkpt lat="47.11569" lon="8.47093">
        <ele>416.8</ele>
        <time>2023-02-12T09:01:21Z</time>
      </trkpt>
      <trkpt lat="47.11564" lon="8.47097">
        <ele>416.8</ele>
        <time>2023-02-12T09:01:22Z</time>
      </trkpt>
      <trkpt lat="47.11559" lon="8.47101">
        <ele>416.8</ele>
        <time>2023-02-12T09:01:23Z</time>
      </trkpt>
      <trkpt lat="47.11554" lon="8.47105">
        <ele>416.8</ele>
        <time>2023-02-12T09:01:24Z</time>
      </trkpt>
      <trkpt lat="47.1155" lon="8.47108">
        <ele>416.8</ele>
        <time>2023-02-12T09:01:25Z</time>
      </trkpt>
      <trkpt lat="47.11545" lon="8.47112">
        <ele>416.8</ele>
        <time>2023-02-12T09:01:26Z</time>
      </trkpt>
      <trkpt lat="47.11542" lon="8.47114">
        <ele>416.8</ele>
        <time>2023-02-12T09:01:27Z</time>
      </trkpt>
      <trkpt lat="47.11538" lon="8.47117">
        <ele>416.8</ele>
        <time>2023-02-12T09:01:28Z</time>
      </trkpt>
      <trkpt lat="47.11534" lon="8.47119">
        <ele>416.8</ele>
        <time>2023-02-12T09:01:29Z</time>
      </trkpt>
      <trkpt lat="47.11529" lon="8.47122">
        <ele>416.8</ele>
        <time>2023-02-12T09:01:30Z</time>
      </trkpt>
      <trkpt lat="47.11525" lon="8.47126">
        <ele>416.8</ele>
        <time>2023-02-12T09:01:31Z</time>
      </trkpt>
      <trkpt lat="47.11521" lon="8.4713">
        <ele>416.6</ele>
        <time>2023-02-12T09:01:32Z</time>
      </trkpt>
      <trkpt lat="47.11516" lon="8.47134">
        <ele>416.4</ele>
        <time>2023-02-12T09:01:33Z</time>
      </trkpt>
      <trkpt lat="47.11512" lon="8.47138">
        <ele>416.4</ele>
        <time>2023-02-12T09:01:34Z</time>
      </trkpt>
      <trkpt lat="47.11509" lon="8.47143">
        <ele>416.4</ele>
        <time>2023-02-12T09:01:35Z</time>
      </trkpt>
      <trkpt lat="47.11505" lon="8.47148">
        <ele>416.2</ele>
        <time>2023-02-12T09:01:36Z</time>
      </trkpt>
      <trkpt lat="47.11502" lon="8.47153">
        <ele>416</ele>
        <time>2023-02-12T09:01:37Z</time>
      </trkpt>
      <trkpt lat="47.11498" lon="8.47159">
        <ele>416</ele>
        <time>2023-02-12T09:01:38Z</time>
      </trkpt>
      <trkpt lat="47.11495" lon="8.47165">
        <ele>416</ele>
        <time>2023-02-12T09:01:39Z</time>
      </trkpt>
      <trkpt lat="47.11492" lon="8.4717">
        <ele>416</ele>
        <time>2023-02-12T09:01:40Z</time>
      </trkpt>
      <trkpt lat="47.11488" lon="8.47175">
        <ele>416</ele>
        <time>2023-02-12T09:01:41Z</time>
      </trkpt>
      <trkpt lat="47.11485" lon="8.47182">
        <ele>415.8</ele>
        <time>2023-02-12T09:01:42Z</time>
      </trkpt>
      <trkpt lat="47.11482" lon="8.47187">
        <ele>415.8</ele>
        <time>2023-02-12T09:01:43Z</time>
      </trkpt>
      <trkpt lat="47.11478" lon="8.47193">
        <ele>416</ele>
        <time>2023-02-12T09:01:44Z</time>
      </trkpt>
      <trkpt lat="47.11474" lon="8.47199">
        <ele>416</ele>
        <time>2023-02-12T09:01:45Z</time>
      </trkpt>
      <trkpt lat="47.1147" lon="8.47205">
        <ele>416</ele>
        <time>2023-02-12T09:01:46Z</time>
      </trkpt>
      <trkpt lat="47.11466" lon="8.47211">
        <ele>416</ele>
        <time>2023-02-12T09:01:47Z</time>
      </trkpt>
      <trkpt lat="47.11463" lon="8.47217">
        <ele>416</ele>
        <time>2023-02-12T09:01:48Z</time>
      </trkpt>
      <trkpt lat="47.11459" lon="8.47223">
        <ele>416</ele>
        <time>2023-02-12T09:01:49Z</time>
      </trkpt>
      <trkpt lat="47.11456" lon="8.4723">
        <ele>415.8</ele>
        <time>2023-02-12T09:01:50Z</time>
      </trkpt>
      <trkpt lat="47.11452" lon="8.47236">
        <ele>415.8</ele>
        <time>2023-02-12T09:01:51Z</time>
      </trkpt>
      <trkpt lat="47.11449" lon="8.47242">
        <ele>415.8</ele>
        <time>2023-02-12T09:01:52Z</time>
      </trkpt>
      <trkpt lat="47.11447" lon="8.47249">
        <ele>415.8</ele>
        <time>2023-02-12T09:01:53Z</time>
      </trkpt>
      <trkpt lat="47.11445" lon="8.47255">
        <ele>415.8</ele>
        <time>2023-02-12T09:01:54Z</time>
      </trkpt>
      <trkpt lat="47.11443" lon="8.47262">
        <ele>415.8</ele>
        <time>2023-02-12T09:01:55Z</time>
      </trkpt>
      <trkpt lat="47.11442" lon="8.47269">
        <ele>415.8</ele>
        <time>2023-02-12T09:01:56Z</time>
      </trkpt>
      <trkpt lat="47.11442" lon="8.47277">
        <ele>415.8</ele>
        <time>2023-02-12T09:01:57Z</time>
      </trkpt>
      <trkpt lat="47.11442" lon="8.47284">
        <ele>415.8</ele>
        <time>2023-02-12T09:01:58Z</time>
      </trkpt>
      <trkpt lat="47.11442" lon="8.47291">
        <ele>415.8</ele>
        <time>2023-02-12T09:01:59Z</time>
      </trkpt>
      <trkpt lat="47.11442" lon="8.47299">
        <ele>415.8</ele>
        <time>2023-02-12T09:02:00Z</time>
      </trkpt>
      <trkpt lat="47.11443" lon="8.47306">
        <ele>415.8</ele>
        <time>2023-02-12T09:02:01Z</time>
      </trkpt>
      <trkpt lat="47.11443" lon="8.47312">
        <ele>415.8</ele>
        <time>2023-02-12T09:02:02Z</time>
      </trkpt>
      <trkpt lat="47.11443" lon="8.47318">
        <ele>415.8</ele>
        <time>2023-02-12T09:02:03Z</time>
      </trkpt>
      <trkpt lat="47.11444" lon="8.47324">
        <ele>415.8</ele>
        <time>2023-02-12T09:02:04Z</time>
      </trkpt>
      <trkpt lat="47.11445" lon="8.4733">
        <ele>415.8</ele>
        <time>2023-02-12T09:02:05Z</time>
      </trkpt>
      <trkpt lat="47.11445" lon="8.47335">
        <ele>416</ele>
        <time>2023-02-12T09:02:06Z</time>
      </trkpt>
      <trkpt lat="47.11445" lon="8.47341">
        <ele>416.2</ele>
        <time>2023-02-12T09:02:07Z</time>
      </trkpt>
      <trkpt lat="47.11445" lon="8.47347">
        <ele>416.2</ele>
        <time>2023-02-12T09:02:08Z</time>
      </trkpt>
      <trkpt lat="47.11444" lon="8.47352">
        <ele>416.6</ele>
        <time>2023-02-12T09:02:09Z</time>
      </trkpt>
      <trkpt lat="47.11443" lon="8.47357">
        <ele>416.6</ele>
        <time>2023-02-12T09:02:10Z</time>
      </trkpt>
      <trkpt lat="47.11441" lon="8.47362">
        <ele>416.8</ele>
        <time>2023-02-12T09:02:11Z</time>
      </trkpt>
      <trkpt lat="47.11439" lon="8.47365">
        <ele>416.8</ele>
        <time>2023-02-12T09:02:12Z</time>
      </trkpt>
      <trkpt lat="47.11437" lon="8.4737">
        <ele>417</ele>
        <time>2023-02-12T09:02:13Z</time>
      </trkpt>
      <trkpt lat="47.11435" lon="8.47375">
        <ele>417.2</ele>
        <time>2023-02-12T09:02:14Z</time>
      </trkpt>
      <trkpt lat="47.11433" lon="8.4738">
        <ele>417.4</ele>
        <time>2023-02-12T09:02:15Z</time>
      </trkpt>
      <trkpt lat="47.11431" lon="8.47385">
        <ele>417.6</ele>
        <time>2023-02-12T09:02:16Z</time>
      </trkpt>
      <trkpt lat="47.11429" lon="8.47391">
        <ele>417.6</ele>
        <time>2023-02-12T09:02:17Z</time>
      </trkpt>
      <trkpt lat="47.11427" lon="8.47397">
        <ele>417.8</ele>
        <time>2023-02-12T09:02:18Z</time>
      </trkpt>
      <trkpt lat="47.11425" lon="8.47404">
        <ele>417.8</ele>
        <time>2023-02-12T09:02:19Z</time>
      </trkpt>
      <trkpt lat="47.11423" lon="8.47411">
        <ele>417.8</ele>
        <time>2023-02-12T09:02:20Z</time>
      </trkpt>
      <trkpt lat="47.11421" lon="8.47417">
        <ele>417.6</ele>
        <time>2023-02-12T09:02:21Z</time>
      </trkpt>
      <trkpt lat="47.11419" lon="8.47424">
        <ele>417.4</ele>
        <time>2023-02-12T09:02:22Z</time>
      </trkpt>
      <trkpt lat="47.11417" lon="8.47429">
        <ele>417.4</ele>
        <time>2023-02-12T09:02:23Z</time>
      </trkpt>
      <trkpt lat="47.11416" lon="8.47434">
        <ele>417.4</ele>
        <time>2023-02-12T09:02:24Z</time>
      </trkpt>
      <trkpt lat="47.11415" lon="8.47438">
        <ele>417.2</ele>
        <time>2023-02-12T09:02:25Z</time>
      </trkpt>
      <trkpt lat="47.11413" lon="8.47443">
        <ele>417.2</ele>
        <time>2023-02-12T09:02:26Z</time>
      </trkpt>
      <trkpt lat="47.11411" lon="8.47447">
        <ele>417.2</ele>
        <time>2023-02-12T09:02:27Z</time>
      </trkpt>
      <trkpt lat="47.11409" lon="8.47451">
        <ele>417.2</ele>
        <time>2023-02-12T09:02:28Z</time>
      </trkpt>
      <trkpt lat="47.11407" lon="8.47455">
        <ele>417.2</ele>
        <time>2023-02-12T09:02:29Z</time>
      </trkpt>
      <trkpt lat="47.11404" lon="8.47457">
        <ele>417</ele>
        <time>2023-02-12T09:02:30Z</time>
      </trkpt>
      <trkpt lat="47.11401" lon="8.47459">
        <ele>417.2</ele>
        <time>2023-02-12T09:02:31Z</time>
      </trkpt>
      <trkpt lat="47.11399" lon="8.4746">
        <ele>417.2</ele>
        <time>2023-02-12T09:02:32Z</time>
      </trkpt>
      <trkpt lat="47.11396" lon="8.4746">
        <ele>417.2</ele>
        <time>2023-02-12T09:02:33Z</time>
      </trkpt>
      <trkpt lat="47.11393" lon="8.4746">
        <ele>417.4</ele>
        <time>2023-02-12T09:02:34Z</time>
      </trkpt>
      <trkpt lat="47.1139" lon="8.47458">
        <ele>417.4</ele>
        <time>2023-02-12T09:02:35Z</time>
      </trkpt>
      <trkpt lat="47.11387" lon="8.47457">
        <ele>417.4</ele>
        <time>2023-02-12T09:02:36Z</time>
      </trkpt>
      <trkpt lat="47.11385" lon="8.47456">
        <ele>417.6</ele>
        <time>2023-02-12T09:02:37Z</time>
      </trkpt>
      <trkpt lat="47.11382" lon="8.47455">
        <ele>417.8</ele>
        <time>2023-02-12T09:02:38Z</time>
      </trkpt>
      <trkpt lat="47.1138" lon="8.47454">
        <ele>418</ele>
        <time>2023-02-12T09:02:39Z</time>
      </trkpt>
      <trkpt lat="47.11378" lon="8.47453">
        <ele>418.2</ele>
        <time>2023-02-12T09:02:40Z</time>
      </trkpt>
      <trkpt lat="47.11376" lon="8.47452">
        <ele>418.4</ele>
        <time>2023-02-12T09:02:41Z</time>
      </trkpt>
      <trkpt lat="47.11373" lon="8.47451">
        <ele>418.8</ele>
        <time>2023-02-12T09:02:42Z</time>
      </trkpt>
      <trkpt lat="47.11371" lon="8.4745">
        <ele>419.2</ele>
        <time>2023-02-12T09:02:43Z</time>
      </trkpt>
      <trkpt lat="47.11368" lon="8.47448">
        <ele>419.4</ele>
        <time>2023-02-12T09:02:44Z</time>
      </trkpt>
      <trkpt lat="47.11366" lon="8.47448">
        <ele>419.6</ele>
        <time>2023-02-12T09:02:45Z</time>
      </trkpt>
      <trkpt lat="47.11363" lon="8.47447">
        <ele>420</ele>
        <time>2023-02-12T09:02:46Z</time>
      </trkpt>
      <trkpt lat="47.11361" lon="8.47445">
        <ele>420.2</ele>
        <time>2023-02-12T09:02:47Z</time>
      </trkpt>
      <trkpt lat="47.11359" lon="8.47445">
        <ele>420.4</ele>
        <time>2023-02-12T09:02:48Z</time>
      </trkpt>
      <trkpt lat="47.11357" lon="8.47445">
        <ele>420.8</ele>
        <time>2023-02-12T09:02:49Z</time>
      </trkpt>
      <trkpt lat="47.11355" lon="8.47445">
        <ele>420.8</ele>
        <time>2023-02-12T09:02:50Z</time>
      </trkpt>
      <trkpt lat="47.11353" lon="8.47444">
        <ele>421</ele>
        <time>2023-02-12T09:02:51Z</time>
      </trkpt>
      <trkpt lat="47.1135" lon="8.47444">
        <ele>421.2</ele>
        <time>2023-02-12T09:02:52Z</time>
      </trkpt>
      <trkpt lat="47.11348" lon="8.47445">
        <ele>421.4</ele>
        <time>2023-02-12T09:02:53Z</time>
      </trkpt>
      <trkpt lat="47.11346" lon="8.47446">
        <ele>421.6</ele>
        <time>2023-02-12T09:02:54Z</time>
      </trkpt>
      <trkpt lat="47.11344" lon="8.47447">
        <ele>421.8</ele>
        <time>2023-02-12T09:02:55Z</time>
      </trkpt>
      <trkpt lat="47.11342" lon="8.47448">
        <ele>422</ele>
        <time>2023-02-12T09:02:56Z</time>
      </trkpt>
      <trkpt lat="47.11341" lon="8.47448">
        <ele>422.4</ele>
        <time>2023-02-12T09:02:57Z</time>
      </trkpt>
      <trkpt lat="47.1134" lon="8.47449">
        <ele>422.8</ele>
        <time>2023-02-12T09:02:58Z</time>
      </trkpt>
      <trkpt lat="47.11338" lon="8.4745">
        <ele>423</ele>
        <time>2023-02-12T09:02:59Z</time>
      </trkpt>
      <trkpt lat="47.11337" lon="8.47451">
        <ele>423.2</ele>
        <time>2023-02-12T09:03:00Z</time>
      </trkpt>
      <trkpt lat="47.11336" lon="8.47452">
        <ele>423.4</ele>
        <time>2023-02-12T09:03:01Z</time>
      </trkpt>
      <trkpt lat="47.11334" lon="8.47452">
        <ele>423.4</ele>
        <time>2023-02-12T09:03:02Z</time>
      </trkpt>
      <trkpt lat="47.11333" lon="8.47453">
        <ele>423.4</ele>
        <time>2023-02-12T09:03:03Z</time>
      </trkpt>
      <trkpt lat="47.11331" lon="8.47453">
        <ele>423.6</ele>
        <time>2023-02-12T09:03:04Z</time>
      </trkpt>
      <trkpt lat="47.1133" lon="8.47452">
        <ele>423.8</ele>
        <time>2023-02-12T09:03:05Z</time>
      </trkpt>
      <trkpt lat="47.11329" lon="8.47452">
        <ele>424</ele>
        <time>2023-02-12T09:03:06Z</time>
      </trkpt>
      <trkpt lat="47.11327" lon="8.47452">
        <ele>424</ele>
        <time>2023-02-12T09:03:07Z</time>
      </trkpt>
      <trkpt lat="47.11324" lon="8.47453">
        <ele>424.2</ele>
        <time>2023-02-12T09:03:08Z</time>
      </trkpt>
      <trkpt lat="47.11322" lon="8.47454">
        <ele>424.2</ele>
        <time>2023-02-12T09:03:09Z</time>
      </trkpt>
      <trkpt lat="47.11319" lon="8.47454">
        <ele>424.4</ele>
        <time>2023-02-12T09:03:10Z</time>
      </trkpt>
      <trkpt lat="47.11316" lon="8.47455">
        <ele>424.6</ele>
        <time>2023-02-12T09:03:11Z</time>
      </trkpt>
      <trkpt lat="47.11314" lon="8.47456">
        <ele>424.8</ele>
        <time>2023-02-12T09:03:12Z</time>
      </trkpt>
      <trkpt lat="47.11312" lon="8.47457">
        <ele>425</ele>
        <time>2023-02-12T09:03:13Z</time>
      </trkpt>
      <trkpt lat="47.1131" lon="8.47458">
        <ele>425.2</ele>
        <time>2023-02-12T09:03:14Z</time>
      </trkpt>
      <trkpt lat="47.11309" lon="8.47459">
        <ele>425.2</ele>
        <time>2023-02-12T09:03:15Z</time>
      </trkpt>
      <trkpt lat="47.11307" lon="8.47459">
        <ele>425.6</ele>
        <time>2023-02-12T09:03:16Z</time>
      </trkpt>
      <trkpt lat="47.11304" lon="8.47459">
        <ele>425.8</ele>
        <time>2023-02-12T09:03:17Z</time>
      </trkpt>
      <trkpt lat="47.11302" lon="8.47459">
        <ele>426</ele>
        <time>2023-02-12T09:03:18Z</time>
      </trkpt>
      <trkpt lat="47.113" lon="8.4746">
        <ele>426.2</ele>
        <time>2023-02-12T09:03:19Z</time>
      </trkpt>
      <trkpt lat="47.11298" lon="8.4746">
        <ele>426.6</ele>
        <time>2023-02-12T09:03:20Z</time>
      </trkpt>
      <trkpt lat="47.11296" lon="8.47459">
        <ele>426.8</ele>
        <time>2023-02-12T09:03:21Z</time>
      </trkpt>
      <trkpt lat="47.11295" lon="8.47459">
        <ele>427</ele>
        <time>2023-02-12T09:03:22Z</time>
      </trkpt>
      <trkpt lat="47.11292" lon="8.4746">
        <ele>427.4</ele>
        <time>2023-02-12T09:03:23Z</time>
      </trkpt>
      <trkpt lat="47.11291" lon="8.47459">
        <ele>427.8</ele>
        <time>2023-02-12T09:03:24Z</time>
      </trkpt>
      <trkpt lat="47.11289" lon="8.47459">
        <ele>428</ele>
        <time>2023-02-12T09:03:25Z</time>
      </trkpt>
      <trkpt lat="47.11287" lon="8.47459">
        <ele>428.6</ele>
        <time>2023-02-12T09:03:26Z</time>
      </trkpt>
      <trkpt lat="47.11286" lon="8.47459">
        <ele>429</ele>
        <time>2023-02-12T09:03:27Z</time>
      </trkpt>
      <trkpt lat="47.11284" lon="8.47458">
        <ele>429.2</ele>
        <time>2023-02-12T09:03:28Z</time>
      </trkpt>
      <trkpt lat="47.11282" lon="8.47458">
        <ele>429.6</ele>
        <time>2023-02-12T09:03:29Z</time>
      </trkpt>
      <trkpt lat="47.1128" lon="8.47458">
        <ele>429.8</ele>
        <time>2023-02-12T09:03:30Z</time>
      </trkpt>
      <trkpt lat="47.11278" lon="8.47457">
        <ele>430.2</ele>
        <time>2023-02-12T09:03:31Z</time>
      </trkpt>
      <trkpt lat="47.11277" lon="8.47457">
        <ele>430.6</ele>
        <time>2023-02-12T09:03:32Z</time>
      </trkpt>
      <trkpt lat="47.11276" lon="8.47456">
        <ele>431</ele>
        <time>2023-02-12T09:03:33Z</time>
      </trkpt>
      <trkpt lat="47.11274" lon="8.47456">
        <ele>431.2</ele>
        <time>2023-02-12T09:03:34Z</time>
      </trkpt>
      <trkpt lat="47.11273" lon="8.47455">
        <ele>431.8</ele>
        <time>2023-02-12T09:03:35Z</time>
      </trkpt>
      <trkpt lat="47.11271" lon="8.47455">
        <ele>432</ele>
        <time>2023-02-12T09:03:36Z</time>
      </trkpt>
      <trkpt lat="47.1127" lon="8.47454">
        <ele>432.4</ele>
        <time>2023-02-12T09:03:37Z</time>
      </trkpt>
      <trkpt lat="47.11268" lon="8.47454">
        <ele>432.8</ele>
        <time>2023-02-12T09:03:38Z</time>
      </trkpt>
      <trkpt lat="47.11267" lon="8.47453">
        <ele>433.2</ele>
        <time>2023-02-12T09:03:39Z</time>
      </trkpt>
      <trkpt lat="47.11265" lon="8.47453">
        <ele>433.6</ele>
        <time>2023-02-12T09:03:40Z</time>
      </trkpt>
      <trkpt lat="47.11264" lon="8.47453">
        <ele>433.6</ele>
        <time>2023-02-12T09:03:41Z</time>
      </trkpt>
      <trkpt lat="47.11262" lon="8.47454">
        <ele>434</ele>
        <time>2023-02-12T09:03:42Z</time>
      </trkpt>
      <trkpt lat="47.1126" lon="8.47453">
        <ele>434.6</ele>
        <time>2023-02-12T09:03:43Z</time>
      </trkpt>
      <trkpt lat="47.11258" lon="8.47453">
        <ele>435</ele>
        <time>2023-02-12T09:03:44Z</time>
      </trkpt>
      <trkpt lat="47.11256" lon="8.47453">
        <ele>435.4</ele>
        <time>2023-02-12T09:03:45Z</time>
      </trkpt>
      <trkpt lat="47.11254" lon="8.47453">
        <ele>435.8</ele>
        <time>2023-02-12T09:03:46Z</time>
      </trkpt>
      <trkpt lat="47.11252" lon="8.47453">
        <ele>436.2</ele>
        <time>2023-02-12T09:03:47Z</time>
      </trkpt>
      <trkpt lat="47.1125" lon="8.47453">
        <ele>436.6</ele>
        <time>2023-02-12T09:03:48Z</time>
      </trkpt>
      <trkpt lat="47.11249" lon="8.47453">
        <ele>437</ele>
        <time>2023-02-12T09:03:49Z</time>
      </trkpt>
      <trkpt lat="47.11249" lon="8.47453">
        <ele>437.4</ele>
        <time>2023-02-12T09:03:50Z</time>
      </trkpt>
      <trkpt lat="47.11248" lon="8.47454">
        <ele>437.8</ele>
        <time>2023-02-12T09:03:51Z</time>
      </trkpt>
      <trkpt lat="47.11247" lon="8.47454">
        <ele>438</ele>
        <time>2023-02-12T09:03:52Z</time>
      </trkpt>
      <trkpt lat="47.11246" lon="8.47454">
        <ele>438.4</ele>
        <time>2023-02-12T09:03:53Z</time>
      </trkpt>
      <trkpt lat="47.11244" lon="8.47455">
        <ele>438.8</ele>
        <time>2023-02-12T09:03:54Z</time>
      </trkpt>
      <trkpt lat="47.11242" lon="8.47456">
        <ele>439.2</ele>
        <time>2023-02-12T09:03:55Z</time>
      </trkpt>
      <trkpt lat="47.11241" lon="8.47456">
        <ele>439.6</ele>
        <time>2023-02-12T09:03:56Z</time>
      </trkpt>
      <trkpt lat="47.11239" lon="8.47457">
        <ele>440</ele>
        <time>2023-02-12T09:03:57Z</time>
      </trkpt>
      <trkpt lat="47.11237" lon="8.47458">
        <ele>440.6</ele>
        <time>2023-02-12T09:03:58Z</time>
      </trkpt>
      <trkpt lat="47.11236" lon="8.47459">
        <ele>440.8</ele>
        <time>2023-02-12T09:03:59Z</time>
      </trkpt>
      <trkpt lat="47.11234" lon="8.4746">
        <ele>441.2</ele>
        <time>2023-02-12T09:04:00Z</time>
      </trkpt>
      <trkpt lat="47.11233" lon="8.47461">
        <ele>441.6</ele>
        <time>2023-02-12T09:04:01Z</time>
      </trkpt>
      <trkpt lat="47.11231" lon="8.47461">
        <ele>441.6</ele>
        <time>2023-02-12T09:04:02Z</time>
      </trkpt>
      <trkpt lat="47.11229" lon="8.47463">
        <ele>442</ele>
        <time>2023-02-12T09:04:03Z</time>
      </trkpt>
      <trkpt lat="47.11227" lon="8.47464">
        <ele>442.2</ele>
        <time>2023-02-12T09:04:04Z</time>
      </trkpt>
      <trkpt lat="47.11224" lon="8.47465">
        <ele>442.6</ele>
        <time>2023-02-12T09:04:05Z</time>
      </trkpt>
      <trkpt lat="47.11222" lon="8.47466">
        <ele>443</ele>
        <time>2023-02-12T09:04:06Z</time>
      </trkpt>
      <trkpt lat="47.1122" lon="8.47467">
        <ele>443</ele>
        <time>2023-02-12T09:04:07Z</time>
      </trkpt>
      <trkpt lat="47.11217" lon="8.47468">
        <ele>443.4</ele>
        <time>2023-02-12T09:04:08Z</time>
      </trkpt>
      <trkpt lat="47.11216" lon="8.47468">
        <ele>443.6</ele>
        <time>2023-02-12T09:04:09Z</time>
      </trkpt>
      <trkpt lat="47.11215" lon="8.47468">
        <ele>444</ele>
        <time>2023-02-12T09:04:10Z</time>
      </trkpt>
      <trkpt lat="47.11213" lon="8.47468">
        <ele>444.4</ele>
        <time>2023-02-12T09:04:11Z</time>
      </trkpt>
      <trkpt lat="47.11211" lon="8.47467">
        <ele>445</ele>
        <time>2023-02-12T09:04:12Z</time>
      </trkpt>
      <trkpt lat="47.11209" lon="8.47467">
        <ele>445.4</ele>
        <time>2023-02-12T09:04:13Z</time>
      </trkpt>
      <trkpt lat="47.11208" lon="8.47468">
        <ele>445.8</ele>
        <time>2023-02-12T09:04:14Z</time>
      </trkpt>
      <trkpt lat="47.11206" lon="8.47469">
        <ele>446</ele>
        <time>2023-02-12T09:04:15Z</time>
      </trkpt>
      <trkpt lat="47.11204" lon="8.47469">
        <ele>446.4</ele>
        <time>2023-02-12T09:04:16Z</time>
      </trkpt>
      <trkpt lat="47.11203" lon="8.47469">
        <ele>446.6</ele>
        <time>2023-02-12T09:04:17Z</time>
      </trkpt>
      <trkpt lat="47.11201" lon="8.4747">
        <ele>446.8</ele>
        <time>2023-02-12T09:04:18Z</time>
      </trkpt>
      <trkpt lat="47.112" lon="8.47471">
        <ele>447.2</ele>
        <time>2023-02-12T09:04:19Z</time>
      </trkpt>
      <trkpt lat="47.11199" lon="8.47472">
        <ele>447.4</ele>
        <time>2023-02-12T09:04:20Z</time>
      </trkpt>
      <trkpt lat="47.11197" lon="8.47473">
        <ele>447.4</ele>
        <time>2023-02-12T09:04:21Z</time>
      </trkpt>
      <trkpt lat="47.11196" lon="8.47475">
        <ele>447.6</ele>
        <time>2023-02-12T09:04:22Z</time>
      </trkpt>
      <trkpt lat="47.11195" lon="8.47476">
        <ele>447.6</ele>
        <time>2023-02-12T09:04:23Z</time>
      </trkpt>
      <trkpt lat="47.11194" lon="8.47477">
        <ele>448</ele>
        <time>2023-02-12T09:04:24Z</time>
      </trkpt>
      <trkpt lat="47.11193" lon="8.47477">
        <ele>448.2</ele>
        <time>2023-02-12T09:04:25Z</time>
      </trkpt>
      <trkpt lat="47.11193" lon="8.47477">
        <ele>448.4</ele>
        <time>2023-02-12T09:04:26Z</time>
      </trkpt>
      <trkpt lat="47.11193" lon="8.47477">
        <ele>448.4</ele>
        <time>2023-02-12T09:04:27Z</time>
      </trkpt>
      <trkpt lat="47.11194" lon="8.47476">
        <ele>448.6</ele>
        <time>2023-02-12T09:04:28Z</time>
      </trkpt>
      <trkpt lat="47.11194" lon="8.47476">
        <ele>448.6</ele>
        <time>2023-02-12T09:04:29Z</time>
      </trkpt>
      <trkpt lat="47.11195" lon="8.47477">
        <ele>448.6</ele>
        <time>2023-02-12T09:04:30Z</time>
      </trkpt>
      <trkpt lat="47.11195" lon="8.47478">
        <ele>448.8</ele>
        <time>2023-02-12T09:04:31Z</time>
      </trkpt>
      <trkpt lat="47.11195" lon="8.47479">
        <ele>448.8</ele>
        <time>2023-02-12T09:04:32Z</time>
      </trkpt>
      <trkpt lat="47.11194" lon="8.4748">
        <ele>448.8</ele>
        <time>2023-02-12T09:04:33Z</time>
      </trkpt>
      <trkpt lat="47.11194" lon="8.47481">
        <ele>448.8</ele>
        <time>2023-02-12T09:04:34Z</time>
      </trkpt>
      <trkpt lat="47.11194" lon="8.47482">
        <ele>448.8</ele>
        <time>2023-02-12T09:04:35Z</time>
      </trkpt>
      <trkpt lat="47.11194" lon="8.47482">
        <ele>448.8</ele>
        <time>2023-02-12T09:04:36Z</time>
      </trkpt>
      <trkpt lat="47.11194" lon="8.47482">
        <ele>448.8</ele>
        <time>2023-02-12T09:04:37Z</time>
      </trkpt>
      <trkpt lat="47.11194" lon="8.47482">
        <ele>449</ele>
        <time>2023-02-12T09:04:38Z</time>
      </trkpt>
      <trkpt lat="47.11194" lon="8.47482">
        <ele>449</ele>
        <time>2023-02-12T09:04:39Z</time>
      </trkpt>
      <trkpt lat="47.11194" lon="8.47482">
        <ele>449</ele>
        <time>2023-02-12T09:04:40Z</time>
      </trkpt>
      <trkpt lat="47.11194" lon="8.47482">
        <ele>449</ele>
        <time>2023-02-12T09:04:41Z</time>
      </trkpt>
      <trkpt lat="47.11194" lon="8.47482">
        <ele>449</ele>
        <time>2023-02-12T09:04:42Z</time>
      </trkpt>
      <trkpt lat="47.11194" lon="8.47482">
        <ele>449</ele>
        <time>2023-02-12T09:04:43Z</time>
      </trkpt>
      <trkpt lat="47.11194" lon="8.47482">
        <ele>449</ele>
        <time>2023-02-12T09:04:44Z</time>
      </trkpt>
      <trkpt lat="47.11194" lon="8.47482">
        <ele>449</ele>
        <time>2023-02-12T09:04:45Z</time>
      </trkpt>
      <trkpt lat="47.11194" lon="8.47482">
        <ele>448.8</ele>
        <time>2023-02-12T09:04:46Z</time>
      </trkpt>
      <trkpt lat="47.11194" lon="8.47482">
        <ele>448.6</ele>
        <time>2023-02-12T09:04:47Z</time>
      </trkpt>
      <trkpt lat="47.11194" lon="8.47482">
        <ele>448.6</ele>
        <time>2023-02-12T09:04:48Z</time>
      </trkpt>
      <trkpt lat="47.11194" lon="8.47482">
        <ele>448.4</ele>
        <time>2023-02-12T09:04:49Z</time>
      </trkpt>
      <trkpt lat="47.11194" lon="8.47482">
        <ele>448.4</ele>
        <time>2023-02-12T09:04:50Z</time>
      </trkpt>
      <trkpt lat="47.11194" lon="8.47482">
        <ele>448.4</ele>
        <time>2023-02-12T09:04:51Z</time>
      </trkpt>
      <trkpt lat="47.11194" lon="8.47482">
        <ele>448.4</ele>
        <time>2023-02-12T09:04:52Z</time>
      </trkpt>
      <trkpt lat="47.11194" lon="8.47482">
        <ele>448.4</ele>
        <time>2023-02-12T09:04:53Z</time>
      </trkpt>
      <trkpt lat="47.11194" lon="8.47482">
        <ele>448.4</ele>
        <time>2023-02-12T09:04:54Z</time>
      </trkpt>
      <trkpt lat="47.11194" lon="8.47482">
        <ele>448.4</ele>
        <time>2023-02-12T09:04:55Z</time>
      </trkpt>
      <trkpt lat="47.11194" lon="8.47482">
        <ele>448.4</ele>
        <time>2023-02-12T09:04:56Z</time>
      </trkpt>
      <trkpt lat="47.11194" lon="8.47482">
        <ele>448.4</ele>
        <time>2023-02-12T09:04:57Z</time>
      </trkpt>
      <trkpt lat="47.11194" lon="8.47482">
        <ele>448.4</ele>
        <time>2023-02-12T09:04:58Z</time>
      </trkpt>
      <trkpt lat="47.11194" lon="8.47482">
        <ele>448.2</ele>
        <time>2023-02-12T09:04:59Z</time>
      </trkpt>
      <trkpt lat="47.11194" lon="8.47482">
        <ele>448.2</ele>
        <time>2023-02-12T09:05:00Z</time>
      </trkpt>
      <trkpt lat="47.11194" lon="8.47482">
        <ele>448.4</ele>
        <time>2023-02-12T09:05:01Z</time>
      </trkpt>
      <trkpt lat="47.11194" lon="8.47482">
        <ele>448.4</ele>
        <time>2023-02-12T09:05:02Z</time>
      </trkpt>
      <trkpt lat="47.11194" lon="8.47482">
        <ele>448.4</ele>
        <time>2023-02-12T09:05:03Z</time>
      </trkpt>
      <trkpt lat="47.11194" lon="8.47482">
        <ele>448.4</ele>
        <time>2023-02-12T09:05:04Z</time>
      </trkpt>
      <trkpt lat="47.11194" lon="8.47482">
        <ele>448.4</ele>
        <time>2023-02-12T09:05:05Z</time>
      </trkpt>
      <trkpt lat="47.11194" lon="8.47482">
        <ele>448.4</ele>
        <time>2023-02-12T09:05:06Z</time>
      </trkpt>
      <trkpt lat="47.11194" lon="8.47482">
        <ele>448.4</ele>
        <time>2023-02-12T09:05:07Z</time>
      </trkpt>
      <trkpt lat="47.11194" lon="8.47482">
        <ele>448.4</ele>
        <time>2023-02-12T09:05:08Z</time>
      </trkpt>
      <trkpt lat="47.11194" lon="8.47482">
        <ele>448.4</ele>
        <time>2023-02-12T09:05:09Z</time>
      </trkpt>
      <trkpt lat="47.11194" lon="8.47482">
        <ele>448.6</ele>
        <time>2023-02-12T09:05:10Z</time>
      </trkpt>
      <trkpt lat="47.11194" lon="8.47482">
        <ele>448.6</ele>
        <time>2023-02-12T09:05:11Z</time>
      </trkpt>
      <trkpt lat="47.11194" lon="8.47482">
        <ele>448.6</ele>
        <time>2023-02-12T09:05:12Z</time>
      </trkpt>
      <trkpt lat="47.11194" lon="8.47482">
        <ele>448.6</ele>
        <time>2023-02-12T09:05:13Z</time>
      </trkpt>
      <trkpt lat="47.11194" lon="8.47482">
        <ele>448.6</ele>
        <time>2023-02-12T09:05:14Z</time>
      </trkpt>
      <trkpt lat="47.11194" lon="8.47482">
        <ele>448.6</ele>
        <time>2023-02-12T09:05:15Z</time>
      </trkpt>
      <trkpt lat="47.11194" lon="8.47482">
        <ele>448.6</ele>
        <time>2023-02-12T09:05:16Z</time>
      </trkpt>
      <trkpt lat="47.11194" lon="8.47482">
        <ele>448.6</ele>
        <time>2023-02-12T09:05:17Z</time>
      </trkpt>
      <trkpt lat="47.11194" lon="8.47482">
        <ele>448.6</ele>
        <time>2023-02-12T09:05:18Z</time>
      </trkpt>
      <trkpt lat="47.11194" lon="8.47482">
        <ele>448.6</ele>
        <time>2023-02-12T09:05:19Z</time>
      </trkpt>
      <trkpt lat="47.11194" lon="8.47482">
        <ele>448.6</ele>
        <time>2023-02-12T09:05:20Z</time>
      </trkpt>
      <trkpt lat="47.11194" lon="8.47482">
        <ele>448.6</ele>
        <time>2023-02-12T09:05:21Z</time>
      </trkpt>
      <trkpt lat="47.11194" lon="8.47482">
        <ele>448.6</ele>
        <time>2023-02-12T09:05:22Z</time>
      </trkpt>
      <trkpt lat="47.11194" lon="8.47482">
        <ele>448.6</ele>
        <time>2023-02-12T09:05:23Z</time>
      </trkpt>
      <trkpt lat="47.11194" lon="8.47482">
        <ele>448.6</ele>
        <time>2023-02-12T09:05:24Z</time>
      </trkpt>
      <trkpt lat="47.11194" lon="8.47482">
        <ele>448.6</ele>
        <time>2023-02-12T09:05:25Z</time>
      </trkpt>
      <trkpt lat="47.11194" lon="8.47482">
        <ele>448.8</ele>
        <time>2023-02-12T09:05:26Z</time>
      </trkpt>
      <trkpt lat="47.11194" lon="8.47482">
        <ele>448.8</ele>
        <time>2023-02-12T09:05:27Z</time>
      </trkpt>
      <trkpt lat="47.11194" lon="8.47482">
        <ele>448.8</ele>
        <time>2023-02-12T09:05:28Z</time>
      </trkpt>
      <trkpt lat="47.11194" lon="8.47482">
        <ele>448.8</ele>
        <time>2023-02-12T09:05:29Z</time>
      </trkpt>
      <trkpt lat="47.11194" lon="8.47482">
        <ele>448.8</ele>
        <time>2023-02-12T09:05:30Z</time>
      </trkpt>
      <trkpt lat="47.11194" lon="8.47482">
        <ele>448.8</ele>
        <time>2023-02-12T09:05:31Z</time>
      </trkpt>
      <trkpt lat="47.11194" lon="8.47482">
        <ele>448.8</ele>
        <time>2023-02-12T09:05:32Z</time>
      </trkpt>
      <trkpt lat="47.11194" lon="8.47482">
        <ele>448.8</ele>
        <time>2023-02-12T09:05:33Z</time>
      </trkpt>
      <trkpt lat="47.11194" lon="8.47482">
        <ele>448.8</ele>
        <time>2023-02-12T09:05:34Z</time>
      </trkpt>
      <trkpt lat="47.11194" lon="8.47482">
        <ele>448.8</ele>
        <time>2023-02-12T09:05:35Z</time>
      </trkpt>
      <trkpt lat="47.11194" lon="8.47482">
        <ele>448.8</ele>
        <time>2023-02-12T09:05:36Z</time>
      </trkpt>
      <trkpt lat="47.11194" lon="8.47482">
        <ele>448.8</ele>
        <time>2023-02-12T09:05:37Z</time>
      </trkpt>
      <trkpt lat="47.11194" lon="8.47482">
        <ele>449</ele>
        <time>2023-02-12T09:05:38Z</time>
      </trkpt>
      <trkpt lat="47.11194" lon="8.47482">
        <ele>449</ele>
        <time>2023-02-12T09:05:39Z</time>
      </trkpt>
      <trkpt lat="47.11194" lon="8.47482">
        <ele>449</ele>
        <time>2023-02-12T09:05:40Z</time>
      </trkpt>
      <trkpt lat="47.11194" lon="8.47482">
        <ele>449</ele>
        <time>2023-02-12T09:05:41Z</time>
      </trkpt>
      <trkpt lat="47.11194" lon="8.47482">
        <ele>449</ele>
        <time>2023-02-12T09:05:42Z</time>
      </trkpt>
      <trkpt lat="47.11194" lon="8.47482">
        <ele>449</ele>
        <time>2023-02-12T09:05:43Z</time>
      </trkpt>
      <trkpt lat="47.11194" lon="8.47482">
        <ele>449</ele>
        <time>2023-02-12T09:05:44Z</time>
      </trkpt>
      <trkpt lat="47.11194" lon="8.47482">
        <ele>449</ele>
        <time>2023-02-12T09:05:45Z</time>
      </trkpt>
      <trkpt lat="47.11194" lon="8.47482">
        <ele>449</ele>
        <time>2023-02-12T09:05:46Z</time>
      </trkpt>
      <trkpt lat="47.11194" lon="8.47482">
        <ele>449</ele>
        <time>2023-02-12T09:05:47Z</time>
      </trkpt>
      <trkpt lat="47.11194" lon="8.47482">
        <ele>449</ele>
        <time>2023-02-12T09:05:48Z</time>
      </trkpt>
      <trkpt lat="47.11194" lon="8.47482">
        <ele>449</ele>
        <time>2023-02-12T09:05:49Z</time>
      </trkpt>
      <trkpt lat="47.11194" lon="8.47482">
        <ele>449</ele>
        <time>2023-02-12T09:05:50Z</time>
      </trkpt>
      <trkpt lat="47.11194" lon="8.47482">
        <ele>449</ele>
        <time>2023-02-12T09:05:51Z</time>
      </trkpt>
      <trkpt lat="47.11194" lon="8.47482">
        <ele>449</ele>
        <time>2023-02-12T09:05:52Z</time>
      </trkpt>
      <trkpt lat="47.11194" lon="8.47482">
        <ele>449</ele>
        <time>2023-02-12T09:05:53Z</time>
      </trkpt>
      <trkpt lat="47.11194" lon="8.47482">
        <ele>449.2</ele>
        <time>2023-02-12T09:05:54Z</time>
      </trkpt>
      <trkpt lat="47.11194" lon="8.47482">
        <ele>449.2</ele>
        <time>2023-02-12T09:05:55Z</time>
      </trkpt>
      <trkpt lat="47.11194" lon="8.47482">
        <ele>449.2</ele>
        <time>2023-02-12T09:05:56Z</time>
      </trkpt>
      <trkpt lat="47.11194" lon="8.47482">
        <ele>449.2</ele>
        <time>2023-02-12T09:05:57Z</time>
      </trkpt>
      <trkpt lat="47.11194" lon="8.47482">
        <ele>449.2</ele>
        <time>2023-02-12T09:05:58Z</time>
      </trkpt>
      <trkpt lat="47.11194" lon="8.47482">
        <ele>449.2</ele>
        <time>2023-02-12T09:05:59Z</time>
      </trkpt>
      <trkpt lat="47.11194" lon="8.47482">
        <ele>449.2</ele>
        <time>2023-02-12T09:06:00Z</time>
      </trkpt>
      <trkpt lat="47.11194" lon="8.47482">
        <ele>449.2</ele>
        <time>2023-02-12T09:06:01Z</time>
      </trkpt>
      <trkpt lat="47.11194" lon="8.47482">
        <ele>449.2</ele>
        <time>2023-02-12T09:06:02Z</time>
      </trkpt>
      <trkpt lat="47.11194" lon="8.47482">
        <ele>449.2</ele>
        <time>2023-02-12T09:06:03Z</time>
      </trkpt>
      <trkpt lat="47.11194" lon="8.47482">
        <ele>449.2</ele>
        <time>2023-02-12T09:06:04Z</time>
      </trkpt>
      <trkpt lat="47.11194" lon="8.47482">
        <ele>449.2</ele>
        <time>2023-02-12T09:06:05Z</time>
      </trkpt>
      <trkpt lat="47.11194" lon="8.47482">
        <ele>449.2</ele>
        <time>2023-02-12T09:06:06Z</time>
      </trkpt>
      <trkpt lat="47.11194" lon="8.47482">
        <ele>449.2</ele>
        <time>2023-02-12T09:06:07Z</time>
      </trkpt>
      <trkpt lat="47.11194" lon="8.47482">
        <ele>449.4</ele>
        <time>2023-02-12T09:06:08Z</time>
      </trkpt>
      <trkpt lat="47.11194" lon="8.47482">
        <ele>449.4</ele>
        <time>2023-02-12T09:06:09Z</time>
      </trkpt>
      <trkpt lat="47.11194" lon="8.47482">
        <ele>449.4</ele>
        <time>2023-02-12T09:06:10Z</time>
      </trkpt>
      <trkpt lat="47.11194" lon="8.47482">
        <ele>449.4</ele>
        <time>2023-02-12T09:06:11Z</time>
      </trkpt>
      <trkpt lat="47.11194" lon="8.47482">
        <ele>449.4</ele>
        <time>2023-02-12T09:06:12Z</time>
      </trkpt>
      <trkpt lat="47.11194" lon="8.47482">
        <ele>449.4</ele>
        <time>2023-02-12T09:06:13Z</time>
      </trkpt>
      <trkpt lat="47.11194" lon="8.47482">
        <ele>449.4</ele>
        <time>2023-02-12T09:06:14Z</time>
      </trkpt>
      <trkpt lat="47.11194" lon="8.47482">
        <ele>449.4</ele>
        <time>2023-02-12T09:06:15Z</time>
      </trkpt>
      <trkpt lat="47.11194" lon="8.47482">
        <ele>449.4</ele>
        <time>2023-02-12T09:06:16Z</time>
      </trkpt>
      <trkpt lat="47.11194" lon="8.47482">
        <ele>449.4</ele>
        <time>2023-02-12T09:06:17Z</time>
      </trkpt>
      <trkpt lat="47.11194" lon="8.47482">
        <ele>449.4</ele>
        <time>2023-02-12T09:06:18Z</time>
      </trkpt>
      <trkpt lat="47.11194" lon="8.47482">
        <ele>449.4</ele>
        <time>2023-02-12T09:06:19Z</time>
      </trkpt>
      <trkpt lat="47.11194" lon="8.47482">
        <ele>449.6</ele>
        <time>2023-02-12T09:06:20Z</time>
      </trkpt>
      <trkpt lat="47.11194" lon="8.47482">
        <ele>449.6</ele>
        <time>2023-02-12T09:06:21Z</time>
      </trkpt>
      <trkpt lat="47.11194" lon="8.47482">
        <ele>449.6</ele>
        <time>2023-02-12T09:06:22Z</time>
      </trkpt>
      <trkpt lat="47.11194" lon="8.47482">
        <ele>449.6</ele>
        <time>2023-02-12T09:06:23Z</time>
      </trkpt>
      <trkpt lat="47.11194" lon="8.47483">
        <ele>449.6</ele>
        <time>2023-02-12T09:06:24Z</time>
      </trkpt>
      <trkpt lat="47.11193" lon="8.47483">
        <ele>449.6</ele>
        <time>2023-02-12T09:06:25Z</time>
      </trkpt>
      <trkpt lat="47.11193" lon="8.47484">
        <ele>449.6</ele>
        <time>2023-02-12T09:06:26Z</time>
      </trkpt>
      <trkpt lat="47.11192" lon="8.47487">
        <ele>449.6</ele>
        <time>2023-02-12T09:06:27Z</time>
      </trkpt>
      <trkpt lat="47.11191" lon="8.47488">
        <ele>449.8</ele>
        <time>2023-02-12T09:06:28Z</time>
      </trkpt>
      <trkpt lat="47.11191" lon="8.47489">
        <ele>450</ele>
        <time>2023-02-12T09:06:29Z</time>
      </trkpt>
      <trkpt lat="47.1119" lon="8.47491">
        <ele>450.2</ele>
        <time>2023-02-12T09:06:30Z</time>
      </trkpt>
      <trkpt lat="47.1119" lon="8.47492">
        <ele>450.4</ele>
        <time>2023-02-12T09:06:31Z</time>
      </trkpt>
      <trkpt lat="47.11189" lon="8.47494">
        <ele>450.6</ele>
        <time>2023-02-12T09:06:32Z</time>
      </trkpt>
      <trkpt lat="47.11189" lon="8.47496">
        <ele>450.8</ele>
        <time>2023-02-12T09:06:33Z</time>
      </trkpt>
      <trkpt lat="47.11189" lon="8.47498">
        <ele>450.8</ele>
        <time>2023-02-12T09:06:34Z</time>
      </trkpt>
      <trkpt lat="47.11189" lon="8.475">
        <ele>451</ele>
        <time>2023-02-12T09:06:35Z</time>
      </trkpt>
      <trkpt lat="47.11189" lon="8.47501">
        <ele>451.2</ele>
        <time>2023-02-12T09:06:36Z</time>
      </trkpt>
      <trkpt lat="47.11189" lon="8.47503">
        <ele>451.2</ele>
        <time>2023-02-12T09:06:37Z</time>
      </trkpt>
      <trkpt lat="47.11189" lon="8.47504">
        <ele>451.4</ele>
        <time>2023-02-12T09:06:38Z</time>
      </trkpt>
      <trkpt lat="47.1119" lon="8.47505">
        <ele>451.4</ele>
        <time>2023-02-12T09:06:39Z</time>
      </trkpt>
      <trkpt lat="47.1119" lon="8.47507">
        <ele>451.6</ele>
        <time>2023-02-12T09:06:40Z</time>
      </trkpt>
      <trkpt lat="47.11191" lon="8.47508">
        <ele>451.8</ele>
        <time>2023-02-12T09:06:41Z</time>
      </trkpt>
      <trkpt lat="47.11191" lon="8.47509">
        <ele>452</ele>
        <time>2023-02-12T09:06:42Z</time>
      </trkpt>
      <trkpt lat="47.11192" lon="8.47511">
        <ele>452.4</ele>
        <time>2023-02-12T09:06:43Z</time>
      </trkpt>
      <trkpt lat="47.11193" lon="8.47512">
        <ele>452.6</ele>
        <time>2023-02-12T09:06:44Z</time>
      </trkpt>
      <trkpt lat="47.11193" lon="8.47513">
        <ele>453</ele>
        <time>2023-02-12T09:06:45Z</time>
      </trkpt>
      <trkpt lat="47.11194" lon="8.47514">
        <ele>453.4</ele>
        <time>2023-02-12T09:06:46Z</time>
      </trkpt>
      <trkpt lat="47.11195" lon="8.47515">
        <ele>453.6</ele>
        <time>2023-02-12T09:06:47Z</time>
      </trkpt>
      <trkpt lat="47.11195" lon="8.47516">
        <ele>453.6</ele>
        <time>2023-02-12T09:06:48Z</time>
      </trkpt>
      <trkpt lat="47.11195" lon="8.47517">
        <ele>454</ele>
        <time>2023-02-12T09:06:49Z</time>
      </trkpt>
      <trkpt lat="47.11196" lon="8.47517">
        <ele>454.2</ele>
        <time>2023-02-12T09:06:50Z</time>
      </trkpt>
      <trkpt lat="47.11195" lon="8.47517">
        <ele>454.2</ele>
        <time>2023-02-12T09:06:51Z</time>
      </trkpt>
      <trkpt lat="47.11195" lon="8.47517">
        <ele>454.4</ele>
        <time>2023-02-12T09:06:52Z</time>
      </trkpt>
      <trkpt lat="47.11195" lon="8.47517">
        <ele>454.4</ele>
        <time>2023-02-12T09:06:53Z</time>
      </trkpt>
      <trkpt lat="47.11195" lon="8.47517">
        <ele>454.4</ele>
        <time>2023-02-12T09:06:54Z</time>
      </trkpt>
      <trkpt lat="47.11195" lon="8.47518">
        <ele>454.6</ele>
        <time>2023-02-12T09:06:55Z</time>
      </trkpt>
      <trkpt lat="47.11195" lon="8.47518">
        <ele>454.6</ele>
        <time>2023-02-12T09:06:56Z</time>
      </trkpt>
      <trkpt lat="47.11196" lon="8.47517">
        <ele>454.6</ele>
        <time>2023-02-12T09:06:57Z</time>
      </trkpt>
      <trkpt lat="47.11196" lon="8.47518">
        <ele>454.6</ele>
        <time>2023-02-12T09:06:58Z</time>
      </trkpt>
      <trkpt lat="47.11196" lon="8.47518">
        <ele>454.6</ele>
        <time>2023-02-12T09:06:59Z</time>
      </trkpt>
      <trkpt lat="47.11198" lon="8.47518">
        <ele>454.6</ele>
        <time>2023-02-12T09:07:00Z</time>
      </trkpt>
      <trkpt lat="47.112" lon="8.47519">
        <ele>454.6</ele>
        <time>2023-02-12T09:07:01Z</time>
      </trkpt>
      <trkpt lat="47.112" lon="8.47519">
        <ele>454.6</ele>
        <time>2023-02-12T09:07:02Z</time>
      </trkpt>
      <trkpt lat="47.11202" lon="8.4752">
        <ele>454.4</ele>
        <time>2023-02-12T09:07:03Z</time>
      </trkpt>
      <trkpt lat="47.11203" lon="8.47521">
        <ele>454.4</ele>
        <time>2023-02-12T09:07:04Z</time>
      </trkpt>
      <trkpt lat="47.11204" lon="8.47521">
        <ele>454.4</ele>
        <time>2023-02-12T09:07:05Z</time>
      </trkpt>
      <trkpt lat="47.11205" lon="8.47522">
        <ele>454.4</ele>
        <time>2023-02-12T09:07:06Z</time>
      </trkpt>
      <trkpt lat="47.11207" lon="8.47522">
        <ele>454.6</ele>
        <time>2023-02-12T09:07:07Z</time>
      </trkpt>
      <trkpt lat="47.11209" lon="8.47522">
        <ele>454.6</ele>
        <time>2023-02-12T09:07:08Z</time>
      </trkpt>
      <trkpt lat="47.11212" lon="8.47522">
        <ele>454.6</ele>
        <time>2023-02-12T09:07:09Z</time>
      </trkpt>
      <trkpt lat="47.11215" lon="8.47522">
        <ele>454.8</ele>
        <time>2023-02-12T09:07:10Z</time>
      </trkpt>
      <trkpt lat="47.11218" lon="8.47522">
        <ele>454.8</ele>
        <time>2023-02-12T09:07:11Z</time>
      </trkpt>
      <trkpt lat="47.11221" lon="8.47523">
        <ele>455</ele>
        <time>2023-02-12T09:07:12Z</time>
      </trkpt>
      <trkpt lat="47.11223" lon="8.47523">
        <ele>455</ele>
        <time>2023-02-12T09:07:13Z</time>
      </trkpt>
      <trkpt lat="47.11226" lon="8.47524">
        <ele>455.2</ele>
        <time>2023-02-12T09:07:14Z</time>
      </trkpt>
      <trkpt lat="47.11228" lon="8.47524">
        <ele>455.4</ele>
        <time>2023-02-12T09:07:15Z</time>
      </trkpt>
      <trkpt lat="47.1123" lon="8.47525">
        <ele>455.6</ele>
        <time>2023-02-12T09:07:16Z</time>
      </trkpt>
      <trkpt lat="47.11233" lon="8.47525">
        <ele>455.6</ele>
        <time>2023-02-12T09:07:17Z</time>
      </trkpt>
      <trkpt lat="47.11235" lon="8.47526">
        <ele>455.8</ele>
        <time>2023-02-12T09:07:18Z</time>
      </trkpt>
      <trkpt lat="47.11238" lon="8.47527">
        <ele>456</ele>
        <time>2023-02-12T09:07:19Z</time>
      </trkpt>
      <trkpt lat="47.11241" lon="8.47528">
        <ele>456.2</ele>
        <time>2023-02-12T09:07:20Z</time>
      </trkpt>
      <trkpt lat="47.11244" lon="8.47529">
        <ele>456.4</ele>
        <time>2023-02-12T09:07:21Z</time>
      </trkpt>
      <trkpt lat="47.11246" lon="8.47529">
        <ele>456.8</ele>
        <time>2023-02-12T09:07:22Z</time>
      </trkpt>
      <trkpt lat="47.11249" lon="8.47529">
        <ele>457</ele>
        <time>2023-02-12T09:07:23Z</time>
      </trkpt>
      <trkpt lat="47.11251" lon="8.47529">
        <ele>457.4</ele>
        <time>2023-02-12T09:07:24Z</time>
      </trkpt>
      <trkpt lat="47.11254" lon="8.4753">
        <ele>457.4</ele>
        <time>2023-02-12T09:07:25Z</time>
      </trkpt>
      <trkpt lat="47.11257" lon="8.47529">
        <ele>457.6</ele>
        <time>2023-02-12T09:07:26Z</time>
      </trkpt>
      <trkpt lat="47.11259" lon="8.47529">
        <ele>458</ele>
        <time>2023-02-12T09:07:27Z</time>
      </trkpt>
      <trkpt lat="47.11263" lon="8.4753">
        <ele>458.2</ele>
        <time>2023-02-12T09:07:28Z</time>
      </trkpt>
      <trkpt lat="47.11266" lon="8.4753">
        <ele>458.4</ele>
        <time>2023-02-12T09:07:29Z</time>
      </trkpt>
      <trkpt lat="47.11269" lon="8.47531">
        <ele>458.4</ele>
        <time>2023-02-12T09:07:30Z</time>
      </trkpt>
      <trkpt lat="47.11271" lon="8.47533">
        <ele>458.6</ele>
        <time>2023-02-12T09:07:31Z</time>
      </trkpt>
      <trkpt lat="47.11274" lon="8.47534">
        <ele>459</ele>
        <time>2023-02-12T09:07:32Z</time>
      </trkpt>
      <trkpt lat="47.11277" lon="8.47537">
        <ele>459.4</ele>
        <time>2023-02-12T09:07:33Z</time>
      </trkpt>
      <trkpt lat="47.11281" lon="8.47539">
        <ele>459.8</ele>
        <time>2023-02-12T09:07:34Z</time>
      </trkpt>
      <trkpt lat="47.11285" lon="8.47542">
        <ele>460</ele>
        <time>2023-02-12T09:07:35Z</time>
      </trkpt>
      <trkpt lat="47.11288" lon="8.47544">
        <ele>460.4</ele>
        <time>2023-02-12T09:07:36Z</time>
      </trkpt>
      <trkpt lat="47.1129" lon="8.47546">
        <ele>460.8</ele>
        <time>2023-02-12T09:07:37Z</time>
      </trkpt>
      <trkpt lat="47.11292" lon="8.47547">
        <ele>461.2</ele>
        <time>2023-02-12T09:07:38Z</time>
      </trkpt>
      <trkpt lat="47.11295" lon="8.47549">
        <ele>461.6</ele>
        <time>2023-02-12T09:07:39Z</time>
      </trkpt>
      <trkpt lat="47.11297" lon="8.47551">
        <ele>461.8</ele>
        <time>2023-02-12T09:07:40Z</time>
      </trkpt>
      <trkpt lat="47.11299" lon="8.47553">
        <ele>462</ele>
        <time>2023-02-12T09:07:41Z</time>
      </trkpt>
      <trkpt lat="47.11302" lon="8.47556">
        <ele>462.6</ele>
        <time>2023-02-12T09:07:42Z</time>
      </trkpt>
      <trkpt lat="47.11304" lon="8.4756">
        <ele>463</ele>
        <time>2023-02-12T09:07:43Z</time>
      </trkpt>
      <trkpt lat="47.11306" lon="8.47563">
        <ele>463.2</ele>
        <time>2023-02-12T09:07:44Z</time>
      </trkpt>
      <trkpt lat="47.11308" lon="8.47566">
        <ele>463.6</ele>
        <time>2023-02-12T09:07:45Z</time>
      </trkpt>
      <trkpt lat="47.1131" lon="8.47568">
        <ele>464</ele>
        <time>2023-02-12T09:07:46Z</time>
      </trkpt>
      <trkpt lat="47.11311" lon="8.47571">
        <ele>464.4</ele>
        <time>2023-02-12T09:07:47Z</time>
      </trkpt>
      <trkpt lat="47.11312" lon="8.47574">
        <ele>464.6</ele>
        <time>2023-02-12T09:07:48Z</time>
      </trkpt>
      <trkpt lat="47.11313" lon="8.47576">
        <ele>465</ele>
        <time>2023-02-12T09:07:49Z</time>
      </trkpt>
      <trkpt lat="47.11315" lon="8.47579">
        <ele>465.4</ele>
        <time>2023-02-12T09:07:50Z</time>
      </trkpt>
      <trkpt lat="47.11316" lon="8.47582">
        <ele>465.6</ele>
        <time>2023-02-12T09:07:51Z</time>
      </trkpt>
      <trkpt lat="47.11317" lon="8.47586">
        <ele>466</ele>
        <time>2023-02-12T09:07:52Z</time>
      </trkpt>
      <trkpt lat="47.11318" lon="8.47589">
        <ele>466.4</ele>
        <time>2023-02-12T09:07:53Z</time>
      </trkpt>
      <trkpt lat="47.1132" lon="8.47593">
        <ele>466.6</ele>
        <time>2023-02-12T09:07:54Z</time>
      </trkpt>
      <trkpt lat="47.11321" lon="8.47597">
        <ele>466.8</ele>
        <time>2023-02-12T09:07:55Z</time>
      </trkpt>
      <trkpt lat="47.11322" lon="8.476">
        <ele>466.8</ele>
        <time>2023-02-12T09:07:56Z</time>
      </trkpt>
      <trkpt lat="47.11322" lon="8.47603">
        <ele>467.2</ele>
        <time>2023-02-12T09:07:57Z</time>
      </trkpt>
      <trkpt lat="47.11323" lon="8.47607">
        <ele>467.6</ele>
        <time>2023-02-12T09:07:58Z</time>
      </trkpt>
      <trkpt lat="47.11324" lon="8.4761">
        <ele>468</ele>
        <time>2023-02-12T09:07:59Z</time>
      </trkpt>
      <trkpt lat="47.11324" lon="8.47614">
        <ele>468.4</ele>
        <time>2023-02-12T09:08:00Z</time>
      </trkpt>
      <trkpt lat="47.11325" lon="8.47617">
        <ele>468.6</ele>
        <time>2023-02-12T09:08:01Z</time>
      </trkpt>
      <trkpt lat="47.11325" lon="8.47621">
        <ele>468.8</ele>
        <time>2023-02-12T09:08:02Z</time>
      </trkpt>
      <trkpt lat="47.11325" lon="8.47625">
        <ele>469</ele>
        <time>2023-02-12T09:08:03Z</time>
      </trkpt>
      <trkpt lat="47.11325" lon="8.47629">
        <ele>469.4</ele>
        <time>2023-02-12T09:08:04Z</time>
      </trkpt>
      <trkpt lat="47.11325" lon="8.47632">
        <ele>469.8</ele>
        <time>2023-02-12T09:08:05Z</time>
      </trkpt>
      <trkpt lat="47.11325" lon="8.47636">
        <ele>470.2</ele>
        <time>2023-02-12T09:08:06Z</time>
      </trkpt>
      <trkpt lat="47.11324" lon="8.4764">
        <ele>470.4</ele>
        <time>2023-02-12T09:08:07Z</time>
      </trkpt>
      <trkpt lat="47.11324" lon="8.47643">
        <ele>470.4</ele>
        <time>2023-02-12T09:08:08Z</time>
      </trkpt>
      <trkpt lat="47.11324" lon="8.47646">
        <ele>470.8</ele>
        <time>2023-02-12T09:08:09Z</time>
      </trkpt>
      <trkpt lat="47.11324" lon="8.47649">
        <ele>471</ele>
        <time>2023-02-12T09:08:10Z</time>
      </trkpt>
      <trkpt lat="47.11324" lon="8.47653">
        <ele>471.4</ele>
        <time>2023-02-12T09:08:11Z</time>
      </trkpt>
      <trkpt lat="47.11324" lon="8.47656">
        <ele>471.6</ele>
        <time>2023-02-12T09:08:12Z</time>
      </trkpt>
      <trkpt lat="47.11323" lon="8.4766">
        <ele>471.6</ele>
        <time>2023-02-12T09:08:13Z</time>
      </trkpt>
      <trkpt lat="47.11323" lon="8.47664">
        <ele>471.8</ele>
        <time>2023-02-12T09:08:14Z</time>
      </trkpt>
      <trkpt lat="47.11323" lon="8.47667">
        <ele>472</ele>
        <time>2023-02-12T09:08:15Z</time>
      </trkpt>
      <trkpt lat="47.11323" lon="8.47671">
        <ele>472</ele>
        <time>2023-02-12T09:08:16Z</time>
      </trkpt>
      <trkpt lat="47.11323" lon="8.47675">
        <ele>472.2</ele>
        <time>2023-02-12T09:08:17Z</time>
      </trkpt>
      <trkpt lat="47.11323" lon="8.47678">
        <ele>472.4</ele>
        <time>2023-02-12T09:08:18Z</time>
      </trkpt>
      <trkpt lat="47.11322" lon="8.47682">
        <ele>472.6</ele>
        <time>2023-02-12T09:08:19Z</time>
      </trkpt>
      <trkpt lat="47.11322" lon="8.47685">
        <ele>473</ele>
        <time>2023-02-12T09:08:20Z</time>
      </trkpt>
      <trkpt lat="47.11322" lon="8.47689">
        <ele>473</ele>
        <time>2023-02-12T09:08:21Z</time>
      </trkpt>
      <trkpt lat="47.11322" lon="8.47692">
        <ele>473.2</ele>
        <time>2023-02-12T09:08:22Z</time>
      </trkpt>
      <trkpt lat="47.11322" lon="8.47696">
        <ele>473.6</ele>
        <time>2023-02-12T09:08:23Z</time>
      </trkpt>
      <trkpt lat="47.11322" lon="8.477">
        <ele>473.8</ele>
        <time>2023-02-12T09:08:24Z</time>
      </trkpt>
      <trkpt lat="47.11322" lon="8.47703">
        <ele>473.8</ele>
        <time>2023-02-12T09:08:25Z</time>
      </trkpt>
      <trkpt lat="47.11322" lon="8.47706">
        <ele>474</ele>
        <time>2023-02-12T09:08:26Z</time>
      </trkpt>
      <trkpt lat="47.11323" lon="8.47709">
        <ele>474.2</ele>
        <time>2023-02-12T09:08:27Z</time>
      </trkpt>
      <trkpt lat="47.11324" lon="8.47712">
        <ele>474.4</ele>
        <time>2023-02-12T09:08:28Z</time>
      </trkpt>
      <trkpt lat="47.11325" lon="8.47717">
        <ele>474.6</ele>
        <time>2023-02-12T09:08:29Z</time>
      </trkpt>
      <trkpt lat="47.11326" lon="8.4772">
        <ele>474.8</ele>
        <time>2023-02-12T09:08:30Z</time>
      </trkpt>
      <trkpt lat="47.11327" lon="8.47724">
        <ele>475.2</ele>
        <time>2023-02-12T09:08:31Z</time>
      </trkpt>
      <trkpt lat="47.11328" lon="8.47728">
        <ele>475.6</ele>
        <time>2023-02-12T09:08:32Z</time>
      </trkpt>
      <trkpt lat="47.11328" lon="8.47731">
        <ele>475.8</ele>
        <time>2023-02-12T09:08:33Z</time>
      </trkpt>
      <trkpt lat="47.11328" lon="8.47734">
        <ele>476</ele>
        <time>2023-02-12T09:08:34Z</time>
      </trkpt>
      <trkpt lat="47.11329" lon="8.47737">
        <ele>476</ele>
        <time>2023-02-12T09:08:35Z</time>
      </trkpt>
      <trkpt lat="47.1133" lon="8.47741">
        <ele>476.4</ele>
        <time>2023-02-12T09:08:36Z</time>
      </trkpt>
      <trkpt lat="47.11331" lon="8.47744">
        <ele>476.6</ele>
        <time>2023-02-12T09:08:37Z</time>
      </trkpt>
      <trkpt lat="47.11331" lon="8.47747">
        <ele>476.8</ele>
        <time>2023-02-12T09:08:38Z</time>
      </trkpt>
      <trkpt lat="47.11331" lon="8.47751">
        <ele>477.2</ele>
        <time>2023-02-12T09:08:39Z</time>
      </trkpt>
      <trkpt lat="47.11331" lon="8.47754">
        <ele>477.4</ele>
        <time>2023-02-12T09:08:40Z</time>
      </trkpt>
      <trkpt lat="47.11332" lon="8.47759">
        <ele>477.8</ele>
        <time>2023-02-12T09:08:41Z</time>
      </trkpt>
      <trkpt lat="47.11332" lon="8.47762">
        <ele>478.2</ele>
        <time>2023-02-12T09:08:42Z</time>
      </trkpt>
      <trkpt lat="47.11332" lon="8.47765">
        <ele>478.4</ele>
        <time>2023-02-12T09:08:43Z</time>
      </trkpt>
      <trkpt lat="47.11333" lon="8.47769">
        <ele>478.6</ele>
        <time>2023-02-12T09:08:44Z</time>
      </trkpt>
      <trkpt lat="47.11333" lon="8.47772">
        <ele>478.8</ele>
        <time>2023-02-12T09:08:45Z</time>
      </trkpt>
      <trkpt lat="47.11333" lon="8.47776">
        <ele>479.2</ele>
        <time>2023-02-12T09:08:46Z</time>
      </trkpt>
      <trkpt lat="47.11333" lon="8.47779">
        <ele>479.2</ele>
        <time>2023-02-12T09:08:47Z</time>
      </trkpt>
      <trkpt lat="47.11333" lon="8.47783">
        <ele>479.6</ele>
        <time>2023-02-12T09:08:48Z</time>
      </trkpt>
      <trkpt lat="47.11333" lon="8.47787">
        <ele>479.8</ele>
        <time>2023-02-12T09:08:49Z</time>
      </trkpt>
      <trkpt lat="47.11332" lon="8.47791">
        <ele>480</ele>
        <time>2023-02-12T09:08:50Z</time>
      </trkpt>
      <trkpt lat="47.11332" lon="8.47794">
        <ele>480.2</ele>
        <time>2023-02-12T09:08:51Z</time>
      </trkpt>
      <trkpt lat="47.11332" lon="8.47798">
        <ele>480.4</ele>
        <time>2023-02-12T09:08:52Z</time>
      </trkpt>
      <trkpt lat="47.11332" lon="8.47802">
        <ele>480.6</ele>
        <time>2023-02-12T09:08:53Z</time>
      </trkpt>
      <trkpt lat="47.11331" lon="8.47806">
        <ele>480.8</ele>
        <time>2023-02-12T09:08:54Z</time>
      </trkpt>
      <trkpt lat="47.11331" lon="8.4781">
        <ele>481</ele>
        <time>2023-02-12T09:08:55Z</time>
      </trkpt>
      <trkpt lat="47.1133" lon="8.47813">
        <ele>481.4</ele>
        <time>2023-02-12T09:08:56Z</time>
      </trkpt>
      <trkpt lat="47.11329" lon="8.47817">
        <ele>481.6</ele>
        <time>2023-02-12T09:08:57Z</time>
      </trkpt>
      <trkpt lat="47.11328" lon="8.47821">
        <ele>481.8</ele>
        <time>2023-02-12T09:08:58Z</time>
      </trkpt>
      <trkpt lat="47.11328" lon="8.47825">
        <ele>481.8</ele>
        <time>2023-02-12T09:08:59Z</time>
      </trkpt>
      <trkpt lat="47.11328" lon="8.47829">
        <ele>482</ele>
        <time>2023-02-12T09:09:00Z</time>
      </trkpt>
      <trkpt lat="47.11328" lon="8.47833">
        <ele>482</ele>
        <time>2023-02-12T09:09:01Z</time>
      </trkpt>
      <trkpt lat="47.11328" lon="8.47838">
        <ele>482.2</ele>
        <time>2023-02-12T09:09:02Z</time>
      </trkpt>
      <trkpt lat="47.11329" lon="8.47842">
        <ele>482.4</ele>
        <time>2023-02-12T09:09:03Z</time>
      </trkpt>
      <trkpt lat="47.1133" lon="8.47845">
        <ele>482.4</ele>
        <time>2023-02-12T09:09:04Z</time>
      </trkpt>
      <trkpt lat="47.11331" lon="8.47848">
        <ele>482.6</ele>
        <time>2023-02-12T09:09:05Z</time>
      </trkpt>
      <trkpt lat="47.11332" lon="8.47852">
        <ele>482.6</ele>
        <time>2023-02-12T09:09:06Z</time>
      </trkpt>
      <trkpt lat="47.11333" lon="8.47855">
        <ele>482.6</ele>
        <time>2023-02-12T09:09:07Z</time>
      </trkpt>
      <trkpt lat="47.11335" lon="8.47857">
        <ele>482.6</ele>
        <time>2023-02-12T09:09:08Z</time>
      </trkpt>
      <trkpt lat="47.11336" lon="8.4786">
        <ele>482.8</ele>
        <time>2023-02-12T09:09:09Z</time>
      </trkpt>
      <trkpt lat="47.11337" lon="8.47863">
        <ele>482.8</ele>
        <time>2023-02-12T09:09:10Z</time>
      </trkpt>
      <trkpt lat="47.11339" lon="8.47867">
        <ele>482.8</ele>
        <time>2023-02-12T09:09:11Z</time>
      </trkpt>
      <trkpt lat="47.1134" lon="8.47869">
        <ele>482.8</ele>
        <time>2023-02-12T09:09:12Z</time>
      </trkpt>
      <trkpt lat="47.11341" lon="8.47872">
        <ele>482.8</ele>
        <time>2023-02-12T09:09:13Z</time>
      </trkpt>
      <trkpt lat="47.11342" lon="8.47876">
        <ele>482.8</ele>
        <time>2023-02-12T09:09:14Z</time>
      </trkpt>
      <trkpt lat="47.11343" lon="8.4788">
        <ele>482.8</ele>
        <time>2023-02-12T09:09:15Z</time>
      </trkpt>
      <trkpt lat="47.11343" lon="8.47884">
        <ele>482.8</ele>
        <time>2023-02-12T09:09:16Z</time>
      </trkpt>
      <trkpt lat="47.11342" lon="8.47887">
        <ele>482.8</ele>
        <time>2023-02-12T09:09:17Z</time>
      </trkpt>
      <trkpt lat="47.11341" lon="8.47891">
        <ele>482.8</ele>
        <time>2023-02-12T09:09:18Z</time>
      </trkpt>
      <trkpt lat="47.1134" lon="8.47897">
        <ele>482.6</ele>
        <time>2023-02-12T09:09:19Z</time>
      </trkpt>
      <trkpt lat="47.11338" lon="8.47901">
        <ele>482.6</ele>
        <time>2023-02-12T09:09:20Z</time>
      </trkpt>
      <trkpt lat="47.11337" lon="8.47905">
        <ele>482.4</ele>
        <time>2023-02-12T09:09:21Z</time>
      </trkpt>
      <trkpt lat="47.11336" lon="8.47908">
        <ele>482.4</ele>
        <time>2023-02-12T09:09:22Z</time>
      </trkpt>
      <trkpt lat="47.11334" lon="8.47912">
        <ele>482.4</ele>
        <time>2023-02-12T09:09:23Z</time>
      </trkpt>
      <trkpt lat="47.11333" lon="8.47915">
        <ele>482.2</ele>
        <time>2023-02-12T09:09:24Z</time>
      </trkpt>
      <trkpt lat="47.11331" lon="8.47919">
        <ele>482</ele>
        <time>2023-02-12T09:09:25Z</time>
      </trkpt>
      <trkpt lat="47.1133" lon="8.47923">
        <ele>481.8</ele>
        <time>2023-02-12T09:09:26Z</time>
      </trkpt>
      <trkpt lat="47.11329" lon="8.47927">
        <ele>481.6</ele>
        <time>2023-02-12T09:09:27Z</time>
      </trkpt>
      <trkpt lat="47.11328" lon="8.47932">
        <ele>481.2</ele>
        <time>2023-02-12T09:09:28Z</time>
      </trkpt>
      <trkpt lat="47.11326" lon="8.47937">
        <ele>480.6</ele>
        <time>2023-02-12T09:09:29Z</time>
      </trkpt>
      <trkpt lat="47.11325" lon="8.47942">
        <ele>480.4</ele>
        <time>2023-02-12T09:09:30Z</time>
      </trkpt>
      <trkpt lat="47.11323" lon="8.47946">
        <ele>479.8</ele>
        <time>2023-02-12T09:09:31Z</time>
      </trkpt>
      <trkpt lat="47.11321" lon="8.47951">
        <ele>479.2</ele>
        <time>2023-02-12T09:09:32Z</time>
      </trkpt>
      <trkpt lat="47.11318" lon="8.47956">
        <ele>479</ele>
        <time>2023-02-12T09:09:33Z</time>
      </trkpt>
      <trkpt lat="47.11317" lon="8.4796">
        <ele>478.6</ele>
        <time>2023-02-12T09:09:34Z</time>
      </trkpt>
      <trkpt lat="47.11315" lon="8.47965">
        <ele>478.4</ele>
        <time>2023-02-12T09:09:35Z</time>
      </trkpt>
      <trkpt lat="47.11313" lon="8.47971">
        <ele>477.8</ele>
        <time>2023-02-12T09:09:36Z</time>
      </trkpt>
      <trkpt lat="47.11311" lon="8.47976">
        <ele>477.4</ele>
        <time>2023-02-12T09:09:37Z</time>
      </trkpt>
      <trkpt lat="47.1131" lon="8.47981">
        <ele>477</ele>
        <time>2023-02-12T09:09:38Z</time>
      </trkpt>
      <trkpt lat="47.11308" lon="8.47986">
        <ele>477</ele>
        <time>2023-02-12T09:09:39Z</time>
      </trkpt>
      <trkpt lat="47.11306" lon="8.4799">
        <ele>476.8</ele>
        <time>2023-02-12T09:09:40Z</time>
      </trkpt>
      <trkpt lat="47.11304" lon="8.47995">
        <ele>476.2</ele>
        <time>2023-02-12T09:09:41Z</time>
      </trkpt>
      <trkpt lat="47.11303" lon="8.47998">
        <ele>475.8</ele>
        <time>2023-02-12T09:09:42Z</time>
      </trkpt>
      <trkpt lat="47.11301" lon="8.48001">
        <ele>475.6</ele>
        <time>2023-02-12T09:09:43Z</time>
      </trkpt>
      <trkpt lat="47.11299" lon="8.48004">
        <ele>475</ele>
        <time>2023-02-12T09:09:44Z</time>
      </trkpt>
      <trkpt lat="47.11297" lon="8.48007">
        <ele>474.6</ele>
        <time>2023-02-12T09:09:45Z</time>
      </trkpt>
      <trkpt lat="47.11294" lon="8.48009">
        <ele>474.4</ele>
        <time>2023-02-12T09:09:46Z</time>
      </trkpt>
      <trkpt lat="47.11291" lon="8.48012">
        <ele>474</ele>
        <time>2023-02-12T09:09:47Z</time>
      </trkpt>
      <trkpt lat="47.11288" lon="8.48013">
        <ele>473.6</ele>
        <time>2023-02-12T09:09:48Z</time>
      </trkpt>
      <trkpt lat="47.11285" lon="8.48013">
        <ele>473</ele>
        <time>2023-02-12T09:09:49Z</time>
      </trkpt>
      <trkpt lat="47.11282" lon="8.48013">
        <ele>472.8</ele>
        <time>2023-02-12T09:09:50Z</time>
      </trkpt>
      <trkpt lat="47.11279" lon="8.48014">
        <ele>472.2</ele>
        <time>2023-02-12T09:09:51Z</time>
      </trkpt>
      <trkpt lat="47.11276" lon="8.48014">
        <ele>471.8</ele>
        <time>2023-02-12T09:09:52Z</time>
      </trkpt>
      <trkpt lat="47.11272" lon="8.48015">
        <ele>471.4</ele>
        <time>2023-02-12T09:09:53Z</time>
      </trkpt>
      <trkpt lat="47.11269" lon="8.48015">
        <ele>471</ele>
        <time>2023-02-12T09:09:54Z</time>
      </trkpt>
      <trkpt lat="47.11266" lon="8.48016">
        <ele>470.6</ele>
        <time>2023-02-12T09:09:55Z</time>
      </trkpt>
      <trkpt lat="47.11263" lon="8.48018">
        <ele>470.2</ele>
        <time>2023-02-12T09:09:56Z</time>
      </trkpt>
      <trkpt lat="47.11261" lon="8.48021">
        <ele>470</ele>
        <time>2023-02-12T09:09:57Z</time>
      </trkpt>
      <trkpt lat="47.1126" lon="8.48024">
        <ele>469.2</ele>
        <time>2023-02-12T09:09:58Z</time>
      </trkpt>
      <trkpt lat="47.11259" lon="8.48028">
        <ele>468.2</ele>
        <time>2023-02-12T09:09:59Z</time>
      </trkpt>
      <trkpt lat="47.11258" lon="8.48032">
        <ele>467.6</ele>
        <time>2023-02-12T09:10:00Z</time>
      </trkpt>
      <trkpt lat="47.11258" lon="8.48036">
        <ele>467.2</ele>
        <time>2023-02-12T09:10:01Z</time>
      </trkpt>
      <trkpt lat="47.11258" lon="8.48041">
        <ele>467</ele>
        <time>2023-02-12T09:10:02Z</time>
      </trkpt>
      <trkpt lat="47.11257" lon="8.48046">
        <ele>466.8</ele>
        <time>2023-02-12T09:10:03Z</time>
      </trkpt>
      <trkpt lat="47.11256" lon="8.48052">
        <ele>466.8</ele>
        <time>2023-02-12T09:10:04Z</time>
      </trkpt>
      <trkpt lat="47.11255" lon="8.48058">
        <ele>466.4</ele>
        <time>2023-02-12T09:10:05Z</time>
      </trkpt>
      <trkpt lat="47.11255" lon="8.48064">
        <ele>466.2</ele>
        <time>2023-02-12T09:10:06Z</time>
      </trkpt>
      <trkpt lat="47.11255" lon="8.4807">
        <ele>466</ele>
        <time>2023-02-12T09:10:07Z</time>
      </trkpt>
      <trkpt lat="47.11255" lon="8.48076">
        <ele>465.8</ele>
        <time>2023-02-12T09:10:08Z</time>
      </trkpt>
      <trkpt lat="47.11255" lon="8.48082">
        <ele>465.6</ele>
        <time>2023-02-12T09:10:09Z</time>
      </trkpt>
      <trkpt lat="47.11255" lon="8.48088">
        <ele>465.4</ele>
        <time>2023-02-12T09:10:10Z</time>
      </trkpt>
      <trkpt lat="47.11254" lon="8.48096">
        <ele>465.2</ele>
        <time>2023-02-12T09:10:11Z</time>
      </trkpt>
      <trkpt lat="47.11254" lon="8.48103">
        <ele>464.8</ele>
        <time>2023-02-12T09:10:12Z</time>
      </trkpt>
      <trkpt lat="47.11252" lon="8.4811">
        <ele>464.6</ele>
        <time>2023-02-12T09:10:13Z</time>
      </trkpt>
      <trkpt lat="47.11251" lon="8.48117">
        <ele>464.4</ele>
        <time>2023-02-12T09:10:14Z</time>
      </trkpt>
      <trkpt lat="47.11249" lon="8.48123">
        <ele>464.2</ele>
        <time>2023-02-12T09:10:15Z</time>
      </trkpt>
      <trkpt lat="47.11247" lon="8.48128">
        <ele>463.8</ele>
        <time>2023-02-12T09:10:16Z</time>
      </trkpt>
      <trkpt lat="47.11244" lon="8.48133">
        <ele>463.6</ele>
        <time>2023-02-12T09:10:17Z</time>
      </trkpt>
      <trkpt lat="47.11242" lon="8.48138">
        <ele>463.2</ele>
        <time>2023-02-12T09:10:18Z</time>
      </trkpt>
      <trkpt lat="47.1124" lon="8.48143">
        <ele>463</ele>
        <time>2023-02-12T09:10:19Z</time>
      </trkpt>
      <trkpt lat="47.11237" lon="8.48147">
        <ele>462.6</ele>
        <time>2023-02-12T09:10:20Z</time>
      </trkpt>
      <trkpt lat="47.11234" lon="8.48152">
        <ele>462.2</ele>
        <time>2023-02-12T09:10:21Z</time>
      </trkpt>
      <trkpt lat="47.1123" lon="8.48157">
        <ele>461.8</ele>
        <time>2023-02-12T09:10:22Z</time>
      </trkpt>
      <trkpt lat="47.11227" lon="8.48163">
        <ele>461.2</ele>
        <time>2023-02-12T09:10:23Z</time>
      </trkpt>
      <trkpt lat="47.11224" lon="8.48169">
        <ele>460.8</ele>
        <time>2023-02-12T09:10:24Z</time>
      </trkpt>
      <trkpt lat="47.11223" lon="8.48176">
        <ele>460.2</ele>
        <time>2023-02-12T09:10:25Z</time>
      </trkpt>
      <trkpt lat="47.11222" lon="8.48183">
        <ele>459.8</ele>
        <time>2023-02-12T09:10:26Z</time>
      </trkpt>
      <trkpt lat="47.11224" lon="8.4819">
        <ele>459.4</ele>
        <time>2023-02-12T09:10:27Z</time>
      </trkpt>
      <trkpt lat="47.11227" lon="8.48194">
        <ele>458.8</ele>
        <time>2023-02-12T09:10:28Z</time>
      </trkpt>
      <trkpt lat="47.11231" lon="8.48196">
        <ele>457.8</ele>
        <time>2023-02-12T09:10:29Z</time>
      </trkpt>
      <trkpt lat="47.11235" lon="8.48198">
        <ele>457.8</ele>
        <time>2023-02-12T09:10:30Z</time>
      </trkpt>
      <trkpt lat="47.11239" lon="8.482">
        <ele>457.2</ele>
        <time>2023-02-12T09:10:31Z</time>
      </trkpt>
      <trkpt lat="47.11244" lon="8.48201">
        <ele>456.8</ele>
        <time>2023-02-12T09:10:32Z</time>
      </trkpt>
      <trkpt lat="47.11248" lon="8.48203">
        <ele>456.4</ele>
        <time>2023-02-12T09:10:33Z</time>
      </trkpt>
      <trkpt lat="47.11253" lon="8.48205">
        <ele>456.2</ele>
        <time>2023-02-12T09:10:34Z</time>
      </trkpt>
      <trkpt lat="47.11258" lon="8.48206">
        <ele>455.8</ele>
        <time>2023-02-12T09:10:35Z</time>
      </trkpt>
      <trkpt lat="47.11263" lon="8.48208">
        <ele>455.4</ele>
        <time>2023-02-12T09:10:36Z</time>
      </trkpt>
      <trkpt lat="47.11268" lon="8.4821">
        <ele>455.2</ele>
        <time>2023-02-12T09:10:37Z</time>
      </trkpt>
      <trkpt lat="47.11273" lon="8.48212">
        <ele>455.2</ele>
        <time>2023-02-12T09:10:38Z</time>
      </trkpt>
      <trkpt lat="47.11278" lon="8.48215">
        <ele>454.2</ele>
        <time>2023-02-12T09:10:39Z</time>
      </trkpt>
      <trkpt lat="47.11282" lon="8.48217">
        <ele>453.8</ele>
        <time>2023-02-12T09:10:40Z</time>
      </trkpt>
      <trkpt lat="47.11287" lon="8.4822">
        <ele>453.4</ele>
        <time>2023-02-12T09:10:41Z</time>
      </trkpt>
      <trkpt lat="47.11291" lon="8.48223">
        <ele>452.8</ele>
        <time>2023-02-12T09:10:42Z</time>
      </trkpt>
      <trkpt lat="47.11296" lon="8.48226">
        <ele>452.4</ele>
        <time>2023-02-12T09:10:43Z</time>
      </trkpt>
      <trkpt lat="47.11301" lon="8.4823">
        <ele>452</ele>
        <time>2023-02-12T09:10:44Z</time>
      </trkpt>
      <trkpt lat="47.11305" lon="8.48233">
        <ele>451.2</ele>
        <time>2023-02-12T09:10:45Z</time>
      </trkpt>
      <trkpt lat="47.11309" lon="8.48237">
        <ele>450.8</ele>
        <time>2023-02-12T09:10:46Z</time>
      </trkpt>
      <trkpt lat="47.11313" lon="8.48241">
        <ele>450.4</ele>
        <time>2023-02-12T09:10:47Z</time>
      </trkpt>
      <trkpt lat="47.11317" lon="8.48245">
        <ele>450</ele>
        <time>2023-02-12T09:10:48Z</time>
      </trkpt>
      <trkpt lat="47.1132" lon="8.4825">
        <ele>449.8</ele>
        <time>2023-02-12T09:10:49Z</time>
      </trkpt>
      <trkpt lat="47.11323" lon="8.48255">
        <ele>449.8</ele>
        <time>2023-02-12T09:10:50Z</time>
      </trkpt>
      <trkpt lat="47.11326" lon="8.4826">
        <ele>449.6</ele>
        <time>2023-02-12T09:10:51Z</time>
      </trkpt>
      <trkpt lat="47.11328" lon="8.48263">
        <ele>449.6</ele>
        <time>2023-02-12T09:10:52Z</time>
      </trkpt>
      <trkpt lat="47.1133" lon="8.48267">
        <ele>449.4</ele>
        <time>2023-02-12T09:10:53Z</time>
      </trkpt>
      <trkpt lat="47.11332" lon="8.48271">
        <ele>449.4</ele>
        <time>2023-02-12T09:10:54Z</time>
      </trkpt>
      <trkpt lat="47.11333" lon="8.48274">
        <ele>449.4</ele>
        <time>2023-02-12T09:10:55Z</time>
      </trkpt>
      <trkpt lat="47.11333" lon="8.48278">
        <ele>449.2</ele>
        <time>2023-02-12T09:10:56Z</time>
      </trkpt>
      <trkpt lat="47.11334" lon="8.48281">
        <ele>449.2</ele>
        <time>2023-02-12T09:10:57Z</time>
      </trkpt>
      <trkpt lat="47.11334" lon="8.48285">
        <ele>449.2</ele>
        <time>2023-02-12T09:10:58Z</time>
      </trkpt>
      <trkpt lat="47.11335" lon="8.48288">
        <ele>449.2</ele>
        <time>2023-02-12T09:10:59Z</time>
      </trkpt>
      <trkpt lat="47.11335" lon="8.48293">
        <ele>449.4</ele>
        <time>2023-02-12T09:11:00Z</time>
      </trkpt>
      <trkpt lat="47.11335" lon="8.48296">
        <ele>449.4</ele>
        <time>2023-02-12T09:11:01Z</time>
      </trkpt>
      <trkpt lat="47.11335" lon="8.483">
        <ele>449.4</ele>
        <time>2023-02-12T09:11:02Z</time>
      </trkpt>
      <trkpt lat="47.11335" lon="8.48303">
        <ele>449.6</ele>
        <time>2023-02-12T09:11:03Z</time>
      </trkpt>
      <trkpt lat="47.11335" lon="8.48308">
        <ele>449.6</ele>
        <time>2023-02-12T09:11:04Z</time>
      </trkpt>
      <trkpt lat="47.11334" lon="8.48311">
        <ele>449.6</ele>
        <time>2023-02-12T09:11:05Z</time>
      </trkpt>
      <trkpt lat="47.11334" lon="8.48314">
        <ele>449.6</ele>
        <time>2023-02-12T09:11:06Z</time>
      </trkpt>
      <trkpt lat="47.11333" lon="8.48317">
        <ele>449.8</ele>
        <time>2023-02-12T09:11:07Z</time>
      </trkpt>
      <trkpt lat="47.11332" lon="8.48321">
        <ele>449.8</ele>
        <time>2023-02-12T09:11:08Z</time>
      </trkpt>
      <trkpt lat="47.11332" lon="8.48324">
        <ele>450.2</ele>
        <time>2023-02-12T09:11:09Z</time>
      </trkpt>
      <trkpt lat="47.11331" lon="8.48328">
        <ele>450.4</ele>
        <time>2023-02-12T09:11:10Z</time>
      </trkpt>
      <trkpt lat="47.11331" lon="8.48331">
        <ele>450.4</ele>
        <time>2023-02-12T09:11:11Z</time>
      </trkpt>
      <trkpt lat="47.1133" lon="8.48335">
        <ele>450.6</ele>
        <time>2023-02-12T09:11:12Z</time>
      </trkpt>
      <trkpt lat="47.11329" lon="8.48338">
        <ele>450.8</ele>
        <time>2023-02-12T09:11:13Z</time>
      </trkpt>
      <trkpt lat="47.11329" lon="8.48341">
        <ele>450.8</ele>
        <time>2023-02-12T09:11:14Z</time>
      </trkpt>
      <trkpt lat="47.11328" lon="8.48345">
        <ele>450.8</ele>
        <time>2023-02-12T09:11:15Z</time>
      </trkpt>
      <trkpt lat="47.11328" lon="8.48349">
        <ele>451</ele>
        <time>2023-02-12T09:11:16Z</time>
      </trkpt>
      <trkpt lat="47.11327" lon="8.48353">
        <ele>451.2</ele>
        <time>2023-02-12T09:11:17Z</time>
      </trkpt>
      <trkpt lat="47.11326" lon="8.48358">
        <ele>451.6</ele>
        <time>2023-02-12T09:11:18Z</time>
      </trkpt>
      <trkpt lat="47.11326" lon="8.48361">
        <ele>451.8</ele>
        <time>2023-02-12T09:11:19Z</time>
      </trkpt>
      <trkpt lat="47.11325" lon="8.48365">
        <ele>452</ele>
        <time>2023-02-12T09:11:20Z</time>
      </trkpt>
      <trkpt lat="47.11324" lon="8.48369">
        <ele>452</ele>
        <time>2023-02-12T09:11:21Z</time>
      </trkpt>
      <trkpt lat="47.11322" lon="8.48373">
        <ele>452.4</ele>
        <time>2023-02-12T09:11:22Z</time>
      </trkpt>
      <trkpt lat="47.11321" lon="8.48377">
        <ele>452.8</ele>
        <time>2023-02-12T09:11:23Z</time>
      </trkpt>
      <trkpt lat="47.11321" lon="8.48381">
        <ele>453.2</ele>
        <time>2023-02-12T09:11:24Z</time>
      </trkpt>
      <trkpt lat="47.11319" lon="8.48384">
        <ele>453.4</ele>
        <time>2023-02-12T09:11:25Z</time>
      </trkpt>
      <trkpt lat="47.11318" lon="8.48387">
        <ele>453.6</ele>
        <time>2023-02-12T09:11:26Z</time>
      </trkpt>
      <trkpt lat="47.11317" lon="8.4839">
        <ele>454</ele>
        <time>2023-02-12T09:11:27Z</time>
      </trkpt>
      <trkpt lat="47.11317" lon="8.48394">
        <ele>454.2</ele>
        <time>2023-02-12T09:11:28Z</time>
      </trkpt>
      <trkpt lat="47.11316" lon="8.48398">
        <ele>454.4</ele>
        <time>2023-02-12T09:11:29Z</time>
      </trkpt>
      <trkpt lat="47.11315" lon="8.48402">
        <ele>454.8</ele>
        <time>2023-02-12T09:11:30Z</time>
      </trkpt>
      <trkpt lat="47.11315" lon="8.48406">
        <ele>455.2</ele>
        <time>2023-02-12T09:11:31Z</time>
      </trkpt>
      <trkpt lat="47.11314" lon="8.48411">
        <ele>455.4</ele>
        <time>2023-02-12T09:11:32Z</time>
      </trkpt>
      <trkpt lat="47.11312" lon="8.48415">
        <ele>455.6</ele>
        <time>2023-02-12T09:11:33Z</time>
      </trkpt>
      <trkpt lat="47.11311" lon="8.48419">
        <ele>455.8</ele>
        <time>2023-02-12T09:11:34Z</time>
      </trkpt>
      <trkpt lat="47.1131" lon="8.48423">
        <ele>456.2</ele>
        <time>2023-02-12T09:11:35Z</time>
      </trkpt>
      <trkpt lat="47.11308" lon="8.48426">
        <ele>456.4</ele>
        <time>2023-02-12T09:11:36Z</time>
      </trkpt>
      <trkpt lat="47.11307" lon="8.4843">
        <ele>456.4</ele>
        <time>2023-02-12T09:11:37Z</time>
      </trkpt>
      <trkpt lat="47.11305" lon="8.48434">
        <ele>456.6</ele>
        <time>2023-02-12T09:11:38Z</time>
      </trkpt>
      <trkpt lat="47.11304" lon="8.48439">
        <ele>456.8</ele>
        <time>2023-02-12T09:11:39Z</time>
      </trkpt>
      <trkpt lat="47.11302" lon="8.48442">
        <ele>457</ele>
        <time>2023-02-12T09:11:40Z</time>
      </trkpt>
      <trkpt lat="47.11301" lon="8.48445">
        <ele>457</ele>
        <time>2023-02-12T09:11:41Z</time>
      </trkpt>
      <trkpt lat="47.11299" lon="8.48449">
        <ele>457.2</ele>
        <time>2023-02-12T09:11:42Z</time>
      </trkpt>
      <trkpt lat="47.11298" lon="8.48453">
        <ele>457.2</ele>
        <time>2023-02-12T09:11:43Z</time>
      </trkpt>
      <trkpt lat="47.11296" lon="8.48457">
        <ele>457.4</ele>
        <time>2023-02-12T09:11:44Z</time>
      </trkpt>
      <trkpt lat="47.11294" lon="8.4846">
        <ele>457.4</ele>
        <time>2023-02-12T09:11:45Z</time>
      </trkpt>
      <trkpt lat="47.11293" lon="8.48465">
        <ele>457.4</ele>
        <time>2023-02-12T09:11:46Z</time>
      </trkpt>
      <trkpt lat="47.11292" lon="8.48469">
        <ele>457.6</ele>
        <time>2023-02-12T09:11:47Z</time>
      </trkpt>
      <trkpt lat="47.11291" lon="8.48473">
        <ele>457.8</ele>
        <time>2023-02-12T09:11:48Z</time>
      </trkpt>
      <trkpt lat="47.11289" lon="8.48478">
        <ele>457.8</ele>
        <time>2023-02-12T09:11:49Z</time>
      </trkpt>
      <trkpt lat="47.11288" lon="8.48482">
        <ele>458</ele>
        <time>2023-02-12T09:11:50Z</time>
      </trkpt>
      <trkpt lat="47.11287" lon="8.48486">
        <ele>458.2</ele>
        <time>2023-02-12T09:11:51Z</time>
      </trkpt>
      <trkpt lat="47.11286" lon="8.4849">
        <ele>458.2</ele>
        <time>2023-02-12T09:11:52Z</time>
      </trkpt>
      <trkpt lat="47.11285" lon="8.48495">
        <ele>458.2</ele>
        <time>2023-02-12T09:11:53Z</time>
      </trkpt>
      <trkpt lat="47.11284" lon="8.48499">
        <ele>458.4</ele>
        <time>2023-02-12T09:11:54Z</time>
      </trkpt>
      <trkpt lat="47.11284" lon="8.48504">
        <ele>458.4</ele>
        <time>2023-02-12T09:11:55Z</time>
      </trkpt>
      <trkpt lat="47.11283" lon="8.48508">
        <ele>458.6</ele>
        <time>2023-02-12T09:11:56Z</time>
      </trkpt>
      <trkpt lat="47.11282" lon="8.48513">
        <ele>458.8</ele>
        <time>2023-02-12T09:11:57Z</time>
      </trkpt>
      <trkpt lat="47.11281" lon="8.48517">
        <ele>458.8</ele>
        <time>2023-02-12T09:11:58Z</time>
      </trkpt>
      <trkpt lat="47.1128" lon="8.48521">
        <ele>459</ele>
        <time>2023-02-12T09:11:59Z</time>
      </trkpt>
      <trkpt lat="47.11279" lon="8.48525">
        <ele>459</ele>
        <time>2023-02-12T09:12:00Z</time>
      </trkpt>
      <trkpt lat="47.11278" lon="8.48529">
        <ele>459.2</ele>
        <time>2023-02-12T09:12:01Z</time>
      </trkpt>
      <trkpt lat="47.11277" lon="8.48533">
        <ele>459.4</ele>
        <time>2023-02-12T09:12:02Z</time>
      </trkpt>
      <trkpt lat="47.11276" lon="8.48538">
        <ele>459.4</ele>
        <time>2023-02-12T09:12:03Z</time>
      </trkpt>
      <trkpt lat="47.11276" lon="8.48543">
        <ele>459.6</ele>
        <time>2023-02-12T09:12:04Z</time>
      </trkpt>
      <trkpt lat="47.11275" lon="8.48547">
        <ele>459.8</ele>
        <time>2023-02-12T09:12:05Z</time>
      </trkpt>
      <trkpt lat="47.11274" lon="8.48551">
        <ele>460</ele>
        <time>2023-02-12T09:12:06Z</time>
      </trkpt>
      <trkpt lat="47.11274" lon="8.48555">
        <ele>460.2</ele>
        <time>2023-02-12T09:12:07Z</time>
      </trkpt>
      <trkpt lat="47.11273" lon="8.48559">
        <ele>460.4</ele>
        <time>2023-02-12T09:12:08Z</time>
      </trkpt>
      <trkpt lat="47.11272" lon="8.48563">
        <ele>460.4</ele>
        <time>2023-02-12T09:12:09Z</time>
      </trkpt>
      <trkpt lat="47.11272" lon="8.48567">
        <ele>460.6</ele>
        <time>2023-02-12T09:12:10Z</time>
      </trkpt>
      <trkpt lat="47.11271" lon="8.48571">
        <ele>460.8</ele>
        <time>2023-02-12T09:12:11Z</time>
      </trkpt>
      <trkpt lat="47.11271" lon="8.48575">
        <ele>460.8</ele>
        <time>2023-02-12T09:12:12Z</time>
      </trkpt>
      <trkpt lat="47.11269" lon="8.48579">
        <ele>461</ele>
        <time>2023-02-12T09:12:13Z</time>
      </trkpt>
      <trkpt lat="47.11268" lon="8.48582">
        <ele>461.4</ele>
        <time>2023-02-12T09:12:14Z</time>
      </trkpt>
      <trkpt lat="47.11266" lon="8.48586">
        <ele>461.6</ele>
        <time>2023-02-12T09:12:15Z</time>
      </trkpt>
      <trkpt lat="47.11264" lon="8.4859">
        <ele>461.8</ele>
        <time>2023-02-12T09:12:16Z</time>
      </trkpt>
      <trkpt lat="47.11262" lon="8.48593">
        <ele>462</ele>
        <time>2023-02-12T09:12:17Z</time>
      </trkpt>
      <trkpt lat="47.1126" lon="8.48596">
        <ele>462.2</ele>
        <time>2023-02-12T09:12:18Z</time>
      </trkpt>
      <trkpt lat="47.11257" lon="8.48599">
        <ele>462.4</ele>
        <time>2023-02-12T09:12:19Z</time>
      </trkpt>
      <trkpt lat="47.11253" lon="8.48602">
        <ele>462.4</ele>
        <time>2023-02-12T09:12:20Z</time>
      </trkpt>
      <trkpt lat="47.1125" lon="8.48605">
        <ele>462.4</ele>
        <time>2023-02-12T09:12:21Z</time>
      </trkpt>
      <trkpt lat="47.11247" lon="8.48608">
        <ele>462.4</ele>
        <time>2023-02-12T09:12:22Z</time>
      </trkpt>
      <trkpt lat="47.11244" lon="8.4861">
        <ele>462.4</ele>
        <time>2023-02-12T09:12:23Z</time>
      </trkpt>
      <trkpt lat="47.11242" lon="8.48613">
        <ele>462</ele>
        <time>2023-02-12T09:12:24Z</time>
      </trkpt>
      <trkpt lat="47.1124" lon="8.48615">
        <ele>461.6</ele>
        <time>2023-02-12T09:12:25Z</time>
      </trkpt>
      <trkpt lat="47.11238" lon="8.48617">
        <ele>461.2</ele>
        <time>2023-02-12T09:12:26Z</time>
      </trkpt>
      <trkpt lat="47.11235" lon="8.4862">
        <ele>460.8</ele>
        <time>2023-02-12T09:12:27Z</time>
      </trkpt>
      <trkpt lat="47.11232" lon="8.48623">
        <ele>460.6</ele>
        <time>2023-02-12T09:12:28Z</time>
      </trkpt>
      <trkpt lat="47.11229" lon="8.48625">
        <ele>460.4</ele>
        <time>2023-02-12T09:12:29Z</time>
      </trkpt>
      <trkpt lat="47.11225" lon="8.48628">
        <ele>460</ele>
        <time>2023-02-12T09:12:30Z</time>
      </trkpt>
      <trkpt lat="47.11222" lon="8.4863">
        <ele>459.8</ele>
        <time>2023-02-12T09:12:31Z</time>
      </trkpt>
      <trkpt lat="47.11218" lon="8.48632">
        <ele>459.6</ele>
        <time>2023-02-12T09:12:32Z</time>
      </trkpt>
      <trkpt lat="47.11214" lon="8.48634">
        <ele>458.8</ele>
        <time>2023-02-12T09:12:33Z</time>
      </trkpt>
      <trkpt lat="47.1121" lon="8.48635">
        <ele>458.4</ele>
        <time>2023-02-12T09:12:34Z</time>
      </trkpt>
      <trkpt lat="47.11207" lon="8.48636">
        <ele>458.2</ele>
        <time>2023-02-12T09:12:35Z</time>
      </trkpt>
      <trkpt lat="47.11202" lon="8.48637">
        <ele>457.8</ele>
        <time>2023-02-12T09:12:36Z</time>
      </trkpt>
      <trkpt lat="47.11198" lon="8.48639">
        <ele>457.6</ele>
        <time>2023-02-12T09:12:37Z</time>
      </trkpt>
      <trkpt lat="47.11194" lon="8.4864">
        <ele>457.6</ele>
        <time>2023-02-12T09:12:38Z</time>
      </trkpt>
      <trkpt lat="47.1119" lon="8.48642">
        <ele>457.4</ele>
        <time>2023-02-12T09:12:39Z</time>
      </trkpt>
      <trkpt lat="47.11186" lon="8.48643">
        <ele>456.8</ele>
        <time>2023-02-12T09:12:40Z</time>
      </trkpt>
      <trkpt lat="47.11182" lon="8.48643">
        <ele>456.6</ele>
        <time>2023-02-12T09:12:41Z</time>
      </trkpt>
      <trkpt lat="47.11178" lon="8.48643">
        <ele>456.4</ele>
        <time>2023-02-12T09:12:42Z</time>
      </trkpt>
      <trkpt lat="47.11174" lon="8.48643">
        <ele>456.2</ele>
        <time>2023-02-12T09:12:43Z</time>
      </trkpt>
      <trkpt lat="47.11169" lon="8.48643">
        <ele>456.2</ele>
        <time>2023-02-12T09:12:44Z</time>
      </trkpt>
      <trkpt lat="47.11165" lon="8.48641">
        <ele>456.2</ele>
        <time>2023-02-12T09:12:45Z</time>
      </trkpt>
      <trkpt lat="47.11162" lon="8.48639">
        <ele>456.2</ele>
        <time>2023-02-12T09:12:46Z</time>
      </trkpt>
      <trkpt lat="47.11159" lon="8.48637">
        <ele>456</ele>
        <time>2023-02-12T09:12:47Z</time>
      </trkpt>
      <trkpt lat="47.11157" lon="8.48634">
        <ele>456</ele>
        <time>2023-02-12T09:12:48Z</time>
      </trkpt>
      <trkpt lat="47.11156" lon="8.4863">
        <ele>456</ele>
        <time>2023-02-12T09:12:49Z</time>
      </trkpt>
      <trkpt lat="47.11154" lon="8.48626">
        <ele>456</ele>
        <time>2023-02-12T09:12:50Z</time>
      </trkpt>
      <trkpt lat="47.11152" lon="8.48622">
        <ele>456.2</ele>
        <time>2023-02-12T09:12:51Z</time>
      </trkpt>
      <trkpt lat="47.11151" lon="8.48618">
        <ele>456</ele>
        <time>2023-02-12T09:12:52Z</time>
      </trkpt>
      <trkpt lat="47.11149" lon="8.48614">
        <ele>456.2</ele>
        <time>2023-02-12T09:12:53Z</time>
      </trkpt>
      <trkpt lat="47.11147" lon="8.4861">
        <ele>456.2</ele>
        <time>2023-02-12T09:12:54Z</time>
      </trkpt>
      <trkpt lat="47.11146" lon="8.48607">
        <ele>456.2</ele>
        <time>2023-02-12T09:12:55Z</time>
      </trkpt>
      <trkpt lat="47.11144" lon="8.48604">
        <ele>456.2</ele>
        <time>2023-02-12T09:12:56Z</time>
      </trkpt>
      <trkpt lat="47.11143" lon="8.486">
        <ele>456.4</ele>
        <time>2023-02-12T09:12:57Z</time>
      </trkpt>
      <trkpt lat="47.11142" lon="8.48596">
        <ele>456.6</ele>
        <time>2023-02-12T09:12:58Z</time>
      </trkpt>
      <trkpt lat="47.1114" lon="8.48592">
        <ele>456.8</ele>
        <time>2023-02-12T09:12:59Z</time>
      </trkpt>
      <trkpt lat="47.11139" lon="8.48589">
        <ele>456.8</ele>
        <time>2023-02-12T09:13:00Z</time>
      </trkpt>
      <trkpt lat="47.11138" lon="8.48586">
        <ele>457</ele>
        <time>2023-02-12T09:13:01Z</time>
      </trkpt>
      <trkpt lat="47.11136" lon="8.48582">
        <ele>457</ele>
        <time>2023-02-12T09:13:02Z</time>
      </trkpt>
      <trkpt lat="47.11135" lon="8.48579">
        <ele>457</ele>
        <time>2023-02-12T09:13:03Z</time>
      </trkpt>
      <trkpt lat="47.11134" lon="8.48576">
        <ele>457.2</ele>
        <time>2023-02-12T09:13:04Z</time>
      </trkpt>
      <trkpt lat="47.11132" lon="8.48572">
        <ele>457.4</ele>
        <time>2023-02-12T09:13:05Z</time>
      </trkpt>
      <trkpt lat="47.11131" lon="8.48569">
        <ele>457.4</ele>
        <time>2023-02-12T09:13:06Z</time>
      </trkpt>
      <trkpt lat="47.1113" lon="8.48566">
        <ele>457.6</ele>
        <time>2023-02-12T09:13:07Z</time>
      </trkpt>
      <trkpt lat="47.11128" lon="8.48563">
        <ele>457.6</ele>
        <time>2023-02-12T09:13:08Z</time>
      </trkpt>
      <trkpt lat="47.11127" lon="8.48559">
        <ele>458</ele>
        <time>2023-02-12T09:13:09Z</time>
      </trkpt>
      <trkpt lat="47.11125" lon="8.48557">
        <ele>458.4</ele>
        <time>2023-02-12T09:13:10Z</time>
      </trkpt>
      <trkpt lat="47.11124" lon="8.48553">
        <ele>458.4</ele>
        <time>2023-02-12T09:13:11Z</time>
      </trkpt>
      <trkpt lat="47.11124" lon="8.48549">
        <ele>458.6</ele>
        <time>2023-02-12T09:13:12Z</time>
      </trkpt>
      <trkpt lat="47.11122" lon="8.48544">
        <ele>458.8</ele>
        <time>2023-02-12T09:13:13Z</time>
      </trkpt>
      <trkpt lat="47.11121" lon="8.4854">
        <ele>459</ele>
        <time>2023-02-12T09:13:14Z</time>
      </trkpt>
      <trkpt lat="47.1112" lon="8.48537">
        <ele>459.2</ele>
        <time>2023-02-12T09:13:15Z</time>
      </trkpt>
      <trkpt lat="47.11119" lon="8.48533">
        <ele>459.6</ele>
        <time>2023-02-12T09:13:16Z</time>
      </trkpt>
      <trkpt lat="47.11118" lon="8.48529">
        <ele>459.8</ele>
        <time>2023-02-12T09:13:17Z</time>
      </trkpt>
      <trkpt lat="47.11117" lon="8.48526">
        <ele>459.8</ele>
        <time>2023-02-12T09:13:18Z</time>
      </trkpt>
      <trkpt lat="47.11116" lon="8.48522">
        <ele>460</ele>
        <time>2023-02-12T09:13:19Z</time>
      </trkpt>
      <trkpt lat="47.11115" lon="8.48518">
        <ele>460</ele>
        <time>2023-02-12T09:13:20Z</time>
      </trkpt>
      <trkpt lat="47.11113" lon="8.48515">
        <ele>460.2</ele>
        <time>2023-02-12T09:13:21Z</time>
      </trkpt>
      <trkpt lat="47.11112" lon="8.48511">
        <ele>460.4</ele>
        <time>2023-02-12T09:13:22Z</time>
      </trkpt>
      <trkpt lat="47.1111" lon="8.48507">
        <ele>460.8</ele>
        <time>2023-02-12T09:13:23Z</time>
      </trkpt>
      <trkpt lat="47.11109" lon="8.48503">
        <ele>460.8</ele>
        <time>2023-02-12T09:13:24Z</time>
      </trkpt>
      <trkpt lat="47.11107" lon="8.485">
        <ele>461</ele>
        <time>2023-02-12T09:13:25Z</time>
      </trkpt>
      <trkpt lat="47.11104" lon="8.48497">
        <ele>461</ele>
        <time>2023-02-12T09:13:26Z</time>
      </trkpt>
      <trkpt lat="47.11101" lon="8.48494">
        <ele>461.2</ele>
        <time>2023-02-12T09:13:27Z</time>
      </trkpt>
      <trkpt lat="47.11099" lon="8.48493">
        <ele>461.2</ele>
        <time>2023-02-12T09:13:28Z</time>
      </trkpt>
      <trkpt lat="47.11097" lon="8.48492">
        <ele>461.2</ele>
        <time>2023-02-12T09:13:29Z</time>
      </trkpt>
      <trkpt lat="47.11094" lon="8.48492">
        <ele>461.4</ele>
        <time>2023-02-12T09:13:30Z</time>
      </trkpt>
      <trkpt lat="47.11091" lon="8.48493">
        <ele>461.6</ele>
        <time>2023-02-12T09:13:31Z</time>
      </trkpt>
      <trkpt lat="47.11089" lon="8.48494">
        <ele>461.6</ele>
        <time>2023-02-12T09:13:32Z</time>
      </trkpt>
      <trkpt lat="47.11086" lon="8.48495">
        <ele>461.8</ele>
        <time>2023-02-12T09:13:33Z</time>
      </trkpt>
      <trkpt lat="47.11084" lon="8.48498">
        <ele>462</ele>
        <time>2023-02-12T09:13:34Z</time>
      </trkpt>
      <trkpt lat="47.11081" lon="8.485">
        <ele>462.2</ele>
        <time>2023-02-12T09:13:35Z</time>
      </trkpt>
      <trkpt lat="47.11079" lon="8.48502">
        <ele>462.2</ele>
        <time>2023-02-12T09:13:36Z</time>
      </trkpt>
      <trkpt lat="47.11076" lon="8.48504">
        <ele>462.6</ele>
        <time>2023-02-12T09:13:37Z</time>
      </trkpt>
      <trkpt lat="47.11074" lon="8.48506">
        <ele>462.8</ele>
        <time>2023-02-12T09:13:38Z</time>
      </trkpt>
      <trkpt lat="47.11072" lon="8.48507">
        <ele>463</ele>
        <time>2023-02-12T09:13:39Z</time>
      </trkpt>
      <trkpt lat="47.11069" lon="8.48509">
        <ele>463.4</ele>
        <time>2023-02-12T09:13:40Z</time>
      </trkpt>
      <trkpt lat="47.11067" lon="8.4851">
        <ele>463.6</ele>
        <time>2023-02-12T09:13:41Z</time>
      </trkpt>
      <trkpt lat="47.11065" lon="8.48511">
        <ele>463.8</ele>
        <time>2023-02-12T09:13:42Z</time>
      </trkpt>
      <trkpt lat="47.11062" lon="8.48511">
        <ele>464</ele>
        <time>2023-02-12T09:13:43Z</time>
      </trkpt>
      <trkpt lat="47.11059" lon="8.48511">
        <ele>464.2</ele>
        <time>2023-02-12T09:13:44Z</time>
      </trkpt>
      <trkpt lat="47.11057" lon="8.48511">
        <ele>464.4</ele>
        <time>2023-02-12T09:13:45Z</time>
      </trkpt>
      <trkpt lat="47.11054" lon="8.48511">
        <ele>464.6</ele>
        <time>2023-02-12T09:13:46Z</time>
      </trkpt>
      <trkpt lat="47.11052" lon="8.48511">
        <ele>464.8</ele>
        <time>2023-02-12T09:13:47Z</time>
      </trkpt>
      <trkpt lat="47.11049" lon="8.48511">
        <ele>465</ele>
        <time>2023-02-12T09:13:48Z</time>
      </trkpt>
      <trkpt lat="47.11047" lon="8.48509">
        <ele>465.2</ele>
        <time>2023-02-12T09:13:49Z</time>
      </trkpt>
      <trkpt lat="47.11044" lon="8.48509">
        <ele>465.4</ele>
        <time>2023-02-12T09:13:50Z</time>
      </trkpt>
      <trkpt lat="47.11041" lon="8.48507">
        <ele>465.6</ele>
        <time>2023-02-12T09:13:51Z</time>
      </trkpt>
      <trkpt lat="47.11039" lon="8.48505">
        <ele>465.8</ele>
        <time>2023-02-12T09:13:52Z</time>
      </trkpt>
      <trkpt lat="47.11036" lon="8.48502">
        <ele>466</ele>
        <time>2023-02-12T09:13:53Z</time>
      </trkpt>
      <trkpt lat="47.11034" lon="8.48499">
        <ele>466</ele>
        <time>2023-02-12T09:13:54Z</time>
      </trkpt>
      <trkpt lat="47.11032" lon="8.48495">
        <ele>466</ele>
        <time>2023-02-12T09:13:55Z</time>
      </trkpt>
      <trkpt lat="47.11031" lon="8.48491">
        <ele>466.2</ele>
        <time>2023-02-12T09:13:56Z</time>
      </trkpt>
      <trkpt lat="47.11029" lon="8.48487">
        <ele>466.4</ele>
        <time>2023-02-12T09:13:57Z</time>
      </trkpt>
      <trkpt lat="47.11028" lon="8.48483">
        <ele>466.4</ele>
        <time>2023-02-12T09:13:58Z</time>
      </trkpt>
      <trkpt lat="47.11026" lon="8.48478">
        <ele>466.6</ele>
        <time>2023-02-12T09:13:59Z</time>
      </trkpt>
      <trkpt lat="47.11024" lon="8.48474">
        <ele>466.6</ele>
        <time>2023-02-12T09:14:00Z</time>
      </trkpt>
      <trkpt lat="47.11023" lon="8.4847">
        <ele>466.8</ele>
        <time>2023-02-12T09:14:01Z</time>
      </trkpt>
      <trkpt lat="47.11022" lon="8.48467">
        <ele>467</ele>
        <time>2023-02-12T09:14:02Z</time>
      </trkpt>
      <trkpt lat="47.11021" lon="8.48463">
        <ele>467.2</ele>
        <time>2023-02-12T09:14:03Z</time>
      </trkpt>
      <trkpt lat="47.1102" lon="8.48459">
        <ele>467.4</ele>
        <time>2023-02-12T09:14:04Z</time>
      </trkpt>
      <trkpt lat="47.11018" lon="8.48454">
        <ele>467.4</ele>
        <time>2023-02-12T09:14:05Z</time>
      </trkpt>
      <trkpt lat="47.11017" lon="8.4845">
        <ele>467.4</ele>
        <time>2023-02-12T09:14:06Z</time>
      </trkpt>
      <trkpt lat="47.11016" lon="8.48446">
        <ele>467.4</ele>
        <time>2023-02-12T09:14:07Z</time>
      </trkpt>
      <trkpt lat="47.11016" lon="8.48442">
        <ele>467.4</ele>
        <time>2023-02-12T09:14:08Z</time>
      </trkpt>
      <trkpt lat="47.11015" lon="8.48436">
        <ele>467.4</ele>
        <time>2023-02-12T09:14:09Z</time>
      </trkpt>
      <trkpt lat="47.11013" lon="8.48432">
        <ele>467.6</ele>
        <time>2023-02-12T09:14:10Z</time>
      </trkpt>
      <trkpt lat="47.11012" lon="8.48428">
        <ele>467.6</ele>
        <time>2023-02-12T09:14:11Z</time>
      </trkpt>
      <trkpt lat="47.11011" lon="8.48423">
        <ele>467.6</ele>
        <time>2023-02-12T09:14:12Z</time>
      </trkpt>
      <trkpt lat="47.11009" lon="8.48419">
        <ele>467.4</ele>
        <time>2023-02-12T09:14:13Z</time>
      </trkpt>
      <trkpt lat="47.11008" lon="8.48415">
        <ele>467.4</ele>
        <time>2023-02-12T09:14:14Z</time>
      </trkpt>
      <trkpt lat="47.11007" lon="8.48409">
        <ele>467.4</ele>
        <time>2023-02-12T09:14:15Z</time>
      </trkpt>
      <trkpt lat="47.11006" lon="8.48405">
        <ele>467.6</ele>
        <time>2023-02-12T09:14:16Z</time>
      </trkpt>
      <trkpt lat="47.11005" lon="8.484">
        <ele>467.8</ele>
        <time>2023-02-12T09:14:17Z</time>
      </trkpt>
      <trkpt lat="47.11003" lon="8.48395">
        <ele>467.8</ele>
        <time>2023-02-12T09:14:18Z</time>
      </trkpt>
      <trkpt lat="47.11002" lon="8.48391">
        <ele>467.8</ele>
        <time>2023-02-12T09:14:19Z</time>
      </trkpt>
      <trkpt lat="47.11001" lon="8.48387">
        <ele>467.8</ele>
        <time>2023-02-12T09:14:20Z</time>
      </trkpt>
      <trkpt lat="47.11" lon="8.48383">
        <ele>468</ele>
        <time>2023-02-12T09:14:21Z</time>
      </trkpt>
      <trkpt lat="47.10999" lon="8.4838">
        <ele>468.2</ele>
        <time>2023-02-12T09:14:22Z</time>
      </trkpt>
      <trkpt lat="47.10998" lon="8.48376">
        <ele>468.2</ele>
        <time>2023-02-12T09:14:23Z</time>
      </trkpt>
      <trkpt lat="47.10997" lon="8.48371">
        <ele>468.2</ele>
        <time>2023-02-12T09:14:24Z</time>
      </trkpt>
      <trkpt lat="47.10996" lon="8.48367">
        <ele>468.4</ele>
        <time>2023-02-12T09:14:25Z</time>
      </trkpt>
      <trkpt lat="47.10995" lon="8.48361">
        <ele>468.6</ele>
        <time>2023-02-12T09:14:26Z</time>
      </trkpt>
      <trkpt lat="47.10995" lon="8.48356">
        <ele>468.6</ele>
        <time>2023-02-12T09:14:27Z</time>
      </trkpt>
      <trkpt lat="47.10994" lon="8.48351">
        <ele>468.8</ele>
        <time>2023-02-12T09:14:28Z</time>
      </trkpt>
      <trkpt lat="47.10994" lon="8.48348">
        <ele>468.8</ele>
        <time>2023-02-12T09:14:29Z</time>
      </trkpt>
      <trkpt lat="47.10993" lon="8.48343">
        <ele>468.8</ele>
        <time>2023-02-12T09:14:30Z</time>
      </trkpt>
      <trkpt lat="47.10992" lon="8.48338">
        <ele>469</ele>
        <time>2023-02-12T09:14:31Z</time>
      </trkpt>
      <trkpt lat="47.10992" lon="8.48334">
        <ele>469</ele>
        <time>2023-02-12T09:14:32Z</time>
      </trkpt>
      <trkpt lat="47.10991" lon="8.48331">
        <ele>469.2</ele>
        <time>2023-02-12T09:14:33Z</time>
      </trkpt>
      <trkpt lat="47.10991" lon="8.48326">
        <ele>469.2</ele>
        <time>2023-02-12T09:14:34Z</time>
      </trkpt>
      <trkpt lat="47.1099" lon="8.48321">
        <ele>469.4</ele>
        <time>2023-02-12T09:14:35Z</time>
      </trkpt>
      <trkpt lat="47.1099" lon="8.48317">
        <ele>469.4</ele>
        <time>2023-02-12T09:14:36Z</time>
      </trkpt>
      <trkpt lat="47.1099" lon="8.48314">
        <ele>469.6</ele>
        <time>2023-02-12T09:14:37Z</time>
      </trkpt>
      <trkpt lat="47.1099" lon="8.4831">
        <ele>469.6</ele>
        <time>2023-02-12T09:14:38Z</time>
      </trkpt>
      <trkpt lat="47.10989" lon="8.48305">
        <ele>470</ele>
        <time>2023-02-12T09:14:39Z</time>
      </trkpt>
      <trkpt lat="47.10989" lon="8.48301">
        <ele>470.2</ele>
        <time>2023-02-12T09:14:40Z</time>
      </trkpt>
      <trkpt lat="47.10989" lon="8.48297">
        <ele>470.4</ele>
        <time>2023-02-12T09:14:41Z</time>
      </trkpt>
      <trkpt lat="47.10989" lon="8.48293">
        <ele>470.8</ele>
        <time>2023-02-12T09:14:42Z</time>
      </trkpt>
      <trkpt lat="47.1099" lon="8.48288">
        <ele>471.4</ele>
        <time>2023-02-12T09:14:43Z</time>
      </trkpt>
      <trkpt lat="47.10991" lon="8.48285">
        <ele>471.6</ele>
        <time>2023-02-12T09:14:44Z</time>
      </trkpt>
      <trkpt lat="47.10992" lon="8.48282">
        <ele>471.6</ele>
        <time>2023-02-12T09:14:45Z</time>
      </trkpt>
      <trkpt lat="47.10994" lon="8.48278">
        <ele>471.8</ele>
        <time>2023-02-12T09:14:46Z</time>
      </trkpt>
      <trkpt lat="47.10996" lon="8.48275">
        <ele>472.2</ele>
        <time>2023-02-12T09:14:47Z</time>
      </trkpt>
      <trkpt lat="47.10998" lon="8.48272">
        <ele>472.4</ele>
        <time>2023-02-12T09:14:48Z</time>
      </trkpt>
      <trkpt lat="47.11" lon="8.4827">
        <ele>472.6</ele>
        <time>2023-02-12T09:14:49Z</time>
      </trkpt>
      <trkpt lat="47.11003" lon="8.48269">
        <ele>473</ele>
        <time>2023-02-12T09:14:50Z</time>
      </trkpt>
      <trkpt lat="47.11006" lon="8.48267">
        <ele>473.2</ele>
        <time>2023-02-12T09:14:51Z</time>
      </trkpt>
      <trkpt lat="47.11009" lon="8.48265">
        <ele>473.2</ele>
        <time>2023-02-12T09:14:52Z</time>
      </trkpt>
      <trkpt lat="47.11012" lon="8.48263">
        <ele>473.4</ele>
        <time>2023-02-12T09:14:53Z</time>
      </trkpt>
      <trkpt lat="47.11015" lon="8.48262">
        <ele>473.4</ele>
        <time>2023-02-12T09:14:54Z</time>
      </trkpt>
      <trkpt lat="47.11019" lon="8.4826">
        <ele>473.2</ele>
        <time>2023-02-12T09:14:55Z</time>
      </trkpt>
      <trkpt lat="47.11023" lon="8.4826">
        <ele>473.2</ele>
        <time>2023-02-12T09:14:56Z</time>
      </trkpt>
      <trkpt lat="47.11027" lon="8.48261">
        <ele>473</ele>
        <time>2023-02-12T09:14:57Z</time>
      </trkpt>
      <trkpt lat="47.11031" lon="8.48263">
        <ele>472.8</ele>
        <time>2023-02-12T09:14:58Z</time>
      </trkpt>
      <trkpt lat="47.11035" lon="8.48265">
        <ele>472.8</ele>
        <time>2023-02-12T09:14:59Z</time>
      </trkpt>
      <trkpt lat="47.11038" lon="8.48266">
        <ele>472.8</ele>
        <time>2023-02-12T09:15:00Z</time>
      </trkpt>
      <trkpt lat="47.11042" lon="8.48267">
        <ele>472.8</ele>
        <time>2023-02-12T09:15:01Z</time>
      </trkpt>
      <trkpt lat="47.11046" lon="8.48266">
        <ele>472.6</ele>
        <time>2023-02-12T09:15:02Z</time>
      </trkpt>
      <trkpt lat="47.11051" lon="8.48264">
        <ele>472.6</ele>
        <time>2023-02-12T09:15:03Z</time>
      </trkpt>
      <trkpt lat="47.11054" lon="8.4826">
        <ele>472.4</ele>
        <time>2023-02-12T09:15:04Z</time>
      </trkpt>
      <trkpt lat="47.11055" lon="8.48255">
        <ele>472.2</ele>
        <time>2023-02-12T09:15:05Z</time>
      </trkpt>
      <trkpt lat="47.11056" lon="8.48249">
        <ele>472.2</ele>
        <time>2023-02-12T09:15:06Z</time>
      </trkpt>
      <trkpt lat="47.11056" lon="8.48243">
        <ele>471.8</ele>
        <time>2023-02-12T09:15:07Z</time>
      </trkpt>
      <trkpt lat="47.11057" lon="8.48239">
        <ele>471</ele>
        <time>2023-02-12T09:15:08Z</time>
      </trkpt>
      <trkpt lat="47.11056" lon="8.48235">
        <ele>470.4</ele>
        <time>2023-02-12T09:15:09Z</time>
      </trkpt>
      <trkpt lat="47.11056" lon="8.48231">
        <ele>470.4</ele>
        <time>2023-02-12T09:15:10Z</time>
      </trkpt>
      <trkpt lat="47.11056" lon="8.48228">
        <ele>469.6</ele>
        <time>2023-02-12T09:15:11Z</time>
      </trkpt>
      <trkpt lat="47.11055" lon="8.48227">
        <ele>469</ele>
        <time>2023-02-12T09:15:12Z</time>
      </trkpt>
      <trkpt lat="47.11053" lon="8.48225">
        <ele>468.6</ele>
        <time>2023-02-12T09:15:13Z</time>
      </trkpt>
      <trkpt lat="47.1105" lon="8.48223">
        <ele>468.2</ele>
        <time>2023-02-12T09:15:14Z</time>
      </trkpt>
      <trkpt lat="47.11049" lon="8.48222">
        <ele>467.8</ele>
        <time>2023-02-12T09:15:15Z</time>
      </trkpt>
      <trkpt lat="47.11047" lon="8.4822">
        <ele>467.6</ele>
        <time>2023-02-12T09:15:16Z</time>
      </trkpt>
      <trkpt lat="47.11045" lon="8.48217">
        <ele>467.4</ele>
        <time>2023-02-12T09:15:17Z</time>
      </trkpt>
      <trkpt lat="47.11042" lon="8.48215">
        <ele>467.2</ele>
        <time>2023-02-12T09:15:18Z</time>
      </trkpt>
      <trkpt lat="47.1104" lon="8.48213">
        <ele>466.6</ele>
        <time>2023-02-12T09:15:19Z</time>
      </trkpt>
      <trkpt lat="47.11037" lon="8.48212">
        <ele>466.2</ele>
        <time>2023-02-12T09:15:20Z</time>
      </trkpt>
      <trkpt lat="47.11035" lon="8.48211">
        <ele>465.4</ele>
        <time>2023-02-12T09:15:21Z</time>
      </trkpt>
      <trkpt lat="47.11032" lon="8.48211">
        <ele>464.8</ele>
        <time>2023-02-12T09:15:22Z</time>
      </trkpt>
      <trkpt lat="47.1103" lon="8.48211">
        <ele>464.4</ele>
        <time>2023-02-12T09:15:23Z</time>
      </trkpt>
      <trkpt lat="47.11027" lon="8.4821">
        <ele>463.8</ele>
        <time>2023-02-12T09:15:24Z</time>
      </trkpt>
      <trkpt lat="47.11024" lon="8.48209">
        <ele>463.4</ele>
        <time>2023-02-12T09:15:25Z</time>
      </trkpt>
      <trkpt lat="47.11022" lon="8.48209">
        <ele>463.2</ele>
        <time>2023-02-12T09:15:26Z</time>
      </trkpt>
      <trkpt lat="47.1102" lon="8.48209">
        <ele>463</ele>
        <time>2023-02-12T09:15:27Z</time>
      </trkpt>
      <trkpt lat="47.11017" lon="8.48209">
        <ele>462.8</ele>
        <time>2023-02-12T09:15:28Z</time>
      </trkpt>
      <trkpt lat="47.11015" lon="8.48209">
        <ele>462.2</ele>
        <time>2023-02-12T09:15:29Z</time>
      </trkpt>
      <trkpt lat="47.11013" lon="8.4821">
        <ele>461.4</ele>
        <time>2023-02-12T09:15:30Z</time>
      </trkpt>
      <trkpt lat="47.1101" lon="8.4821">
        <ele>460.6</ele>
        <time>2023-02-12T09:15:31Z</time>
      </trkpt>
      <trkpt lat="47.11007" lon="8.4821">
        <ele>460.2</ele>
        <time>2023-02-12T09:15:32Z</time>
      </trkpt>
      <trkpt lat="47.11004" lon="8.48212">
        <ele>459.6</ele>
        <time>2023-02-12T09:15:33Z</time>
      </trkpt>
      <trkpt lat="47.11001" lon="8.48212">
        <ele>459.2</ele>
        <time>2023-02-12T09:15:34Z</time>
      </trkpt>
      <trkpt lat="47.10998" lon="8.48212">
        <ele>458.8</ele>
        <time>2023-02-12T09:15:35Z</time>
      </trkpt>
      <trkpt lat="47.10995" lon="8.48213">
        <ele>458.8</ele>
        <time>2023-02-12T09:15:36Z</time>
      </trkpt>
      <trkpt lat="47.10992" lon="8.48213">
        <ele>458.4</ele>
        <time>2023-02-12T09:15:37Z</time>
      </trkpt>
      <trkpt lat="47.1099" lon="8.48215">
        <ele>458</ele>
        <time>2023-02-12T09:15:38Z</time>
      </trkpt>
      <trkpt lat="47.10987" lon="8.48216">
        <ele>457.8</ele>
        <time>2023-02-12T09:15:39Z</time>
      </trkpt>
      <trkpt lat="47.10983" lon="8.48217">
        <ele>457.4</ele>
        <time>2023-02-12T09:15:40Z</time>
      </trkpt>
      <trkpt lat="47.1098" lon="8.48218">
        <ele>457</ele>
        <time>2023-02-12T09:15:41Z</time>
      </trkpt>
      <trkpt lat="47.10977" lon="8.4822">
        <ele>456.8</ele>
        <time>2023-02-12T09:15:42Z</time>
      </trkpt>
      <trkpt lat="47.10973" lon="8.48221">
        <ele>456.6</ele>
        <time>2023-02-12T09:15:43Z</time>
      </trkpt>
      <trkpt lat="47.1097" lon="8.48222">
        <ele>456</ele>
        <time>2023-02-12T09:15:44Z</time>
      </trkpt>
      <trkpt lat="47.10967" lon="8.48223">
        <ele>455.6</ele>
        <time>2023-02-12T09:15:45Z</time>
      </trkpt>
      <trkpt lat="47.10963" lon="8.48225">
        <ele>455.2</ele>
        <time>2023-02-12T09:15:46Z</time>
      </trkpt>
      <trkpt lat="47.1096" lon="8.48226">
        <ele>454.8</ele>
        <time>2023-02-12T09:15:47Z</time>
      </trkpt>
      <trkpt lat="47.10956" lon="8.48227">
        <ele>454</ele>
        <time>2023-02-12T09:15:48Z</time>
      </trkpt>
      <trkpt lat="47.10953" lon="8.48228">
        <ele>453.6</ele>
        <time>2023-02-12T09:15:49Z</time>
      </trkpt>
      <trkpt lat="47.1095" lon="8.48229">
        <ele>453.4</ele>
        <time>2023-02-12T09:15:50Z</time>
      </trkpt>
      <trkpt lat="47.10948" lon="8.48229">
        <ele>453.2</ele>
        <time>2023-02-12T09:15:51Z</time>
      </trkpt>
      <trkpt lat="47.10945" lon="8.4823">
        <ele>453</ele>
        <time>2023-02-12T09:15:52Z</time>
      </trkpt>
      <trkpt lat="47.10942" lon="8.48231">
        <ele>453</ele>
        <time>2023-02-12T09:15:53Z</time>
      </trkpt>
      <trkpt lat="47.10939" lon="8.48231">
        <ele>453</ele>
        <time>2023-02-12T09:15:54Z</time>
      </trkpt>
      <trkpt lat="47.10936" lon="8.4823">
        <ele>453</ele>
        <time>2023-02-12T09:15:55Z</time>
      </trkpt>
      <trkpt lat="47.10931" lon="8.4823">
        <ele>452.8</ele>
        <time>2023-02-12T09:15:56Z</time>
      </trkpt>
      <trkpt lat="47.10926" lon="8.48229">
        <ele>452.6</ele>
        <time>2023-02-12T09:15:57Z</time>
      </trkpt>
      <trkpt lat="47.10923" lon="8.48228">
        <ele>452.6</ele>
        <time>2023-02-12T09:15:58Z</time>
      </trkpt>
      <trkpt lat="47.10921" lon="8.48227">
        <ele>452.6</ele>
        <time>2023-02-12T09:15:59Z</time>
      </trkpt>
      <trkpt lat="47.10918" lon="8.48226">
        <ele>452.4</ele>
        <time>2023-02-12T09:16:00Z</time>
      </trkpt>
      <trkpt lat="47.10916" lon="8.48225">
        <ele>452.4</ele>
        <time>2023-02-12T09:16:01Z</time>
      </trkpt>
      <trkpt lat="47.10913" lon="8.48224">
        <ele>452.4</ele>
        <time>2023-02-12T09:16:02Z</time>
      </trkpt>
      <trkpt lat="47.1091" lon="8.48224">
        <ele>452.4</ele>
        <time>2023-02-12T09:16:03Z</time>
      </trkpt>
      <trkpt lat="47.10907" lon="8.48223">
        <ele>452.6</ele>
        <time>2023-02-12T09:16:04Z</time>
      </trkpt>
      <trkpt lat="47.10905" lon="8.48222">
        <ele>452.4</ele>
        <time>2023-02-12T09:16:05Z</time>
      </trkpt>
      <trkpt lat="47.10903" lon="8.48221">
        <ele>452.4</ele>
        <time>2023-02-12T09:16:06Z</time>
      </trkpt>
      <trkpt lat="47.10901" lon="8.48219">
        <ele>452.4</ele>
        <time>2023-02-12T09:16:07Z</time>
      </trkpt>
      <trkpt lat="47.10899" lon="8.48217">
        <ele>452.4</ele>
        <time>2023-02-12T09:16:08Z</time>
      </trkpt>
      <trkpt lat="47.10896" lon="8.48215">
        <ele>452.6</ele>
        <time>2023-02-12T09:16:09Z</time>
      </trkpt>
      <trkpt lat="47.10894" lon="8.48213">
        <ele>452.6</ele>
        <time>2023-02-12T09:16:10Z</time>
      </trkpt>
      <trkpt lat="47.10893" lon="8.48211">
        <ele>452.8</ele>
        <time>2023-02-12T09:16:11Z</time>
      </trkpt>
      <trkpt lat="47.10891" lon="8.48209">
        <ele>453</ele>
        <time>2023-02-12T09:16:12Z</time>
      </trkpt>
      <trkpt lat="47.10889" lon="8.48207">
        <ele>453.2</ele>
        <time>2023-02-12T09:16:13Z</time>
      </trkpt>
      <trkpt lat="47.10888" lon="8.48206">
        <ele>453.4</ele>
        <time>2023-02-12T09:16:14Z</time>
      </trkpt>
      <trkpt lat="47.10886" lon="8.48204">
        <ele>453.6</ele>
        <time>2023-02-12T09:16:15Z</time>
      </trkpt>
      <trkpt lat="47.10885" lon="8.48202">
        <ele>454</ele>
        <time>2023-02-12T09:16:16Z</time>
      </trkpt>
      <trkpt lat="47.10883" lon="8.48201">
        <ele>454</ele>
        <time>2023-02-12T09:16:17Z</time>
      </trkpt>
      <trkpt lat="47.10881" lon="8.48198">
        <ele>454.2</ele>
        <time>2023-02-12T09:16:18Z</time>
      </trkpt>
      <trkpt lat="47.1088" lon="8.48197">
        <ele>454.4</ele>
        <time>2023-02-12T09:16:19Z</time>
      </trkpt>
      <trkpt lat="47.10878" lon="8.48195">
        <ele>454.4</ele>
        <time>2023-02-12T09:16:20Z</time>
      </trkpt>
      <trkpt lat="47.10877" lon="8.48193">
        <ele>454.4</ele>
        <time>2023-02-12T09:16:21Z</time>
      </trkpt>
      <trkpt lat="47.10875" lon="8.4819">
        <ele>454.6</ele>
        <time>2023-02-12T09:16:22Z</time>
      </trkpt>
      <trkpt lat="47.10873" lon="8.48187">
        <ele>454.8</ele>
        <time>2023-02-12T09:16:23Z</time>
      </trkpt>
      <trkpt lat="47.10873" lon="8.48184">
        <ele>455</ele>
        <time>2023-02-12T09:16:24Z</time>
      </trkpt>
      <trkpt lat="47.10872" lon="8.4818">
        <ele>455.2</ele>
        <time>2023-02-12T09:16:25Z</time>
      </trkpt>
      <trkpt lat="47.10872" lon="8.48176">
        <ele>455.2</ele>
        <time>2023-02-12T09:16:26Z</time>
      </trkpt>
      <trkpt lat="47.10871" lon="8.48172">
        <ele>455.2</ele>
        <time>2023-02-12T09:16:27Z</time>
      </trkpt>
      <trkpt lat="47.10869" lon="8.48169">
        <ele>455.4</ele>
        <time>2023-02-12T09:16:28Z</time>
      </trkpt>
      <trkpt lat="47.10868" lon="8.48166">
        <ele>455.4</ele>
        <time>2023-02-12T09:16:29Z</time>
      </trkpt>
      <trkpt lat="47.10866" lon="8.48163">
        <ele>455.4</ele>
        <time>2023-02-12T09:16:30Z</time>
      </trkpt>
      <trkpt lat="47.10864" lon="8.4816">
        <ele>455.6</ele>
        <time>2023-02-12T09:16:31Z</time>
      </trkpt>
      <trkpt lat="47.10862" lon="8.48157">
        <ele>455.6</ele>
        <time>2023-02-12T09:16:32Z</time>
      </trkpt>
      <trkpt lat="47.1086" lon="8.48154">
        <ele>455.6</ele>
        <time>2023-02-12T09:16:33Z</time>
      </trkpt>
      <trkpt lat="47.10858" lon="8.48152">
        <ele>455.6</ele>
        <time>2023-02-12T09:16:34Z</time>
      </trkpt>
      <trkpt lat="47.10857" lon="8.48149">
        <ele>455.6</ele>
        <time>2023-02-12T09:16:35Z</time>
      </trkpt>
      <trkpt lat="47.10855" lon="8.48147">
        <ele>455.6</ele>
        <time>2023-02-12T09:16:36Z</time>
      </trkpt>
      <trkpt lat="47.10853" lon="8.48143">
        <ele>455.6</ele>
        <time>2023-02-12T09:16:37Z</time>
      </trkpt>
      <trkpt lat="47.10851" lon="8.48139">
        <ele>455.6</ele>
        <time>2023-02-12T09:16:38Z</time>
      </trkpt>
      <trkpt lat="47.10849" lon="8.48135">
        <ele>455.6</ele>
        <time>2023-02-12T09:16:39Z</time>
      </trkpt>
      <trkpt lat="47.10846" lon="8.48131">
        <ele>455.6</ele>
        <time>2023-02-12T09:16:40Z</time>
      </trkpt>
      <trkpt lat="47.10844" lon="8.48127">
        <ele>455.4</ele>
        <time>2023-02-12T09:16:41Z</time>
      </trkpt>
      <trkpt lat="47.10841" lon="8.48125">
        <ele>455.4</ele>
        <time>2023-02-12T09:16:42Z</time>
      </trkpt>
      <trkpt lat="47.10839" lon="8.48122">
        <ele>455.2</ele>
        <time>2023-02-12T09:16:43Z</time>
      </trkpt>
      <trkpt lat="47.10837" lon="8.4812">
        <ele>455.2</ele>
        <time>2023-02-12T09:16:44Z</time>
      </trkpt>
      <trkpt lat="47.10834" lon="8.48117">
        <ele>455.2</ele>
        <time>2023-02-12T09:16:45Z</time>
      </trkpt>
      <trkpt lat="47.10832" lon="8.48115">
        <ele>455.4</ele>
        <time>2023-02-12T09:16:46Z</time>
      </trkpt>
      <trkpt lat="47.1083" lon="8.48114">
        <ele>455.4</ele>
        <time>2023-02-12T09:16:47Z</time>
      </trkpt>
      <trkpt lat="47.10828" lon="8.48113">
        <ele>455.6</ele>
        <time>2023-02-12T09:16:48Z</time>
      </trkpt>
      <trkpt lat="47.10826" lon="8.4811">
        <ele>455.6</ele>
        <time>2023-02-12T09:16:49Z</time>
      </trkpt>
      <trkpt lat="47.10825" lon="8.48107">
        <ele>455.8</ele>
        <time>2023-02-12T09:16:50Z</time>
      </trkpt>
      <trkpt lat="47.10823" lon="8.48103">
        <ele>455.8</ele>
        <time>2023-02-12T09:16:51Z</time>
      </trkpt>
      <trkpt lat="47.10822" lon="8.481">
        <ele>456.2</ele>
        <time>2023-02-12T09:16:52Z</time>
      </trkpt>
      <trkpt lat="47.10822" lon="8.48097">
        <ele>456.2</ele>
        <time>2023-02-12T09:16:53Z</time>
      </trkpt>
      <trkpt lat="47.10821" lon="8.48094">
        <ele>456.4</ele>
        <time>2023-02-12T09:16:54Z</time>
      </trkpt>
      <trkpt lat="47.1082" lon="8.4809">
        <ele>456.6</ele>
        <time>2023-02-12T09:16:55Z</time>
      </trkpt>
      <trkpt lat="47.10819" lon="8.48087">
        <ele>456.8</ele>
        <time>2023-02-12T09:16:56Z</time>
      </trkpt>
      <trkpt lat="47.10819" lon="8.48082">
        <ele>457</ele>
        <time>2023-02-12T09:16:57Z</time>
      </trkpt>
      <trkpt lat="47.10818" lon="8.48077">
        <ele>457.2</ele>
        <time>2023-02-12T09:16:58Z</time>
      </trkpt>
      <trkpt lat="47.10817" lon="8.48073">
        <ele>457.2</ele>
        <time>2023-02-12T09:16:59Z</time>
      </trkpt>
      <trkpt lat="47.10816" lon="8.48069">
        <ele>457.2</ele>
        <time>2023-02-12T09:17:00Z</time>
      </trkpt>
      <trkpt lat="47.10815" lon="8.48065">
        <ele>457.2</ele>
        <time>2023-02-12T09:17:01Z</time>
      </trkpt>
      <trkpt lat="47.10815" lon="8.48061">
        <ele>457.2</ele>
        <time>2023-02-12T09:17:02Z</time>
      </trkpt>
      <trkpt lat="47.10814" lon="8.48058">
        <ele>457.2</ele>
        <time>2023-02-12T09:17:03Z</time>
      </trkpt>
      <trkpt lat="47.10813" lon="8.48055">
        <ele>457.4</ele>
        <time>2023-02-12T09:17:04Z</time>
      </trkpt>
      <trkpt lat="47.10812" lon="8.48053">
        <ele>457.4</ele>
        <time>2023-02-12T09:17:05Z</time>
      </trkpt>
      <trkpt lat="47.10811" lon="8.48048">
        <ele>457.2</ele>
        <time>2023-02-12T09:17:06Z</time>
      </trkpt>
      <trkpt lat="47.10809" lon="8.48044">
        <ele>457</ele>
        <time>2023-02-12T09:17:07Z</time>
      </trkpt>
      <trkpt lat="47.10808" lon="8.4804">
        <ele>457</ele>
        <time>2023-02-12T09:17:08Z</time>
      </trkpt>
      <trkpt lat="47.10807" lon="8.48036">
        <ele>457</ele>
        <time>2023-02-12T09:17:09Z</time>
      </trkpt>
      <trkpt lat="47.10806" lon="8.48032">
        <ele>457</ele>
        <time>2023-02-12T09:17:10Z</time>
      </trkpt>
      <trkpt lat="47.10804" lon="8.48029">
        <ele>456.8</ele>
        <time>2023-02-12T09:17:11Z</time>
      </trkpt>
      <trkpt lat="47.10802" lon="8.48024">
        <ele>456.6</ele>
        <time>2023-02-12T09:17:12Z</time>
      </trkpt>
      <trkpt lat="47.108" lon="8.48019">
        <ele>456.6</ele>
        <time>2023-02-12T09:17:13Z</time>
      </trkpt>
      <trkpt lat="47.10799" lon="8.48015">
        <ele>456.4</ele>
        <time>2023-02-12T09:17:14Z</time>
      </trkpt>
      <trkpt lat="47.10797" lon="8.4801">
        <ele>456.4</ele>
        <time>2023-02-12T09:17:15Z</time>
      </trkpt>
      <trkpt lat="47.10795" lon="8.48005">
        <ele>456.2</ele>
        <time>2023-02-12T09:17:16Z</time>
      </trkpt>
      <trkpt lat="47.10793" lon="8.48001">
        <ele>455.8</ele>
        <time>2023-02-12T09:17:17Z</time>
      </trkpt>
      <trkpt lat="47.10792" lon="8.47997">
        <ele>455.8</ele>
        <time>2023-02-12T09:17:18Z</time>
      </trkpt>
      <trkpt lat="47.1079" lon="8.47991">
        <ele>455.8</ele>
        <time>2023-02-12T09:17:19Z</time>
      </trkpt>
      <trkpt lat="47.10788" lon="8.47986">
        <ele>455.6</ele>
        <time>2023-02-12T09:17:20Z</time>
      </trkpt>
      <trkpt lat="47.10786" lon="8.47982">
        <ele>455.6</ele>
        <time>2023-02-12T09:17:21Z</time>
      </trkpt>
      <trkpt lat="47.10785" lon="8.47976">
        <ele>455</ele>
        <time>2023-02-12T09:17:22Z</time>
      </trkpt>
      <trkpt lat="47.10783" lon="8.47972">
        <ele>454.8</ele>
        <time>2023-02-12T09:17:23Z</time>
      </trkpt>
      <trkpt lat="47.10781" lon="8.47967">
        <ele>454.4</ele>
        <time>2023-02-12T09:17:24Z</time>
      </trkpt>
      <trkpt lat="47.1078" lon="8.47962">
        <ele>454.2</ele>
        <time>2023-02-12T09:17:25Z</time>
      </trkpt>
      <trkpt lat="47.10779" lon="8.47958">
        <ele>453.8</ele>
        <time>2023-02-12T09:17:26Z</time>
      </trkpt>
      <trkpt lat="47.10778" lon="8.47953">
        <ele>453.4</ele>
        <time>2023-02-12T09:17:27Z</time>
      </trkpt>
      <trkpt lat="47.10777" lon="8.47949">
        <ele>453</ele>
        <time>2023-02-12T09:17:28Z</time>
      </trkpt>
      <trkpt lat="47.10775" lon="8.47943">
        <ele>453</ele>
        <time>2023-02-12T09:17:29Z</time>
      </trkpt>
      <trkpt lat="47.10773" lon="8.47937">
        <ele>452.8</ele>
        <time>2023-02-12T09:17:30Z</time>
      </trkpt>
      <trkpt lat="47.10771" lon="8.47932">
        <ele>452.8</ele>
        <time>2023-02-12T09:17:31Z</time>
      </trkpt>
      <trkpt lat="47.10769" lon="8.47927">
        <ele>452.8</ele>
        <time>2023-02-12T09:17:32Z</time>
      </trkpt>
      <trkpt lat="47.10767" lon="8.47923">
        <ele>452.4</ele>
        <time>2023-02-12T09:17:33Z</time>
      </trkpt>
      <trkpt lat="47.10765" lon="8.47918">
        <ele>452.2</ele>
        <time>2023-02-12T09:17:34Z</time>
      </trkpt>
      <trkpt lat="47.10762" lon="8.47913">
        <ele>452.2</ele>
        <time>2023-02-12T09:17:35Z</time>
      </trkpt>
      <trkpt lat="47.1076" lon="8.47909">
        <ele>452</ele>
        <time>2023-02-12T09:17:36Z</time>
      </trkpt>
      <trkpt lat="47.10759" lon="8.47904">
        <ele>451.8</ele>
        <time>2023-02-12T09:17:37Z</time>
      </trkpt>
      <trkpt lat="47.10758" lon="8.479">
        <ele>451.6</ele>
        <time>2023-02-12T09:17:38Z</time>
      </trkpt>
      <trkpt lat="47.10757" lon="8.47895">
        <ele>451.4</ele>
        <time>2023-02-12T09:17:39Z</time>
      </trkpt>
      <trkpt lat="47.10756" lon="8.4789">
        <ele>451.4</ele>
        <time>2023-02-12T09:17:40Z</time>
      </trkpt>
      <trkpt lat="47.10755" lon="8.47885">
        <ele>451.4</ele>
        <time>2023-02-12T09:17:41Z</time>
      </trkpt>
      <trkpt lat="47.10754" lon="8.47881">
        <ele>451.2</ele>
        <time>2023-02-12T09:17:42Z</time>
      </trkpt>
      <trkpt lat="47.10752" lon="8.47878">
        <ele>451.2</ele>
        <time>2023-02-12T09:17:43Z</time>
      </trkpt>
      <trkpt lat="47.10751" lon="8.47873">
        <ele>451.2</ele>
        <time>2023-02-12T09:17:44Z</time>
      </trkpt>
      <trkpt lat="47.10751" lon="8.4787">
        <ele>451.2</ele>
        <time>2023-02-12T09:17:45Z</time>
      </trkpt>
      <trkpt lat="47.1075" lon="8.47866">
        <ele>451</ele>
        <time>2023-02-12T09:17:46Z</time>
      </trkpt>
      <trkpt lat="47.10749" lon="8.47864">
        <ele>450.8</ele>
        <time>2023-02-12T09:17:47Z</time>
      </trkpt>
      <trkpt lat="47.10747" lon="8.47862">
        <ele>449.8</ele>
        <time>2023-02-12T09:17:48Z</time>
      </trkpt>
      <trkpt lat="47.10746" lon="8.47859">
        <ele>449.2</ele>
        <time>2023-02-12T09:17:49Z</time>
      </trkpt>
      <trkpt lat="47.10745" lon="8.47856">
        <ele>448.8</ele>
        <time>2023-02-12T09:17:50Z</time>
      </trkpt>
      <trkpt lat="47.10744" lon="8.47852">
        <ele>448.6</ele>
        <time>2023-02-12T09:17:51Z</time>
      </trkpt>
      <trkpt lat="47.10744" lon="8.47848">
        <ele>448.4</ele>
        <time>2023-02-12T09:17:52Z</time>
      </trkpt>
      <trkpt lat="47.10743" lon="8.47844">
        <ele>448.2</ele>
        <time>2023-02-12T09:17:53Z</time>
      </trkpt>
      <trkpt lat="47.10742" lon="8.47839">
        <ele>448</ele>
        <time>2023-02-12T09:17:54Z</time>
      </trkpt>
      <trkpt lat="47.1074" lon="8.47836">
        <ele>447.8</ele>
        <time>2023-02-12T09:17:55Z</time>
      </trkpt>
      <trkpt lat="47.1074" lon="8.47832">
        <ele>447.8</ele>
        <time>2023-02-12T09:17:56Z</time>
      </trkpt>
      <trkpt lat="47.10738" lon="8.47829">
        <ele>447.4</ele>
        <time>2023-02-12T09:17:57Z</time>
      </trkpt>
      <trkpt lat="47.10736" lon="8.47826">
        <ele>447.2</ele>
        <time>2023-02-12T09:17:58Z</time>
      </trkpt>
      <trkpt lat="47.10734" lon="8.47824">
        <ele>447</ele>
        <time>2023-02-12T09:17:59Z</time>
      </trkpt>
      <trkpt lat="47.10733" lon="8.47821">
        <ele>446.4</ele>
        <time>2023-02-12T09:18:00Z</time>
      </trkpt>
      <trkpt lat="47.10731" lon="8.47818">
        <ele>446</ele>
        <time>2023-02-12T09:18:01Z</time>
      </trkpt>
      <trkpt lat="47.10729" lon="8.47815">
        <ele>445.8</ele>
        <time>2023-02-12T09:18:02Z</time>
      </trkpt>
      <trkpt lat="47.10727" lon="8.47812">
        <ele>445.4</ele>
        <time>2023-02-12T09:18:03Z</time>
      </trkpt>
      <trkpt lat="47.10726" lon="8.47809">
        <ele>444.8</ele>
        <time>2023-02-12T09:18:04Z</time>
      </trkpt>
      <trkpt lat="47.10725" lon="8.47807">
        <ele>444.6</ele>
        <time>2023-02-12T09:18:05Z</time>
      </trkpt>
      <trkpt lat="47.10724" lon="8.47804">
        <ele>444.4</ele>
        <time>2023-02-12T09:18:06Z</time>
      </trkpt>
      <trkpt lat="47.10722" lon="8.47802">
        <ele>444.2</ele>
        <time>2023-02-12T09:18:07Z</time>
      </trkpt>
      <trkpt lat="47.10719" lon="8.47799">
        <ele>444.2</ele>
        <time>2023-02-12T09:18:08Z</time>
      </trkpt>
      <trkpt lat="47.10718" lon="8.47797">
        <ele>444.2</ele>
        <time>2023-02-12T09:18:09Z</time>
      </trkpt>
      <trkpt lat="47.10715" lon="8.47793">
        <ele>443.6</ele>
        <time>2023-02-12T09:18:10Z</time>
      </trkpt>
      <trkpt lat="47.10713" lon="8.47789">
        <ele>443.4</ele>
        <time>2023-02-12T09:18:11Z</time>
      </trkpt>
      <trkpt lat="47.1071" lon="8.47785">
        <ele>443.2</ele>
        <time>2023-02-12T09:18:12Z</time>
      </trkpt>
      <trkpt lat="47.10706" lon="8.47782">
        <ele>442.8</ele>
        <time>2023-02-12T09:18:13Z</time>
      </trkpt>
      <trkpt lat="47.10702" lon="8.47777">
        <ele>442.4</ele>
        <time>2023-02-12T09:18:14Z</time>
      </trkpt>
      <trkpt lat="47.10699" lon="8.47774">
        <ele>442.2</ele>
        <time>2023-02-12T09:18:15Z</time>
      </trkpt>
      <trkpt lat="47.10696" lon="8.47771">
        <ele>441.8</ele>
        <time>2023-02-12T09:18:16Z</time>
      </trkpt>
      <trkpt lat="47.10693" lon="8.47768">
        <ele>441.6</ele>
        <time>2023-02-12T09:18:17Z</time>
      </trkpt>
      <trkpt lat="47.10691" lon="8.47765">
        <ele>441.4</ele>
        <time>2023-02-12T09:18:18Z</time>
      </trkpt>
      <trkpt lat="47.1069" lon="8.47762">
        <ele>441.2</ele>
        <time>2023-02-12T09:18:19Z</time>
      </trkpt>
      <trkpt lat="47.10688" lon="8.47758">
        <ele>441</ele>
        <time>2023-02-12T09:18:20Z</time>
      </trkpt>
      <trkpt lat="47.10687" lon="8.47756">
        <ele>441</ele>
        <time>2023-02-12T09:18:21Z</time>
      </trkpt>
      <trkpt lat="47.10685" lon="8.47752">
        <ele>441</ele>
        <time>2023-02-12T09:18:22Z</time>
      </trkpt>
      <trkpt lat="47.10685" lon="8.47748">
        <ele>441</ele>
        <time>2023-02-12T09:18:23Z</time>
      </trkpt>
      <trkpt lat="47.10684" lon="8.47744">
        <ele>441</ele>
        <time>2023-02-12T09:18:24Z</time>
      </trkpt>
      <trkpt lat="47.10682" lon="8.47738">
        <ele>441</ele>
        <time>2023-02-12T09:18:25Z</time>
      </trkpt>
      <trkpt lat="47.10682" lon="8.47735">
        <ele>441</ele>
        <time>2023-02-12T09:18:26Z</time>
      </trkpt>
      <trkpt lat="47.10681" lon="8.47732">
        <ele>440.8</ele>
        <time>2023-02-12T09:18:27Z</time>
      </trkpt>
      <trkpt lat="47.10681" lon="8.4773">
        <ele>440.6</ele>
        <time>2023-02-12T09:18:28Z</time>
      </trkpt>
      <trkpt lat="47.10681" lon="8.47727">
        <ele>440.6</ele>
        <time>2023-02-12T09:18:29Z</time>
      </trkpt>
      <trkpt lat="47.10679" lon="8.47725">
        <ele>440.4</ele>
        <time>2023-02-12T09:18:30Z</time>
      </trkpt>
      <trkpt lat="47.10678" lon="8.47721">
        <ele>440.4</ele>
        <time>2023-02-12T09:18:31Z</time>
      </trkpt>
      <trkpt lat="47.10678" lon="8.47717">
        <ele>440.2</ele>
        <time>2023-02-12T09:18:32Z</time>
      </trkpt>
      <trkpt lat="47.10678" lon="8.47712">
        <ele>439.8</ele>
        <time>2023-02-12T09:18:33Z</time>
      </trkpt>
      <trkpt lat="47.10678" lon="8.47709">
        <ele>439.2</ele>
        <time>2023-02-12T09:18:34Z</time>
      </trkpt>
      <trkpt lat="47.10679" lon="8.47705">
        <ele>439.2</ele>
        <time>2023-02-12T09:18:35Z</time>
      </trkpt>
      <trkpt lat="47.10679" lon="8.47702">
        <ele>439</ele>
        <time>2023-02-12T09:18:36Z</time>
      </trkpt>
      <trkpt lat="47.1068" lon="8.47698">
        <ele>438.6</ele>
        <time>2023-02-12T09:18:37Z</time>
      </trkpt>
      <trkpt lat="47.10681" lon="8.47695">
        <ele>438.4</ele>
        <time>2023-02-12T09:18:38Z</time>
      </trkpt>
      <trkpt lat="47.10682" lon="8.47691">
        <ele>438.2</ele>
        <time>2023-02-12T09:18:39Z</time>
      </trkpt>
      <trkpt lat="47.10684" lon="8.47688">
        <ele>437.8</ele>
        <time>2023-02-12T09:18:40Z</time>
      </trkpt>
      <trkpt lat="47.10684" lon="8.47684">
        <ele>437.6</ele>
        <time>2023-02-12T09:18:41Z</time>
      </trkpt>
      <trkpt lat="47.10685" lon="8.47681">
        <ele>437.6</ele>
        <time>2023-02-12T09:18:42Z</time>
      </trkpt>
      <trkpt lat="47.10685" lon="8.47677">
        <ele>437.2</ele>
        <time>2023-02-12T09:18:43Z</time>
      </trkpt>
      <trkpt lat="47.10685" lon="8.47673">
        <ele>437</ele>
        <time>2023-02-12T09:18:44Z</time>
      </trkpt>
      <trkpt lat="47.10685" lon="8.4767">
        <ele>436.6</ele>
        <time>2023-02-12T09:18:45Z</time>
      </trkpt>
      <trkpt lat="47.10686" lon="8.47667">
        <ele>435.6</ele>
        <time>2023-02-12T09:18:46Z</time>
      </trkpt>
      <trkpt lat="47.10686" lon="8.47663">
        <ele>435</ele>
        <time>2023-02-12T09:18:47Z</time>
      </trkpt>
      <trkpt lat="47.10687" lon="8.47659">
        <ele>434.6</ele>
        <time>2023-02-12T09:18:48Z</time>
      </trkpt>
      <trkpt lat="47.10688" lon="8.47654">
        <ele>434.4</ele>
        <time>2023-02-12T09:18:49Z</time>
      </trkpt>
      <trkpt lat="47.10689" lon="8.4765">
        <ele>434.2</ele>
        <time>2023-02-12T09:18:50Z</time>
      </trkpt>
      <trkpt lat="47.10689" lon="8.47647">
        <ele>433.6</ele>
        <time>2023-02-12T09:18:51Z</time>
      </trkpt>
      <trkpt lat="47.1069" lon="8.47645">
        <ele>433</ele>
        <time>2023-02-12T09:18:52Z</time>
      </trkpt>
      <trkpt lat="47.10691" lon="8.47641">
        <ele>432.6</ele>
        <time>2023-02-12T09:18:53Z</time>
      </trkpt>
      <trkpt lat="47.10692" lon="8.47637">
        <ele>432.2</ele>
        <time>2023-02-12T09:18:54Z</time>
      </trkpt>
      <trkpt lat="47.10692" lon="8.47632">
        <ele>431.8</ele>
        <time>2023-02-12T09:18:55Z</time>
      </trkpt>
      <trkpt lat="47.10692" lon="8.47627">
        <ele>431.4</ele>
        <time>2023-02-12T09:18:56Z</time>
      </trkpt>
      <trkpt lat="47.10692" lon="8.47623">
        <ele>431.2</ele>
        <time>2023-02-12T09:18:57Z</time>
      </trkpt>
      <trkpt lat="47.10692" lon="8.4762">
        <ele>430.4</ele>
        <time>2023-02-12T09:18:58Z</time>
      </trkpt>
      <trkpt lat="47.10691" lon="8.47616">
        <ele>429.8</ele>
        <time>2023-02-12T09:18:59Z</time>
      </trkpt>
      <trkpt lat="47.1069" lon="8.47613">
        <ele>429.4</ele>
        <time>2023-02-12T09:19:00Z</time>
      </trkpt>
      <trkpt lat="47.10687" lon="8.47612">
        <ele>429.4</ele>
        <time>2023-02-12T09:19:01Z</time>
      </trkpt>
      <trkpt lat="47.10685" lon="8.4761">
        <ele>428.8</ele>
        <time>2023-02-12T09:19:02Z</time>
      </trkpt>
      <trkpt lat="47.10683" lon="8.47609">
        <ele>428.4</ele>
        <time>2023-02-12T09:19:03Z</time>
      </trkpt>
      <trkpt lat="47.10682" lon="8.47608">
        <ele>427.8</ele>
        <time>2023-02-12T09:19:04Z</time>
      </trkpt>
      <trkpt lat="47.1068" lon="8.47607">
        <ele>427.4</ele>
        <time>2023-02-12T09:19:05Z</time>
      </trkpt>
      <trkpt lat="47.10679" lon="8.47607">
        <ele>427.2</ele>
        <time>2023-02-12T09:19:06Z</time>
      </trkpt>
      <trkpt lat="47.10678" lon="8.47605">
        <ele>427</ele>
        <time>2023-02-12T09:19:07Z</time>
      </trkpt>
      <trkpt lat="47.10676" lon="8.47605">
        <ele>426.6</ele>
        <time>2023-02-12T09:19:08Z</time>
      </trkpt>
      <trkpt lat="47.10674" lon="8.47605">
        <ele>426.4</ele>
        <time>2023-02-12T09:19:09Z</time>
      </trkpt>
      <trkpt lat="47.10673" lon="8.47604">
        <ele>426.4</ele>
        <time>2023-02-12T09:19:10Z</time>
      </trkpt>
      <trkpt lat="47.10672" lon="8.47603">
        <ele>426.2</ele>
        <time>2023-02-12T09:19:11Z</time>
      </trkpt>
      <trkpt lat="47.1067" lon="8.47601">
        <ele>426.2</ele>
        <time>2023-02-12T09:19:12Z</time>
      </trkpt>
      <trkpt lat="47.10669" lon="8.47599">
        <ele>426</ele>
        <time>2023-02-12T09:19:13Z</time>
      </trkpt>
      <trkpt lat="47.10668" lon="8.47598">
        <ele>426</ele>
        <time>2023-02-12T09:19:14Z</time>
      </trkpt>
      <trkpt lat="47.10666" lon="8.47598">
        <ele>425.8</ele>
        <time>2023-02-12T09:19:15Z</time>
      </trkpt>
      <trkpt lat="47.10666" lon="8.47599">
        <ele>425.8</ele>
        <time>2023-02-12T09:19:16Z</time>
      </trkpt>
      <trkpt lat="47.10667" lon="8.476">
        <ele>425.6</ele>
        <time>2023-02-12T09:19:17Z</time>
      </trkpt>
      <trkpt lat="47.10668" lon="8.47599">
        <ele>425.6</ele>
        <time>2023-02-12T09:19:18Z</time>
      </trkpt>
      <trkpt lat="47.1067" lon="8.47599">
        <ele>425.6</ele>
        <time>2023-02-12T09:19:19Z</time>
      </trkpt>
      <trkpt lat="47.10672" lon="8.47599">
        <ele>425.6</ele>
        <time>2023-02-12T09:19:20Z</time>
      </trkpt>
      <trkpt lat="47.10674" lon="8.47599">
        <ele>425.6</ele>
        <time>2023-02-12T09:19:21Z</time>
      </trkpt>
      <trkpt lat="47.10676" lon="8.47599">
        <ele>425.6</ele>
        <time>2023-02-12T09:19:22Z</time>
      </trkpt>
      <trkpt lat="47.10679" lon="8.476">
        <ele>425.6</ele>
        <time>2023-02-12T09:19:23Z</time>
      </trkpt>
      <trkpt lat="47.10681" lon="8.47601">
        <ele>425.6</ele>
        <time>2023-02-12T09:19:24Z</time>
      </trkpt>
      <trkpt lat="47.10683" lon="8.47603">
        <ele>425.8</ele>
        <time>2023-02-12T09:19:25Z</time>
      </trkpt>
      <trkpt lat="47.10685" lon="8.47603">
        <ele>425.8</ele>
        <time>2023-02-12T09:19:26Z</time>
      </trkpt>
      <trkpt lat="47.10687" lon="8.47604">
        <ele>425.8</ele>
        <time>2023-02-12T09:19:27Z</time>
      </trkpt>
      <trkpt lat="47.10689" lon="8.47604">
        <ele>426</ele>
        <time>2023-02-12T09:19:28Z</time>
      </trkpt>
      <trkpt lat="47.10691" lon="8.47604">
        <ele>426</ele>
        <time>2023-02-12T09:19:29Z</time>
      </trkpt>
      <trkpt lat="47.10692" lon="8.47605">
        <ele>426.2</ele>
        <time>2023-02-12T09:19:30Z</time>
      </trkpt>
      <trkpt lat="47.10693" lon="8.47605">
        <ele>426.2</ele>
        <time>2023-02-12T09:19:31Z</time>
      </trkpt>
      <trkpt lat="47.10694" lon="8.47605">
        <ele>426.4</ele>
        <time>2023-02-12T09:19:32Z</time>
      </trkpt>
      <trkpt lat="47.10696" lon="8.47606">
        <ele>426.6</ele>
        <time>2023-02-12T09:19:33Z</time>
      </trkpt>
      <trkpt lat="47.10697" lon="8.47606">
        <ele>426.6</ele>
        <time>2023-02-12T09:19:34Z</time>
      </trkpt>
      <trkpt lat="47.10698" lon="8.47605">
        <ele>426.8</ele>
        <time>2023-02-12T09:19:35Z</time>
      </trkpt>
      <trkpt lat="47.107" lon="8.47605">
        <ele>426.8</ele>
        <time>2023-02-12T09:19:36Z</time>
      </trkpt>
      <trkpt lat="47.10701" lon="8.47604">
        <ele>427</ele>
        <time>2023-02-12T09:19:37Z</time>
      </trkpt>
      <trkpt lat="47.107" lon="8.47603">
        <ele>427.2</ele>
        <time>2023-02-12T09:19:38Z</time>
      </trkpt>
      <trkpt lat="47.10698" lon="8.47604">
        <ele>427.4</ele>
        <time>2023-02-12T09:19:39Z</time>
      </trkpt>
      <trkpt lat="47.10696" lon="8.47605">
        <ele>427.4</ele>
        <time>2023-02-12T09:19:40Z</time>
      </trkpt>
      <trkpt lat="47.10696" lon="8.47605">
        <ele>427.4</ele>
        <time>2023-02-12T09:19:41Z</time>
      </trkpt>
      <trkpt lat="47.10696" lon="8.47606">
        <ele>427.4</ele>
        <time>2023-02-12T09:19:42Z</time>
      </trkpt>
      <trkpt lat="47.10696" lon="8.47606">
        <ele>427.4</ele>
        <time>2023-02-12T09:19:43Z</time>
      </trkpt>
      <trkpt lat="47.10696" lon="8.47606">
        <ele>427.4</ele>
        <time>2023-02-12T09:19:44Z</time>
      </trkpt>
      <trkpt lat="47.10696" lon="8.47606">
        <ele>427.4</ele>
        <time>2023-02-12T09:19:45Z</time>
      </trkpt>
      <trkpt lat="47.10696" lon="8.47606">
        <ele>427.4</ele>
        <time>2023-02-12T09:19:46Z</time>
      </trkpt>
      <trkpt lat="47.10696" lon="8.47606">
        <ele>427.4</ele>
        <time>2023-02-12T09:19:47Z</time>
      </trkpt>
      <trkpt lat="47.10696" lon="8.47606">
        <ele>427.4</ele>
        <time>2023-02-12T09:19:48Z</time>
      </trkpt>
      <trkpt lat="47.10696" lon="8.47606">
        <ele>427.4</ele>
        <time>2023-02-12T09:19:49Z</time>
      </trkpt>
      <trkpt lat="47.10696" lon="8.47606">
        <ele>427.4</ele>
        <time>2023-02-12T09:19:50Z</time>
      </trkpt>
      <trkpt lat="47.10696" lon="8.47606">
        <ele>427.4</ele>
        <time>2023-02-12T09:19:51Z</time>
      </trkpt>
      <trkpt lat="47.10696" lon="8.47606">
        <ele>427.4</ele>
        <time>2023-02-12T09:19:52Z</time>
      </trkpt>
      <trkpt lat="47.10696" lon="8.47606">
        <ele>427.4</ele>
        <time>2023-02-12T09:19:53Z</time>
      </trkpt>
      <trkpt lat="47.10696" lon="8.47606">
        <ele>427.4</ele>
        <time>2023-02-12T09:19:54Z</time>
      </trkpt>
      <trkpt lat="47.10696" lon="8.47606">
        <ele>427.4</ele>
        <time>2023-02-12T09:19:55Z</time>
      </trkpt>
      <trkpt lat="47.10696" lon="8.47606">
        <ele>427.4</ele>
        <time>2023-02-12T09:19:56Z</time>
      </trkpt>
      <trkpt lat="47.10696" lon="8.47606">
        <ele>427.4</ele>
        <time>2023-02-12T09:19:57Z</time>
      </trkpt>
      <trkpt lat="47.10696" lon="8.47606">
        <ele>427.4</ele>
        <time>2023-02-12T09:19:58Z</time>
      </trkpt>
      <trkpt lat="47.10696" lon="8.47606">
        <ele>427.4</ele>
        <time>2023-02-12T09:19:59Z</time>
      </trkpt>
      <trkpt lat="47.10696" lon="8.47606">
        <ele>427.4</ele>
        <time>2023-02-12T09:20:00Z</time>
      </trkpt>
      <trkpt lat="47.10696" lon="8.47606">
        <ele>427.4</ele>
        <time>2023-02-12T09:20:01Z</time>
      </trkpt>
      <trkpt lat="47.10696" lon="8.47606">
        <ele>427.4</ele>
        <time>2023-02-12T09:20:02Z</time>
      </trkpt>
      <trkpt lat="47.10696" lon="8.47606">
        <ele>427.4</ele>
        <time>2023-02-12T09:20:03Z</time>
      </trkpt>
      <trkpt lat="47.10695" lon="8.47608">
        <ele>427.4</ele>
        <time>2023-02-12T09:20:04Z</time>
      </trkpt>
      <trkpt lat="47.10694" lon="8.47611">
        <ele>427.2</ele>
        <time>2023-02-12T09:20:05Z</time>
      </trkpt>
      <trkpt lat="47.10695" lon="8.4761">
        <ele>427.2</ele>
        <time>2023-02-12T09:20:06Z</time>
      </trkpt>
      <trkpt lat="47.10695" lon="8.4761">
        <ele>427.2</ele>
        <time>2023-02-12T09:20:07Z</time>
      </trkpt>
      <trkpt lat="47.10695" lon="8.4761">
        <ele>427.2</ele>
        <time>2023-02-12T09:20:08Z</time>
      </trkpt>
      <trkpt lat="47.10695" lon="8.4761">
        <ele>427.2</ele>
        <time>2023-02-12T09:20:09Z</time>
      </trkpt>
      <trkpt lat="47.10695" lon="8.4761">
        <ele>427.2</ele>
        <time>2023-02-12T09:20:10Z</time>
      </trkpt>
      <trkpt lat="47.10695" lon="8.4761">
        <ele>427.2</ele>
        <time>2023-02-12T09:20:11Z</time>
      </trkpt>
      <trkpt lat="47.10695" lon="8.4761">
        <ele>427.2</ele>
        <time>2023-02-12T09:20:12Z</time>
      </trkpt>
      <trkpt lat="47.10694" lon="8.47612">
        <ele>427.2</ele>
        <time>2023-02-12T09:20:13Z</time>
      </trkpt>
      <trkpt lat="47.10694" lon="8.47612">
        <ele>427.4</ele>
        <time>2023-02-12T09:20:14Z</time>
      </trkpt>
      <trkpt lat="47.10693" lon="8.47614">
        <ele>427.2</ele>
        <time>2023-02-12T09:20:15Z</time>
      </trkpt>
      <trkpt lat="47.10693" lon="8.47614">
        <ele>427.2</ele>
        <time>2023-02-12T09:20:16Z</time>
      </trkpt>
      <trkpt lat="47.10693" lon="8.47614">
        <ele>427.2</ele>
        <time>2023-02-12T09:20:17Z</time>
      </trkpt>
      <trkpt lat="47.10693" lon="8.47614">
        <ele>427.2</ele>
        <time>2023-02-12T09:20:18Z</time>
      </trkpt>
      <trkpt lat="47.10693" lon="8.47614">
        <ele>427.2</ele>
        <time>2023-02-12T09:20:19Z</time>
      </trkpt>
      <trkpt lat="47.10693" lon="8.47614">
        <ele>427.2</ele>
        <time>2023-02-12T09:20:20Z</time>
      </trkpt>
      <trkpt lat="47.10693" lon="8.47614">
        <ele>427.2</ele>
        <time>2023-02-12T09:20:21Z</time>
      </trkpt>
      <trkpt lat="47.10693" lon="8.47614">
        <ele>427.2</ele>
        <time>2023-02-12T09:20:22Z</time>
      </trkpt>
      <trkpt lat="47.10693" lon="8.47614">
        <ele>427.2</ele>
        <time>2023-02-12T09:20:23Z</time>
      </trkpt>
      <trkpt lat="47.10693" lon="8.47614">
        <ele>427.2</ele>
        <time>2023-02-12T09:20:24Z</time>
      </trkpt>
      <trkpt lat="47.10693" lon="8.47614">
        <ele>427.2</ele>
        <time>2023-02-12T09:20:25Z</time>
      </trkpt>
      <trkpt lat="47.10693" lon="8.47614">
        <ele>427.2</ele>
        <time>2023-02-12T09:20:26Z</time>
      </trkpt>
      <trkpt lat="47.10693" lon="8.47614">
        <ele>427.2</ele>
        <time>2023-02-12T09:20:27Z</time>
      </trkpt>
      <trkpt lat="47.10693" lon="8.47614">
        <ele>427.2</ele>
        <time>2023-02-12T09:20:28Z</time>
      </trkpt>
      <trkpt lat="47.10693" lon="8.47614">
        <ele>427.2</ele>
        <time>2023-02-12T09:20:29Z</time>
      </trkpt>
      <trkpt lat="47.10693" lon="8.47613">
        <ele>427.2</ele>
        <time>2023-02-12T09:20:30Z</time>
      </trkpt>
      <trkpt lat="47.10693" lon="8.47613">
        <ele>427.4</ele>
        <time>2023-02-12T09:20:31Z</time>
      </trkpt>
      <trkpt lat="47.10693" lon="8.47613">
        <ele>427.4</ele>
        <time>2023-02-12T09:20:32Z</time>
      </trkpt>
      <trkpt lat="47.10693" lon="8.47613">
        <ele>427.4</ele>
        <time>2023-02-12T09:20:33Z</time>
      </trkpt>
      <trkpt lat="47.10693" lon="8.47613">
        <ele>427.4</ele>
        <time>2023-02-12T09:20:34Z</time>
      </trkpt>
      <trkpt lat="47.10693" lon="8.47613">
        <ele>427.4</ele>
        <time>2023-02-12T09:20:35Z</time>
      </trkpt>
      <trkpt lat="47.10693" lon="8.47613">
        <ele>427.4</ele>
        <time>2023-02-12T09:20:36Z</time>
      </trkpt>
      <trkpt lat="47.10693" lon="8.47613">
        <ele>427.4</ele>
        <time>2023-02-12T09:20:37Z</time>
      </trkpt>
      <trkpt lat="47.10693" lon="8.47612">
        <ele>427.4</ele>
        <time>2023-02-12T09:20:38Z</time>
      </trkpt>
      <trkpt lat="47.1069" lon="8.47612">
        <ele>427.4</ele>
        <time>2023-02-12T09:20:39Z</time>
      </trkpt>
      <trkpt lat="47.10688" lon="8.47612">
        <ele>427.4</ele>
        <time>2023-02-12T09:20:40Z</time>
      </trkpt>
      <trkpt lat="47.10686" lon="8.47612">
        <ele>427.4</ele>
        <time>2023-02-12T09:20:41Z</time>
      </trkpt>
      <trkpt lat="47.10684" lon="8.47612">
        <ele>427.4</ele>
        <time>2023-02-12T09:20:42Z</time>
      </trkpt>
      <trkpt lat="47.10681" lon="8.4761">
        <ele>427.2</ele>
        <time>2023-02-12T09:20:43Z</time>
      </trkpt>
      <trkpt lat="47.10678" lon="8.47608">
        <ele>427.2</ele>
        <time>2023-02-12T09:20:44Z</time>
      </trkpt>
      <trkpt lat="47.10675" lon="8.47606">
        <ele>427.2</ele>
        <time>2023-02-12T09:20:45Z</time>
      </trkpt>
      <trkpt lat="47.10672" lon="8.47604">
        <ele>427</ele>
        <time>2023-02-12T09:20:46Z</time>
      </trkpt>
      <trkpt lat="47.10668" lon="8.47601">
        <ele>427</ele>
        <time>2023-02-12T09:20:47Z</time>
      </trkpt>
      <trkpt lat="47.10664" lon="8.47599">
        <ele>427</ele>
        <time>2023-02-12T09:20:48Z</time>
      </trkpt>
      <trkpt lat="47.1066" lon="8.47596">
        <ele>426.8</ele>
        <time>2023-02-12T09:20:49Z</time>
      </trkpt>
      <trkpt lat="47.10656" lon="8.47594">
        <ele>426.8</ele>
        <time>2023-02-12T09:20:50Z</time>
      </trkpt>
      <trkpt lat="47.10653" lon="8.47592">
        <ele>426.6</ele>
        <time>2023-02-12T09:20:51Z</time>
      </trkpt>
      <trkpt lat="47.1065" lon="8.4759">
        <ele>426.4</ele>
        <time>2023-02-12T09:20:52Z</time>
      </trkpt>
      <trkpt lat="47.10646" lon="8.47588">
        <ele>426.4</ele>
        <time>2023-02-12T09:20:53Z</time>
      </trkpt>
      <trkpt lat="47.10644" lon="8.47585">
        <ele>426.2</ele>
        <time>2023-02-12T09:20:54Z</time>
      </trkpt>
      <trkpt lat="47.1064" lon="8.47582">
        <ele>426.2</ele>
        <time>2023-02-12T09:20:55Z</time>
      </trkpt>
      <trkpt lat="47.10637" lon="8.47579">
        <ele>426.2</ele>
        <time>2023-02-12T09:20:56Z</time>
      </trkpt>
      <trkpt lat="47.10634" lon="8.47576">
        <ele>426</ele>
        <time>2023-02-12T09:20:57Z</time>
      </trkpt>
      <trkpt lat="47.10631" lon="8.47573">
        <ele>426</ele>
        <time>2023-02-12T09:20:58Z</time>
      </trkpt>
      <trkpt lat="47.10628" lon="8.4757">
        <ele>425.8</ele>
        <time>2023-02-12T09:20:59Z</time>
      </trkpt>
      <trkpt lat="47.10625" lon="8.47566">
        <ele>425.8</ele>
        <time>2023-02-12T09:21:00Z</time>
      </trkpt>
      <trkpt lat="47.10622" lon="8.47562">
        <ele>425.6</ele>
        <time>2023-02-12T09:21:01Z</time>
      </trkpt>
      <trkpt lat="47.10619" lon="8.47559">
        <ele>425.6</ele>
        <time>2023-02-12T09:21:02Z</time>
      </trkpt>
      <trkpt lat="47.10616" lon="8.47556">
        <ele>425.6</ele>
        <time>2023-02-12T09:21:03Z</time>
      </trkpt>
      <trkpt lat="47.10612" lon="8.47553">
        <ele>425.4</ele>
        <time>2023-02-12T09:21:04Z</time>
      </trkpt>
      <trkpt lat="47.10609" lon="8.4755">
        <ele>425.4</ele>
        <time>2023-02-12T09:21:05Z</time>
      </trkpt>
      <trkpt lat="47.10605" lon="8.47548">
        <ele>425.4</ele>
        <time>2023-02-12T09:21:06Z</time>
      </trkpt>
      <trkpt lat="47.10601" lon="8.47545">
        <ele>425.4</ele>
        <time>2023-02-12T09:21:07Z</time>
      </trkpt>
      <trkpt lat="47.10597" lon="8.47544">
        <ele>425.2</ele>
        <time>2023-02-12T09:21:08Z</time>
      </trkpt>
      <trkpt lat="47.10593" lon="8.47542">
        <ele>425.2</ele>
        <time>2023-02-12T09:21:09Z</time>
      </trkpt>
      <trkpt lat="47.10589" lon="8.4754">
        <ele>425</ele>
        <time>2023-02-12T09:21:10Z</time>
      </trkpt>
      <trkpt lat="47.10585" lon="8.47539">
        <ele>425</ele>
        <time>2023-02-12T09:21:11Z</time>
      </trkpt>
      <trkpt lat="47.10581" lon="8.47538">
        <ele>425</ele>
        <time>2023-02-12T09:21:12Z</time>
      </trkpt>
      <trkpt lat="47.10576" lon="8.47536">
        <ele>425</ele>
        <time>2023-02-12T09:21:13Z</time>
      </trkpt>
      <trkpt lat="47.10572" lon="8.47535">
        <ele>425</ele>
        <time>2023-02-12T09:21:14Z</time>
      </trkpt>
      <trkpt lat="47.10568" lon="8.47533">
        <ele>425</ele>
        <time>2023-02-12T09:21:15Z</time>
      </trkpt>
      <trkpt lat="47.10564" lon="8.47532">
        <ele>425</ele>
        <time>2023-02-12T09:21:16Z</time>
      </trkpt>
      <trkpt lat="47.1056" lon="8.47531">
        <ele>425.2</ele>
        <time>2023-02-12T09:21:17Z</time>
      </trkpt>
      <trkpt lat="47.10555" lon="8.4753">
        <ele>425.2</ele>
        <time>2023-02-12T09:21:18Z</time>
      </trkpt>
      <trkpt lat="47.1055" lon="8.47529">
        <ele>425.2</ele>
        <time>2023-02-12T09:21:19Z</time>
      </trkpt>
      <trkpt lat="47.10546" lon="8.47529">
        <ele>425.2</ele>
        <time>2023-02-12T09:21:20Z</time>
      </trkpt>
      <trkpt lat="47.10541" lon="8.47529">
        <ele>425.2</ele>
        <time>2023-02-12T09:21:21Z</time>
      </trkpt>
      <trkpt lat="47.10537" lon="8.47529">
        <ele>425.2</ele>
        <time>2023-02-12T09:21:22Z</time>
      </trkpt>
      <trkpt lat="47.10531" lon="8.47528">
        <ele>425.2</ele>
        <time>2023-02-12T09:21:23Z</time>
      </trkpt>
      <trkpt lat="47.10526" lon="8.47529">
        <ele>425</ele>
        <time>2023-02-12T09:21:24Z</time>
      </trkpt>
      <trkpt lat="47.10521" lon="8.47529">
        <ele>424.8</ele>
        <time>2023-02-12T09:21:25Z</time>
      </trkpt>
      <trkpt lat="47.10517" lon="8.4753">
        <ele>424.6</ele>
        <time>2023-02-12T09:21:26Z</time>
      </trkpt>
      <trkpt lat="47.10513" lon="8.47531">
        <ele>424.2</ele>
        <time>2023-02-12T09:21:27Z</time>
      </trkpt>
      <trkpt lat="47.1051" lon="8.47534">
        <ele>423.8</ele>
        <time>2023-02-12T09:21:28Z</time>
      </trkpt>
      <trkpt lat="47.10508" lon="8.47538">
        <ele>423.4</ele>
        <time>2023-02-12T09:21:29Z</time>
      </trkpt>
      <trkpt lat="47.10506" lon="8.47542">
        <ele>423</ele>
        <time>2023-02-12T09:21:30Z</time>
      </trkpt>
      <trkpt lat="47.10505" lon="8.47545">
        <ele>422.6</ele>
        <time>2023-02-12T09:21:31Z</time>
      </trkpt>
      <trkpt lat="47.10503" lon="8.47548">
        <ele>422</ele>
        <time>2023-02-12T09:21:32Z</time>
      </trkpt>
      <trkpt lat="47.10503" lon="8.4755">
        <ele>421.6</ele>
        <time>2023-02-12T09:21:33Z</time>
      </trkpt>
      <trkpt lat="47.10502" lon="8.47552">
        <ele>421.2</ele>
        <time>2023-02-12T09:21:34Z</time>
      </trkpt>
      <trkpt lat="47.10502" lon="8.47553">
        <ele>421</ele>
        <time>2023-02-12T09:21:35Z</time>
      </trkpt>
      <trkpt lat="47.10502" lon="8.47553">
        <ele>421</ele>
        <time>2023-02-12T09:21:36Z</time>
      </trkpt>
      <trkpt lat="47.10502" lon="8.47553">
        <ele>420.8</ele>
        <time>2023-02-12T09:21:37Z</time>
      </trkpt>
      <trkpt lat="47.10502" lon="8.47553">
        <ele>420.8</ele>
        <time>2023-02-12T09:21:38Z</time>
      </trkpt>
      <trkpt lat="47.10502" lon="8.47553">
        <ele>420.6</ele>
        <time>2023-02-12T09:21:39Z</time>
      </trkpt>
      <trkpt lat="47.10502" lon="8.47553">
        <ele>420.6</ele>
        <time>2023-02-12T09:21:40Z</time>
      </trkpt>
      <trkpt lat="47.10502" lon="8.47552">
        <ele>420.6</ele>
        <time>2023-02-12T09:21:41Z</time>
      </trkpt>
      <trkpt lat="47.10502" lon="8.47552">
        <ele>420.6</ele>
        <time>2023-02-12T09:21:42Z</time>
      </trkpt>
      <trkpt lat="47.10502" lon="8.47552">
        <ele>420.6</ele>
        <time>2023-02-12T09:21:43Z</time>
      </trkpt>
      <trkpt lat="47.10502" lon="8.47552">
        <ele>420.6</ele>
        <time>2023-02-12T09:21:44Z</time>
      </trkpt>
      <trkpt lat="47.10502" lon="8.47552">
        <ele>420.6</ele>
        <time>2023-02-12T09:21:45Z</time>
      </trkpt>
      <trkpt lat="47.10502" lon="8.47552">
        <ele>420.6</ele>
        <time>2023-02-12T09:21:46Z</time>
      </trkpt>
      <trkpt lat="47.10502" lon="8.47552">
        <ele>420.6</ele>
        <time>2023-02-12T09:21:47Z</time>
      </trkpt>
      <trkpt lat="47.10502" lon="8.47552">
        <ele>420.6</ele>
        <time>2023-02-12T09:21:48Z</time>
      </trkpt>
      <trkpt lat="47.10501" lon="8.47552">
        <ele>420.6</ele>
        <time>2023-02-12T09:21:49Z</time>
      </trkpt>
      <trkpt lat="47.10501" lon="8.47553">
        <ele>420.6</ele>
        <time>2023-02-12T09:21:50Z</time>
      </trkpt>
      <trkpt lat="47.10501" lon="8.47553">
        <ele>420.6</ele>
        <time>2023-02-12T09:21:51Z</time>
      </trkpt>
      <trkpt lat="47.10501" lon="8.47553">
        <ele>420.6</ele>
        <time>2023-02-12T09:21:52Z</time>
      </trkpt>
      <trkpt lat="47.10501" lon="8.47553">
        <ele>420.6</ele>
        <time>2023-02-12T09:21:53Z</time>
      </trkpt>
      <trkpt lat="47.10501" lon="8.47553">
        <ele>420.6</ele>
        <time>2023-02-12T09:21:54Z</time>
      </trkpt>
      <trkpt lat="47.10501" lon="8.47553">
        <ele>420.6</ele>
        <time>2023-02-12T09:21:55Z</time>
      </trkpt>
      <trkpt lat="47.10501" lon="8.47553">
        <ele>420.6</ele>
        <time>2023-02-12T09:21:56Z</time>
      </trkpt>
      <trkpt lat="47.10501" lon="8.47553">
        <ele>420.6</ele>
        <time>2023-02-12T09:21:57Z</time>
      </trkpt>
      <trkpt lat="47.10501" lon="8.47553">
        <ele>420.8</ele>
        <time>2023-02-12T09:21:58Z</time>
      </trkpt>
      <trkpt lat="47.10501" lon="8.47553">
        <ele>420.8</ele>
        <time>2023-02-12T09:21:59Z</time>
      </trkpt>
      <trkpt lat="47.10501" lon="8.47553">
        <ele>420.8</ele>
        <time>2023-02-12T09:22:00Z</time>
      </trkpt>
      <trkpt lat="47.10501" lon="8.47553">
        <ele>420.8</ele>
        <time>2023-02-12T09:22:01Z</time>
      </trkpt>
      <trkpt lat="47.10501" lon="8.47553">
        <ele>420.8</ele>
        <time>2023-02-12T09:22:02Z</time>
      </trkpt>
      <trkpt lat="47.10501" lon="8.47553">
        <ele>420.8</ele>
        <time>2023-02-12T09:22:03Z</time>
      </trkpt>
      <trkpt lat="47.10501" lon="8.47553">
        <ele>420.8</ele>
        <time>2023-02-12T09:22:04Z</time>
      </trkpt>
      <trkpt lat="47.10501" lon="8.47553">
        <ele>420.8</ele>
        <time>2023-02-12T09:22:05Z</time>
      </trkpt>
      <trkpt lat="47.10501" lon="8.47553">
        <ele>420.8</ele>
        <time>2023-02-12T09:22:06Z</time>
      </trkpt>
      <trkpt lat="47.10501" lon="8.47553">
        <ele>420.8</ele>
        <time>2023-02-12T09:22:07Z</time>
      </trkpt>
      <trkpt lat="47.10501" lon="8.47553">
        <ele>420.8</ele>
        <time>2023-02-12T09:22:08Z</time>
      </trkpt>
      <trkpt lat="47.10501" lon="8.47553">
        <ele>420.8</ele>
        <time>2023-02-12T09:22:09Z</time>
      </trkpt>
      <trkpt lat="47.10501" lon="8.47553">
        <ele>420.6</ele>
        <time>2023-02-12T09:22:10Z</time>
      </trkpt>
      <trkpt lat="47.10501" lon="8.47553">
        <ele>420.6</ele>
        <time>2023-02-12T09:22:11Z</time>
      </trkpt>
      <trkpt lat="47.10501" lon="8.47553">
        <ele>420.6</ele>
        <time>2023-02-12T09:22:12Z</time>
      </trkpt>
      <trkpt lat="47.10501" lon="8.47553">
        <ele>420.6</ele>
        <time>2023-02-12T09:22:13Z</time>
      </trkpt>
      <trkpt lat="47.10501" lon="8.47553">
        <ele>420.6</ele>
        <time>2023-02-12T09:22:14Z</time>
      </trkpt>
      <trkpt lat="47.10501" lon="8.47553">
        <ele>420.8</ele>
        <time>2023-02-12T09:22:15Z</time>
      </trkpt>
      <trkpt lat="47.10501" lon="8.47553">
        <ele>420.8</ele>
        <time>2023-02-12T09:22:16Z</time>
      </trkpt>
      <trkpt lat="47.10501" lon="8.47553">
        <ele>420.8</ele>
        <time>2023-02-12T09:22:17Z</time>
      </trkpt>
      <trkpt lat="47.10501" lon="8.47553">
        <ele>420.8</ele>
        <time>2023-02-12T09:22:18Z</time>
      </trkpt>
      <trkpt lat="47.10501" lon="8.47553">
        <ele>420.8</ele>
        <time>2023-02-12T09:22:19Z</time>
      </trkpt>
      <trkpt lat="47.10501" lon="8.47553">
        <ele>420.8</ele>
        <time>2023-02-12T09:22:20Z</time>
      </trkpt>
      <trkpt lat="47.10501" lon="8.47553">
        <ele>420.8</ele>
        <time>2023-02-12T09:22:21Z</time>
      </trkpt>
      <trkpt lat="47.10501" lon="8.47553">
        <ele>420.8</ele>
        <time>2023-02-12T09:22:22Z</time>
      </trkpt>
      <trkpt lat="47.10501" lon="8.47553">
        <ele>420.8</ele>
        <time>2023-02-12T09:22:23Z</time>
      </trkpt>
      <trkpt lat="47.10501" lon="8.47553">
        <ele>420.8</ele>
        <time>2023-02-12T09:22:24Z</time>
      </trkpt>
      <trkpt lat="47.10501" lon="8.47553">
        <ele>420.8</ele>
        <time>2023-02-12T09:22:25Z</time>
      </trkpt>
      <trkpt lat="47.10501" lon="8.47553">
        <ele>420.8</ele>
        <time>2023-02-12T09:22:26Z</time>
      </trkpt>
      <trkpt lat="47.105" lon="8.47552">
        <ele>420.8</ele>
        <time>2023-02-12T09:22:27Z</time>
      </trkpt>
      <trkpt lat="47.105" lon="8.47552">
        <ele>420.8</ele>
        <time>2023-02-12T09:22:28Z</time>
      </trkpt>
      <trkpt lat="47.10501" lon="8.47552">
        <ele>420.8</ele>
        <time>2023-02-12T09:22:29Z</time>
      </trkpt>
      <trkpt lat="47.10501" lon="8.47552">
        <ele>420.8</ele>
        <time>2023-02-12T09:22:30Z</time>
      </trkpt>
      <trkpt lat="47.10501" lon="8.47552">
        <ele>420.8</ele>
        <time>2023-02-12T09:22:31Z</time>
      </trkpt>
      <trkpt lat="47.10501" lon="8.47552">
        <ele>420.8</ele>
        <time>2023-02-12T09:22:32Z</time>
      </trkpt>
      <trkpt lat="47.10501" lon="8.47552">
        <ele>420.8</ele>
        <time>2023-02-12T09:22:33Z</time>
      </trkpt>
      <trkpt lat="47.10501" lon="8.47552">
        <ele>420.8</ele>
        <time>2023-02-12T09:22:34Z</time>
      </trkpt>
      <trkpt lat="47.10501" lon="8.47552">
        <ele>420.8</ele>
        <time>2023-02-12T09:22:35Z</time>
      </trkpt>
      <trkpt lat="47.105" lon="8.47552">
        <ele>420.8</ele>
        <time>2023-02-12T09:22:36Z</time>
      </trkpt>
      <trkpt lat="47.105" lon="8.47552">
        <ele>420.8</ele>
        <time>2023-02-12T09:22:37Z</time>
      </trkpt>
      <trkpt lat="47.105" lon="8.47552">
        <ele>420.8</ele>
        <time>2023-02-12T09:22:38Z</time>
      </trkpt>
      <trkpt lat="47.105" lon="8.47552">
        <ele>420.8</ele>
        <time>2023-02-12T09:22:39Z</time>
      </trkpt>
      <trkpt lat="47.105" lon="8.47552">
        <ele>421</ele>
        <time>2023-02-12T09:22:40Z</time>
      </trkpt>
      <trkpt lat="47.105" lon="8.47552">
        <ele>421</ele>
        <time>2023-02-12T09:22:41Z</time>
      </trkpt>
      <trkpt lat="47.105" lon="8.47552">
        <ele>421</ele>
        <time>2023-02-12T09:22:42Z</time>
      </trkpt>
      <trkpt lat="47.105" lon="8.47552">
        <ele>421</ele>
        <time>2023-02-12T09:22:43Z</time>
      </trkpt>
      <trkpt lat="47.105" lon="8.47552">
        <ele>421</ele>
        <time>2023-02-12T09:22:44Z</time>
      </trkpt>
      <trkpt lat="47.105" lon="8.47552">
        <ele>421</ele>
        <time>2023-02-12T09:22:45Z</time>
      </trkpt>
      <trkpt lat="47.10501" lon="8.47551">
        <ele>421</ele>
        <time>2023-02-12T09:22:46Z</time>
      </trkpt>
      <trkpt lat="47.10501" lon="8.47551">
        <ele>421</ele>
        <time>2023-02-12T09:22:47Z</time>
      </trkpt>
      <trkpt lat="47.10501" lon="8.47551">
        <ele>421</ele>
        <time>2023-02-12T09:22:48Z</time>
      </trkpt>
      <trkpt lat="47.10501" lon="8.47551">
        <ele>421</ele>
        <time>2023-02-12T09:22:49Z</time>
      </trkpt>
      <trkpt lat="47.10501" lon="8.47551">
        <ele>421</ele>
        <time>2023-02-12T09:22:50Z</time>
      </trkpt>
      <trkpt lat="47.10501" lon="8.47551">
        <ele>421</ele>
        <time>2023-02-12T09:22:51Z</time>
      </trkpt>
      <trkpt lat="47.10501" lon="8.47551">
        <ele>421</ele>
        <time>2023-02-12T09:22:52Z</time>
      </trkpt>
      <trkpt lat="47.10501" lon="8.47551">
        <ele>421</ele>
        <time>2023-02-12T09:22:53Z</time>
      </trkpt>
      <trkpt lat="47.10501" lon="8.47551">
        <ele>421</ele>
        <time>2023-02-12T09:22:54Z</time>
      </trkpt>
      <trkpt lat="47.10501" lon="8.47551">
        <ele>421</ele>
        <time>2023-02-12T09:22:55Z</time>
      </trkpt>
      <trkpt lat="47.10501" lon="8.47551">
        <ele>421</ele>
        <time>2023-02-12T09:22:56Z</time>
      </trkpt>
      <trkpt lat="47.10502" lon="8.47552">
        <ele>421</ele>
        <time>2023-02-12T09:22:57Z</time>
      </trkpt>
      <trkpt lat="47.10501" lon="8.47552">
        <ele>421</ele>
        <time>2023-02-12T09:22:58Z</time>
      </trkpt>
      <trkpt lat="47.105" lon="8.47552">
        <ele>421</ele>
        <time>2023-02-12T09:22:59Z</time>
      </trkpt>
      <trkpt lat="47.105" lon="8.47552">
        <ele>421</ele>
        <time>2023-02-12T09:23:00Z</time>
      </trkpt>
      <trkpt lat="47.105" lon="8.47552">
        <ele>421</ele>
        <time>2023-02-12T09:23:01Z</time>
      </trkpt>
      <trkpt lat="47.105" lon="8.47552">
        <ele>421</ele>
        <time>2023-02-12T09:23:02Z</time>
      </trkpt>
      <trkpt lat="47.105" lon="8.47552">
        <ele>421</ele>
        <time>2023-02-12T09:23:03Z</time>
      </trkpt>
      <trkpt lat="47.105" lon="8.47552">
        <ele>421</ele>
        <time>2023-02-12T09:23:04Z</time>
      </trkpt>
      <trkpt lat="47.105" lon="8.47552">
        <ele>421</ele>
        <time>2023-02-12T09:23:05Z</time>
      </trkpt>
      <trkpt lat="47.105" lon="8.47552">
        <ele>421</ele>
        <time>2023-02-12T09:23:06Z</time>
      </trkpt>
      <trkpt lat="47.105" lon="8.47552">
        <ele>421</ele>
        <time>2023-02-12T09:23:07Z</time>
      </trkpt>
      <trkpt lat="47.105" lon="8.47552">
        <ele>421</ele>
        <time>2023-02-12T09:23:08Z</time>
      </trkpt>
      <trkpt lat="47.105" lon="8.47552">
        <ele>421</ele>
        <time>2023-02-12T09:23:09Z</time>
      </trkpt>
      <trkpt lat="47.105" lon="8.47552">
        <ele>421</ele>
        <time>2023-02-12T09:23:10Z</time>
      </trkpt>
      <trkpt lat="47.105" lon="8.47552">
        <ele>421</ele>
        <time>2023-02-12T09:23:11Z</time>
      </trkpt>
      <trkpt lat="47.105" lon="8.47552">
        <ele>421</ele>
        <time>2023-02-12T09:23:12Z</time>
      </trkpt>
      <trkpt lat="47.105" lon="8.47552">
        <ele>421</ele>
        <time>2023-02-12T09:23:13Z</time>
      </trkpt>
      <trkpt lat="47.105" lon="8.47552">
        <ele>421</ele>
        <time>2023-02-12T09:23:14Z</time>
      </trkpt>
      <trkpt lat="47.105" lon="8.47552">
        <ele>421</ele>
        <time>2023-02-12T09:23:15Z</time>
      </trkpt>
      <trkpt lat="47.105" lon="8.47552">
        <ele>421</ele>
        <time>2023-02-12T09:23:16Z</time>
      </trkpt>
      <trkpt lat="47.105" lon="8.47552">
        <ele>421</ele>
        <time>2023-02-12T09:23:17Z</time>
      </trkpt>
      <trkpt lat="47.105" lon="8.47552">
        <ele>421</ele>
        <time>2023-02-12T09:23:18Z</time>
      </trkpt>
      <trkpt lat="47.105" lon="8.47552">
        <ele>421</ele>
        <time>2023-02-12T09:23:19Z</time>
      </trkpt>
      <trkpt lat="47.105" lon="8.47552">
        <ele>421</ele>
        <time>2023-02-12T09:23:20Z</time>
      </trkpt>
      <trkpt lat="47.105" lon="8.47552">
        <ele>421</ele>
        <time>2023-02-12T09:23:21Z</time>
      </trkpt>
      <trkpt lat="47.105" lon="8.47552">
        <ele>421</ele>
        <time>2023-02-12T09:23:22Z</time>
      </trkpt>
      <trkpt lat="47.105" lon="8.47552">
        <ele>421</ele>
        <time>2023-02-12T09:23:23Z</time>
      </trkpt>
      <trkpt lat="47.105" lon="8.47552">
        <ele>421</ele>
        <time>2023-02-12T09:23:24Z</time>
      </trkpt>
      <trkpt lat="47.105" lon="8.47552">
        <ele>421</ele>
        <time>2023-02-12T09:23:25Z</time>
      </trkpt>
      <trkpt lat="47.105" lon="8.47552">
        <ele>421</ele>
        <time>2023-02-12T09:23:26Z</time>
      </trkpt>
      <trkpt lat="47.105" lon="8.47552">
        <ele>421</ele>
        <time>2023-02-12T09:23:27Z</time>
      </trkpt>
      <trkpt lat="47.105" lon="8.47552">
        <ele>421</ele>
        <time>2023-02-12T09:23:28Z</time>
      </trkpt>
      <trkpt lat="47.105" lon="8.47552">
        <ele>421</ele>
        <time>2023-02-12T09:23:29Z</time>
      </trkpt>
      <trkpt lat="47.105" lon="8.47552">
        <ele>421</ele>
        <time>2023-02-12T09:23:30Z</time>
      </trkpt>
      <trkpt lat="47.105" lon="8.47552">
        <ele>421</ele>
        <time>2023-02-12T09:23:31Z</time>
      </trkpt>
      <trkpt lat="47.105" lon="8.47552">
        <ele>421</ele>
        <time>2023-02-12T09:23:32Z</time>
      </trkpt>
      <trkpt lat="47.105" lon="8.47552">
        <ele>421</ele>
        <time>2023-02-12T09:23:33Z</time>
      </trkpt>
      <trkpt lat="47.105" lon="8.47552">
        <ele>421</ele>
        <time>2023-02-12T09:23:34Z</time>
      </trkpt>
      <trkpt lat="47.105" lon="8.47552">
        <ele>421</ele>
        <time>2023-02-12T09:23:35Z</time>
      </trkpt>
      <trkpt lat="47.105" lon="8.47552">
        <ele>421</ele>
        <time>2023-02-12T09:23:36Z</time>
      </trkpt>
      <trkpt lat="47.105" lon="8.47552">
        <ele>421</ele>
        <time>2023-02-12T09:23:37Z</time>
      </trkpt>
      <trkpt lat="47.105" lon="8.47552">
        <ele>421</ele>
        <time>2023-02-12T09:23:38Z</time>
      </trkpt>
      <trkpt lat="47.105" lon="8.47552">
        <ele>421</ele>
        <time>2023-02-12T09:23:39Z</time>
      </trkpt>
      <trkpt lat="47.105" lon="8.47552">
        <ele>421</ele>
        <time>2023-02-12T09:23:40Z</time>
      </trkpt>
      <trkpt lat="47.105" lon="8.47552">
        <ele>421</ele>
        <time>2023-02-12T09:23:41Z</time>
      </trkpt>
      <trkpt lat="47.105" lon="8.47552">
        <ele>421</ele>
        <time>2023-02-12T09:23:42Z</time>
      </trkpt>
      <trkpt lat="47.105" lon="8.47552">
        <ele>421</ele>
        <time>2023-02-12T09:23:43Z</time>
      </trkpt>
      <trkpt lat="47.105" lon="8.47552">
        <ele>421</ele>
        <time>2023-02-12T09:23:44Z</time>
      </trkpt>
      <trkpt lat="47.105" lon="8.47552">
        <ele>421</ele>
        <time>2023-02-12T09:23:45Z</time>
      </trkpt>
      <trkpt lat="47.105" lon="8.47552">
        <ele>421</ele>
        <time>2023-02-12T09:23:46Z</time>
      </trkpt>
      <trkpt lat="47.105" lon="8.47552">
        <ele>421</ele>
        <time>2023-02-12T09:23:47Z</time>
      </trkpt>
      <trkpt lat="47.105" lon="8.47552">
        <ele>421</ele>
        <time>2023-02-12T09:23:48Z</time>
      </trkpt>
      <trkpt lat="47.105" lon="8.47552">
        <ele>421</ele>
        <time>2023-02-12T09:23:49Z</time>
      </trkpt>
      <trkpt lat="47.105" lon="8.47552">
        <ele>421</ele>
        <time>2023-02-12T09:23:50Z</time>
      </trkpt>
      <trkpt lat="47.105" lon="8.47552">
        <ele>421</ele>
        <time>2023-02-12T09:23:51Z</time>
      </trkpt>
      <trkpt lat="47.105" lon="8.47552">
        <ele>421</ele>
        <time>2023-02-12T09:23:52Z</time>
      </trkpt>
      <trkpt lat="47.10499" lon="8.47551">
        <ele>421</ele>
        <time>2023-02-12T09:23:53Z</time>
      </trkpt>
      <trkpt lat="47.105" lon="8.47551">
        <ele>421</ele>
        <time>2023-02-12T09:23:54Z</time>
      </trkpt>
      <trkpt lat="47.105" lon="8.47551">
        <ele>421</ele>
        <time>2023-02-12T09:23:55Z</time>
      </trkpt>
      <trkpt lat="47.105" lon="8.47551">
        <ele>421</ele>
        <time>2023-02-12T09:23:56Z</time>
      </trkpt>
      <trkpt lat="47.105" lon="8.47551">
        <ele>421</ele>
        <time>2023-02-12T09:23:57Z</time>
      </trkpt>
      <trkpt lat="47.105" lon="8.47551">
        <ele>421</ele>
        <time>2023-02-12T09:23:58Z</time>
      </trkpt>
      <trkpt lat="47.105" lon="8.47551">
        <ele>421</ele>
        <time>2023-02-12T09:23:59Z</time>
      </trkpt>
      <trkpt lat="47.105" lon="8.47551">
        <ele>421</ele>
        <time>2023-02-12T09:24:00Z</time>
      </trkpt>
      <trkpt lat="47.105" lon="8.47551">
        <ele>421</ele>
        <time>2023-02-12T09:24:01Z</time>
      </trkpt>
      <trkpt lat="47.105" lon="8.47551">
        <ele>421</ele>
        <time>2023-02-12T09:24:02Z</time>
      </trkpt>
      <trkpt lat="47.105" lon="8.47551">
        <ele>421</ele>
        <time>2023-02-12T09:24:03Z</time>
      </trkpt>
      <trkpt lat="47.105" lon="8.47551">
        <ele>421</ele>
        <time>2023-02-12T09:24:04Z</time>
      </trkpt>
      <trkpt lat="47.105" lon="8.47551">
        <ele>421</ele>
        <time>2023-02-12T09:24:05Z</time>
      </trkpt>
      <trkpt lat="47.105" lon="8.47551">
        <ele>421</ele>
        <time>2023-02-12T09:24:06Z</time>
      </trkpt>
      <trkpt lat="47.105" lon="8.47551">
        <ele>421</ele>
        <time>2023-02-12T09:24:07Z</time>
      </trkpt>
      <trkpt lat="47.105" lon="8.47551">
        <ele>421</ele>
        <time>2023-02-12T09:24:08Z</time>
      </trkpt>
      <trkpt lat="47.105" lon="8.47551">
        <ele>421</ele>
        <time>2023-02-12T09:24:09Z</time>
      </trkpt>
      <trkpt lat="47.105" lon="8.47551">
        <ele>421</ele>
        <time>2023-02-12T09:24:10Z</time>
      </trkpt>
      <trkpt lat="47.105" lon="8.47551">
        <ele>421</ele>
        <time>2023-02-12T09:24:11Z</time>
      </trkpt>
      <trkpt lat="47.105" lon="8.47551">
        <ele>421</ele>
        <time>2023-02-12T09:24:12Z</time>
      </trkpt>
      <trkpt lat="47.105" lon="8.47551">
        <ele>421</ele>
        <time>2023-02-12T09:24:13Z</time>
      </trkpt>
      <trkpt lat="47.105" lon="8.47551">
        <ele>421</ele>
        <time>2023-02-12T09:24:14Z</time>
      </trkpt>
      <trkpt lat="47.105" lon="8.47551">
        <ele>421</ele>
        <time>2023-02-12T09:24:15Z</time>
      </trkpt>
      <trkpt lat="47.105" lon="8.47551">
        <ele>421</ele>
        <time>2023-02-12T09:24:16Z</time>
      </trkpt>
      <trkpt lat="47.105" lon="8.47551">
        <ele>421</ele>
        <time>2023-02-12T09:24:17Z</time>
      </trkpt>
      <trkpt lat="47.105" lon="8.47551">
        <ele>421</ele>
        <time>2023-02-12T09:24:18Z</time>
      </trkpt>
      <trkpt lat="47.105" lon="8.47551">
        <ele>421</ele>
        <time>2023-02-12T09:24:19Z</time>
      </trkpt>
      <trkpt lat="47.105" lon="8.47551">
        <ele>421</ele>
        <time>2023-02-12T09:24:20Z</time>
      </trkpt>
      <trkpt lat="47.105" lon="8.47551">
        <ele>421</ele>
        <time>2023-02-12T09:24:21Z</time>
      </trkpt>
      <trkpt lat="47.105" lon="8.47551">
        <ele>421</ele>
        <time>2023-02-12T09:24:22Z</time>
      </trkpt>
      <trkpt lat="47.105" lon="8.47551">
        <ele>421</ele>
        <time>2023-02-12T09:24:23Z</time>
      </trkpt>
      <trkpt lat="47.105" lon="8.47551">
        <ele>421</ele>
        <time>2023-02-12T09:24:24Z</time>
      </trkpt>
      <trkpt lat="47.105" lon="8.47551">
        <ele>421</ele>
        <time>2023-02-12T09:24:25Z</time>
      </trkpt>
      <trkpt lat="47.105" lon="8.47551">
        <ele>421</ele>
        <time>2023-02-12T09:24:26Z</time>
      </trkpt>
      <trkpt lat="47.105" lon="8.47551">
        <ele>421</ele>
        <time>2023-02-12T09:24:27Z</time>
      </trkpt>
      <trkpt lat="47.105" lon="8.47551">
        <ele>421</ele>
        <time>2023-02-12T09:24:28Z</time>
      </trkpt>
      <trkpt lat="47.105" lon="8.47551">
        <ele>421</ele>
        <time>2023-02-12T09:24:29Z</time>
      </trkpt>
      <trkpt lat="47.105" lon="8.47551">
        <ele>421</ele>
        <time>2023-02-12T09:24:30Z</time>
      </trkpt>
      <trkpt lat="47.105" lon="8.47551">
        <ele>421</ele>
        <time>2023-02-12T09:24:31Z</time>
      </trkpt>
      <trkpt lat="47.105" lon="8.47551">
        <ele>421</ele>
        <time>2023-02-12T09:24:32Z</time>
      </trkpt>
      <trkpt lat="47.105" lon="8.47551">
        <ele>421</ele>
        <time>2023-02-12T09:24:33Z</time>
      </trkpt>
      <trkpt lat="47.105" lon="8.47551">
        <ele>421</ele>
        <time>2023-02-12T09:24:34Z</time>
      </trkpt>
      <trkpt lat="47.105" lon="8.47551">
        <ele>421</ele>
        <time>2023-02-12T09:24:35Z</time>
      </trkpt>
      <trkpt lat="47.105" lon="8.47551">
        <ele>421</ele>
        <time>2023-02-12T09:24:36Z</time>
      </trkpt>
      <trkpt lat="47.105" lon="8.47551">
        <ele>421</ele>
        <time>2023-02-12T09:24:37Z</time>
      </trkpt>
      <trkpt lat="47.105" lon="8.47551">
        <ele>421</ele>
        <time>2023-02-12T09:24:38Z</time>
      </trkpt>
      <trkpt lat="47.105" lon="8.47551">
        <ele>421</ele>
        <time>2023-02-12T09:24:39Z</time>
      </trkpt>
      <trkpt lat="47.105" lon="8.47551">
        <ele>421</ele>
        <time>2023-02-12T09:24:40Z</time>
      </trkpt>
      <trkpt lat="47.105" lon="8.47551">
        <ele>421</ele>
        <time>2023-02-12T09:24:41Z</time>
      </trkpt>
      <trkpt lat="47.105" lon="8.47551">
        <ele>421</ele>
        <time>2023-02-12T09:24:42Z</time>
      </trkpt>
      <trkpt lat="47.105" lon="8.47551">
        <ele>421</ele>
        <time>2023-02-12T09:24:43Z</time>
      </trkpt>
      <trkpt lat="47.105" lon="8.47551">
        <ele>421</ele>
        <time>2023-02-12T09:24:44Z</time>
      </trkpt>
      <trkpt lat="47.105" lon="8.47551">
        <ele>421</ele>
        <time>2023-02-12T09:24:45Z</time>
      </trkpt>
      <trkpt lat="47.105" lon="8.47551">
        <ele>421</ele>
        <time>2023-02-12T09:24:46Z</time>
      </trkpt>
      <trkpt lat="47.105" lon="8.47551">
        <ele>421</ele>
        <time>2023-02-12T09:24:47Z</time>
      </trkpt>
      <trkpt lat="47.105" lon="8.47551">
        <ele>421</ele>
        <time>2023-02-12T09:24:48Z</time>
      </trkpt>
      <trkpt lat="47.105" lon="8.47551">
        <ele>421</ele>
        <time>2023-02-12T09:24:49Z</time>
      </trkpt>
      <trkpt lat="47.105" lon="8.47551">
        <ele>421</ele>
        <time>2023-02-12T09:24:50Z</time>
      </trkpt>
      <trkpt lat="47.105" lon="8.47551">
        <ele>421</ele>
        <time>2023-02-12T09:24:51Z</time>
      </trkpt>
      <trkpt lat="47.105" lon="8.47551">
        <ele>421</ele>
        <time>2023-02-12T09:24:52Z</time>
      </trkpt>
      <trkpt lat="47.105" lon="8.47551">
        <ele>421</ele>
        <time>2023-02-12T09:24:53Z</time>
      </trkpt>
      <trkpt lat="47.105" lon="8.47551">
        <ele>421</ele>
        <time>2023-02-12T09:24:54Z</time>
      </trkpt>
      <trkpt lat="47.105" lon="8.47551">
        <ele>421</ele>
        <time>2023-02-12T09:24:55Z</time>
      </trkpt>
      <trkpt lat="47.105" lon="8.47551">
        <ele>421</ele>
        <time>2023-02-12T09:24:56Z</time>
      </trkpt>
      <trkpt lat="47.105" lon="8.47551">
        <ele>421</ele>
        <time>2023-02-12T09:24:57Z</time>
      </trkpt>
      <trkpt lat="47.105" lon="8.47551">
        <ele>421</ele>
        <time>2023-02-12T09:24:58Z</time>
      </trkpt>
      <trkpt lat="47.105" lon="8.47551">
        <ele>421</ele>
        <time>2023-02-12T09:24:59Z</time>
      </trkpt>
      <trkpt lat="47.105" lon="8.47551">
        <ele>421</ele>
        <time>2023-02-12T09:25:00Z</time>
      </trkpt>
      <trkpt lat="47.105" lon="8.47551">
        <ele>421</ele>
        <time>2023-02-12T09:25:01Z</time>
      </trkpt>
      <trkpt lat="47.105" lon="8.47551">
        <ele>421</ele>
        <time>2023-02-12T09:25:02Z</time>
      </trkpt>
      <trkpt lat="47.105" lon="8.47551">
        <ele>421</ele>
        <time>2023-02-12T09:25:03Z</time>
      </trkpt>
      <trkpt lat="47.105" lon="8.47551">
        <ele>421</ele>
        <time>2023-02-12T09:25:04Z</time>
      </trkpt>
      <trkpt lat="47.105" lon="8.47551">
        <ele>421</ele>
        <time>2023-02-12T09:25:05Z</time>
      </trkpt>
      <trkpt lat="47.105" lon="8.47551">
        <ele>421</ele>
        <time>2023-02-12T09:25:06Z</time>
      </trkpt>
      <trkpt lat="47.105" lon="8.47551">
        <ele>421</ele>
        <time>2023-02-12T09:25:07Z</time>
      </trkpt>
      <trkpt lat="47.105" lon="8.47551">
        <ele>421</ele>
        <time>2023-02-12T09:25:08Z</time>
      </trkpt>
      <trkpt lat="47.105" lon="8.47551">
        <ele>421</ele>
        <time>2023-02-12T09:25:09Z</time>
      </trkpt>
      <trkpt lat="47.105" lon="8.47551">
        <ele>421</ele>
        <time>2023-02-12T09:25:10Z</time>
      </trkpt>
      <trkpt lat="47.105" lon="8.47551">
        <ele>421</ele>
        <time>2023-02-12T09:25:11Z</time>
      </trkpt>
      <trkpt lat="47.105" lon="8.47551">
        <ele>421</ele>
        <time>2023-02-12T09:25:12Z</time>
      </trkpt>
      <trkpt lat="47.105" lon="8.47551">
        <ele>421</ele>
        <time>2023-02-12T09:25:13Z</time>
      </trkpt>
      <trkpt lat="47.105" lon="8.47551">
        <ele>421</ele>
        <time>2023-02-12T09:25:14Z</time>
      </trkpt>
      <trkpt lat="47.105" lon="8.47551">
        <ele>421</ele>
        <time>2023-02-12T09:25:15Z</time>
      </trkpt>
      <trkpt lat="47.105" lon="8.47551">
        <ele>421</ele>
        <time>2023-02-12T09:25:16Z</time>
      </trkpt>
      <trkpt lat="47.105" lon="8.47551">
        <ele>421</ele>
        <time>2023-02-12T09:25:17Z</time>
      </trkpt>
      <trkpt lat="47.105" lon="8.47551">
        <ele>421</ele>
        <time>2023-02-12T09:25:18Z</time>
      </trkpt>
      <trkpt lat="47.105" lon="8.47551">
        <ele>421</ele>
        <time>2023-02-12T09:25:19Z</time>
      </trkpt>
      <trkpt lat="47.105" lon="8.47551">
        <ele>421</ele>
        <time>2023-02-12T09:25:20Z</time>
      </trkpt>
      <trkpt lat="47.105" lon="8.47551">
        <ele>421</ele>
        <time>2023-02-12T09:25:21Z</time>
      </trkpt>
      <trkpt lat="47.105" lon="8.47551">
        <ele>421</ele>
        <time>2023-02-12T09:25:22Z</time>
      </trkpt>
      <trkpt lat="47.105" lon="8.47551">
        <ele>421</ele>
        <time>2023-02-12T09:25:23Z</time>
      </trkpt>
      <trkpt lat="47.105" lon="8.47551">
        <ele>421</ele>
        <time>2023-02-12T09:25:24Z</time>
      </trkpt>
      <trkpt lat="47.105" lon="8.47551">
        <ele>421</ele>
        <time>2023-02-12T09:25:25Z</time>
      </trkpt>
      <trkpt lat="47.105" lon="8.47551">
        <ele>421</ele>
        <time>2023-02-12T09:25:26Z</time>
      </trkpt>
      <trkpt lat="47.105" lon="8.47551">
        <ele>421</ele>
        <time>2023-02-12T09:25:27Z</time>
      </trkpt>
      <trkpt lat="47.105" lon="8.47551">
        <ele>421</ele>
        <time>2023-02-12T09:25:28Z</time>
      </trkpt>
      <trkpt lat="47.105" lon="8.47551">
        <ele>421</ele>
        <time>2023-02-12T09:25:29Z</time>
      </trkpt>
      <trkpt lat="47.105" lon="8.47551">
        <ele>421</ele>
        <time>2023-02-12T09:25:30Z</time>
      </trkpt>
      <trkpt lat="47.105" lon="8.47551">
        <ele>421</ele>
        <time>2023-02-12T09:25:31Z</time>
      </trkpt>
      <trkpt lat="47.105" lon="8.47551">
        <ele>421</ele>
        <time>2023-02-12T09:25:32Z</time>
      </trkpt>
      <trkpt lat="47.105" lon="8.47551">
        <ele>421</ele>
        <time>2023-02-12T09:25:33Z</time>
      </trkpt>
      <trkpt lat="47.105" lon="8.47551">
        <ele>421</ele>
        <time>2023-02-12T09:25:34Z</time>
      </trkpt>
      <trkpt lat="47.105" lon="8.47551">
        <ele>421</ele>
        <time>2023-02-12T09:25:35Z</time>
      </trkpt>
      <trkpt lat="47.105" lon="8.47551">
        <ele>421</ele>
        <time>2023-02-12T09:25:36Z</time>
      </trkpt>
      <trkpt lat="47.105" lon="8.47551">
        <ele>421</ele>
        <time>2023-02-12T09:25:37Z</time>
      </trkpt>
      <trkpt lat="47.105" lon="8.47551">
        <ele>421</ele>
        <time>2023-02-12T09:25:38Z</time>
      </trkpt>
      <trkpt lat="47.105" lon="8.47551">
        <ele>421</ele>
        <time>2023-02-12T09:25:39Z</time>
      </trkpt>
      <trkpt lat="47.105" lon="8.47551">
        <ele>421</ele>
        <time>2023-02-12T09:25:40Z</time>
      </trkpt>
      <trkpt lat="47.105" lon="8.47551">
        <ele>421</ele>
        <time>2023-02-12T09:25:41Z</time>
      </trkpt>
      <trkpt lat="47.105" lon="8.47551">
        <ele>421</ele>
        <time>2023-02-12T09:25:42Z</time>
      </trkpt>
      <trkpt lat="47.105" lon="8.47551">
        <ele>421</ele>
        <time>2023-02-12T09:25:43Z</time>
      </trkpt>
      <trkpt lat="47.105" lon="8.47551">
        <ele>421</ele>
        <time>2023-02-12T09:25:44Z</time>
      </trkpt>
      <trkpt lat="47.105" lon="8.47551">
        <ele>421</ele>
        <time>2023-02-12T09:25:45Z</time>
      </trkpt>
      <trkpt lat="47.105" lon="8.47551">
        <ele>421</ele>
        <time>2023-02-12T09:25:46Z</time>
      </trkpt>
      <trkpt lat="47.105" lon="8.47551">
        <ele>421</ele>
        <time>2023-02-12T09:25:47Z</time>
      </trkpt>
      <trkpt lat="47.105" lon="8.47551">
        <ele>421</ele>
        <time>2023-02-12T09:25:48Z</time>
      </trkpt>
      <trkpt lat="47.105" lon="8.47551">
        <ele>421</ele>
        <time>2023-02-12T09:25:49Z</time>
      </trkpt>
      <trkpt lat="47.105" lon="8.47551">
        <ele>421</ele>
        <time>2023-02-12T09:25:50Z</time>
      </trkpt>
      <trkpt lat="47.105" lon="8.47551">
        <ele>421</ele>
        <time>2023-02-12T09:25:51Z</time>
      </trkpt>
      <trkpt lat="47.105" lon="8.47551">
        <ele>421</ele>
        <time>2023-02-12T09:25:52Z</time>
      </trkpt>
      <trkpt lat="47.105" lon="8.47551">
        <ele>421</ele>
        <time>2023-02-12T09:25:53Z</time>
      </trkpt>
      <trkpt lat="47.105" lon="8.47551">
        <ele>421</ele>
        <time>2023-02-12T09:25:54Z</time>
      </trkpt>
      <trkpt lat="47.105" lon="8.47551">
        <ele>421</ele>
        <time>2023-02-12T09:25:55Z</time>
      </trkpt>
      <trkpt lat="47.105" lon="8.47551">
        <ele>421</ele>
        <time>2023-02-12T09:25:56Z</time>
      </trkpt>
      <trkpt lat="47.105" lon="8.47551">
        <ele>421</ele>
        <time>2023-02-12T09:25:57Z</time>
      </trkpt>
      <trkpt lat="47.105" lon="8.47551">
        <ele>421</ele>
        <time>2023-02-12T09:25:58Z</time>
      </trkpt>
      <trkpt lat="47.105" lon="8.47551">
        <ele>421</ele>
        <time>2023-02-12T09:25:59Z</time>
      </trkpt>
      <trkpt lat="47.105" lon="8.47551">
        <ele>421</ele>
        <time>2023-02-12T09:26:00Z</time>
      </trkpt>
      <trkpt lat="47.105" lon="8.47551">
        <ele>421</ele>
        <time>2023-02-12T09:26:01Z</time>
      </trkpt>
      <trkpt lat="47.105" lon="8.47551">
        <ele>421</ele>
        <time>2023-02-12T09:26:02Z</time>
      </trkpt>
      <trkpt lat="47.105" lon="8.47551">
        <ele>421</ele>
        <time>2023-02-12T09:26:03Z</time>
      </trkpt>
      <trkpt lat="47.105" lon="8.47551">
        <ele>421</ele>
        <time>2023-02-12T09:26:04Z</time>
      </trkpt>
      <trkpt lat="47.105" lon="8.47551">
        <ele>421</ele>
        <time>2023-02-12T09:26:05Z</time>
      </trkpt>
      <trkpt lat="47.105" lon="8.47551">
        <ele>421</ele>
        <time>2023-02-12T09:26:06Z</time>
      </trkpt>
      <trkpt lat="47.105" lon="8.47551">
        <ele>421</ele>
        <time>2023-02-12T09:26:07Z</time>
      </trkpt>
      <trkpt lat="47.105" lon="8.47551">
        <ele>421</ele>
        <time>2023-02-12T09:26:08Z</time>
      </trkpt>
      <trkpt lat="47.105" lon="8.47551">
        <ele>421</ele>
        <time>2023-02-12T09:26:09Z</time>
      </trkpt>
      <trkpt lat="47.105" lon="8.47551">
        <ele>421</ele>
        <time>2023-02-12T09:26:10Z</time>
      </trkpt>
      <trkpt lat="47.105" lon="8.47551">
        <ele>421</ele>
        <time>2023-02-12T09:26:11Z</time>
      </trkpt>
      <trkpt lat="47.105" lon="8.47551">
        <ele>421</ele>
        <time>2023-02-12T09:26:12Z</time>
      </trkpt>
      <trkpt lat="47.105" lon="8.47551">
        <ele>421</ele>
        <time>2023-02-12T09:26:13Z</time>
      </trkpt>
      <trkpt lat="47.105" lon="8.47551">
        <ele>421</ele>
        <time>2023-02-12T09:26:14Z</time>
      </trkpt>
      <trkpt lat="47.105" lon="8.47551">
        <ele>421</ele>
        <time>2023-02-12T09:26:15Z</time>
      </trkpt>
      <trkpt lat="47.105" lon="8.47551">
        <ele>421</ele>
        <time>2023-02-12T09:26:16Z</time>
      </trkpt>
      <trkpt lat="47.105" lon="8.47551">
        <ele>421</ele>
        <time>2023-02-12T09:26:17Z</time>
      </trkpt>
      <trkpt lat="47.105" lon="8.47551">
        <ele>421</ele>
        <time>2023-02-12T09:26:18Z</time>
      </trkpt>
      <trkpt lat="47.105" lon="8.47551">
        <ele>421</ele>
        <time>2023-02-12T09:26:19Z</time>
      </trkpt>
      <trkpt lat="47.105" lon="8.47551">
        <ele>421</ele>
        <time>2023-02-12T09:26:20Z</time>
      </trkpt>
      <trkpt lat="47.105" lon="8.47551">
        <ele>421</ele>
        <time>2023-02-12T09:26:21Z</time>
      </trkpt>
      <trkpt lat="47.105" lon="8.47551">
        <ele>421</ele>
        <time>2023-02-12T09:26:22Z</time>
      </trkpt>
      <trkpt lat="47.105" lon="8.47551">
        <ele>421</ele>
        <time>2023-02-12T09:26:23Z</time>
      </trkpt>
      <trkpt lat="47.105" lon="8.47551">
        <ele>421</ele>
        <time>2023-02-12T09:26:24Z</time>
      </trkpt>
      <trkpt lat="47.105" lon="8.47551">
        <ele>421</ele>
        <time>2023-02-12T09:26:25Z</time>
      </trkpt>
      <trkpt lat="47.105" lon="8.47551">
        <ele>421</ele>
        <time>2023-02-12T09:26:26Z</time>
      </trkpt>
      <trkpt lat="47.105" lon="8.47551">
        <ele>421</ele>
        <time>2023-02-12T09:26:27Z</time>
      </trkpt>
      <trkpt lat="47.105" lon="8.47551">
        <ele>421</ele>
        <time>2023-02-12T09:26:28Z</time>
      </trkpt>
      <trkpt lat="47.105" lon="8.47551">
        <ele>421</ele>
        <time>2023-02-12T09:26:29Z</time>
      </trkpt>
      <trkpt lat="47.105" lon="8.47551">
        <ele>421</ele>
        <time>2023-02-12T09:26:30Z</time>
      </trkpt>
      <trkpt lat="47.105" lon="8.47551">
        <ele>421</ele>
        <time>2023-02-12T09:26:31Z</time>
      </trkpt>
      <trkpt lat="47.105" lon="8.47551">
        <ele>421</ele>
        <time>2023-02-12T09:26:32Z</time>
      </trkpt>
      <trkpt lat="47.105" lon="8.47551">
        <ele>421</ele>
        <time>2023-02-12T09:26:33Z</time>
      </trkpt>
      <trkpt lat="47.105" lon="8.47551">
        <ele>421</ele>
        <time>2023-02-12T09:26:34Z</time>
      </trkpt>
      <trkpt lat="47.105" lon="8.47551">
        <ele>421</ele>
        <time>2023-02-12T09:26:35Z</time>
      </trkpt>
      <trkpt lat="47.105" lon="8.47551">
        <ele>421</ele>
        <time>2023-02-12T09:26:36Z</time>
      </trkpt>
      <trkpt lat="47.105" lon="8.47551">
        <ele>421</ele>
        <time>2023-02-12T09:26:37Z</time>
      </trkpt>
      <trkpt lat="47.105" lon="8.47551">
        <ele>421</ele>
        <time>2023-02-12T09:26:38Z</time>
      </trkpt>
      <trkpt lat="47.105" lon="8.47551">
        <ele>421</ele>
        <time>2023-02-12T09:26:39Z</time>
      </trkpt>
      <trkpt lat="47.105" lon="8.47551">
        <ele>421</ele>
        <time>2023-02-12T09:26:40Z</time>
      </trkpt>
      <trkpt lat="47.105" lon="8.47551">
        <ele>421</ele>
        <time>2023-02-12T09:26:41Z</time>
      </trkpt>
      <trkpt lat="47.105" lon="8.47551">
        <ele>421</ele>
        <time>2023-02-12T09:26:42Z</time>
      </trkpt>
      <trkpt lat="47.105" lon="8.47551">
        <ele>421</ele>
        <time>2023-02-12T09:26:43Z</time>
      </trkpt>
      <trkpt lat="47.105" lon="8.47551">
        <ele>421</ele>
        <time>2023-02-12T09:26:44Z</time>
      </trkpt>
      <trkpt lat="47.105" lon="8.47551">
        <ele>421</ele>
        <time>2023-02-12T09:26:45Z</time>
      </trkpt>
      <trkpt lat="47.105" lon="8.47551">
        <ele>421</ele>
        <time>2023-02-12T09:26:46Z</time>
      </trkpt>
      <trkpt lat="47.105" lon="8.47551">
        <ele>421</ele>
        <time>2023-02-12T09:26:47Z</time>
      </trkpt>
      <trkpt lat="47.105" lon="8.47551">
        <ele>421</ele>
        <time>2023-02-12T09:26:48Z</time>
      </trkpt>
      <trkpt lat="47.105" lon="8.47551">
        <ele>421</ele>
        <time>2023-02-12T09:26:49Z</time>
      </trkpt>
      <trkpt lat="47.105" lon="8.47551">
        <ele>421</ele>
        <time>2023-02-12T09:26:50Z</time>
      </trkpt>
      <trkpt lat="47.105" lon="8.47551">
        <ele>421</ele>
        <time>2023-02-12T09:26:51Z</time>
      </trkpt>
      <trkpt lat="47.105" lon="8.47551">
        <ele>421</ele>
        <time>2023-02-12T09:26:52Z</time>
      </trkpt>
      <trkpt lat="47.105" lon="8.47551">
        <ele>421</ele>
        <time>2023-02-12T09:26:53Z</time>
      </trkpt>
      <trkpt lat="47.105" lon="8.47551">
        <ele>421</ele>
        <time>2023-02-12T09:26:54Z</time>
      </trkpt>
      <trkpt lat="47.105" lon="8.47551">
        <ele>421</ele>
        <time>2023-02-12T09:26:55Z</time>
      </trkpt>
      <trkpt lat="47.105" lon="8.47551">
        <ele>421</ele>
        <time>2023-02-12T09:26:56Z</time>
      </trkpt>
      <trkpt lat="47.10499" lon="8.47549">
        <ele>421</ele>
        <time>2023-02-12T09:26:57Z</time>
      </trkpt>
      <trkpt lat="47.10499" lon="8.47549">
        <ele>421</ele>
        <time>2023-02-12T09:26:58Z</time>
      </trkpt>
      <trkpt lat="47.10499" lon="8.47549">
        <ele>421</ele>
        <time>2023-02-12T09:26:59Z</time>
      </trkpt>
      <trkpt lat="47.10499" lon="8.47549">
        <ele>421</ele>
        <time>2023-02-12T09:27:00Z</time>
      </trkpt>
      <trkpt lat="47.10499" lon="8.47549">
        <ele>421</ele>
        <time>2023-02-12T09:27:01Z</time>
      </trkpt>
      <trkpt lat="47.10499" lon="8.47549">
        <ele>421</ele>
        <time>2023-02-12T09:27:02Z</time>
      </trkpt>
      <trkpt lat="47.10498" lon="8.47549">
        <ele>421</ele>
        <time>2023-02-12T09:27:03Z</time>
      </trkpt>
      <trkpt lat="47.10497" lon="8.47548">
        <ele>421</ele>
        <time>2023-02-12T09:27:04Z</time>
      </trkpt>
      <trkpt lat="47.10496" lon="8.47547">
        <ele>421</ele>
        <time>2023-02-12T09:27:05Z</time>
      </trkpt>
      <trkpt lat="47.10495" lon="8.47547">
        <ele>421</ele>
        <time>2023-02-12T09:27:06Z</time>
      </trkpt>
      <trkpt lat="47.10493" lon="8.47546">
        <ele>421</ele>
        <time>2023-02-12T09:27:07Z</time>
      </trkpt>
      <trkpt lat="47.10493" lon="8.47545">
        <ele>421</ele>
        <time>2023-02-12T09:27:08Z</time>
      </trkpt>
      <trkpt lat="47.10491" lon="8.47544">
        <ele>421</ele>
        <time>2023-02-12T09:27:09Z</time>
      </trkpt>
      <trkpt lat="47.1049" lon="8.47543">
        <ele>421</ele>
        <time>2023-02-12T09:27:10Z</time>
      </trkpt>
      <trkpt lat="47.10488" lon="8.47542">
        <ele>421</ele>
        <time>2023-02-12T09:27:11Z</time>
      </trkpt>
      <trkpt lat="47.10486" lon="8.47542">
        <ele>421</ele>
        <time>2023-02-12T09:27:12Z</time>
      </trkpt>
      <trkpt lat="47.10484" lon="8.47543">
        <ele>421</ele>
        <time>2023-02-12T09:27:13Z</time>
      </trkpt>
      <trkpt lat="47.10482" lon="8.47543">
        <ele>421</ele>
        <time>2023-02-12T09:27:14Z</time>
      </trkpt>
      <trkpt lat="47.1048" lon="8.47543">
        <ele>421</ele>
        <time>2023-02-12T09:27:15Z</time>
      </trkpt>
      <trkpt lat="47.10477" lon="8.47543">
        <ele>421</ele>
        <time>2023-02-12T09:27:16Z</time>
      </trkpt>
      <trkpt lat="47.10474" lon="8.47543">
        <ele>421</ele>
        <time>2023-02-12T09:27:17Z</time>
      </trkpt>
      <trkpt lat="47.10471" lon="8.47543">
        <ele>421</ele>
        <time>2023-02-12T09:27:18Z</time>
      </trkpt>
      <trkpt lat="47.10468" lon="8.47542">
        <ele>421.2</ele>
        <time>2023-02-12T09:27:19Z</time>
      </trkpt>
      <trkpt lat="47.10465" lon="8.47542">
        <ele>421.2</ele>
        <time>2023-02-12T09:27:20Z</time>
      </trkpt>
      <trkpt lat="47.10462" lon="8.47542">
        <ele>421.2</ele>
        <time>2023-02-12T09:27:21Z</time>
      </trkpt>
      <trkpt lat="47.10458" lon="8.47541">
        <ele>421.2</ele>
        <time>2023-02-12T09:27:22Z</time>
      </trkpt>
      <trkpt lat="47.10455" lon="8.4754">
        <ele>421.4</ele>
        <time>2023-02-12T09:27:23Z</time>
      </trkpt>
      <trkpt lat="47.10452" lon="8.4754">
        <ele>421.4</ele>
        <time>2023-02-12T09:27:24Z</time>
      </trkpt>
      <trkpt lat="47.10449" lon="8.47539">
        <ele>421.6</ele>
        <time>2023-02-12T09:27:25Z</time>
      </trkpt>
      <trkpt lat="47.10446" lon="8.47538">
        <ele>421.6</ele>
        <time>2023-02-12T09:27:26Z</time>
      </trkpt>
      <trkpt lat="47.10442" lon="8.47537">
        <ele>421.6</ele>
        <time>2023-02-12T09:27:27Z</time>
      </trkpt>
      <trkpt lat="47.10439" lon="8.47536">
        <ele>421.6</ele>
        <time>2023-02-12T09:27:28Z</time>
      </trkpt>
      <trkpt lat="47.10436" lon="8.47536">
        <ele>421.8</ele>
        <time>2023-02-12T09:27:29Z</time>
      </trkpt>
      <trkpt lat="47.10433" lon="8.47535">
        <ele>422</ele>
        <time>2023-02-12T09:27:30Z</time>
      </trkpt>
      <trkpt lat="47.10429" lon="8.47535">
        <ele>422.2</ele>
        <time>2023-02-12T09:27:31Z</time>
      </trkpt>
      <trkpt lat="47.10426" lon="8.47535">
        <ele>422.6</ele>
        <time>2023-02-12T09:27:32Z</time>
      </trkpt>
      <trkpt lat="47.10423" lon="8.47534">
        <ele>422.8</ele>
        <time>2023-02-12T09:27:33Z</time>
      </trkpt>
      <trkpt lat="47.1042" lon="8.47533">
        <ele>423.2</ele>
        <time>2023-02-12T09:27:34Z</time>
      </trkpt>
      <trkpt lat="47.10416" lon="8.47532">
        <ele>423.4</ele>
        <time>2023-02-12T09:27:35Z</time>
      </trkpt>
      <trkpt lat="47.10414" lon="8.47531">
        <ele>423.8</ele>
        <time>2023-02-12T09:27:36Z</time>
      </trkpt>
      <trkpt lat="47.1041" lon="8.4753">
        <ele>423.8</ele>
        <time>2023-02-12T09:27:37Z</time>
      </trkpt>
      <trkpt lat="47.10407" lon="8.47529">
        <ele>424</ele>
        <time>2023-02-12T09:27:38Z</time>
      </trkpt>
      <trkpt lat="47.10404" lon="8.47529">
        <ele>424.4</ele>
        <time>2023-02-12T09:27:39Z</time>
      </trkpt>
      <trkpt lat="47.10401" lon="8.47529">
        <ele>424.8</ele>
        <time>2023-02-12T09:27:40Z</time>
      </trkpt>
      <trkpt lat="47.10397" lon="8.47528">
        <ele>425</ele>
        <time>2023-02-12T09:27:41Z</time>
      </trkpt>
      <trkpt lat="47.10394" lon="8.47527">
        <ele>425.4</ele>
        <time>2023-02-12T09:27:42Z</time>
      </trkpt>
      <trkpt lat="47.1039" lon="8.47525">
        <ele>425.4</ele>
        <time>2023-02-12T09:27:43Z</time>
      </trkpt>
      <trkpt lat="47.10386" lon="8.47523">
        <ele>425.6</ele>
        <time>2023-02-12T09:27:44Z</time>
      </trkpt>
      <trkpt lat="47.10381" lon="8.47519">
        <ele>425.6</ele>
        <time>2023-02-12T09:27:45Z</time>
      </trkpt>
      <trkpt lat="47.10378" lon="8.47515">
        <ele>425.6</ele>
        <time>2023-02-12T09:27:46Z</time>
      </trkpt>
      <trkpt lat="47.10373" lon="8.47511">
        <ele>425.6</ele>
        <time>2023-02-12T09:27:47Z</time>
      </trkpt>
      <trkpt lat="47.1037" lon="8.47507">
        <ele>425.4</ele>
        <time>2023-02-12T09:27:48Z</time>
      </trkpt>
      <trkpt lat="47.10366" lon="8.47502">
        <ele>425.2</ele>
        <time>2023-02-12T09:27:49Z</time>
      </trkpt>
      <trkpt lat="47.10363" lon="8.47497">
        <ele>425.2</ele>
        <time>2023-02-12T09:27:50Z</time>
      </trkpt>
      <trkpt lat="47.10359" lon="8.47491">
        <ele>424.8</ele>
        <time>2023-02-12T09:27:51Z</time>
      </trkpt>
      <trkpt lat="47.10356" lon="8.47484">
        <ele>424.6</ele>
        <time>2023-02-12T09:27:52Z</time>
      </trkpt>
      <trkpt lat="47.10353" lon="8.47477">
        <ele>424.2</ele>
        <time>2023-02-12T09:27:53Z</time>
      </trkpt>
      <trkpt lat="47.1035" lon="8.4747">
        <ele>424</ele>
        <time>2023-02-12T09:27:54Z</time>
      </trkpt>
      <trkpt lat="47.10348" lon="8.47463">
        <ele>423.6</ele>
        <time>2023-02-12T09:27:55Z</time>
      </trkpt>
      <trkpt lat="47.10343" lon="8.47456">
        <ele>423.4</ele>
        <time>2023-02-12T09:27:56Z</time>
      </trkpt>
      <trkpt lat="47.10339" lon="8.47449">
        <ele>423</ele>
        <time>2023-02-12T09:27:57Z</time>
      </trkpt>
      <trkpt lat="47.10335" lon="8.47443">
        <ele>422.8</ele>
        <time>2023-02-12T09:27:58Z</time>
      </trkpt>
      <trkpt lat="47.1033" lon="8.47437">
        <ele>422.4</ele>
        <time>2023-02-12T09:27:59Z</time>
      </trkpt>
      <trkpt lat="47.10325" lon="8.47431">
        <ele>422</ele>
        <time>2023-02-12T09:28:00Z</time>
      </trkpt>
      <trkpt lat="47.1032" lon="8.47425">
        <ele>421.8</ele>
        <time>2023-02-12T09:28:01Z</time>
      </trkpt>
      <trkpt lat="47.10316" lon="8.47419">
        <ele>421.8</ele>
        <time>2023-02-12T09:28:02Z</time>
      </trkpt>
      <trkpt lat="47.10311" lon="8.47414">
        <ele>421.8</ele>
        <time>2023-02-12T09:28:03Z</time>
      </trkpt>
      <trkpt lat="47.10308" lon="8.4741">
        <ele>421.6</ele>
        <time>2023-02-12T09:28:04Z</time>
      </trkpt>
      <trkpt lat="47.10304" lon="8.47406">
        <ele>421.6</ele>
        <time>2023-02-12T09:28:05Z</time>
      </trkpt>
      <trkpt lat="47.10301" lon="8.47403">
        <ele>421.6</ele>
        <time>2023-02-12T09:28:06Z</time>
      </trkpt>
      <trkpt lat="47.10298" lon="8.47399">
        <ele>421.8</ele>
        <time>2023-02-12T09:28:07Z</time>
      </trkpt>
      <trkpt lat="47.10296" lon="8.47395">
        <ele>421.8</ele>
        <time>2023-02-12T09:28:08Z</time>
      </trkpt>
      <trkpt lat="47.10292" lon="8.47391">
        <ele>421.8</ele>
        <time>2023-02-12T09:28:09Z</time>
      </trkpt>
      <trkpt lat="47.10289" lon="8.47388">
        <ele>421.8</ele>
        <time>2023-02-12T09:28:10Z</time>
      </trkpt>
      <trkpt lat="47.10286" lon="8.47384">
        <ele>422</ele>
        <time>2023-02-12T09:28:11Z</time>
      </trkpt>
      <trkpt lat="47.10282" lon="8.4738">
        <ele>422</ele>
        <time>2023-02-12T09:28:12Z</time>
      </trkpt>
      <trkpt lat="47.10279" lon="8.47376">
        <ele>422</ele>
        <time>2023-02-12T09:28:13Z</time>
      </trkpt>
      <trkpt lat="47.10276" lon="8.47373">
        <ele>422</ele>
        <time>2023-02-12T09:28:14Z</time>
      </trkpt>
      <trkpt lat="47.10273" lon="8.47369">
        <ele>422</ele>
        <time>2023-02-12T09:28:15Z</time>
      </trkpt>
      <trkpt lat="47.10269" lon="8.47365">
        <ele>422</ele>
        <time>2023-02-12T09:28:16Z</time>
      </trkpt>
      <trkpt lat="47.10266" lon="8.47361">
        <ele>422</ele>
        <time>2023-02-12T09:28:17Z</time>
      </trkpt>
      <trkpt lat="47.10262" lon="8.47356">
        <ele>422</ele>
        <time>2023-02-12T09:28:18Z</time>
      </trkpt>
      <trkpt lat="47.10259" lon="8.47353">
        <ele>422</ele>
        <time>2023-02-12T09:28:19Z</time>
      </trkpt>
      <trkpt lat="47.10256" lon="8.47348">
        <ele>422</ele>
        <time>2023-02-12T09:28:20Z</time>
      </trkpt>
      <trkpt lat="47.10252" lon="8.47344">
        <ele>422.2</ele>
        <time>2023-02-12T09:28:21Z</time>
      </trkpt>
      <trkpt lat="47.10249" lon="8.4734">
        <ele>422.2</ele>
        <time>2023-02-12T09:28:22Z</time>
      </trkpt>
      <trkpt lat="47.10245" lon="8.47336">
        <ele>422.2</ele>
        <time>2023-02-12T09:28:23Z</time>
      </trkpt>
      <trkpt lat="47.10241" lon="8.47332">
        <ele>422.2</ele>
        <time>2023-02-12T09:28:24Z</time>
      </trkpt>
      <trkpt lat="47.10237" lon="8.47328">
        <ele>422.2</ele>
        <time>2023-02-12T09:28:25Z</time>
      </trkpt>
      <trkpt lat="47.10234" lon="8.47323">
        <ele>422.2</ele>
        <time>2023-02-12T09:28:26Z</time>
      </trkpt>
      <trkpt lat="47.1023" lon="8.47318">
        <ele>422.2</ele>
        <time>2023-02-12T09:28:27Z</time>
      </trkpt>
      <trkpt lat="47.10227" lon="8.47314">
        <ele>422.4</ele>
        <time>2023-02-12T09:28:28Z</time>
      </trkpt>
      <trkpt lat="47.10223" lon="8.4731">
        <ele>422.4</ele>
        <time>2023-02-12T09:28:29Z</time>
      </trkpt>
      <trkpt lat="47.1022" lon="8.47306">
        <ele>422.6</ele>
        <time>2023-02-12T09:28:30Z</time>
      </trkpt>
      <trkpt lat="47.10217" lon="8.47304">
        <ele>422.6</ele>
        <time>2023-02-12T09:28:31Z</time>
      </trkpt>
      <trkpt lat="47.10213" lon="8.47301">
        <ele>422.6</ele>
        <time>2023-02-12T09:28:32Z</time>
      </trkpt>
      <trkpt lat="47.10209" lon="8.47298">
        <ele>422.8</ele>
        <time>2023-02-12T09:28:33Z</time>
      </trkpt>
      <trkpt lat="47.10205" lon="8.47295">
        <ele>422.8</ele>
        <time>2023-02-12T09:28:34Z</time>
      </trkpt>
      <trkpt lat="47.10201" lon="8.47292">
        <ele>422.8</ele>
        <time>2023-02-12T09:28:35Z</time>
      </trkpt>
      <trkpt lat="47.10196" lon="8.47289">
        <ele>423</ele>
        <time>2023-02-12T09:28:36Z</time>
      </trkpt>
      <trkpt lat="47.10191" lon="8.47286">
        <ele>423</ele>
        <time>2023-02-12T09:28:37Z</time>
      </trkpt>
      <trkpt lat="47.10187" lon="8.47282">
        <ele>423</ele>
        <time>2023-02-12T09:28:38Z</time>
      </trkpt>
      <trkpt lat="47.10183" lon="8.47278">
        <ele>423</ele>
        <time>2023-02-12T09:28:39Z</time>
      </trkpt>
      <trkpt lat="47.10178" lon="8.47274">
        <ele>423</ele>
        <time>2023-02-12T09:28:40Z</time>
      </trkpt>
      <trkpt lat="47.10174" lon="8.47269">
        <ele>422.8</ele>
        <time>2023-02-12T09:28:41Z</time>
      </trkpt>
      <trkpt lat="47.1017" lon="8.47265">
        <ele>422.8</ele>
        <time>2023-02-12T09:28:42Z</time>
      </trkpt>
      <trkpt lat="47.10166" lon="8.4726">
        <ele>422.6</ele>
        <time>2023-02-12T09:28:43Z</time>
      </trkpt>
      <trkpt lat="47.10163" lon="8.47255">
        <ele>422.6</ele>
        <time>2023-02-12T09:28:44Z</time>
      </trkpt>
      <trkpt lat="47.10159" lon="8.47249">
        <ele>422.4</ele>
        <time>2023-02-12T09:28:45Z</time>
      </trkpt>
      <trkpt lat="47.10156" lon="8.47244">
        <ele>422.2</ele>
        <time>2023-02-12T09:28:46Z</time>
      </trkpt>
      <trkpt lat="47.10153" lon="8.47238">
        <ele>422</ele>
        <time>2023-02-12T09:28:47Z</time>
      </trkpt>
      <trkpt lat="47.1015" lon="8.47233">
        <ele>421.8</ele>
        <time>2023-02-12T09:28:48Z</time>
      </trkpt>
      <trkpt lat="47.10146" lon="8.47228">
        <ele>421.8</ele>
        <time>2023-02-12T09:28:49Z</time>
      </trkpt>
      <trkpt lat="47.10143" lon="8.47222">
        <ele>421.6</ele>
        <time>2023-02-12T09:28:50Z</time>
      </trkpt>
      <trkpt lat="47.1014" lon="8.47217">
        <ele>421.6</ele>
        <time>2023-02-12T09:28:51Z</time>
      </trkpt>
      <trkpt lat="47.10138" lon="8.47212">
        <ele>421.4</ele>
        <time>2023-02-12T09:28:52Z</time>
      </trkpt>
      <trkpt lat="47.10135" lon="8.47208">
        <ele>421.4</ele>
        <time>2023-02-12T09:28:53Z</time>
      </trkpt>
      <trkpt lat="47.10131" lon="8.47203">
        <ele>421.2</ele>
        <time>2023-02-12T09:28:54Z</time>
      </trkpt>
      <trkpt lat="47.10127" lon="8.47198">
        <ele>421.2</ele>
        <time>2023-02-12T09:28:55Z</time>
      </trkpt>
      <trkpt lat="47.10124" lon="8.47193">
        <ele>421.2</ele>
        <time>2023-02-12T09:28:56Z</time>
      </trkpt>
      <trkpt lat="47.10121" lon="8.47188">
        <ele>421</ele>
        <time>2023-02-12T09:28:57Z</time>
      </trkpt>
      <trkpt lat="47.10118" lon="8.47184">
        <ele>421</ele>
        <time>2023-02-12T09:28:58Z</time>
      </trkpt>
      <trkpt lat="47.10115" lon="8.4718">
        <ele>421</ele>
        <time>2023-02-12T09:28:59Z</time>
      </trkpt>
      <trkpt lat="47.10112" lon="8.47175">
        <ele>421</ele>
        <time>2023-02-12T09:29:00Z</time>
      </trkpt>
      <trkpt lat="47.1011" lon="8.4717">
        <ele>421</ele>
        <time>2023-02-12T09:29:01Z</time>
      </trkpt>
      <trkpt lat="47.10107" lon="8.47165">
        <ele>421</ele>
        <time>2023-02-12T09:29:02Z</time>
      </trkpt>
      <trkpt lat="47.10104" lon="8.4716">
        <ele>421</ele>
        <time>2023-02-12T09:29:03Z</time>
      </trkpt>
      <trkpt lat="47.10102" lon="8.47156">
        <ele>421</ele>
        <time>2023-02-12T09:29:04Z</time>
      </trkpt>
      <trkpt lat="47.10099" lon="8.47152">
        <ele>421</ele>
        <time>2023-02-12T09:29:05Z</time>
      </trkpt>
      <trkpt lat="47.10096" lon="8.47147">
        <ele>421</ele>
        <time>2023-02-12T09:29:06Z</time>
      </trkpt>
      <trkpt lat="47.10094" lon="8.47143">
        <ele>421</ele>
        <time>2023-02-12T09:29:07Z</time>
      </trkpt>
      <trkpt lat="47.10091" lon="8.47138">
        <ele>421</ele>
        <time>2023-02-12T09:29:08Z</time>
      </trkpt>
      <trkpt lat="47.10088" lon="8.47134">
        <ele>421</ele>
        <time>2023-02-12T09:29:09Z</time>
      </trkpt>
      <trkpt lat="47.10086" lon="8.47129">
        <ele>421</ele>
        <time>2023-02-12T09:29:10Z</time>
      </trkpt>
      <trkpt lat="47.10084" lon="8.47124">
        <ele>421</ele>
        <time>2023-02-12T09:29:11Z</time>
      </trkpt>
      <trkpt lat="47.10081" lon="8.47119">
        <ele>421.2</ele>
        <time>2023-02-12T09:29:12Z</time>
      </trkpt>
      <trkpt lat="47.10079" lon="8.47114">
        <ele>421.2</ele>
        <time>2023-02-12T09:29:13Z</time>
      </trkpt>
      <trkpt lat="47.10077" lon="8.47108">
        <ele>421.2</ele>
        <time>2023-02-12T09:29:14Z</time>
      </trkpt>
      <trkpt lat="47.10075" lon="8.47103">
        <ele>421.2</ele>
        <time>2023-02-12T09:29:15Z</time>
      </trkpt>
      <trkpt lat="47.10073" lon="8.47097">
        <ele>421.2</ele>
        <time>2023-02-12T09:29:16Z</time>
      </trkpt>
      <trkpt lat="47.10072" lon="8.47092">
        <ele>421.2</ele>
        <time>2023-02-12T09:29:17Z</time>
      </trkpt>
      <trkpt lat="47.10071" lon="8.47087">
        <ele>421.4</ele>
        <time>2023-02-12T09:29:18Z</time>
      </trkpt>
      <trkpt lat="47.10069" lon="8.47082">
        <ele>421.4</ele>
        <time>2023-02-12T09:29:19Z</time>
      </trkpt>
      <trkpt lat="47.10067" lon="8.47076">
        <ele>421.4</ele>
        <time>2023-02-12T09:29:20Z</time>
      </trkpt>
      <trkpt lat="47.10065" lon="8.4707">
        <ele>421.4</ele>
        <time>2023-02-12T09:29:21Z</time>
      </trkpt>
      <trkpt lat="47.10063" lon="8.47064">
        <ele>421.4</ele>
        <time>2023-02-12T09:29:22Z</time>
      </trkpt>
      <trkpt lat="47.10061" lon="8.47058">
        <ele>421.4</ele>
        <time>2023-02-12T09:29:23Z</time>
      </trkpt>
      <trkpt lat="47.10059" lon="8.47052">
        <ele>421.6</ele>
        <time>2023-02-12T09:29:24Z</time>
      </trkpt>
      <trkpt lat="47.10057" lon="8.47046">
        <ele>421.6</ele>
        <time>2023-02-12T09:29:25Z</time>
      </trkpt>
      <trkpt lat="47.10055" lon="8.47041">
        <ele>421.6</ele>
        <time>2023-02-12T09:29:26Z</time>
      </trkpt>
      <trkpt lat="47.10053" lon="8.47036">
        <ele>421.6</ele>
        <time>2023-02-12T09:29:27Z</time>
      </trkpt>
      <trkpt lat="47.1005" lon="8.47031">
        <ele>421.6</ele>
        <time>2023-02-12T09:29:28Z</time>
      </trkpt>
      <trkpt lat="47.10048" lon="8.47026">
        <ele>421.6</ele>
        <time>2023-02-12T09:29:29Z</time>
      </trkpt>
      <trkpt lat="47.10046" lon="8.47021">
        <ele>421.6</ele>
        <time>2023-02-12T09:29:30Z</time>
      </trkpt>
      <trkpt lat="47.10043" lon="8.47016">
        <ele>421.6</ele>
        <time>2023-02-12T09:29:31Z</time>
      </trkpt>
      <trkpt lat="47.10041" lon="8.4701">
        <ele>421.6</ele>
        <time>2023-02-12T09:29:32Z</time>
      </trkpt>
      <trkpt lat="47.10038" lon="8.47005">
        <ele>421.6</ele>
        <time>2023-02-12T09:29:33Z</time>
      </trkpt>
      <trkpt lat="47.10036" lon="8.47">
        <ele>421.6</ele>
        <time>2023-02-12T09:29:34Z</time>
      </trkpt>
      <trkpt lat="47.10034" lon="8.46995">
        <ele>421.8</ele>
        <time>2023-02-12T09:29:35Z</time>
      </trkpt>
      <trkpt lat="47.10032" lon="8.4699">
        <ele>421.8</ele>
        <time>2023-02-12T09:29:36Z</time>
      </trkpt>
      <trkpt lat="47.10029" lon="8.46985">
        <ele>421.8</ele>
        <time>2023-02-12T09:29:37Z</time>
      </trkpt>
      <trkpt lat="47.10027" lon="8.4698">
        <ele>421.8</ele>
        <time>2023-02-12T09:29:38Z</time>
      </trkpt>
      <trkpt lat="47.10025" lon="8.46975">
        <ele>421.8</ele>
        <time>2023-02-12T09:29:39Z</time>
      </trkpt>
      <trkpt lat="47.10022" lon="8.4697">
        <ele>421.8</ele>
        <time>2023-02-12T09:29:40Z</time>
      </trkpt>
      <trkpt lat="47.1002" lon="8.46964">
        <ele>421.8</ele>
        <time>2023-02-12T09:29:41Z</time>
      </trkpt>
      <trkpt lat="47.10017" lon="8.46959">
        <ele>421.8</ele>
        <time>2023-02-12T09:29:42Z</time>
      </trkpt>
      <trkpt lat="47.10015" lon="8.46955">
        <ele>421.8</ele>
        <time>2023-02-12T09:29:43Z</time>
      </trkpt>
      <trkpt lat="47.10012" lon="8.4695">
        <ele>422</ele>
        <time>2023-02-12T09:29:44Z</time>
      </trkpt>
      <trkpt lat="47.10009" lon="8.46946">
        <ele>422</ele>
        <time>2023-02-12T09:29:45Z</time>
      </trkpt>
      <trkpt lat="47.10007" lon="8.46942">
        <ele>422</ele>
        <time>2023-02-12T09:29:46Z</time>
      </trkpt>
      <trkpt lat="47.10004" lon="8.46937">
        <ele>422</ele>
        <time>2023-02-12T09:29:47Z</time>
      </trkpt>
      <trkpt lat="47.10001" lon="8.46932">
        <ele>422</ele>
        <time>2023-02-12T09:29:48Z</time>
      </trkpt>
      <trkpt lat="47.09999" lon="8.46928">
        <ele>422</ele>
        <time>2023-02-12T09:29:49Z</time>
      </trkpt>
      <trkpt lat="47.09996" lon="8.46923">
        <ele>422.2</ele>
        <time>2023-02-12T09:29:50Z</time>
      </trkpt>
      <trkpt lat="47.09993" lon="8.46919">
        <ele>422.2</ele>
        <time>2023-02-12T09:29:51Z</time>
      </trkpt>
      <trkpt lat="47.09991" lon="8.46915">
        <ele>422.2</ele>
        <time>2023-02-12T09:29:52Z</time>
      </trkpt>
      <trkpt lat="47.09988" lon="8.4691">
        <ele>422.4</ele>
        <time>2023-02-12T09:29:53Z</time>
      </trkpt>
      <trkpt lat="47.09985" lon="8.46905">
        <ele>422.4</ele>
        <time>2023-02-12T09:29:54Z</time>
      </trkpt>
      <trkpt lat="47.09982" lon="8.46899">
        <ele>422.4</ele>
        <time>2023-02-12T09:29:55Z</time>
      </trkpt>
      <trkpt lat="47.09979" lon="8.46895">
        <ele>422.6</ele>
        <time>2023-02-12T09:29:56Z</time>
      </trkpt>
      <trkpt lat="47.09977" lon="8.4689">
        <ele>422.6</ele>
        <time>2023-02-12T09:29:57Z</time>
      </trkpt>
      <trkpt lat="47.09974" lon="8.46885">
        <ele>422.6</ele>
        <time>2023-02-12T09:29:58Z</time>
      </trkpt>
      <trkpt lat="47.09972" lon="8.4688">
        <ele>422.6</ele>
        <time>2023-02-12T09:29:59Z</time>
      </trkpt>
      <trkpt lat="47.09969" lon="8.46875">
        <ele>422.6</ele>
        <time>2023-02-12T09:30:00Z</time>
      </trkpt>
      <trkpt lat="47.09967" lon="8.4687">
        <ele>422.6</ele>
        <time>2023-02-12T09:30:01Z</time>
      </trkpt>
      <trkpt lat="47.09964" lon="8.46865">
        <ele>422.6</ele>
        <time>2023-02-12T09:30:02Z</time>
      </trkpt>
      <trkpt lat="47.09962" lon="8.4686">
        <ele>422.6</ele>
        <time>2023-02-12T09:30:03Z</time>
      </trkpt>
      <trkpt lat="47.09959" lon="8.46854">
        <ele>422.6</ele>
        <time>2023-02-12T09:30:04Z</time>
      </trkpt>
      <trkpt lat="47.09957" lon="8.46849">
        <ele>422.6</ele>
        <time>2023-02-12T09:30:05Z</time>
      </trkpt>
      <trkpt lat="47.09955" lon="8.46843">
        <ele>422.6</ele>
        <time>2023-02-12T09:30:06Z</time>
      </trkpt>
      <trkpt lat="47.09953" lon="8.46837">
        <ele>422.6</ele>
        <time>2023-02-12T09:30:07Z</time>
      </trkpt>
      <trkpt lat="47.0995" lon="8.46831">
        <ele>422.8</ele>
        <time>2023-02-12T09:30:08Z</time>
      </trkpt>
      <trkpt lat="47.09948" lon="8.46826">
        <ele>422.8</ele>
        <time>2023-02-12T09:30:09Z</time>
      </trkpt>
      <trkpt lat="47.09945" lon="8.46821">
        <ele>422.8</ele>
        <time>2023-02-12T09:30:10Z</time>
      </trkpt>
      <trkpt lat="47.09943" lon="8.46815">
        <ele>422.8</ele>
        <time>2023-02-12T09:30:11Z</time>
      </trkpt>
      <trkpt lat="47.0994" lon="8.46809">
        <ele>423</ele>
        <time>2023-02-12T09:30:12Z</time>
      </trkpt>
      <trkpt lat="47.09938" lon="8.46803">
        <ele>423</ele>
        <time>2023-02-12T09:30:13Z</time>
      </trkpt>
      <trkpt lat="47.09935" lon="8.46798">
        <ele>423</ele>
        <time>2023-02-12T09:30:14Z</time>
      </trkpt>
      <trkpt lat="47.09932" lon="8.46791">
        <ele>423.2</ele>
        <time>2023-02-12T09:30:15Z</time>
      </trkpt>
      <trkpt lat="47.0993" lon="8.46784">
        <ele>423.2</ele>
        <time>2023-02-12T09:30:16Z</time>
      </trkpt>
      <trkpt lat="47.09928" lon="8.46778">
        <ele>423.2</ele>
        <time>2023-02-12T09:30:17Z</time>
      </trkpt>
      <trkpt lat="47.09926" lon="8.46772">
        <ele>423.2</ele>
        <time>2023-02-12T09:30:18Z</time>
      </trkpt>
      <trkpt lat="47.09923" lon="8.46765">
        <ele>423</ele>
        <time>2023-02-12T09:30:19Z</time>
      </trkpt>
      <trkpt lat="47.0992" lon="8.46758">
        <ele>423</ele>
        <time>2023-02-12T09:30:20Z</time>
      </trkpt>
      <trkpt lat="47.09917" lon="8.46752">
        <ele>423</ele>
        <time>2023-02-12T09:30:21Z</time>
      </trkpt>
      <trkpt lat="47.09914" lon="8.46746">
        <ele>422.8</ele>
        <time>2023-02-12T09:30:22Z</time>
      </trkpt>
      <trkpt lat="47.09911" lon="8.46739">
        <ele>422.8</ele>
        <time>2023-02-12T09:30:23Z</time>
      </trkpt>
      <trkpt lat="47.09908" lon="8.46733">
        <ele>422.6</ele>
        <time>2023-02-12T09:30:24Z</time>
      </trkpt>
      <trkpt lat="47.09905" lon="8.46726">
        <ele>422.6</ele>
        <time>2023-02-12T09:30:25Z</time>
      </trkpt>
      <trkpt lat="47.09902" lon="8.4672">
        <ele>422.6</ele>
        <time>2023-02-12T09:30:26Z</time>
      </trkpt>
      <trkpt lat="47.09899" lon="8.46714">
        <ele>422.6</ele>
        <time>2023-02-12T09:30:27Z</time>
      </trkpt>
      <trkpt lat="47.09896" lon="8.46708">
        <ele>422.6</ele>
        <time>2023-02-12T09:30:28Z</time>
      </trkpt>
      <trkpt lat="47.09893" lon="8.46703">
        <ele>422.6</ele>
        <time>2023-02-12T09:30:29Z</time>
      </trkpt>
      <trkpt lat="47.09891" lon="8.46697">
        <ele>422.6</ele>
        <time>2023-02-12T09:30:30Z</time>
      </trkpt>
      <trkpt lat="47.09888" lon="8.4669">
        <ele>422.6</ele>
        <time>2023-02-12T09:30:31Z</time>
      </trkpt>
      <trkpt lat="47.09886" lon="8.46684">
        <ele>422.4</ele>
        <time>2023-02-12T09:30:32Z</time>
      </trkpt>
      <trkpt lat="47.09883" lon="8.46678">
        <ele>422.4</ele>
        <time>2023-02-12T09:30:33Z</time>
      </trkpt>
      <trkpt lat="47.0988" lon="8.46672">
        <ele>422.4</ele>
        <time>2023-02-12T09:30:34Z</time>
      </trkpt>
      <trkpt lat="47.09877" lon="8.46666">
        <ele>422.4</ele>
        <time>2023-02-12T09:30:35Z</time>
      </trkpt>
      <trkpt lat="47.09874" lon="8.4666">
        <ele>422.4</ele>
        <time>2023-02-12T09:30:36Z</time>
      </trkpt>
      <trkpt lat="47.0987" lon="8.46654">
        <ele>422.4</ele>
        <time>2023-02-12T09:30:37Z</time>
      </trkpt>
      <trkpt lat="47.09867" lon="8.46648">
        <ele>422.2</ele>
        <time>2023-02-12T09:30:38Z</time>
      </trkpt>
      <trkpt lat="47.09864" lon="8.46642">
        <ele>422.2</ele>
        <time>2023-02-12T09:30:39Z</time>
      </trkpt>
      <trkpt lat="47.09861" lon="8.46636">
        <ele>422.2</ele>
        <time>2023-02-12T09:30:40Z</time>
      </trkpt>
      <trkpt lat="47.09858" lon="8.46631">
        <ele>422.2</ele>
        <time>2023-02-12T09:30:41Z</time>
      </trkpt>
      <trkpt lat="47.09856" lon="8.46625">
        <ele>422.2</ele>
        <time>2023-02-12T09:30:42Z</time>
      </trkpt>
      <trkpt lat="47.09853" lon="8.46619">
        <ele>422.2</ele>
        <time>2023-02-12T09:30:43Z</time>
      </trkpt>
      <trkpt lat="47.09851" lon="8.46614">
        <ele>422.2</ele>
        <time>2023-02-12T09:30:44Z</time>
      </trkpt>
      <trkpt lat="47.09849" lon="8.46609">
        <ele>422.2</ele>
        <time>2023-02-12T09:30:45Z</time>
      </trkpt>
      <trkpt lat="47.09846" lon="8.46603">
        <ele>422.2</ele>
        <time>2023-02-12T09:30:46Z</time>
      </trkpt>
      <trkpt lat="47.09843" lon="8.46599">
        <ele>422.2</ele>
        <time>2023-02-12T09:30:47Z</time>
      </trkpt>
      <trkpt lat="47.0984" lon="8.46594">
        <ele>422.4</ele>
        <time>2023-02-12T09:30:48Z</time>
      </trkpt>
      <trkpt lat="47.09836" lon="8.46588">
        <ele>422.4</ele>
        <time>2023-02-12T09:30:49Z</time>
      </trkpt>
      <trkpt lat="47.09833" lon="8.46583">
        <ele>422.4</ele>
        <time>2023-02-12T09:30:50Z</time>
      </trkpt>
      <trkpt lat="47.0983" lon="8.46578">
        <ele>422.4</ele>
        <time>2023-02-12T09:30:51Z</time>
      </trkpt>
      <trkpt lat="47.09828" lon="8.46572">
        <ele>422.6</ele>
        <time>2023-02-12T09:30:52Z</time>
      </trkpt>
      <trkpt lat="47.09825" lon="8.46566">
        <ele>422.6</ele>
        <time>2023-02-12T09:30:53Z</time>
      </trkpt>
      <trkpt lat="47.09823" lon="8.4656">
        <ele>422.6</ele>
        <time>2023-02-12T09:30:54Z</time>
      </trkpt>
      <trkpt lat="47.0982" lon="8.46554">
        <ele>422.8</ele>
        <time>2023-02-12T09:30:55Z</time>
      </trkpt>
      <trkpt lat="47.09817" lon="8.46548">
        <ele>422.8</ele>
        <time>2023-02-12T09:30:56Z</time>
      </trkpt>
      <trkpt lat="47.09814" lon="8.46543">
        <ele>422.8</ele>
        <time>2023-02-12T09:30:57Z</time>
      </trkpt>
      <trkpt lat="47.09812" lon="8.46537">
        <ele>422.8</ele>
        <time>2023-02-12T09:30:58Z</time>
      </trkpt>
      <trkpt lat="47.09809" lon="8.46531">
        <ele>422.8</ele>
        <time>2023-02-12T09:30:59Z</time>
      </trkpt>
      <trkpt lat="47.09807" lon="8.46524">
        <ele>422.8</ele>
        <time>2023-02-12T09:31:00Z</time>
      </trkpt>
      <trkpt lat="47.09804" lon="8.46518">
        <ele>422.8</ele>
        <time>2023-02-12T09:31:01Z</time>
      </trkpt>
      <trkpt lat="47.09801" lon="8.46512">
        <ele>422.8</ele>
        <time>2023-02-12T09:31:02Z</time>
      </trkpt>
      <trkpt lat="47.09799" lon="8.46505">
        <ele>422.8</ele>
        <time>2023-02-12T09:31:03Z</time>
      </trkpt>
      <trkpt lat="47.09796" lon="8.46497">
        <ele>422.6</ele>
        <time>2023-02-12T09:31:04Z</time>
      </trkpt>
      <trkpt lat="47.09793" lon="8.4649">
        <ele>422.6</ele>
        <time>2023-02-12T09:31:05Z</time>
      </trkpt>
      <trkpt lat="47.09791" lon="8.46484">
        <ele>422.4</ele>
        <time>2023-02-12T09:31:06Z</time>
      </trkpt>
      <trkpt lat="47.09789" lon="8.46476">
        <ele>422.4</ele>
        <time>2023-02-12T09:31:07Z</time>
      </trkpt>
      <trkpt lat="47.09787" lon="8.46468">
        <ele>422.4</ele>
        <time>2023-02-12T09:31:08Z</time>
      </trkpt>
      <trkpt lat="47.09785" lon="8.46461">
        <ele>422.2</ele>
        <time>2023-02-12T09:31:09Z</time>
      </trkpt>
      <trkpt lat="47.09782" lon="8.46454">
        <ele>422</ele>
        <time>2023-02-12T09:31:10Z</time>
      </trkpt>
      <trkpt lat="47.09778" lon="8.46447">
        <ele>422</ele>
        <time>2023-02-12T09:31:11Z</time>
      </trkpt>
      <trkpt lat="47.09774" lon="8.4644">
        <ele>421.8</ele>
        <time>2023-02-12T09:31:12Z</time>
      </trkpt>
      <trkpt lat="47.0977" lon="8.46434">
        <ele>421.8</ele>
        <time>2023-02-12T09:31:13Z</time>
      </trkpt>
      <trkpt lat="47.09767" lon="8.46428">
        <ele>421.6</ele>
        <time>2023-02-12T09:31:14Z</time>
      </trkpt>
      <trkpt lat="47.09763" lon="8.46422">
        <ele>421.6</ele>
        <time>2023-02-12T09:31:15Z</time>
      </trkpt>
      <trkpt lat="47.0976" lon="8.46417">
        <ele>421.4</ele>
        <time>2023-02-12T09:31:16Z</time>
      </trkpt>
      <trkpt lat="47.09756" lon="8.46413">
        <ele>421.4</ele>
        <time>2023-02-12T09:31:17Z</time>
      </trkpt>
      <trkpt lat="47.09752" lon="8.46408">
        <ele>421.2</ele>
        <time>2023-02-12T09:31:18Z</time>
      </trkpt>
      <trkpt lat="47.09748" lon="8.46403">
        <ele>421.2</ele>
        <time>2023-02-12T09:31:19Z</time>
      </trkpt>
      <trkpt lat="47.09745" lon="8.464">
        <ele>421.2</ele>
        <time>2023-02-12T09:31:20Z</time>
      </trkpt>
      <trkpt lat="47.09742" lon="8.46396">
        <ele>421.2</ele>
        <time>2023-02-12T09:31:21Z</time>
      </trkpt>
      <trkpt lat="47.09739" lon="8.46392">
        <ele>421.2</ele>
        <time>2023-02-12T09:31:22Z</time>
      </trkpt>
      <trkpt lat="47.09735" lon="8.46388">
        <ele>421.4</ele>
        <time>2023-02-12T09:31:23Z</time>
      </trkpt>
      <trkpt lat="47.09731" lon="8.46384">
        <ele>421.4</ele>
        <time>2023-02-12T09:31:24Z</time>
      </trkpt>
      <trkpt lat="47.09727" lon="8.4638">
        <ele>421.6</ele>
        <time>2023-02-12T09:31:25Z</time>
      </trkpt>
      <trkpt lat="47.09724" lon="8.46376">
        <ele>421.6</ele>
        <time>2023-02-12T09:31:26Z</time>
      </trkpt>
      <trkpt lat="47.09721" lon="8.46374">
        <ele>421.6</ele>
        <time>2023-02-12T09:31:27Z</time>
      </trkpt>
      <trkpt lat="47.09717" lon="8.4637">
        <ele>421.6</ele>
        <time>2023-02-12T09:31:28Z</time>
      </trkpt>
      <trkpt lat="47.09713" lon="8.46368">
        <ele>421.6</ele>
        <time>2023-02-12T09:31:29Z</time>
      </trkpt>
      <trkpt lat="47.09709" lon="8.46365">
        <ele>421.6</ele>
        <time>2023-02-12T09:31:30Z</time>
      </trkpt>
      <trkpt lat="47.09704" lon="8.46363">
        <ele>421.6</ele>
        <time>2023-02-12T09:31:31Z</time>
      </trkpt>
      <trkpt lat="47.097" lon="8.46361">
        <ele>421.6</ele>
        <time>2023-02-12T09:31:32Z</time>
      </trkpt>
      <trkpt lat="47.09695" lon="8.4636">
        <ele>421.6</ele>
        <time>2023-02-12T09:31:33Z</time>
      </trkpt>
      <trkpt lat="47.0969" lon="8.46359">
        <ele>421.8</ele>
        <time>2023-02-12T09:31:34Z</time>
      </trkpt>
      <trkpt lat="47.09686" lon="8.46359">
        <ele>421.8</ele>
        <time>2023-02-12T09:31:35Z</time>
      </trkpt>
      <trkpt lat="47.09681" lon="8.46358">
        <ele>421.8</ele>
        <time>2023-02-12T09:31:36Z</time>
      </trkpt>
      <trkpt lat="47.09676" lon="8.46357">
        <ele>421.8</ele>
        <time>2023-02-12T09:31:37Z</time>
      </trkpt>
      <trkpt lat="47.09672" lon="8.46354">
        <ele>422</ele>
        <time>2023-02-12T09:31:38Z</time>
      </trkpt>
      <trkpt lat="47.09669" lon="8.46351">
        <ele>422</ele>
        <time>2023-02-12T09:31:39Z</time>
      </trkpt>
      <trkpt lat="47.09665" lon="8.46347">
        <ele>422</ele>
        <time>2023-02-12T09:31:40Z</time>
      </trkpt>
      <trkpt lat="47.09662" lon="8.46342">
        <ele>422.2</ele>
        <time>2023-02-12T09:31:41Z</time>
      </trkpt>
      <trkpt lat="47.0966" lon="8.46337">
        <ele>422</ele>
        <time>2023-02-12T09:31:42Z</time>
      </trkpt>
      <trkpt lat="47.09659" lon="8.46331">
        <ele>422</ele>
        <time>2023-02-12T09:31:43Z</time>
      </trkpt>
      <trkpt lat="47.09659" lon="8.46324">
        <ele>422</ele>
        <time>2023-02-12T09:31:44Z</time>
      </trkpt>
      <trkpt lat="47.09658" lon="8.46318">
        <ele>422</ele>
        <time>2023-02-12T09:31:45Z</time>
      </trkpt>
      <trkpt lat="47.09658" lon="8.46313">
        <ele>422</ele>
        <time>2023-02-12T09:31:46Z</time>
      </trkpt>
      <trkpt lat="47.09657" lon="8.46308">
        <ele>422.2</ele>
        <time>2023-02-12T09:31:47Z</time>
      </trkpt>
      <trkpt lat="47.09657" lon="8.46302">
        <ele>422.2</ele>
        <time>2023-02-12T09:31:48Z</time>
      </trkpt>
      <trkpt lat="47.09656" lon="8.46296">
        <ele>422.4</ele>
        <time>2023-02-12T09:31:49Z</time>
      </trkpt>
      <trkpt lat="47.09656" lon="8.4629">
        <ele>422.6</ele>
        <time>2023-02-12T09:31:50Z</time>
      </trkpt>
      <trkpt lat="47.09655" lon="8.46285">
        <ele>422.8</ele>
        <time>2023-02-12T09:31:51Z</time>
      </trkpt>
      <trkpt lat="47.09655" lon="8.46281">
        <ele>422.8</ele>
        <time>2023-02-12T09:31:52Z</time>
      </trkpt>
      <trkpt lat="47.09656" lon="8.46278">
        <ele>423.2</ele>
        <time>2023-02-12T09:31:53Z</time>
      </trkpt>
      <trkpt lat="47.09654" lon="8.46276">
        <ele>423.4</ele>
        <time>2023-02-12T09:31:54Z</time>
      </trkpt>
      <trkpt lat="47.09652" lon="8.46273">
        <ele>423.4</ele>
        <time>2023-02-12T09:31:55Z</time>
      </trkpt>
      <trkpt lat="47.09652" lon="8.46269">
        <ele>423.6</ele>
        <time>2023-02-12T09:31:56Z</time>
      </trkpt>
      <trkpt lat="47.09651" lon="8.46262">
        <ele>424</ele>
        <time>2023-02-12T09:31:57Z</time>
      </trkpt>
      <trkpt lat="47.0965" lon="8.46257">
        <ele>424</ele>
        <time>2023-02-12T09:31:58Z</time>
      </trkpt>
      <trkpt lat="47.0965" lon="8.46252">
        <ele>424.2</ele>
        <time>2023-02-12T09:31:59Z</time>
      </trkpt>
      <trkpt lat="47.0965" lon="8.46244">
        <ele>424.6</ele>
        <time>2023-02-12T09:32:00Z</time>
      </trkpt>
      <trkpt lat="47.09651" lon="8.46236">
        <ele>424.8</ele>
        <time>2023-02-12T09:32:01Z</time>
      </trkpt>
      <trkpt lat="47.0965" lon="8.46231">
        <ele>425</ele>
        <time>2023-02-12T09:32:02Z</time>
      </trkpt>
      <trkpt lat="47.09649" lon="8.46227">
        <ele>425.2</ele>
        <time>2023-02-12T09:32:03Z</time>
      </trkpt>
      <trkpt lat="47.09647" lon="8.46223">
        <ele>425.6</ele>
        <time>2023-02-12T09:32:04Z</time>
      </trkpt>
      <trkpt lat="47.09646" lon="8.46218">
        <ele>425.8</ele>
        <time>2023-02-12T09:32:05Z</time>
      </trkpt>
      <trkpt lat="47.09645" lon="8.46214">
        <ele>426</ele>
        <time>2023-02-12T09:32:06Z</time>
      </trkpt>
      <trkpt lat="47.09644" lon="8.46209">
        <ele>426.4</ele>
        <time>2023-02-12T09:32:07Z</time>
      </trkpt>
      <trkpt lat="47.09643" lon="8.46203">
        <ele>426.6</ele>
        <time>2023-02-12T09:32:08Z</time>
      </trkpt>
      <trkpt lat="47.09642" lon="8.46198">
        <ele>426.8</ele>
        <time>2023-02-12T09:32:09Z</time>
      </trkpt>
      <trkpt lat="47.09641" lon="8.46192">
        <ele>427.2</ele>
        <time>2023-02-12T09:32:10Z</time>
      </trkpt>
      <trkpt lat="47.0964" lon="8.46187">
        <ele>427.4</ele>
        <time>2023-02-12T09:32:11Z</time>
      </trkpt>
      <trkpt lat="47.09638" lon="8.46182">
        <ele>427.6</ele>
        <time>2023-02-12T09:32:12Z</time>
      </trkpt>
      <trkpt lat="47.09636" lon="8.46178">
        <ele>427.8</ele>
        <time>2023-02-12T09:32:13Z</time>
      </trkpt>
      <trkpt lat="47.09634" lon="8.46173">
        <ele>428.2</ele>
        <time>2023-02-12T09:32:14Z</time>
      </trkpt>
      <trkpt lat="47.09632" lon="8.4617">
        <ele>428.4</ele>
        <time>2023-02-12T09:32:15Z</time>
      </trkpt>
      <trkpt lat="47.09629" lon="8.46167">
        <ele>428.6</ele>
        <time>2023-02-12T09:32:16Z</time>
      </trkpt>
      <trkpt lat="47.09626" lon="8.46163">
        <ele>428.8</ele>
        <time>2023-02-12T09:32:17Z</time>
      </trkpt>
      <trkpt lat="47.09624" lon="8.4616">
        <ele>429</ele>
        <time>2023-02-12T09:32:18Z</time>
      </trkpt>
      <trkpt lat="47.09622" lon="8.46156">
        <ele>429.4</ele>
        <time>2023-02-12T09:32:19Z</time>
      </trkpt>
      <trkpt lat="47.09619" lon="8.46153">
        <ele>429.6</ele>
        <time>2023-02-12T09:32:20Z</time>
      </trkpt>
      <trkpt lat="47.09617" lon="8.46152">
        <ele>429.6</ele>
        <time>2023-02-12T09:32:21Z</time>
      </trkpt>
      <trkpt lat="47.09614" lon="8.46153">
        <ele>429.8</ele>
        <time>2023-02-12T09:32:22Z</time>
      </trkpt>
      <trkpt lat="47.09612" lon="8.46156">
        <ele>430</ele>
        <time>2023-02-12T09:32:23Z</time>
      </trkpt>
      <trkpt lat="47.09611" lon="8.46159">
        <ele>430.4</ele>
        <time>2023-02-12T09:32:24Z</time>
      </trkpt>
      <trkpt lat="47.0961" lon="8.46164">
        <ele>430.6</ele>
        <time>2023-02-12T09:32:25Z</time>
      </trkpt>
      <trkpt lat="47.09608" lon="8.46168">
        <ele>430.8</ele>
        <time>2023-02-12T09:32:26Z</time>
      </trkpt>
      <trkpt lat="47.09606" lon="8.46172">
        <ele>431</ele>
        <time>2023-02-12T09:32:27Z</time>
      </trkpt>
      <trkpt lat="47.09604" lon="8.46176">
        <ele>431.2</ele>
        <time>2023-02-12T09:32:28Z</time>
      </trkpt>
      <trkpt lat="47.09602" lon="8.4618">
        <ele>431.4</ele>
        <time>2023-02-12T09:32:29Z</time>
      </trkpt>
      <trkpt lat="47.09599" lon="8.46184">
        <ele>431.4</ele>
        <time>2023-02-12T09:32:30Z</time>
      </trkpt>
      <trkpt lat="47.09597" lon="8.46188">
        <ele>431.6</ele>
        <time>2023-02-12T09:32:31Z</time>
      </trkpt>
      <trkpt lat="47.09595" lon="8.46193">
        <ele>431.6</ele>
        <time>2023-02-12T09:32:32Z</time>
      </trkpt>
      <trkpt lat="47.09593" lon="8.46198">
        <ele>431.8</ele>
        <time>2023-02-12T09:32:33Z</time>
      </trkpt>
      <trkpt lat="47.09592" lon="8.46203">
        <ele>431.8</ele>
        <time>2023-02-12T09:32:34Z</time>
      </trkpt>
      <trkpt lat="47.0959" lon="8.46207">
        <ele>431.8</ele>
        <time>2023-02-12T09:32:35Z</time>
      </trkpt>
      <trkpt lat="47.09588" lon="8.46212">
        <ele>432</ele>
        <time>2023-02-12T09:32:36Z</time>
      </trkpt>
      <trkpt lat="47.09586" lon="8.46217">
        <ele>432</ele>
        <time>2023-02-12T09:32:37Z</time>
      </trkpt>
      <trkpt lat="47.09584" lon="8.46222">
        <ele>432.2</ele>
        <time>2023-02-12T09:32:38Z</time>
      </trkpt>
      <trkpt lat="47.09582" lon="8.46226">
        <ele>432.4</ele>
        <time>2023-02-12T09:32:39Z</time>
      </trkpt>
      <trkpt lat="47.09579" lon="8.4623">
        <ele>432.6</ele>
        <time>2023-02-12T09:32:40Z</time>
      </trkpt>
      <trkpt lat="47.09577" lon="8.46234">
        <ele>432.6</ele>
        <time>2023-02-12T09:32:41Z</time>
      </trkpt>
      <trkpt lat="47.09575" lon="8.46238">
        <ele>432.8</ele>
        <time>2023-02-12T09:32:42Z</time>
      </trkpt>
      <trkpt lat="47.09573" lon="8.46243">
        <ele>432.8</ele>
        <time>2023-02-12T09:32:43Z</time>
      </trkpt>
      <trkpt lat="47.0957" lon="8.46247">
        <ele>432.8</ele>
        <time>2023-02-12T09:32:44Z</time>
      </trkpt>
      <trkpt lat="47.09569" lon="8.46251">
        <ele>432.8</ele>
        <time>2023-02-12T09:32:45Z</time>
      </trkpt>
      <trkpt lat="47.09567" lon="8.46256">
        <ele>432.8</ele>
        <time>2023-02-12T09:32:46Z</time>
      </trkpt>
      <trkpt lat="47.09565" lon="8.46261">
        <ele>433</ele>
        <time>2023-02-12T09:32:47Z</time>
      </trkpt>
      <trkpt lat="47.09563" lon="8.46266">
        <ele>433</ele>
        <time>2023-02-12T09:32:48Z</time>
      </trkpt>
      <trkpt lat="47.09561" lon="8.46271">
        <ele>433.2</ele>
        <time>2023-02-12T09:32:49Z</time>
      </trkpt>
      <trkpt lat="47.09559" lon="8.46276">
        <ele>433.2</ele>
        <time>2023-02-12T09:32:50Z</time>
      </trkpt>
      <trkpt lat="47.09557" lon="8.46281">
        <ele>433.2</ele>
        <time>2023-02-12T09:32:51Z</time>
      </trkpt>
      <trkpt lat="47.09555" lon="8.46286">
        <ele>433.4</ele>
        <time>2023-02-12T09:32:52Z</time>
      </trkpt>
      <trkpt lat="47.09553" lon="8.46291">
        <ele>433.4</ele>
        <time>2023-02-12T09:32:53Z</time>
      </trkpt>
      <trkpt lat="47.09551" lon="8.46295">
        <ele>433.6</ele>
        <time>2023-02-12T09:32:54Z</time>
      </trkpt>
      <trkpt lat="47.09549" lon="8.46299">
        <ele>433.8</ele>
        <time>2023-02-12T09:32:55Z</time>
      </trkpt>
      <trkpt lat="47.09546" lon="8.46304">
        <ele>433.8</ele>
        <time>2023-02-12T09:32:56Z</time>
      </trkpt>
      <trkpt lat="47.09544" lon="8.46309">
        <ele>433.8</ele>
        <time>2023-02-12T09:32:57Z</time>
      </trkpt>
      <trkpt lat="47.09542" lon="8.46313">
        <ele>434</ele>
        <time>2023-02-12T09:32:58Z</time>
      </trkpt>
      <trkpt lat="47.09539" lon="8.46318">
        <ele>434</ele>
        <time>2023-02-12T09:32:59Z</time>
      </trkpt>
      <trkpt lat="47.09537" lon="8.46322">
        <ele>434</ele>
        <time>2023-02-12T09:33:00Z</time>
      </trkpt>
      <trkpt lat="47.09534" lon="8.46327">
        <ele>434</ele>
        <time>2023-02-12T09:33:01Z</time>
      </trkpt>
      <trkpt lat="47.09531" lon="8.46331">
        <ele>434</ele>
        <time>2023-02-12T09:33:02Z</time>
      </trkpt>
      <trkpt lat="47.09528" lon="8.46336">
        <ele>434</ele>
        <time>2023-02-12T09:33:03Z</time>
      </trkpt>
      <trkpt lat="47.09525" lon="8.4634">
        <ele>434.2</ele>
        <time>2023-02-12T09:33:04Z</time>
      </trkpt>
      <trkpt lat="47.09522" lon="8.46345">
        <ele>434.2</ele>
        <time>2023-02-12T09:33:05Z</time>
      </trkpt>
      <trkpt lat="47.09519" lon="8.46349">
        <ele>434.2</ele>
        <time>2023-02-12T09:33:06Z</time>
      </trkpt>
      <trkpt lat="47.09515" lon="8.46353">
        <ele>434.2</ele>
        <time>2023-02-12T09:33:07Z</time>
      </trkpt>
      <trkpt lat="47.09511" lon="8.46357">
        <ele>434.2</ele>
        <time>2023-02-12T09:33:08Z</time>
      </trkpt>
      <trkpt lat="47.09508" lon="8.46361">
        <ele>434.2</ele>
        <time>2023-02-12T09:33:09Z</time>
      </trkpt>
      <trkpt lat="47.09504" lon="8.46365">
        <ele>434.2</ele>
        <time>2023-02-12T09:33:10Z</time>
      </trkpt>
      <trkpt lat="47.09501" lon="8.46369">
        <ele>434.2</ele>
        <time>2023-02-12T09:33:11Z</time>
      </trkpt>
      <trkpt lat="47.09497" lon="8.46372">
        <ele>434.2</ele>
        <time>2023-02-12T09:33:12Z</time>
      </trkpt>
      <trkpt lat="47.09493" lon="8.46376">
        <ele>434.2</ele>
        <time>2023-02-12T09:33:13Z</time>
      </trkpt>
      <trkpt lat="47.09489" lon="8.4638">
        <ele>434.2</ele>
        <time>2023-02-12T09:33:14Z</time>
      </trkpt>
      <trkpt lat="47.09485" lon="8.46383">
        <ele>434</ele>
        <time>2023-02-12T09:33:15Z</time>
      </trkpt>
      <trkpt lat="47.0948" lon="8.46386">
        <ele>434</ele>
        <time>2023-02-12T09:33:16Z</time>
      </trkpt>
      <trkpt lat="47.09476" lon="8.46389">
        <ele>433.8</ele>
        <time>2023-02-12T09:33:17Z</time>
      </trkpt>
      <trkpt lat="47.09471" lon="8.46391">
        <ele>433.8</ele>
        <time>2023-02-12T09:33:18Z</time>
      </trkpt>
      <trkpt lat="47.09466" lon="8.46393">
        <ele>433.6</ele>
        <time>2023-02-12T09:33:19Z</time>
      </trkpt>
      <trkpt lat="47.09462" lon="8.46396">
        <ele>433.4</ele>
        <time>2023-02-12T09:33:20Z</time>
      </trkpt>
      <trkpt lat="47.09457" lon="8.46399">
        <ele>433.2</ele>
        <time>2023-02-12T09:33:21Z</time>
      </trkpt>
      <trkpt lat="47.09452" lon="8.46401">
        <ele>433</ele>
        <time>2023-02-12T09:33:22Z</time>
      </trkpt>
      <trkpt lat="47.09447" lon="8.46403">
        <ele>433</ele>
        <time>2023-02-12T09:33:23Z</time>
      </trkpt>
      <trkpt lat="47.09442" lon="8.46404">
        <ele>432.8</ele>
        <time>2023-02-12T09:33:24Z</time>
      </trkpt>
      <trkpt lat="47.09437" lon="8.46406">
        <ele>432.6</ele>
        <time>2023-02-12T09:33:25Z</time>
      </trkpt>
      <trkpt lat="47.09432" lon="8.46408">
        <ele>432.6</ele>
        <time>2023-02-12T09:33:26Z</time>
      </trkpt>
      <trkpt lat="47.09426" lon="8.4641">
        <ele>432.4</ele>
        <time>2023-02-12T09:33:27Z</time>
      </trkpt>
      <trkpt lat="47.09421" lon="8.46411">
        <ele>432.4</ele>
        <time>2023-02-12T09:33:28Z</time>
      </trkpt>
      <trkpt lat="47.09416" lon="8.46413">
        <ele>432.2</ele>
        <time>2023-02-12T09:33:29Z</time>
      </trkpt>
      <trkpt lat="47.09411" lon="8.46415">
        <ele>432</ele>
        <time>2023-02-12T09:33:30Z</time>
      </trkpt>
      <trkpt lat="47.09405" lon="8.46417">
        <ele>431.8</ele>
        <time>2023-02-12T09:33:31Z</time>
      </trkpt>
      <trkpt lat="47.094" lon="8.46419">
        <ele>431.6</ele>
        <time>2023-02-12T09:33:32Z</time>
      </trkpt>
      <trkpt lat="47.09394" lon="8.46421">
        <ele>431.4</ele>
        <time>2023-02-12T09:33:33Z</time>
      </trkpt>
      <trkpt lat="47.09389" lon="8.46423">
        <ele>431.2</ele>
        <time>2023-02-12T09:33:34Z</time>
      </trkpt>
      <trkpt lat="47.09383" lon="8.46425">
        <ele>431.2</ele>
        <time>2023-02-12T09:33:35Z</time>
      </trkpt>
      <trkpt lat="47.09377" lon="8.46427">
        <ele>431</ele>
        <time>2023-02-12T09:33:36Z</time>
      </trkpt>
      <trkpt lat="47.09371" lon="8.46429">
        <ele>430.8</ele>
        <time>2023-02-12T09:33:37Z</time>
      </trkpt>
      <trkpt lat="47.09366" lon="8.46431">
        <ele>430.8</ele>
        <time>2023-02-12T09:33:38Z</time>
      </trkpt>
      <trkpt lat="47.0936" lon="8.46433">
        <ele>430.6</ele>
        <time>2023-02-12T09:33:39Z</time>
      </trkpt>
      <trkpt lat="47.09354" lon="8.46435">
        <ele>430.4</ele>
        <time>2023-02-12T09:33:40Z</time>
      </trkpt>
      <trkpt lat="47.09349" lon="8.46436">
        <ele>430.2</ele>
        <time>2023-02-12T09:33:41Z</time>
      </trkpt>
      <trkpt lat="47.09343" lon="8.46439">
        <ele>430</ele>
        <time>2023-02-12T09:33:42Z</time>
      </trkpt>
      <trkpt lat="47.09337" lon="8.46441">
        <ele>429.8</ele>
        <time>2023-02-12T09:33:43Z</time>
      </trkpt>
      <trkpt lat="47.09332" lon="8.46444">
        <ele>429.6</ele>
        <time>2023-02-12T09:33:44Z</time>
      </trkpt>
      <trkpt lat="47.09326" lon="8.46447">
        <ele>429.6</ele>
        <time>2023-02-12T09:33:45Z</time>
      </trkpt>
      <trkpt lat="47.09321" lon="8.4645">
        <ele>429.4</ele>
        <time>2023-02-12T09:33:46Z</time>
      </trkpt>
      <trkpt lat="47.09316" lon="8.46453">
        <ele>429.2</ele>
        <time>2023-02-12T09:33:47Z</time>
      </trkpt>
      <trkpt lat="47.0931" lon="8.46456">
        <ele>429.2</ele>
        <time>2023-02-12T09:33:48Z</time>
      </trkpt>
      <trkpt lat="47.09305" lon="8.4646">
        <ele>428.8</ele>
        <time>2023-02-12T09:33:49Z</time>
      </trkpt>
      <trkpt lat="47.093" lon="8.46464">
        <ele>428.8</ele>
        <time>2023-02-12T09:33:50Z</time>
      </trkpt>
      <trkpt lat="47.09295" lon="8.46468">
        <ele>428.6</ele>
        <time>2023-02-12T09:33:51Z</time>
      </trkpt>
      <trkpt lat="47.09292" lon="8.46472">
        <ele>428.6</ele>
        <time>2023-02-12T09:33:52Z</time>
      </trkpt>
      <trkpt lat="47.09287" lon="8.46475">
        <ele>428.6</ele>
        <time>2023-02-12T09:33:53Z</time>
      </trkpt>
      <trkpt lat="47.09283" lon="8.4648">
        <ele>428.6</ele>
        <time>2023-02-12T09:33:54Z</time>
      </trkpt>
      <trkpt lat="47.09279" lon="8.46484">
        <ele>428.4</ele>
        <time>2023-02-12T09:33:55Z</time>
      </trkpt>
      <trkpt lat="47.09275" lon="8.46489">
        <ele>428.4</ele>
        <time>2023-02-12T09:33:56Z</time>
      </trkpt>
      <trkpt lat="47.09271" lon="8.46493">
        <ele>428.6</ele>
        <time>2023-02-12T09:33:57Z</time>
      </trkpt>
      <trkpt lat="47.09268" lon="8.46498">
        <ele>428.6</ele>
        <time>2023-02-12T09:33:58Z</time>
      </trkpt>
      <trkpt lat="47.09264" lon="8.46503">
        <ele>428.6</ele>
        <time>2023-02-12T09:33:59Z</time>
      </trkpt>
      <trkpt lat="47.0926" lon="8.46509">
        <ele>428.6</ele>
        <time>2023-02-12T09:34:00Z</time>
      </trkpt>
      <trkpt lat="47.09257" lon="8.46514">
        <ele>428.6</ele>
        <time>2023-02-12T09:34:01Z</time>
      </trkpt>
      <trkpt lat="47.09253" lon="8.46519">
        <ele>428.6</ele>
        <time>2023-02-12T09:34:02Z</time>
      </trkpt>
      <trkpt lat="47.09249" lon="8.46524">
        <ele>428.6</ele>
        <time>2023-02-12T09:34:03Z</time>
      </trkpt>
      <trkpt lat="47.09245" lon="8.46529">
        <ele>428.8</ele>
        <time>2023-02-12T09:34:04Z</time>
      </trkpt>
      <trkpt lat="47.09241" lon="8.46534">
        <ele>428.8</ele>
        <time>2023-02-12T09:34:05Z</time>
      </trkpt>
      <trkpt lat="47.09237" lon="8.4654">
        <ele>428.8</ele>
        <time>2023-02-12T09:34:06Z</time>
      </trkpt>
      <trkpt lat="47.09233" lon="8.46545">
        <ele>428.8</ele>
        <time>2023-02-12T09:34:07Z</time>
      </trkpt>
      <trkpt lat="47.09229" lon="8.4655">
        <ele>428.8</ele>
        <time>2023-02-12T09:34:08Z</time>
      </trkpt>
      <trkpt lat="47.09226" lon="8.46556">
        <ele>428.8</ele>
        <time>2023-02-12T09:34:09Z</time>
      </trkpt>
      <trkpt lat="47.09222" lon="8.46561">
        <ele>428.8</ele>
        <time>2023-02-12T09:34:10Z</time>
      </trkpt>
      <trkpt lat="47.09219" lon="8.46566">
        <ele>428.8</ele>
        <time>2023-02-12T09:34:11Z</time>
      </trkpt>
      <trkpt lat="47.09215" lon="8.46572">
        <ele>429</ele>
        <time>2023-02-12T09:34:12Z</time>
      </trkpt>
      <trkpt lat="47.09211" lon="8.46577">
        <ele>429</ele>
        <time>2023-02-12T09:34:13Z</time>
      </trkpt>
      <trkpt lat="47.09207" lon="8.46582">
        <ele>429</ele>
        <time>2023-02-12T09:34:14Z</time>
      </trkpt>
      <trkpt lat="47.09203" lon="8.46589">
        <ele>429</ele>
        <time>2023-02-12T09:34:15Z</time>
      </trkpt>
      <trkpt lat="47.09199" lon="8.46594">
        <ele>429</ele>
        <time>2023-02-12T09:34:16Z</time>
      </trkpt>
      <trkpt lat="47.09196" lon="8.466">
        <ele>429</ele>
        <time>2023-02-12T09:34:17Z</time>
      </trkpt>
      <trkpt lat="47.09192" lon="8.46605">
        <ele>429</ele>
        <time>2023-02-12T09:34:18Z</time>
      </trkpt>
      <trkpt lat="47.09188" lon="8.4661">
        <ele>429.2</ele>
        <time>2023-02-12T09:34:19Z</time>
      </trkpt>
      <trkpt lat="47.09184" lon="8.46616">
        <ele>429.2</ele>
        <time>2023-02-12T09:34:20Z</time>
      </trkpt>
      <trkpt lat="47.0918" lon="8.46621">
        <ele>429.2</ele>
        <time>2023-02-12T09:34:21Z</time>
      </trkpt>
      <trkpt lat="47.09176" lon="8.46625">
        <ele>429.2</ele>
        <time>2023-02-12T09:34:22Z</time>
      </trkpt>
      <trkpt lat="47.09172" lon="8.4663">
        <ele>429.2</ele>
        <time>2023-02-12T09:34:23Z</time>
      </trkpt>
      <trkpt lat="47.09168" lon="8.46635">
        <ele>429.2</ele>
        <time>2023-02-12T09:34:24Z</time>
      </trkpt>
      <trkpt lat="47.09164" lon="8.4664">
        <ele>429.2</ele>
        <time>2023-02-12T09:34:25Z</time>
      </trkpt>
      <trkpt lat="47.09161" lon="8.46645">
        <ele>429.2</ele>
        <time>2023-02-12T09:34:26Z</time>
      </trkpt>
      <trkpt lat="47.09157" lon="8.46649">
        <ele>429.2</ele>
        <time>2023-02-12T09:34:27Z</time>
      </trkpt>
      <trkpt lat="47.09153" lon="8.46653">
        <ele>429.2</ele>
        <time>2023-02-12T09:34:28Z</time>
      </trkpt>
      <trkpt lat="47.09149" lon="8.46658">
        <ele>429.2</ele>
        <time>2023-02-12T09:34:29Z</time>
      </trkpt>
      <trkpt lat="47.09145" lon="8.46662">
        <ele>429.2</ele>
        <time>2023-02-12T09:34:30Z</time>
      </trkpt>
      <trkpt lat="47.09141" lon="8.46666">
        <ele>429.2</ele>
        <time>2023-02-12T09:34:31Z</time>
      </trkpt>
      <trkpt lat="47.09136" lon="8.4667">
        <ele>429.2</ele>
        <time>2023-02-12T09:34:32Z</time>
      </trkpt>
      <trkpt lat="47.09131" lon="8.46674">
        <ele>429.4</ele>
        <time>2023-02-12T09:34:33Z</time>
      </trkpt>
      <trkpt lat="47.09127" lon="8.46677">
        <ele>429.4</ele>
        <time>2023-02-12T09:34:34Z</time>
      </trkpt>
      <trkpt lat="47.09122" lon="8.46681">
        <ele>429.4</ele>
        <time>2023-02-12T09:34:35Z</time>
      </trkpt>
      <trkpt lat="47.09117" lon="8.46684">
        <ele>429.4</ele>
        <time>2023-02-12T09:34:36Z</time>
      </trkpt>
      <trkpt lat="47.09113" lon="8.46687">
        <ele>429.4</ele>
        <time>2023-02-12T09:34:37Z</time>
      </trkpt>
      <trkpt lat="47.09108" lon="8.4669">
        <ele>429.6</ele>
        <time>2023-02-12T09:34:38Z</time>
      </trkpt>
      <trkpt lat="47.09104" lon="8.46693">
        <ele>429.6</ele>
        <time>2023-02-12T09:34:39Z</time>
      </trkpt>
      <trkpt lat="47.09099" lon="8.46696">
        <ele>429.6</ele>
        <time>2023-02-12T09:34:40Z</time>
      </trkpt>
      <trkpt lat="47.09094" lon="8.467">
        <ele>429.6</ele>
        <time>2023-02-12T09:34:41Z</time>
      </trkpt>
      <trkpt lat="47.0909" lon="8.46703">
        <ele>429.6</ele>
        <time>2023-02-12T09:34:42Z</time>
      </trkpt>
      <trkpt lat="47.09085" lon="8.46705">
        <ele>429.6</ele>
        <time>2023-02-12T09:34:43Z</time>
      </trkpt>
      <trkpt lat="47.0908" lon="8.46708">
        <ele>429.6</ele>
        <time>2023-02-12T09:34:44Z</time>
      </trkpt>
      <trkpt lat="47.09075" lon="8.46712">
        <ele>429.4</ele>
        <time>2023-02-12T09:34:45Z</time>
      </trkpt>
      <trkpt lat="47.09071" lon="8.46715">
        <ele>429.4</ele>
        <time>2023-02-12T09:34:46Z</time>
      </trkpt>
      <trkpt lat="47.09067" lon="8.46719">
        <ele>429.4</ele>
        <time>2023-02-12T09:34:47Z</time>
      </trkpt>
      <trkpt lat="47.09062" lon="8.46722">
        <ele>429.6</ele>
        <time>2023-02-12T09:34:48Z</time>
      </trkpt>
      <trkpt lat="47.09057" lon="8.46724">
        <ele>429.6</ele>
        <time>2023-02-12T09:34:49Z</time>
      </trkpt>
      <trkpt lat="47.09052" lon="8.46728">
        <ele>429.6</ele>
        <time>2023-02-12T09:34:50Z</time>
      </trkpt>
      <trkpt lat="47.09047" lon="8.4673">
        <ele>429.6</ele>
        <time>2023-02-12T09:34:51Z</time>
      </trkpt>
      <trkpt lat="47.09043" lon="8.46734">
        <ele>429.6</ele>
        <time>2023-02-12T09:34:52Z</time>
      </trkpt>
      <trkpt lat="47.09038" lon="8.46737">
        <ele>429.6</ele>
        <time>2023-02-12T09:34:53Z</time>
      </trkpt>
      <trkpt lat="47.09034" lon="8.4674">
        <ele>429.8</ele>
        <time>2023-02-12T09:34:54Z</time>
      </trkpt>
      <trkpt lat="47.09029" lon="8.46743">
        <ele>429.8</ele>
        <time>2023-02-12T09:34:55Z</time>
      </trkpt>
      <trkpt lat="47.09024" lon="8.46746">
        <ele>429.8</ele>
        <time>2023-02-12T09:34:56Z</time>
      </trkpt>
      <trkpt lat="47.0902" lon="8.46748">
        <ele>429.8</ele>
        <time>2023-02-12T09:34:57Z</time>
      </trkpt>
      <trkpt lat="47.09015" lon="8.46752">
        <ele>429.8</ele>
        <time>2023-02-12T09:34:58Z</time>
      </trkpt>
      <trkpt lat="47.0901" lon="8.46755">
        <ele>429.8</ele>
        <time>2023-02-12T09:34:59Z</time>
      </trkpt>
      <trkpt lat="47.09005" lon="8.46759">
        <ele>429.8</ele>
        <time>2023-02-12T09:35:00Z</time>
      </trkpt>
      <trkpt lat="47.09001" lon="8.46763">
        <ele>429.8</ele>
        <time>2023-02-12T09:35:01Z</time>
      </trkpt>
      <trkpt lat="47.08996" lon="8.46766">
        <ele>429.8</ele>
        <time>2023-02-12T09:35:02Z</time>
      </trkpt>
      <trkpt lat="47.08992" lon="8.4677">
        <ele>429.8</ele>
        <time>2023-02-12T09:35:03Z</time>
      </trkpt>
      <trkpt lat="47.08987" lon="8.46773">
        <ele>429.8</ele>
        <time>2023-02-12T09:35:04Z</time>
      </trkpt>
      <trkpt lat="47.08983" lon="8.46776">
        <ele>430</ele>
        <time>2023-02-12T09:35:05Z</time>
      </trkpt>
      <trkpt lat="47.08978" lon="8.46779">
        <ele>430</ele>
        <time>2023-02-12T09:35:06Z</time>
      </trkpt>
      <trkpt lat="47.08974" lon="8.46782">
        <ele>430</ele>
        <time>2023-02-12T09:35:07Z</time>
      </trkpt>
      <trkpt lat="47.08969" lon="8.46785">
        <ele>430</ele>
        <time>2023-02-12T09:35:08Z</time>
      </trkpt>
      <trkpt lat="47.08965" lon="8.46789">
        <ele>430</ele>
        <time>2023-02-12T09:35:09Z</time>
      </trkpt>
      <trkpt lat="47.0896" lon="8.46792">
        <ele>430</ele>
        <time>2023-02-12T09:35:10Z</time>
      </trkpt>
      <trkpt lat="47.08956" lon="8.46796">
        <ele>430.2</ele>
        <time>2023-02-12T09:35:11Z</time>
      </trkpt>
      <trkpt lat="47.08951" lon="8.46799">
        <ele>430.2</ele>
        <time>2023-02-12T09:35:12Z</time>
      </trkpt>
      <trkpt lat="47.08946" lon="8.46803">
        <ele>430.2</ele>
        <time>2023-02-12T09:35:13Z</time>
      </trkpt>
      <trkpt lat="47.08942" lon="8.46807">
        <ele>430.2</ele>
        <time>2023-02-12T09:35:14Z</time>
      </trkpt>
      <trkpt lat="47.08938" lon="8.46811">
        <ele>430.2</ele>
        <time>2023-02-12T09:35:15Z</time>
      </trkpt>
      <trkpt lat="47.08933" lon="8.46815">
        <ele>430.2</ele>
        <time>2023-02-12T09:35:16Z</time>
      </trkpt>
      <trkpt lat="47.08929" lon="8.46819">
        <ele>430.2</ele>
        <time>2023-02-12T09:35:17Z</time>
      </trkpt>
      <trkpt lat="47.08925" lon="8.46822">
        <ele>430.2</ele>
        <time>2023-02-12T09:35:18Z</time>
      </trkpt>
      <trkpt lat="47.0892" lon="8.46826">
        <ele>430.2</ele>
        <time>2023-02-12T09:35:19Z</time>
      </trkpt>
      <trkpt lat="47.08916" lon="8.4683">
        <ele>430.2</ele>
        <time>2023-02-12T09:35:20Z</time>
      </trkpt>
      <trkpt lat="47.08911" lon="8.46834">
        <ele>430.2</ele>
        <time>2023-02-12T09:35:21Z</time>
      </trkpt>
      <trkpt lat="47.08907" lon="8.46838">
        <ele>430.2</ele>
        <time>2023-02-12T09:35:22Z</time>
      </trkpt>
      <trkpt lat="47.08903" lon="8.46843">
        <ele>430.2</ele>
        <time>2023-02-12T09:35:23Z</time>
      </trkpt>
      <trkpt lat="47.08898" lon="8.46848">
        <ele>430.2</ele>
        <time>2023-02-12T09:35:24Z</time>
      </trkpt>
      <trkpt lat="47.08894" lon="8.46853">
        <ele>430.2</ele>
        <time>2023-02-12T09:35:25Z</time>
      </trkpt>
      <trkpt lat="47.08889" lon="8.46858">
        <ele>430.2</ele>
        <time>2023-02-12T09:35:26Z</time>
      </trkpt>
      <trkpt lat="47.08885" lon="8.46862">
        <ele>430.2</ele>
        <time>2023-02-12T09:35:27Z</time>
      </trkpt>
      <trkpt lat="47.0888" lon="8.46867">
        <ele>430</ele>
        <time>2023-02-12T09:35:28Z</time>
      </trkpt>
      <trkpt lat="47.08875" lon="8.46872">
        <ele>430</ele>
        <time>2023-02-12T09:35:29Z</time>
      </trkpt>
      <trkpt lat="47.08871" lon="8.46878">
        <ele>429.8</ele>
        <time>2023-02-12T09:35:30Z</time>
      </trkpt>
      <trkpt lat="47.08866" lon="8.46883">
        <ele>429.6</ele>
        <time>2023-02-12T09:35:31Z</time>
      </trkpt>
      <trkpt lat="47.08862" lon="8.46888">
        <ele>429.6</ele>
        <time>2023-02-12T09:35:32Z</time>
      </trkpt>
      <trkpt lat="47.08858" lon="8.46894">
        <ele>429.6</ele>
        <time>2023-02-12T09:35:33Z</time>
      </trkpt>
      <trkpt lat="47.08853" lon="8.46899">
        <ele>429.6</ele>
        <time>2023-02-12T09:35:34Z</time>
      </trkpt>
      <trkpt lat="47.08849" lon="8.46905">
        <ele>429.4</ele>
        <time>2023-02-12T09:35:35Z</time>
      </trkpt>
      <trkpt lat="47.08844" lon="8.4691">
        <ele>429.4</ele>
        <time>2023-02-12T09:35:36Z</time>
      </trkpt>
      <trkpt lat="47.0884" lon="8.46916">
        <ele>429.2</ele>
        <time>2023-02-12T09:35:37Z</time>
      </trkpt>
      <trkpt lat="47.08835" lon="8.46921">
        <ele>429</ele>
        <time>2023-02-12T09:35:38Z</time>
      </trkpt>
      <trkpt lat="47.08831" lon="8.46926">
        <ele>429</ele>
        <time>2023-02-12T09:35:39Z</time>
      </trkpt>
      <trkpt lat="47.08826" lon="8.46932">
        <ele>429</ele>
        <time>2023-02-12T09:35:40Z</time>
      </trkpt>
      <trkpt lat="47.08822" lon="8.46937">
        <ele>428.8</ele>
        <time>2023-02-12T09:35:41Z</time>
      </trkpt>
      <trkpt lat="47.08817" lon="8.46943">
        <ele>428.8</ele>
        <time>2023-02-12T09:35:42Z</time>
      </trkpt>
      <trkpt lat="47.08813" lon="8.46948">
        <ele>428.8</ele>
        <time>2023-02-12T09:35:43Z</time>
      </trkpt>
      <trkpt lat="47.08809" lon="8.46953">
        <ele>428.6</ele>
        <time>2023-02-12T09:35:44Z</time>
      </trkpt>
      <trkpt lat="47.08805" lon="8.46959">
        <ele>428.6</ele>
        <time>2023-02-12T09:35:45Z</time>
      </trkpt>
      <trkpt lat="47.088" lon="8.46964">
        <ele>428.6</ele>
        <time>2023-02-12T09:35:46Z</time>
      </trkpt>
      <trkpt lat="47.08796" lon="8.46969">
        <ele>428.6</ele>
        <time>2023-02-12T09:35:47Z</time>
      </trkpt>
      <trkpt lat="47.08792" lon="8.46974">
        <ele>428.4</ele>
        <time>2023-02-12T09:35:48Z</time>
      </trkpt>
      <trkpt lat="47.08787" lon="8.46979">
        <ele>428.4</ele>
        <time>2023-02-12T09:35:49Z</time>
      </trkpt>
      <trkpt lat="47.08783" lon="8.46985">
        <ele>428.4</ele>
        <time>2023-02-12T09:35:50Z</time>
      </trkpt>
      <trkpt lat="47.08778" lon="8.4699">
        <ele>428.4</ele>
        <time>2023-02-12T09:35:51Z</time>
      </trkpt>
      <trkpt lat="47.08774" lon="8.46996">
        <ele>428.4</ele>
        <time>2023-02-12T09:35:52Z</time>
      </trkpt>
      <trkpt lat="47.0877" lon="8.47002">
        <ele>428.2</ele>
        <time>2023-02-12T09:35:53Z</time>
      </trkpt>
      <trkpt lat="47.08765" lon="8.47008">
        <ele>428.2</ele>
        <time>2023-02-12T09:35:54Z</time>
      </trkpt>
      <trkpt lat="47.08761" lon="8.47013">
        <ele>428.2</ele>
        <time>2023-02-12T09:35:55Z</time>
      </trkpt>
      <trkpt lat="47.08757" lon="8.47018">
        <ele>428.2</ele>
        <time>2023-02-12T09:35:56Z</time>
      </trkpt>
      <trkpt lat="47.08753" lon="8.47023">
        <ele>428.2</ele>
        <time>2023-02-12T09:35:57Z</time>
      </trkpt>
      <trkpt lat="47.08749" lon="8.47029">
        <ele>428</ele>
        <time>2023-02-12T09:35:58Z</time>
      </trkpt>
      <trkpt lat="47.08745" lon="8.47032">
        <ele>428</ele>
        <time>2023-02-12T09:35:59Z</time>
      </trkpt>
      <trkpt lat="47.08742" lon="8.47036">
        <ele>428</ele>
        <time>2023-02-12T09:36:00Z</time>
      </trkpt>
      <trkpt lat="47.0874" lon="8.47041">
        <ele>427.8</ele>
        <time>2023-02-12T09:36:01Z</time>
      </trkpt>
      <trkpt lat="47.08737" lon="8.47046">
        <ele>427.8</ele>
        <time>2023-02-12T09:36:02Z</time>
      </trkpt>
      <trkpt lat="47.08734" lon="8.47051">
        <ele>427.8</ele>
        <time>2023-02-12T09:36:03Z</time>
      </trkpt>
      <trkpt lat="47.08731" lon="8.47056">
        <ele>427.6</ele>
        <time>2023-02-12T09:36:04Z</time>
      </trkpt>
      <trkpt lat="47.08728" lon="8.47062">
        <ele>427.6</ele>
        <time>2023-02-12T09:36:05Z</time>
      </trkpt>
      <trkpt lat="47.08725" lon="8.47069">
        <ele>427.4</ele>
        <time>2023-02-12T09:36:06Z</time>
      </trkpt>
      <trkpt lat="47.08721" lon="8.47075">
        <ele>427.4</ele>
        <time>2023-02-12T09:36:07Z</time>
      </trkpt>
      <trkpt lat="47.08718" lon="8.47081">
        <ele>427.4</ele>
        <time>2023-02-12T09:36:08Z</time>
      </trkpt>
      <trkpt lat="47.08715" lon="8.47087">
        <ele>427.4</ele>
        <time>2023-02-12T09:36:09Z</time>
      </trkpt>
      <trkpt lat="47.08712" lon="8.47094">
        <ele>427.4</ele>
        <time>2023-02-12T09:36:10Z</time>
      </trkpt>
      <trkpt lat="47.08709" lon="8.47101">
        <ele>427.2</ele>
        <time>2023-02-12T09:36:11Z</time>
      </trkpt>
      <trkpt lat="47.08706" lon="8.47107">
        <ele>427.2</ele>
        <time>2023-02-12T09:36:12Z</time>
      </trkpt>
      <trkpt lat="47.08703" lon="8.47114">
        <ele>427.2</ele>
        <time>2023-02-12T09:36:13Z</time>
      </trkpt>
      <trkpt lat="47.087" lon="8.4712">
        <ele>427.2</ele>
        <time>2023-02-12T09:36:14Z</time>
      </trkpt>
      <trkpt lat="47.08698" lon="8.47125">
        <ele>427.2</ele>
        <time>2023-02-12T09:36:15Z</time>
      </trkpt>
      <trkpt lat="47.08695" lon="8.47131">
        <ele>427.2</ele>
        <time>2023-02-12T09:36:16Z</time>
      </trkpt>
      <trkpt lat="47.08692" lon="8.47137">
        <ele>427.2</ele>
        <time>2023-02-12T09:36:17Z</time>
      </trkpt>
      <trkpt lat="47.0869" lon="8.47143">
        <ele>427.2</ele>
        <time>2023-02-12T09:36:18Z</time>
      </trkpt>
      <trkpt lat="47.08687" lon="8.47148">
        <ele>427.4</ele>
        <time>2023-02-12T09:36:19Z</time>
      </trkpt>
      <trkpt lat="47.08685" lon="8.47154">
        <ele>427.4</ele>
        <time>2023-02-12T09:36:20Z</time>
      </trkpt>
      <trkpt lat="47.08682" lon="8.4716">
        <ele>427.6</ele>
        <time>2023-02-12T09:36:21Z</time>
      </trkpt>
      <trkpt lat="47.0868" lon="8.47166">
        <ele>427.6</ele>
        <time>2023-02-12T09:36:22Z</time>
      </trkpt>
      <trkpt lat="47.08678" lon="8.47172">
        <ele>427.8</ele>
        <time>2023-02-12T09:36:23Z</time>
      </trkpt>
      <trkpt lat="47.08676" lon="8.47177">
        <ele>428</ele>
        <time>2023-02-12T09:36:24Z</time>
      </trkpt>
      <trkpt lat="47.08673" lon="8.47181">
        <ele>428.4</ele>
        <time>2023-02-12T09:36:25Z</time>
      </trkpt>
      <trkpt lat="47.08671" lon="8.47187">
        <ele>428.6</ele>
        <time>2023-02-12T09:36:26Z</time>
      </trkpt>
      <trkpt lat="47.08669" lon="8.47192">
        <ele>429</ele>
        <time>2023-02-12T09:36:27Z</time>
      </trkpt>
      <trkpt lat="47.08667" lon="8.47197">
        <ele>429.2</ele>
        <time>2023-02-12T09:36:28Z</time>
      </trkpt>
      <trkpt lat="47.08665" lon="8.47202">
        <ele>429.4</ele>
        <time>2023-02-12T09:36:29Z</time>
      </trkpt>
      <trkpt lat="47.08663" lon="8.47207">
        <ele>429.6</ele>
        <time>2023-02-12T09:36:30Z</time>
      </trkpt>
      <trkpt lat="47.08661" lon="8.47212">
        <ele>429.8</ele>
        <time>2023-02-12T09:36:31Z</time>
      </trkpt>
      <trkpt lat="47.08659" lon="8.47217">
        <ele>430.2</ele>
        <time>2023-02-12T09:36:32Z</time>
      </trkpt>
      <trkpt lat="47.08657" lon="8.47222">
        <ele>430.4</ele>
        <time>2023-02-12T09:36:33Z</time>
      </trkpt>
      <trkpt lat="47.08655" lon="8.47227">
        <ele>430.6</ele>
        <time>2023-02-12T09:36:34Z</time>
      </trkpt>
      <trkpt lat="47.08653" lon="8.47231">
        <ele>431</ele>
        <time>2023-02-12T09:36:35Z</time>
      </trkpt>
      <trkpt lat="47.08651" lon="8.47235">
        <ele>431.2</ele>
        <time>2023-02-12T09:36:36Z</time>
      </trkpt>
      <trkpt lat="47.08649" lon="8.4724">
        <ele>431.4</ele>
        <time>2023-02-12T09:36:37Z</time>
      </trkpt>
      <trkpt lat="47.08647" lon="8.47244">
        <ele>431.4</ele>
        <time>2023-02-12T09:36:38Z</time>
      </trkpt>
      <trkpt lat="47.08645" lon="8.47248">
        <ele>431.6</ele>
        <time>2023-02-12T09:36:39Z</time>
      </trkpt>
      <trkpt lat="47.08643" lon="8.47252">
        <ele>431.8</ele>
        <time>2023-02-12T09:36:40Z</time>
      </trkpt>
      <trkpt lat="47.08641" lon="8.47257">
        <ele>432.2</ele>
        <time>2023-02-12T09:36:41Z</time>
      </trkpt>
      <trkpt lat="47.08639" lon="8.47262">
        <ele>432.4</ele>
        <time>2023-02-12T09:36:42Z</time>
      </trkpt>
      <trkpt lat="47.08637" lon="8.47267">
        <ele>432.6</ele>
        <time>2023-02-12T09:36:43Z</time>
      </trkpt>
      <trkpt lat="47.08635" lon="8.47273">
        <ele>432.8</ele>
        <time>2023-02-12T09:36:44Z</time>
      </trkpt>
      <trkpt lat="47.08633" lon="8.47278">
        <ele>433</ele>
        <time>2023-02-12T09:36:45Z</time>
      </trkpt>
      <trkpt lat="47.08631" lon="8.47283">
        <ele>433.4</ele>
        <time>2023-02-12T09:36:46Z</time>
      </trkpt>
      <trkpt lat="47.08629" lon="8.47289">
        <ele>433.4</ele>
        <time>2023-02-12T09:36:47Z</time>
      </trkpt>
      <trkpt lat="47.08627" lon="8.47294">
        <ele>433.6</ele>
        <time>2023-02-12T09:36:48Z</time>
      </trkpt>
      <trkpt lat="47.08625" lon="8.473">
        <ele>433.8</ele>
        <time>2023-02-12T09:36:49Z</time>
      </trkpt>
      <trkpt lat="47.08623" lon="8.47305">
        <ele>433.8</ele>
        <time>2023-02-12T09:36:50Z</time>
      </trkpt>
      <trkpt lat="47.08621" lon="8.47311">
        <ele>434</ele>
        <time>2023-02-12T09:36:51Z</time>
      </trkpt>
      <trkpt lat="47.08619" lon="8.47317">
        <ele>434</ele>
        <time>2023-02-12T09:36:52Z</time>
      </trkpt>
      <trkpt lat="47.08617" lon="8.47324">
        <ele>434.2</ele>
        <time>2023-02-12T09:36:53Z</time>
      </trkpt>
      <trkpt lat="47.08615" lon="8.4733">
        <ele>434.4</ele>
        <time>2023-02-12T09:36:54Z</time>
      </trkpt>
      <trkpt lat="47.08613" lon="8.47336">
        <ele>434.6</ele>
        <time>2023-02-12T09:36:55Z</time>
      </trkpt>
      <trkpt lat="47.08612" lon="8.47342">
        <ele>434.6</ele>
        <time>2023-02-12T09:36:56Z</time>
      </trkpt>
      <trkpt lat="47.0861" lon="8.47348">
        <ele>434.6</ele>
        <time>2023-02-12T09:36:57Z</time>
      </trkpt>
      <trkpt lat="47.08608" lon="8.47354">
        <ele>434.8</ele>
        <time>2023-02-12T09:36:58Z</time>
      </trkpt>
      <trkpt lat="47.08606" lon="8.4736">
        <ele>434.8</ele>
        <time>2023-02-12T09:36:59Z</time>
      </trkpt>
      <trkpt lat="47.08604" lon="8.47366">
        <ele>434.6</ele>
        <time>2023-02-12T09:37:00Z</time>
      </trkpt>
      <trkpt lat="47.08602" lon="8.47372">
        <ele>434.6</ele>
        <time>2023-02-12T09:37:01Z</time>
      </trkpt>
      <trkpt lat="47.086" lon="8.47378">
        <ele>434.6</ele>
        <time>2023-02-12T09:37:02Z</time>
      </trkpt>
      <trkpt lat="47.08598" lon="8.47385">
        <ele>434.6</ele>
        <time>2023-02-12T09:37:03Z</time>
      </trkpt>
      <trkpt lat="47.08596" lon="8.47391">
        <ele>434.6</ele>
        <time>2023-02-12T09:37:04Z</time>
      </trkpt>
      <trkpt lat="47.08595" lon="8.47398">
        <ele>434.6</ele>
        <time>2023-02-12T09:37:05Z</time>
      </trkpt>
      <trkpt lat="47.08593" lon="8.47404">
        <ele>434.6</ele>
        <time>2023-02-12T09:37:06Z</time>
      </trkpt>
      <trkpt lat="47.0859" lon="8.47411">
        <ele>434.6</ele>
        <time>2023-02-12T09:37:07Z</time>
      </trkpt>
      <trkpt lat="47.08588" lon="8.47417">
        <ele>434.6</ele>
        <time>2023-02-12T09:37:08Z</time>
      </trkpt>
      <trkpt lat="47.08587" lon="8.47424">
        <ele>434.6</ele>
        <time>2023-02-12T09:37:09Z</time>
      </trkpt>
      <trkpt lat="47.08585" lon="8.4743">
        <ele>434.6</ele>
        <time>2023-02-12T09:37:10Z</time>
      </trkpt>
      <trkpt lat="47.08584" lon="8.47437">
        <ele>434.4</ele>
        <time>2023-02-12T09:37:11Z</time>
      </trkpt>
      <trkpt lat="47.08582" lon="8.47444">
        <ele>434.4</ele>
        <time>2023-02-12T09:37:12Z</time>
      </trkpt>
      <trkpt lat="47.0858" lon="8.47451">
        <ele>434.4</ele>
        <time>2023-02-12T09:37:13Z</time>
      </trkpt>
      <trkpt lat="47.08578" lon="8.47458">
        <ele>434.4</ele>
        <time>2023-02-12T09:37:14Z</time>
      </trkpt>
      <trkpt lat="47.08576" lon="8.47465">
        <ele>434.2</ele>
        <time>2023-02-12T09:37:15Z</time>
      </trkpt>
      <trkpt lat="47.08574" lon="8.47471">
        <ele>434.2</ele>
        <time>2023-02-12T09:37:16Z</time>
      </trkpt>
      <trkpt lat="47.08572" lon="8.47477">
        <ele>434.2</ele>
        <time>2023-02-12T09:37:17Z</time>
      </trkpt>
      <trkpt lat="47.08571" lon="8.47483">
        <ele>434.2</ele>
        <time>2023-02-12T09:37:18Z</time>
      </trkpt>
      <trkpt lat="47.08568" lon="8.4749">
        <ele>434</ele>
        <time>2023-02-12T09:37:19Z</time>
      </trkpt>
      <trkpt lat="47.08566" lon="8.47496">
        <ele>434</ele>
        <time>2023-02-12T09:37:20Z</time>
      </trkpt>
      <trkpt lat="47.08563" lon="8.47502">
        <ele>434</ele>
        <time>2023-02-12T09:37:21Z</time>
      </trkpt>
      <trkpt lat="47.08561" lon="8.47509">
        <ele>434</ele>
        <time>2023-02-12T09:37:22Z</time>
      </trkpt>
      <trkpt lat="47.08558" lon="8.47514">
        <ele>434</ele>
        <time>2023-02-12T09:37:23Z</time>
      </trkpt>
      <trkpt lat="47.08556" lon="8.47521">
        <ele>434</ele>
        <time>2023-02-12T09:37:24Z</time>
      </trkpt>
      <trkpt lat="47.08554" lon="8.47527">
        <ele>434</ele>
        <time>2023-02-12T09:37:25Z</time>
      </trkpt>
      <trkpt lat="47.08552" lon="8.47532">
        <ele>434.2</ele>
        <time>2023-02-12T09:37:26Z</time>
      </trkpt>
      <trkpt lat="47.08549" lon="8.47538">
        <ele>434.4</ele>
        <time>2023-02-12T09:37:27Z</time>
      </trkpt>
      <trkpt lat="47.08547" lon="8.47543">
        <ele>434.4</ele>
        <time>2023-02-12T09:37:28Z</time>
      </trkpt>
      <trkpt lat="47.08545" lon="8.47548">
        <ele>434.6</ele>
        <time>2023-02-12T09:37:29Z</time>
      </trkpt>
      <trkpt lat="47.08542" lon="8.47554">
        <ele>434.6</ele>
        <time>2023-02-12T09:37:30Z</time>
      </trkpt>
      <trkpt lat="47.0854" lon="8.4756">
        <ele>434.6</ele>
        <time>2023-02-12T09:37:31Z</time>
      </trkpt>
      <trkpt lat="47.08537" lon="8.47565">
        <ele>434.8</ele>
        <time>2023-02-12T09:37:32Z</time>
      </trkpt>
      <trkpt lat="47.08535" lon="8.4757">
        <ele>435</ele>
        <time>2023-02-12T09:37:33Z</time>
      </trkpt>
      <trkpt lat="47.08533" lon="8.47575">
        <ele>435.2</ele>
        <time>2023-02-12T09:37:34Z</time>
      </trkpt>
      <trkpt lat="47.0853" lon="8.4758">
        <ele>435.4</ele>
        <time>2023-02-12T09:37:35Z</time>
      </trkpt>
      <trkpt lat="47.08527" lon="8.47586">
        <ele>435.6</ele>
        <time>2023-02-12T09:37:36Z</time>
      </trkpt>
      <trkpt lat="47.08525" lon="8.47591">
        <ele>435.8</ele>
        <time>2023-02-12T09:37:37Z</time>
      </trkpt>
      <trkpt lat="47.08522" lon="8.47596">
        <ele>436</ele>
        <time>2023-02-12T09:37:38Z</time>
      </trkpt>
      <trkpt lat="47.0852" lon="8.47602">
        <ele>436.4</ele>
        <time>2023-02-12T09:37:39Z</time>
      </trkpt>
      <trkpt lat="47.08517" lon="8.47607">
        <ele>436.6</ele>
        <time>2023-02-12T09:37:40Z</time>
      </trkpt>
      <trkpt lat="47.08515" lon="8.47613">
        <ele>436.8</ele>
        <time>2023-02-12T09:37:41Z</time>
      </trkpt>
      <trkpt lat="47.08512" lon="8.47619">
        <ele>437</ele>
        <time>2023-02-12T09:37:42Z</time>
      </trkpt>
      <trkpt lat="47.08509" lon="8.47624">
        <ele>437.2</ele>
        <time>2023-02-12T09:37:43Z</time>
      </trkpt>
      <trkpt lat="47.08506" lon="8.47629">
        <ele>437.2</ele>
        <time>2023-02-12T09:37:44Z</time>
      </trkpt>
      <trkpt lat="47.08503" lon="8.47635">
        <ele>437.4</ele>
        <time>2023-02-12T09:37:45Z</time>
      </trkpt>
      <trkpt lat="47.085" lon="8.47641">
        <ele>437.4</ele>
        <time>2023-02-12T09:37:46Z</time>
      </trkpt>
      <trkpt lat="47.08497" lon="8.47647">
        <ele>437.4</ele>
        <time>2023-02-12T09:37:47Z</time>
      </trkpt>
      <trkpt lat="47.08494" lon="8.47653">
        <ele>437.4</ele>
        <time>2023-02-12T09:37:48Z</time>
      </trkpt>
      <trkpt lat="47.08491" lon="8.47659">
        <ele>437.4</ele>
        <time>2023-02-12T09:37:49Z</time>
      </trkpt>
      <trkpt lat="47.08487" lon="8.47665">
        <ele>437.2</ele>
        <time>2023-02-12T09:37:50Z</time>
      </trkpt>
      <trkpt lat="47.08483" lon="8.47671">
        <ele>437</ele>
        <time>2023-02-12T09:37:51Z</time>
      </trkpt>
      <trkpt lat="47.08479" lon="8.47678">
        <ele>436.8</ele>
        <time>2023-02-12T09:37:52Z</time>
      </trkpt>
      <trkpt lat="47.08475" lon="8.47685">
        <ele>436.8</ele>
        <time>2023-02-12T09:37:53Z</time>
      </trkpt>
      <trkpt lat="47.08471" lon="8.47692">
        <ele>436.4</ele>
        <time>2023-02-12T09:37:54Z</time>
      </trkpt>
      <trkpt lat="47.08467" lon="8.477">
        <ele>436.4</ele>
        <time>2023-02-12T09:37:55Z</time>
      </trkpt>
      <trkpt lat="47.08464" lon="8.47707">
        <ele>436.2</ele>
        <time>2023-02-12T09:37:56Z</time>
      </trkpt>
      <trkpt lat="47.0846" lon="8.47715">
        <ele>436</ele>
        <time>2023-02-12T09:37:57Z</time>
      </trkpt>
      <trkpt lat="47.08455" lon="8.47722">
        <ele>435.8</ele>
        <time>2023-02-12T09:37:58Z</time>
      </trkpt>
      <trkpt lat="47.08451" lon="8.47729">
        <ele>435.6</ele>
        <time>2023-02-12T09:37:59Z</time>
      </trkpt>
      <trkpt lat="47.08446" lon="8.47736">
        <ele>435.4</ele>
        <time>2023-02-12T09:38:00Z</time>
      </trkpt>
      <trkpt lat="47.08442" lon="8.47743">
        <ele>435.4</ele>
        <time>2023-02-12T09:38:01Z</time>
      </trkpt>
      <trkpt lat="47.08437" lon="8.4775">
        <ele>435</ele>
        <time>2023-02-12T09:38:02Z</time>
      </trkpt>
      <trkpt lat="47.08432" lon="8.47758">
        <ele>434.8</ele>
        <time>2023-02-12T09:38:03Z</time>
      </trkpt>
      <trkpt lat="47.08428" lon="8.47765">
        <ele>434.6</ele>
        <time>2023-02-12T09:38:04Z</time>
      </trkpt>
      <trkpt lat="47.08423" lon="8.47773">
        <ele>434.4</ele>
        <time>2023-02-12T09:38:05Z</time>
      </trkpt>
      <trkpt lat="47.08417" lon="8.47781">
        <ele>434</ele>
        <time>2023-02-12T09:38:06Z</time>
      </trkpt>
      <trkpt lat="47.08412" lon="8.47789">
        <ele>433.8</ele>
        <time>2023-02-12T09:38:07Z</time>
      </trkpt>
      <trkpt lat="47.08408" lon="8.47796">
        <ele>433.6</ele>
        <time>2023-02-12T09:38:08Z</time>
      </trkpt>
      <trkpt lat="47.08403" lon="8.47803">
        <ele>433.2</ele>
        <time>2023-02-12T09:38:09Z</time>
      </trkpt>
      <trkpt lat="47.08398" lon="8.47811">
        <ele>432.8</ele>
        <time>2023-02-12T09:38:10Z</time>
      </trkpt>
      <trkpt lat="47.08394" lon="8.47819">
        <ele>432.4</ele>
        <time>2023-02-12T09:38:11Z</time>
      </trkpt>
      <trkpt lat="47.08388" lon="8.47827">
        <ele>432.2</ele>
        <time>2023-02-12T09:38:12Z</time>
      </trkpt>
      <trkpt lat="47.08383" lon="8.47835">
        <ele>431.8</ele>
        <time>2023-02-12T09:38:13Z</time>
      </trkpt>
      <trkpt lat="47.08378" lon="8.47843">
        <ele>431.6</ele>
        <time>2023-02-12T09:38:14Z</time>
      </trkpt>
      <trkpt lat="47.08373" lon="8.4785">
        <ele>431.4</ele>
        <time>2023-02-12T09:38:15Z</time>
      </trkpt>
      <trkpt lat="47.08369" lon="8.47858">
        <ele>431</ele>
        <time>2023-02-12T09:38:16Z</time>
      </trkpt>
      <trkpt lat="47.08364" lon="8.47866">
        <ele>430.8</ele>
        <time>2023-02-12T09:38:17Z</time>
      </trkpt>
      <trkpt lat="47.08359" lon="8.47873">
        <ele>430.6</ele>
        <time>2023-02-12T09:38:18Z</time>
      </trkpt>
      <trkpt lat="47.08355" lon="8.47881">
        <ele>430.4</ele>
        <time>2023-02-12T09:38:19Z</time>
      </trkpt>
      <trkpt lat="47.0835" lon="8.47888">
        <ele>430.2</ele>
        <time>2023-02-12T09:38:20Z</time>
      </trkpt>
      <trkpt lat="47.08346" lon="8.47895">
        <ele>430.2</ele>
        <time>2023-02-12T09:38:21Z</time>
      </trkpt>
      <trkpt lat="47.08343" lon="8.47901">
        <ele>430.2</ele>
        <time>2023-02-12T09:38:22Z</time>
      </trkpt>
      <trkpt lat="47.08339" lon="8.47908">
        <ele>430</ele>
        <time>2023-02-12T09:38:23Z</time>
      </trkpt>
      <trkpt lat="47.08335" lon="8.47914">
        <ele>430</ele>
        <time>2023-02-12T09:38:24Z</time>
      </trkpt>
      <trkpt lat="47.08331" lon="8.4792">
        <ele>430</ele>
        <time>2023-02-12T09:38:25Z</time>
      </trkpt>
      <trkpt lat="47.08327" lon="8.47926">
        <ele>430</ele>
        <time>2023-02-12T09:38:26Z</time>
      </trkpt>
      <trkpt lat="47.08323" lon="8.47932">
        <ele>430</ele>
        <time>2023-02-12T09:38:27Z</time>
      </trkpt>
      <trkpt lat="47.08319" lon="8.47938">
        <ele>430</ele>
        <time>2023-02-12T09:38:28Z</time>
      </trkpt>
      <trkpt lat="47.08316" lon="8.47944">
        <ele>430</ele>
        <time>2023-02-12T09:38:29Z</time>
      </trkpt>
      <trkpt lat="47.08313" lon="8.4795">
        <ele>430</ele>
        <time>2023-02-12T09:38:30Z</time>
      </trkpt>
      <trkpt lat="47.08309" lon="8.47957">
        <ele>430</ele>
        <time>2023-02-12T09:38:31Z</time>
      </trkpt>
      <trkpt lat="47.08305" lon="8.47963">
        <ele>430</ele>
        <time>2023-02-12T09:38:32Z</time>
      </trkpt>
      <trkpt lat="47.08302" lon="8.47969">
        <ele>430</ele>
        <time>2023-02-12T09:38:33Z</time>
      </trkpt>
      <trkpt lat="47.08299" lon="8.47976">
        <ele>430</ele>
        <time>2023-02-12T09:38:34Z</time>
      </trkpt>
      <trkpt lat="47.08296" lon="8.47982">
        <ele>430</ele>
        <time>2023-02-12T09:38:35Z</time>
      </trkpt>
      <trkpt lat="47.08292" lon="8.47988">
        <ele>430</ele>
        <time>2023-02-12T09:38:36Z</time>
      </trkpt>
      <trkpt lat="47.08289" lon="8.47995">
        <ele>430.2</ele>
        <time>2023-02-12T09:38:37Z</time>
      </trkpt>
      <trkpt lat="47.08286" lon="8.48001">
        <ele>430</ele>
        <time>2023-02-12T09:38:38Z</time>
      </trkpt>
      <trkpt lat="47.08283" lon="8.48007">
        <ele>430</ele>
        <time>2023-02-12T09:38:39Z</time>
      </trkpt>
      <trkpt lat="47.0828" lon="8.48014">
        <ele>430</ele>
        <time>2023-02-12T09:38:40Z</time>
      </trkpt>
      <trkpt lat="47.08277" lon="8.48021">
        <ele>430</ele>
        <time>2023-02-12T09:38:41Z</time>
      </trkpt>
      <trkpt lat="47.08274" lon="8.48027">
        <ele>430</ele>
        <time>2023-02-12T09:38:42Z</time>
      </trkpt>
      <trkpt lat="47.0827" lon="8.48034">
        <ele>430</ele>
        <time>2023-02-12T09:38:43Z</time>
      </trkpt>
      <trkpt lat="47.08267" lon="8.48041">
        <ele>430</ele>
        <time>2023-02-12T09:38:44Z</time>
      </trkpt>
      <trkpt lat="47.08264" lon="8.48048">
        <ele>429.8</ele>
        <time>2023-02-12T09:38:45Z</time>
      </trkpt>
      <trkpt lat="47.0826" lon="8.48055">
        <ele>429.8</ele>
        <time>2023-02-12T09:38:46Z</time>
      </trkpt>
      <trkpt lat="47.08257" lon="8.48062">
        <ele>429.8</ele>
        <time>2023-02-12T09:38:47Z</time>
      </trkpt>
      <trkpt lat="47.08254" lon="8.48068">
        <ele>429.8</ele>
        <time>2023-02-12T09:38:48Z</time>
      </trkpt>
      <trkpt lat="47.08251" lon="8.48075">
        <ele>429.6</ele>
        <time>2023-02-12T09:38:49Z</time>
      </trkpt>
      <trkpt lat="47.08247" lon="8.48081">
        <ele>429.6</ele>
        <time>2023-02-12T09:38:50Z</time>
      </trkpt>
      <trkpt lat="47.08244" lon="8.48087">
        <ele>429.4</ele>
        <time>2023-02-12T09:38:51Z</time>
      </trkpt>
      <trkpt lat="47.0824" lon="8.48094">
        <ele>429.4</ele>
        <time>2023-02-12T09:38:52Z</time>
      </trkpt>
      <trkpt lat="47.08237" lon="8.48101">
        <ele>429.2</ele>
        <time>2023-02-12T09:38:53Z</time>
      </trkpt>
      <trkpt lat="47.08234" lon="8.48107">
        <ele>429.2</ele>
        <time>2023-02-12T09:38:54Z</time>
      </trkpt>
      <trkpt lat="47.08231" lon="8.48114">
        <ele>429.2</ele>
        <time>2023-02-12T09:38:55Z</time>
      </trkpt>
      <trkpt lat="47.08227" lon="8.48121">
        <ele>429</ele>
        <time>2023-02-12T09:38:56Z</time>
      </trkpt>
      <trkpt lat="47.08223" lon="8.48128">
        <ele>428.8</ele>
        <time>2023-02-12T09:38:57Z</time>
      </trkpt>
      <trkpt lat="47.0822" lon="8.48134">
        <ele>428.8</ele>
        <time>2023-02-12T09:38:58Z</time>
      </trkpt>
      <trkpt lat="47.08216" lon="8.48141">
        <ele>428.6</ele>
        <time>2023-02-12T09:38:59Z</time>
      </trkpt>
      <trkpt lat="47.08213" lon="8.48147">
        <ele>428.6</ele>
        <time>2023-02-12T09:39:00Z</time>
      </trkpt>
      <trkpt lat="47.08209" lon="8.48154">
        <ele>428.4</ele>
        <time>2023-02-12T09:39:01Z</time>
      </trkpt>
      <trkpt lat="47.08206" lon="8.48161">
        <ele>428.4</ele>
        <time>2023-02-12T09:39:02Z</time>
      </trkpt>
      <trkpt lat="47.08202" lon="8.48167">
        <ele>428.2</ele>
        <time>2023-02-12T09:39:03Z</time>
      </trkpt>
      <trkpt lat="47.08198" lon="8.48174">
        <ele>428.2</ele>
        <time>2023-02-12T09:39:04Z</time>
      </trkpt>
      <trkpt lat="47.08194" lon="8.48181">
        <ele>428</ele>
        <time>2023-02-12T09:39:05Z</time>
      </trkpt>
      <trkpt lat="47.0819" lon="8.48187">
        <ele>428</ele>
        <time>2023-02-12T09:39:06Z</time>
      </trkpt>
      <trkpt lat="47.08185" lon="8.48194">
        <ele>427.8</ele>
        <time>2023-02-12T09:39:07Z</time>
      </trkpt>
      <trkpt lat="47.08181" lon="8.48201">
        <ele>427.6</ele>
        <time>2023-02-12T09:39:08Z</time>
      </trkpt>
      <trkpt lat="47.08177" lon="8.48208">
        <ele>427.6</ele>
        <time>2023-02-12T09:39:09Z</time>
      </trkpt>
      <trkpt lat="47.08173" lon="8.48214">
        <ele>427.2</ele>
        <time>2023-02-12T09:39:10Z</time>
      </trkpt>
      <trkpt lat="47.08169" lon="8.4822">
        <ele>427.2</ele>
        <time>2023-02-12T09:39:11Z</time>
      </trkpt>
      <trkpt lat="47.08165" lon="8.48227">
        <ele>427.2</ele>
        <time>2023-02-12T09:39:12Z</time>
      </trkpt>
      <trkpt lat="47.0816" lon="8.48233">
        <ele>426.8</ele>
        <time>2023-02-12T09:39:13Z</time>
      </trkpt>
      <trkpt lat="47.08156" lon="8.48238">
        <ele>426.4</ele>
        <time>2023-02-12T09:39:14Z</time>
      </trkpt>
      <trkpt lat="47.08152" lon="8.48244">
        <ele>426.4</ele>
        <time>2023-02-12T09:39:15Z</time>
      </trkpt>
      <trkpt lat="47.08148" lon="8.4825">
        <ele>426.2</ele>
        <time>2023-02-12T09:39:16Z</time>
      </trkpt>
      <trkpt lat="47.08144" lon="8.48257">
        <ele>426</ele>
        <time>2023-02-12T09:39:17Z</time>
      </trkpt>
      <trkpt lat="47.08141" lon="8.48263">
        <ele>425.8</ele>
        <time>2023-02-12T09:39:18Z</time>
      </trkpt>
      <trkpt lat="47.08136" lon="8.48269">
        <ele>425.6</ele>
        <time>2023-02-12T09:39:19Z</time>
      </trkpt>
      <trkpt lat="47.08133" lon="8.48275">
        <ele>425.6</ele>
        <time>2023-02-12T09:39:20Z</time>
      </trkpt>
      <trkpt lat="47.08128" lon="8.48281">
        <ele>425.4</ele>
        <time>2023-02-12T09:39:21Z</time>
      </trkpt>
      <trkpt lat="47.08124" lon="8.48287">
        <ele>425.4</ele>
        <time>2023-02-12T09:39:22Z</time>
      </trkpt>
      <trkpt lat="47.08119" lon="8.48293">
        <ele>425.2</ele>
        <time>2023-02-12T09:39:23Z</time>
      </trkpt>
      <trkpt lat="47.08115" lon="8.48298">
        <ele>425.2</ele>
        <time>2023-02-12T09:39:24Z</time>
      </trkpt>
      <trkpt lat="47.08111" lon="8.48304">
        <ele>425.2</ele>
        <time>2023-02-12T09:39:25Z</time>
      </trkpt>
      <trkpt lat="47.08107" lon="8.4831">
        <ele>425</ele>
        <time>2023-02-12T09:39:26Z</time>
      </trkpt>
      <trkpt lat="47.08103" lon="8.48317">
        <ele>424.8</ele>
        <time>2023-02-12T09:39:27Z</time>
      </trkpt>
      <trkpt lat="47.08098" lon="8.48323">
        <ele>424.8</ele>
        <time>2023-02-12T09:39:28Z</time>
      </trkpt>
      <trkpt lat="47.08094" lon="8.4833">
        <ele>424.6</ele>
        <time>2023-02-12T09:39:29Z</time>
      </trkpt>
      <trkpt lat="47.08089" lon="8.48336">
        <ele>424.4</ele>
        <time>2023-02-12T09:39:30Z</time>
      </trkpt>
      <trkpt lat="47.08085" lon="8.48342">
        <ele>424.4</ele>
        <time>2023-02-12T09:39:31Z</time>
      </trkpt>
      <trkpt lat="47.0808" lon="8.48349">
        <ele>424.2</ele>
        <time>2023-02-12T09:39:32Z</time>
      </trkpt>
      <trkpt lat="47.08075" lon="8.48356">
        <ele>424.2</ele>
        <time>2023-02-12T09:39:33Z</time>
      </trkpt>
      <trkpt lat="47.0807" lon="8.48362">
        <ele>423.8</ele>
        <time>2023-02-12T09:39:34Z</time>
      </trkpt>
      <trkpt lat="47.08065" lon="8.48369">
        <ele>423.6</ele>
        <time>2023-02-12T09:39:35Z</time>
      </trkpt>
      <trkpt lat="47.08061" lon="8.48376">
        <ele>423.6</ele>
        <time>2023-02-12T09:39:36Z</time>
      </trkpt>
      <trkpt lat="47.08056" lon="8.48382">
        <ele>423.2</ele>
        <time>2023-02-12T09:39:37Z</time>
      </trkpt>
      <trkpt lat="47.08051" lon="8.48389">
        <ele>423.2</ele>
        <time>2023-02-12T09:39:38Z</time>
      </trkpt>
      <trkpt lat="47.08046" lon="8.48395">
        <ele>423</ele>
        <time>2023-02-12T09:39:39Z</time>
      </trkpt>
      <trkpt lat="47.08042" lon="8.48402">
        <ele>422.8</ele>
        <time>2023-02-12T09:39:40Z</time>
      </trkpt>
      <trkpt lat="47.08037" lon="8.48408">
        <ele>422.6</ele>
        <time>2023-02-12T09:39:41Z</time>
      </trkpt>
      <trkpt lat="47.08032" lon="8.48414">
        <ele>422.6</ele>
        <time>2023-02-12T09:39:42Z</time>
      </trkpt>
      <trkpt lat="47.08028" lon="8.48419">
        <ele>422.6</ele>
        <time>2023-02-12T09:39:43Z</time>
      </trkpt>
      <trkpt lat="47.08023" lon="8.48425">
        <ele>422.2</ele>
        <time>2023-02-12T09:39:44Z</time>
      </trkpt>
      <trkpt lat="47.08019" lon="8.48431">
        <ele>422.2</ele>
        <time>2023-02-12T09:39:45Z</time>
      </trkpt>
      <trkpt lat="47.08014" lon="8.48437">
        <ele>422</ele>
        <time>2023-02-12T09:39:46Z</time>
      </trkpt>
      <trkpt lat="47.08009" lon="8.48443">
        <ele>422</ele>
        <time>2023-02-12T09:39:47Z</time>
      </trkpt>
      <trkpt lat="47.08004" lon="8.48448">
        <ele>421.8</ele>
        <time>2023-02-12T09:39:48Z</time>
      </trkpt>
      <trkpt lat="47.07999" lon="8.48453">
        <ele>421.8</ele>
        <time>2023-02-12T09:39:49Z</time>
      </trkpt>
      <trkpt lat="47.07994" lon="8.48459">
        <ele>421.6</ele>
        <time>2023-02-12T09:39:50Z</time>
      </trkpt>
      <trkpt lat="47.07989" lon="8.48464">
        <ele>421.4</ele>
        <time>2023-02-12T09:39:51Z</time>
      </trkpt>
      <trkpt lat="47.07984" lon="8.4847">
        <ele>421.2</ele>
        <time>2023-02-12T09:39:52Z</time>
      </trkpt>
      <trkpt lat="47.07978" lon="8.48475">
        <ele>421.2</ele>
        <time>2023-02-12T09:39:53Z</time>
      </trkpt>
      <trkpt lat="47.07973" lon="8.4848">
        <ele>421</ele>
        <time>2023-02-12T09:39:54Z</time>
      </trkpt>
      <trkpt lat="47.07967" lon="8.48486">
        <ele>420.8</ele>
        <time>2023-02-12T09:39:55Z</time>
      </trkpt>
      <trkpt lat="47.07962" lon="8.48492">
        <ele>420.8</ele>
        <time>2023-02-12T09:39:56Z</time>
      </trkpt>
      <trkpt lat="47.07957" lon="8.48497">
        <ele>420.6</ele>
        <time>2023-02-12T09:39:57Z</time>
      </trkpt>
      <trkpt lat="47.07952" lon="8.48503">
        <ele>420.4</ele>
        <time>2023-02-12T09:39:58Z</time>
      </trkpt>
      <trkpt lat="47.07947" lon="8.48509">
        <ele>420.2</ele>
        <time>2023-02-12T09:39:59Z</time>
      </trkpt>
      <trkpt lat="47.07942" lon="8.48516">
        <ele>420.2</ele>
        <time>2023-02-12T09:40:00Z</time>
      </trkpt>
      <trkpt lat="47.07938" lon="8.48523">
        <ele>419.8</ele>
        <time>2023-02-12T09:40:01Z</time>
      </trkpt>
      <trkpt lat="47.07933" lon="8.48529">
        <ele>419.8</ele>
        <time>2023-02-12T09:40:02Z</time>
      </trkpt>
      <trkpt lat="47.0793" lon="8.48535">
        <ele>419.8</ele>
        <time>2023-02-12T09:40:03Z</time>
      </trkpt>
      <trkpt lat="47.07927" lon="8.48539">
        <ele>419.6</ele>
        <time>2023-02-12T09:40:04Z</time>
      </trkpt>
      <trkpt lat="47.07926" lon="8.48542">
        <ele>419.4</ele>
        <time>2023-02-12T09:40:05Z</time>
      </trkpt>
      <trkpt lat="47.07926" lon="8.48542">
        <ele>419.2</ele>
        <time>2023-02-12T09:40:06Z</time>
      </trkpt>
      <trkpt lat="47.07926" lon="8.48541">
        <ele>419</ele>
        <time>2023-02-12T09:40:07Z</time>
      </trkpt>
      <trkpt lat="47.07926" lon="8.48541">
        <ele>419</ele>
        <time>2023-02-12T09:40:08Z</time>
      </trkpt>
      <trkpt lat="47.07926" lon="8.48541">
        <ele>419</ele>
        <time>2023-02-12T09:40:09Z</time>
      </trkpt>
      <trkpt lat="47.07926" lon="8.48541">
        <ele>418.8</ele>
        <time>2023-02-12T09:40:10Z</time>
      </trkpt>
      <trkpt lat="47.07926" lon="8.48541">
        <ele>418.8</ele>
        <time>2023-02-12T09:40:11Z</time>
      </trkpt>
      <trkpt lat="47.07926" lon="8.48541">
        <ele>418.8</ele>
        <time>2023-02-12T09:40:12Z</time>
      </trkpt>
      <trkpt lat="47.07926" lon="8.48541">
        <ele>418.8</ele>
        <time>2023-02-12T09:40:13Z</time>
      </trkpt>
      <trkpt lat="47.07926" lon="8.48541">
        <ele>418.8</ele>
        <time>2023-02-12T09:40:14Z</time>
      </trkpt>
      <trkpt lat="47.07926" lon="8.48541">
        <ele>418.8</ele>
        <time>2023-02-12T09:40:15Z</time>
      </trkpt>
      <trkpt lat="47.07926" lon="8.48541">
        <ele>418.8</ele>
        <time>2023-02-12T09:40:16Z</time>
      </trkpt>
      <trkpt lat="47.07926" lon="8.48541">
        <ele>418.8</ele>
        <time>2023-02-12T09:40:17Z</time>
      </trkpt>
      <trkpt lat="47.07926" lon="8.48541">
        <ele>418.8</ele>
        <time>2023-02-12T09:40:18Z</time>
      </trkpt>
      <trkpt lat="47.07926" lon="8.48541">
        <ele>418.8</ele>
        <time>2023-02-12T09:40:19Z</time>
      </trkpt>
      <trkpt lat="47.07926" lon="8.48541">
        <ele>418.8</ele>
        <time>2023-02-12T09:40:20Z</time>
      </trkpt>
      <trkpt lat="47.07926" lon="8.48541">
        <ele>418.8</ele>
        <time>2023-02-12T09:40:21Z</time>
      </trkpt>
      <trkpt lat="47.07926" lon="8.48541">
        <ele>418.8</ele>
        <time>2023-02-12T09:40:22Z</time>
      </trkpt>
      <trkpt lat="47.07926" lon="8.48541">
        <ele>418.8</ele>
        <time>2023-02-12T09:40:23Z</time>
      </trkpt>
      <trkpt lat="47.07926" lon="8.48541">
        <ele>418.8</ele>
        <time>2023-02-12T09:40:24Z</time>
      </trkpt>
      <trkpt lat="47.07926" lon="8.48541">
        <ele>418.8</ele>
        <time>2023-02-12T09:40:25Z</time>
      </trkpt>
      <trkpt lat="47.07926" lon="8.48541">
        <ele>418.8</ele>
        <time>2023-02-12T09:40:26Z</time>
      </trkpt>
      <trkpt lat="47.07926" lon="8.48541">
        <ele>418.8</ele>
        <time>2023-02-12T09:40:27Z</time>
      </trkpt>
      <trkpt lat="47.07926" lon="8.48541">
        <ele>418.8</ele>
        <time>2023-02-12T09:40:28Z</time>
      </trkpt>
      <trkpt lat="47.07926" lon="8.48541">
        <ele>418.8</ele>
        <time>2023-02-12T09:40:29Z</time>
      </trkpt>
      <trkpt lat="47.07926" lon="8.48541">
        <ele>418.8</ele>
        <time>2023-02-12T09:40:30Z</time>
      </trkpt>
      <trkpt lat="47.07926" lon="8.48541">
        <ele>418.8</ele>
        <time>2023-02-12T09:40:31Z</time>
      </trkpt>
      <trkpt lat="47.07926" lon="8.48541">
        <ele>418.8</ele>
        <time>2023-02-12T09:40:32Z</time>
      </trkpt>
      <trkpt lat="47.07926" lon="8.48541">
        <ele>418.8</ele>
        <time>2023-02-12T09:40:33Z</time>
      </trkpt>
      <trkpt lat="47.07926" lon="8.48541">
        <ele>418.8</ele>
        <time>2023-02-12T09:40:34Z</time>
      </trkpt>
      <trkpt lat="47.07926" lon="8.48541">
        <ele>418.8</ele>
        <time>2023-02-12T09:40:35Z</time>
      </trkpt>
      <trkpt lat="47.07926" lon="8.48541">
        <ele>418.8</ele>
        <time>2023-02-12T09:40:36Z</time>
      </trkpt>
      <trkpt lat="47.07926" lon="8.48541">
        <ele>418.8</ele>
        <time>2023-02-12T09:40:37Z</time>
      </trkpt>
      <trkpt lat="47.07926" lon="8.48541">
        <ele>418.8</ele>
        <time>2023-02-12T09:40:38Z</time>
      </trkpt>
      <trkpt lat="47.07926" lon="8.48541">
        <ele>418.8</ele>
        <time>2023-02-12T09:40:39Z</time>
      </trkpt>
      <trkpt lat="47.07926" lon="8.48541">
        <ele>418.8</ele>
        <time>2023-02-12T09:40:40Z</time>
      </trkpt>
      <trkpt lat="47.07926" lon="8.48541">
        <ele>418.8</ele>
        <time>2023-02-12T09:40:41Z</time>
      </trkpt>
      <trkpt lat="47.07926" lon="8.48541">
        <ele>418.8</ele>
        <time>2023-02-12T09:40:42Z</time>
      </trkpt>
      <trkpt lat="47.07926" lon="8.48541">
        <ele>418.8</ele>
        <time>2023-02-12T09:40:43Z</time>
      </trkpt>
      <trkpt lat="47.07926" lon="8.48541">
        <ele>418.8</ele>
        <time>2023-02-12T09:40:44Z</time>
      </trkpt>
      <trkpt lat="47.07924" lon="8.48544">
        <ele>418.8</ele>
        <time>2023-02-12T09:40:45Z</time>
      </trkpt>
      <trkpt lat="47.07922" lon="8.48547">
        <ele>418.8</ele>
        <time>2023-02-12T09:40:46Z</time>
      </trkpt>
      <trkpt lat="47.0792" lon="8.48551">
        <ele>418.8</ele>
        <time>2023-02-12T09:40:47Z</time>
      </trkpt>
      <trkpt lat="47.07917" lon="8.48555">
        <ele>418.6</ele>
        <time>2023-02-12T09:40:48Z</time>
      </trkpt>
      <trkpt lat="47.07914" lon="8.48559">
        <ele>418.6</ele>
        <time>2023-02-12T09:40:49Z</time>
      </trkpt>
      <trkpt lat="47.07911" lon="8.48565">
        <ele>418.6</ele>
        <time>2023-02-12T09:40:50Z</time>
      </trkpt>
      <trkpt lat="47.07908" lon="8.48571">
        <ele>418.6</ele>
        <time>2023-02-12T09:40:51Z</time>
      </trkpt>
      <trkpt lat="47.07905" lon="8.48577">
        <ele>418.6</ele>
        <time>2023-02-12T09:40:52Z</time>
      </trkpt>
      <trkpt lat="47.07902" lon="8.48584">
        <ele>418.6</ele>
        <time>2023-02-12T09:40:53Z</time>
      </trkpt>
      <trkpt lat="47.079" lon="8.48592">
        <ele>418.6</ele>
        <time>2023-02-12T09:40:54Z</time>
      </trkpt>
      <trkpt lat="47.07898" lon="8.48599">
        <ele>418.6</ele>
        <time>2023-02-12T09:40:55Z</time>
      </trkpt>
      <trkpt lat="47.07895" lon="8.48608">
        <ele>418.6</ele>
        <time>2023-02-12T09:40:56Z</time>
      </trkpt>
      <trkpt lat="47.07894" lon="8.48618">
        <ele>418.6</ele>
        <time>2023-02-12T09:40:57Z</time>
      </trkpt>
      <trkpt lat="47.07892" lon="8.48626">
        <ele>418.6</ele>
        <time>2023-02-12T09:40:58Z</time>
      </trkpt>
      <trkpt lat="47.0789" lon="8.48634">
        <ele>418.6</ele>
        <time>2023-02-12T09:40:59Z</time>
      </trkpt>
      <trkpt lat="47.07888" lon="8.48642">
        <ele>418.6</ele>
        <time>2023-02-12T09:41:00Z</time>
      </trkpt>
      <trkpt lat="47.07886" lon="8.48648">
        <ele>418.6</ele>
        <time>2023-02-12T09:41:01Z</time>
      </trkpt>
      <trkpt lat="47.07885" lon="8.48655">
        <ele>418.8</ele>
        <time>2023-02-12T09:41:02Z</time>
      </trkpt>
      <trkpt lat="47.07883" lon="8.48662">
        <ele>419.2</ele>
        <time>2023-02-12T09:41:03Z</time>
      </trkpt>
      <trkpt lat="47.07882" lon="8.4867">
        <ele>419.4</ele>
        <time>2023-02-12T09:41:04Z</time>
      </trkpt>
      <trkpt lat="47.0788" lon="8.48678">
        <ele>419.8</ele>
        <time>2023-02-12T09:41:05Z</time>
      </trkpt>
      <trkpt lat="47.07879" lon="8.48686">
        <ele>420</ele>
        <time>2023-02-12T09:41:06Z</time>
      </trkpt>
      <trkpt lat="47.07878" lon="8.48694">
        <ele>420.2</ele>
        <time>2023-02-12T09:41:07Z</time>
      </trkpt>
      <trkpt lat="47.07877" lon="8.48702">
        <ele>420.4</ele>
        <time>2023-02-12T09:41:08Z</time>
      </trkpt>
      <trkpt lat="47.07876" lon="8.48709">
        <ele>420.4</ele>
        <time>2023-02-12T09:41:09Z</time>
      </trkpt>
      <trkpt lat="47.07874" lon="8.48717">
        <ele>420.6</ele>
        <time>2023-02-12T09:41:10Z</time>
      </trkpt>
      <trkpt lat="47.07873" lon="8.48724">
        <ele>420.8</ele>
        <time>2023-02-12T09:41:11Z</time>
      </trkpt>
      <trkpt lat="47.07872" lon="8.48729">
        <ele>420.8</ele>
        <time>2023-02-12T09:41:12Z</time>
      </trkpt>
      <trkpt lat="47.07871" lon="8.48735">
        <ele>420.8</ele>
        <time>2023-02-12T09:41:13Z</time>
      </trkpt>
      <trkpt lat="47.0787" lon="8.48742">
        <ele>421</ele>
        <time>2023-02-12T09:41:14Z</time>
      </trkpt>
      <trkpt lat="47.07869" lon="8.48747">
        <ele>421</ele>
        <time>2023-02-12T09:41:15Z</time>
      </trkpt>
      <trkpt lat="47.07868" lon="8.48752">
        <ele>421.2</ele>
        <time>2023-02-12T09:41:16Z</time>
      </trkpt>
      <trkpt lat="47.07867" lon="8.48756">
        <ele>421.2</ele>
        <time>2023-02-12T09:41:17Z</time>
      </trkpt>
      <trkpt lat="47.07867" lon="8.4876">
        <ele>421.2</ele>
        <time>2023-02-12T09:41:18Z</time>
      </trkpt>
      <trkpt lat="47.07866" lon="8.48763">
        <ele>421.2</ele>
        <time>2023-02-12T09:41:19Z</time>
      </trkpt>
      <trkpt lat="47.07865" lon="8.48767">
        <ele>421.2</ele>
        <time>2023-02-12T09:41:20Z</time>
      </trkpt>
      <trkpt lat="47.07864" lon="8.48772">
        <ele>421.2</ele>
        <time>2023-02-12T09:41:21Z</time>
      </trkpt>
      <trkpt lat="47.07863" lon="8.48776">
        <ele>421.2</ele>
        <time>2023-02-12T09:41:22Z</time>
      </trkpt>
      <trkpt lat="47.07862" lon="8.48781">
        <ele>421.2</ele>
        <time>2023-02-12T09:41:23Z</time>
      </trkpt>
      <trkpt lat="47.0786" lon="8.48786">
        <ele>421.2</ele>
        <time>2023-02-12T09:41:24Z</time>
      </trkpt>
      <trkpt lat="47.07859" lon="8.48791">
        <ele>421.2</ele>
        <time>2023-02-12T09:41:25Z</time>
      </trkpt>
      <trkpt lat="47.07858" lon="8.48796">
        <ele>421.2</ele>
        <time>2023-02-12T09:41:26Z</time>
      </trkpt>
      <trkpt lat="47.07856" lon="8.48802">
        <ele>421.2</ele>
        <time>2023-02-12T09:41:27Z</time>
      </trkpt>
      <trkpt lat="47.07854" lon="8.48808">
        <ele>421.2</ele>
        <time>2023-02-12T09:41:28Z</time>
      </trkpt>
      <trkpt lat="47.07852" lon="8.48815">
        <ele>421.2</ele>
        <time>2023-02-12T09:41:29Z</time>
      </trkpt>
      <trkpt lat="47.0785" lon="8.48821">
        <ele>421.2</ele>
        <time>2023-02-12T09:41:30Z</time>
      </trkpt>
      <trkpt lat="47.07848" lon="8.48826">
        <ele>421.2</ele>
        <time>2023-02-12T09:41:31Z</time>
      </trkpt>
      <trkpt lat="47.07846" lon="8.48833">
        <ele>421</ele>
        <time>2023-02-12T09:41:32Z</time>
      </trkpt>
      <trkpt lat="47.07843" lon="8.48838">
        <ele>421</ele>
        <time>2023-02-12T09:41:33Z</time>
      </trkpt>
      <trkpt lat="47.0784" lon="8.48845">
        <ele>421</ele>
        <time>2023-02-12T09:41:34Z</time>
      </trkpt>
      <trkpt lat="47.07837" lon="8.48851">
        <ele>421</ele>
        <time>2023-02-12T09:41:35Z</time>
      </trkpt>
      <trkpt lat="47.07834" lon="8.48856">
        <ele>421</ele>
        <time>2023-02-12T09:41:36Z</time>
      </trkpt>
      <trkpt lat="47.07831" lon="8.48861">
        <ele>421</ele>
        <time>2023-02-12T09:41:37Z</time>
      </trkpt>
      <trkpt lat="47.07828" lon="8.48866">
        <ele>421</ele>
        <time>2023-02-12T09:41:38Z</time>
      </trkpt>
      <trkpt lat="47.07825" lon="8.4887">
        <ele>421</ele>
        <time>2023-02-12T09:41:39Z</time>
      </trkpt>
      <trkpt lat="47.07822" lon="8.48875">
        <ele>421</ele>
        <time>2023-02-12T09:41:40Z</time>
      </trkpt>
      <trkpt lat="47.07818" lon="8.4888">
        <ele>421</ele>
        <time>2023-02-12T09:41:41Z</time>
      </trkpt>
      <trkpt lat="47.07815" lon="8.48884">
        <ele>421</ele>
        <time>2023-02-12T09:41:42Z</time>
      </trkpt>
      <trkpt lat="47.07811" lon="8.48889">
        <ele>421</ele>
        <time>2023-02-12T09:41:43Z</time>
      </trkpt>
      <trkpt lat="47.07808" lon="8.48893">
        <ele>421</ele>
        <time>2023-02-12T09:41:44Z</time>
      </trkpt>
      <trkpt lat="47.07804" lon="8.48897">
        <ele>421</ele>
        <time>2023-02-12T09:41:45Z</time>
      </trkpt>
      <trkpt lat="47.078" lon="8.48901">
        <ele>421</ele>
        <time>2023-02-12T09:41:46Z</time>
      </trkpt>
      <trkpt lat="47.07796" lon="8.48905">
        <ele>421</ele>
        <time>2023-02-12T09:41:47Z</time>
      </trkpt>
      <trkpt lat="47.07791" lon="8.48909">
        <ele>421</ele>
        <time>2023-02-12T09:41:48Z</time>
      </trkpt>
      <trkpt lat="47.07787" lon="8.48913">
        <ele>420.8</ele>
        <time>2023-02-12T09:41:49Z</time>
      </trkpt>
      <trkpt lat="47.07783" lon="8.48916">
        <ele>420.8</ele>
        <time>2023-02-12T09:41:50Z</time>
      </trkpt>
      <trkpt lat="47.07779" lon="8.48919">
        <ele>420.8</ele>
        <time>2023-02-12T09:41:51Z</time>
      </trkpt>
      <trkpt lat="47.07775" lon="8.48922">
        <ele>420.8</ele>
        <time>2023-02-12T09:41:52Z</time>
      </trkpt>
      <trkpt lat="47.0777" lon="8.48925">
        <ele>420.8</ele>
        <time>2023-02-12T09:41:53Z</time>
      </trkpt>
      <trkpt lat="47.07766" lon="8.48928">
        <ele>420.8</ele>
        <time>2023-02-12T09:41:54Z</time>
      </trkpt>
      <trkpt lat="47.07761" lon="8.4893">
        <ele>420.8</ele>
        <time>2023-02-12T09:41:55Z</time>
      </trkpt>
      <trkpt lat="47.07756" lon="8.48932">
        <ele>420.6</ele>
        <time>2023-02-12T09:41:56Z</time>
      </trkpt>
      <trkpt lat="47.07751" lon="8.48935">
        <ele>420.6</ele>
        <time>2023-02-12T09:41:57Z</time>
      </trkpt>
      <trkpt lat="47.07746" lon="8.48937">
        <ele>420.6</ele>
        <time>2023-02-12T09:41:58Z</time>
      </trkpt>
      <trkpt lat="47.0774" lon="8.4894">
        <ele>420.6</ele>
        <time>2023-02-12T09:41:59Z</time>
      </trkpt>
      <trkpt lat="47.07735" lon="8.48943">
        <ele>420.6</ele>
        <time>2023-02-12T09:42:00Z</time>
      </trkpt>
      <trkpt lat="47.0773" lon="8.48946">
        <ele>420.6</ele>
        <time>2023-02-12T09:42:01Z</time>
      </trkpt>
      <trkpt lat="47.07726" lon="8.48949">
        <ele>420.6</ele>
        <time>2023-02-12T09:42:02Z</time>
      </trkpt>
      <trkpt lat="47.07721" lon="8.48951">
        <ele>420.4</ele>
        <time>2023-02-12T09:42:03Z</time>
      </trkpt>
      <trkpt lat="47.07716" lon="8.48954">
        <ele>420.4</ele>
        <time>2023-02-12T09:42:04Z</time>
      </trkpt>
      <trkpt lat="47.07711" lon="8.48957">
        <ele>420.2</ele>
        <time>2023-02-12T09:42:05Z</time>
      </trkpt>
      <trkpt lat="47.07707" lon="8.4896">
        <ele>420.2</ele>
        <time>2023-02-12T09:42:06Z</time>
      </trkpt>
      <trkpt lat="47.07702" lon="8.48963">
        <ele>420</ele>
        <time>2023-02-12T09:42:07Z</time>
      </trkpt>
      <trkpt lat="47.07697" lon="8.48966">
        <ele>420</ele>
        <time>2023-02-12T09:42:08Z</time>
      </trkpt>
      <trkpt lat="47.07692" lon="8.4897">
        <ele>419.8</ele>
        <time>2023-02-12T09:42:09Z</time>
      </trkpt>
      <trkpt lat="47.07687" lon="8.48974">
        <ele>419.8</ele>
        <time>2023-02-12T09:42:10Z</time>
      </trkpt>
      <trkpt lat="47.07682" lon="8.48978">
        <ele>419.8</ele>
        <time>2023-02-12T09:42:11Z</time>
      </trkpt>
      <trkpt lat="47.07678" lon="8.48983">
        <ele>419.8</ele>
        <time>2023-02-12T09:42:12Z</time>
      </trkpt>
      <trkpt lat="47.07673" lon="8.48987">
        <ele>419.8</ele>
        <time>2023-02-12T09:42:13Z</time>
      </trkpt>
      <trkpt lat="47.07669" lon="8.48992">
        <ele>419.6</ele>
        <time>2023-02-12T09:42:14Z</time>
      </trkpt>
      <trkpt lat="47.07664" lon="8.48997">
        <ele>419.6</ele>
        <time>2023-02-12T09:42:15Z</time>
      </trkpt>
      <trkpt lat="47.07659" lon="8.49002">
        <ele>419.6</ele>
        <time>2023-02-12T09:42:16Z</time>
      </trkpt>
      <trkpt lat="47.07655" lon="8.49008">
        <ele>419.6</ele>
        <time>2023-02-12T09:42:17Z</time>
      </trkpt>
      <trkpt lat="47.07651" lon="8.49013">
        <ele>419.4</ele>
        <time>2023-02-12T09:42:18Z</time>
      </trkpt>
      <trkpt lat="47.07647" lon="8.49018">
        <ele>419.4</ele>
        <time>2023-02-12T09:42:19Z</time>
      </trkpt>
      <trkpt lat="47.07643" lon="8.49024">
        <ele>419.4</ele>
        <time>2023-02-12T09:42:20Z</time>
      </trkpt>
      <trkpt lat="47.0764" lon="8.4903">
        <ele>419.4</ele>
        <time>2023-02-12T09:42:21Z</time>
      </trkpt>
      <trkpt lat="47.07636" lon="8.49036">
        <ele>419.4</ele>
        <time>2023-02-12T09:42:22Z</time>
      </trkpt>
      <trkpt lat="47.07632" lon="8.49043">
        <ele>419.4</ele>
        <time>2023-02-12T09:42:23Z</time>
      </trkpt>
      <trkpt lat="47.07628" lon="8.49049">
        <ele>419.4</ele>
        <time>2023-02-12T09:42:24Z</time>
      </trkpt>
      <trkpt lat="47.07624" lon="8.49055">
        <ele>419.4</ele>
        <time>2023-02-12T09:42:25Z</time>
      </trkpt>
      <trkpt lat="47.07621" lon="8.49061">
        <ele>419.4</ele>
        <time>2023-02-12T09:42:26Z</time>
      </trkpt>
      <trkpt lat="47.07617" lon="8.49066">
        <ele>419.4</ele>
        <time>2023-02-12T09:42:27Z</time>
      </trkpt>
      <trkpt lat="47.07613" lon="8.49072">
        <ele>419.4</ele>
        <time>2023-02-12T09:42:28Z</time>
      </trkpt>
      <trkpt lat="47.07609" lon="8.49078">
        <ele>419.4</ele>
        <time>2023-02-12T09:42:29Z</time>
      </trkpt>
      <trkpt lat="47.07606" lon="8.49085">
        <ele>419.4</ele>
        <time>2023-02-12T09:42:30Z</time>
      </trkpt>
      <trkpt lat="47.07602" lon="8.49091">
        <ele>419.4</ele>
        <time>2023-02-12T09:42:31Z</time>
      </trkpt>
      <trkpt lat="47.07598" lon="8.49097">
        <ele>419.4</ele>
        <time>2023-02-12T09:42:32Z</time>
      </trkpt>
      <trkpt lat="47.07594" lon="8.49103">
        <ele>419.4</ele>
        <time>2023-02-12T09:42:33Z</time>
      </trkpt>
      <trkpt lat="47.0759" lon="8.49109">
        <ele>419.4</ele>
        <time>2023-02-12T09:42:34Z</time>
      </trkpt>
      <trkpt lat="47.07587" lon="8.49115">
        <ele>419.4</ele>
        <time>2023-02-12T09:42:35Z</time>
      </trkpt>
      <trkpt lat="47.07583" lon="8.49121">
        <ele>419.6</ele>
        <time>2023-02-12T09:42:36Z</time>
      </trkpt>
      <trkpt lat="47.07579" lon="8.49127">
        <ele>419.6</ele>
        <time>2023-02-12T09:42:37Z</time>
      </trkpt>
      <trkpt lat="47.07576" lon="8.49133">
        <ele>419.6</ele>
        <time>2023-02-12T09:42:38Z</time>
      </trkpt>
      <trkpt lat="47.07572" lon="8.4914">
        <ele>419.6</ele>
        <time>2023-02-12T09:42:39Z</time>
      </trkpt>
      <trkpt lat="47.07569" lon="8.49146">
        <ele>419.6</ele>
        <time>2023-02-12T09:42:40Z</time>
      </trkpt>
      <trkpt lat="47.07565" lon="8.49152">
        <ele>419.6</ele>
        <time>2023-02-12T09:42:41Z</time>
      </trkpt>
      <trkpt lat="47.07562" lon="8.49158">
        <ele>419.6</ele>
        <time>2023-02-12T09:42:42Z</time>
      </trkpt>
      <trkpt lat="47.07558" lon="8.49165">
        <ele>419.8</ele>
        <time>2023-02-12T09:42:43Z</time>
      </trkpt>
      <trkpt lat="47.07555" lon="8.49172">
        <ele>419.8</ele>
        <time>2023-02-12T09:42:44Z</time>
      </trkpt>
      <trkpt lat="47.07552" lon="8.49179">
        <ele>419.8</ele>
        <time>2023-02-12T09:42:45Z</time>
      </trkpt>
      <trkpt lat="47.07548" lon="8.49185">
        <ele>420</ele>
        <time>2023-02-12T09:42:46Z</time>
      </trkpt>
      <trkpt lat="47.07545" lon="8.49192">
        <ele>420</ele>
        <time>2023-02-12T09:42:47Z</time>
      </trkpt>
      <trkpt lat="47.07542" lon="8.49199">
        <ele>420.2</ele>
        <time>2023-02-12T09:42:48Z</time>
      </trkpt>
      <trkpt lat="47.07539" lon="8.49205">
        <ele>420.2</ele>
        <time>2023-02-12T09:42:49Z</time>
      </trkpt>
      <trkpt lat="47.07536" lon="8.49212">
        <ele>420.2</ele>
        <time>2023-02-12T09:42:50Z</time>
      </trkpt>
      <trkpt lat="47.07534" lon="8.49218">
        <ele>420.4</ele>
        <time>2023-02-12T09:42:51Z</time>
      </trkpt>
      <trkpt lat="47.07531" lon="8.49224">
        <ele>420.4</ele>
        <time>2023-02-12T09:42:52Z</time>
      </trkpt>
      <trkpt lat="47.07528" lon="8.49231">
        <ele>420.4</ele>
        <time>2023-02-12T09:42:53Z</time>
      </trkpt>
      <trkpt lat="47.07526" lon="8.49238">
        <ele>420.6</ele>
        <time>2023-02-12T09:42:54Z</time>
      </trkpt>
      <trkpt lat="47.07523" lon="8.49245">
        <ele>420.6</ele>
        <time>2023-02-12T09:42:55Z</time>
      </trkpt>
      <trkpt lat="47.07521" lon="8.49252">
        <ele>420.6</ele>
        <time>2023-02-12T09:42:56Z</time>
      </trkpt>
      <trkpt lat="47.07518" lon="8.49259">
        <ele>420.6</ele>
        <time>2023-02-12T09:42:57Z</time>
      </trkpt>
      <trkpt lat="47.07516" lon="8.49266">
        <ele>420.6</ele>
        <time>2023-02-12T09:42:58Z</time>
      </trkpt>
      <trkpt lat="47.07514" lon="8.49273">
        <ele>420.4</ele>
        <time>2023-02-12T09:42:59Z</time>
      </trkpt>
      <trkpt lat="47.07511" lon="8.4928">
        <ele>420.4</ele>
        <time>2023-02-12T09:43:00Z</time>
      </trkpt>
      <trkpt lat="47.07509" lon="8.49288">
        <ele>420.4</ele>
        <time>2023-02-12T09:43:01Z</time>
      </trkpt>
      <trkpt lat="47.07506" lon="8.49295">
        <ele>420.4</ele>
        <time>2023-02-12T09:43:02Z</time>
      </trkpt>
      <trkpt lat="47.07504" lon="8.49301">
        <ele>420.4</ele>
        <time>2023-02-12T09:43:03Z</time>
      </trkpt>
      <trkpt lat="47.07501" lon="8.49308">
        <ele>420.4</ele>
        <time>2023-02-12T09:43:04Z</time>
      </trkpt>
      <trkpt lat="47.07499" lon="8.49316">
        <ele>420.4</ele>
        <time>2023-02-12T09:43:05Z</time>
      </trkpt>
      <trkpt lat="47.07496" lon="8.49322">
        <ele>420.4</ele>
        <time>2023-02-12T09:43:06Z</time>
      </trkpt>
      <trkpt lat="47.07494" lon="8.49329">
        <ele>420.4</ele>
        <time>2023-02-12T09:43:07Z</time>
      </trkpt>
      <trkpt lat="47.07491" lon="8.49336">
        <ele>420.4</ele>
        <time>2023-02-12T09:43:08Z</time>
      </trkpt>
      <trkpt lat="47.07488" lon="8.49342">
        <ele>420.4</ele>
        <time>2023-02-12T09:43:09Z</time>
      </trkpt>
      <trkpt lat="47.07486" lon="8.49349">
        <ele>420.4</ele>
        <time>2023-02-12T09:43:10Z</time>
      </trkpt>
      <trkpt lat="47.07483" lon="8.49356">
        <ele>420.4</ele>
        <time>2023-02-12T09:43:11Z</time>
      </trkpt>
      <trkpt lat="47.07479" lon="8.49362">
        <ele>420.4</ele>
        <time>2023-02-12T09:43:12Z</time>
      </trkpt>
      <trkpt lat="47.07476" lon="8.49369">
        <ele>420.4</ele>
        <time>2023-02-12T09:43:13Z</time>
      </trkpt>
      <trkpt lat="47.07473" lon="8.49376">
        <ele>420.4</ele>
        <time>2023-02-12T09:43:14Z</time>
      </trkpt>
      <trkpt lat="47.07469" lon="8.49381">
        <ele>420.4</ele>
        <time>2023-02-12T09:43:15Z</time>
      </trkpt>
      <trkpt lat="47.07466" lon="8.49388">
        <ele>420.4</ele>
        <time>2023-02-12T09:43:16Z</time>
      </trkpt>
      <trkpt lat="47.07463" lon="8.49394">
        <ele>420.4</ele>
        <time>2023-02-12T09:43:17Z</time>
      </trkpt>
      <trkpt lat="47.07459" lon="8.494">
        <ele>420.4</ele>
        <time>2023-02-12T09:43:18Z</time>
      </trkpt>
      <trkpt lat="47.07455" lon="8.49406">
        <ele>420.4</ele>
        <time>2023-02-12T09:43:19Z</time>
      </trkpt>
      <trkpt lat="47.07451" lon="8.49412">
        <ele>420.2</ele>
        <time>2023-02-12T09:43:20Z</time>
      </trkpt>
      <trkpt lat="47.07448" lon="8.49417">
        <ele>420.2</ele>
        <time>2023-02-12T09:43:21Z</time>
      </trkpt>
      <trkpt lat="47.07444" lon="8.49423">
        <ele>420</ele>
        <time>2023-02-12T09:43:22Z</time>
      </trkpt>
      <trkpt lat="47.0744" lon="8.49429">
        <ele>420</ele>
        <time>2023-02-12T09:43:23Z</time>
      </trkpt>
      <trkpt lat="47.07436" lon="8.49435">
        <ele>420</ele>
        <time>2023-02-12T09:43:24Z</time>
      </trkpt>
      <trkpt lat="47.07433" lon="8.49441">
        <ele>420</ele>
        <time>2023-02-12T09:43:25Z</time>
      </trkpt>
      <trkpt lat="47.07429" lon="8.49447">
        <ele>420</ele>
        <time>2023-02-12T09:43:26Z</time>
      </trkpt>
      <trkpt lat="47.07425" lon="8.49453">
        <ele>420</ele>
        <time>2023-02-12T09:43:27Z</time>
      </trkpt>
      <trkpt lat="47.07421" lon="8.49458">
        <ele>420</ele>
        <time>2023-02-12T09:43:28Z</time>
      </trkpt>
      <trkpt lat="47.07417" lon="8.49463">
        <ele>420</ele>
        <time>2023-02-12T09:43:29Z</time>
      </trkpt>
      <trkpt lat="47.07413" lon="8.49468">
        <ele>419.8</ele>
        <time>2023-02-12T09:43:30Z</time>
      </trkpt>
      <trkpt lat="47.0741" lon="8.49474">
        <ele>419.8</ele>
        <time>2023-02-12T09:43:31Z</time>
      </trkpt>
      <trkpt lat="47.07406" lon="8.4948">
        <ele>419.8</ele>
        <time>2023-02-12T09:43:32Z</time>
      </trkpt>
      <trkpt lat="47.07402" lon="8.49486">
        <ele>419.8</ele>
        <time>2023-02-12T09:43:33Z</time>
      </trkpt>
      <trkpt lat="47.07398" lon="8.49491">
        <ele>419.8</ele>
        <time>2023-02-12T09:43:34Z</time>
      </trkpt>
      <trkpt lat="47.07395" lon="8.49497">
        <ele>419.8</ele>
        <time>2023-02-12T09:43:35Z</time>
      </trkpt>
      <trkpt lat="47.07391" lon="8.49502">
        <ele>419.8</ele>
        <time>2023-02-12T09:43:36Z</time>
      </trkpt>
      <trkpt lat="47.07388" lon="8.49507">
        <ele>419.8</ele>
        <time>2023-02-12T09:43:37Z</time>
      </trkpt>
      <trkpt lat="47.07384" lon="8.49512">
        <ele>419.8</ele>
        <time>2023-02-12T09:43:38Z</time>
      </trkpt>
      <trkpt lat="47.07381" lon="8.49517">
        <ele>419.8</ele>
        <time>2023-02-12T09:43:39Z</time>
      </trkpt>
      <trkpt lat="47.07377" lon="8.49522">
        <ele>419.6</ele>
        <time>2023-02-12T09:43:40Z</time>
      </trkpt>
      <trkpt lat="47.07374" lon="8.49527">
        <ele>419.6</ele>
        <time>2023-02-12T09:43:41Z</time>
      </trkpt>
      <trkpt lat="47.0737" lon="8.49533">
        <ele>419.6</ele>
        <time>2023-02-12T09:43:42Z</time>
      </trkpt>
      <trkpt lat="47.07366" lon="8.49539">
        <ele>419.6</ele>
        <time>2023-02-12T09:43:43Z</time>
      </trkpt>
      <trkpt lat="47.07363" lon="8.49545">
        <ele>419.6</ele>
        <time>2023-02-12T09:43:44Z</time>
      </trkpt>
      <trkpt lat="47.07359" lon="8.49551">
        <ele>419.6</ele>
        <time>2023-02-12T09:43:45Z</time>
      </trkpt>
      <trkpt lat="47.07355" lon="8.49557">
        <ele>419.4</ele>
        <time>2023-02-12T09:43:46Z</time>
      </trkpt>
      <trkpt lat="47.07351" lon="8.49563">
        <ele>419.4</ele>
        <time>2023-02-12T09:43:47Z</time>
      </trkpt>
      <trkpt lat="47.07348" lon="8.49569">
        <ele>419.4</ele>
        <time>2023-02-12T09:43:48Z</time>
      </trkpt>
      <trkpt lat="47.07344" lon="8.49575">
        <ele>419.4</ele>
        <time>2023-02-12T09:43:49Z</time>
      </trkpt>
      <trkpt lat="47.0734" lon="8.49582">
        <ele>419.4</ele>
        <time>2023-02-12T09:43:50Z</time>
      </trkpt>
      <trkpt lat="47.07337" lon="8.49589">
        <ele>419.4</ele>
        <time>2023-02-12T09:43:51Z</time>
      </trkpt>
      <trkpt lat="47.07333" lon="8.49595">
        <ele>419.4</ele>
        <time>2023-02-12T09:43:52Z</time>
      </trkpt>
      <trkpt lat="47.0733" lon="8.49602">
        <ele>419.4</ele>
        <time>2023-02-12T09:43:53Z</time>
      </trkpt>
      <trkpt lat="47.07326" lon="8.49609">
        <ele>419.4</ele>
        <time>2023-02-12T09:43:54Z</time>
      </trkpt>
      <trkpt lat="47.07323" lon="8.49615">
        <ele>419.4</ele>
        <time>2023-02-12T09:43:55Z</time>
      </trkpt>
      <trkpt lat="47.07319" lon="8.49622">
        <ele>419.6</ele>
        <time>2023-02-12T09:43:56Z</time>
      </trkpt>
      <trkpt lat="47.07316" lon="8.49629">
        <ele>419.6</ele>
        <time>2023-02-12T09:43:57Z</time>
      </trkpt>
      <trkpt lat="47.07313" lon="8.49635">
        <ele>419.6</ele>
        <time>2023-02-12T09:43:58Z</time>
      </trkpt>
      <trkpt lat="47.0731" lon="8.49643">
        <ele>419.6</ele>
        <time>2023-02-12T09:43:59Z</time>
      </trkpt>
      <trkpt lat="47.07307" lon="8.49649">
        <ele>419.6</ele>
        <time>2023-02-12T09:44:00Z</time>
      </trkpt>
      <trkpt lat="47.07304" lon="8.49656">
        <ele>419.8</ele>
        <time>2023-02-12T09:44:01Z</time>
      </trkpt>
      <trkpt lat="47.073" lon="8.49664">
        <ele>419.8</ele>
        <time>2023-02-12T09:44:02Z</time>
      </trkpt>
      <trkpt lat="47.07297" lon="8.4967">
        <ele>419.8</ele>
        <time>2023-02-12T09:44:03Z</time>
      </trkpt>
      <trkpt lat="47.07293" lon="8.49677">
        <ele>419.8</ele>
        <time>2023-02-12T09:44:04Z</time>
      </trkpt>
      <trkpt lat="47.0729" lon="8.49684">
        <ele>419.8</ele>
        <time>2023-02-12T09:44:05Z</time>
      </trkpt>
      <trkpt lat="47.07287" lon="8.49691">
        <ele>420</ele>
        <time>2023-02-12T09:44:06Z</time>
      </trkpt>
      <trkpt lat="47.07284" lon="8.49698">
        <ele>420</ele>
        <time>2023-02-12T09:44:07Z</time>
      </trkpt>
      <trkpt lat="47.07281" lon="8.49704">
        <ele>420.2</ele>
        <time>2023-02-12T09:44:08Z</time>
      </trkpt>
      <trkpt lat="47.07278" lon="8.49711">
        <ele>420.2</ele>
        <time>2023-02-12T09:44:09Z</time>
      </trkpt>
      <trkpt lat="47.07275" lon="8.49717">
        <ele>420.4</ele>
        <time>2023-02-12T09:44:10Z</time>
      </trkpt>
      <trkpt lat="47.07272" lon="8.49724">
        <ele>420.4</ele>
        <time>2023-02-12T09:44:11Z</time>
      </trkpt>
      <trkpt lat="47.07268" lon="8.49731">
        <ele>420.6</ele>
        <time>2023-02-12T09:44:12Z</time>
      </trkpt>
      <trkpt lat="47.07265" lon="8.49738">
        <ele>420.6</ele>
        <time>2023-02-12T09:44:13Z</time>
      </trkpt>
      <trkpt lat="47.07262" lon="8.49745">
        <ele>420.6</ele>
        <time>2023-02-12T09:44:14Z</time>
      </trkpt>
      <trkpt lat="47.07259" lon="8.49751">
        <ele>420.8</ele>
        <time>2023-02-12T09:44:15Z</time>
      </trkpt>
      <trkpt lat="47.07256" lon="8.49759">
        <ele>420.8</ele>
        <time>2023-02-12T09:44:16Z</time>
      </trkpt>
      <trkpt lat="47.07252" lon="8.49766">
        <ele>421</ele>
        <time>2023-02-12T09:44:17Z</time>
      </trkpt>
      <trkpt lat="47.07249" lon="8.49773">
        <ele>421</ele>
        <time>2023-02-12T09:44:18Z</time>
      </trkpt>
      <trkpt lat="47.07246" lon="8.4978">
        <ele>421.2</ele>
        <time>2023-02-12T09:44:19Z</time>
      </trkpt>
      <trkpt lat="47.07243" lon="8.49787">
        <ele>421.2</ele>
        <time>2023-02-12T09:44:20Z</time>
      </trkpt>
      <trkpt lat="47.07241" lon="8.49794">
        <ele>421.2</ele>
        <time>2023-02-12T09:44:21Z</time>
      </trkpt>
      <trkpt lat="47.07238" lon="8.49801">
        <ele>421.4</ele>
        <time>2023-02-12T09:44:22Z</time>
      </trkpt>
      <trkpt lat="47.07236" lon="8.49809">
        <ele>421.4</ele>
        <time>2023-02-12T09:44:23Z</time>
      </trkpt>
      <trkpt lat="47.07234" lon="8.49815">
        <ele>421.4</ele>
        <time>2023-02-12T09:44:24Z</time>
      </trkpt>
      <trkpt lat="47.07232" lon="8.49823">
        <ele>421.6</ele>
        <time>2023-02-12T09:44:25Z</time>
      </trkpt>
      <trkpt lat="47.0723" lon="8.49831">
        <ele>421.6</ele>
        <time>2023-02-12T09:44:26Z</time>
      </trkpt>
      <trkpt lat="47.07228" lon="8.49839">
        <ele>421.8</ele>
        <time>2023-02-12T09:44:27Z</time>
      </trkpt>
      <trkpt lat="47.07226" lon="8.49846">
        <ele>421.8</ele>
        <time>2023-02-12T09:44:28Z</time>
      </trkpt>
      <trkpt lat="47.07224" lon="8.49853">
        <ele>422</ele>
        <time>2023-02-12T09:44:29Z</time>
      </trkpt>
      <trkpt lat="47.07222" lon="8.49859">
        <ele>422</ele>
        <time>2023-02-12T09:44:30Z</time>
      </trkpt>
      <trkpt lat="47.07221" lon="8.49866">
        <ele>422.2</ele>
        <time>2023-02-12T09:44:31Z</time>
      </trkpt>
      <trkpt lat="47.07219" lon="8.49872">
        <ele>422.2</ele>
        <time>2023-02-12T09:44:32Z</time>
      </trkpt>
      <trkpt lat="47.07217" lon="8.49878">
        <ele>422.2</ele>
        <time>2023-02-12T09:44:33Z</time>
      </trkpt>
      <trkpt lat="47.07215" lon="8.49885">
        <ele>422.2</ele>
        <time>2023-02-12T09:44:34Z</time>
      </trkpt>
      <trkpt lat="47.07213" lon="8.49892">
        <ele>422.4</ele>
        <time>2023-02-12T09:44:35Z</time>
      </trkpt>
      <trkpt lat="47.07211" lon="8.49899">
        <ele>422.4</ele>
        <time>2023-02-12T09:44:36Z</time>
      </trkpt>
      <trkpt lat="47.07209" lon="8.49906">
        <ele>422.6</ele>
        <time>2023-02-12T09:44:37Z</time>
      </trkpt>
      <trkpt lat="47.07208" lon="8.49913">
        <ele>422.6</ele>
        <time>2023-02-12T09:44:38Z</time>
      </trkpt>
      <trkpt lat="47.07206" lon="8.4992">
        <ele>422.6</ele>
        <time>2023-02-12T09:44:39Z</time>
      </trkpt>
      <trkpt lat="47.07204" lon="8.49927">
        <ele>422.6</ele>
        <time>2023-02-12T09:44:40Z</time>
      </trkpt>
      <trkpt lat="47.07202" lon="8.49934">
        <ele>422.6</ele>
        <time>2023-02-12T09:44:41Z</time>
      </trkpt>
      <trkpt lat="47.072" lon="8.49941">
        <ele>422.6</ele>
        <time>2023-02-12T09:44:42Z</time>
      </trkpt>
      <trkpt lat="47.07198" lon="8.49947">
        <ele>422.6</ele>
        <time>2023-02-12T09:44:43Z</time>
      </trkpt>
      <trkpt lat="47.07196" lon="8.49955">
        <ele>422.6</ele>
        <time>2023-02-12T09:44:44Z</time>
      </trkpt>
      <trkpt lat="47.07194" lon="8.49962">
        <ele>422.6</ele>
        <time>2023-02-12T09:44:45Z</time>
      </trkpt>
      <trkpt lat="47.07191" lon="8.49969">
        <ele>422.6</ele>
        <time>2023-02-12T09:44:46Z</time>
      </trkpt>
      <trkpt lat="47.07189" lon="8.49977">
        <ele>422.4</ele>
        <time>2023-02-12T09:44:47Z</time>
      </trkpt>
      <trkpt lat="47.07186" lon="8.49984">
        <ele>422.2</ele>
        <time>2023-02-12T09:44:48Z</time>
      </trkpt>
      <trkpt lat="47.07183" lon="8.49991">
        <ele>422.2</ele>
        <time>2023-02-12T09:44:49Z</time>
      </trkpt>
      <trkpt lat="47.0718" lon="8.49998">
        <ele>422</ele>
        <time>2023-02-12T09:44:50Z</time>
      </trkpt>
      <trkpt lat="47.07177" lon="8.50005">
        <ele>422</ele>
        <time>2023-02-12T09:44:51Z</time>
      </trkpt>
      <trkpt lat="47.07174" lon="8.50012">
        <ele>421.8</ele>
        <time>2023-02-12T09:44:52Z</time>
      </trkpt>
      <trkpt lat="47.07171" lon="8.50019">
        <ele>421.8</ele>
        <time>2023-02-12T09:44:53Z</time>
      </trkpt>
      <trkpt lat="47.07167" lon="8.50026">
        <ele>421.8</ele>
        <time>2023-02-12T09:44:54Z</time>
      </trkpt>
      <trkpt lat="47.07163" lon="8.50033">
        <ele>421.6</ele>
        <time>2023-02-12T09:44:55Z</time>
      </trkpt>
      <trkpt lat="47.0716" lon="8.5004">
        <ele>421.6</ele>
        <time>2023-02-12T09:44:56Z</time>
      </trkpt>
      <trkpt lat="47.07156" lon="8.50047">
        <ele>421.6</ele>
        <time>2023-02-12T09:44:57Z</time>
      </trkpt>
      <trkpt lat="47.07151" lon="8.50054">
        <ele>421.4</ele>
        <time>2023-02-12T09:44:58Z</time>
      </trkpt>
      <trkpt lat="47.07147" lon="8.50061">
        <ele>421.4</ele>
        <time>2023-02-12T09:44:59Z</time>
      </trkpt>
      <trkpt lat="47.07143" lon="8.50069">
        <ele>421.2</ele>
        <time>2023-02-12T09:45:00Z</time>
      </trkpt>
      <trkpt lat="47.07138" lon="8.50076">
        <ele>421</ele>
        <time>2023-02-12T09:45:01Z</time>
      </trkpt>
      <trkpt lat="47.07134" lon="8.50082">
        <ele>420.8</ele>
        <time>2023-02-12T09:45:02Z</time>
      </trkpt>
      <trkpt lat="47.0713" lon="8.50089">
        <ele>420.6</ele>
        <time>2023-02-12T09:45:03Z</time>
      </trkpt>
      <trkpt lat="47.07126" lon="8.50096">
        <ele>420.6</ele>
        <time>2023-02-12T09:45:04Z</time>
      </trkpt>
      <trkpt lat="47.07122" lon="8.50103">
        <ele>420.4</ele>
        <time>2023-02-12T09:45:05Z</time>
      </trkpt>
      <trkpt lat="47.07117" lon="8.50109">
        <ele>420.2</ele>
        <time>2023-02-12T09:45:06Z</time>
      </trkpt>
      <trkpt lat="47.07113" lon="8.50116">
        <ele>420</ele>
        <time>2023-02-12T09:45:07Z</time>
      </trkpt>
      <trkpt lat="47.07109" lon="8.50122">
        <ele>419.8</ele>
        <time>2023-02-12T09:45:08Z</time>
      </trkpt>
      <trkpt lat="47.07104" lon="8.50129">
        <ele>419.8</ele>
        <time>2023-02-12T09:45:09Z</time>
      </trkpt>
      <trkpt lat="47.071" lon="8.50136">
        <ele>419.8</ele>
        <time>2023-02-12T09:45:10Z</time>
      </trkpt>
      <trkpt lat="47.07095" lon="8.50143">
        <ele>419.8</ele>
        <time>2023-02-12T09:45:11Z</time>
      </trkpt>
      <trkpt lat="47.07091" lon="8.50149">
        <ele>419.8</ele>
        <time>2023-02-12T09:45:12Z</time>
      </trkpt>
      <trkpt lat="47.07087" lon="8.50157">
        <ele>419.6</ele>
        <time>2023-02-12T09:45:13Z</time>
      </trkpt>
      <trkpt lat="47.07083" lon="8.50164">
        <ele>419.6</ele>
        <time>2023-02-12T09:45:14Z</time>
      </trkpt>
      <trkpt lat="47.07079" lon="8.50171">
        <ele>419.6</ele>
        <time>2023-02-12T09:45:15Z</time>
      </trkpt>
      <trkpt lat="47.07075" lon="8.50177">
        <ele>419.6</ele>
        <time>2023-02-12T09:45:16Z</time>
      </trkpt>
      <trkpt lat="47.07071" lon="8.50184">
        <ele>419.6</ele>
        <time>2023-02-12T09:45:17Z</time>
      </trkpt>
      <trkpt lat="47.07068" lon="8.50191">
        <ele>419.6</ele>
        <time>2023-02-12T09:45:18Z</time>
      </trkpt>
      <trkpt lat="47.07064" lon="8.50198">
        <ele>419.8</ele>
        <time>2023-02-12T09:45:19Z</time>
      </trkpt>
      <trkpt lat="47.07061" lon="8.50205">
        <ele>419.8</ele>
        <time>2023-02-12T09:45:20Z</time>
      </trkpt>
      <trkpt lat="47.07058" lon="8.50211">
        <ele>419.8</ele>
        <time>2023-02-12T09:45:21Z</time>
      </trkpt>
      <trkpt lat="47.07055" lon="8.50219">
        <ele>419.8</ele>
        <time>2023-02-12T09:45:22Z</time>
      </trkpt>
      <trkpt lat="47.07052" lon="8.50226">
        <ele>419.8</ele>
        <time>2023-02-12T09:45:23Z</time>
      </trkpt>
      <trkpt lat="47.0705" lon="8.50233">
        <ele>419.8</ele>
        <time>2023-02-12T09:45:24Z</time>
      </trkpt>
      <trkpt lat="47.07048" lon="8.50241">
        <ele>419.8</ele>
        <time>2023-02-12T09:45:25Z</time>
      </trkpt>
      <trkpt lat="47.07046" lon="8.50249">
        <ele>419.8</ele>
        <time>2023-02-12T09:45:26Z</time>
      </trkpt>
      <trkpt lat="47.07045" lon="8.50256">
        <ele>419.8</ele>
        <time>2023-02-12T09:45:27Z</time>
      </trkpt>
      <trkpt lat="47.07044" lon="8.50265">
        <ele>420</ele>
        <time>2023-02-12T09:45:28Z</time>
      </trkpt>
      <trkpt lat="47.07043" lon="8.50274">
        <ele>420</ele>
        <time>2023-02-12T09:45:29Z</time>
      </trkpt>
      <trkpt lat="47.07042" lon="8.50282">
        <ele>420</ele>
        <time>2023-02-12T09:45:30Z</time>
      </trkpt>
      <trkpt lat="47.07042" lon="8.50291">
        <ele>420</ele>
        <time>2023-02-12T09:45:31Z</time>
      </trkpt>
      <trkpt lat="47.07041" lon="8.503">
        <ele>420</ele>
        <time>2023-02-12T09:45:32Z</time>
      </trkpt>
      <trkpt lat="47.07041" lon="8.50308">
        <ele>420</ele>
        <time>2023-02-12T09:45:33Z</time>
      </trkpt>
      <trkpt lat="47.0704" lon="8.50316">
        <ele>420.2</ele>
        <time>2023-02-12T09:45:34Z</time>
      </trkpt>
      <trkpt lat="47.0704" lon="8.50324">
        <ele>420.2</ele>
        <time>2023-02-12T09:45:35Z</time>
      </trkpt>
      <trkpt lat="47.07039" lon="8.50332">
        <ele>420.2</ele>
        <time>2023-02-12T09:45:36Z</time>
      </trkpt>
      <trkpt lat="47.07038" lon="8.5034">
        <ele>420.2</ele>
        <time>2023-02-12T09:45:37Z</time>
      </trkpt>
      <trkpt lat="47.07037" lon="8.50349">
        <ele>420.2</ele>
        <time>2023-02-12T09:45:38Z</time>
      </trkpt>
      <trkpt lat="47.07036" lon="8.50358">
        <ele>420.2</ele>
        <time>2023-02-12T09:45:39Z</time>
      </trkpt>
      <trkpt lat="47.07035" lon="8.50366">
        <ele>420.2</ele>
        <time>2023-02-12T09:45:40Z</time>
      </trkpt>
      <trkpt lat="47.07034" lon="8.50374">
        <ele>420.2</ele>
        <time>2023-02-12T09:45:41Z</time>
      </trkpt>
      <trkpt lat="47.07032" lon="8.50382">
        <ele>420.2</ele>
        <time>2023-02-12T09:45:42Z</time>
      </trkpt>
      <trkpt lat="47.0703" lon="8.5039">
        <ele>420.2</ele>
        <time>2023-02-12T09:45:43Z</time>
      </trkpt>
      <trkpt lat="47.07028" lon="8.50398">
        <ele>420.2</ele>
        <time>2023-02-12T09:45:44Z</time>
      </trkpt>
      <trkpt lat="47.07025" lon="8.50405">
        <ele>420.2</ele>
        <time>2023-02-12T09:45:45Z</time>
      </trkpt>
      <trkpt lat="47.07023" lon="8.50413">
        <ele>420</ele>
        <time>2023-02-12T09:45:46Z</time>
      </trkpt>
      <trkpt lat="47.07021" lon="8.5042">
        <ele>420</ele>
        <time>2023-02-12T09:45:47Z</time>
      </trkpt>
      <trkpt lat="47.07019" lon="8.50427">
        <ele>419.8</ele>
        <time>2023-02-12T09:45:48Z</time>
      </trkpt>
      <trkpt lat="47.07016" lon="8.50434">
        <ele>419.8</ele>
        <time>2023-02-12T09:45:49Z</time>
      </trkpt>
      <trkpt lat="47.07014" lon="8.50442">
        <ele>419.8</ele>
        <time>2023-02-12T09:45:50Z</time>
      </trkpt>
      <trkpt lat="47.07011" lon="8.50449">
        <ele>419.8</ele>
        <time>2023-02-12T09:45:51Z</time>
      </trkpt>
      <trkpt lat="47.07008" lon="8.50456">
        <ele>419.8</ele>
        <time>2023-02-12T09:45:52Z</time>
      </trkpt>
      <trkpt lat="47.07006" lon="8.50463">
        <ele>419.8</ele>
        <time>2023-02-12T09:45:53Z</time>
      </trkpt>
      <trkpt lat="47.07002" lon="8.50468">
        <ele>419.8</ele>
        <time>2023-02-12T09:45:54Z</time>
      </trkpt>
      <trkpt lat="47.06998" lon="8.50472">
        <ele>419.6</ele>
        <time>2023-02-12T09:45:55Z</time>
      </trkpt>
      <trkpt lat="47.06994" lon="8.50479">
        <ele>419.6</ele>
        <time>2023-02-12T09:45:56Z</time>
      </trkpt>
      <trkpt lat="47.0699" lon="8.50485">
        <ele>419.6</ele>
        <time>2023-02-12T09:45:57Z</time>
      </trkpt>
      <trkpt lat="47.06987" lon="8.50492">
        <ele>419.4</ele>
        <time>2023-02-12T09:45:58Z</time>
      </trkpt>
      <trkpt lat="47.06984" lon="8.50499">
        <ele>419.4</ele>
        <time>2023-02-12T09:45:59Z</time>
      </trkpt>
      <trkpt lat="47.0698" lon="8.50506">
        <ele>419.2</ele>
        <time>2023-02-12T09:46:00Z</time>
      </trkpt>
      <trkpt lat="47.06976" lon="8.50512">
        <ele>419.2</ele>
        <time>2023-02-12T09:46:01Z</time>
      </trkpt>
      <trkpt lat="47.06972" lon="8.50517">
        <ele>419.2</ele>
        <time>2023-02-12T09:46:02Z</time>
      </trkpt>
      <trkpt lat="47.06967" lon="8.50521">
        <ele>419.2</ele>
        <time>2023-02-12T09:46:03Z</time>
      </trkpt>
      <trkpt lat="47.06962" lon="8.50526">
        <ele>419.2</ele>
        <time>2023-02-12T09:46:04Z</time>
      </trkpt>
      <trkpt lat="47.06956" lon="8.50529">
        <ele>419.2</ele>
        <time>2023-02-12T09:46:05Z</time>
      </trkpt>
      <trkpt lat="47.06951" lon="8.50533">
        <ele>419.2</ele>
        <time>2023-02-12T09:46:06Z</time>
      </trkpt>
      <trkpt lat="47.06945" lon="8.50537">
        <ele>419</ele>
        <time>2023-02-12T09:46:07Z</time>
      </trkpt>
      <trkpt lat="47.0694" lon="8.5054">
        <ele>419</ele>
        <time>2023-02-12T09:46:08Z</time>
      </trkpt>
      <trkpt lat="47.06935" lon="8.50543">
        <ele>419</ele>
        <time>2023-02-12T09:46:09Z</time>
      </trkpt>
      <trkpt lat="47.06929" lon="8.50546">
        <ele>419</ele>
        <time>2023-02-12T09:46:10Z</time>
      </trkpt>
      <trkpt lat="47.06923" lon="8.5055">
        <ele>419</ele>
        <time>2023-02-12T09:46:11Z</time>
      </trkpt>
      <trkpt lat="47.06918" lon="8.50553">
        <ele>418.8</ele>
        <time>2023-02-12T09:46:12Z</time>
      </trkpt>
      <trkpt lat="47.06914" lon="8.50555">
        <ele>418.8</ele>
        <time>2023-02-12T09:46:13Z</time>
      </trkpt>
      <trkpt lat="47.0691" lon="8.50557">
        <ele>418.8</ele>
        <time>2023-02-12T09:46:14Z</time>
      </trkpt>
      <trkpt lat="47.06906" lon="8.50559">
        <ele>418.6</ele>
        <time>2023-02-12T09:46:15Z</time>
      </trkpt>
      <trkpt lat="47.06902" lon="8.50561">
        <ele>418.6</ele>
        <time>2023-02-12T09:46:16Z</time>
      </trkpt>
      <trkpt lat="47.06896" lon="8.50564">
        <ele>418.6</ele>
        <time>2023-02-12T09:46:17Z</time>
      </trkpt>
      <trkpt lat="47.06891" lon="8.50568">
        <ele>418.6</ele>
        <time>2023-02-12T09:46:18Z</time>
      </trkpt>
      <trkpt lat="47.06886" lon="8.50574">
        <ele>418.6</ele>
        <time>2023-02-12T09:46:19Z</time>
      </trkpt>
      <trkpt lat="47.06881" lon="8.5058">
        <ele>418.6</ele>
        <time>2023-02-12T09:46:20Z</time>
      </trkpt>
      <trkpt lat="47.06876" lon="8.50586">
        <ele>418.6</ele>
        <time>2023-02-12T09:46:21Z</time>
      </trkpt>
      <trkpt lat="47.06871" lon="8.50594">
        <ele>418.4</ele>
        <time>2023-02-12T09:46:22Z</time>
      </trkpt>
      <trkpt lat="47.06868" lon="8.50602">
        <ele>418.2</ele>
        <time>2023-02-12T09:46:23Z</time>
      </trkpt>
      <trkpt lat="47.06865" lon="8.50612">
        <ele>418.2</ele>
        <time>2023-02-12T09:46:24Z</time>
      </trkpt>
      <trkpt lat="47.06863" lon="8.5062">
        <ele>418.2</ele>
        <time>2023-02-12T09:46:25Z</time>
      </trkpt>
      <trkpt lat="47.06862" lon="8.50629">
        <ele>418</ele>
        <time>2023-02-12T09:46:26Z</time>
      </trkpt>
      <trkpt lat="47.06861" lon="8.50639">
        <ele>418</ele>
        <time>2023-02-12T09:46:27Z</time>
      </trkpt>
      <trkpt lat="47.0686" lon="8.5065">
        <ele>418</ele>
        <time>2023-02-12T09:46:28Z</time>
      </trkpt>
      <trkpt lat="47.0686" lon="8.5066">
        <ele>418</ele>
        <time>2023-02-12T09:46:29Z</time>
      </trkpt>
      <trkpt lat="47.0686" lon="8.50669">
        <ele>418</ele>
        <time>2023-02-12T09:46:30Z</time>
      </trkpt>
      <trkpt lat="47.0686" lon="8.50678">
        <ele>418</ele>
        <time>2023-02-12T09:46:31Z</time>
      </trkpt>
      <trkpt lat="47.0686" lon="8.50686">
        <ele>418</ele>
        <time>2023-02-12T09:46:32Z</time>
      </trkpt>
      <trkpt lat="47.0686" lon="8.50695">
        <ele>418</ele>
        <time>2023-02-12T09:46:33Z</time>
      </trkpt>
      <trkpt lat="47.0686" lon="8.50705">
        <ele>418</ele>
        <time>2023-02-12T09:46:34Z</time>
      </trkpt>
      <trkpt lat="47.0686" lon="8.50714">
        <ele>418</ele>
        <time>2023-02-12T09:46:35Z</time>
      </trkpt>
      <trkpt lat="47.0686" lon="8.50722">
        <ele>418</ele>
        <time>2023-02-12T09:46:36Z</time>
      </trkpt>
      <trkpt lat="47.0686" lon="8.50731">
        <ele>418</ele>
        <time>2023-02-12T09:46:37Z</time>
      </trkpt>
      <trkpt lat="47.06861" lon="8.5074">
        <ele>418.2</ele>
        <time>2023-02-12T09:46:38Z</time>
      </trkpt>
      <trkpt lat="47.06861" lon="8.50749">
        <ele>418.2</ele>
        <time>2023-02-12T09:46:39Z</time>
      </trkpt>
      <trkpt lat="47.06861" lon="8.50758">
        <ele>418.2</ele>
        <time>2023-02-12T09:46:40Z</time>
      </trkpt>
      <trkpt lat="47.06861" lon="8.50766">
        <ele>418.2</ele>
        <time>2023-02-12T09:46:41Z</time>
      </trkpt>
      <trkpt lat="47.0686" lon="8.50775">
        <ele>418.4</ele>
        <time>2023-02-12T09:46:42Z</time>
      </trkpt>
      <trkpt lat="47.0686" lon="8.50784">
        <ele>418.4</ele>
        <time>2023-02-12T09:46:43Z</time>
      </trkpt>
      <trkpt lat="47.06859" lon="8.50792">
        <ele>418.4</ele>
        <time>2023-02-12T09:46:44Z</time>
      </trkpt>
      <trkpt lat="47.06858" lon="8.50801">
        <ele>418.6</ele>
        <time>2023-02-12T09:46:45Z</time>
      </trkpt>
      <trkpt lat="47.06857" lon="8.50809">
        <ele>418.6</ele>
        <time>2023-02-12T09:46:46Z</time>
      </trkpt>
      <trkpt lat="47.06855" lon="8.50817">
        <ele>418.6</ele>
        <time>2023-02-12T09:46:47Z</time>
      </trkpt>
      <trkpt lat="47.06854" lon="8.50824">
        <ele>418.6</ele>
        <time>2023-02-12T09:46:48Z</time>
      </trkpt>
      <trkpt lat="47.06851" lon="8.50832">
        <ele>418.6</ele>
        <time>2023-02-12T09:46:49Z</time>
      </trkpt>
      <trkpt lat="47.06849" lon="8.5084">
        <ele>418.6</ele>
        <time>2023-02-12T09:46:50Z</time>
      </trkpt>
      <trkpt lat="47.06847" lon="8.50848">
        <ele>418.6</ele>
        <time>2023-02-12T09:46:51Z</time>
      </trkpt>
      <trkpt lat="47.06844" lon="8.50855">
        <ele>418.8</ele>
        <time>2023-02-12T09:46:52Z</time>
      </trkpt>
      <trkpt lat="47.06841" lon="8.50862">
        <ele>418.8</ele>
        <time>2023-02-12T09:46:53Z</time>
      </trkpt>
      <trkpt lat="47.06838" lon="8.50869">
        <ele>418.8</ele>
        <time>2023-02-12T09:46:54Z</time>
      </trkpt>
      <trkpt lat="47.06835" lon="8.50875">
        <ele>418.8</ele>
        <time>2023-02-12T09:46:55Z</time>
      </trkpt>
      <trkpt lat="47.06831" lon="8.50881">
        <ele>418.8</ele>
        <time>2023-02-12T09:46:56Z</time>
      </trkpt>
      <trkpt lat="47.06828" lon="8.50887">
        <ele>418.8</ele>
        <time>2023-02-12T09:46:57Z</time>
      </trkpt>
      <trkpt lat="47.06824" lon="8.50893">
        <ele>418.8</ele>
        <time>2023-02-12T09:46:58Z</time>
      </trkpt>
      <trkpt lat="47.0682" lon="8.50899">
        <ele>418.8</ele>
        <time>2023-02-12T09:46:59Z</time>
      </trkpt>
      <trkpt lat="47.06816" lon="8.50905">
        <ele>419</ele>
        <time>2023-02-12T09:47:00Z</time>
      </trkpt>
      <trkpt lat="47.06811" lon="8.5091">
        <ele>419</ele>
        <time>2023-02-12T09:47:01Z</time>
      </trkpt>
      <trkpt lat="47.06806" lon="8.50915">
        <ele>419</ele>
        <time>2023-02-12T09:47:02Z</time>
      </trkpt>
      <trkpt lat="47.06801" lon="8.5092">
        <ele>418.8</ele>
        <time>2023-02-12T09:47:03Z</time>
      </trkpt>
      <trkpt lat="47.06796" lon="8.50924">
        <ele>418.8</ele>
        <time>2023-02-12T09:47:04Z</time>
      </trkpt>
      <trkpt lat="47.06791" lon="8.50928">
        <ele>418.8</ele>
        <time>2023-02-12T09:47:05Z</time>
      </trkpt>
      <trkpt lat="47.06786" lon="8.50931">
        <ele>418.6</ele>
        <time>2023-02-12T09:47:06Z</time>
      </trkpt>
      <trkpt lat="47.06781" lon="8.50935">
        <ele>418.6</ele>
        <time>2023-02-12T09:47:07Z</time>
      </trkpt>
      <trkpt lat="47.06775" lon="8.50938">
        <ele>418.4</ele>
        <time>2023-02-12T09:47:08Z</time>
      </trkpt>
      <trkpt lat="47.0677" lon="8.5094">
        <ele>418.2</ele>
        <time>2023-02-12T09:47:09Z</time>
      </trkpt>
      <trkpt lat="47.06764" lon="8.50943">
        <ele>418.2</ele>
        <time>2023-02-12T09:47:10Z</time>
      </trkpt>
      <trkpt lat="47.06759" lon="8.50945">
        <ele>418.2</ele>
        <time>2023-02-12T09:47:11Z</time>
      </trkpt>
      <trkpt lat="47.06755" lon="8.50948">
        <ele>418.2</ele>
        <time>2023-02-12T09:47:12Z</time>
      </trkpt>
      <trkpt lat="47.06752" lon="8.50952">
        <ele>418</ele>
        <time>2023-02-12T09:47:13Z</time>
      </trkpt>
      <trkpt lat="47.06748" lon="8.50955">
        <ele>418</ele>
        <time>2023-02-12T09:47:14Z</time>
      </trkpt>
      <trkpt lat="47.06746" lon="8.50958">
        <ele>418</ele>
        <time>2023-02-12T09:47:15Z</time>
      </trkpt>
      <trkpt lat="47.06744" lon="8.50961">
        <ele>418.2</ele>
        <time>2023-02-12T09:47:16Z</time>
      </trkpt>
      <trkpt lat="47.06743" lon="8.50963">
        <ele>418.4</ele>
        <time>2023-02-12T09:47:17Z</time>
      </trkpt>
      <trkpt lat="47.06743" lon="8.50963">
        <ele>418.4</ele>
        <time>2023-02-12T09:47:18Z</time>
      </trkpt>
      <trkpt lat="47.06742" lon="8.50963">
        <ele>418.6</ele>
        <time>2023-02-12T09:47:19Z</time>
      </trkpt>
      <trkpt lat="47.06742" lon="8.50963">
        <ele>419</ele>
        <time>2023-02-12T09:47:20Z</time>
      </trkpt>
      <trkpt lat="47.06742" lon="8.50963">
        <ele>419</ele>
        <time>2023-02-12T09:47:21Z</time>
      </trkpt>
      <trkpt lat="47.06741" lon="8.50964">
        <ele>419</ele>
        <time>2023-02-12T09:47:22Z</time>
      </trkpt>
      <trkpt lat="47.06741" lon="8.50966">
        <ele>419</ele>
        <time>2023-02-12T09:47:23Z</time>
      </trkpt>
      <trkpt lat="47.06741" lon="8.50966">
        <ele>419</ele>
        <time>2023-02-12T09:47:24Z</time>
      </trkpt>
      <trkpt lat="47.06741" lon="8.50966">
        <ele>419</ele>
        <time>2023-02-12T09:47:25Z</time>
      </trkpt>
      <trkpt lat="47.06741" lon="8.50966">
        <ele>419</ele>
        <time>2023-02-12T09:47:26Z</time>
      </trkpt>
      <trkpt lat="47.06741" lon="8.50966">
        <ele>419</ele>
        <time>2023-02-12T09:47:27Z</time>
      </trkpt>
      <trkpt lat="47.06741" lon="8.50966">
        <ele>419</ele>
        <time>2023-02-12T09:47:28Z</time>
      </trkpt>
      <trkpt lat="47.06741" lon="8.50966">
        <ele>419</ele>
        <time>2023-02-12T09:47:29Z</time>
      </trkpt>
      <trkpt lat="47.06741" lon="8.50966">
        <ele>419</ele>
        <time>2023-02-12T09:47:30Z</time>
      </trkpt>
      <trkpt lat="47.06741" lon="8.50966">
        <ele>419</ele>
        <time>2023-02-12T09:47:31Z</time>
      </trkpt>
      <trkpt lat="47.06741" lon="8.50966">
        <ele>419</ele>
        <time>2023-02-12T09:47:32Z</time>
      </trkpt>
      <trkpt lat="47.06741" lon="8.50966">
        <ele>419</ele>
        <time>2023-02-12T09:47:33Z</time>
      </trkpt>
      <trkpt lat="47.06741" lon="8.50966">
        <ele>419</ele>
        <time>2023-02-12T09:47:34Z</time>
      </trkpt>
      <trkpt lat="47.06741" lon="8.50966">
        <ele>419</ele>
        <time>2023-02-12T09:47:35Z</time>
      </trkpt>
      <trkpt lat="47.06741" lon="8.50966">
        <ele>419</ele>
        <time>2023-02-12T09:47:36Z</time>
      </trkpt>
      <trkpt lat="47.06741" lon="8.50966">
        <ele>419</ele>
        <time>2023-02-12T09:47:37Z</time>
      </trkpt>
      <trkpt lat="47.06741" lon="8.50966">
        <ele>419</ele>
        <time>2023-02-12T09:47:38Z</time>
      </trkpt>
      <trkpt lat="47.06741" lon="8.50966">
        <ele>419</ele>
        <time>2023-02-12T09:47:39Z</time>
      </trkpt>
      <trkpt lat="47.06741" lon="8.50966">
        <ele>419</ele>
        <time>2023-02-12T09:47:40Z</time>
      </trkpt>
      <trkpt lat="47.06741" lon="8.50966">
        <ele>419</ele>
        <time>2023-02-12T09:47:41Z</time>
      </trkpt>
      <trkpt lat="47.06741" lon="8.50966">
        <ele>419</ele>
        <time>2023-02-12T09:47:42Z</time>
      </trkpt>
      <trkpt lat="47.06741" lon="8.50966">
        <ele>419</ele>
        <time>2023-02-12T09:47:43Z</time>
      </trkpt>
      <trkpt lat="47.06741" lon="8.50966">
        <ele>418.8</ele>
        <time>2023-02-12T09:47:44Z</time>
      </trkpt>
      <trkpt lat="47.06741" lon="8.50966">
        <ele>418.8</ele>
        <time>2023-02-12T09:47:45Z</time>
      </trkpt>
      <trkpt lat="47.06741" lon="8.50966">
        <ele>418.8</ele>
        <time>2023-02-12T09:47:46Z</time>
      </trkpt>
      <trkpt lat="47.06741" lon="8.50966">
        <ele>418.8</ele>
        <time>2023-02-12T09:47:47Z</time>
      </trkpt>
      <trkpt lat="47.06741" lon="8.50966">
        <ele>418.8</ele>
        <time>2023-02-12T09:47:48Z</time>
      </trkpt>
      <trkpt lat="47.06741" lon="8.50966">
        <ele>418.8</ele>
        <time>2023-02-12T09:47:49Z</time>
      </trkpt>
      <trkpt lat="47.06741" lon="8.50966">
        <ele>418.8</ele>
        <time>2023-02-12T09:47:50Z</time>
      </trkpt>
      <trkpt lat="47.06741" lon="8.50967">
        <ele>418.8</ele>
        <time>2023-02-12T09:47:51Z</time>
      </trkpt>
      <trkpt lat="47.06741" lon="8.50967">
        <ele>418.8</ele>
        <time>2023-02-12T09:47:52Z</time>
      </trkpt>
      <trkpt lat="47.06741" lon="8.50967">
        <ele>418.8</ele>
        <time>2023-02-12T09:47:53Z</time>
      </trkpt>
      <trkpt lat="47.06741" lon="8.50967">
        <ele>418.8</ele>
        <time>2023-02-12T09:47:54Z</time>
      </trkpt>
      <trkpt lat="47.06741" lon="8.50967">
        <ele>418.8</ele>
        <time>2023-02-12T09:47:55Z</time>
      </trkpt>
      <trkpt lat="47.06741" lon="8.50967">
        <ele>418.8</ele>
        <time>2023-02-12T09:47:56Z</time>
      </trkpt>
      <trkpt lat="47.06741" lon="8.50967">
        <ele>418.8</ele>
        <time>2023-02-12T09:47:57Z</time>
      </trkpt>
      <trkpt lat="47.06741" lon="8.50967">
        <ele>418.8</ele>
        <time>2023-02-12T09:47:58Z</time>
      </trkpt>
      <trkpt lat="47.06741" lon="8.50967">
        <ele>418.8</ele>
        <time>2023-02-12T09:47:59Z</time>
      </trkpt>
      <trkpt lat="47.06741" lon="8.50967">
        <ele>418.8</ele>
        <time>2023-02-12T09:48:00Z</time>
      </trkpt>
      <trkpt lat="47.06741" lon="8.50967">
        <ele>418.8</ele>
        <time>2023-02-12T09:48:01Z</time>
      </trkpt>
      <trkpt lat="47.06741" lon="8.50967">
        <ele>418.6</ele>
        <time>2023-02-12T09:48:02Z</time>
      </trkpt>
      <trkpt lat="47.06741" lon="8.50967">
        <ele>418.6</ele>
        <time>2023-02-12T09:48:03Z</time>
      </trkpt>
      <trkpt lat="47.06741" lon="8.50967">
        <ele>418.6</ele>
        <time>2023-02-12T09:48:04Z</time>
      </trkpt>
      <trkpt lat="47.06741" lon="8.50967">
        <ele>418.6</ele>
        <time>2023-02-12T09:48:05Z</time>
      </trkpt>
      <trkpt lat="47.06741" lon="8.50967">
        <ele>418.6</ele>
        <time>2023-02-12T09:48:06Z</time>
      </trkpt>
      <trkpt lat="47.06741" lon="8.50967">
        <ele>418.6</ele>
        <time>2023-02-12T09:48:07Z</time>
      </trkpt>
      <trkpt lat="47.06741" lon="8.50967">
        <ele>418.6</ele>
        <time>2023-02-12T09:48:08Z</time>
      </trkpt>
      <trkpt lat="47.06741" lon="8.50967">
        <ele>418.6</ele>
        <time>2023-02-12T09:48:09Z</time>
      </trkpt>
      <trkpt lat="47.06741" lon="8.50967">
        <ele>418.6</ele>
        <time>2023-02-12T09:48:10Z</time>
      </trkpt>
      <trkpt lat="47.06741" lon="8.50967">
        <ele>418.6</ele>
        <time>2023-02-12T09:48:11Z</time>
      </trkpt>
      <trkpt lat="47.06741" lon="8.50967">
        <ele>418.4</ele>
        <time>2023-02-12T09:48:12Z</time>
      </trkpt>
      <trkpt lat="47.06741" lon="8.50967">
        <ele>418.4</ele>
        <time>2023-02-12T09:48:13Z</time>
      </trkpt>
      <trkpt lat="47.06741" lon="8.50967">
        <ele>418.4</ele>
        <time>2023-02-12T09:48:14Z</time>
      </trkpt>
      <trkpt lat="47.06741" lon="8.50967">
        <ele>418.4</ele>
        <time>2023-02-12T09:48:15Z</time>
      </trkpt>
      <trkpt lat="47.06741" lon="8.50967">
        <ele>418.4</ele>
        <time>2023-02-12T09:48:16Z</time>
      </trkpt>
      <trkpt lat="47.06741" lon="8.50967">
        <ele>418.4</ele>
        <time>2023-02-12T09:48:17Z</time>
      </trkpt>
      <trkpt lat="47.06741" lon="8.50967">
        <ele>418.6</ele>
        <time>2023-02-12T09:48:18Z</time>
      </trkpt>
      <trkpt lat="47.06741" lon="8.50967">
        <ele>418.4</ele>
        <time>2023-02-12T09:48:19Z</time>
      </trkpt>
      <trkpt lat="47.06741" lon="8.50967">
        <ele>418.4</ele>
        <time>2023-02-12T09:48:20Z</time>
      </trkpt>
      <trkpt lat="47.06741" lon="8.50967">
        <ele>418.4</ele>
        <time>2023-02-12T09:48:21Z</time>
      </trkpt>
      <trkpt lat="47.06741" lon="8.50967">
        <ele>418.4</ele>
        <time>2023-02-12T09:48:22Z</time>
      </trkpt>
      <trkpt lat="47.06741" lon="8.50967">
        <ele>418.4</ele>
        <time>2023-02-12T09:48:23Z</time>
      </trkpt>
      <trkpt lat="47.06741" lon="8.50967">
        <ele>418.4</ele>
        <time>2023-02-12T09:48:24Z</time>
      </trkpt>
      <trkpt lat="47.06741" lon="8.50967">
        <ele>418.4</ele>
        <time>2023-02-12T09:48:25Z</time>
      </trkpt>
      <trkpt lat="47.06741" lon="8.50967">
        <ele>418.4</ele>
        <time>2023-02-12T09:48:26Z</time>
      </trkpt>
      <trkpt lat="47.06741" lon="8.50967">
        <ele>418.4</ele>
        <time>2023-02-12T09:48:27Z</time>
      </trkpt>
      <trkpt lat="47.06741" lon="8.50967">
        <ele>418.8</ele>
        <time>2023-02-12T09:48:28Z</time>
      </trkpt>
      <trkpt lat="47.06741" lon="8.50967">
        <ele>418.8</ele>
        <time>2023-02-12T09:48:29Z</time>
      </trkpt>
      <trkpt lat="47.06741" lon="8.50967">
        <ele>418.8</ele>
        <time>2023-02-12T09:48:30Z</time>
      </trkpt>
      <trkpt lat="47.06741" lon="8.50967">
        <ele>418.8</ele>
        <time>2023-02-12T09:48:31Z</time>
      </trkpt>
      <trkpt lat="47.06741" lon="8.50967">
        <ele>418.8</ele>
        <time>2023-02-12T09:48:32Z</time>
      </trkpt>
      <trkpt lat="47.06741" lon="8.50967">
        <ele>418.8</ele>
        <time>2023-02-12T09:48:33Z</time>
      </trkpt>
      <trkpt lat="47.06741" lon="8.50967">
        <ele>418.8</ele>
        <time>2023-02-12T09:48:34Z</time>
      </trkpt>
      <trkpt lat="47.06741" lon="8.50967">
        <ele>418.8</ele>
        <time>2023-02-12T09:48:35Z</time>
      </trkpt>
      <trkpt lat="47.06741" lon="8.50967">
        <ele>418.8</ele>
        <time>2023-02-12T09:48:36Z</time>
      </trkpt>
      <trkpt lat="47.06741" lon="8.50967">
        <ele>418.8</ele>
        <time>2023-02-12T09:48:37Z</time>
      </trkpt>
      <trkpt lat="47.06741" lon="8.50967">
        <ele>418.8</ele>
        <time>2023-02-12T09:48:38Z</time>
      </trkpt>
      <trkpt lat="47.06741" lon="8.50967">
        <ele>418.8</ele>
        <time>2023-02-12T09:48:39Z</time>
      </trkpt>
      <trkpt lat="47.06741" lon="8.50967">
        <ele>418.8</ele>
        <time>2023-02-12T09:48:40Z</time>
      </trkpt>
      <trkpt lat="47.06741" lon="8.50967">
        <ele>418.8</ele>
        <time>2023-02-12T09:48:41Z</time>
      </trkpt>
      <trkpt lat="47.06741" lon="8.50967">
        <ele>418.8</ele>
        <time>2023-02-12T09:48:42Z</time>
      </trkpt>
      <trkpt lat="47.06741" lon="8.50967">
        <ele>418.8</ele>
        <time>2023-02-12T09:48:43Z</time>
      </trkpt>
      <trkpt lat="47.06741" lon="8.50967">
        <ele>418.8</ele>
        <time>2023-02-12T09:48:44Z</time>
      </trkpt>
      <trkpt lat="47.06741" lon="8.50967">
        <ele>418.8</ele>
        <time>2023-02-12T09:48:45Z</time>
      </trkpt>
      <trkpt lat="47.06741" lon="8.50967">
        <ele>418.8</ele>
        <time>2023-02-12T09:48:46Z</time>
      </trkpt>
      <trkpt lat="47.06741" lon="8.50967">
        <ele>418.8</ele>
        <time>2023-02-12T09:48:47Z</time>
      </trkpt>
      <trkpt lat="47.06741" lon="8.50967">
        <ele>418.8</ele>
        <time>2023-02-12T09:48:48Z</time>
      </trkpt>
      <trkpt lat="47.06741" lon="8.50967">
        <ele>418.8</ele>
        <time>2023-02-12T09:48:49Z</time>
      </trkpt>
      <trkpt lat="47.06741" lon="8.50967">
        <ele>418.8</ele>
        <time>2023-02-12T09:48:50Z</time>
      </trkpt>
      <trkpt lat="47.06741" lon="8.50967">
        <ele>418.8</ele>
        <time>2023-02-12T09:48:51Z</time>
      </trkpt>
      <trkpt lat="47.06741" lon="8.50967">
        <ele>418.8</ele>
        <time>2023-02-12T09:48:52Z</time>
      </trkpt>
      <trkpt lat="47.06741" lon="8.50967">
        <ele>418.8</ele>
        <time>2023-02-12T09:48:53Z</time>
      </trkpt>
      <trkpt lat="47.06741" lon="8.50967">
        <ele>418.8</ele>
        <time>2023-02-12T09:48:54Z</time>
      </trkpt>
      <trkpt lat="47.06741" lon="8.50967">
        <ele>418.8</ele>
        <time>2023-02-12T09:48:55Z</time>
      </trkpt>
      <trkpt lat="47.06741" lon="8.50967">
        <ele>418.8</ele>
        <time>2023-02-12T09:48:56Z</time>
      </trkpt>
      <trkpt lat="47.06741" lon="8.50967">
        <ele>418.8</ele>
        <time>2023-02-12T09:48:57Z</time>
      </trkpt>
      <trkpt lat="47.06741" lon="8.50967">
        <ele>418.8</ele>
        <time>2023-02-12T09:48:58Z</time>
      </trkpt>
      <trkpt lat="47.06741" lon="8.50967">
        <ele>418.8</ele>
        <time>2023-02-12T09:48:59Z</time>
      </trkpt>
      <trkpt lat="47.06741" lon="8.50967">
        <ele>418.8</ele>
        <time>2023-02-12T09:49:00Z</time>
      </trkpt>
      <trkpt lat="47.06741" lon="8.50967">
        <ele>418.8</ele>
        <time>2023-02-12T09:49:01Z</time>
      </trkpt>
      <trkpt lat="47.06741" lon="8.50967">
        <ele>418.8</ele>
        <time>2023-02-12T09:49:02Z</time>
      </trkpt>
      <trkpt lat="47.06741" lon="8.50967">
        <ele>418.8</ele>
        <time>2023-02-12T09:49:03Z</time>
      </trkpt>
      <trkpt lat="47.06741" lon="8.50967">
        <ele>418.8</ele>
        <time>2023-02-12T09:49:04Z</time>
      </trkpt>
      <trkpt lat="47.06741" lon="8.50967">
        <ele>418.8</ele>
        <time>2023-02-12T09:49:05Z</time>
      </trkpt>
      <trkpt lat="47.06741" lon="8.50967">
        <ele>418.8</ele>
        <time>2023-02-12T09:49:06Z</time>
      </trkpt>
      <trkpt lat="47.06741" lon="8.50967">
        <ele>418.8</ele>
        <time>2023-02-12T09:49:07Z</time>
      </trkpt>
      <trkpt lat="47.06741" lon="8.50967">
        <ele>418.8</ele>
        <time>2023-02-12T09:49:08Z</time>
      </trkpt>
      <trkpt lat="47.06741" lon="8.50967">
        <ele>418.8</ele>
        <time>2023-02-12T09:49:09Z</time>
      </trkpt>
      <trkpt lat="47.06741" lon="8.50967">
        <ele>418.8</ele>
        <time>2023-02-12T09:49:10Z</time>
      </trkpt>
      <trkpt lat="47.06741" lon="8.50967">
        <ele>418.8</ele>
        <time>2023-02-12T09:49:11Z</time>
      </trkpt>
      <trkpt lat="47.06741" lon="8.50967">
        <ele>418.8</ele>
        <time>2023-02-12T09:49:12Z</time>
      </trkpt>
      <trkpt lat="47.06741" lon="8.50967">
        <ele>418.8</ele>
        <time>2023-02-12T09:49:13Z</time>
      </trkpt>
      <trkpt lat="47.06741" lon="8.50967">
        <ele>418.8</ele>
        <time>2023-02-12T09:49:14Z</time>
      </trkpt>
      <trkpt lat="47.06741" lon="8.50967">
        <ele>418.8</ele>
        <time>2023-02-12T09:49:15Z</time>
      </trkpt>
      <trkpt lat="47.06741" lon="8.50967">
        <ele>418.8</ele>
        <time>2023-02-12T09:49:16Z</time>
      </trkpt>
      <trkpt lat="47.06741" lon="8.50967">
        <ele>418.8</ele>
        <time>2023-02-12T09:49:17Z</time>
      </trkpt>
      <trkpt lat="47.06741" lon="8.50967">
        <ele>418.8</ele>
        <time>2023-02-12T09:49:18Z</time>
      </trkpt>
      <trkpt lat="47.06741" lon="8.50967">
        <ele>418.8</ele>
        <time>2023-02-12T09:49:19Z</time>
      </trkpt>
      <trkpt lat="47.06741" lon="8.50967">
        <ele>418.8</ele>
        <time>2023-02-12T09:49:20Z</time>
      </trkpt>
      <trkpt lat="47.06741" lon="8.50967">
        <ele>418.8</ele>
        <time>2023-02-12T09:49:21Z</time>
      </trkpt>
      <trkpt lat="47.06741" lon="8.50967">
        <ele>418.8</ele>
        <time>2023-02-12T09:49:22Z</time>
      </trkpt>
      <trkpt lat="47.06741" lon="8.50967">
        <ele>418.8</ele>
        <time>2023-02-12T09:49:23Z</time>
      </trkpt>
      <trkpt lat="47.06741" lon="8.50967">
        <ele>418.8</ele>
        <time>2023-02-12T09:49:24Z</time>
      </trkpt>
      <trkpt lat="47.06741" lon="8.50967">
        <ele>418.8</ele>
        <time>2023-02-12T09:49:25Z</time>
      </trkpt>
      <trkpt lat="47.06741" lon="8.50967">
        <ele>418.8</ele>
        <time>2023-02-12T09:49:26Z</time>
      </trkpt>
      <trkpt lat="47.06741" lon="8.50967">
        <ele>418.8</ele>
        <time>2023-02-12T09:49:27Z</time>
      </trkpt>
      <trkpt lat="47.06741" lon="8.50967">
        <ele>418.8</ele>
        <time>2023-02-12T09:49:28Z</time>
      </trkpt>
      <trkpt lat="47.06741" lon="8.50967">
        <ele>418.8</ele>
        <time>2023-02-12T09:49:29Z</time>
      </trkpt>
      <trkpt lat="47.06741" lon="8.50967">
        <ele>418.8</ele>
        <time>2023-02-12T09:49:30Z</time>
      </trkpt>
      <trkpt lat="47.06741" lon="8.50967">
        <ele>418.8</ele>
        <time>2023-02-12T09:49:31Z</time>
      </trkpt>
      <trkpt lat="47.06741" lon="8.50967">
        <ele>418.8</ele>
        <time>2023-02-12T09:49:32Z</time>
      </trkpt>
      <trkpt lat="47.06741" lon="8.50967">
        <ele>418.8</ele>
        <time>2023-02-12T09:49:33Z</time>
      </trkpt>
      <trkpt lat="47.06741" lon="8.50967">
        <ele>418.8</ele>
        <time>2023-02-12T09:49:34Z</time>
      </trkpt>
      <trkpt lat="47.06741" lon="8.50967">
        <ele>418.8</ele>
        <time>2023-02-12T09:49:35Z</time>
      </trkpt>
      <trkpt lat="47.06741" lon="8.50967">
        <ele>418.8</ele>
        <time>2023-02-12T09:49:36Z</time>
      </trkpt>
      <trkpt lat="47.06741" lon="8.50967">
        <ele>418.8</ele>
        <time>2023-02-12T09:49:37Z</time>
      </trkpt>
      <trkpt lat="47.06741" lon="8.50967">
        <ele>418.8</ele>
        <time>2023-02-12T09:49:38Z</time>
      </trkpt>
      <trkpt lat="47.06741" lon="8.50967">
        <ele>418.8</ele>
        <time>2023-02-12T09:49:39Z</time>
      </trkpt>
      <trkpt lat="47.06741" lon="8.50967">
        <ele>418.8</ele>
        <time>2023-02-12T09:49:40Z</time>
      </trkpt>
      <trkpt lat="47.06741" lon="8.50967">
        <ele>418.8</ele>
        <time>2023-02-12T09:49:41Z</time>
      </trkpt>
      <trkpt lat="47.06741" lon="8.50967">
        <ele>418.8</ele>
        <time>2023-02-12T09:49:42Z</time>
      </trkpt>
      <trkpt lat="47.06741" lon="8.50967">
        <ele>418.8</ele>
        <time>2023-02-12T09:49:43Z</time>
      </trkpt>
      <trkpt lat="47.06741" lon="8.50967">
        <ele>418.8</ele>
        <time>2023-02-12T09:49:44Z</time>
      </trkpt>
      <trkpt lat="47.06741" lon="8.50967">
        <ele>418.8</ele>
        <time>2023-02-12T09:49:45Z</time>
      </trkpt>
      <trkpt lat="47.06741" lon="8.50967">
        <ele>418.8</ele>
        <time>2023-02-12T09:49:46Z</time>
      </trkpt>
      <trkpt lat="47.06741" lon="8.50967">
        <ele>418.8</ele>
        <time>2023-02-12T09:49:47Z</time>
      </trkpt>
      <trkpt lat="47.06741" lon="8.50967">
        <ele>418.8</ele>
        <time>2023-02-12T09:49:48Z</time>
      </trkpt>
      <trkpt lat="47.06741" lon="8.50967">
        <ele>418.8</ele>
        <time>2023-02-12T09:49:49Z</time>
      </trkpt>
      <trkpt lat="47.06741" lon="8.50967">
        <ele>418.8</ele>
        <time>2023-02-12T09:49:50Z</time>
      </trkpt>
      <trkpt lat="47.06741" lon="8.50967">
        <ele>418.8</ele>
        <time>2023-02-12T09:49:51Z</time>
      </trkpt>
      <trkpt lat="47.06741" lon="8.50967">
        <ele>418.8</ele>
        <time>2023-02-12T09:49:52Z</time>
      </trkpt>
      <trkpt lat="47.06741" lon="8.50967">
        <ele>418.8</ele>
        <time>2023-02-12T09:49:53Z</time>
      </trkpt>
      <trkpt lat="47.06741" lon="8.50967">
        <ele>418.8</ele>
        <time>2023-02-12T09:49:54Z</time>
      </trkpt>
      <trkpt lat="47.06741" lon="8.50967">
        <ele>418.8</ele>
        <time>2023-02-12T09:49:55Z</time>
      </trkpt>
      <trkpt lat="47.06741" lon="8.50967">
        <ele>418.8</ele>
        <time>2023-02-12T09:49:56Z</time>
      </trkpt>
      <trkpt lat="47.06741" lon="8.50967">
        <ele>418.8</ele>
        <time>2023-02-12T09:49:57Z</time>
      </trkpt>
      <trkpt lat="47.06741" lon="8.50967">
        <ele>418.8</ele>
        <time>2023-02-12T09:49:58Z</time>
      </trkpt>
      <trkpt lat="47.06741" lon="8.50967">
        <ele>418.8</ele>
        <time>2023-02-12T09:49:59Z</time>
      </trkpt>
      <trkpt lat="47.06741" lon="8.50967">
        <ele>418.8</ele>
        <time>2023-02-12T09:50:00Z</time>
      </trkpt>
      <trkpt lat="47.06741" lon="8.50967">
        <ele>418.8</ele>
        <time>2023-02-12T09:50:01Z</time>
      </trkpt>
      <trkpt lat="47.06741" lon="8.50967">
        <ele>418.8</ele>
        <time>2023-02-12T09:50:02Z</time>
      </trkpt>
      <trkpt lat="47.06741" lon="8.50967">
        <ele>418.8</ele>
        <time>2023-02-12T09:50:03Z</time>
      </trkpt>
      <trkpt lat="47.06741" lon="8.50967">
        <ele>418.8</ele>
        <time>2023-02-12T09:50:04Z</time>
      </trkpt>
      <trkpt lat="47.06741" lon="8.50967">
        <ele>418.8</ele>
        <time>2023-02-12T09:50:05Z</time>
      </trkpt>
      <trkpt lat="47.0674" lon="8.50965">
        <ele>418.8</ele>
        <time>2023-02-12T09:50:06Z</time>
      </trkpt>
      <trkpt lat="47.0674" lon="8.50965">
        <ele>418.8</ele>
        <time>2023-02-12T09:50:07Z</time>
      </trkpt>
      <trkpt lat="47.0674" lon="8.50965">
        <ele>418.8</ele>
        <time>2023-02-12T09:50:08Z</time>
      </trkpt>
      <trkpt lat="47.0674" lon="8.50965">
        <ele>418.8</ele>
        <time>2023-02-12T09:50:09Z</time>
      </trkpt>
      <trkpt lat="47.0674" lon="8.50965">
        <ele>418.8</ele>
        <time>2023-02-12T09:50:10Z</time>
      </trkpt>
      <trkpt lat="47.0674" lon="8.50965">
        <ele>418.8</ele>
        <time>2023-02-12T09:50:11Z</time>
      </trkpt>
      <trkpt lat="47.0674" lon="8.50965">
        <ele>418.8</ele>
        <time>2023-02-12T09:50:12Z</time>
      </trkpt>
      <trkpt lat="47.0674" lon="8.50965">
        <ele>418.8</ele>
        <time>2023-02-12T09:50:13Z</time>
      </trkpt>
      <trkpt lat="47.0674" lon="8.50965">
        <ele>418.8</ele>
        <time>2023-02-12T09:50:14Z</time>
      </trkpt>
      <trkpt lat="47.0674" lon="8.50965">
        <ele>418.8</ele>
        <time>2023-02-12T09:50:15Z</time>
      </trkpt>
      <trkpt lat="47.0674" lon="8.50965">
        <ele>418.8</ele>
        <time>2023-02-12T09:50:16Z</time>
      </trkpt>
      <trkpt lat="47.0674" lon="8.50965">
        <ele>418.8</ele>
        <time>2023-02-12T09:50:17Z</time>
      </trkpt>
      <trkpt lat="47.0674" lon="8.50965">
        <ele>418.8</ele>
        <time>2023-02-12T09:50:18Z</time>
      </trkpt>
      <trkpt lat="47.0674" lon="8.50965">
        <ele>418.8</ele>
        <time>2023-02-12T09:50:19Z</time>
      </trkpt>
      <trkpt lat="47.0674" lon="8.50965">
        <ele>418.8</ele>
        <time>2023-02-12T09:50:20Z</time>
      </trkpt>
      <trkpt lat="47.0674" lon="8.50965">
        <ele>418.8</ele>
        <time>2023-02-12T09:50:21Z</time>
      </trkpt>
      <trkpt lat="47.0674" lon="8.50965">
        <ele>418.8</ele>
        <time>2023-02-12T09:50:22Z</time>
      </trkpt>
      <trkpt lat="47.0674" lon="8.50965">
        <ele>418.8</ele>
        <time>2023-02-12T09:50:23Z</time>
      </trkpt>
      <trkpt lat="47.0674" lon="8.50965">
        <ele>418.8</ele>
        <time>2023-02-12T09:50:24Z</time>
      </trkpt>
      <trkpt lat="47.0674" lon="8.50965">
        <ele>418.8</ele>
        <time>2023-02-12T09:50:25Z</time>
      </trkpt>
      <trkpt lat="47.0674" lon="8.50965">
        <ele>418.8</ele>
        <time>2023-02-12T09:50:26Z</time>
      </trkpt>
      <trkpt lat="47.0674" lon="8.50965">
        <ele>418.8</ele>
        <time>2023-02-12T09:50:27Z</time>
      </trkpt>
      <trkpt lat="47.0674" lon="8.50965">
        <ele>418.8</ele>
        <time>2023-02-12T09:50:28Z</time>
      </trkpt>
      <trkpt lat="47.0674" lon="8.50965">
        <ele>418.8</ele>
        <time>2023-02-12T09:50:29Z</time>
      </trkpt>
      <trkpt lat="47.0674" lon="8.50965">
        <ele>418.8</ele>
        <time>2023-02-12T09:50:30Z</time>
      </trkpt>
      <trkpt lat="47.0674" lon="8.50965">
        <ele>418.8</ele>
        <time>2023-02-12T09:50:31Z</time>
      </trkpt>
      <trkpt lat="47.0674" lon="8.50965">
        <ele>418.8</ele>
        <time>2023-02-12T09:50:32Z</time>
      </trkpt>
      <trkpt lat="47.0674" lon="8.50965">
        <ele>418.8</ele>
        <time>2023-02-12T09:50:33Z</time>
      </trkpt>
      <trkpt lat="47.0674" lon="8.50965">
        <ele>418.8</ele>
        <time>2023-02-12T09:50:34Z</time>
      </trkpt>
      <trkpt lat="47.0674" lon="8.50965">
        <ele>418.8</ele>
        <time>2023-02-12T09:50:35Z</time>
      </trkpt>
      <trkpt lat="47.0674" lon="8.50965">
        <ele>418.8</ele>
        <time>2023-02-12T09:50:36Z</time>
      </trkpt>
      <trkpt lat="47.0674" lon="8.50965">
        <ele>418.8</ele>
        <time>2023-02-12T09:50:37Z</time>
      </trkpt>
      <trkpt lat="47.0674" lon="8.50965">
        <ele>418.8</ele>
        <time>2023-02-12T09:50:38Z</time>
      </trkpt>
      <trkpt lat="47.0674" lon="8.50965">
        <ele>418.8</ele>
        <time>2023-02-12T09:50:39Z</time>
      </trkpt>
      <trkpt lat="47.0674" lon="8.50965">
        <ele>418.8</ele>
        <time>2023-02-12T09:50:40Z</time>
      </trkpt>
      <trkpt lat="47.0674" lon="8.50965">
        <ele>418.8</ele>
        <time>2023-02-12T09:50:41Z</time>
      </trkpt>
      <trkpt lat="47.0674" lon="8.50965">
        <ele>418.8</ele>
        <time>2023-02-12T09:50:42Z</time>
      </trkpt>
      <trkpt lat="47.0674" lon="8.50965">
        <ele>418.8</ele>
        <time>2023-02-12T09:50:43Z</time>
      </trkpt>
      <trkpt lat="47.0674" lon="8.50965">
        <ele>418.8</ele>
        <time>2023-02-12T09:50:44Z</time>
      </trkpt>
      <trkpt lat="47.0674" lon="8.50965">
        <ele>418.8</ele>
        <time>2023-02-12T09:50:45Z</time>
      </trkpt>
      <trkpt lat="47.0674" lon="8.50965">
        <ele>418.8</ele>
        <time>2023-02-12T09:50:46Z</time>
      </trkpt>
      <trkpt lat="47.0674" lon="8.50965">
        <ele>418.8</ele>
        <time>2023-02-12T09:50:47Z</time>
      </trkpt>
      <trkpt lat="47.0674" lon="8.50965">
        <ele>418.8</ele>
        <time>2023-02-12T09:50:48Z</time>
      </trkpt>
      <trkpt lat="47.0674" lon="8.50965">
        <ele>418.8</ele>
        <time>2023-02-12T09:50:49Z</time>
      </trkpt>
      <trkpt lat="47.0674" lon="8.50965">
        <ele>418.8</ele>
        <time>2023-02-12T09:50:50Z</time>
      </trkpt>
      <trkpt lat="47.0674" lon="8.50965">
        <ele>418.8</ele>
        <time>2023-02-12T09:50:51Z</time>
      </trkpt>
      <trkpt lat="47.0674" lon="8.50965">
        <ele>418.8</ele>
        <time>2023-02-12T09:50:52Z</time>
      </trkpt>
      <trkpt lat="47.0674" lon="8.50965">
        <ele>418.8</ele>
        <time>2023-02-12T09:50:53Z</time>
      </trkpt>
      <trkpt lat="47.0674" lon="8.50965">
        <ele>418.8</ele>
        <time>2023-02-12T09:50:54Z</time>
      </trkpt>
      <trkpt lat="47.0674" lon="8.50965">
        <ele>418.8</ele>
        <time>2023-02-12T09:50:55Z</time>
      </trkpt>
      <trkpt lat="47.0674" lon="8.50965">
        <ele>418.8</ele>
        <time>2023-02-12T09:50:56Z</time>
      </trkpt>
      <trkpt lat="47.0674" lon="8.50965">
        <ele>418.8</ele>
        <time>2023-02-12T09:50:57Z</time>
      </trkpt>
      <trkpt lat="47.0674" lon="8.50965">
        <ele>418.8</ele>
        <time>2023-02-12T09:50:58Z</time>
      </trkpt>
      <trkpt lat="47.0674" lon="8.50965">
        <ele>418.8</ele>
        <time>2023-02-12T09:50:59Z</time>
      </trkpt>
      <trkpt lat="47.0674" lon="8.50965">
        <ele>418.8</ele>
        <time>2023-02-12T09:51:00Z</time>
      </trkpt>
      <trkpt lat="47.0674" lon="8.50965">
        <ele>418.8</ele>
        <time>2023-02-12T09:51:01Z</time>
      </trkpt>
      <trkpt lat="47.0674" lon="8.50965">
        <ele>418.8</ele>
        <time>2023-02-12T09:51:02Z</time>
      </trkpt>
      <trkpt lat="47.0674" lon="8.50965">
        <ele>418.8</ele>
        <time>2023-02-12T09:51:03Z</time>
      </trkpt>
      <trkpt lat="47.0674" lon="8.50965">
        <ele>418.8</ele>
        <time>2023-02-12T09:51:04Z</time>
      </trkpt>
      <trkpt lat="47.0674" lon="8.50965">
        <ele>418.8</ele>
        <time>2023-02-12T09:51:05Z</time>
      </trkpt>
      <trkpt lat="47.0674" lon="8.50965">
        <ele>418.8</ele>
        <time>2023-02-12T09:51:06Z</time>
      </trkpt>
      <trkpt lat="47.0674" lon="8.50965">
        <ele>418.8</ele>
        <time>2023-02-12T09:51:07Z</time>
      </trkpt>
      <trkpt lat="47.0674" lon="8.50965">
        <ele>418.8</ele>
        <time>2023-02-12T09:51:08Z</time>
      </trkpt>
      <trkpt lat="47.0674" lon="8.50965">
        <ele>418.8</ele>
        <time>2023-02-12T09:51:09Z</time>
      </trkpt>
      <trkpt lat="47.0674" lon="8.50965">
        <ele>418.8</ele>
        <time>2023-02-12T09:51:10Z</time>
      </trkpt>
      <trkpt lat="47.0674" lon="8.50965">
        <ele>418.8</ele>
        <time>2023-02-12T09:51:11Z</time>
      </trkpt>
      <trkpt lat="47.0674" lon="8.50965">
        <ele>418.8</ele>
        <time>2023-02-12T09:51:12Z</time>
      </trkpt>
      <trkpt lat="47.0674" lon="8.50965">
        <ele>418.8</ele>
        <time>2023-02-12T09:51:13Z</time>
      </trkpt>
      <trkpt lat="47.0674" lon="8.50965">
        <ele>418.8</ele>
        <time>2023-02-12T09:51:14Z</time>
      </trkpt>
      <trkpt lat="47.0674" lon="8.50965">
        <ele>418.8</ele>
        <time>2023-02-12T09:51:15Z</time>
      </trkpt>
      <trkpt lat="47.0674" lon="8.50966">
        <ele>418.8</ele>
        <time>2023-02-12T09:51:16Z</time>
      </trkpt>
      <trkpt lat="47.0674" lon="8.50966">
        <ele>418.8</ele>
        <time>2023-02-12T09:51:17Z</time>
      </trkpt>
      <trkpt lat="47.0674" lon="8.50966">
        <ele>418.8</ele>
        <time>2023-02-12T09:51:18Z</time>
      </trkpt>
      <trkpt lat="47.0674" lon="8.50965">
        <ele>418.8</ele>
        <time>2023-02-12T09:51:19Z</time>
      </trkpt>
      <trkpt lat="47.0674" lon="8.50965">
        <ele>418.8</ele>
        <time>2023-02-12T09:51:20Z</time>
      </trkpt>
      <trkpt lat="47.0674" lon="8.50966">
        <ele>418.8</ele>
        <time>2023-02-12T09:51:21Z</time>
      </trkpt>
      <trkpt lat="47.0674" lon="8.50965">
        <ele>418.8</ele>
        <time>2023-02-12T09:51:22Z</time>
      </trkpt>
      <trkpt lat="47.0674" lon="8.50965">
        <ele>418.8</ele>
        <time>2023-02-12T09:51:23Z</time>
      </trkpt>
      <trkpt lat="47.0674" lon="8.50966">
        <ele>418.8</ele>
        <time>2023-02-12T09:51:24Z</time>
      </trkpt>
      <trkpt lat="47.0674" lon="8.50965">
        <ele>418.8</ele>
        <time>2023-02-12T09:51:25Z</time>
      </trkpt>
      <trkpt lat="47.0674" lon="8.50965">
        <ele>418.8</ele>
        <time>2023-02-12T09:51:26Z</time>
      </trkpt>
      <trkpt lat="47.0674" lon="8.50965">
        <ele>418.8</ele>
        <time>2023-02-12T09:51:27Z</time>
      </trkpt>
      <trkpt lat="47.0674" lon="8.50965">
        <ele>418.8</ele>
        <time>2023-02-12T09:51:28Z</time>
      </trkpt>
      <trkpt lat="47.0674" lon="8.50965">
        <ele>418.8</ele>
        <time>2023-02-12T09:51:29Z</time>
      </trkpt>
      <trkpt lat="47.0674" lon="8.50965">
        <ele>418.8</ele>
        <time>2023-02-12T09:51:30Z</time>
      </trkpt>
      <trkpt lat="47.0674" lon="8.50965">
        <ele>418.8</ele>
        <time>2023-02-12T09:51:31Z</time>
      </trkpt>
      <trkpt lat="47.0674" lon="8.50965">
        <ele>418.8</ele>
        <time>2023-02-12T09:51:32Z</time>
      </trkpt>
      <trkpt lat="47.0674" lon="8.50966">
        <ele>418.8</ele>
        <time>2023-02-12T09:51:33Z</time>
      </trkpt>
      <trkpt lat="47.0674" lon="8.50966">
        <ele>418.8</ele>
        <time>2023-02-12T09:51:34Z</time>
      </trkpt>
      <trkpt lat="47.0674" lon="8.50965">
        <ele>418.8</ele>
        <time>2023-02-12T09:51:35Z</time>
      </trkpt>
      <trkpt lat="47.0674" lon="8.50965">
        <ele>418.8</ele>
        <time>2023-02-12T09:51:36Z</time>
      </trkpt>
      <trkpt lat="47.0674" lon="8.50965">
        <ele>418.8</ele>
        <time>2023-02-12T09:51:37Z</time>
      </trkpt>
      <trkpt lat="47.0674" lon="8.50965">
        <ele>418.8</ele>
        <time>2023-02-12T09:51:38Z</time>
      </trkpt>
      <trkpt lat="47.0674" lon="8.50965">
        <ele>418.8</ele>
        <time>2023-02-12T09:51:39Z</time>
      </trkpt>
      <trkpt lat="47.0674" lon="8.50965">
        <ele>418.8</ele>
        <time>2023-02-12T09:51:40Z</time>
      </trkpt>
      <trkpt lat="47.0674" lon="8.50965">
        <ele>418.8</ele>
        <time>2023-02-12T09:51:41Z</time>
      </trkpt>
      <trkpt lat="47.0674" lon="8.50966">
        <ele>418.8</ele>
        <time>2023-02-12T09:51:42Z</time>
      </trkpt>
      <trkpt lat="47.0674" lon="8.50965">
        <ele>418.8</ele>
        <time>2023-02-12T09:51:43Z</time>
      </trkpt>
      <trkpt lat="47.0674" lon="8.50965">
        <ele>418.8</ele>
        <time>2023-02-12T09:51:44Z</time>
      </trkpt>
      <trkpt lat="47.0674" lon="8.50965">
        <ele>418.8</ele>
        <time>2023-02-12T09:51:45Z</time>
      </trkpt>
      <trkpt lat="47.0674" lon="8.50965">
        <ele>418.8</ele>
        <time>2023-02-12T09:51:46Z</time>
      </trkpt>
      <trkpt lat="47.0674" lon="8.50965">
        <ele>418.8</ele>
        <time>2023-02-12T09:51:47Z</time>
      </trkpt>
      <trkpt lat="47.0674" lon="8.50965">
        <ele>418.8</ele>
        <time>2023-02-12T09:51:48Z</time>
      </trkpt>
      <trkpt lat="47.0674" lon="8.50965">
        <ele>418.8</ele>
        <time>2023-02-12T09:51:49Z</time>
      </trkpt>
      <trkpt lat="47.0674" lon="8.50965">
        <ele>418.8</ele>
        <time>2023-02-12T09:51:50Z</time>
      </trkpt>
      <trkpt lat="47.0674" lon="8.50965">
        <ele>418.8</ele>
        <time>2023-02-12T09:51:51Z</time>
      </trkpt>
      <trkpt lat="47.0674" lon="8.50965">
        <ele>418.8</ele>
        <time>2023-02-12T09:51:52Z</time>
      </trkpt>
      <trkpt lat="47.0674" lon="8.50966">
        <ele>418.8</ele>
        <time>2023-02-12T09:51:53Z</time>
      </trkpt>
      <trkpt lat="47.0674" lon="8.50966">
        <ele>418.8</ele>
        <time>2023-02-12T09:51:54Z</time>
      </trkpt>
      <trkpt lat="47.0674" lon="8.50966">
        <ele>418.8</ele>
        <time>2023-02-12T09:51:55Z</time>
      </trkpt>
      <trkpt lat="47.0674" lon="8.50966">
        <ele>418.8</ele>
        <time>2023-02-12T09:51:56Z</time>
      </trkpt>
      <trkpt lat="47.0674" lon="8.50966">
        <ele>418.8</ele>
        <time>2023-02-12T09:51:57Z</time>
      </trkpt>
      <trkpt lat="47.0674" lon="8.50966">
        <ele>418.8</ele>
        <time>2023-02-12T09:51:58Z</time>
      </trkpt>
      <trkpt lat="47.0674" lon="8.50966">
        <ele>418.8</ele>
        <time>2023-02-12T09:51:59Z</time>
      </trkpt>
      <trkpt lat="47.0674" lon="8.50966">
        <ele>418.8</ele>
        <time>2023-02-12T09:52:00Z</time>
      </trkpt>
      <trkpt lat="47.0674" lon="8.50966">
        <ele>418.8</ele>
        <time>2023-02-12T09:52:01Z</time>
      </trkpt>
      <trkpt lat="47.0674" lon="8.50966">
        <ele>418.8</ele>
        <time>2023-02-12T09:52:02Z</time>
      </trkpt>
      <trkpt lat="47.0674" lon="8.50966">
        <ele>418.8</ele>
        <time>2023-02-12T09:52:03Z</time>
      </trkpt>
      <trkpt lat="47.0674" lon="8.50966">
        <ele>418.8</ele>
        <time>2023-02-12T09:52:04Z</time>
      </trkpt>
      <trkpt lat="47.0674" lon="8.50966">
        <ele>418.8</ele>
        <time>2023-02-12T09:52:05Z</time>
      </trkpt>
      <trkpt lat="47.0674" lon="8.50966">
        <ele>418.8</ele>
        <time>2023-02-12T09:52:06Z</time>
      </trkpt>
      <trkpt lat="47.06738" lon="8.50966">
        <ele>418.8</ele>
        <time>2023-02-12T09:52:07Z</time>
      </trkpt>
      <trkpt lat="47.06738" lon="8.50965">
        <ele>418.8</ele>
        <time>2023-02-12T09:52:08Z</time>
      </trkpt>
      <trkpt lat="47.06737" lon="8.50966">
        <ele>418.8</ele>
        <time>2023-02-12T09:52:09Z</time>
      </trkpt>
      <trkpt lat="47.06737" lon="8.50966">
        <ele>418.8</ele>
        <time>2023-02-12T09:52:10Z</time>
      </trkpt>
      <trkpt lat="47.06737" lon="8.50966">
        <ele>418.8</ele>
        <time>2023-02-12T09:52:11Z</time>
      </trkpt>
      <trkpt lat="47.06737" lon="8.50966">
        <ele>418.8</ele>
        <time>2023-02-12T09:52:12Z</time>
      </trkpt>
      <trkpt lat="47.06737" lon="8.50966">
        <ele>418.6</ele>
        <time>2023-02-12T09:52:13Z</time>
      </trkpt>
      <trkpt lat="47.06737" lon="8.50966">
        <ele>418.6</ele>
        <time>2023-02-12T09:52:14Z</time>
      </trkpt>
      <trkpt lat="47.06737" lon="8.50966">
        <ele>418.6</ele>
        <time>2023-02-12T09:52:15Z</time>
      </trkpt>
      <trkpt lat="47.06737" lon="8.50966">
        <ele>418.6</ele>
        <time>2023-02-12T09:52:16Z</time>
      </trkpt>
      <trkpt lat="47.06737" lon="8.50966">
        <ele>418.6</ele>
        <time>2023-02-12T09:52:17Z</time>
      </trkpt>
      <trkpt lat="47.06737" lon="8.50966">
        <ele>418.6</ele>
        <time>2023-02-12T09:52:18Z</time>
      </trkpt>
      <trkpt lat="47.06737" lon="8.50966">
        <ele>418.6</ele>
        <time>2023-02-12T09:52:19Z</time>
      </trkpt>
      <trkpt lat="47.06737" lon="8.50966">
        <ele>418.6</ele>
        <time>2023-02-12T09:52:20Z</time>
      </trkpt>
      <trkpt lat="47.06737" lon="8.50966">
        <ele>418.6</ele>
        <time>2023-02-12T09:52:21Z</time>
      </trkpt>
      <trkpt lat="47.06737" lon="8.50966">
        <ele>418.6</ele>
        <time>2023-02-12T09:52:22Z</time>
      </trkpt>
      <trkpt lat="47.06737" lon="8.50966">
        <ele>418.6</ele>
        <time>2023-02-12T09:52:23Z</time>
      </trkpt>
      <trkpt lat="47.06737" lon="8.50966">
        <ele>418.6</ele>
        <time>2023-02-12T09:52:24Z</time>
      </trkpt>
      <trkpt lat="47.06736" lon="8.50966">
        <ele>418.6</ele>
        <time>2023-02-12T09:52:25Z</time>
      </trkpt>
      <trkpt lat="47.06735" lon="8.50965">
        <ele>418.6</ele>
        <time>2023-02-12T09:52:26Z</time>
      </trkpt>
      <trkpt lat="47.06733" lon="8.50963">
        <ele>418.4</ele>
        <time>2023-02-12T09:52:27Z</time>
      </trkpt>
      <trkpt lat="47.0673" lon="8.50961">
        <ele>418.4</ele>
        <time>2023-02-12T09:52:28Z</time>
      </trkpt>
      <trkpt lat="47.06728" lon="8.5096">
        <ele>418.4</ele>
        <time>2023-02-12T09:52:29Z</time>
      </trkpt>
      <trkpt lat="47.06725" lon="8.5096">
        <ele>418.2</ele>
        <time>2023-02-12T09:52:30Z</time>
      </trkpt>
      <trkpt lat="47.06723" lon="8.50959">
        <ele>418.2</ele>
        <time>2023-02-12T09:52:31Z</time>
      </trkpt>
      <trkpt lat="47.0672" lon="8.50959">
        <ele>418.2</ele>
        <time>2023-02-12T09:52:32Z</time>
      </trkpt>
      <trkpt lat="47.06717" lon="8.5096">
        <ele>418.2</ele>
        <time>2023-02-12T09:52:33Z</time>
      </trkpt>
      <trkpt lat="47.06713" lon="8.50961">
        <ele>418.2</ele>
        <time>2023-02-12T09:52:34Z</time>
      </trkpt>
      <trkpt lat="47.0671" lon="8.50962">
        <ele>418.2</ele>
        <time>2023-02-12T09:52:35Z</time>
      </trkpt>
      <trkpt lat="47.06706" lon="8.50963">
        <ele>418.2</ele>
        <time>2023-02-12T09:52:36Z</time>
      </trkpt>
      <trkpt lat="47.06702" lon="8.50964">
        <ele>418.2</ele>
        <time>2023-02-12T09:52:37Z</time>
      </trkpt>
      <trkpt lat="47.06699" lon="8.50965">
        <ele>418.2</ele>
        <time>2023-02-12T09:52:38Z</time>
      </trkpt>
      <trkpt lat="47.06695" lon="8.50966">
        <ele>418.4</ele>
        <time>2023-02-12T09:52:39Z</time>
      </trkpt>
      <trkpt lat="47.06691" lon="8.50967">
        <ele>418.4</ele>
        <time>2023-02-12T09:52:40Z</time>
      </trkpt>
      <trkpt lat="47.06687" lon="8.50968">
        <ele>418.4</ele>
        <time>2023-02-12T09:52:41Z</time>
      </trkpt>
      <trkpt lat="47.06683" lon="8.50969">
        <ele>418.4</ele>
        <time>2023-02-12T09:52:42Z</time>
      </trkpt>
      <trkpt lat="47.06679" lon="8.50969">
        <ele>418.4</ele>
        <time>2023-02-12T09:52:43Z</time>
      </trkpt>
      <trkpt lat="47.06675" lon="8.5097">
        <ele>418.4</ele>
        <time>2023-02-12T09:52:44Z</time>
      </trkpt>
      <trkpt lat="47.06671" lon="8.50971">
        <ele>418.4</ele>
        <time>2023-02-12T09:52:45Z</time>
      </trkpt>
      <trkpt lat="47.06666" lon="8.50972">
        <ele>418.4</ele>
        <time>2023-02-12T09:52:46Z</time>
      </trkpt>
      <trkpt lat="47.06661" lon="8.50973">
        <ele>418.4</ele>
        <time>2023-02-12T09:52:47Z</time>
      </trkpt>
      <trkpt lat="47.06656" lon="8.50974">
        <ele>418.6</ele>
        <time>2023-02-12T09:52:48Z</time>
      </trkpt>
      <trkpt lat="47.06651" lon="8.50975">
        <ele>418.6</ele>
        <time>2023-02-12T09:52:49Z</time>
      </trkpt>
      <trkpt lat="47.06646" lon="8.50977">
        <ele>418.6</ele>
        <time>2023-02-12T09:52:50Z</time>
      </trkpt>
      <trkpt lat="47.06641" lon="8.50977">
        <ele>418.6</ele>
        <time>2023-02-12T09:52:51Z</time>
      </trkpt>
      <trkpt lat="47.06635" lon="8.50978">
        <ele>418.8</ele>
        <time>2023-02-12T09:52:52Z</time>
      </trkpt>
      <trkpt lat="47.0663" lon="8.50979">
        <ele>418.8</ele>
        <time>2023-02-12T09:52:53Z</time>
      </trkpt>
      <trkpt lat="47.06625" lon="8.50981">
        <ele>418.8</ele>
        <time>2023-02-12T09:52:54Z</time>
      </trkpt>
      <trkpt lat="47.06619" lon="8.50983">
        <ele>418.8</ele>
        <time>2023-02-12T09:52:55Z</time>
      </trkpt>
      <trkpt lat="47.06614" lon="8.50984">
        <ele>418.8</ele>
        <time>2023-02-12T09:52:56Z</time>
      </trkpt>
      <trkpt lat="47.06609" lon="8.50986">
        <ele>418.8</ele>
        <time>2023-02-12T09:52:57Z</time>
      </trkpt>
      <trkpt lat="47.06604" lon="8.50989">
        <ele>418.8</ele>
        <time>2023-02-12T09:52:58Z</time>
      </trkpt>
      <trkpt lat="47.06598" lon="8.50991">
        <ele>418.8</ele>
        <time>2023-02-12T09:52:59Z</time>
      </trkpt>
      <trkpt lat="47.06592" lon="8.50994">
        <ele>418.8</ele>
        <time>2023-02-12T09:53:00Z</time>
      </trkpt>
      <trkpt lat="47.06587" lon="8.50997">
        <ele>418.8</ele>
        <time>2023-02-12T09:53:01Z</time>
      </trkpt>
      <trkpt lat="47.06581" lon="8.51001">
        <ele>418.8</ele>
        <time>2023-02-12T09:53:02Z</time>
      </trkpt>
      <trkpt lat="47.06576" lon="8.51005">
        <ele>418.8</ele>
        <time>2023-02-12T09:53:03Z</time>
      </trkpt>
      <trkpt lat="47.06571" lon="8.5101">
        <ele>418.6</ele>
        <time>2023-02-12T09:53:04Z</time>
      </trkpt>
      <trkpt lat="47.06566" lon="8.51016">
        <ele>418.6</ele>
        <time>2023-02-12T09:53:05Z</time>
      </trkpt>
      <trkpt lat="47.06561" lon="8.51023">
        <ele>418.6</ele>
        <time>2023-02-12T09:53:06Z</time>
      </trkpt>
      <trkpt lat="47.06557" lon="8.5103">
        <ele>418.6</ele>
        <time>2023-02-12T09:53:07Z</time>
      </trkpt>
      <trkpt lat="47.06554" lon="8.51037">
        <ele>418.6</ele>
        <time>2023-02-12T09:53:08Z</time>
      </trkpt>
      <trkpt lat="47.0655" lon="8.51045">
        <ele>418.6</ele>
        <time>2023-02-12T09:53:09Z</time>
      </trkpt>
      <trkpt lat="47.06546" lon="8.51051">
        <ele>418.4</ele>
        <time>2023-02-12T09:53:10Z</time>
      </trkpt>
      <trkpt lat="47.06542" lon="8.51058">
        <ele>418.4</ele>
        <time>2023-02-12T09:53:11Z</time>
      </trkpt>
      <trkpt lat="47.06538" lon="8.51065">
        <ele>418.4</ele>
        <time>2023-02-12T09:53:12Z</time>
      </trkpt>
      <trkpt lat="47.06533" lon="8.51072">
        <ele>418.2</ele>
        <time>2023-02-12T09:53:13Z</time>
      </trkpt>
      <trkpt lat="47.06529" lon="8.51078">
        <ele>418.2</ele>
        <time>2023-02-12T09:53:14Z</time>
      </trkpt>
      <trkpt lat="47.06524" lon="8.51085">
        <ele>418.2</ele>
        <time>2023-02-12T09:53:15Z</time>
      </trkpt>
      <trkpt lat="47.0652" lon="8.51091">
        <ele>418.2</ele>
        <time>2023-02-12T09:53:16Z</time>
      </trkpt>
      <trkpt lat="47.06516" lon="8.51096">
        <ele>418.2</ele>
        <time>2023-02-12T09:53:17Z</time>
      </trkpt>
      <trkpt lat="47.06511" lon="8.51101">
        <ele>418.4</ele>
        <time>2023-02-12T09:53:18Z</time>
      </trkpt>
      <trkpt lat="47.06506" lon="8.51105">
        <ele>418.4</ele>
        <time>2023-02-12T09:53:19Z</time>
      </trkpt>
      <trkpt lat="47.06501" lon="8.5111">
        <ele>418.4</ele>
        <time>2023-02-12T09:53:20Z</time>
      </trkpt>
      <trkpt lat="47.06495" lon="8.51114">
        <ele>418.4</ele>
        <time>2023-02-12T09:53:21Z</time>
      </trkpt>
      <trkpt lat="47.0649" lon="8.51117">
        <ele>418.4</ele>
        <time>2023-02-12T09:53:22Z</time>
      </trkpt>
      <trkpt lat="47.06484" lon="8.5112">
        <ele>418.4</ele>
        <time>2023-02-12T09:53:23Z</time>
      </trkpt>
      <trkpt lat="47.06478" lon="8.51124">
        <ele>418.4</ele>
        <time>2023-02-12T09:53:24Z</time>
      </trkpt>
      <trkpt lat="47.06473" lon="8.51127">
        <ele>418.4</ele>
        <time>2023-02-12T09:53:25Z</time>
      </trkpt>
      <trkpt lat="47.06468" lon="8.5113">
        <ele>418.4</ele>
        <time>2023-02-12T09:53:26Z</time>
      </trkpt>
      <trkpt lat="47.06463" lon="8.51133">
        <ele>418.4</ele>
        <time>2023-02-12T09:53:27Z</time>
      </trkpt>
      <trkpt lat="47.06459" lon="8.51136">
        <ele>418.2</ele>
        <time>2023-02-12T09:53:28Z</time>
      </trkpt>
      <trkpt lat="47.06454" lon="8.51139">
        <ele>418.2</ele>
        <time>2023-02-12T09:53:29Z</time>
      </trkpt>
      <trkpt lat="47.06449" lon="8.51142">
        <ele>418.2</ele>
        <time>2023-02-12T09:53:30Z</time>
      </trkpt>
      <trkpt lat="47.06444" lon="8.51144">
        <ele>418.4</ele>
        <time>2023-02-12T09:53:31Z</time>
      </trkpt>
      <trkpt lat="47.06439" lon="8.51147">
        <ele>418.6</ele>
        <time>2023-02-12T09:53:32Z</time>
      </trkpt>
      <trkpt lat="47.06434" lon="8.5115">
        <ele>418.6</ele>
        <time>2023-02-12T09:53:33Z</time>
      </trkpt>
      <trkpt lat="47.06429" lon="8.51153">
        <ele>418.6</ele>
        <time>2023-02-12T09:53:34Z</time>
      </trkpt>
      <trkpt lat="47.06424" lon="8.51157">
        <ele>418.8</ele>
        <time>2023-02-12T09:53:35Z</time>
      </trkpt>
      <trkpt lat="47.06419" lon="8.5116">
        <ele>418.8</ele>
        <time>2023-02-12T09:53:36Z</time>
      </trkpt>
      <trkpt lat="47.06414" lon="8.51164">
        <ele>419</ele>
        <time>2023-02-12T09:53:37Z</time>
      </trkpt>
      <trkpt lat="47.06409" lon="8.51168">
        <ele>419.2</ele>
        <time>2023-02-12T09:53:38Z</time>
      </trkpt>
      <trkpt lat="47.06405" lon="8.51174">
        <ele>419.4</ele>
        <time>2023-02-12T09:53:39Z</time>
      </trkpt>
      <trkpt lat="47.06401" lon="8.51179">
        <ele>419.6</ele>
        <time>2023-02-12T09:53:40Z</time>
      </trkpt>
      <trkpt lat="47.06397" lon="8.51184">
        <ele>419.8</ele>
        <time>2023-02-12T09:53:41Z</time>
      </trkpt>
      <trkpt lat="47.06393" lon="8.5119">
        <ele>419.8</ele>
        <time>2023-02-12T09:53:42Z</time>
      </trkpt>
      <trkpt lat="47.06389" lon="8.51195">
        <ele>420</ele>
        <time>2023-02-12T09:53:43Z</time>
      </trkpt>
      <trkpt lat="47.06385" lon="8.51201">
        <ele>420.2</ele>
        <time>2023-02-12T09:53:44Z</time>
      </trkpt>
      <trkpt lat="47.06381" lon="8.51206">
        <ele>420.4</ele>
        <time>2023-02-12T09:53:45Z</time>
      </trkpt>
      <trkpt lat="47.06377" lon="8.51211">
        <ele>420.4</ele>
        <time>2023-02-12T09:53:46Z</time>
      </trkpt>
      <trkpt lat="47.06373" lon="8.51216">
        <ele>420.6</ele>
        <time>2023-02-12T09:53:47Z</time>
      </trkpt>
      <trkpt lat="47.06369" lon="8.51222">
        <ele>420.6</ele>
        <time>2023-02-12T09:53:48Z</time>
      </trkpt>
      <trkpt lat="47.06365" lon="8.51227">
        <ele>420.8</ele>
        <time>2023-02-12T09:53:49Z</time>
      </trkpt>
      <trkpt lat="47.0636" lon="8.51233">
        <ele>420.8</ele>
        <time>2023-02-12T09:53:50Z</time>
      </trkpt>
      <trkpt lat="47.06356" lon="8.51239">
        <ele>420.8</ele>
        <time>2023-02-12T09:53:51Z</time>
      </trkpt>
      <trkpt lat="47.06351" lon="8.51245">
        <ele>420.6</ele>
        <time>2023-02-12T09:53:52Z</time>
      </trkpt>
      <trkpt lat="47.06347" lon="8.51251">
        <ele>420.6</ele>
        <time>2023-02-12T09:53:53Z</time>
      </trkpt>
      <trkpt lat="47.06342" lon="8.51257">
        <ele>420.6</ele>
        <time>2023-02-12T09:53:54Z</time>
      </trkpt>
      <trkpt lat="47.06338" lon="8.51262">
        <ele>420.6</ele>
        <time>2023-02-12T09:53:55Z</time>
      </trkpt>
      <trkpt lat="47.06333" lon="8.51268">
        <ele>420.4</ele>
        <time>2023-02-12T09:53:56Z</time>
      </trkpt>
      <trkpt lat="47.06328" lon="8.51273">
        <ele>420.4</ele>
        <time>2023-02-12T09:53:57Z</time>
      </trkpt>
      <trkpt lat="47.06323" lon="8.51278">
        <ele>420.2</ele>
        <time>2023-02-12T09:53:58Z</time>
      </trkpt>
      <trkpt lat="47.06317" lon="8.51283">
        <ele>420</ele>
        <time>2023-02-12T09:53:59Z</time>
      </trkpt>
      <trkpt lat="47.06312" lon="8.51288">
        <ele>419.8</ele>
        <time>2023-02-12T09:54:00Z</time>
      </trkpt>
      <trkpt lat="47.06307" lon="8.51293">
        <ele>419.8</ele>
        <time>2023-02-12T09:54:01Z</time>
      </trkpt>
      <trkpt lat="47.06301" lon="8.51298">
        <ele>419.8</ele>
        <time>2023-02-12T09:54:02Z</time>
      </trkpt>
      <trkpt lat="47.06296" lon="8.51303">
        <ele>419.6</ele>
        <time>2023-02-12T09:54:03Z</time>
      </trkpt>
      <trkpt lat="47.06291" lon="8.51307">
        <ele>419.4</ele>
        <time>2023-02-12T09:54:04Z</time>
      </trkpt>
      <trkpt lat="47.06287" lon="8.51312">
        <ele>419.4</ele>
        <time>2023-02-12T09:54:05Z</time>
      </trkpt>
      <trkpt lat="47.06281" lon="8.51316">
        <ele>419.4</ele>
        <time>2023-02-12T09:54:06Z</time>
      </trkpt>
      <trkpt lat="47.06276" lon="8.51321">
        <ele>419.4</ele>
        <time>2023-02-12T09:54:07Z</time>
      </trkpt>
      <trkpt lat="47.06271" lon="8.51325">
        <ele>419.4</ele>
        <time>2023-02-12T09:54:08Z</time>
      </trkpt>
      <trkpt lat="47.06266" lon="8.5133">
        <ele>419.4</ele>
        <time>2023-02-12T09:54:09Z</time>
      </trkpt>
      <trkpt lat="47.06261" lon="8.51334">
        <ele>419.4</ele>
        <time>2023-02-12T09:54:10Z</time>
      </trkpt>
      <trkpt lat="47.06256" lon="8.51338">
        <ele>419.2</ele>
        <time>2023-02-12T09:54:11Z</time>
      </trkpt>
      <trkpt lat="47.06251" lon="8.51343">
        <ele>419.2</ele>
        <time>2023-02-12T09:54:12Z</time>
      </trkpt>
      <trkpt lat="47.06245" lon="8.51347">
        <ele>419</ele>
        <time>2023-02-12T09:54:13Z</time>
      </trkpt>
      <trkpt lat="47.0624" lon="8.51351">
        <ele>419.2</ele>
        <time>2023-02-12T09:54:14Z</time>
      </trkpt>
      <trkpt lat="47.06236" lon="8.51355">
        <ele>419.2</ele>
        <time>2023-02-12T09:54:15Z</time>
      </trkpt>
      <trkpt lat="47.06231" lon="8.51358">
        <ele>419.2</ele>
        <time>2023-02-12T09:54:16Z</time>
      </trkpt>
      <trkpt lat="47.06225" lon="8.51362">
        <ele>419.2</ele>
        <time>2023-02-12T09:54:17Z</time>
      </trkpt>
      <trkpt lat="47.06219" lon="8.51365">
        <ele>419.2</ele>
        <time>2023-02-12T09:54:18Z</time>
      </trkpt>
      <trkpt lat="47.06214" lon="8.51369">
        <ele>419.2</ele>
        <time>2023-02-12T09:54:19Z</time>
      </trkpt>
      <trkpt lat="47.06208" lon="8.51372">
        <ele>419.2</ele>
        <time>2023-02-12T09:54:20Z</time>
      </trkpt>
      <trkpt lat="47.06202" lon="8.51375">
        <ele>419.4</ele>
        <time>2023-02-12T09:54:21Z</time>
      </trkpt>
      <trkpt lat="47.06196" lon="8.51378">
        <ele>419.2</ele>
        <time>2023-02-12T09:54:22Z</time>
      </trkpt>
      <trkpt lat="47.0619" lon="8.5138">
        <ele>419.2</ele>
        <time>2023-02-12T09:54:23Z</time>
      </trkpt>
      <trkpt lat="47.06184" lon="8.51383">
        <ele>419.2</ele>
        <time>2023-02-12T09:54:24Z</time>
      </trkpt>
      <trkpt lat="47.06178" lon="8.51387">
        <ele>419</ele>
        <time>2023-02-12T09:54:25Z</time>
      </trkpt>
      <trkpt lat="47.06172" lon="8.51391">
        <ele>419</ele>
        <time>2023-02-12T09:54:26Z</time>
      </trkpt>
      <trkpt lat="47.06166" lon="8.51396">
        <ele>419</ele>
        <time>2023-02-12T09:54:27Z</time>
      </trkpt>
      <trkpt lat="47.0616" lon="8.51402">
        <ele>419</ele>
        <time>2023-02-12T09:54:28Z</time>
      </trkpt>
      <trkpt lat="47.06156" lon="8.51408">
        <ele>418.8</ele>
        <time>2023-02-12T09:54:29Z</time>
      </trkpt>
      <trkpt lat="47.06151" lon="8.51415">
        <ele>418.8</ele>
        <time>2023-02-12T09:54:30Z</time>
      </trkpt>
      <trkpt lat="47.06147" lon="8.51422">
        <ele>418.8</ele>
        <time>2023-02-12T09:54:31Z</time>
      </trkpt>
      <trkpt lat="47.06143" lon="8.51428">
        <ele>418.8</ele>
        <time>2023-02-12T09:54:32Z</time>
      </trkpt>
      <trkpt lat="47.06139" lon="8.51436">
        <ele>418.8</ele>
        <time>2023-02-12T09:54:33Z</time>
      </trkpt>
      <trkpt lat="47.06137" lon="8.51443">
        <ele>419</ele>
        <time>2023-02-12T09:54:34Z</time>
      </trkpt>
      <trkpt lat="47.06134" lon="8.51451">
        <ele>419</ele>
        <time>2023-02-12T09:54:35Z</time>
      </trkpt>
      <trkpt lat="47.06132" lon="8.51458">
        <ele>419.2</ele>
        <time>2023-02-12T09:54:36Z</time>
      </trkpt>
      <trkpt lat="47.06129" lon="8.51466">
        <ele>419.4</ele>
        <time>2023-02-12T09:54:37Z</time>
      </trkpt>
      <trkpt lat="47.06127" lon="8.51473">
        <ele>419.6</ele>
        <time>2023-02-12T09:54:38Z</time>
      </trkpt>
      <trkpt lat="47.06125" lon="8.51481">
        <ele>419.6</ele>
        <time>2023-02-12T09:54:39Z</time>
      </trkpt>
      <trkpt lat="47.06122" lon="8.51488">
        <ele>419.8</ele>
        <time>2023-02-12T09:54:40Z</time>
      </trkpt>
      <trkpt lat="47.06121" lon="8.51496">
        <ele>420</ele>
        <time>2023-02-12T09:54:41Z</time>
      </trkpt>
      <trkpt lat="47.06119" lon="8.51504">
        <ele>420.2</ele>
        <time>2023-02-12T09:54:42Z</time>
      </trkpt>
      <trkpt lat="47.06118" lon="8.51513">
        <ele>420.2</ele>
        <time>2023-02-12T09:54:43Z</time>
      </trkpt>
      <trkpt lat="47.06117" lon="8.51522">
        <ele>420.2</ele>
        <time>2023-02-12T09:54:44Z</time>
      </trkpt>
      <trkpt lat="47.06116" lon="8.5153">
        <ele>420.2</ele>
        <time>2023-02-12T09:54:45Z</time>
      </trkpt>
      <trkpt lat="47.06116" lon="8.51539">
        <ele>420.4</ele>
        <time>2023-02-12T09:54:46Z</time>
      </trkpt>
      <trkpt lat="47.06116" lon="8.51548">
        <ele>420.4</ele>
        <time>2023-02-12T09:54:47Z</time>
      </trkpt>
      <trkpt lat="47.06116" lon="8.51556">
        <ele>420.4</ele>
        <time>2023-02-12T09:54:48Z</time>
      </trkpt>
      <trkpt lat="47.06116" lon="8.51565">
        <ele>420.4</ele>
        <time>2023-02-12T09:54:49Z</time>
      </trkpt>
      <trkpt lat="47.06116" lon="8.51574">
        <ele>420.4</ele>
        <time>2023-02-12T09:54:50Z</time>
      </trkpt>
      <trkpt lat="47.06117" lon="8.51582">
        <ele>420.4</ele>
        <time>2023-02-12T09:54:51Z</time>
      </trkpt>
      <trkpt lat="47.06118" lon="8.51591">
        <ele>420.4</ele>
        <time>2023-02-12T09:54:52Z</time>
      </trkpt>
      <trkpt lat="47.06118" lon="8.51599">
        <ele>420.4</ele>
        <time>2023-02-12T09:54:53Z</time>
      </trkpt>
      <trkpt lat="47.06119" lon="8.51608">
        <ele>420.4</ele>
        <time>2023-02-12T09:54:54Z</time>
      </trkpt>
      <trkpt lat="47.06119" lon="8.51617">
        <ele>420.4</ele>
        <time>2023-02-12T09:54:55Z</time>
      </trkpt>
      <trkpt lat="47.0612" lon="8.51626">
        <ele>420.4</ele>
        <time>2023-02-12T09:54:56Z</time>
      </trkpt>
      <trkpt lat="47.0612" lon="8.51634">
        <ele>420.2</ele>
        <time>2023-02-12T09:54:57Z</time>
      </trkpt>
      <trkpt lat="47.06121" lon="8.51643">
        <ele>420.2</ele>
        <time>2023-02-12T09:54:58Z</time>
      </trkpt>
      <trkpt lat="47.06122" lon="8.51651">
        <ele>420.2</ele>
        <time>2023-02-12T09:54:59Z</time>
      </trkpt>
      <trkpt lat="47.06122" lon="8.5166">
        <ele>420.2</ele>
        <time>2023-02-12T09:55:00Z</time>
      </trkpt>
      <trkpt lat="47.06122" lon="8.51668">
        <ele>420.2</ele>
        <time>2023-02-12T09:55:01Z</time>
      </trkpt>
      <trkpt lat="47.06123" lon="8.51676">
        <ele>420</ele>
        <time>2023-02-12T09:55:02Z</time>
      </trkpt>
      <trkpt lat="47.06123" lon="8.51684">
        <ele>420</ele>
        <time>2023-02-12T09:55:03Z</time>
      </trkpt>
      <trkpt lat="47.06124" lon="8.51692">
        <ele>420</ele>
        <time>2023-02-12T09:55:04Z</time>
      </trkpt>
      <trkpt lat="47.06125" lon="8.51699">
        <ele>420</ele>
        <time>2023-02-12T09:55:05Z</time>
      </trkpt>
      <trkpt lat="47.06126" lon="8.51707">
        <ele>420</ele>
        <time>2023-02-12T09:55:06Z</time>
      </trkpt>
      <trkpt lat="47.06126" lon="8.51715">
        <ele>419.8</ele>
        <time>2023-02-12T09:55:07Z</time>
      </trkpt>
      <trkpt lat="47.06127" lon="8.51722">
        <ele>419.8</ele>
        <time>2023-02-12T09:55:08Z</time>
      </trkpt>
      <trkpt lat="47.06128" lon="8.51731">
        <ele>419.8</ele>
        <time>2023-02-12T09:55:09Z</time>
      </trkpt>
      <trkpt lat="47.06128" lon="8.51739">
        <ele>419.8</ele>
        <time>2023-02-12T09:55:10Z</time>
      </trkpt>
      <trkpt lat="47.06129" lon="8.51747">
        <ele>419.8</ele>
        <time>2023-02-12T09:55:11Z</time>
      </trkpt>
      <trkpt lat="47.0613" lon="8.51755">
        <ele>420</ele>
        <time>2023-02-12T09:55:12Z</time>
      </trkpt>
      <trkpt lat="47.06131" lon="8.51763">
        <ele>419.8</ele>
        <time>2023-02-12T09:55:13Z</time>
      </trkpt>
      <trkpt lat="47.06132" lon="8.51771">
        <ele>419.8</ele>
        <time>2023-02-12T09:55:14Z</time>
      </trkpt>
      <trkpt lat="47.06132" lon="8.5178">
        <ele>420</ele>
        <time>2023-02-12T09:55:15Z</time>
      </trkpt>
      <trkpt lat="47.06133" lon="8.51788">
        <ele>420</ele>
        <time>2023-02-12T09:55:16Z</time>
      </trkpt>
      <trkpt lat="47.06134" lon="8.51796">
        <ele>420</ele>
        <time>2023-02-12T09:55:17Z</time>
      </trkpt>
      <trkpt lat="47.06135" lon="8.51804">
        <ele>420</ele>
        <time>2023-02-12T09:55:18Z</time>
      </trkpt>
      <trkpt lat="47.06136" lon="8.51813">
        <ele>420</ele>
        <time>2023-02-12T09:55:19Z</time>
      </trkpt>
      <trkpt lat="47.06136" lon="8.51821">
        <ele>420.2</ele>
        <time>2023-02-12T09:55:20Z</time>
      </trkpt>
      <trkpt lat="47.06137" lon="8.51829">
        <ele>420</ele>
        <time>2023-02-12T09:55:21Z</time>
      </trkpt>
      <trkpt lat="47.06137" lon="8.51837">
        <ele>420</ele>
        <time>2023-02-12T09:55:22Z</time>
      </trkpt>
      <trkpt lat="47.06138" lon="8.51846">
        <ele>420</ele>
        <time>2023-02-12T09:55:23Z</time>
      </trkpt>
      <trkpt lat="47.06139" lon="8.51854">
        <ele>420</ele>
        <time>2023-02-12T09:55:24Z</time>
      </trkpt>
      <trkpt lat="47.0614" lon="8.51862">
        <ele>419.8</ele>
        <time>2023-02-12T09:55:25Z</time>
      </trkpt>
      <trkpt lat="47.0614" lon="8.51871">
        <ele>419.8</ele>
        <time>2023-02-12T09:55:26Z</time>
      </trkpt>
      <trkpt lat="47.06142" lon="8.51879">
        <ele>419.8</ele>
        <time>2023-02-12T09:55:27Z</time>
      </trkpt>
      <trkpt lat="47.06144" lon="8.51887">
        <ele>419.8</ele>
        <time>2023-02-12T09:55:28Z</time>
      </trkpt>
      <trkpt lat="47.06145" lon="8.51896">
        <ele>419.6</ele>
        <time>2023-02-12T09:55:29Z</time>
      </trkpt>
      <trkpt lat="47.06148" lon="8.51904">
        <ele>419.6</ele>
        <time>2023-02-12T09:55:30Z</time>
      </trkpt>
      <trkpt lat="47.0615" lon="8.51912">
        <ele>419.6</ele>
        <time>2023-02-12T09:55:31Z</time>
      </trkpt>
      <trkpt lat="47.06153" lon="8.51919">
        <ele>419.6</ele>
        <time>2023-02-12T09:55:32Z</time>
      </trkpt>
      <trkpt lat="47.06156" lon="8.51927">
        <ele>419.6</ele>
        <time>2023-02-12T09:55:33Z</time>
      </trkpt>
      <trkpt lat="47.06159" lon="8.51934">
        <ele>419.6</ele>
        <time>2023-02-12T09:55:34Z</time>
      </trkpt>
      <trkpt lat="47.06161" lon="8.51941">
        <ele>419.6</ele>
        <time>2023-02-12T09:55:35Z</time>
      </trkpt>
      <trkpt lat="47.06164" lon="8.51948">
        <ele>419.6</ele>
        <time>2023-02-12T09:55:36Z</time>
      </trkpt>
      <trkpt lat="47.06167" lon="8.51955">
        <ele>419.6</ele>
        <time>2023-02-12T09:55:37Z</time>
      </trkpt>
      <trkpt lat="47.0617" lon="8.51963">
        <ele>419.6</ele>
        <time>2023-02-12T09:55:38Z</time>
      </trkpt>
      <trkpt lat="47.06173" lon="8.5197">
        <ele>419.6</ele>
        <time>2023-02-12T09:55:39Z</time>
      </trkpt>
      <trkpt lat="47.06176" lon="8.51978">
        <ele>419.8</ele>
        <time>2023-02-12T09:55:40Z</time>
      </trkpt>
      <trkpt lat="47.06179" lon="8.51985">
        <ele>419.8</ele>
        <time>2023-02-12T09:55:41Z</time>
      </trkpt>
      <trkpt lat="47.06182" lon="8.51993">
        <ele>419.8</ele>
        <time>2023-02-12T09:55:42Z</time>
      </trkpt>
      <trkpt lat="47.06184" lon="8.52">
        <ele>419.8</ele>
        <time>2023-02-12T09:55:43Z</time>
      </trkpt>
      <trkpt lat="47.06187" lon="8.52007">
        <ele>419.8</ele>
        <time>2023-02-12T09:55:44Z</time>
      </trkpt>
      <trkpt lat="47.0619" lon="8.52014">
        <ele>419.8</ele>
        <time>2023-02-12T09:55:45Z</time>
      </trkpt>
      <trkpt lat="47.06193" lon="8.52022">
        <ele>419.8</ele>
        <time>2023-02-12T09:55:46Z</time>
      </trkpt>
      <trkpt lat="47.06196" lon="8.52029">
        <ele>419.8</ele>
        <time>2023-02-12T09:55:47Z</time>
      </trkpt>
      <trkpt lat="47.06198" lon="8.52036">
        <ele>419.8</ele>
        <time>2023-02-12T09:55:48Z</time>
      </trkpt>
      <trkpt lat="47.06201" lon="8.52043">
        <ele>419.8</ele>
        <time>2023-02-12T09:55:49Z</time>
      </trkpt>
      <trkpt lat="47.06205" lon="8.5205">
        <ele>419.8</ele>
        <time>2023-02-12T09:55:50Z</time>
      </trkpt>
      <trkpt lat="47.06208" lon="8.52058">
        <ele>419.8</ele>
        <time>2023-02-12T09:55:51Z</time>
      </trkpt>
      <trkpt lat="47.06211" lon="8.52065">
        <ele>419.8</ele>
        <time>2023-02-12T09:55:52Z</time>
      </trkpt>
      <trkpt lat="47.06215" lon="8.52072">
        <ele>419.8</ele>
        <time>2023-02-12T09:55:53Z</time>
      </trkpt>
      <trkpt lat="47.06218" lon="8.52078">
        <ele>419.8</ele>
        <time>2023-02-12T09:55:54Z</time>
      </trkpt>
      <trkpt lat="47.06221" lon="8.52085">
        <ele>419.8</ele>
        <time>2023-02-12T09:55:55Z</time>
      </trkpt>
      <trkpt lat="47.06224" lon="8.52092">
        <ele>419.8</ele>
        <time>2023-02-12T09:55:56Z</time>
      </trkpt>
      <trkpt lat="47.06228" lon="8.52099">
        <ele>419.8</ele>
        <time>2023-02-12T09:55:57Z</time>
      </trkpt>
      <trkpt lat="47.06231" lon="8.52105">
        <ele>419.8</ele>
        <time>2023-02-12T09:55:58Z</time>
      </trkpt>
      <trkpt lat="47.06235" lon="8.52111">
        <ele>419.8</ele>
        <time>2023-02-12T09:55:59Z</time>
      </trkpt>
      <trkpt lat="47.06238" lon="8.52118">
        <ele>419.8</ele>
        <time>2023-02-12T09:56:00Z</time>
      </trkpt>
      <trkpt lat="47.06241" lon="8.52124">
        <ele>419.8</ele>
        <time>2023-02-12T09:56:01Z</time>
      </trkpt>
      <trkpt lat="47.06245" lon="8.5213">
        <ele>419.8</ele>
        <time>2023-02-12T09:56:02Z</time>
      </trkpt>
      <trkpt lat="47.06249" lon="8.52135">
        <ele>419.8</ele>
        <time>2023-02-12T09:56:03Z</time>
      </trkpt>
      <trkpt lat="47.06253" lon="8.5214">
        <ele>419.8</ele>
        <time>2023-02-12T09:56:04Z</time>
      </trkpt>
      <trkpt lat="47.06257" lon="8.52144">
        <ele>419.8</ele>
        <time>2023-02-12T09:56:05Z</time>
      </trkpt>
      <trkpt lat="47.06261" lon="8.52148">
        <ele>419.8</ele>
        <time>2023-02-12T09:56:06Z</time>
      </trkpt>
      <trkpt lat="47.06266" lon="8.52151">
        <ele>420</ele>
        <time>2023-02-12T09:56:07Z</time>
      </trkpt>
      <trkpt lat="47.0627" lon="8.52154">
        <ele>420</ele>
        <time>2023-02-12T09:56:08Z</time>
      </trkpt>
      <trkpt lat="47.06274" lon="8.52157">
        <ele>420</ele>
        <time>2023-02-12T09:56:09Z</time>
      </trkpt>
      <trkpt lat="47.06278" lon="8.52159">
        <ele>420.2</ele>
        <time>2023-02-12T09:56:10Z</time>
      </trkpt>
      <trkpt lat="47.06283" lon="8.52161">
        <ele>420.2</ele>
        <time>2023-02-12T09:56:11Z</time>
      </trkpt>
      <trkpt lat="47.06288" lon="8.52163">
        <ele>420.4</ele>
        <time>2023-02-12T09:56:12Z</time>
      </trkpt>
      <trkpt lat="47.06293" lon="8.52165">
        <ele>420.4</ele>
        <time>2023-02-12T09:56:13Z</time>
      </trkpt>
      <trkpt lat="47.06297" lon="8.52167">
        <ele>420.4</ele>
        <time>2023-02-12T09:56:14Z</time>
      </trkpt>
      <trkpt lat="47.06302" lon="8.52169">
        <ele>420.6</ele>
        <time>2023-02-12T09:56:15Z</time>
      </trkpt>
      <trkpt lat="47.06307" lon="8.52171">
        <ele>420.6</ele>
        <time>2023-02-12T09:56:16Z</time>
      </trkpt>
      <trkpt lat="47.06311" lon="8.52173">
        <ele>420.8</ele>
        <time>2023-02-12T09:56:17Z</time>
      </trkpt>
      <trkpt lat="47.06316" lon="8.52175">
        <ele>420.8</ele>
        <time>2023-02-12T09:56:18Z</time>
      </trkpt>
      <trkpt lat="47.06319" lon="8.52178">
        <ele>420.8</ele>
        <time>2023-02-12T09:56:19Z</time>
      </trkpt>
      <trkpt lat="47.06322" lon="8.52181">
        <ele>420.8</ele>
        <time>2023-02-12T09:56:20Z</time>
      </trkpt>
      <trkpt lat="47.06325" lon="8.52186">
        <ele>420.8</ele>
        <time>2023-02-12T09:56:21Z</time>
      </trkpt>
      <trkpt lat="47.06328" lon="8.5219">
        <ele>421</ele>
        <time>2023-02-12T09:56:22Z</time>
      </trkpt>
      <trkpt lat="47.0633" lon="8.52192">
        <ele>421</ele>
        <time>2023-02-12T09:56:23Z</time>
      </trkpt>
      <trkpt lat="47.06334" lon="8.52194">
        <ele>421</ele>
        <time>2023-02-12T09:56:24Z</time>
      </trkpt>
      <trkpt lat="47.06338" lon="8.52195">
        <ele>421</ele>
        <time>2023-02-12T09:56:25Z</time>
      </trkpt>
      <trkpt lat="47.06342" lon="8.52196">
        <ele>421</ele>
        <time>2023-02-12T09:56:26Z</time>
      </trkpt>
      <trkpt lat="47.06346" lon="8.52199">
        <ele>421</ele>
        <time>2023-02-12T09:56:27Z</time>
      </trkpt>
      <trkpt lat="47.06349" lon="8.52202">
        <ele>420.8</ele>
        <time>2023-02-12T09:56:28Z</time>
      </trkpt>
      <trkpt lat="47.06353" lon="8.52207">
        <ele>420.8</ele>
        <time>2023-02-12T09:56:29Z</time>
      </trkpt>
      <trkpt lat="47.06357" lon="8.52211">
        <ele>420.8</ele>
        <time>2023-02-12T09:56:30Z</time>
      </trkpt>
      <trkpt lat="47.0636" lon="8.52215">
        <ele>420.6</ele>
        <time>2023-02-12T09:56:31Z</time>
      </trkpt>
      <trkpt lat="47.06363" lon="8.52219">
        <ele>420.6</ele>
        <time>2023-02-12T09:56:32Z</time>
      </trkpt>
      <trkpt lat="47.06366" lon="8.52223">
        <ele>420.6</ele>
        <time>2023-02-12T09:56:33Z</time>
      </trkpt>
      <trkpt lat="47.06369" lon="8.52227">
        <ele>420.6</ele>
        <time>2023-02-12T09:56:34Z</time>
      </trkpt>
      <trkpt lat="47.06372" lon="8.52231">
        <ele>420.6</ele>
        <time>2023-02-12T09:56:35Z</time>
      </trkpt>
      <trkpt lat="47.06375" lon="8.52235">
        <ele>420.4</ele>
        <time>2023-02-12T09:56:36Z</time>
      </trkpt>
      <trkpt lat="47.06378" lon="8.52239">
        <ele>420.4</ele>
        <time>2023-02-12T09:56:37Z</time>
      </trkpt>
      <trkpt lat="47.06382" lon="8.52243">
        <ele>420.6</ele>
        <time>2023-02-12T09:56:38Z</time>
      </trkpt>
      <trkpt lat="47.06385" lon="8.52248">
        <ele>420.6</ele>
        <time>2023-02-12T09:56:39Z</time>
      </trkpt>
      <trkpt lat="47.06389" lon="8.52251">
        <ele>420.6</ele>
        <time>2023-02-12T09:56:40Z</time>
      </trkpt>
      <trkpt lat="47.06393" lon="8.52256">
        <ele>420.6</ele>
        <time>2023-02-12T09:56:41Z</time>
      </trkpt>
      <trkpt lat="47.06397" lon="8.5226">
        <ele>420.6</ele>
        <time>2023-02-12T09:56:42Z</time>
      </trkpt>
      <trkpt lat="47.06401" lon="8.52264">
        <ele>420.6</ele>
        <time>2023-02-12T09:56:43Z</time>
      </trkpt>
      <trkpt lat="47.06405" lon="8.52267">
        <ele>420.6</ele>
        <time>2023-02-12T09:56:44Z</time>
      </trkpt>
      <trkpt lat="47.06409" lon="8.52269">
        <ele>420.6</ele>
        <time>2023-02-12T09:56:45Z</time>
      </trkpt>
      <trkpt lat="47.06414" lon="8.52271">
        <ele>420.4</ele>
        <time>2023-02-12T09:56:46Z</time>
      </trkpt>
      <trkpt lat="47.06419" lon="8.52274">
        <ele>420.4</ele>
        <time>2023-02-12T09:56:47Z</time>
      </trkpt>
      <trkpt lat="47.06423" lon="8.52276">
        <ele>420.4</ele>
        <time>2023-02-12T09:56:48Z</time>
      </trkpt>
      <trkpt lat="47.06427" lon="8.52278">
        <ele>420.4</ele>
        <time>2023-02-12T09:56:49Z</time>
      </trkpt>
      <trkpt lat="47.06432" lon="8.5228">
        <ele>420.4</ele>
        <time>2023-02-12T09:56:50Z</time>
      </trkpt>
      <trkpt lat="47.06437" lon="8.52283">
        <ele>420.4</ele>
        <time>2023-02-12T09:56:51Z</time>
      </trkpt>
      <trkpt lat="47.06441" lon="8.52285">
        <ele>420.4</ele>
        <time>2023-02-12T09:56:52Z</time>
      </trkpt>
      <trkpt lat="47.06446" lon="8.52287">
        <ele>420.4</ele>
        <time>2023-02-12T09:56:53Z</time>
      </trkpt>
      <trkpt lat="47.0645" lon="8.52289">
        <ele>420.4</ele>
        <time>2023-02-12T09:56:54Z</time>
      </trkpt>
      <trkpt lat="47.06454" lon="8.5229">
        <ele>420.4</ele>
        <time>2023-02-12T09:56:55Z</time>
      </trkpt>
      <trkpt lat="47.06457" lon="8.52292">
        <ele>420.4</ele>
        <time>2023-02-12T09:56:56Z</time>
      </trkpt>
      <trkpt lat="47.0646" lon="8.52293">
        <ele>420.4</ele>
        <time>2023-02-12T09:56:57Z</time>
      </trkpt>
      <trkpt lat="47.06462" lon="8.52294">
        <ele>420.4</ele>
        <time>2023-02-12T09:56:58Z</time>
      </trkpt>
      <trkpt lat="47.06464" lon="8.52295">
        <ele>420.4</ele>
        <time>2023-02-12T09:56:59Z</time>
      </trkpt>
      <trkpt lat="47.06465" lon="8.52295">
        <ele>420.4</ele>
        <time>2023-02-12T09:57:00Z</time>
      </trkpt>
      <trkpt lat="47.06465" lon="8.52296">
        <ele>420.4</ele>
        <time>2023-02-12T09:57:01Z</time>
      </trkpt>
      <trkpt lat="47.06465" lon="8.52295">
        <ele>420.4</ele>
        <time>2023-02-12T09:57:02Z</time>
      </trkpt>
      <trkpt lat="47.06465" lon="8.52295">
        <ele>420.2</ele>
        <time>2023-02-12T09:57:03Z</time>
      </trkpt>
      <trkpt lat="47.06465" lon="8.52296">
        <ele>420.2</ele>
        <time>2023-02-12T09:57:04Z</time>
      </trkpt>
      <trkpt lat="47.06464" lon="8.52296">
        <ele>420.2</ele>
        <time>2023-02-12T09:57:05Z</time>
      </trkpt>
      <trkpt lat="47.06464" lon="8.52298">
        <ele>420.2</ele>
        <time>2023-02-12T09:57:06Z</time>
      </trkpt>
      <trkpt lat="47.06464" lon="8.52301">
        <ele>420.2</ele>
        <time>2023-02-12T09:57:07Z</time>
      </trkpt>
      <trkpt lat="47.06464" lon="8.52302">
        <ele>420.2</ele>
        <time>2023-02-12T09:57:08Z</time>
      </trkpt>
      <trkpt lat="47.06465" lon="8.52302">
        <ele>420.2</ele>
        <time>2023-02-12T09:57:09Z</time>
      </trkpt>
      <trkpt lat="47.06465" lon="8.52302">
        <ele>420.2</ele>
        <time>2023-02-12T09:57:10Z</time>
      </trkpt>
      <trkpt lat="47.06465" lon="8.52302">
        <ele>420</ele>
        <time>2023-02-12T09:57:11Z</time>
      </trkpt>
      <trkpt lat="47.06465" lon="8.52303">
        <ele>420</ele>
        <time>2023-02-12T09:57:12Z</time>
      </trkpt>
      <trkpt lat="47.06465" lon="8.52304">
        <ele>420</ele>
        <time>2023-02-12T09:57:13Z</time>
      </trkpt>
      <trkpt lat="47.06464" lon="8.52304">
        <ele>420</ele>
        <time>2023-02-12T09:57:14Z</time>
      </trkpt>
      <trkpt lat="47.06463" lon="8.52304">
        <ele>420</ele>
        <time>2023-02-12T09:57:15Z</time>
      </trkpt>
      <trkpt lat="47.06462" lon="8.52304">
        <ele>420</ele>
        <time>2023-02-12T09:57:16Z</time>
      </trkpt>
      <trkpt lat="47.06461" lon="8.52304">
        <ele>420</ele>
        <time>2023-02-12T09:57:17Z</time>
      </trkpt>
      <trkpt lat="47.06461" lon="8.52303">
        <ele>420.2</ele>
        <time>2023-02-12T09:57:18Z</time>
      </trkpt>
      <trkpt lat="47.06461" lon="8.52302">
        <ele>420.2</ele>
        <time>2023-02-12T09:57:19Z</time>
      </trkpt>
      <trkpt lat="47.06461" lon="8.52302">
        <ele>420.2</ele>
        <time>2023-02-12T09:57:20Z</time>
      </trkpt>
      <trkpt lat="47.0646" lon="8.52302">
        <ele>420.2</ele>
        <time>2023-02-12T09:57:21Z</time>
      </trkpt>
      <trkpt lat="47.0646" lon="8.52301">
        <ele>420.2</ele>
        <time>2023-02-12T09:57:22Z</time>
      </trkpt>
      <trkpt lat="47.06459" lon="8.523">
        <ele>420.2</ele>
        <time>2023-02-12T09:57:23Z</time>
      </trkpt>
      <trkpt lat="47.06458" lon="8.52299">
        <ele>420.2</ele>
        <time>2023-02-12T09:57:24Z</time>
      </trkpt>
      <trkpt lat="47.06457" lon="8.52297">
        <ele>420.2</ele>
        <time>2023-02-12T09:57:25Z</time>
      </trkpt>
      <trkpt lat="47.06456" lon="8.52296">
        <ele>420</ele>
        <time>2023-02-12T09:57:26Z</time>
      </trkpt>
      <trkpt lat="47.06455" lon="8.52295">
        <ele>420</ele>
        <time>2023-02-12T09:57:27Z</time>
      </trkpt>
      <trkpt lat="47.06453" lon="8.52295">
        <ele>420</ele>
        <time>2023-02-12T09:57:28Z</time>
      </trkpt>
      <trkpt lat="47.06451" lon="8.52298">
        <ele>420</ele>
        <time>2023-02-12T09:57:29Z</time>
      </trkpt>
      <trkpt lat="47.0645" lon="8.52301">
        <ele>420</ele>
        <time>2023-02-12T09:57:30Z</time>
      </trkpt>
      <trkpt lat="47.06449" lon="8.52305">
        <ele>420</ele>
        <time>2023-02-12T09:57:31Z</time>
      </trkpt>
      <trkpt lat="47.06449" lon="8.52308">
        <ele>420</ele>
        <time>2023-02-12T09:57:32Z</time>
      </trkpt>
      <trkpt lat="47.06448" lon="8.52312">
        <ele>420.2</ele>
        <time>2023-02-12T09:57:33Z</time>
      </trkpt>
      <trkpt lat="47.06447" lon="8.52317">
        <ele>420.4</ele>
        <time>2023-02-12T09:57:34Z</time>
      </trkpt>
      <trkpt lat="47.06446" lon="8.52322">
        <ele>420.4</ele>
        <time>2023-02-12T09:57:35Z</time>
      </trkpt>
      <trkpt lat="47.06445" lon="8.52327">
        <ele>420.8</ele>
        <time>2023-02-12T09:57:36Z</time>
      </trkpt>
      <trkpt lat="47.06444" lon="8.52332">
        <ele>421</ele>
        <time>2023-02-12T09:57:37Z</time>
      </trkpt>
      <trkpt lat="47.06443" lon="8.52338">
        <ele>421.2</ele>
        <time>2023-02-12T09:57:38Z</time>
      </trkpt>
      <trkpt lat="47.06442" lon="8.52344">
        <ele>421.6</ele>
        <time>2023-02-12T09:57:39Z</time>
      </trkpt>
      <trkpt lat="47.0644" lon="8.5235">
        <ele>421.8</ele>
        <time>2023-02-12T09:57:40Z</time>
      </trkpt>
      <trkpt lat="47.06438" lon="8.52355">
        <ele>422.2</ele>
        <time>2023-02-12T09:57:41Z</time>
      </trkpt>
      <trkpt lat="47.06437" lon="8.52359">
        <ele>422.4</ele>
        <time>2023-02-12T09:57:42Z</time>
      </trkpt>
      <trkpt lat="47.06435" lon="8.52363">
        <ele>422.6</ele>
        <time>2023-02-12T09:57:43Z</time>
      </trkpt>
      <trkpt lat="47.06433" lon="8.52367">
        <ele>422.8</ele>
        <time>2023-02-12T09:57:44Z</time>
      </trkpt>
      <trkpt lat="47.06432" lon="8.52371">
        <ele>423</ele>
        <time>2023-02-12T09:57:45Z</time>
      </trkpt>
      <trkpt lat="47.0643" lon="8.52374">
        <ele>423.2</ele>
        <time>2023-02-12T09:57:46Z</time>
      </trkpt>
      <trkpt lat="47.06428" lon="8.52379">
        <ele>423.2</ele>
        <time>2023-02-12T09:57:47Z</time>
      </trkpt>
      <trkpt lat="47.06427" lon="8.52383">
        <ele>423.4</ele>
        <time>2023-02-12T09:57:48Z</time>
      </trkpt>
      <trkpt lat="47.06425" lon="8.52387">
        <ele>423.4</ele>
        <time>2023-02-12T09:57:49Z</time>
      </trkpt>
      <trkpt lat="47.06423" lon="8.52389">
        <ele>423.6</ele>
        <time>2023-02-12T09:57:50Z</time>
      </trkpt>
      <trkpt lat="47.0642" lon="8.52389">
        <ele>423.6</ele>
        <time>2023-02-12T09:57:51Z</time>
      </trkpt>
      <trkpt lat="47.06417" lon="8.52389">
        <ele>423.6</ele>
        <time>2023-02-12T09:57:52Z</time>
      </trkpt>
      <trkpt lat="47.06415" lon="8.52387">
        <ele>423.6</ele>
        <time>2023-02-12T09:57:53Z</time>
      </trkpt>
      <trkpt lat="47.06412" lon="8.52385">
        <ele>423.6</ele>
        <time>2023-02-12T09:57:54Z</time>
      </trkpt>
      <trkpt lat="47.06408" lon="8.52382">
        <ele>423.6</ele>
        <time>2023-02-12T09:57:55Z</time>
      </trkpt>
      <trkpt lat="47.06404" lon="8.5238">
        <ele>423.6</ele>
        <time>2023-02-12T09:57:56Z</time>
      </trkpt>
      <trkpt lat="47.06401" lon="8.52377">
        <ele>423.6</ele>
        <time>2023-02-12T09:57:57Z</time>
      </trkpt>
      <trkpt lat="47.06397" lon="8.52375">
        <ele>423.6</ele>
        <time>2023-02-12T09:57:58Z</time>
      </trkpt>
      <trkpt lat="47.06393" lon="8.52372">
        <ele>423.8</ele>
        <time>2023-02-12T09:57:59Z</time>
      </trkpt>
      <trkpt lat="47.0639" lon="8.52369">
        <ele>423.8</ele>
        <time>2023-02-12T09:58:00Z</time>
      </trkpt>
      <trkpt lat="47.06387" lon="8.52366">
        <ele>423.8</ele>
        <time>2023-02-12T09:58:01Z</time>
      </trkpt>
      <trkpt lat="47.06383" lon="8.52363">
        <ele>423.8</ele>
        <time>2023-02-12T09:58:02Z</time>
      </trkpt>
      <trkpt lat="47.0638" lon="8.5236">
        <ele>424</ele>
        <time>2023-02-12T09:58:03Z</time>
      </trkpt>
      <trkpt lat="47.06377" lon="8.52357">
        <ele>424</ele>
        <time>2023-02-12T09:58:04Z</time>
      </trkpt>
      <trkpt lat="47.06373" lon="8.52354">
        <ele>424</ele>
        <time>2023-02-12T09:58:05Z</time>
      </trkpt>
      <trkpt lat="47.0637" lon="8.52352">
        <ele>424.2</ele>
        <time>2023-02-12T09:58:06Z</time>
      </trkpt>
      <trkpt lat="47.06367" lon="8.52352">
        <ele>424.2</ele>
        <time>2023-02-12T09:58:07Z</time>
      </trkpt>
      <trkpt lat="47.06364" lon="8.52354">
        <ele>424.2</ele>
        <time>2023-02-12T09:58:08Z</time>
      </trkpt>
      <trkpt lat="47.06362" lon="8.52358">
        <ele>424.4</ele>
        <time>2023-02-12T09:58:09Z</time>
      </trkpt>
      <trkpt lat="47.06359" lon="8.52362">
        <ele>424.4</ele>
        <time>2023-02-12T09:58:10Z</time>
      </trkpt>
      <trkpt lat="47.06357" lon="8.52366">
        <ele>424.4</ele>
        <time>2023-02-12T09:58:11Z</time>
      </trkpt>
      <trkpt lat="47.06354" lon="8.5237">
        <ele>424.4</ele>
        <time>2023-02-12T09:58:12Z</time>
      </trkpt>
      <trkpt lat="47.06352" lon="8.52374">
        <ele>424.6</ele>
        <time>2023-02-12T09:58:13Z</time>
      </trkpt>
      <trkpt lat="47.06349" lon="8.52379">
        <ele>424.6</ele>
        <time>2023-02-12T09:58:14Z</time>
      </trkpt>
      <trkpt lat="47.06348" lon="8.52383">
        <ele>424.8</ele>
        <time>2023-02-12T09:58:15Z</time>
      </trkpt>
      <trkpt lat="47.06346" lon="8.52386">
        <ele>424.8</ele>
        <time>2023-02-12T09:58:16Z</time>
      </trkpt>
      <trkpt lat="47.06344" lon="8.52388">
        <ele>424.8</ele>
        <time>2023-02-12T09:58:17Z</time>
      </trkpt>
      <trkpt lat="47.06342" lon="8.5239">
        <ele>425</ele>
        <time>2023-02-12T09:58:18Z</time>
      </trkpt>
      <trkpt lat="47.0634" lon="8.52392">
        <ele>425</ele>
        <time>2023-02-12T09:58:19Z</time>
      </trkpt>
      <trkpt lat="47.06336" lon="8.52393">
        <ele>425.2</ele>
        <time>2023-02-12T09:58:20Z</time>
      </trkpt>
      <trkpt lat="47.06332" lon="8.52393">
        <ele>425.2</ele>
        <time>2023-02-12T09:58:21Z</time>
      </trkpt>
      <trkpt lat="47.06328" lon="8.52393">
        <ele>425.2</ele>
        <time>2023-02-12T09:58:22Z</time>
      </trkpt>
      <trkpt lat="47.06323" lon="8.52392">
        <ele>425.2</ele>
        <time>2023-02-12T09:58:23Z</time>
      </trkpt>
      <trkpt lat="47.06319" lon="8.52392">
        <ele>425.4</ele>
        <time>2023-02-12T09:58:24Z</time>
      </trkpt>
      <trkpt lat="47.06315" lon="8.52392">
        <ele>425.4</ele>
        <time>2023-02-12T09:58:25Z</time>
      </trkpt>
      <trkpt lat="47.06311" lon="8.5239">
        <ele>425.4</ele>
        <time>2023-02-12T09:58:26Z</time>
      </trkpt>
      <trkpt lat="47.06309" lon="8.52388">
        <ele>425.4</ele>
        <time>2023-02-12T09:58:27Z</time>
      </trkpt>
      <trkpt lat="47.06306" lon="8.52384">
        <ele>425.6</ele>
        <time>2023-02-12T09:58:28Z</time>
      </trkpt>
      <trkpt lat="47.06304" lon="8.5238">
        <ele>425.6</ele>
        <time>2023-02-12T09:58:29Z</time>
      </trkpt>
      <trkpt lat="47.06302" lon="8.52376">
        <ele>425.6</ele>
        <time>2023-02-12T09:58:30Z</time>
      </trkpt>
      <trkpt lat="47.063" lon="8.52371">
        <ele>425.6</ele>
        <time>2023-02-12T09:58:31Z</time>
      </trkpt>
      <trkpt lat="47.063" lon="8.52365">
        <ele>425.8</ele>
        <time>2023-02-12T09:58:32Z</time>
      </trkpt>
      <trkpt lat="47.063" lon="8.5236">
        <ele>425.8</ele>
        <time>2023-02-12T09:58:33Z</time>
      </trkpt>
      <trkpt lat="47.063" lon="8.52355">
        <ele>425.8</ele>
        <time>2023-02-12T09:58:34Z</time>
      </trkpt>
      <trkpt lat="47.06301" lon="8.52349">
        <ele>425.8</ele>
        <time>2023-02-12T09:58:35Z</time>
      </trkpt>
      <trkpt lat="47.06302" lon="8.52343">
        <ele>425.6</ele>
        <time>2023-02-12T09:58:36Z</time>
      </trkpt>
      <trkpt lat="47.06303" lon="8.52338">
        <ele>425.6</ele>
        <time>2023-02-12T09:58:37Z</time>
      </trkpt>
      <trkpt lat="47.06303" lon="8.52333">
        <ele>425.4</ele>
        <time>2023-02-12T09:58:38Z</time>
      </trkpt>
      <trkpt lat="47.06304" lon="8.52329">
        <ele>425.4</ele>
        <time>2023-02-12T09:58:39Z</time>
      </trkpt>
      <trkpt lat="47.06304" lon="8.52325">
        <ele>425.2</ele>
        <time>2023-02-12T09:58:40Z</time>
      </trkpt>
      <trkpt lat="47.06304" lon="8.52322">
        <ele>425</ele>
        <time>2023-02-12T09:58:41Z</time>
      </trkpt>
      <trkpt lat="47.06303" lon="8.52319">
        <ele>425</ele>
        <time>2023-02-12T09:58:42Z</time>
      </trkpt>
      <trkpt lat="47.06302" lon="8.52317">
        <ele>425</ele>
        <time>2023-02-12T09:58:43Z</time>
      </trkpt>
      <trkpt lat="47.063" lon="8.52316">
        <ele>424.8</ele>
        <time>2023-02-12T09:58:44Z</time>
      </trkpt>
      <trkpt lat="47.06299" lon="8.52315">
        <ele>424.6</ele>
        <time>2023-02-12T09:58:45Z</time>
      </trkpt>
      <trkpt lat="47.06298" lon="8.52315">
        <ele>424.4</ele>
        <time>2023-02-12T09:58:46Z</time>
      </trkpt>
      <trkpt lat="47.06297" lon="8.52315">
        <ele>424.4</ele>
        <time>2023-02-12T09:58:47Z</time>
      </trkpt>
      <trkpt lat="47.06297" lon="8.52314">
        <ele>424.2</ele>
        <time>2023-02-12T09:58:48Z</time>
      </trkpt>
      <trkpt lat="47.06297" lon="8.52314">
        <ele>424.2</ele>
        <time>2023-02-12T09:58:49Z</time>
      </trkpt>
      <trkpt lat="47.06296" lon="8.52313">
        <ele>424.2</ele>
        <time>2023-02-12T09:58:50Z</time>
      </trkpt>
      <trkpt lat="47.06295" lon="8.52312">
        <ele>424</ele>
        <time>2023-02-12T09:58:51Z</time>
      </trkpt>
      <trkpt lat="47.06294" lon="8.52311">
        <ele>424</ele>
        <time>2023-02-12T09:58:52Z</time>
      </trkpt>
      <trkpt lat="47.06294" lon="8.5231">
        <ele>424</ele>
        <time>2023-02-12T09:58:53Z</time>
      </trkpt>
      <trkpt lat="47.06293" lon="8.52308">
        <ele>424</ele>
        <time>2023-02-12T09:58:54Z</time>
      </trkpt>
      <trkpt lat="47.06292" lon="8.52308">
        <ele>423.8</ele>
        <time>2023-02-12T09:58:55Z</time>
      </trkpt>
      <trkpt lat="47.06291" lon="8.52307">
        <ele>423.8</ele>
        <time>2023-02-12T09:58:56Z</time>
      </trkpt>
      <trkpt lat="47.06291" lon="8.52307">
        <ele>423.8</ele>
        <time>2023-02-12T09:58:57Z</time>
      </trkpt>
      <trkpt lat="47.0629" lon="8.52307">
        <ele>423.8</ele>
        <time>2023-02-12T09:58:58Z</time>
      </trkpt>
      <trkpt lat="47.06289" lon="8.52306">
        <ele>423.8</ele>
        <time>2023-02-12T09:58:59Z</time>
      </trkpt>
      <trkpt lat="47.06288" lon="8.52306">
        <ele>423.8</ele>
        <time>2023-02-12T09:59:00Z</time>
      </trkpt>
      <trkpt lat="47.06287" lon="8.52305">
        <ele>423.8</ele>
        <time>2023-02-12T09:59:01Z</time>
      </trkpt>
      <trkpt lat="47.06286" lon="8.52304">
        <ele>424</ele>
        <time>2023-02-12T09:59:02Z</time>
      </trkpt>
      <trkpt lat="47.06285" lon="8.52303">
        <ele>423.8</ele>
        <time>2023-02-12T09:59:03Z</time>
      </trkpt>
      <trkpt lat="47.06285" lon="8.52303">
        <ele>423.8</ele>
        <time>2023-02-12T09:59:04Z</time>
      </trkpt>
      <trkpt lat="47.06286" lon="8.52302">
        <ele>423.8</ele>
        <time>2023-02-12T09:59:05Z</time>
      </trkpt>
      <trkpt lat="47.06286" lon="8.52303">
        <ele>423.6</ele>
        <time>2023-02-12T09:59:06Z</time>
      </trkpt>
      <trkpt lat="47.06287" lon="8.52303">
        <ele>423.6</ele>
        <time>2023-02-12T09:59:07Z</time>
      </trkpt>
      <trkpt lat="47.06287" lon="8.52304">
        <ele>423.6</ele>
        <time>2023-02-12T09:59:08Z</time>
      </trkpt>
      <trkpt lat="47.06287" lon="8.52305">
        <ele>423.6</ele>
        <time>2023-02-12T09:59:09Z</time>
      </trkpt>
      <trkpt lat="47.06287" lon="8.52305">
        <ele>423.6</ele>
        <time>2023-02-12T09:59:10Z</time>
      </trkpt>
      <trkpt lat="47.06287" lon="8.52305">
        <ele>423.6</ele>
        <time>2023-02-12T09:59:11Z</time>
      </trkpt>
      <trkpt lat="47.06287" lon="8.52305">
        <ele>423.6</ele>
        <time>2023-02-12T09:59:12Z</time>
      </trkpt>
      <trkpt lat="47.06287" lon="8.52305">
        <ele>423.6</ele>
        <time>2023-02-12T09:59:13Z</time>
      </trkpt>
      <trkpt lat="47.06287" lon="8.52306">
        <ele>423.6</ele>
        <time>2023-02-12T09:59:14Z</time>
      </trkpt>
      <trkpt lat="47.06287" lon="8.52309">
        <ele>423.6</ele>
        <time>2023-02-12T09:59:15Z</time>
      </trkpt>
      <trkpt lat="47.06287" lon="8.5231">
        <ele>423.6</ele>
        <time>2023-02-12T09:59:16Z</time>
      </trkpt>
      <trkpt lat="47.06287" lon="8.5231">
        <ele>423.6</ele>
        <time>2023-02-12T09:59:17Z</time>
      </trkpt>
      <trkpt lat="47.06287" lon="8.5231">
        <ele>423.6</ele>
        <time>2023-02-12T09:59:18Z</time>
      </trkpt>
      <trkpt lat="47.06287" lon="8.5231">
        <ele>423.6</ele>
        <time>2023-02-12T09:59:19Z</time>
      </trkpt>
      <trkpt lat="47.06287" lon="8.5231">
        <ele>423.6</ele>
        <time>2023-02-12T09:59:20Z</time>
      </trkpt>
      <trkpt lat="47.06287" lon="8.5231">
        <ele>423.6</ele>
        <time>2023-02-12T09:59:21Z</time>
      </trkpt>
      <trkpt lat="47.06287" lon="8.5231">
        <ele>423.6</ele>
        <time>2023-02-12T09:59:22Z</time>
      </trkpt>
      <trkpt lat="47.06287" lon="8.5231">
        <ele>423.6</ele>
        <time>2023-02-12T09:59:23Z</time>
      </trkpt>
      <trkpt lat="47.06287" lon="8.5231">
        <ele>423.6</ele>
        <time>2023-02-12T09:59:24Z</time>
      </trkpt>
      <trkpt lat="47.06287" lon="8.5231">
        <ele>423.8</ele>
        <time>2023-02-12T09:59:25Z</time>
      </trkpt>
      <trkpt lat="47.06286" lon="8.52311">
        <ele>423.6</ele>
        <time>2023-02-12T09:59:26Z</time>
      </trkpt>
      <trkpt lat="47.06286" lon="8.52311">
        <ele>423.6</ele>
        <time>2023-02-12T09:59:27Z</time>
      </trkpt>
      <trkpt lat="47.06287" lon="8.52311">
        <ele>423.6</ele>
        <time>2023-02-12T09:59:28Z</time>
      </trkpt>
      <trkpt lat="47.06287" lon="8.5231">
        <ele>423.6</ele>
        <time>2023-02-12T09:59:29Z</time>
      </trkpt>
      <trkpt lat="47.06287" lon="8.5231">
        <ele>423</ele>
        <time>2023-02-12T09:59:30Z</time>
      </trkpt>
      <trkpt lat="47.06288" lon="8.5231">
        <ele>422.4</ele>
        <time>2023-02-12T09:59:31Z</time>
      </trkpt>
      <trkpt lat="47.06288" lon="8.5231">
        <ele>422</ele>
        <time>2023-02-12T09:59:32Z</time>
      </trkpt>
      <trkpt lat="47.06288" lon="8.5231">
        <ele>421.8</ele>
        <time>2023-02-12T09:59:33Z</time>
      </trkpt>
      <trkpt lat="47.06288" lon="8.5231">
        <ele>421.8</ele>
        <time>2023-02-12T09:59:34Z</time>
      </trkpt>
      <trkpt lat="47.06287" lon="8.5231">
        <ele>421.8</ele>
        <time>2023-02-12T09:59:35Z</time>
      </trkpt>
      <trkpt lat="47.06288" lon="8.5231">
        <ele>421.6</ele>
        <time>2023-02-12T09:59:36Z</time>
      </trkpt>
      <trkpt lat="47.06287" lon="8.5231">
        <ele>421.6</ele>
        <time>2023-02-12T09:59:37Z</time>
      </trkpt>
      <trkpt lat="47.06286" lon="8.52308">
        <ele>421.6</ele>
        <time>2023-02-12T09:59:38Z</time>
      </trkpt>
      <trkpt lat="47.06283" lon="8.52309">
        <ele>424</ele>
        <time>2023-02-12T10:34:11Z</time>
      </trkpt>
      <trkpt lat="47.06283" lon="8.52309">
        <ele>424</ele>
        <time>2023-02-12T10:34:12Z</time>
      </trkpt>
      <trkpt lat="47.06283" lon="8.52309">
        <ele>424</ele>
        <time>2023-02-12T10:34:13Z</time>
      </trkpt>
      <trkpt lat="47.06283" lon="8.5231">
        <ele>424.2</ele>
        <time>2023-02-12T10:34:14Z</time>
      </trkpt>
      <trkpt lat="47.06283" lon="8.5231">
        <ele>424.2</ele>
        <time>2023-02-12T10:34:15Z</time>
      </trkpt>
      <trkpt lat="47.06283" lon="8.5231">
        <ele>424.2</ele>
        <time>2023-02-12T10:34:16Z</time>
      </trkpt>
      <trkpt lat="47.06283" lon="8.5231">
        <ele>424.2</ele>
        <time>2023-02-12T10:34:17Z</time>
      </trkpt>
      <trkpt lat="47.06283" lon="8.5231">
        <ele>424.2</ele>
        <time>2023-02-12T10:34:18Z</time>
      </trkpt>
      <trkpt lat="47.06283" lon="8.5231">
        <ele>424.2</ele>
        <time>2023-02-12T10:34:19Z</time>
      </trkpt>
      <trkpt lat="47.06283" lon="8.5231">
        <ele>424.2</ele>
        <time>2023-02-12T10:34:20Z</time>
      </trkpt>
      <trkpt lat="47.06283" lon="8.52309">
        <ele>424.2</ele>
        <time>2023-02-12T10:34:21Z</time>
      </trkpt>
      <trkpt lat="47.06283" lon="8.52309">
        <ele>424.2</ele>
        <time>2023-02-12T10:34:22Z</time>
      </trkpt>
      <trkpt lat="47.06282" lon="8.52307">
        <ele>424.2</ele>
        <time>2023-02-12T10:34:23Z</time>
      </trkpt>
      <trkpt lat="47.06281" lon="8.52306">
        <ele>424.2</ele>
        <time>2023-02-12T10:34:24Z</time>
      </trkpt>
      <trkpt lat="47.06279" lon="8.52304">
        <ele>424.2</ele>
        <time>2023-02-12T10:34:25Z</time>
      </trkpt>
      <trkpt lat="47.06277" lon="8.52303">
        <ele>424.2</ele>
        <time>2023-02-12T10:34:26Z</time>
      </trkpt>
      <trkpt lat="47.06276" lon="8.52302">
        <ele>424.2</ele>
        <time>2023-02-12T10:34:27Z</time>
      </trkpt>
      <trkpt lat="47.06273" lon="8.523">
        <ele>424</ele>
        <time>2023-02-12T10:34:28Z</time>
      </trkpt>
      <trkpt lat="47.06271" lon="8.52299">
        <ele>424</ele>
        <time>2023-02-12T10:34:29Z</time>
      </trkpt>
      <trkpt lat="47.06268" lon="8.52296">
        <ele>424</ele>
        <time>2023-02-12T10:34:30Z</time>
      </trkpt>
      <trkpt lat="47.06267" lon="8.52294">
        <ele>424.2</ele>
        <time>2023-02-12T10:34:31Z</time>
      </trkpt>
      <trkpt lat="47.06264" lon="8.52291">
        <ele>424.4</ele>
        <time>2023-02-12T10:34:32Z</time>
      </trkpt>
      <trkpt lat="47.06262" lon="8.52286">
        <ele>424.4</ele>
        <time>2023-02-12T10:34:33Z</time>
      </trkpt>
      <trkpt lat="47.0626" lon="8.52282">
        <ele>424.6</ele>
        <time>2023-02-12T10:34:34Z</time>
      </trkpt>
      <trkpt lat="47.0626" lon="8.52278">
        <ele>424.6</ele>
        <time>2023-02-12T10:34:35Z</time>
      </trkpt>
      <trkpt lat="47.06263" lon="8.52273">
        <ele>424.4</ele>
        <time>2023-02-12T10:34:36Z</time>
      </trkpt>
      <trkpt lat="47.06267" lon="8.52269">
        <ele>424.4</ele>
        <time>2023-02-12T10:34:37Z</time>
      </trkpt>
      <trkpt lat="47.06271" lon="8.52265">
        <ele>424.2</ele>
        <time>2023-02-12T10:34:38Z</time>
      </trkpt>
      <trkpt lat="47.06276" lon="8.5226">
        <ele>424.2</ele>
        <time>2023-02-12T10:34:39Z</time>
      </trkpt>
      <trkpt lat="47.06281" lon="8.52255">
        <ele>424.2</ele>
        <time>2023-02-12T10:34:40Z</time>
      </trkpt>
      <trkpt lat="47.06285" lon="8.52252">
        <ele>424</ele>
        <time>2023-02-12T10:34:41Z</time>
      </trkpt>
      <trkpt lat="47.06288" lon="8.52247">
        <ele>424</ele>
        <time>2023-02-12T10:34:42Z</time>
      </trkpt>
      <trkpt lat="47.06292" lon="8.52242">
        <ele>424</ele>
        <time>2023-02-12T10:34:43Z</time>
      </trkpt>
      <trkpt lat="47.06296" lon="8.52237">
        <ele>424</ele>
        <time>2023-02-12T10:34:44Z</time>
      </trkpt>
      <trkpt lat="47.063" lon="8.52234">
        <ele>423.8</ele>
        <time>2023-02-12T10:34:45Z</time>
      </trkpt>
      <trkpt lat="47.06304" lon="8.52231">
        <ele>423.8</ele>
        <time>2023-02-12T10:34:46Z</time>
      </trkpt>
      <trkpt lat="47.06308" lon="8.52227">
        <ele>423.6</ele>
        <time>2023-02-12T10:34:47Z</time>
      </trkpt>
      <trkpt lat="47.06312" lon="8.52224">
        <ele>423.6</ele>
        <time>2023-02-12T10:34:48Z</time>
      </trkpt>
      <trkpt lat="47.06316" lon="8.52221">
        <ele>423.6</ele>
        <time>2023-02-12T10:34:49Z</time>
      </trkpt>
      <trkpt lat="47.0632" lon="8.52218">
        <ele>423.4</ele>
        <time>2023-02-12T10:34:50Z</time>
      </trkpt>
      <trkpt lat="47.06324" lon="8.52213">
        <ele>423.4</ele>
        <time>2023-02-12T10:34:51Z</time>
      </trkpt>
      <trkpt lat="47.06328" lon="8.52208">
        <ele>423.4</ele>
        <time>2023-02-12T10:34:52Z</time>
      </trkpt>
      <trkpt lat="47.06332" lon="8.52202">
        <ele>423.4</ele>
        <time>2023-02-12T10:34:53Z</time>
      </trkpt>
      <trkpt lat="47.06335" lon="8.52198">
        <ele>423.2</ele>
        <time>2023-02-12T10:34:54Z</time>
      </trkpt>
      <trkpt lat="47.06341" lon="8.52197">
        <ele>423</ele>
        <time>2023-02-12T10:34:55Z</time>
      </trkpt>
      <trkpt lat="47.06346" lon="8.52199">
        <ele>422.8</ele>
        <time>2023-02-12T10:34:56Z</time>
      </trkpt>
      <trkpt lat="47.0635" lon="8.52203">
        <ele>422.6</ele>
        <time>2023-02-12T10:34:57Z</time>
      </trkpt>
      <trkpt lat="47.06354" lon="8.52208">
        <ele>422.6</ele>
        <time>2023-02-12T10:34:58Z</time>
      </trkpt>
      <trkpt lat="47.06358" lon="8.52214">
        <ele>422.4</ele>
        <time>2023-02-12T10:34:59Z</time>
      </trkpt>
      <trkpt lat="47.06362" lon="8.52219">
        <ele>422.6</ele>
        <time>2023-02-12T10:35:00Z</time>
      </trkpt>
      <trkpt lat="47.06365" lon="8.52223">
        <ele>422.6</ele>
        <time>2023-02-12T10:35:01Z</time>
      </trkpt>
      <trkpt lat="47.06369" lon="8.52228">
        <ele>422.6</ele>
        <time>2023-02-12T10:35:02Z</time>
      </trkpt>
      <trkpt lat="47.06372" lon="8.52232">
        <ele>422.8</ele>
        <time>2023-02-12T10:35:03Z</time>
      </trkpt>
      <trkpt lat="47.06375" lon="8.52236">
        <ele>422.8</ele>
        <time>2023-02-12T10:35:04Z</time>
      </trkpt>
      <trkpt lat="47.06379" lon="8.5224">
        <ele>422.8</ele>
        <time>2023-02-12T10:35:05Z</time>
      </trkpt>
      <trkpt lat="47.06383" lon="8.52245">
        <ele>422.8</ele>
        <time>2023-02-12T10:35:06Z</time>
      </trkpt>
      <trkpt lat="47.06387" lon="8.5225">
        <ele>422.8</ele>
        <time>2023-02-12T10:35:07Z</time>
      </trkpt>
      <trkpt lat="47.06391" lon="8.52254">
        <ele>423</ele>
        <time>2023-02-12T10:35:08Z</time>
      </trkpt>
      <trkpt lat="47.06394" lon="8.52259">
        <ele>422.8</ele>
        <time>2023-02-12T10:35:09Z</time>
      </trkpt>
      <trkpt lat="47.06399" lon="8.52263">
        <ele>422.8</ele>
        <time>2023-02-12T10:35:10Z</time>
      </trkpt>
      <trkpt lat="47.06403" lon="8.52266">
        <ele>422.8</ele>
        <time>2023-02-12T10:35:11Z</time>
      </trkpt>
      <trkpt lat="47.06409" lon="8.52269">
        <ele>423</ele>
        <time>2023-02-12T10:35:12Z</time>
      </trkpt>
      <trkpt lat="47.06413" lon="8.52271">
        <ele>423</ele>
        <time>2023-02-12T10:35:13Z</time>
      </trkpt>
      <trkpt lat="47.06419" lon="8.52274">
        <ele>423</ele>
        <time>2023-02-12T10:35:14Z</time>
      </trkpt>
      <trkpt lat="47.06424" lon="8.52277">
        <ele>423</ele>
        <time>2023-02-12T10:35:15Z</time>
      </trkpt>
      <trkpt lat="47.06429" lon="8.52279">
        <ele>423</ele>
        <time>2023-02-12T10:35:16Z</time>
      </trkpt>
      <trkpt lat="47.06434" lon="8.52281">
        <ele>423</ele>
        <time>2023-02-12T10:35:17Z</time>
      </trkpt>
      <trkpt lat="47.06439" lon="8.52283">
        <ele>423</ele>
        <time>2023-02-12T10:35:18Z</time>
      </trkpt>
      <trkpt lat="47.06445" lon="8.52285">
        <ele>423</ele>
        <time>2023-02-12T10:35:19Z</time>
      </trkpt>
      <trkpt lat="47.0645" lon="8.52287">
        <ele>423</ele>
        <time>2023-02-12T10:35:20Z</time>
      </trkpt>
      <trkpt lat="47.06455" lon="8.52289">
        <ele>423</ele>
        <time>2023-02-12T10:35:21Z</time>
      </trkpt>
      <trkpt lat="47.06461" lon="8.52292">
        <ele>423</ele>
        <time>2023-02-12T10:35:22Z</time>
      </trkpt>
      <trkpt lat="47.06466" lon="8.52294">
        <ele>423</ele>
        <time>2023-02-12T10:35:23Z</time>
      </trkpt>
      <trkpt lat="47.06472" lon="8.52297">
        <ele>423</ele>
        <time>2023-02-12T10:35:24Z</time>
      </trkpt>
      <trkpt lat="47.06477" lon="8.523">
        <ele>423</ele>
        <time>2023-02-12T10:35:25Z</time>
      </trkpt>
      <trkpt lat="47.06482" lon="8.52304">
        <ele>423.2</ele>
        <time>2023-02-12T10:35:26Z</time>
      </trkpt>
      <trkpt lat="47.06487" lon="8.52308">
        <ele>423.2</ele>
        <time>2023-02-12T10:35:27Z</time>
      </trkpt>
      <trkpt lat="47.06492" lon="8.52312">
        <ele>423.2</ele>
        <time>2023-02-12T10:35:28Z</time>
      </trkpt>
      <trkpt lat="47.06497" lon="8.52317">
        <ele>423.2</ele>
        <time>2023-02-12T10:35:29Z</time>
      </trkpt>
      <trkpt lat="47.06502" lon="8.52323">
        <ele>423.2</ele>
        <time>2023-02-12T10:35:30Z</time>
      </trkpt>
      <trkpt lat="47.06507" lon="8.52329">
        <ele>423.2</ele>
        <time>2023-02-12T10:35:31Z</time>
      </trkpt>
      <trkpt lat="47.06511" lon="8.52334">
        <ele>423.2</ele>
        <time>2023-02-12T10:35:32Z</time>
      </trkpt>
      <trkpt lat="47.06516" lon="8.5234">
        <ele>423.2</ele>
        <time>2023-02-12T10:35:33Z</time>
      </trkpt>
      <trkpt lat="47.0652" lon="8.52345">
        <ele>423.2</ele>
        <time>2023-02-12T10:35:34Z</time>
      </trkpt>
      <trkpt lat="47.06525" lon="8.52351">
        <ele>423.2</ele>
        <time>2023-02-12T10:35:35Z</time>
      </trkpt>
      <trkpt lat="47.06529" lon="8.52356">
        <ele>423.2</ele>
        <time>2023-02-12T10:35:36Z</time>
      </trkpt>
      <trkpt lat="47.06533" lon="8.52362">
        <ele>423.2</ele>
        <time>2023-02-12T10:35:37Z</time>
      </trkpt>
      <trkpt lat="47.06537" lon="8.52368">
        <ele>423.2</ele>
        <time>2023-02-12T10:35:38Z</time>
      </trkpt>
      <trkpt lat="47.06541" lon="8.52375">
        <ele>423.4</ele>
        <time>2023-02-12T10:35:39Z</time>
      </trkpt>
      <trkpt lat="47.06545" lon="8.5238">
        <ele>423.4</ele>
        <time>2023-02-12T10:35:40Z</time>
      </trkpt>
      <trkpt lat="47.06549" lon="8.52385">
        <ele>423.4</ele>
        <time>2023-02-12T10:35:41Z</time>
      </trkpt>
      <trkpt lat="47.06553" lon="8.52391">
        <ele>423.4</ele>
        <time>2023-02-12T10:35:42Z</time>
      </trkpt>
      <trkpt lat="47.06557" lon="8.52397">
        <ele>423.4</ele>
        <time>2023-02-12T10:35:43Z</time>
      </trkpt>
      <trkpt lat="47.06562" lon="8.52403">
        <ele>423.4</ele>
        <time>2023-02-12T10:35:44Z</time>
      </trkpt>
      <trkpt lat="47.06566" lon="8.52408">
        <ele>423.4</ele>
        <time>2023-02-12T10:35:45Z</time>
      </trkpt>
      <trkpt lat="47.06571" lon="8.52414">
        <ele>423.6</ele>
        <time>2023-02-12T10:35:46Z</time>
      </trkpt>
      <trkpt lat="47.06575" lon="8.5242">
        <ele>423.6</ele>
        <time>2023-02-12T10:35:47Z</time>
      </trkpt>
      <trkpt lat="47.06579" lon="8.52426">
        <ele>423.6</ele>
        <time>2023-02-12T10:35:48Z</time>
      </trkpt>
      <trkpt lat="47.06583" lon="8.52431">
        <ele>423.6</ele>
        <time>2023-02-12T10:35:49Z</time>
      </trkpt>
      <trkpt lat="47.06588" lon="8.52436">
        <ele>423.6</ele>
        <time>2023-02-12T10:35:50Z</time>
      </trkpt>
      <trkpt lat="47.06593" lon="8.52442">
        <ele>423.6</ele>
        <time>2023-02-12T10:35:51Z</time>
      </trkpt>
      <trkpt lat="47.06597" lon="8.52447">
        <ele>423.8</ele>
        <time>2023-02-12T10:35:52Z</time>
      </trkpt>
      <trkpt lat="47.06602" lon="8.52452">
        <ele>423.8</ele>
        <time>2023-02-12T10:35:53Z</time>
      </trkpt>
      <trkpt lat="47.06607" lon="8.52457">
        <ele>423.8</ele>
        <time>2023-02-12T10:35:54Z</time>
      </trkpt>
      <trkpt lat="47.06612" lon="8.52462">
        <ele>423.8</ele>
        <time>2023-02-12T10:35:55Z</time>
      </trkpt>
      <trkpt lat="47.06617" lon="8.52466">
        <ele>423.8</ele>
        <time>2023-02-12T10:35:56Z</time>
      </trkpt>
      <trkpt lat="47.06622" lon="8.5247">
        <ele>423.8</ele>
        <time>2023-02-12T10:35:57Z</time>
      </trkpt>
      <trkpt lat="47.06627" lon="8.52474">
        <ele>423.8</ele>
        <time>2023-02-12T10:35:58Z</time>
      </trkpt>
      <trkpt lat="47.06633" lon="8.52478">
        <ele>423.8</ele>
        <time>2023-02-12T10:35:59Z</time>
      </trkpt>
      <trkpt lat="47.06638" lon="8.52481">
        <ele>423.8</ele>
        <time>2023-02-12T10:36:00Z</time>
      </trkpt>
      <trkpt lat="47.06644" lon="8.52485">
        <ele>423.8</ele>
        <time>2023-02-12T10:36:01Z</time>
      </trkpt>
      <trkpt lat="47.0665" lon="8.52489">
        <ele>423.8</ele>
        <time>2023-02-12T10:36:02Z</time>
      </trkpt>
      <trkpt lat="47.06655" lon="8.52492">
        <ele>423.8</ele>
        <time>2023-02-12T10:36:03Z</time>
      </trkpt>
      <trkpt lat="47.06661" lon="8.52494">
        <ele>423.6</ele>
        <time>2023-02-12T10:36:04Z</time>
      </trkpt>
      <trkpt lat="47.06667" lon="8.52496">
        <ele>423.6</ele>
        <time>2023-02-12T10:36:05Z</time>
      </trkpt>
      <trkpt lat="47.06673" lon="8.52499">
        <ele>423.4</ele>
        <time>2023-02-12T10:36:06Z</time>
      </trkpt>
      <trkpt lat="47.06679" lon="8.52502">
        <ele>423.4</ele>
        <time>2023-02-12T10:36:07Z</time>
      </trkpt>
      <trkpt lat="47.06685" lon="8.52504">
        <ele>423.2</ele>
        <time>2023-02-12T10:36:08Z</time>
      </trkpt>
      <trkpt lat="47.06692" lon="8.52507">
        <ele>423</ele>
        <time>2023-02-12T10:36:09Z</time>
      </trkpt>
      <trkpt lat="47.06698" lon="8.52509">
        <ele>422.8</ele>
        <time>2023-02-12T10:36:10Z</time>
      </trkpt>
      <trkpt lat="47.06705" lon="8.52512">
        <ele>422.6</ele>
        <time>2023-02-12T10:36:11Z</time>
      </trkpt>
      <trkpt lat="47.06711" lon="8.52515">
        <ele>422.6</ele>
        <time>2023-02-12T10:36:12Z</time>
      </trkpt>
      <trkpt lat="47.06717" lon="8.52517">
        <ele>422.2</ele>
        <time>2023-02-12T10:36:13Z</time>
      </trkpt>
      <trkpt lat="47.06724" lon="8.52521">
        <ele>422</ele>
        <time>2023-02-12T10:36:14Z</time>
      </trkpt>
      <trkpt lat="47.0673" lon="8.52524">
        <ele>421.8</ele>
        <time>2023-02-12T10:36:15Z</time>
      </trkpt>
      <trkpt lat="47.06736" lon="8.52528">
        <ele>421.8</ele>
        <time>2023-02-12T10:36:16Z</time>
      </trkpt>
      <trkpt lat="47.06742" lon="8.52533">
        <ele>421.8</ele>
        <time>2023-02-12T10:36:17Z</time>
      </trkpt>
      <trkpt lat="47.06747" lon="8.52538">
        <ele>421.6</ele>
        <time>2023-02-12T10:36:18Z</time>
      </trkpt>
      <trkpt lat="47.06753" lon="8.52543">
        <ele>421.6</ele>
        <time>2023-02-12T10:36:19Z</time>
      </trkpt>
      <trkpt lat="47.06757" lon="8.52548">
        <ele>421.8</ele>
        <time>2023-02-12T10:36:20Z</time>
      </trkpt>
      <trkpt lat="47.06763" lon="8.52554">
        <ele>421.8</ele>
        <time>2023-02-12T10:36:21Z</time>
      </trkpt>
      <trkpt lat="47.06768" lon="8.5256">
        <ele>421.8</ele>
        <time>2023-02-12T10:36:22Z</time>
      </trkpt>
      <trkpt lat="47.06772" lon="8.52566">
        <ele>421.8</ele>
        <time>2023-02-12T10:36:23Z</time>
      </trkpt>
      <trkpt lat="47.06776" lon="8.52572">
        <ele>422</ele>
        <time>2023-02-12T10:36:24Z</time>
      </trkpt>
      <trkpt lat="47.06781" lon="8.52579">
        <ele>422</ele>
        <time>2023-02-12T10:36:25Z</time>
      </trkpt>
      <trkpt lat="47.06786" lon="8.52585">
        <ele>422.2</ele>
        <time>2023-02-12T10:36:26Z</time>
      </trkpt>
      <trkpt lat="47.0679" lon="8.5259">
        <ele>422.2</ele>
        <time>2023-02-12T10:36:27Z</time>
      </trkpt>
      <trkpt lat="47.06795" lon="8.52596">
        <ele>422.2</ele>
        <time>2023-02-12T10:36:28Z</time>
      </trkpt>
      <trkpt lat="47.06799" lon="8.52602">
        <ele>422.4</ele>
        <time>2023-02-12T10:36:29Z</time>
      </trkpt>
      <trkpt lat="47.06804" lon="8.52608">
        <ele>422.4</ele>
        <time>2023-02-12T10:36:30Z</time>
      </trkpt>
      <trkpt lat="47.06809" lon="8.52613">
        <ele>422.4</ele>
        <time>2023-02-12T10:36:31Z</time>
      </trkpt>
      <trkpt lat="47.06814" lon="8.52619">
        <ele>422.4</ele>
        <time>2023-02-12T10:36:32Z</time>
      </trkpt>
      <trkpt lat="47.06819" lon="8.52626">
        <ele>422.4</ele>
        <time>2023-02-12T10:36:33Z</time>
      </trkpt>
      <trkpt lat="47.06823" lon="8.52632">
        <ele>422.4</ele>
        <time>2023-02-12T10:36:34Z</time>
      </trkpt>
      <trkpt lat="47.06828" lon="8.52638">
        <ele>422.4</ele>
        <time>2023-02-12T10:36:35Z</time>
      </trkpt>
      <trkpt lat="47.06834" lon="8.52644">
        <ele>422.4</ele>
        <time>2023-02-12T10:36:36Z</time>
      </trkpt>
      <trkpt lat="47.06839" lon="8.52651">
        <ele>422.4</ele>
        <time>2023-02-12T10:36:37Z</time>
      </trkpt>
      <trkpt lat="47.06843" lon="8.52658">
        <ele>422.4</ele>
        <time>2023-02-12T10:36:38Z</time>
      </trkpt>
      <trkpt lat="47.06848" lon="8.52664">
        <ele>422.4</ele>
        <time>2023-02-12T10:36:39Z</time>
      </trkpt>
      <trkpt lat="47.06853" lon="8.5267">
        <ele>422.4</ele>
        <time>2023-02-12T10:36:40Z</time>
      </trkpt>
      <trkpt lat="47.06858" lon="8.52676">
        <ele>422.4</ele>
        <time>2023-02-12T10:36:41Z</time>
      </trkpt>
      <trkpt lat="47.06863" lon="8.52682">
        <ele>422.2</ele>
        <time>2023-02-12T10:36:42Z</time>
      </trkpt>
      <trkpt lat="47.06868" lon="8.52688">
        <ele>422.2</ele>
        <time>2023-02-12T10:36:43Z</time>
      </trkpt>
      <trkpt lat="47.06873" lon="8.52695">
        <ele>422</ele>
        <time>2023-02-12T10:36:44Z</time>
      </trkpt>
      <trkpt lat="47.06878" lon="8.52701">
        <ele>422</ele>
        <time>2023-02-12T10:36:45Z</time>
      </trkpt>
      <trkpt lat="47.06883" lon="8.52707">
        <ele>421.8</ele>
        <time>2023-02-12T10:36:46Z</time>
      </trkpt>
      <trkpt lat="47.06888" lon="8.52713">
        <ele>421.8</ele>
        <time>2023-02-12T10:36:47Z</time>
      </trkpt>
      <trkpt lat="47.06893" lon="8.52719">
        <ele>421.8</ele>
        <time>2023-02-12T10:36:48Z</time>
      </trkpt>
      <trkpt lat="47.06899" lon="8.52724">
        <ele>421.8</ele>
        <time>2023-02-12T10:36:49Z</time>
      </trkpt>
      <trkpt lat="47.06905" lon="8.52729">
        <ele>421.8</ele>
        <time>2023-02-12T10:36:50Z</time>
      </trkpt>
      <trkpt lat="47.06911" lon="8.52733">
        <ele>421.8</ele>
        <time>2023-02-12T10:36:51Z</time>
      </trkpt>
      <trkpt lat="47.06917" lon="8.52737">
        <ele>421.8</ele>
        <time>2023-02-12T10:36:52Z</time>
      </trkpt>
      <trkpt lat="47.06923" lon="8.52741">
        <ele>421.8</ele>
        <time>2023-02-12T10:36:53Z</time>
      </trkpt>
      <trkpt lat="47.06929" lon="8.52745">
        <ele>422</ele>
        <time>2023-02-12T10:36:54Z</time>
      </trkpt>
      <trkpt lat="47.06935" lon="8.52749">
        <ele>422</ele>
        <time>2023-02-12T10:36:55Z</time>
      </trkpt>
      <trkpt lat="47.06941" lon="8.52753">
        <ele>422</ele>
        <time>2023-02-12T10:36:56Z</time>
      </trkpt>
      <trkpt lat="47.06946" lon="8.52757">
        <ele>422</ele>
        <time>2023-02-12T10:36:57Z</time>
      </trkpt>
      <trkpt lat="47.06952" lon="8.5276">
        <ele>422</ele>
        <time>2023-02-12T10:36:58Z</time>
      </trkpt>
      <trkpt lat="47.06958" lon="8.52764">
        <ele>422</ele>
        <time>2023-02-12T10:36:59Z</time>
      </trkpt>
      <trkpt lat="47.06964" lon="8.52768">
        <ele>422</ele>
        <time>2023-02-12T10:37:00Z</time>
      </trkpt>
      <trkpt lat="47.06969" lon="8.52772">
        <ele>422</ele>
        <time>2023-02-12T10:37:01Z</time>
      </trkpt>
      <trkpt lat="47.06974" lon="8.52776">
        <ele>422</ele>
        <time>2023-02-12T10:37:02Z</time>
      </trkpt>
      <trkpt lat="47.0698" lon="8.52779">
        <ele>422.2</ele>
        <time>2023-02-12T10:37:03Z</time>
      </trkpt>
      <trkpt lat="47.06985" lon="8.52783">
        <ele>422.2</ele>
        <time>2023-02-12T10:37:04Z</time>
      </trkpt>
      <trkpt lat="47.0699" lon="8.52787">
        <ele>422.4</ele>
        <time>2023-02-12T10:37:05Z</time>
      </trkpt>
      <trkpt lat="47.06996" lon="8.5279">
        <ele>422.4</ele>
        <time>2023-02-12T10:37:06Z</time>
      </trkpt>
      <trkpt lat="47.07002" lon="8.52794">
        <ele>422.6</ele>
        <time>2023-02-12T10:37:07Z</time>
      </trkpt>
      <trkpt lat="47.07008" lon="8.52797">
        <ele>422.6</ele>
        <time>2023-02-12T10:37:08Z</time>
      </trkpt>
      <trkpt lat="47.07014" lon="8.528">
        <ele>422.6</ele>
        <time>2023-02-12T10:37:09Z</time>
      </trkpt>
      <trkpt lat="47.0702" lon="8.52803">
        <ele>422.6</ele>
        <time>2023-02-12T10:37:10Z</time>
      </trkpt>
      <trkpt lat="47.07026" lon="8.52805">
        <ele>422.6</ele>
        <time>2023-02-12T10:37:11Z</time>
      </trkpt>
      <trkpt lat="47.07032" lon="8.52807">
        <ele>422.6</ele>
        <time>2023-02-12T10:37:12Z</time>
      </trkpt>
      <trkpt lat="47.07038" lon="8.52809">
        <ele>422.4</ele>
        <time>2023-02-12T10:37:13Z</time>
      </trkpt>
      <trkpt lat="47.07044" lon="8.5281">
        <ele>422.2</ele>
        <time>2023-02-12T10:37:14Z</time>
      </trkpt>
      <trkpt lat="47.07051" lon="8.52812">
        <ele>422.2</ele>
        <time>2023-02-12T10:37:15Z</time>
      </trkpt>
      <trkpt lat="47.07057" lon="8.52813">
        <ele>422</ele>
        <time>2023-02-12T10:37:16Z</time>
      </trkpt>
      <trkpt lat="47.07064" lon="8.52814">
        <ele>422</ele>
        <time>2023-02-12T10:37:17Z</time>
      </trkpt>
      <trkpt lat="47.0707" lon="8.52816">
        <ele>421.8</ele>
        <time>2023-02-12T10:37:18Z</time>
      </trkpt>
      <trkpt lat="47.07077" lon="8.52817">
        <ele>421.8</ele>
        <time>2023-02-12T10:37:19Z</time>
      </trkpt>
      <trkpt lat="47.07083" lon="8.52818">
        <ele>421.8</ele>
        <time>2023-02-12T10:37:20Z</time>
      </trkpt>
      <trkpt lat="47.07089" lon="8.5282">
        <ele>421.6</ele>
        <time>2023-02-12T10:37:21Z</time>
      </trkpt>
      <trkpt lat="47.07096" lon="8.52821">
        <ele>421.6</ele>
        <time>2023-02-12T10:37:22Z</time>
      </trkpt>
      <trkpt lat="47.07102" lon="8.52823">
        <ele>421.6</ele>
        <time>2023-02-12T10:37:23Z</time>
      </trkpt>
      <trkpt lat="47.07108" lon="8.52824">
        <ele>421.6</ele>
        <time>2023-02-12T10:37:24Z</time>
      </trkpt>
      <trkpt lat="47.07114" lon="8.52825">
        <ele>421.6</ele>
        <time>2023-02-12T10:37:25Z</time>
      </trkpt>
      <trkpt lat="47.07121" lon="8.52826">
        <ele>421.6</ele>
        <time>2023-02-12T10:37:26Z</time>
      </trkpt>
      <trkpt lat="47.07127" lon="8.52827">
        <ele>421.6</ele>
        <time>2023-02-12T10:37:27Z</time>
      </trkpt>
      <trkpt lat="47.07133" lon="8.52828">
        <ele>421.6</ele>
        <time>2023-02-12T10:37:28Z</time>
      </trkpt>
      <trkpt lat="47.0714" lon="8.52829">
        <ele>421.6</ele>
        <time>2023-02-12T10:37:29Z</time>
      </trkpt>
      <trkpt lat="47.07146" lon="8.52829">
        <ele>421.6</ele>
        <time>2023-02-12T10:37:30Z</time>
      </trkpt>
      <trkpt lat="47.07153" lon="8.5283">
        <ele>421.6</ele>
        <time>2023-02-12T10:37:31Z</time>
      </trkpt>
      <trkpt lat="47.07158" lon="8.5283">
        <ele>421.6</ele>
        <time>2023-02-12T10:37:32Z</time>
      </trkpt>
      <trkpt lat="47.07164" lon="8.52831">
        <ele>421.6</ele>
        <time>2023-02-12T10:37:33Z</time>
      </trkpt>
      <trkpt lat="47.0717" lon="8.52831">
        <ele>421.6</ele>
        <time>2023-02-12T10:37:34Z</time>
      </trkpt>
      <trkpt lat="47.07176" lon="8.52831">
        <ele>421.6</ele>
        <time>2023-02-12T10:37:35Z</time>
      </trkpt>
      <trkpt lat="47.07182" lon="8.52831">
        <ele>421.6</ele>
        <time>2023-02-12T10:37:36Z</time>
      </trkpt>
      <trkpt lat="47.07189" lon="8.5283">
        <ele>421.8</ele>
        <time>2023-02-12T10:37:37Z</time>
      </trkpt>
      <trkpt lat="47.07195" lon="8.5283">
        <ele>421.8</ele>
        <time>2023-02-12T10:37:38Z</time>
      </trkpt>
      <trkpt lat="47.07201" lon="8.52829">
        <ele>421.8</ele>
        <time>2023-02-12T10:37:39Z</time>
      </trkpt>
      <trkpt lat="47.07207" lon="8.52829">
        <ele>422</ele>
        <time>2023-02-12T10:37:40Z</time>
      </trkpt>
      <trkpt lat="47.07213" lon="8.52828">
        <ele>422.2</ele>
        <time>2023-02-12T10:37:41Z</time>
      </trkpt>
      <trkpt lat="47.07219" lon="8.52828">
        <ele>422.2</ele>
        <time>2023-02-12T10:37:42Z</time>
      </trkpt>
      <trkpt lat="47.07226" lon="8.52827">
        <ele>422.2</ele>
        <time>2023-02-12T10:37:43Z</time>
      </trkpt>
      <trkpt lat="47.07232" lon="8.52827">
        <ele>422.2</ele>
        <time>2023-02-12T10:37:44Z</time>
      </trkpt>
      <trkpt lat="47.07238" lon="8.52826">
        <ele>422.2</ele>
        <time>2023-02-12T10:37:45Z</time>
      </trkpt>
      <trkpt lat="47.07245" lon="8.52825">
        <ele>422.2</ele>
        <time>2023-02-12T10:37:46Z</time>
      </trkpt>
      <trkpt lat="47.07251" lon="8.52825">
        <ele>422.2</ele>
        <time>2023-02-12T10:37:47Z</time>
      </trkpt>
      <trkpt lat="47.07258" lon="8.52825">
        <ele>422.2</ele>
        <time>2023-02-12T10:37:48Z</time>
      </trkpt>
      <trkpt lat="47.07265" lon="8.52824">
        <ele>422.2</ele>
        <time>2023-02-12T10:37:49Z</time>
      </trkpt>
      <trkpt lat="47.07272" lon="8.52824">
        <ele>422.2</ele>
        <time>2023-02-12T10:37:50Z</time>
      </trkpt>
      <trkpt lat="47.07278" lon="8.52825">
        <ele>422</ele>
        <time>2023-02-12T10:37:51Z</time>
      </trkpt>
      <trkpt lat="47.07285" lon="8.52826">
        <ele>422</ele>
        <time>2023-02-12T10:37:52Z</time>
      </trkpt>
      <trkpt lat="47.07292" lon="8.52827">
        <ele>421.8</ele>
        <time>2023-02-12T10:37:53Z</time>
      </trkpt>
      <trkpt lat="47.07298" lon="8.52827">
        <ele>421.6</ele>
        <time>2023-02-12T10:37:54Z</time>
      </trkpt>
      <trkpt lat="47.07305" lon="8.52828">
        <ele>421.4</ele>
        <time>2023-02-12T10:37:55Z</time>
      </trkpt>
      <trkpt lat="47.07312" lon="8.52829">
        <ele>421</ele>
        <time>2023-02-12T10:37:56Z</time>
      </trkpt>
      <trkpt lat="47.0732" lon="8.5283">
        <ele>420.8</ele>
        <time>2023-02-12T10:37:57Z</time>
      </trkpt>
      <trkpt lat="47.07326" lon="8.5283">
        <ele>420.8</ele>
        <time>2023-02-12T10:37:58Z</time>
      </trkpt>
      <trkpt lat="47.07332" lon="8.52829">
        <ele>420.6</ele>
        <time>2023-02-12T10:37:59Z</time>
      </trkpt>
      <trkpt lat="47.07339" lon="8.52828">
        <ele>420.6</ele>
        <time>2023-02-12T10:38:00Z</time>
      </trkpt>
      <trkpt lat="47.07345" lon="8.52826">
        <ele>420.6</ele>
        <time>2023-02-12T10:38:01Z</time>
      </trkpt>
      <trkpt lat="47.07351" lon="8.52823">
        <ele>420.6</ele>
        <time>2023-02-12T10:38:02Z</time>
      </trkpt>
      <trkpt lat="47.07358" lon="8.5282">
        <ele>420.8</ele>
        <time>2023-02-12T10:38:03Z</time>
      </trkpt>
      <trkpt lat="47.07363" lon="8.52817">
        <ele>420.8</ele>
        <time>2023-02-12T10:38:04Z</time>
      </trkpt>
      <trkpt lat="47.07369" lon="8.52814">
        <ele>420.8</ele>
        <time>2023-02-12T10:38:05Z</time>
      </trkpt>
      <trkpt lat="47.07375" lon="8.52811">
        <ele>420.8</ele>
        <time>2023-02-12T10:38:06Z</time>
      </trkpt>
      <trkpt lat="47.0738" lon="8.52808">
        <ele>420.8</ele>
        <time>2023-02-12T10:38:07Z</time>
      </trkpt>
      <trkpt lat="47.07386" lon="8.52805">
        <ele>420.8</ele>
        <time>2023-02-12T10:38:08Z</time>
      </trkpt>
      <trkpt lat="47.07391" lon="8.52801">
        <ele>420.8</ele>
        <time>2023-02-12T10:38:09Z</time>
      </trkpt>
      <trkpt lat="47.07397" lon="8.52799">
        <ele>420.8</ele>
        <time>2023-02-12T10:38:10Z</time>
      </trkpt>
      <trkpt lat="47.07402" lon="8.52796">
        <ele>420.8</ele>
        <time>2023-02-12T10:38:11Z</time>
      </trkpt>
      <trkpt lat="47.07407" lon="8.52793">
        <ele>420.8</ele>
        <time>2023-02-12T10:38:12Z</time>
      </trkpt>
      <trkpt lat="47.07413" lon="8.5279">
        <ele>421</ele>
        <time>2023-02-12T10:38:13Z</time>
      </trkpt>
      <trkpt lat="47.07419" lon="8.52786">
        <ele>421</ele>
        <time>2023-02-12T10:38:14Z</time>
      </trkpt>
      <trkpt lat="47.07424" lon="8.52783">
        <ele>421</ele>
        <time>2023-02-12T10:38:15Z</time>
      </trkpt>
      <trkpt lat="47.07429" lon="8.5278">
        <ele>421</ele>
        <time>2023-02-12T10:38:16Z</time>
      </trkpt>
      <trkpt lat="47.07435" lon="8.52777">
        <ele>421.2</ele>
        <time>2023-02-12T10:38:17Z</time>
      </trkpt>
      <trkpt lat="47.0744" lon="8.52774">
        <ele>421.2</ele>
        <time>2023-02-12T10:38:18Z</time>
      </trkpt>
      <trkpt lat="47.07445" lon="8.52771">
        <ele>421.2</ele>
        <time>2023-02-12T10:38:19Z</time>
      </trkpt>
      <trkpt lat="47.07451" lon="8.52768">
        <ele>421.2</ele>
        <time>2023-02-12T10:38:20Z</time>
      </trkpt>
      <trkpt lat="47.07456" lon="8.52765">
        <ele>421.2</ele>
        <time>2023-02-12T10:38:21Z</time>
      </trkpt>
      <trkpt lat="47.07462" lon="8.52762">
        <ele>421.2</ele>
        <time>2023-02-12T10:38:22Z</time>
      </trkpt>
      <trkpt lat="47.07467" lon="8.52759">
        <ele>421.2</ele>
        <time>2023-02-12T10:38:23Z</time>
      </trkpt>
      <trkpt lat="47.07473" lon="8.52756">
        <ele>421.2</ele>
        <time>2023-02-12T10:38:24Z</time>
      </trkpt>
      <trkpt lat="47.07478" lon="8.52753">
        <ele>421.2</ele>
        <time>2023-02-12T10:38:25Z</time>
      </trkpt>
      <trkpt lat="47.07484" lon="8.52749">
        <ele>421.4</ele>
        <time>2023-02-12T10:38:26Z</time>
      </trkpt>
      <trkpt lat="47.0749" lon="8.52746">
        <ele>421.4</ele>
        <time>2023-02-12T10:38:27Z</time>
      </trkpt>
      <trkpt lat="47.07495" lon="8.52743">
        <ele>421.6</ele>
        <time>2023-02-12T10:38:28Z</time>
      </trkpt>
      <trkpt lat="47.07501" lon="8.52739">
        <ele>421.6</ele>
        <time>2023-02-12T10:38:29Z</time>
      </trkpt>
      <trkpt lat="47.07507" lon="8.52736">
        <ele>421.8</ele>
        <time>2023-02-12T10:38:30Z</time>
      </trkpt>
      <trkpt lat="47.07513" lon="8.52733">
        <ele>421.8</ele>
        <time>2023-02-12T10:38:31Z</time>
      </trkpt>
      <trkpt lat="47.07518" lon="8.5273">
        <ele>421.8</ele>
        <time>2023-02-12T10:38:32Z</time>
      </trkpt>
      <trkpt lat="47.07524" lon="8.52727">
        <ele>421.8</ele>
        <time>2023-02-12T10:38:33Z</time>
      </trkpt>
      <trkpt lat="47.0753" lon="8.52724">
        <ele>422</ele>
        <time>2023-02-12T10:38:34Z</time>
      </trkpt>
      <trkpt lat="47.07536" lon="8.52721">
        <ele>422</ele>
        <time>2023-02-12T10:38:35Z</time>
      </trkpt>
      <trkpt lat="47.07542" lon="8.52718">
        <ele>422</ele>
        <time>2023-02-12T10:38:36Z</time>
      </trkpt>
      <trkpt lat="47.07548" lon="8.52716">
        <ele>422</ele>
        <time>2023-02-12T10:38:37Z</time>
      </trkpt>
      <trkpt lat="47.07553" lon="8.52713">
        <ele>422.2</ele>
        <time>2023-02-12T10:38:38Z</time>
      </trkpt>
      <trkpt lat="47.0756" lon="8.5271">
        <ele>422.2</ele>
        <time>2023-02-12T10:38:39Z</time>
      </trkpt>
      <trkpt lat="47.07565" lon="8.52707">
        <ele>422.2</ele>
        <time>2023-02-12T10:38:40Z</time>
      </trkpt>
      <trkpt lat="47.07571" lon="8.52704">
        <ele>422.4</ele>
        <time>2023-02-12T10:38:41Z</time>
      </trkpt>
      <trkpt lat="47.07577" lon="8.52701">
        <ele>422.4</ele>
        <time>2023-02-12T10:38:42Z</time>
      </trkpt>
      <trkpt lat="47.07582" lon="8.52697">
        <ele>422.6</ele>
        <time>2023-02-12T10:38:43Z</time>
      </trkpt>
      <trkpt lat="47.07588" lon="8.52694">
        <ele>422.6</ele>
        <time>2023-02-12T10:38:44Z</time>
      </trkpt>
      <trkpt lat="47.07593" lon="8.52691">
        <ele>422.6</ele>
        <time>2023-02-12T10:38:45Z</time>
      </trkpt>
      <trkpt lat="47.07599" lon="8.52687">
        <ele>422.6</ele>
        <time>2023-02-12T10:38:46Z</time>
      </trkpt>
      <trkpt lat="47.07605" lon="8.52684">
        <ele>422.6</ele>
        <time>2023-02-12T10:38:47Z</time>
      </trkpt>
      <trkpt lat="47.0761" lon="8.52679">
        <ele>422.6</ele>
        <time>2023-02-12T10:38:48Z</time>
      </trkpt>
      <trkpt lat="47.07616" lon="8.52674">
        <ele>422.6</ele>
        <time>2023-02-12T10:38:49Z</time>
      </trkpt>
      <trkpt lat="47.07621" lon="8.52669">
        <ele>422.6</ele>
        <time>2023-02-12T10:38:50Z</time>
      </trkpt>
      <trkpt lat="47.07625" lon="8.52663">
        <ele>422.6</ele>
        <time>2023-02-12T10:38:51Z</time>
      </trkpt>
      <trkpt lat="47.0763" lon="8.52656">
        <ele>422.6</ele>
        <time>2023-02-12T10:38:52Z</time>
      </trkpt>
      <trkpt lat="47.07635" lon="8.5265">
        <ele>422.6</ele>
        <time>2023-02-12T10:38:53Z</time>
      </trkpt>
      <trkpt lat="47.0764" lon="8.52645">
        <ele>422.4</ele>
        <time>2023-02-12T10:38:54Z</time>
      </trkpt>
      <trkpt lat="47.07645" lon="8.52639">
        <ele>422.4</ele>
        <time>2023-02-12T10:38:55Z</time>
      </trkpt>
      <trkpt lat="47.0765" lon="8.52633">
        <ele>422.4</ele>
        <time>2023-02-12T10:38:56Z</time>
      </trkpt>
      <trkpt lat="47.07654" lon="8.52627">
        <ele>422.2</ele>
        <time>2023-02-12T10:38:57Z</time>
      </trkpt>
      <trkpt lat="47.07659" lon="8.52622">
        <ele>422.2</ele>
        <time>2023-02-12T10:38:58Z</time>
      </trkpt>
      <trkpt lat="47.07664" lon="8.52617">
        <ele>422</ele>
        <time>2023-02-12T10:38:59Z</time>
      </trkpt>
      <trkpt lat="47.0767" lon="8.52612">
        <ele>421.8</ele>
        <time>2023-02-12T10:39:00Z</time>
      </trkpt>
      <trkpt lat="47.07675" lon="8.52608">
        <ele>421.8</ele>
        <time>2023-02-12T10:39:01Z</time>
      </trkpt>
      <trkpt lat="47.0768" lon="8.52603">
        <ele>421.8</ele>
        <time>2023-02-12T10:39:02Z</time>
      </trkpt>
      <trkpt lat="47.07686" lon="8.52599">
        <ele>421.6</ele>
        <time>2023-02-12T10:39:03Z</time>
      </trkpt>
      <trkpt lat="47.07692" lon="8.52595">
        <ele>421.6</ele>
        <time>2023-02-12T10:39:04Z</time>
      </trkpt>
      <trkpt lat="47.07698" lon="8.52591">
        <ele>421.8</ele>
        <time>2023-02-12T10:39:05Z</time>
      </trkpt>
      <trkpt lat="47.07704" lon="8.52587">
        <ele>421.8</ele>
        <time>2023-02-12T10:39:06Z</time>
      </trkpt>
      <trkpt lat="47.0771" lon="8.52584">
        <ele>421.8</ele>
        <time>2023-02-12T10:39:07Z</time>
      </trkpt>
      <trkpt lat="47.07716" lon="8.52581">
        <ele>421.8</ele>
        <time>2023-02-12T10:39:08Z</time>
      </trkpt>
      <trkpt lat="47.07722" lon="8.52577">
        <ele>421.8</ele>
        <time>2023-02-12T10:39:09Z</time>
      </trkpt>
      <trkpt lat="47.07727" lon="8.52574">
        <ele>421.8</ele>
        <time>2023-02-12T10:39:10Z</time>
      </trkpt>
      <trkpt lat="47.07733" lon="8.5257">
        <ele>421.8</ele>
        <time>2023-02-12T10:39:11Z</time>
      </trkpt>
      <trkpt lat="47.0774" lon="8.52567">
        <ele>421.8</ele>
        <time>2023-02-12T10:39:12Z</time>
      </trkpt>
      <trkpt lat="47.07746" lon="8.52564">
        <ele>421.8</ele>
        <time>2023-02-12T10:39:13Z</time>
      </trkpt>
      <trkpt lat="47.07752" lon="8.5256">
        <ele>421.8</ele>
        <time>2023-02-12T10:39:14Z</time>
      </trkpt>
      <trkpt lat="47.07758" lon="8.52557">
        <ele>421.8</ele>
        <time>2023-02-12T10:39:15Z</time>
      </trkpt>
      <trkpt lat="47.07764" lon="8.52555">
        <ele>421.8</ele>
        <time>2023-02-12T10:39:16Z</time>
      </trkpt>
      <trkpt lat="47.07769" lon="8.52552">
        <ele>421.8</ele>
        <time>2023-02-12T10:39:17Z</time>
      </trkpt>
      <trkpt lat="47.07775" lon="8.52549">
        <ele>421.8</ele>
        <time>2023-02-12T10:39:18Z</time>
      </trkpt>
      <trkpt lat="47.0778" lon="8.52546">
        <ele>422</ele>
        <time>2023-02-12T10:39:19Z</time>
      </trkpt>
      <trkpt lat="47.07786" lon="8.52542">
        <ele>422</ele>
        <time>2023-02-12T10:39:20Z</time>
      </trkpt>
      <trkpt lat="47.07792" lon="8.5254">
        <ele>422</ele>
        <time>2023-02-12T10:39:21Z</time>
      </trkpt>
      <trkpt lat="47.07798" lon="8.52536">
        <ele>422</ele>
        <time>2023-02-12T10:39:22Z</time>
      </trkpt>
      <trkpt lat="47.07803" lon="8.52533">
        <ele>422</ele>
        <time>2023-02-12T10:39:23Z</time>
      </trkpt>
      <trkpt lat="47.07809" lon="8.5253">
        <ele>422</ele>
        <time>2023-02-12T10:39:24Z</time>
      </trkpt>
      <trkpt lat="47.07815" lon="8.52527">
        <ele>422</ele>
        <time>2023-02-12T10:39:25Z</time>
      </trkpt>
      <trkpt lat="47.07821" lon="8.52524">
        <ele>422</ele>
        <time>2023-02-12T10:39:26Z</time>
      </trkpt>
      <trkpt lat="47.07827" lon="8.52522">
        <ele>422</ele>
        <time>2023-02-12T10:39:27Z</time>
      </trkpt>
      <trkpt lat="47.07834" lon="8.52519">
        <ele>422</ele>
        <time>2023-02-12T10:39:28Z</time>
      </trkpt>
      <trkpt lat="47.0784" lon="8.52516">
        <ele>422</ele>
        <time>2023-02-12T10:39:29Z</time>
      </trkpt>
      <trkpt lat="47.07846" lon="8.52514">
        <ele>422</ele>
        <time>2023-02-12T10:39:30Z</time>
      </trkpt>
      <trkpt lat="47.07853" lon="8.52512">
        <ele>422</ele>
        <time>2023-02-12T10:39:31Z</time>
      </trkpt>
      <trkpt lat="47.0786" lon="8.52509">
        <ele>421.8</ele>
        <time>2023-02-12T10:39:32Z</time>
      </trkpt>
      <trkpt lat="47.07866" lon="8.52506">
        <ele>421.8</ele>
        <time>2023-02-12T10:39:33Z</time>
      </trkpt>
      <trkpt lat="47.07873" lon="8.52504">
        <ele>421.8</ele>
        <time>2023-02-12T10:39:34Z</time>
      </trkpt>
      <trkpt lat="47.07879" lon="8.52502">
        <ele>421.6</ele>
        <time>2023-02-12T10:39:35Z</time>
      </trkpt>
      <trkpt lat="47.07885" lon="8.525">
        <ele>421.4</ele>
        <time>2023-02-12T10:39:36Z</time>
      </trkpt>
      <trkpt lat="47.07891" lon="8.52497">
        <ele>421.2</ele>
        <time>2023-02-12T10:39:37Z</time>
      </trkpt>
      <trkpt lat="47.07898" lon="8.52495">
        <ele>421</ele>
        <time>2023-02-12T10:39:38Z</time>
      </trkpt>
      <trkpt lat="47.07904" lon="8.52493">
        <ele>420.8</ele>
        <time>2023-02-12T10:39:39Z</time>
      </trkpt>
      <trkpt lat="47.0791" lon="8.52491">
        <ele>420.8</ele>
        <time>2023-02-12T10:39:40Z</time>
      </trkpt>
      <trkpt lat="47.07917" lon="8.52489">
        <ele>420.6</ele>
        <time>2023-02-12T10:39:41Z</time>
      </trkpt>
      <trkpt lat="47.07923" lon="8.52486">
        <ele>420.6</ele>
        <time>2023-02-12T10:39:42Z</time>
      </trkpt>
      <trkpt lat="47.07929" lon="8.52484">
        <ele>420.6</ele>
        <time>2023-02-12T10:39:43Z</time>
      </trkpt>
      <trkpt lat="47.07936" lon="8.52481">
        <ele>420.4</ele>
        <time>2023-02-12T10:39:44Z</time>
      </trkpt>
      <trkpt lat="47.07942" lon="8.52478">
        <ele>420.4</ele>
        <time>2023-02-12T10:39:45Z</time>
      </trkpt>
      <trkpt lat="47.07948" lon="8.52475">
        <ele>420.4</ele>
        <time>2023-02-12T10:39:46Z</time>
      </trkpt>
      <trkpt lat="47.07953" lon="8.52471">
        <ele>420.4</ele>
        <time>2023-02-12T10:39:47Z</time>
      </trkpt>
      <trkpt lat="47.07959" lon="8.52467">
        <ele>420.4</ele>
        <time>2023-02-12T10:39:48Z</time>
      </trkpt>
      <trkpt lat="47.07964" lon="8.52462">
        <ele>420.6</ele>
        <time>2023-02-12T10:39:49Z</time>
      </trkpt>
      <trkpt lat="47.07969" lon="8.52457">
        <ele>420.6</ele>
        <time>2023-02-12T10:39:50Z</time>
      </trkpt>
      <trkpt lat="47.07974" lon="8.52451">
        <ele>420.6</ele>
        <time>2023-02-12T10:39:51Z</time>
      </trkpt>
      <trkpt lat="47.07979" lon="8.52446">
        <ele>420.6</ele>
        <time>2023-02-12T10:39:52Z</time>
      </trkpt>
      <trkpt lat="47.07984" lon="8.52441">
        <ele>420.6</ele>
        <time>2023-02-12T10:39:53Z</time>
      </trkpt>
      <trkpt lat="47.07989" lon="8.52436">
        <ele>420.4</ele>
        <time>2023-02-12T10:39:54Z</time>
      </trkpt>
      <trkpt lat="47.07994" lon="8.5243">
        <ele>420.4</ele>
        <time>2023-02-12T10:39:55Z</time>
      </trkpt>
      <trkpt lat="47.07999" lon="8.52425">
        <ele>420.4</ele>
        <time>2023-02-12T10:39:56Z</time>
      </trkpt>
      <trkpt lat="47.08004" lon="8.52421">
        <ele>420.4</ele>
        <time>2023-02-12T10:39:57Z</time>
      </trkpt>
      <trkpt lat="47.0801" lon="8.52416">
        <ele>420.4</ele>
        <time>2023-02-12T10:39:58Z</time>
      </trkpt>
      <trkpt lat="47.08015" lon="8.52411">
        <ele>420.4</ele>
        <time>2023-02-12T10:39:59Z</time>
      </trkpt>
      <trkpt lat="47.08021" lon="8.52407">
        <ele>420.4</ele>
        <time>2023-02-12T10:40:00Z</time>
      </trkpt>
      <trkpt lat="47.08027" lon="8.52402">
        <ele>420.4</ele>
        <time>2023-02-12T10:40:01Z</time>
      </trkpt>
      <trkpt lat="47.08032" lon="8.52399">
        <ele>420.4</ele>
        <time>2023-02-12T10:40:02Z</time>
      </trkpt>
      <trkpt lat="47.08038" lon="8.52396">
        <ele>420.4</ele>
        <time>2023-02-12T10:40:03Z</time>
      </trkpt>
      <trkpt lat="47.08044" lon="8.52393">
        <ele>420.4</ele>
        <time>2023-02-12T10:40:04Z</time>
      </trkpt>
      <trkpt lat="47.0805" lon="8.5239">
        <ele>420.4</ele>
        <time>2023-02-12T10:40:05Z</time>
      </trkpt>
      <trkpt lat="47.08056" lon="8.52387">
        <ele>420.4</ele>
        <time>2023-02-12T10:40:06Z</time>
      </trkpt>
      <trkpt lat="47.08062" lon="8.52384">
        <ele>420.4</ele>
        <time>2023-02-12T10:40:07Z</time>
      </trkpt>
      <trkpt lat="47.08068" lon="8.52381">
        <ele>420.4</ele>
        <time>2023-02-12T10:40:08Z</time>
      </trkpt>
      <trkpt lat="47.08073" lon="8.52377">
        <ele>420.4</ele>
        <time>2023-02-12T10:40:09Z</time>
      </trkpt>
      <trkpt lat="47.08079" lon="8.52374">
        <ele>420.4</ele>
        <time>2023-02-12T10:40:10Z</time>
      </trkpt>
      <trkpt lat="47.08085" lon="8.52371">
        <ele>420.2</ele>
        <time>2023-02-12T10:40:11Z</time>
      </trkpt>
      <trkpt lat="47.08091" lon="8.52369">
        <ele>420.2</ele>
        <time>2023-02-12T10:40:12Z</time>
      </trkpt>
      <trkpt lat="47.08097" lon="8.52365">
        <ele>420.2</ele>
        <time>2023-02-12T10:40:13Z</time>
      </trkpt>
      <trkpt lat="47.08103" lon="8.52363">
        <ele>420.2</ele>
        <time>2023-02-12T10:40:14Z</time>
      </trkpt>
      <trkpt lat="47.08108" lon="8.5236">
        <ele>420.4</ele>
        <time>2023-02-12T10:40:15Z</time>
      </trkpt>
      <trkpt lat="47.08114" lon="8.52357">
        <ele>420.4</ele>
        <time>2023-02-12T10:40:16Z</time>
      </trkpt>
      <trkpt lat="47.08119" lon="8.52354">
        <ele>420.6</ele>
        <time>2023-02-12T10:40:17Z</time>
      </trkpt>
      <trkpt lat="47.08125" lon="8.52351">
        <ele>420.6</ele>
        <time>2023-02-12T10:40:18Z</time>
      </trkpt>
      <trkpt lat="47.08132" lon="8.52349">
        <ele>420.8</ele>
        <time>2023-02-12T10:40:19Z</time>
      </trkpt>
      <trkpt lat="47.08137" lon="8.52347">
        <ele>420.8</ele>
        <time>2023-02-12T10:40:20Z</time>
      </trkpt>
      <trkpt lat="47.08143" lon="8.52346">
        <ele>420.8</ele>
        <time>2023-02-12T10:40:21Z</time>
      </trkpt>
      <trkpt lat="47.08149" lon="8.52345">
        <ele>420.8</ele>
        <time>2023-02-12T10:40:22Z</time>
      </trkpt>
      <trkpt lat="47.08155" lon="8.52344">
        <ele>420.8</ele>
        <time>2023-02-12T10:40:23Z</time>
      </trkpt>
      <trkpt lat="47.08161" lon="8.52343">
        <ele>420.8</ele>
        <time>2023-02-12T10:40:24Z</time>
      </trkpt>
      <trkpt lat="47.08167" lon="8.52341">
        <ele>421</ele>
        <time>2023-02-12T10:40:25Z</time>
      </trkpt>
      <trkpt lat="47.08173" lon="8.5234">
        <ele>421</ele>
        <time>2023-02-12T10:40:26Z</time>
      </trkpt>
      <trkpt lat="47.08179" lon="8.52339">
        <ele>421</ele>
        <time>2023-02-12T10:40:27Z</time>
      </trkpt>
      <trkpt lat="47.08185" lon="8.52337">
        <ele>421</ele>
        <time>2023-02-12T10:40:28Z</time>
      </trkpt>
      <trkpt lat="47.08192" lon="8.52336">
        <ele>421.2</ele>
        <time>2023-02-12T10:40:29Z</time>
      </trkpt>
      <trkpt lat="47.08198" lon="8.52336">
        <ele>421.2</ele>
        <time>2023-02-12T10:40:30Z</time>
      </trkpt>
      <trkpt lat="47.08204" lon="8.52335">
        <ele>421.2</ele>
        <time>2023-02-12T10:40:31Z</time>
      </trkpt>
      <trkpt lat="47.0821" lon="8.52335">
        <ele>421.4</ele>
        <time>2023-02-12T10:40:32Z</time>
      </trkpt>
      <trkpt lat="47.08217" lon="8.52334">
        <ele>421.4</ele>
        <time>2023-02-12T10:40:33Z</time>
      </trkpt>
      <trkpt lat="47.08223" lon="8.52332">
        <ele>421.4</ele>
        <time>2023-02-12T10:40:34Z</time>
      </trkpt>
      <trkpt lat="47.0823" lon="8.52331">
        <ele>421.6</ele>
        <time>2023-02-12T10:40:35Z</time>
      </trkpt>
      <trkpt lat="47.08236" lon="8.52329">
        <ele>421.6</ele>
        <time>2023-02-12T10:40:36Z</time>
      </trkpt>
      <trkpt lat="47.08242" lon="8.52327">
        <ele>421.6</ele>
        <time>2023-02-12T10:40:37Z</time>
      </trkpt>
      <trkpt lat="47.08248" lon="8.52325">
        <ele>421.4</ele>
        <time>2023-02-12T10:40:38Z</time>
      </trkpt>
      <trkpt lat="47.08255" lon="8.52323">
        <ele>421.4</ele>
        <time>2023-02-12T10:40:39Z</time>
      </trkpt>
      <trkpt lat="47.08261" lon="8.5232">
        <ele>421.4</ele>
        <time>2023-02-12T10:40:40Z</time>
      </trkpt>
      <trkpt lat="47.08268" lon="8.52317">
        <ele>421.4</ele>
        <time>2023-02-12T10:40:41Z</time>
      </trkpt>
      <trkpt lat="47.08274" lon="8.52315">
        <ele>421.4</ele>
        <time>2023-02-12T10:40:42Z</time>
      </trkpt>
      <trkpt lat="47.08279" lon="8.52312">
        <ele>421.4</ele>
        <time>2023-02-12T10:40:43Z</time>
      </trkpt>
      <trkpt lat="47.08286" lon="8.5231">
        <ele>421.4</ele>
        <time>2023-02-12T10:40:44Z</time>
      </trkpt>
      <trkpt lat="47.08292" lon="8.52307">
        <ele>421.2</ele>
        <time>2023-02-12T10:40:45Z</time>
      </trkpt>
      <trkpt lat="47.08298" lon="8.52305">
        <ele>421.2</ele>
        <time>2023-02-12T10:40:46Z</time>
      </trkpt>
      <trkpt lat="47.08303" lon="8.52303">
        <ele>421.2</ele>
        <time>2023-02-12T10:40:47Z</time>
      </trkpt>
      <trkpt lat="47.0831" lon="8.523">
        <ele>421.2</ele>
        <time>2023-02-12T10:40:48Z</time>
      </trkpt>
      <trkpt lat="47.08316" lon="8.52298">
        <ele>421.2</ele>
        <time>2023-02-12T10:40:49Z</time>
      </trkpt>
      <trkpt lat="47.08323" lon="8.52295">
        <ele>421</ele>
        <time>2023-02-12T10:40:50Z</time>
      </trkpt>
      <trkpt lat="47.08329" lon="8.52294">
        <ele>421</ele>
        <time>2023-02-12T10:40:51Z</time>
      </trkpt>
      <trkpt lat="47.08336" lon="8.52292">
        <ele>420.8</ele>
        <time>2023-02-12T10:40:52Z</time>
      </trkpt>
      <trkpt lat="47.08342" lon="8.52292">
        <ele>420.8</ele>
        <time>2023-02-12T10:40:53Z</time>
      </trkpt>
      <trkpt lat="47.08348" lon="8.52292">
        <ele>420.8</ele>
        <time>2023-02-12T10:40:54Z</time>
      </trkpt>
      <trkpt lat="47.08354" lon="8.52292">
        <ele>420.8</ele>
        <time>2023-02-12T10:40:55Z</time>
      </trkpt>
      <trkpt lat="47.08361" lon="8.52293">
        <ele>420.8</ele>
        <time>2023-02-12T10:40:56Z</time>
      </trkpt>
      <trkpt lat="47.08366" lon="8.52294">
        <ele>420.8</ele>
        <time>2023-02-12T10:40:57Z</time>
      </trkpt>
      <trkpt lat="47.08373" lon="8.52296">
        <ele>420.8</ele>
        <time>2023-02-12T10:40:58Z</time>
      </trkpt>
      <trkpt lat="47.08379" lon="8.52298">
        <ele>420.8</ele>
        <time>2023-02-12T10:40:59Z</time>
      </trkpt>
      <trkpt lat="47.08384" lon="8.52301">
        <ele>420.8</ele>
        <time>2023-02-12T10:41:00Z</time>
      </trkpt>
      <trkpt lat="47.0839" lon="8.52304">
        <ele>420.6</ele>
        <time>2023-02-12T10:41:01Z</time>
      </trkpt>
      <trkpt lat="47.08396" lon="8.52307">
        <ele>420.6</ele>
        <time>2023-02-12T10:41:02Z</time>
      </trkpt>
      <trkpt lat="47.08401" lon="8.52311">
        <ele>420.6</ele>
        <time>2023-02-12T10:41:03Z</time>
      </trkpt>
      <trkpt lat="47.08406" lon="8.52316">
        <ele>420.6</ele>
        <time>2023-02-12T10:41:04Z</time>
      </trkpt>
      <trkpt lat="47.08411" lon="8.5232">
        <ele>420.6</ele>
        <time>2023-02-12T10:41:05Z</time>
      </trkpt>
      <trkpt lat="47.08417" lon="8.52324">
        <ele>420.6</ele>
        <time>2023-02-12T10:41:06Z</time>
      </trkpt>
      <trkpt lat="47.08423" lon="8.52328">
        <ele>420.6</ele>
        <time>2023-02-12T10:41:07Z</time>
      </trkpt>
      <trkpt lat="47.08429" lon="8.52331">
        <ele>420.6</ele>
        <time>2023-02-12T10:41:08Z</time>
      </trkpt>
      <trkpt lat="47.08436" lon="8.52333">
        <ele>420.6</ele>
        <time>2023-02-12T10:41:09Z</time>
      </trkpt>
      <trkpt lat="47.08442" lon="8.52334">
        <ele>420.8</ele>
        <time>2023-02-12T10:41:10Z</time>
      </trkpt>
      <trkpt lat="47.08449" lon="8.52335">
        <ele>420.8</ele>
        <time>2023-02-12T10:41:11Z</time>
      </trkpt>
      <trkpt lat="47.08455" lon="8.52336">
        <ele>420.8</ele>
        <time>2023-02-12T10:41:12Z</time>
      </trkpt>
      <trkpt lat="47.08461" lon="8.52336">
        <ele>420.8</ele>
        <time>2023-02-12T10:41:13Z</time>
      </trkpt>
      <trkpt lat="47.08468" lon="8.52337">
        <ele>420.8</ele>
        <time>2023-02-12T10:41:14Z</time>
      </trkpt>
      <trkpt lat="47.08475" lon="8.52337">
        <ele>420.8</ele>
        <time>2023-02-12T10:41:15Z</time>
      </trkpt>
      <trkpt lat="47.08482" lon="8.52337">
        <ele>420.8</ele>
        <time>2023-02-12T10:41:16Z</time>
      </trkpt>
      <trkpt lat="47.08488" lon="8.52337">
        <ele>420.8</ele>
        <time>2023-02-12T10:41:17Z</time>
      </trkpt>
      <trkpt lat="47.08495" lon="8.52337">
        <ele>421</ele>
        <time>2023-02-12T10:41:18Z</time>
      </trkpt>
      <trkpt lat="47.08501" lon="8.52337">
        <ele>421</ele>
        <time>2023-02-12T10:41:19Z</time>
      </trkpt>
      <trkpt lat="47.08507" lon="8.52337">
        <ele>421</ele>
        <time>2023-02-12T10:41:20Z</time>
      </trkpt>
      <trkpt lat="47.08514" lon="8.52337">
        <ele>421</ele>
        <time>2023-02-12T10:41:21Z</time>
      </trkpt>
      <trkpt lat="47.0852" lon="8.52337">
        <ele>421</ele>
        <time>2023-02-12T10:41:22Z</time>
      </trkpt>
      <trkpt lat="47.08526" lon="8.52338">
        <ele>421</ele>
        <time>2023-02-12T10:41:23Z</time>
      </trkpt>
      <trkpt lat="47.08532" lon="8.52338">
        <ele>421</ele>
        <time>2023-02-12T10:41:24Z</time>
      </trkpt>
      <trkpt lat="47.08539" lon="8.52338">
        <ele>421</ele>
        <time>2023-02-12T10:41:25Z</time>
      </trkpt>
      <trkpt lat="47.08545" lon="8.52338">
        <ele>421</ele>
        <time>2023-02-12T10:41:26Z</time>
      </trkpt>
      <trkpt lat="47.08551" lon="8.52338">
        <ele>421</ele>
        <time>2023-02-12T10:41:27Z</time>
      </trkpt>
      <trkpt lat="47.08558" lon="8.52338">
        <ele>421</ele>
        <time>2023-02-12T10:41:28Z</time>
      </trkpt>
      <trkpt lat="47.08564" lon="8.52338">
        <ele>421</ele>
        <time>2023-02-12T10:41:29Z</time>
      </trkpt>
      <trkpt lat="47.0857" lon="8.52338">
        <ele>420.8</ele>
        <time>2023-02-12T10:41:30Z</time>
      </trkpt>
      <trkpt lat="47.08576" lon="8.52337">
        <ele>420.8</ele>
        <time>2023-02-12T10:41:31Z</time>
      </trkpt>
      <trkpt lat="47.08582" lon="8.52336">
        <ele>421</ele>
        <time>2023-02-12T10:41:32Z</time>
      </trkpt>
      <trkpt lat="47.08588" lon="8.52334">
        <ele>421</ele>
        <time>2023-02-12T10:41:33Z</time>
      </trkpt>
      <trkpt lat="47.08595" lon="8.52331">
        <ele>421</ele>
        <time>2023-02-12T10:41:34Z</time>
      </trkpt>
      <trkpt lat="47.08602" lon="8.52329">
        <ele>421</ele>
        <time>2023-02-12T10:41:35Z</time>
      </trkpt>
      <trkpt lat="47.08608" lon="8.52326">
        <ele>421</ele>
        <time>2023-02-12T10:41:36Z</time>
      </trkpt>
      <trkpt lat="47.08614" lon="8.52322">
        <ele>421</ele>
        <time>2023-02-12T10:41:37Z</time>
      </trkpt>
      <trkpt lat="47.08621" lon="8.52319">
        <ele>421</ele>
        <time>2023-02-12T10:41:38Z</time>
      </trkpt>
      <trkpt lat="47.08627" lon="8.52317">
        <ele>421</ele>
        <time>2023-02-12T10:41:39Z</time>
      </trkpt>
      <trkpt lat="47.08633" lon="8.52315">
        <ele>421</ele>
        <time>2023-02-12T10:41:40Z</time>
      </trkpt>
      <trkpt lat="47.08639" lon="8.52315">
        <ele>421</ele>
        <time>2023-02-12T10:41:41Z</time>
      </trkpt>
      <trkpt lat="47.08645" lon="8.52316">
        <ele>421</ele>
        <time>2023-02-12T10:41:42Z</time>
      </trkpt>
      <trkpt lat="47.08652" lon="8.52318">
        <ele>421</ele>
        <time>2023-02-12T10:41:43Z</time>
      </trkpt>
      <trkpt lat="47.08658" lon="8.52321">
        <ele>421</ele>
        <time>2023-02-12T10:41:44Z</time>
      </trkpt>
      <trkpt lat="47.08663" lon="8.52325">
        <ele>421</ele>
        <time>2023-02-12T10:41:45Z</time>
      </trkpt>
      <trkpt lat="47.08669" lon="8.52328">
        <ele>421</ele>
        <time>2023-02-12T10:41:46Z</time>
      </trkpt>
      <trkpt lat="47.08674" lon="8.52332">
        <ele>421.2</ele>
        <time>2023-02-12T10:41:47Z</time>
      </trkpt>
      <trkpt lat="47.08679" lon="8.52336">
        <ele>421.2</ele>
        <time>2023-02-12T10:41:48Z</time>
      </trkpt>
      <trkpt lat="47.08684" lon="8.5234">
        <ele>421.2</ele>
        <time>2023-02-12T10:41:49Z</time>
      </trkpt>
      <trkpt lat="47.0869" lon="8.52344">
        <ele>421.2</ele>
        <time>2023-02-12T10:41:50Z</time>
      </trkpt>
      <trkpt lat="47.08695" lon="8.52348">
        <ele>421.4</ele>
        <time>2023-02-12T10:41:51Z</time>
      </trkpt>
      <trkpt lat="47.08701" lon="8.52353">
        <ele>421.6</ele>
        <time>2023-02-12T10:41:52Z</time>
      </trkpt>
      <trkpt lat="47.08706" lon="8.52356">
        <ele>421.6</ele>
        <time>2023-02-12T10:41:53Z</time>
      </trkpt>
      <trkpt lat="47.08712" lon="8.52359">
        <ele>421.6</ele>
        <time>2023-02-12T10:41:54Z</time>
      </trkpt>
      <trkpt lat="47.08718" lon="8.52361">
        <ele>421.6</ele>
        <time>2023-02-12T10:41:55Z</time>
      </trkpt>
      <trkpt lat="47.08724" lon="8.52363">
        <ele>421.8</ele>
        <time>2023-02-12T10:41:56Z</time>
      </trkpt>
      <trkpt lat="47.08731" lon="8.52364">
        <ele>421.8</ele>
        <time>2023-02-12T10:41:57Z</time>
      </trkpt>
      <trkpt lat="47.08737" lon="8.52365">
        <ele>421.8</ele>
        <time>2023-02-12T10:41:58Z</time>
      </trkpt>
      <trkpt lat="47.08744" lon="8.52365">
        <ele>421.8</ele>
        <time>2023-02-12T10:41:59Z</time>
      </trkpt>
      <trkpt lat="47.0875" lon="8.52365">
        <ele>421.8</ele>
        <time>2023-02-12T10:42:00Z</time>
      </trkpt>
      <trkpt lat="47.08756" lon="8.52365">
        <ele>421.8</ele>
        <time>2023-02-12T10:42:01Z</time>
      </trkpt>
      <trkpt lat="47.08763" lon="8.52365">
        <ele>421.8</ele>
        <time>2023-02-12T10:42:02Z</time>
      </trkpt>
      <trkpt lat="47.08769" lon="8.52365">
        <ele>421.8</ele>
        <time>2023-02-12T10:42:03Z</time>
      </trkpt>
      <trkpt lat="47.08775" lon="8.52366">
        <ele>421.8</ele>
        <time>2023-02-12T10:42:04Z</time>
      </trkpt>
      <trkpt lat="47.08781" lon="8.52367">
        <ele>421.8</ele>
        <time>2023-02-12T10:42:05Z</time>
      </trkpt>
      <trkpt lat="47.08787" lon="8.52369">
        <ele>421.8</ele>
        <time>2023-02-12T10:42:06Z</time>
      </trkpt>
      <trkpt lat="47.08793" lon="8.52371">
        <ele>421.8</ele>
        <time>2023-02-12T10:42:07Z</time>
      </trkpt>
      <trkpt lat="47.08799" lon="8.52374">
        <ele>421.8</ele>
        <time>2023-02-12T10:42:08Z</time>
      </trkpt>
      <trkpt lat="47.08805" lon="8.52378">
        <ele>421.8</ele>
        <time>2023-02-12T10:42:09Z</time>
      </trkpt>
      <trkpt lat="47.0881" lon="8.52382">
        <ele>421.8</ele>
        <time>2023-02-12T10:42:10Z</time>
      </trkpt>
      <trkpt lat="47.08816" lon="8.52386">
        <ele>421.8</ele>
        <time>2023-02-12T10:42:11Z</time>
      </trkpt>
      <trkpt lat="47.08821" lon="8.5239">
        <ele>422</ele>
        <time>2023-02-12T10:42:12Z</time>
      </trkpt>
      <trkpt lat="47.08827" lon="8.52394">
        <ele>422</ele>
        <time>2023-02-12T10:42:13Z</time>
      </trkpt>
      <trkpt lat="47.08833" lon="8.52397">
        <ele>422</ele>
        <time>2023-02-12T10:42:14Z</time>
      </trkpt>
      <trkpt lat="47.08838" lon="8.52399">
        <ele>422.2</ele>
        <time>2023-02-12T10:42:15Z</time>
      </trkpt>
      <trkpt lat="47.08844" lon="8.524">
        <ele>422.2</ele>
        <time>2023-02-12T10:42:16Z</time>
      </trkpt>
      <trkpt lat="47.0885" lon="8.52401">
        <ele>422.4</ele>
        <time>2023-02-12T10:42:17Z</time>
      </trkpt>
      <trkpt lat="47.08856" lon="8.52401">
        <ele>422.4</ele>
        <time>2023-02-12T10:42:18Z</time>
      </trkpt>
      <trkpt lat="47.08862" lon="8.524">
        <ele>422.6</ele>
        <time>2023-02-12T10:42:19Z</time>
      </trkpt>
      <trkpt lat="47.08867" lon="8.52399">
        <ele>422.8</ele>
        <time>2023-02-12T10:42:20Z</time>
      </trkpt>
      <trkpt lat="47.08873" lon="8.52399">
        <ele>423</ele>
        <time>2023-02-12T10:42:21Z</time>
      </trkpt>
      <trkpt lat="47.08878" lon="8.52397">
        <ele>423</ele>
        <time>2023-02-12T10:42:22Z</time>
      </trkpt>
      <trkpt lat="47.08883" lon="8.52397">
        <ele>423.2</ele>
        <time>2023-02-12T10:42:23Z</time>
      </trkpt>
      <trkpt lat="47.08889" lon="8.52395">
        <ele>423.4</ele>
        <time>2023-02-12T10:42:24Z</time>
      </trkpt>
      <trkpt lat="47.08895" lon="8.52394">
        <ele>423.4</ele>
        <time>2023-02-12T10:42:25Z</time>
      </trkpt>
      <trkpt lat="47.08901" lon="8.52392">
        <ele>423.4</ele>
        <time>2023-02-12T10:42:26Z</time>
      </trkpt>
      <trkpt lat="47.08907" lon="8.5239">
        <ele>423.4</ele>
        <time>2023-02-12T10:42:27Z</time>
      </trkpt>
      <trkpt lat="47.08913" lon="8.52388">
        <ele>423.4</ele>
        <time>2023-02-12T10:42:28Z</time>
      </trkpt>
      <trkpt lat="47.08919" lon="8.52386">
        <ele>423.4</ele>
        <time>2023-02-12T10:42:29Z</time>
      </trkpt>
      <trkpt lat="47.08925" lon="8.52383">
        <ele>423.6</ele>
        <time>2023-02-12T10:42:30Z</time>
      </trkpt>
      <trkpt lat="47.08931" lon="8.52379">
        <ele>423.6</ele>
        <time>2023-02-12T10:42:31Z</time>
      </trkpt>
      <trkpt lat="47.08936" lon="8.52376">
        <ele>423.6</ele>
        <time>2023-02-12T10:42:32Z</time>
      </trkpt>
      <trkpt lat="47.08942" lon="8.52372">
        <ele>423.6</ele>
        <time>2023-02-12T10:42:33Z</time>
      </trkpt>
      <trkpt lat="47.08947" lon="8.52368">
        <ele>423.4</ele>
        <time>2023-02-12T10:42:34Z</time>
      </trkpt>
      <trkpt lat="47.08953" lon="8.52364">
        <ele>423.4</ele>
        <time>2023-02-12T10:42:35Z</time>
      </trkpt>
      <trkpt lat="47.08958" lon="8.52358">
        <ele>423.4</ele>
        <time>2023-02-12T10:42:36Z</time>
      </trkpt>
      <trkpt lat="47.08962" lon="8.52352">
        <ele>423.4</ele>
        <time>2023-02-12T10:42:37Z</time>
      </trkpt>
      <trkpt lat="47.08967" lon="8.52345">
        <ele>423.4</ele>
        <time>2023-02-12T10:42:38Z</time>
      </trkpt>
      <trkpt lat="47.08971" lon="8.52338">
        <ele>423.2</ele>
        <time>2023-02-12T10:42:39Z</time>
      </trkpt>
      <trkpt lat="47.08974" lon="8.52331">
        <ele>423.2</ele>
        <time>2023-02-12T10:42:40Z</time>
      </trkpt>
      <trkpt lat="47.08978" lon="8.52323">
        <ele>423</ele>
        <time>2023-02-12T10:42:41Z</time>
      </trkpt>
      <trkpt lat="47.08981" lon="8.52315">
        <ele>422.8</ele>
        <time>2023-02-12T10:42:42Z</time>
      </trkpt>
      <trkpt lat="47.08983" lon="8.52307">
        <ele>422.8</ele>
        <time>2023-02-12T10:42:43Z</time>
      </trkpt>
      <trkpt lat="47.08986" lon="8.52299">
        <ele>422.6</ele>
        <time>2023-02-12T10:42:44Z</time>
      </trkpt>
      <trkpt lat="47.08988" lon="8.5229">
        <ele>422.4</ele>
        <time>2023-02-12T10:42:45Z</time>
      </trkpt>
      <trkpt lat="47.0899" lon="8.52281">
        <ele>422.2</ele>
        <time>2023-02-12T10:42:46Z</time>
      </trkpt>
      <trkpt lat="47.08992" lon="8.52272">
        <ele>422.2</ele>
        <time>2023-02-12T10:42:47Z</time>
      </trkpt>
      <trkpt lat="47.08994" lon="8.52263">
        <ele>422</ele>
        <time>2023-02-12T10:42:48Z</time>
      </trkpt>
      <trkpt lat="47.08996" lon="8.52254">
        <ele>422</ele>
        <time>2023-02-12T10:42:49Z</time>
      </trkpt>
      <trkpt lat="47.08998" lon="8.52245">
        <ele>421.8</ele>
        <time>2023-02-12T10:42:50Z</time>
      </trkpt>
      <trkpt lat="47.09" lon="8.52237">
        <ele>421.8</ele>
        <time>2023-02-12T10:42:51Z</time>
      </trkpt>
      <trkpt lat="47.09003" lon="8.52228">
        <ele>421.8</ele>
        <time>2023-02-12T10:42:52Z</time>
      </trkpt>
      <trkpt lat="47.09006" lon="8.5222">
        <ele>421.6</ele>
        <time>2023-02-12T10:42:53Z</time>
      </trkpt>
      <trkpt lat="47.09009" lon="8.52212">
        <ele>421.6</ele>
        <time>2023-02-12T10:42:54Z</time>
      </trkpt>
      <trkpt lat="47.09012" lon="8.52204">
        <ele>421.4</ele>
        <time>2023-02-12T10:42:55Z</time>
      </trkpt>
      <trkpt lat="47.09016" lon="8.52197">
        <ele>421.4</ele>
        <time>2023-02-12T10:42:56Z</time>
      </trkpt>
      <trkpt lat="47.09019" lon="8.52189">
        <ele>421.2</ele>
        <time>2023-02-12T10:42:57Z</time>
      </trkpt>
      <trkpt lat="47.09023" lon="8.52182">
        <ele>421.2</ele>
        <time>2023-02-12T10:42:58Z</time>
      </trkpt>
      <trkpt lat="47.09028" lon="8.52176">
        <ele>421</ele>
        <time>2023-02-12T10:42:59Z</time>
      </trkpt>
      <trkpt lat="47.09032" lon="8.52169">
        <ele>421</ele>
        <time>2023-02-12T10:43:00Z</time>
      </trkpt>
      <trkpt lat="47.09037" lon="8.52163">
        <ele>420.8</ele>
        <time>2023-02-12T10:43:01Z</time>
      </trkpt>
      <trkpt lat="47.09042" lon="8.52157">
        <ele>420.8</ele>
        <time>2023-02-12T10:43:02Z</time>
      </trkpt>
      <trkpt lat="47.09047" lon="8.52151">
        <ele>420.6</ele>
        <time>2023-02-12T10:43:03Z</time>
      </trkpt>
      <trkpt lat="47.09053" lon="8.52146">
        <ele>420.6</ele>
        <time>2023-02-12T10:43:04Z</time>
      </trkpt>
      <trkpt lat="47.09058" lon="8.52142">
        <ele>420.6</ele>
        <time>2023-02-12T10:43:05Z</time>
      </trkpt>
      <trkpt lat="47.09064" lon="8.52138">
        <ele>420.6</ele>
        <time>2023-02-12T10:43:06Z</time>
      </trkpt>
      <trkpt lat="47.0907" lon="8.52134">
        <ele>420.6</ele>
        <time>2023-02-12T10:43:07Z</time>
      </trkpt>
      <trkpt lat="47.09075" lon="8.52131">
        <ele>420.4</ele>
        <time>2023-02-12T10:43:08Z</time>
      </trkpt>
      <trkpt lat="47.09082" lon="8.52128">
        <ele>420.4</ele>
        <time>2023-02-12T10:43:09Z</time>
      </trkpt>
      <trkpt lat="47.09088" lon="8.52125">
        <ele>420.4</ele>
        <time>2023-02-12T10:43:10Z</time>
      </trkpt>
      <trkpt lat="47.09094" lon="8.52122">
        <ele>420.2</ele>
        <time>2023-02-12T10:43:11Z</time>
      </trkpt>
      <trkpt lat="47.091" lon="8.5212">
        <ele>420.2</ele>
        <time>2023-02-12T10:43:12Z</time>
      </trkpt>
      <trkpt lat="47.09106" lon="8.52119">
        <ele>420.2</ele>
        <time>2023-02-12T10:43:13Z</time>
      </trkpt>
      <trkpt lat="47.09112" lon="8.52117">
        <ele>420</ele>
        <time>2023-02-12T10:43:14Z</time>
      </trkpt>
      <trkpt lat="47.09118" lon="8.52115">
        <ele>419.8</ele>
        <time>2023-02-12T10:43:15Z</time>
      </trkpt>
      <trkpt lat="47.09124" lon="8.52113">
        <ele>419.8</ele>
        <time>2023-02-12T10:43:16Z</time>
      </trkpt>
      <trkpt lat="47.0913" lon="8.52113">
        <ele>419.6</ele>
        <time>2023-02-12T10:43:17Z</time>
      </trkpt>
      <trkpt lat="47.09136" lon="8.52111">
        <ele>419.6</ele>
        <time>2023-02-12T10:43:18Z</time>
      </trkpt>
      <trkpt lat="47.09142" lon="8.52111">
        <ele>419.6</ele>
        <time>2023-02-12T10:43:19Z</time>
      </trkpt>
      <trkpt lat="47.09148" lon="8.5211">
        <ele>419.4</ele>
        <time>2023-02-12T10:43:20Z</time>
      </trkpt>
      <trkpt lat="47.09153" lon="8.52109">
        <ele>419.4</ele>
        <time>2023-02-12T10:43:21Z</time>
      </trkpt>
      <trkpt lat="47.09159" lon="8.52108">
        <ele>419.4</ele>
        <time>2023-02-12T10:43:22Z</time>
      </trkpt>
      <trkpt lat="47.09165" lon="8.52107">
        <ele>419.4</ele>
        <time>2023-02-12T10:43:23Z</time>
      </trkpt>
      <trkpt lat="47.0917" lon="8.52107">
        <ele>419.4</ele>
        <time>2023-02-12T10:43:24Z</time>
      </trkpt>
      <trkpt lat="47.09177" lon="8.52106">
        <ele>419.4</ele>
        <time>2023-02-12T10:43:25Z</time>
      </trkpt>
      <trkpt lat="47.09183" lon="8.52105">
        <ele>419.2</ele>
        <time>2023-02-12T10:43:26Z</time>
      </trkpt>
      <trkpt lat="47.09189" lon="8.52104">
        <ele>419.2</ele>
        <time>2023-02-12T10:43:27Z</time>
      </trkpt>
      <trkpt lat="47.09195" lon="8.52104">
        <ele>419.2</ele>
        <time>2023-02-12T10:43:28Z</time>
      </trkpt>
      <trkpt lat="47.09201" lon="8.52103">
        <ele>419.2</ele>
        <time>2023-02-12T10:43:29Z</time>
      </trkpt>
      <trkpt lat="47.09207" lon="8.52102">
        <ele>419.2</ele>
        <time>2023-02-12T10:43:30Z</time>
      </trkpt>
      <trkpt lat="47.09213" lon="8.52101">
        <ele>419.2</ele>
        <time>2023-02-12T10:43:31Z</time>
      </trkpt>
      <trkpt lat="47.09218" lon="8.521">
        <ele>419</ele>
        <time>2023-02-12T10:43:32Z</time>
      </trkpt>
      <trkpt lat="47.09224" lon="8.52099">
        <ele>419.2</ele>
        <time>2023-02-12T10:43:33Z</time>
      </trkpt>
      <trkpt lat="47.0923" lon="8.52098">
        <ele>419.2</ele>
        <time>2023-02-12T10:43:34Z</time>
      </trkpt>
      <trkpt lat="47.09236" lon="8.52097">
        <ele>419.2</ele>
        <time>2023-02-12T10:43:35Z</time>
      </trkpt>
      <trkpt lat="47.09242" lon="8.52095">
        <ele>419.4</ele>
        <time>2023-02-12T10:43:36Z</time>
      </trkpt>
      <trkpt lat="47.09247" lon="8.52093">
        <ele>419.4</ele>
        <time>2023-02-12T10:43:37Z</time>
      </trkpt>
      <trkpt lat="47.09252" lon="8.52091">
        <ele>419.4</ele>
        <time>2023-02-12T10:43:38Z</time>
      </trkpt>
      <trkpt lat="47.09258" lon="8.52088">
        <ele>419.6</ele>
        <time>2023-02-12T10:43:39Z</time>
      </trkpt>
      <trkpt lat="47.09264" lon="8.52086">
        <ele>419.6</ele>
        <time>2023-02-12T10:43:40Z</time>
      </trkpt>
      <trkpt lat="47.09269" lon="8.52082">
        <ele>419.6</ele>
        <time>2023-02-12T10:43:41Z</time>
      </trkpt>
      <trkpt lat="47.09274" lon="8.52079">
        <ele>419.6</ele>
        <time>2023-02-12T10:43:42Z</time>
      </trkpt>
      <trkpt lat="47.0928" lon="8.52075">
        <ele>419.8</ele>
        <time>2023-02-12T10:43:43Z</time>
      </trkpt>
      <trkpt lat="47.09285" lon="8.5207">
        <ele>420</ele>
        <time>2023-02-12T10:43:44Z</time>
      </trkpt>
      <trkpt lat="47.09289" lon="8.52066">
        <ele>420</ele>
        <time>2023-02-12T10:43:45Z</time>
      </trkpt>
      <trkpt lat="47.09294" lon="8.52061">
        <ele>420.2</ele>
        <time>2023-02-12T10:43:46Z</time>
      </trkpt>
      <trkpt lat="47.09299" lon="8.52056">
        <ele>420.2</ele>
        <time>2023-02-12T10:43:47Z</time>
      </trkpt>
      <trkpt lat="47.09303" lon="8.52051">
        <ele>420.2</ele>
        <time>2023-02-12T10:43:48Z</time>
      </trkpt>
      <trkpt lat="47.09308" lon="8.52046">
        <ele>420.2</ele>
        <time>2023-02-12T10:43:49Z</time>
      </trkpt>
      <trkpt lat="47.09312" lon="8.5204">
        <ele>420.2</ele>
        <time>2023-02-12T10:43:50Z</time>
      </trkpt>
      <trkpt lat="47.09316" lon="8.52035">
        <ele>420.2</ele>
        <time>2023-02-12T10:43:51Z</time>
      </trkpt>
      <trkpt lat="47.09321" lon="8.52029">
        <ele>420.4</ele>
        <time>2023-02-12T10:43:52Z</time>
      </trkpt>
      <trkpt lat="47.09325" lon="8.52023">
        <ele>420.4</ele>
        <time>2023-02-12T10:43:53Z</time>
      </trkpt>
      <trkpt lat="47.09329" lon="8.52017">
        <ele>420.4</ele>
        <time>2023-02-12T10:43:54Z</time>
      </trkpt>
      <trkpt lat="47.09333" lon="8.52012">
        <ele>420.4</ele>
        <time>2023-02-12T10:43:55Z</time>
      </trkpt>
      <trkpt lat="47.09337" lon="8.52006">
        <ele>420.4</ele>
        <time>2023-02-12T10:43:56Z</time>
      </trkpt>
      <trkpt lat="47.0934" lon="8.52">
        <ele>420.4</ele>
        <time>2023-02-12T10:43:57Z</time>
      </trkpt>
      <trkpt lat="47.09344" lon="8.51994">
        <ele>420.4</ele>
        <time>2023-02-12T10:43:58Z</time>
      </trkpt>
      <trkpt lat="47.09349" lon="8.51988">
        <ele>420.4</ele>
        <time>2023-02-12T10:43:59Z</time>
      </trkpt>
      <trkpt lat="47.09353" lon="8.51983">
        <ele>420.4</ele>
        <time>2023-02-12T10:44:00Z</time>
      </trkpt>
      <trkpt lat="47.09357" lon="8.51978">
        <ele>420.6</ele>
        <time>2023-02-12T10:44:01Z</time>
      </trkpt>
      <trkpt lat="47.09362" lon="8.51972">
        <ele>420.6</ele>
        <time>2023-02-12T10:44:02Z</time>
      </trkpt>
      <trkpt lat="47.09366" lon="8.51967">
        <ele>420.6</ele>
        <time>2023-02-12T10:44:03Z</time>
      </trkpt>
      <trkpt lat="47.09371" lon="8.51962">
        <ele>420.6</ele>
        <time>2023-02-12T10:44:04Z</time>
      </trkpt>
      <trkpt lat="47.09376" lon="8.51958">
        <ele>420.8</ele>
        <time>2023-02-12T10:44:05Z</time>
      </trkpt>
      <trkpt lat="47.09382" lon="8.51955">
        <ele>420.8</ele>
        <time>2023-02-12T10:44:06Z</time>
      </trkpt>
      <trkpt lat="47.09387" lon="8.51951">
        <ele>420.8</ele>
        <time>2023-02-12T10:44:07Z</time>
      </trkpt>
      <trkpt lat="47.09392" lon="8.51949">
        <ele>420.8</ele>
        <time>2023-02-12T10:44:08Z</time>
      </trkpt>
      <trkpt lat="47.09398" lon="8.51946">
        <ele>421</ele>
        <time>2023-02-12T10:44:09Z</time>
      </trkpt>
      <trkpt lat="47.09404" lon="8.51943">
        <ele>421.2</ele>
        <time>2023-02-12T10:44:10Z</time>
      </trkpt>
      <trkpt lat="47.0941" lon="8.51941">
        <ele>421.2</ele>
        <time>2023-02-12T10:44:11Z</time>
      </trkpt>
      <trkpt lat="47.09416" lon="8.51939">
        <ele>421</ele>
        <time>2023-02-12T10:44:12Z</time>
      </trkpt>
      <trkpt lat="47.09422" lon="8.51937">
        <ele>421</ele>
        <time>2023-02-12T10:44:13Z</time>
      </trkpt>
      <trkpt lat="47.09428" lon="8.51935">
        <ele>421</ele>
        <time>2023-02-12T10:44:14Z</time>
      </trkpt>
      <trkpt lat="47.09435" lon="8.51933">
        <ele>420.8</ele>
        <time>2023-02-12T10:44:15Z</time>
      </trkpt>
      <trkpt lat="47.09441" lon="8.51932">
        <ele>420.8</ele>
        <time>2023-02-12T10:44:16Z</time>
      </trkpt>
      <trkpt lat="47.09447" lon="8.51929">
        <ele>420.8</ele>
        <time>2023-02-12T10:44:17Z</time>
      </trkpt>
      <trkpt lat="47.09454" lon="8.51926">
        <ele>420.6</ele>
        <time>2023-02-12T10:44:18Z</time>
      </trkpt>
      <trkpt lat="47.0946" lon="8.51923">
        <ele>420.6</ele>
        <time>2023-02-12T10:44:19Z</time>
      </trkpt>
      <trkpt lat="47.09466" lon="8.51919">
        <ele>420.4</ele>
        <time>2023-02-12T10:44:20Z</time>
      </trkpt>
      <trkpt lat="47.09472" lon="8.51915">
        <ele>420.4</ele>
        <time>2023-02-12T10:44:21Z</time>
      </trkpt>
      <trkpt lat="47.09478" lon="8.5191">
        <ele>420.2</ele>
        <time>2023-02-12T10:44:22Z</time>
      </trkpt>
      <trkpt lat="47.09483" lon="8.51905">
        <ele>420.2</ele>
        <time>2023-02-12T10:44:23Z</time>
      </trkpt>
      <trkpt lat="47.09488" lon="8.519">
        <ele>420.2</ele>
        <time>2023-02-12T10:44:24Z</time>
      </trkpt>
      <trkpt lat="47.09494" lon="8.51895">
        <ele>420</ele>
        <time>2023-02-12T10:44:25Z</time>
      </trkpt>
      <trkpt lat="47.09499" lon="8.51889">
        <ele>420</ele>
        <time>2023-02-12T10:44:26Z</time>
      </trkpt>
      <trkpt lat="47.09503" lon="8.51883">
        <ele>420</ele>
        <time>2023-02-12T10:44:27Z</time>
      </trkpt>
      <trkpt lat="47.09507" lon="8.51877">
        <ele>420</ele>
        <time>2023-02-12T10:44:28Z</time>
      </trkpt>
      <trkpt lat="47.09511" lon="8.51871">
        <ele>419.8</ele>
        <time>2023-02-12T10:44:29Z</time>
      </trkpt>
      <trkpt lat="47.09516" lon="8.51864">
        <ele>419.8</ele>
        <time>2023-02-12T10:44:30Z</time>
      </trkpt>
      <trkpt lat="47.0952" lon="8.51857">
        <ele>419.6</ele>
        <time>2023-02-12T10:44:31Z</time>
      </trkpt>
      <trkpt lat="47.09524" lon="8.5185">
        <ele>419.6</ele>
        <time>2023-02-12T10:44:32Z</time>
      </trkpt>
      <trkpt lat="47.09527" lon="8.51842">
        <ele>419.8</ele>
        <time>2023-02-12T10:44:33Z</time>
      </trkpt>
      <trkpt lat="47.09529" lon="8.51835">
        <ele>419.8</ele>
        <time>2023-02-12T10:44:34Z</time>
      </trkpt>
      <trkpt lat="47.09532" lon="8.51827">
        <ele>419.6</ele>
        <time>2023-02-12T10:44:35Z</time>
      </trkpt>
      <trkpt lat="47.09535" lon="8.51818">
        <ele>419.6</ele>
        <time>2023-02-12T10:44:36Z</time>
      </trkpt>
      <trkpt lat="47.09537" lon="8.51809">
        <ele>419.6</ele>
        <time>2023-02-12T10:44:37Z</time>
      </trkpt>
      <trkpt lat="47.09539" lon="8.51802">
        <ele>419.6</ele>
        <time>2023-02-12T10:44:38Z</time>
      </trkpt>
      <trkpt lat="47.09541" lon="8.51793">
        <ele>419.8</ele>
        <time>2023-02-12T10:44:39Z</time>
      </trkpt>
      <trkpt lat="47.09543" lon="8.51785">
        <ele>419.8</ele>
        <time>2023-02-12T10:44:40Z</time>
      </trkpt>
      <trkpt lat="47.09546" lon="8.51777">
        <ele>420</ele>
        <time>2023-02-12T10:44:41Z</time>
      </trkpt>
      <trkpt lat="47.09548" lon="8.51769">
        <ele>420</ele>
        <time>2023-02-12T10:44:42Z</time>
      </trkpt>
      <trkpt lat="47.09551" lon="8.5176">
        <ele>420</ele>
        <time>2023-02-12T10:44:43Z</time>
      </trkpt>
      <trkpt lat="47.09553" lon="8.51752">
        <ele>420.2</ele>
        <time>2023-02-12T10:44:44Z</time>
      </trkpt>
      <trkpt lat="47.09555" lon="8.51744">
        <ele>420.2</ele>
        <time>2023-02-12T10:44:45Z</time>
      </trkpt>
      <trkpt lat="47.09557" lon="8.51735">
        <ele>420.2</ele>
        <time>2023-02-12T10:44:46Z</time>
      </trkpt>
      <trkpt lat="47.0956" lon="8.51728">
        <ele>420.2</ele>
        <time>2023-02-12T10:44:47Z</time>
      </trkpt>
      <trkpt lat="47.09562" lon="8.51719">
        <ele>420</ele>
        <time>2023-02-12T10:44:48Z</time>
      </trkpt>
      <trkpt lat="47.09565" lon="8.51711">
        <ele>420</ele>
        <time>2023-02-12T10:44:49Z</time>
      </trkpt>
      <trkpt lat="47.09569" lon="8.51704">
        <ele>420</ele>
        <time>2023-02-12T10:44:50Z</time>
      </trkpt>
      <trkpt lat="47.09572" lon="8.51696">
        <ele>419.8</ele>
        <time>2023-02-12T10:44:51Z</time>
      </trkpt>
      <trkpt lat="47.09575" lon="8.51689">
        <ele>419.8</ele>
        <time>2023-02-12T10:44:52Z</time>
      </trkpt>
      <trkpt lat="47.09579" lon="8.51683">
        <ele>419.8</ele>
        <time>2023-02-12T10:44:53Z</time>
      </trkpt>
      <trkpt lat="47.09583" lon="8.51675">
        <ele>419.8</ele>
        <time>2023-02-12T10:44:54Z</time>
      </trkpt>
      <trkpt lat="47.09587" lon="8.51669">
        <ele>419.8</ele>
        <time>2023-02-12T10:44:55Z</time>
      </trkpt>
      <trkpt lat="47.0959" lon="8.51663">
        <ele>419.8</ele>
        <time>2023-02-12T10:44:56Z</time>
      </trkpt>
      <trkpt lat="47.09595" lon="8.51658">
        <ele>419.8</ele>
        <time>2023-02-12T10:44:57Z</time>
      </trkpt>
      <trkpt lat="47.09599" lon="8.51653">
        <ele>419.8</ele>
        <time>2023-02-12T10:44:58Z</time>
      </trkpt>
      <trkpt lat="47.09604" lon="8.51647">
        <ele>419.8</ele>
        <time>2023-02-12T10:44:59Z</time>
      </trkpt>
      <trkpt lat="47.09609" lon="8.51641">
        <ele>419.8</ele>
        <time>2023-02-12T10:45:00Z</time>
      </trkpt>
      <trkpt lat="47.09614" lon="8.51636">
        <ele>419.8</ele>
        <time>2023-02-12T10:45:01Z</time>
      </trkpt>
      <trkpt lat="47.09618" lon="8.5163">
        <ele>419.8</ele>
        <time>2023-02-12T10:45:02Z</time>
      </trkpt>
      <trkpt lat="47.09623" lon="8.51625">
        <ele>419.8</ele>
        <time>2023-02-12T10:45:03Z</time>
      </trkpt>
      <trkpt lat="47.09628" lon="8.5162">
        <ele>419.8</ele>
        <time>2023-02-12T10:45:04Z</time>
      </trkpt>
      <trkpt lat="47.09633" lon="8.51615">
        <ele>419.8</ele>
        <time>2023-02-12T10:45:05Z</time>
      </trkpt>
      <trkpt lat="47.09637" lon="8.5161">
        <ele>419.8</ele>
        <time>2023-02-12T10:45:06Z</time>
      </trkpt>
      <trkpt lat="47.09642" lon="8.51607">
        <ele>419.8</ele>
        <time>2023-02-12T10:45:07Z</time>
      </trkpt>
      <trkpt lat="47.09647" lon="8.51603">
        <ele>419.8</ele>
        <time>2023-02-12T10:45:08Z</time>
      </trkpt>
      <trkpt lat="47.09653" lon="8.51599">
        <ele>419.8</ele>
        <time>2023-02-12T10:45:09Z</time>
      </trkpt>
      <trkpt lat="47.09657" lon="8.51594">
        <ele>420</ele>
        <time>2023-02-12T10:45:10Z</time>
      </trkpt>
      <trkpt lat="47.09662" lon="8.51591">
        <ele>420</ele>
        <time>2023-02-12T10:45:11Z</time>
      </trkpt>
      <trkpt lat="47.09667" lon="8.51588">
        <ele>420</ele>
        <time>2023-02-12T10:45:12Z</time>
      </trkpt>
      <trkpt lat="47.09672" lon="8.51584">
        <ele>420.2</ele>
        <time>2023-02-12T10:45:13Z</time>
      </trkpt>
      <trkpt lat="47.09677" lon="8.5158">
        <ele>420.2</ele>
        <time>2023-02-12T10:45:14Z</time>
      </trkpt>
      <trkpt lat="47.09682" lon="8.51576">
        <ele>420.4</ele>
        <time>2023-02-12T10:45:15Z</time>
      </trkpt>
      <trkpt lat="47.09687" lon="8.51573">
        <ele>420.4</ele>
        <time>2023-02-12T10:45:16Z</time>
      </trkpt>
      <trkpt lat="47.09692" lon="8.51569">
        <ele>420.4</ele>
        <time>2023-02-12T10:45:17Z</time>
      </trkpt>
      <trkpt lat="47.09697" lon="8.51565">
        <ele>420.6</ele>
        <time>2023-02-12T10:45:18Z</time>
      </trkpt>
      <trkpt lat="47.09703" lon="8.51562">
        <ele>420.6</ele>
        <time>2023-02-12T10:45:19Z</time>
      </trkpt>
      <trkpt lat="47.09708" lon="8.51558">
        <ele>420.8</ele>
        <time>2023-02-12T10:45:20Z</time>
      </trkpt>
      <trkpt lat="47.09714" lon="8.51554">
        <ele>420.8</ele>
        <time>2023-02-12T10:45:21Z</time>
      </trkpt>
      <trkpt lat="47.09719" lon="8.51551">
        <ele>420.8</ele>
        <time>2023-02-12T10:45:22Z</time>
      </trkpt>
      <trkpt lat="47.09725" lon="8.51546">
        <ele>420.8</ele>
        <time>2023-02-12T10:45:23Z</time>
      </trkpt>
      <trkpt lat="47.09729" lon="8.51542">
        <ele>421</ele>
        <time>2023-02-12T10:45:24Z</time>
      </trkpt>
      <trkpt lat="47.09735" lon="8.51538">
        <ele>421</ele>
        <time>2023-02-12T10:45:25Z</time>
      </trkpt>
      <trkpt lat="47.0974" lon="8.51533">
        <ele>421</ele>
        <time>2023-02-12T10:45:26Z</time>
      </trkpt>
      <trkpt lat="47.09745" lon="8.51529">
        <ele>421</ele>
        <time>2023-02-12T10:45:27Z</time>
      </trkpt>
      <trkpt lat="47.0975" lon="8.51525">
        <ele>421</ele>
        <time>2023-02-12T10:45:28Z</time>
      </trkpt>
      <trkpt lat="47.09755" lon="8.51522">
        <ele>421</ele>
        <time>2023-02-12T10:45:29Z</time>
      </trkpt>
      <trkpt lat="47.09761" lon="8.51518">
        <ele>421</ele>
        <time>2023-02-12T10:45:30Z</time>
      </trkpt>
      <trkpt lat="47.09767" lon="8.51514">
        <ele>421</ele>
        <time>2023-02-12T10:45:31Z</time>
      </trkpt>
      <trkpt lat="47.09773" lon="8.5151">
        <ele>420.8</ele>
        <time>2023-02-12T10:45:32Z</time>
      </trkpt>
      <trkpt lat="47.09779" lon="8.51507">
        <ele>420.8</ele>
        <time>2023-02-12T10:45:33Z</time>
      </trkpt>
      <trkpt lat="47.09785" lon="8.51503">
        <ele>420.8</ele>
        <time>2023-02-12T10:45:34Z</time>
      </trkpt>
      <trkpt lat="47.09791" lon="8.51499">
        <ele>420.8</ele>
        <time>2023-02-12T10:45:35Z</time>
      </trkpt>
      <trkpt lat="47.09797" lon="8.51495">
        <ele>420.8</ele>
        <time>2023-02-12T10:45:36Z</time>
      </trkpt>
      <trkpt lat="47.09804" lon="8.51492">
        <ele>420.8</ele>
        <time>2023-02-12T10:45:37Z</time>
      </trkpt>
      <trkpt lat="47.09811" lon="8.51488">
        <ele>420.6</ele>
        <time>2023-02-12T10:45:38Z</time>
      </trkpt>
      <trkpt lat="47.09817" lon="8.51484">
        <ele>420.4</ele>
        <time>2023-02-12T10:45:39Z</time>
      </trkpt>
      <trkpt lat="47.09824" lon="8.5148">
        <ele>420.2</ele>
        <time>2023-02-12T10:45:40Z</time>
      </trkpt>
      <trkpt lat="47.0983" lon="8.51477">
        <ele>420.2</ele>
        <time>2023-02-12T10:45:41Z</time>
      </trkpt>
      <trkpt lat="47.09836" lon="8.51473">
        <ele>420</ele>
        <time>2023-02-12T10:45:42Z</time>
      </trkpt>
      <trkpt lat="47.09843" lon="8.5147">
        <ele>420</ele>
        <time>2023-02-12T10:45:43Z</time>
      </trkpt>
      <trkpt lat="47.09849" lon="8.51466">
        <ele>420</ele>
        <time>2023-02-12T10:45:44Z</time>
      </trkpt>
      <trkpt lat="47.09855" lon="8.51462">
        <ele>420</ele>
        <time>2023-02-12T10:45:45Z</time>
      </trkpt>
      <trkpt lat="47.09861" lon="8.51456">
        <ele>419.8</ele>
        <time>2023-02-12T10:45:46Z</time>
      </trkpt>
      <trkpt lat="47.09867" lon="8.51451">
        <ele>419.8</ele>
        <time>2023-02-12T10:45:47Z</time>
      </trkpt>
      <trkpt lat="47.09873" lon="8.51446">
        <ele>419.8</ele>
        <time>2023-02-12T10:45:48Z</time>
      </trkpt>
      <trkpt lat="47.09878" lon="8.5144">
        <ele>419.8</ele>
        <time>2023-02-12T10:45:49Z</time>
      </trkpt>
      <trkpt lat="47.09882" lon="8.51434">
        <ele>419.8</ele>
        <time>2023-02-12T10:45:50Z</time>
      </trkpt>
      <trkpt lat="47.09887" lon="8.51428">
        <ele>419.8</ele>
        <time>2023-02-12T10:45:51Z</time>
      </trkpt>
      <trkpt lat="47.09891" lon="8.51421">
        <ele>420</ele>
        <time>2023-02-12T10:45:52Z</time>
      </trkpt>
      <trkpt lat="47.09895" lon="8.51414">
        <ele>420</ele>
        <time>2023-02-12T10:45:53Z</time>
      </trkpt>
      <trkpt lat="47.09899" lon="8.51406">
        <ele>420.2</ele>
        <time>2023-02-12T10:45:54Z</time>
      </trkpt>
      <trkpt lat="47.09903" lon="8.514">
        <ele>420.4</ele>
        <time>2023-02-12T10:45:55Z</time>
      </trkpt>
      <trkpt lat="47.09907" lon="8.51392">
        <ele>420.6</ele>
        <time>2023-02-12T10:45:56Z</time>
      </trkpt>
      <trkpt lat="47.09911" lon="8.51385">
        <ele>420.6</ele>
        <time>2023-02-12T10:45:57Z</time>
      </trkpt>
      <trkpt lat="47.09915" lon="8.51378">
        <ele>420.8</ele>
        <time>2023-02-12T10:45:58Z</time>
      </trkpt>
      <trkpt lat="47.09919" lon="8.51372">
        <ele>420.8</ele>
        <time>2023-02-12T10:45:59Z</time>
      </trkpt>
      <trkpt lat="47.09923" lon="8.51364">
        <ele>420.8</ele>
        <time>2023-02-12T10:46:00Z</time>
      </trkpt>
      <trkpt lat="47.09926" lon="8.51357">
        <ele>420.8</ele>
        <time>2023-02-12T10:46:01Z</time>
      </trkpt>
      <trkpt lat="47.0993" lon="8.5135">
        <ele>420.8</ele>
        <time>2023-02-12T10:46:02Z</time>
      </trkpt>
      <trkpt lat="47.09934" lon="8.51343">
        <ele>420.8</ele>
        <time>2023-02-12T10:46:03Z</time>
      </trkpt>
      <trkpt lat="47.09938" lon="8.51335">
        <ele>420.8</ele>
        <time>2023-02-12T10:46:04Z</time>
      </trkpt>
      <trkpt lat="47.09942" lon="8.51328">
        <ele>420.8</ele>
        <time>2023-02-12T10:46:05Z</time>
      </trkpt>
      <trkpt lat="47.09946" lon="8.51321">
        <ele>420.8</ele>
        <time>2023-02-12T10:46:06Z</time>
      </trkpt>
      <trkpt lat="47.09949" lon="8.51314">
        <ele>420.8</ele>
        <time>2023-02-12T10:46:07Z</time>
      </trkpt>
      <trkpt lat="47.09953" lon="8.51306">
        <ele>420.8</ele>
        <time>2023-02-12T10:46:08Z</time>
      </trkpt>
      <trkpt lat="47.09957" lon="8.51299">
        <ele>420.8</ele>
        <time>2023-02-12T10:46:09Z</time>
      </trkpt>
      <trkpt lat="47.09961" lon="8.51293">
        <ele>420.8</ele>
        <time>2023-02-12T10:46:10Z</time>
      </trkpt>
      <trkpt lat="47.09966" lon="8.51287">
        <ele>420.8</ele>
        <time>2023-02-12T10:46:11Z</time>
      </trkpt>
      <trkpt lat="47.09972" lon="8.51282">
        <ele>420.8</ele>
        <time>2023-02-12T10:46:12Z</time>
      </trkpt>
      <trkpt lat="47.09978" lon="8.51278">
        <ele>420.8</ele>
        <time>2023-02-12T10:46:13Z</time>
      </trkpt>
      <trkpt lat="47.09985" lon="8.51275">
        <ele>420.8</ele>
        <time>2023-02-12T10:46:14Z</time>
      </trkpt>
      <trkpt lat="47.09991" lon="8.51273">
        <ele>420.8</ele>
        <time>2023-02-12T10:46:15Z</time>
      </trkpt>
      <trkpt lat="47.09998" lon="8.51272">
        <ele>420.8</ele>
        <time>2023-02-12T10:46:16Z</time>
      </trkpt>
      <trkpt lat="47.10005" lon="8.5127">
        <ele>420.8</ele>
        <time>2023-02-12T10:46:17Z</time>
      </trkpt>
      <trkpt lat="47.10012" lon="8.51268">
        <ele>420.6</ele>
        <time>2023-02-12T10:46:18Z</time>
      </trkpt>
      <trkpt lat="47.10019" lon="8.51266">
        <ele>420.6</ele>
        <time>2023-02-12T10:46:19Z</time>
      </trkpt>
      <trkpt lat="47.10025" lon="8.51264">
        <ele>420.6</ele>
        <time>2023-02-12T10:46:20Z</time>
      </trkpt>
      <trkpt lat="47.10032" lon="8.51261">
        <ele>420.4</ele>
        <time>2023-02-12T10:46:21Z</time>
      </trkpt>
      <trkpt lat="47.10038" lon="8.51259">
        <ele>420.4</ele>
        <time>2023-02-12T10:46:22Z</time>
      </trkpt>
      <trkpt lat="47.10044" lon="8.51256">
        <ele>420.4</ele>
        <time>2023-02-12T10:46:23Z</time>
      </trkpt>
      <trkpt lat="47.1005" lon="8.51253">
        <ele>420.4</ele>
        <time>2023-02-12T10:46:24Z</time>
      </trkpt>
      <trkpt lat="47.10056" lon="8.51249">
        <ele>420.4</ele>
        <time>2023-02-12T10:46:25Z</time>
      </trkpt>
      <trkpt lat="47.10063" lon="8.51245">
        <ele>420.4</ele>
        <time>2023-02-12T10:46:26Z</time>
      </trkpt>
      <trkpt lat="47.10069" lon="8.51241">
        <ele>420.4</ele>
        <time>2023-02-12T10:46:27Z</time>
      </trkpt>
      <trkpt lat="47.10075" lon="8.51237">
        <ele>420.4</ele>
        <time>2023-02-12T10:46:28Z</time>
      </trkpt>
      <trkpt lat="47.10081" lon="8.51233">
        <ele>420.4</ele>
        <time>2023-02-12T10:46:29Z</time>
      </trkpt>
      <trkpt lat="47.10086" lon="8.51228">
        <ele>420.4</ele>
        <time>2023-02-12T10:46:30Z</time>
      </trkpt>
      <trkpt lat="47.10092" lon="8.51221">
        <ele>420.4</ele>
        <time>2023-02-12T10:46:31Z</time>
      </trkpt>
      <trkpt lat="47.10097" lon="8.51214">
        <ele>420.4</ele>
        <time>2023-02-12T10:46:32Z</time>
      </trkpt>
      <trkpt lat="47.10101" lon="8.51206">
        <ele>420.4</ele>
        <time>2023-02-12T10:46:33Z</time>
      </trkpt>
      <trkpt lat="47.10105" lon="8.51198">
        <ele>420.2</ele>
        <time>2023-02-12T10:46:34Z</time>
      </trkpt>
      <trkpt lat="47.10108" lon="8.5119">
        <ele>420.2</ele>
        <time>2023-02-12T10:46:35Z</time>
      </trkpt>
      <trkpt lat="47.10112" lon="8.51181">
        <ele>420.2</ele>
        <time>2023-02-12T10:46:36Z</time>
      </trkpt>
      <trkpt lat="47.10115" lon="8.51173">
        <ele>420</ele>
        <time>2023-02-12T10:46:37Z</time>
      </trkpt>
      <trkpt lat="47.10118" lon="8.51164">
        <ele>420</ele>
        <time>2023-02-12T10:46:38Z</time>
      </trkpt>
      <trkpt lat="47.10121" lon="8.51157">
        <ele>420</ele>
        <time>2023-02-12T10:46:39Z</time>
      </trkpt>
      <trkpt lat="47.10124" lon="8.51149">
        <ele>420</ele>
        <time>2023-02-12T10:46:40Z</time>
      </trkpt>
      <trkpt lat="47.10128" lon="8.51142">
        <ele>420</ele>
        <time>2023-02-12T10:46:41Z</time>
      </trkpt>
      <trkpt lat="47.10132" lon="8.51134">
        <ele>420.2</ele>
        <time>2023-02-12T10:46:42Z</time>
      </trkpt>
      <trkpt lat="47.10136" lon="8.51128">
        <ele>420.2</ele>
        <time>2023-02-12T10:46:43Z</time>
      </trkpt>
      <trkpt lat="47.1014" lon="8.51121">
        <ele>420.4</ele>
        <time>2023-02-12T10:46:44Z</time>
      </trkpt>
      <trkpt lat="47.10146" lon="8.51116">
        <ele>420.4</ele>
        <time>2023-02-12T10:46:45Z</time>
      </trkpt>
      <trkpt lat="47.10151" lon="8.5111">
        <ele>420.4</ele>
        <time>2023-02-12T10:46:46Z</time>
      </trkpt>
      <trkpt lat="47.10157" lon="8.51105">
        <ele>420.6</ele>
        <time>2023-02-12T10:46:47Z</time>
      </trkpt>
      <trkpt lat="47.10163" lon="8.51102">
        <ele>420.6</ele>
        <time>2023-02-12T10:46:48Z</time>
      </trkpt>
      <trkpt lat="47.1017" lon="8.51099">
        <ele>420.6</ele>
        <time>2023-02-12T10:46:49Z</time>
      </trkpt>
      <trkpt lat="47.10176" lon="8.51097">
        <ele>420.6</ele>
        <time>2023-02-12T10:46:50Z</time>
      </trkpt>
      <trkpt lat="47.10183" lon="8.51095">
        <ele>420.6</ele>
        <time>2023-02-12T10:46:51Z</time>
      </trkpt>
      <trkpt lat="47.10188" lon="8.51092">
        <ele>420.6</ele>
        <time>2023-02-12T10:46:52Z</time>
      </trkpt>
      <trkpt lat="47.10194" lon="8.5109">
        <ele>420.6</ele>
        <time>2023-02-12T10:46:53Z</time>
      </trkpt>
      <trkpt lat="47.102" lon="8.51089">
        <ele>420.6</ele>
        <time>2023-02-12T10:46:54Z</time>
      </trkpt>
      <trkpt lat="47.10205" lon="8.51087">
        <ele>420.8</ele>
        <time>2023-02-12T10:46:55Z</time>
      </trkpt>
      <trkpt lat="47.10211" lon="8.51084">
        <ele>421</ele>
        <time>2023-02-12T10:46:56Z</time>
      </trkpt>
      <trkpt lat="47.10217" lon="8.51082">
        <ele>421.2</ele>
        <time>2023-02-12T10:46:57Z</time>
      </trkpt>
      <trkpt lat="47.10222" lon="8.51079">
        <ele>421.4</ele>
        <time>2023-02-12T10:46:58Z</time>
      </trkpt>
      <trkpt lat="47.10228" lon="8.51076">
        <ele>421.6</ele>
        <time>2023-02-12T10:46:59Z</time>
      </trkpt>
      <trkpt lat="47.10233" lon="8.51073">
        <ele>421.6</ele>
        <time>2023-02-12T10:47:00Z</time>
      </trkpt>
      <trkpt lat="47.10238" lon="8.5107">
        <ele>422</ele>
        <time>2023-02-12T10:47:01Z</time>
      </trkpt>
      <trkpt lat="47.10244" lon="8.51067">
        <ele>422.2</ele>
        <time>2023-02-12T10:47:02Z</time>
      </trkpt>
      <trkpt lat="47.10249" lon="8.51064">
        <ele>422.4</ele>
        <time>2023-02-12T10:47:03Z</time>
      </trkpt>
      <trkpt lat="47.10254" lon="8.51061">
        <ele>422.8</ele>
        <time>2023-02-12T10:47:04Z</time>
      </trkpt>
      <trkpt lat="47.10258" lon="8.51057">
        <ele>423</ele>
        <time>2023-02-12T10:47:05Z</time>
      </trkpt>
      <trkpt lat="47.10263" lon="8.51053">
        <ele>423.2</ele>
        <time>2023-02-12T10:47:06Z</time>
      </trkpt>
      <trkpt lat="47.10267" lon="8.51048">
        <ele>423.4</ele>
        <time>2023-02-12T10:47:07Z</time>
      </trkpt>
      <trkpt lat="47.10272" lon="8.51044">
        <ele>423.6</ele>
        <time>2023-02-12T10:47:08Z</time>
      </trkpt>
      <trkpt lat="47.10277" lon="8.5104">
        <ele>423.8</ele>
        <time>2023-02-12T10:47:09Z</time>
      </trkpt>
      <trkpt lat="47.10281" lon="8.51036">
        <ele>424.2</ele>
        <time>2023-02-12T10:47:10Z</time>
      </trkpt>
      <trkpt lat="47.10286" lon="8.51032">
        <ele>424.4</ele>
        <time>2023-02-12T10:47:11Z</time>
      </trkpt>
      <trkpt lat="47.10291" lon="8.51028">
        <ele>424.6</ele>
        <time>2023-02-12T10:47:12Z</time>
      </trkpt>
      <trkpt lat="47.10295" lon="8.51023">
        <ele>424.8</ele>
        <time>2023-02-12T10:47:13Z</time>
      </trkpt>
      <trkpt lat="47.103" lon="8.51019">
        <ele>425</ele>
        <time>2023-02-12T10:47:14Z</time>
      </trkpt>
      <trkpt lat="47.10304" lon="8.51015">
        <ele>425.2</ele>
        <time>2023-02-12T10:47:15Z</time>
      </trkpt>
      <trkpt lat="47.10308" lon="8.5101">
        <ele>425.4</ele>
        <time>2023-02-12T10:47:16Z</time>
      </trkpt>
      <trkpt lat="47.10312" lon="8.51006">
        <ele>425.6</ele>
        <time>2023-02-12T10:47:17Z</time>
      </trkpt>
      <trkpt lat="47.10317" lon="8.51001">
        <ele>425.8</ele>
        <time>2023-02-12T10:47:18Z</time>
      </trkpt>
      <trkpt lat="47.10322" lon="8.50997">
        <ele>426</ele>
        <time>2023-02-12T10:47:19Z</time>
      </trkpt>
      <trkpt lat="47.10326" lon="8.50992">
        <ele>426</ele>
        <time>2023-02-12T10:47:20Z</time>
      </trkpt>
      <trkpt lat="47.1033" lon="8.50987">
        <ele>426.2</ele>
        <time>2023-02-12T10:47:21Z</time>
      </trkpt>
      <trkpt lat="47.10335" lon="8.50982">
        <ele>426.2</ele>
        <time>2023-02-12T10:47:22Z</time>
      </trkpt>
      <trkpt lat="47.1034" lon="8.50977">
        <ele>426.4</ele>
        <time>2023-02-12T10:47:23Z</time>
      </trkpt>
      <trkpt lat="47.10345" lon="8.50972">
        <ele>426.4</ele>
        <time>2023-02-12T10:47:24Z</time>
      </trkpt>
      <trkpt lat="47.1035" lon="8.50968">
        <ele>426.4</ele>
        <time>2023-02-12T10:47:25Z</time>
      </trkpt>
      <trkpt lat="47.10355" lon="8.50963">
        <ele>426.4</ele>
        <time>2023-02-12T10:47:26Z</time>
      </trkpt>
      <trkpt lat="47.10361" lon="8.50959">
        <ele>426.2</ele>
        <time>2023-02-12T10:47:27Z</time>
      </trkpt>
      <trkpt lat="47.10367" lon="8.50955">
        <ele>426.2</ele>
        <time>2023-02-12T10:47:28Z</time>
      </trkpt>
      <trkpt lat="47.10372" lon="8.5095">
        <ele>426.2</ele>
        <time>2023-02-12T10:47:29Z</time>
      </trkpt>
      <trkpt lat="47.10378" lon="8.50945">
        <ele>426.2</ele>
        <time>2023-02-12T10:47:30Z</time>
      </trkpt>
      <trkpt lat="47.10384" lon="8.50941">
        <ele>426</ele>
        <time>2023-02-12T10:47:31Z</time>
      </trkpt>
      <trkpt lat="47.10391" lon="8.50936">
        <ele>426</ele>
        <time>2023-02-12T10:47:32Z</time>
      </trkpt>
      <trkpt lat="47.10397" lon="8.50931">
        <ele>425.8</ele>
        <time>2023-02-12T10:47:33Z</time>
      </trkpt>
      <trkpt lat="47.10404" lon="8.50926">
        <ele>425.6</ele>
        <time>2023-02-12T10:47:34Z</time>
      </trkpt>
      <trkpt lat="47.1041" lon="8.5092">
        <ele>425.4</ele>
        <time>2023-02-12T10:47:35Z</time>
      </trkpt>
      <trkpt lat="47.10416" lon="8.50914">
        <ele>425.2</ele>
        <time>2023-02-12T10:47:36Z</time>
      </trkpt>
      <trkpt lat="47.10422" lon="8.50907">
        <ele>424.8</ele>
        <time>2023-02-12T10:47:37Z</time>
      </trkpt>
      <trkpt lat="47.10428" lon="8.50901">
        <ele>424.6</ele>
        <time>2023-02-12T10:47:38Z</time>
      </trkpt>
      <trkpt lat="47.10434" lon="8.50895">
        <ele>424.2</ele>
        <time>2023-02-12T10:47:39Z</time>
      </trkpt>
      <trkpt lat="47.10441" lon="8.50888">
        <ele>424</ele>
        <time>2023-02-12T10:47:40Z</time>
      </trkpt>
      <trkpt lat="47.10447" lon="8.50883">
        <ele>423.6</ele>
        <time>2023-02-12T10:47:41Z</time>
      </trkpt>
      <trkpt lat="47.10453" lon="8.50878">
        <ele>423.4</ele>
        <time>2023-02-12T10:47:42Z</time>
      </trkpt>
      <trkpt lat="47.1046" lon="8.50873">
        <ele>423</ele>
        <time>2023-02-12T10:47:43Z</time>
      </trkpt>
      <trkpt lat="47.10467" lon="8.5087">
        <ele>422.8</ele>
        <time>2023-02-12T10:47:44Z</time>
      </trkpt>
      <trkpt lat="47.10474" lon="8.50867">
        <ele>422.6</ele>
        <time>2023-02-12T10:47:45Z</time>
      </trkpt>
      <trkpt lat="47.10481" lon="8.50865">
        <ele>422.4</ele>
        <time>2023-02-12T10:47:46Z</time>
      </trkpt>
      <trkpt lat="47.10487" lon="8.50862">
        <ele>422.2</ele>
        <time>2023-02-12T10:47:47Z</time>
      </trkpt>
      <trkpt lat="47.10494" lon="8.5086">
        <ele>422.2</ele>
        <time>2023-02-12T10:47:48Z</time>
      </trkpt>
      <trkpt lat="47.105" lon="8.50858">
        <ele>422</ele>
        <time>2023-02-12T10:47:49Z</time>
      </trkpt>
      <trkpt lat="47.10506" lon="8.50856">
        <ele>422</ele>
        <time>2023-02-12T10:47:50Z</time>
      </trkpt>
      <trkpt lat="47.10512" lon="8.50854">
        <ele>422</ele>
        <time>2023-02-12T10:47:51Z</time>
      </trkpt>
      <trkpt lat="47.10519" lon="8.50854">
        <ele>421.8</ele>
        <time>2023-02-12T10:47:52Z</time>
      </trkpt>
      <trkpt lat="47.10526" lon="8.50853">
        <ele>421.8</ele>
        <time>2023-02-12T10:47:53Z</time>
      </trkpt>
      <trkpt lat="47.10534" lon="8.50852">
        <ele>421.8</ele>
        <time>2023-02-12T10:47:54Z</time>
      </trkpt>
      <trkpt lat="47.10541" lon="8.50851">
        <ele>421.6</ele>
        <time>2023-02-12T10:47:55Z</time>
      </trkpt>
      <trkpt lat="47.10549" lon="8.5085">
        <ele>421.6</ele>
        <time>2023-02-12T10:47:56Z</time>
      </trkpt>
      <trkpt lat="47.10556" lon="8.50848">
        <ele>421.4</ele>
        <time>2023-02-12T10:47:57Z</time>
      </trkpt>
      <trkpt lat="47.10564" lon="8.50847">
        <ele>421.2</ele>
        <time>2023-02-12T10:47:58Z</time>
      </trkpt>
      <trkpt lat="47.10571" lon="8.50846">
        <ele>421.2</ele>
        <time>2023-02-12T10:47:59Z</time>
      </trkpt>
      <trkpt lat="47.10579" lon="8.50845">
        <ele>421</ele>
        <time>2023-02-12T10:48:00Z</time>
      </trkpt>
      <trkpt lat="47.10586" lon="8.50842">
        <ele>420.8</ele>
        <time>2023-02-12T10:48:01Z</time>
      </trkpt>
      <trkpt lat="47.10592" lon="8.50838">
        <ele>420.6</ele>
        <time>2023-02-12T10:48:02Z</time>
      </trkpt>
      <trkpt lat="47.10599" lon="8.50834">
        <ele>420.6</ele>
        <time>2023-02-12T10:48:03Z</time>
      </trkpt>
      <trkpt lat="47.10605" lon="8.50829">
        <ele>420.4</ele>
        <time>2023-02-12T10:48:04Z</time>
      </trkpt>
      <trkpt lat="47.10611" lon="8.50824">
        <ele>420.4</ele>
        <time>2023-02-12T10:48:05Z</time>
      </trkpt>
      <trkpt lat="47.10616" lon="8.50817">
        <ele>420.4</ele>
        <time>2023-02-12T10:48:06Z</time>
      </trkpt>
      <trkpt lat="47.10621" lon="8.5081">
        <ele>420.2</ele>
        <time>2023-02-12T10:48:07Z</time>
      </trkpt>
      <trkpt lat="47.10625" lon="8.50803">
        <ele>420.2</ele>
        <time>2023-02-12T10:48:08Z</time>
      </trkpt>
      <trkpt lat="47.10629" lon="8.50795">
        <ele>420.2</ele>
        <time>2023-02-12T10:48:09Z</time>
      </trkpt>
      <trkpt lat="47.10633" lon="8.50787">
        <ele>420.2</ele>
        <time>2023-02-12T10:48:10Z</time>
      </trkpt>
      <trkpt lat="47.10635" lon="8.50778">
        <ele>420.2</ele>
        <time>2023-02-12T10:48:11Z</time>
      </trkpt>
      <trkpt lat="47.10637" lon="8.50769">
        <ele>420.2</ele>
        <time>2023-02-12T10:48:12Z</time>
      </trkpt>
      <trkpt lat="47.1064" lon="8.5076">
        <ele>420.2</ele>
        <time>2023-02-12T10:48:13Z</time>
      </trkpt>
      <trkpt lat="47.10642" lon="8.50752">
        <ele>420.2</ele>
        <time>2023-02-12T10:48:14Z</time>
      </trkpt>
      <trkpt lat="47.10644" lon="8.50744">
        <ele>420.4</ele>
        <time>2023-02-12T10:48:15Z</time>
      </trkpt>
      <trkpt lat="47.10646" lon="8.50735">
        <ele>420.4</ele>
        <time>2023-02-12T10:48:16Z</time>
      </trkpt>
      <trkpt lat="47.10647" lon="8.50727">
        <ele>420.4</ele>
        <time>2023-02-12T10:48:17Z</time>
      </trkpt>
      <trkpt lat="47.10649" lon="8.50718">
        <ele>420.6</ele>
        <time>2023-02-12T10:48:18Z</time>
      </trkpt>
      <trkpt lat="47.10652" lon="8.50709">
        <ele>420.8</ele>
        <time>2023-02-12T10:48:19Z</time>
      </trkpt>
      <trkpt lat="47.10654" lon="8.50701">
        <ele>421</ele>
        <time>2023-02-12T10:48:20Z</time>
      </trkpt>
      <trkpt lat="47.10656" lon="8.50694">
        <ele>421</ele>
        <time>2023-02-12T10:48:21Z</time>
      </trkpt>
      <trkpt lat="47.10659" lon="8.50685">
        <ele>421.2</ele>
        <time>2023-02-12T10:48:22Z</time>
      </trkpt>
      <trkpt lat="47.10661" lon="8.50676">
        <ele>421.4</ele>
        <time>2023-02-12T10:48:23Z</time>
      </trkpt>
      <trkpt lat="47.10663" lon="8.50668">
        <ele>421.4</ele>
        <time>2023-02-12T10:48:24Z</time>
      </trkpt>
      <trkpt lat="47.10666" lon="8.50659">
        <ele>421.4</ele>
        <time>2023-02-12T10:48:25Z</time>
      </trkpt>
      <trkpt lat="47.10669" lon="8.50651">
        <ele>421.6</ele>
        <time>2023-02-12T10:48:26Z</time>
      </trkpt>
      <trkpt lat="47.10673" lon="8.50643">
        <ele>421.6</ele>
        <time>2023-02-12T10:48:27Z</time>
      </trkpt>
      <trkpt lat="47.10676" lon="8.50636">
        <ele>421.6</ele>
        <time>2023-02-12T10:48:28Z</time>
      </trkpt>
      <trkpt lat="47.10681" lon="8.50629">
        <ele>421.6</ele>
        <time>2023-02-12T10:48:29Z</time>
      </trkpt>
      <trkpt lat="47.10685" lon="8.50622">
        <ele>421.6</ele>
        <time>2023-02-12T10:48:30Z</time>
      </trkpt>
      <trkpt lat="47.10691" lon="8.50615">
        <ele>421.6</ele>
        <time>2023-02-12T10:48:31Z</time>
      </trkpt>
      <trkpt lat="47.10696" lon="8.5061">
        <ele>421.4</ele>
        <time>2023-02-12T10:48:32Z</time>
      </trkpt>
      <trkpt lat="47.10702" lon="8.50605">
        <ele>421.4</ele>
        <time>2023-02-12T10:48:33Z</time>
      </trkpt>
      <trkpt lat="47.10708" lon="8.506">
        <ele>421.4</ele>
        <time>2023-02-12T10:48:34Z</time>
      </trkpt>
      <trkpt lat="47.10714" lon="8.50596">
        <ele>421.2</ele>
        <time>2023-02-12T10:48:35Z</time>
      </trkpt>
      <trkpt lat="47.1072" lon="8.50592">
        <ele>421.2</ele>
        <time>2023-02-12T10:48:36Z</time>
      </trkpt>
      <trkpt lat="47.10726" lon="8.50588">
        <ele>421.2</ele>
        <time>2023-02-12T10:48:37Z</time>
      </trkpt>
      <trkpt lat="47.10732" lon="8.50584">
        <ele>421</ele>
        <time>2023-02-12T10:48:38Z</time>
      </trkpt>
      <trkpt lat="47.10738" lon="8.50579">
        <ele>421</ele>
        <time>2023-02-12T10:48:39Z</time>
      </trkpt>
      <trkpt lat="47.10744" lon="8.50574">
        <ele>420.8</ele>
        <time>2023-02-12T10:48:40Z</time>
      </trkpt>
      <trkpt lat="47.1075" lon="8.50568">
        <ele>420.8</ele>
        <time>2023-02-12T10:48:41Z</time>
      </trkpt>
      <trkpt lat="47.10755" lon="8.50562">
        <ele>420.8</ele>
        <time>2023-02-12T10:48:42Z</time>
      </trkpt>
      <trkpt lat="47.1076" lon="8.50556">
        <ele>420.8</ele>
        <time>2023-02-12T10:48:43Z</time>
      </trkpt>
      <trkpt lat="47.10765" lon="8.50548">
        <ele>420.6</ele>
        <time>2023-02-12T10:48:44Z</time>
      </trkpt>
      <trkpt lat="47.10769" lon="8.50541">
        <ele>420.6</ele>
        <time>2023-02-12T10:48:45Z</time>
      </trkpt>
      <trkpt lat="47.10773" lon="8.50533">
        <ele>420.6</ele>
        <time>2023-02-12T10:48:46Z</time>
      </trkpt>
      <trkpt lat="47.10776" lon="8.50524">
        <ele>420.4</ele>
        <time>2023-02-12T10:48:47Z</time>
      </trkpt>
      <trkpt lat="47.10779" lon="8.50516">
        <ele>420.4</ele>
        <time>2023-02-12T10:48:48Z</time>
      </trkpt>
      <trkpt lat="47.10782" lon="8.50508">
        <ele>420.4</ele>
        <time>2023-02-12T10:48:49Z</time>
      </trkpt>
      <trkpt lat="47.10784" lon="8.50499">
        <ele>420.2</ele>
        <time>2023-02-12T10:48:50Z</time>
      </trkpt>
      <trkpt lat="47.10786" lon="8.50491">
        <ele>420.2</ele>
        <time>2023-02-12T10:48:51Z</time>
      </trkpt>
      <trkpt lat="47.10789" lon="8.50482">
        <ele>420.2</ele>
        <time>2023-02-12T10:48:52Z</time>
      </trkpt>
      <trkpt lat="47.10791" lon="8.50473">
        <ele>420.2</ele>
        <time>2023-02-12T10:48:53Z</time>
      </trkpt>
      <trkpt lat="47.10793" lon="8.50464">
        <ele>420</ele>
        <time>2023-02-12T10:48:54Z</time>
      </trkpt>
      <trkpt lat="47.10796" lon="8.50456">
        <ele>420</ele>
        <time>2023-02-12T10:48:55Z</time>
      </trkpt>
      <trkpt lat="47.10798" lon="8.50448">
        <ele>420</ele>
        <time>2023-02-12T10:48:56Z</time>
      </trkpt>
      <trkpt lat="47.10801" lon="8.5044">
        <ele>420</ele>
        <time>2023-02-12T10:48:57Z</time>
      </trkpt>
      <trkpt lat="47.10803" lon="8.50432">
        <ele>420</ele>
        <time>2023-02-12T10:48:58Z</time>
      </trkpt>
      <trkpt lat="47.10806" lon="8.50424">
        <ele>420</ele>
        <time>2023-02-12T10:48:59Z</time>
      </trkpt>
      <trkpt lat="47.10809" lon="8.50416">
        <ele>420</ele>
        <time>2023-02-12T10:49:00Z</time>
      </trkpt>
      <trkpt lat="47.10813" lon="8.50409">
        <ele>420</ele>
        <time>2023-02-12T10:49:01Z</time>
      </trkpt>
      <trkpt lat="47.10816" lon="8.504">
        <ele>420.2</ele>
        <time>2023-02-12T10:49:02Z</time>
      </trkpt>
      <trkpt lat="47.1082" lon="8.50394">
        <ele>420.2</ele>
        <time>2023-02-12T10:49:03Z</time>
      </trkpt>
      <trkpt lat="47.10824" lon="8.50387">
        <ele>420.2</ele>
        <time>2023-02-12T10:49:04Z</time>
      </trkpt>
      <trkpt lat="47.10829" lon="8.50382">
        <ele>420.2</ele>
        <time>2023-02-12T10:49:05Z</time>
      </trkpt>
      <trkpt lat="47.10834" lon="8.50377">
        <ele>420.4</ele>
        <time>2023-02-12T10:49:06Z</time>
      </trkpt>
      <trkpt lat="47.10839" lon="8.50372">
        <ele>420.6</ele>
        <time>2023-02-12T10:49:07Z</time>
      </trkpt>
      <trkpt lat="47.10844" lon="8.50368">
        <ele>420.6</ele>
        <time>2023-02-12T10:49:08Z</time>
      </trkpt>
      <trkpt lat="47.1085" lon="8.50364">
        <ele>420.6</ele>
        <time>2023-02-12T10:49:09Z</time>
      </trkpt>
      <trkpt lat="47.10855" lon="8.50359">
        <ele>420.8</ele>
        <time>2023-02-12T10:49:10Z</time>
      </trkpt>
      <trkpt lat="47.10861" lon="8.50355">
        <ele>420.8</ele>
        <time>2023-02-12T10:49:11Z</time>
      </trkpt>
      <trkpt lat="47.10867" lon="8.50352">
        <ele>421</ele>
        <time>2023-02-12T10:49:12Z</time>
      </trkpt>
      <trkpt lat="47.10873" lon="8.50348">
        <ele>421</ele>
        <time>2023-02-12T10:49:13Z</time>
      </trkpt>
      <trkpt lat="47.10879" lon="8.50345">
        <ele>421</ele>
        <time>2023-02-12T10:49:14Z</time>
      </trkpt>
      <trkpt lat="47.10884" lon="8.50341">
        <ele>421</ele>
        <time>2023-02-12T10:49:15Z</time>
      </trkpt>
      <trkpt lat="47.1089" lon="8.50337">
        <ele>421.2</ele>
        <time>2023-02-12T10:49:16Z</time>
      </trkpt>
      <trkpt lat="47.10896" lon="8.50333">
        <ele>421.2</ele>
        <time>2023-02-12T10:49:17Z</time>
      </trkpt>
      <trkpt lat="47.10902" lon="8.5033">
        <ele>421.2</ele>
        <time>2023-02-12T10:49:18Z</time>
      </trkpt>
      <trkpt lat="47.10908" lon="8.50326">
        <ele>421.2</ele>
        <time>2023-02-12T10:49:19Z</time>
      </trkpt>
      <trkpt lat="47.10913" lon="8.50323">
        <ele>421.2</ele>
        <time>2023-02-12T10:49:20Z</time>
      </trkpt>
      <trkpt lat="47.10919" lon="8.50319">
        <ele>421.2</ele>
        <time>2023-02-12T10:49:21Z</time>
      </trkpt>
      <trkpt lat="47.10925" lon="8.50316">
        <ele>421</ele>
        <time>2023-02-12T10:49:22Z</time>
      </trkpt>
      <trkpt lat="47.10931" lon="8.50312">
        <ele>421</ele>
        <time>2023-02-12T10:49:23Z</time>
      </trkpt>
      <trkpt lat="47.10937" lon="8.50309">
        <ele>421</ele>
        <time>2023-02-12T10:49:24Z</time>
      </trkpt>
      <trkpt lat="47.10943" lon="8.50305">
        <ele>421</ele>
        <time>2023-02-12T10:49:25Z</time>
      </trkpt>
      <trkpt lat="47.10948" lon="8.50301">
        <ele>420.8</ele>
        <time>2023-02-12T10:49:26Z</time>
      </trkpt>
      <trkpt lat="47.10953" lon="8.50298">
        <ele>420.8</ele>
        <time>2023-02-12T10:49:27Z</time>
      </trkpt>
      <trkpt lat="47.10957" lon="8.50295">
        <ele>420.8</ele>
        <time>2023-02-12T10:49:28Z</time>
      </trkpt>
      <trkpt lat="47.1096" lon="8.50292">
        <ele>420.6</ele>
        <time>2023-02-12T10:49:29Z</time>
      </trkpt>
      <trkpt lat="47.10963" lon="8.50289">
        <ele>420.6</ele>
        <time>2023-02-12T10:49:30Z</time>
      </trkpt>
      <trkpt lat="47.10967" lon="8.50286">
        <ele>420.6</ele>
        <time>2023-02-12T10:49:31Z</time>
      </trkpt>
      <trkpt lat="47.10971" lon="8.50283">
        <ele>420.4</ele>
        <time>2023-02-12T10:49:32Z</time>
      </trkpt>
      <trkpt lat="47.10975" lon="8.5028">
        <ele>420.4</ele>
        <time>2023-02-12T10:49:33Z</time>
      </trkpt>
      <trkpt lat="47.1098" lon="8.50277">
        <ele>420.4</ele>
        <time>2023-02-12T10:49:34Z</time>
      </trkpt>
      <trkpt lat="47.10985" lon="8.50274">
        <ele>420.4</ele>
        <time>2023-02-12T10:49:35Z</time>
      </trkpt>
      <trkpt lat="47.1099" lon="8.5027">
        <ele>420.4</ele>
        <time>2023-02-12T10:49:36Z</time>
      </trkpt>
      <trkpt lat="47.10994" lon="8.50268">
        <ele>420.6</ele>
        <time>2023-02-12T10:49:37Z</time>
      </trkpt>
      <trkpt lat="47.10999" lon="8.50265">
        <ele>420.6</ele>
        <time>2023-02-12T10:49:38Z</time>
      </trkpt>
      <trkpt lat="47.11003" lon="8.50264">
        <ele>420.6</ele>
        <time>2023-02-12T10:49:39Z</time>
      </trkpt>
      <trkpt lat="47.11009" lon="8.50263">
        <ele>420.6</ele>
        <time>2023-02-12T10:49:40Z</time>
      </trkpt>
      <trkpt lat="47.11014" lon="8.50262">
        <ele>420.6</ele>
        <time>2023-02-12T10:49:41Z</time>
      </trkpt>
      <trkpt lat="47.11019" lon="8.50261">
        <ele>420.6</ele>
        <time>2023-02-12T10:49:42Z</time>
      </trkpt>
      <trkpt lat="47.11024" lon="8.50261">
        <ele>420.6</ele>
        <time>2023-02-12T10:49:43Z</time>
      </trkpt>
      <trkpt lat="47.1103" lon="8.50262">
        <ele>420.6</ele>
        <time>2023-02-12T10:49:44Z</time>
      </trkpt>
      <trkpt lat="47.11035" lon="8.50261">
        <ele>420.6</ele>
        <time>2023-02-12T10:49:45Z</time>
      </trkpt>
      <trkpt lat="47.11041" lon="8.50262">
        <ele>420.4</ele>
        <time>2023-02-12T10:49:46Z</time>
      </trkpt>
      <trkpt lat="47.11047" lon="8.50261">
        <ele>420.4</ele>
        <time>2023-02-12T10:49:47Z</time>
      </trkpt>
      <trkpt lat="47.11053" lon="8.5026">
        <ele>420.4</ele>
        <time>2023-02-12T10:49:48Z</time>
      </trkpt>
      <trkpt lat="47.11059" lon="8.5026">
        <ele>420.4</ele>
        <time>2023-02-12T10:49:49Z</time>
      </trkpt>
      <trkpt lat="47.11065" lon="8.5026">
        <ele>420.6</ele>
        <time>2023-02-12T10:49:50Z</time>
      </trkpt>
      <trkpt lat="47.1107" lon="8.50259">
        <ele>420.6</ele>
        <time>2023-02-12T10:49:51Z</time>
      </trkpt>
      <trkpt lat="47.11076" lon="8.50258">
        <ele>420.6</ele>
        <time>2023-02-12T10:49:52Z</time>
      </trkpt>
      <trkpt lat="47.11082" lon="8.50257">
        <ele>420.6</ele>
        <time>2023-02-12T10:49:53Z</time>
      </trkpt>
      <trkpt lat="47.11088" lon="8.50256">
        <ele>420.6</ele>
        <time>2023-02-12T10:49:54Z</time>
      </trkpt>
      <trkpt lat="47.11094" lon="8.50254">
        <ele>420.6</ele>
        <time>2023-02-12T10:49:55Z</time>
      </trkpt>
      <trkpt lat="47.111" lon="8.50252">
        <ele>420.4</ele>
        <time>2023-02-12T10:49:56Z</time>
      </trkpt>
      <trkpt lat="47.11106" lon="8.5025">
        <ele>420.4</ele>
        <time>2023-02-12T10:49:57Z</time>
      </trkpt>
      <trkpt lat="47.11111" lon="8.50247">
        <ele>420.4</ele>
        <time>2023-02-12T10:49:58Z</time>
      </trkpt>
      <trkpt lat="47.11116" lon="8.50244">
        <ele>420.4</ele>
        <time>2023-02-12T10:49:59Z</time>
      </trkpt>
      <trkpt lat="47.1112" lon="8.5024">
        <ele>420.6</ele>
        <time>2023-02-12T10:50:00Z</time>
      </trkpt>
      <trkpt lat="47.11125" lon="8.50235">
        <ele>420.6</ele>
        <time>2023-02-12T10:50:01Z</time>
      </trkpt>
      <trkpt lat="47.1113" lon="8.50231">
        <ele>420.6</ele>
        <time>2023-02-12T10:50:02Z</time>
      </trkpt>
      <trkpt lat="47.11135" lon="8.50226">
        <ele>420.6</ele>
        <time>2023-02-12T10:50:03Z</time>
      </trkpt>
      <trkpt lat="47.11139" lon="8.50221">
        <ele>420.6</ele>
        <time>2023-02-12T10:50:04Z</time>
      </trkpt>
      <trkpt lat="47.11144" lon="8.50216">
        <ele>420.6</ele>
        <time>2023-02-12T10:50:05Z</time>
      </trkpt>
      <trkpt lat="47.11148" lon="8.50212">
        <ele>420.8</ele>
        <time>2023-02-12T10:50:06Z</time>
      </trkpt>
      <trkpt lat="47.11152" lon="8.50207">
        <ele>420.8</ele>
        <time>2023-02-12T10:50:07Z</time>
      </trkpt>
      <trkpt lat="47.11157" lon="8.50202">
        <ele>420.8</ele>
        <time>2023-02-12T10:50:08Z</time>
      </trkpt>
      <trkpt lat="47.11161" lon="8.50197">
        <ele>420.8</ele>
        <time>2023-02-12T10:50:09Z</time>
      </trkpt>
      <trkpt lat="47.11165" lon="8.50192">
        <ele>420.8</ele>
        <time>2023-02-12T10:50:10Z</time>
      </trkpt>
      <trkpt lat="47.1117" lon="8.50187">
        <ele>421</ele>
        <time>2023-02-12T10:50:11Z</time>
      </trkpt>
      <trkpt lat="47.11175" lon="8.50183">
        <ele>421</ele>
        <time>2023-02-12T10:50:12Z</time>
      </trkpt>
      <trkpt lat="47.11179" lon="8.50178">
        <ele>421</ele>
        <time>2023-02-12T10:50:13Z</time>
      </trkpt>
      <trkpt lat="47.11184" lon="8.50174">
        <ele>421</ele>
        <time>2023-02-12T10:50:14Z</time>
      </trkpt>
      <trkpt lat="47.11188" lon="8.5017">
        <ele>421</ele>
        <time>2023-02-12T10:50:15Z</time>
      </trkpt>
      <trkpt lat="47.11193" lon="8.50167">
        <ele>421.2</ele>
        <time>2023-02-12T10:50:16Z</time>
      </trkpt>
      <trkpt lat="47.11198" lon="8.50164">
        <ele>421.2</ele>
        <time>2023-02-12T10:50:17Z</time>
      </trkpt>
      <trkpt lat="47.11203" lon="8.50161">
        <ele>421.2</ele>
        <time>2023-02-12T10:50:18Z</time>
      </trkpt>
      <trkpt lat="47.11209" lon="8.50158">
        <ele>421.4</ele>
        <time>2023-02-12T10:50:19Z</time>
      </trkpt>
      <trkpt lat="47.11214" lon="8.50156">
        <ele>421.4</ele>
        <time>2023-02-12T10:50:20Z</time>
      </trkpt>
      <trkpt lat="47.11219" lon="8.50153">
        <ele>421.6</ele>
        <time>2023-02-12T10:50:21Z</time>
      </trkpt>
      <trkpt lat="47.11224" lon="8.50151">
        <ele>421.6</ele>
        <time>2023-02-12T10:50:22Z</time>
      </trkpt>
      <trkpt lat="47.1123" lon="8.50149">
        <ele>421.6</ele>
        <time>2023-02-12T10:50:23Z</time>
      </trkpt>
      <trkpt lat="47.11235" lon="8.50146">
        <ele>421.8</ele>
        <time>2023-02-12T10:50:24Z</time>
      </trkpt>
      <trkpt lat="47.11241" lon="8.50144">
        <ele>421.8</ele>
        <time>2023-02-12T10:50:25Z</time>
      </trkpt>
      <trkpt lat="47.11246" lon="8.50141">
        <ele>421.8</ele>
        <time>2023-02-12T10:50:26Z</time>
      </trkpt>
      <trkpt lat="47.11251" lon="8.50138">
        <ele>421.8</ele>
        <time>2023-02-12T10:50:27Z</time>
      </trkpt>
      <trkpt lat="47.11256" lon="8.50136">
        <ele>421.8</ele>
        <time>2023-02-12T10:50:28Z</time>
      </trkpt>
      <trkpt lat="47.11262" lon="8.50133">
        <ele>421.8</ele>
        <time>2023-02-12T10:50:29Z</time>
      </trkpt>
      <trkpt lat="47.11267" lon="8.50131">
        <ele>421.8</ele>
        <time>2023-02-12T10:50:30Z</time>
      </trkpt>
      <trkpt lat="47.11272" lon="8.50129">
        <ele>421.8</ele>
        <time>2023-02-12T10:50:31Z</time>
      </trkpt>
      <trkpt lat="47.11278" lon="8.50127">
        <ele>421.8</ele>
        <time>2023-02-12T10:50:32Z</time>
      </trkpt>
      <trkpt lat="47.11283" lon="8.50125">
        <ele>421.8</ele>
        <time>2023-02-12T10:50:33Z</time>
      </trkpt>
      <trkpt lat="47.11288" lon="8.50123">
        <ele>421.8</ele>
        <time>2023-02-12T10:50:34Z</time>
      </trkpt>
      <trkpt lat="47.11294" lon="8.50122">
        <ele>421.8</ele>
        <time>2023-02-12T10:50:35Z</time>
      </trkpt>
      <trkpt lat="47.11299" lon="8.5012">
        <ele>421.8</ele>
        <time>2023-02-12T10:50:36Z</time>
      </trkpt>
      <trkpt lat="47.11305" lon="8.50117">
        <ele>422</ele>
        <time>2023-02-12T10:50:37Z</time>
      </trkpt>
      <trkpt lat="47.1131" lon="8.50115">
        <ele>422</ele>
        <time>2023-02-12T10:50:38Z</time>
      </trkpt>
      <trkpt lat="47.11316" lon="8.50112">
        <ele>422.2</ele>
        <time>2023-02-12T10:50:39Z</time>
      </trkpt>
      <trkpt lat="47.11321" lon="8.5011">
        <ele>422.2</ele>
        <time>2023-02-12T10:50:40Z</time>
      </trkpt>
      <trkpt lat="47.11327" lon="8.50108">
        <ele>422.2</ele>
        <time>2023-02-12T10:50:41Z</time>
      </trkpt>
      <trkpt lat="47.11332" lon="8.50105">
        <ele>422.4</ele>
        <time>2023-02-12T10:50:42Z</time>
      </trkpt>
      <trkpt lat="47.11337" lon="8.50103">
        <ele>422.4</ele>
        <time>2023-02-12T10:50:43Z</time>
      </trkpt>
      <trkpt lat="47.11343" lon="8.50101">
        <ele>422.4</ele>
        <time>2023-02-12T10:50:44Z</time>
      </trkpt>
      <trkpt lat="47.11349" lon="8.50098">
        <ele>422.4</ele>
        <time>2023-02-12T10:50:45Z</time>
      </trkpt>
      <trkpt lat="47.11354" lon="8.50096">
        <ele>422.2</ele>
        <time>2023-02-12T10:50:46Z</time>
      </trkpt>
      <trkpt lat="47.1136" lon="8.50094">
        <ele>422.2</ele>
        <time>2023-02-12T10:50:47Z</time>
      </trkpt>
      <trkpt lat="47.11365" lon="8.50092">
        <ele>422.2</ele>
        <time>2023-02-12T10:50:48Z</time>
      </trkpt>
      <trkpt lat="47.11371" lon="8.50089">
        <ele>422.2</ele>
        <time>2023-02-12T10:50:49Z</time>
      </trkpt>
      <trkpt lat="47.11376" lon="8.50087">
        <ele>422.2</ele>
        <time>2023-02-12T10:50:50Z</time>
      </trkpt>
      <trkpt lat="47.11382" lon="8.50084">
        <ele>422.2</ele>
        <time>2023-02-12T10:50:51Z</time>
      </trkpt>
      <trkpt lat="47.11387" lon="8.50082">
        <ele>422.2</ele>
        <time>2023-02-12T10:50:52Z</time>
      </trkpt>
      <trkpt lat="47.11393" lon="8.50079">
        <ele>422</ele>
        <time>2023-02-12T10:50:53Z</time>
      </trkpt>
      <trkpt lat="47.11398" lon="8.50077">
        <ele>422</ele>
        <time>2023-02-12T10:50:54Z</time>
      </trkpt>
      <trkpt lat="47.11404" lon="8.50074">
        <ele>422</ele>
        <time>2023-02-12T10:50:55Z</time>
      </trkpt>
      <trkpt lat="47.11409" lon="8.50072">
        <ele>422</ele>
        <time>2023-02-12T10:50:56Z</time>
      </trkpt>
      <trkpt lat="47.11414" lon="8.50069">
        <ele>422</ele>
        <time>2023-02-12T10:50:57Z</time>
      </trkpt>
      <trkpt lat="47.11419" lon="8.50066">
        <ele>422</ele>
        <time>2023-02-12T10:50:58Z</time>
      </trkpt>
      <trkpt lat="47.11424" lon="8.50064">
        <ele>422</ele>
        <time>2023-02-12T10:50:59Z</time>
      </trkpt>
      <trkpt lat="47.11429" lon="8.5006">
        <ele>422</ele>
        <time>2023-02-12T10:51:00Z</time>
      </trkpt>
      <trkpt lat="47.11434" lon="8.50057">
        <ele>422</ele>
        <time>2023-02-12T10:51:01Z</time>
      </trkpt>
      <trkpt lat="47.11439" lon="8.50054">
        <ele>421.8</ele>
        <time>2023-02-12T10:51:02Z</time>
      </trkpt>
      <trkpt lat="47.11444" lon="8.50051">
        <ele>421.8</ele>
        <time>2023-02-12T10:51:03Z</time>
      </trkpt>
      <trkpt lat="47.11449" lon="8.50047">
        <ele>422</ele>
        <time>2023-02-12T10:51:04Z</time>
      </trkpt>
      <trkpt lat="47.11454" lon="8.50044">
        <ele>422</ele>
        <time>2023-02-12T10:51:05Z</time>
      </trkpt>
      <trkpt lat="47.11458" lon="8.5004">
        <ele>422</ele>
        <time>2023-02-12T10:51:06Z</time>
      </trkpt>
      <trkpt lat="47.11464" lon="8.50037">
        <ele>422</ele>
        <time>2023-02-12T10:51:07Z</time>
      </trkpt>
      <trkpt lat="47.11469" lon="8.50032">
        <ele>422.2</ele>
        <time>2023-02-12T10:51:08Z</time>
      </trkpt>
      <trkpt lat="47.11474" lon="8.50028">
        <ele>422.2</ele>
        <time>2023-02-12T10:51:09Z</time>
      </trkpt>
      <trkpt lat="47.1148" lon="8.50024">
        <ele>422.2</ele>
        <time>2023-02-12T10:51:10Z</time>
      </trkpt>
      <trkpt lat="47.11484" lon="8.5002">
        <ele>422.4</ele>
        <time>2023-02-12T10:51:11Z</time>
      </trkpt>
      <trkpt lat="47.11489" lon="8.50016">
        <ele>422.4</ele>
        <time>2023-02-12T10:51:12Z</time>
      </trkpt>
      <trkpt lat="47.11493" lon="8.50013">
        <ele>422.6</ele>
        <time>2023-02-12T10:51:13Z</time>
      </trkpt>
      <trkpt lat="47.11497" lon="8.50009">
        <ele>422.6</ele>
        <time>2023-02-12T10:51:14Z</time>
      </trkpt>
      <trkpt lat="47.11502" lon="8.50006">
        <ele>422.6</ele>
        <time>2023-02-12T10:51:15Z</time>
      </trkpt>
      <trkpt lat="47.11506" lon="8.50003">
        <ele>422.8</ele>
        <time>2023-02-12T10:51:16Z</time>
      </trkpt>
      <trkpt lat="47.1151" lon="8.5">
        <ele>423</ele>
        <time>2023-02-12T10:51:17Z</time>
      </trkpt>
      <trkpt lat="47.11515" lon="8.49998">
        <ele>423</ele>
        <time>2023-02-12T10:51:18Z</time>
      </trkpt>
      <trkpt lat="47.1152" lon="8.49995">
        <ele>423.2</ele>
        <time>2023-02-12T10:51:19Z</time>
      </trkpt>
      <trkpt lat="47.11526" lon="8.49992">
        <ele>423.2</ele>
        <time>2023-02-12T10:51:20Z</time>
      </trkpt>
      <trkpt lat="47.11532" lon="8.4999">
        <ele>423.4</ele>
        <time>2023-02-12T10:51:21Z</time>
      </trkpt>
      <trkpt lat="47.11538" lon="8.49987">
        <ele>423.6</ele>
        <time>2023-02-12T10:51:22Z</time>
      </trkpt>
      <trkpt lat="47.11543" lon="8.49985">
        <ele>423.6</ele>
        <time>2023-02-12T10:51:23Z</time>
      </trkpt>
      <trkpt lat="47.11549" lon="8.49984">
        <ele>423.8</ele>
        <time>2023-02-12T10:51:24Z</time>
      </trkpt>
      <trkpt lat="47.11555" lon="8.49982">
        <ele>424</ele>
        <time>2023-02-12T10:51:25Z</time>
      </trkpt>
      <trkpt lat="47.1156" lon="8.49981">
        <ele>424</ele>
        <time>2023-02-12T10:51:26Z</time>
      </trkpt>
      <trkpt lat="47.11566" lon="8.49981">
        <ele>424</ele>
        <time>2023-02-12T10:51:27Z</time>
      </trkpt>
      <trkpt lat="47.11571" lon="8.4998">
        <ele>424.2</ele>
        <time>2023-02-12T10:51:28Z</time>
      </trkpt>
      <trkpt lat="47.11577" lon="8.4998">
        <ele>424.4</ele>
        <time>2023-02-12T10:51:29Z</time>
      </trkpt>
      <trkpt lat="47.11583" lon="8.49979">
        <ele>424.4</ele>
        <time>2023-02-12T10:51:30Z</time>
      </trkpt>
      <trkpt lat="47.11589" lon="8.49978">
        <ele>424.4</ele>
        <time>2023-02-12T10:51:31Z</time>
      </trkpt>
      <trkpt lat="47.11594" lon="8.49978">
        <ele>424.6</ele>
        <time>2023-02-12T10:51:32Z</time>
      </trkpt>
      <trkpt lat="47.116" lon="8.49977">
        <ele>424.6</ele>
        <time>2023-02-12T10:51:33Z</time>
      </trkpt>
      <trkpt lat="47.11606" lon="8.49976">
        <ele>424.6</ele>
        <time>2023-02-12T10:51:34Z</time>
      </trkpt>
      <trkpt lat="47.11612" lon="8.49976">
        <ele>424.8</ele>
        <time>2023-02-12T10:51:35Z</time>
      </trkpt>
      <trkpt lat="47.11618" lon="8.49975">
        <ele>424.8</ele>
        <time>2023-02-12T10:51:36Z</time>
      </trkpt>
      <trkpt lat="47.11623" lon="8.49974">
        <ele>424.8</ele>
        <time>2023-02-12T10:51:37Z</time>
      </trkpt>
      <trkpt lat="47.11629" lon="8.49974">
        <ele>424.8</ele>
        <time>2023-02-12T10:51:38Z</time>
      </trkpt>
      <trkpt lat="47.11636" lon="8.49973">
        <ele>424.8</ele>
        <time>2023-02-12T10:51:39Z</time>
      </trkpt>
      <trkpt lat="47.11642" lon="8.49972">
        <ele>424.6</ele>
        <time>2023-02-12T10:51:40Z</time>
      </trkpt>
      <trkpt lat="47.11648" lon="8.49971">
        <ele>424.6</ele>
        <time>2023-02-12T10:51:41Z</time>
      </trkpt>
      <trkpt lat="47.11655" lon="8.4997">
        <ele>424.6</ele>
        <time>2023-02-12T10:51:42Z</time>
      </trkpt>
      <trkpt lat="47.11661" lon="8.49969">
        <ele>424.6</ele>
        <time>2023-02-12T10:51:43Z</time>
      </trkpt>
      <trkpt lat="47.11666" lon="8.49969">
        <ele>424.6</ele>
        <time>2023-02-12T10:51:44Z</time>
      </trkpt>
      <trkpt lat="47.11673" lon="8.49967">
        <ele>424.6</ele>
        <time>2023-02-12T10:51:45Z</time>
      </trkpt>
      <trkpt lat="47.11679" lon="8.49964">
        <ele>424.6</ele>
        <time>2023-02-12T10:51:46Z</time>
      </trkpt>
      <trkpt lat="47.11685" lon="8.49961">
        <ele>424.6</ele>
        <time>2023-02-12T10:51:47Z</time>
      </trkpt>
      <trkpt lat="47.1169" lon="8.49956">
        <ele>424.6</ele>
        <time>2023-02-12T10:51:48Z</time>
      </trkpt>
      <trkpt lat="47.11695" lon="8.49951">
        <ele>424.6</ele>
        <time>2023-02-12T10:51:49Z</time>
      </trkpt>
      <trkpt lat="47.117" lon="8.49946">
        <ele>424.8</ele>
        <time>2023-02-12T10:51:50Z</time>
      </trkpt>
      <trkpt lat="47.11705" lon="8.4994">
        <ele>424.8</ele>
        <time>2023-02-12T10:51:51Z</time>
      </trkpt>
      <trkpt lat="47.11709" lon="8.49934">
        <ele>424.8</ele>
        <time>2023-02-12T10:51:52Z</time>
      </trkpt>
      <trkpt lat="47.11713" lon="8.49928">
        <ele>424.8</ele>
        <time>2023-02-12T10:51:53Z</time>
      </trkpt>
      <trkpt lat="47.11718" lon="8.49921">
        <ele>424.8</ele>
        <time>2023-02-12T10:51:54Z</time>
      </trkpt>
      <trkpt lat="47.11722" lon="8.49915">
        <ele>424.8</ele>
        <time>2023-02-12T10:51:55Z</time>
      </trkpt>
      <trkpt lat="47.11726" lon="8.49909">
        <ele>424.8</ele>
        <time>2023-02-12T10:51:56Z</time>
      </trkpt>
      <trkpt lat="47.1173" lon="8.49902">
        <ele>424.8</ele>
        <time>2023-02-12T10:51:57Z</time>
      </trkpt>
      <trkpt lat="47.11734" lon="8.49896">
        <ele>424.8</ele>
        <time>2023-02-12T10:51:58Z</time>
      </trkpt>
      <trkpt lat="47.11738" lon="8.49889">
        <ele>425</ele>
        <time>2023-02-12T10:51:59Z</time>
      </trkpt>
      <trkpt lat="47.11742" lon="8.49883">
        <ele>425</ele>
        <time>2023-02-12T10:52:00Z</time>
      </trkpt>
      <trkpt lat="47.11746" lon="8.49877">
        <ele>425</ele>
        <time>2023-02-12T10:52:01Z</time>
      </trkpt>
      <trkpt lat="47.1175" lon="8.49871">
        <ele>425</ele>
        <time>2023-02-12T10:52:02Z</time>
      </trkpt>
      <trkpt lat="47.11753" lon="8.49866">
        <ele>425</ele>
        <time>2023-02-12T10:52:03Z</time>
      </trkpt>
      <trkpt lat="47.11757" lon="8.4986">
        <ele>425</ele>
        <time>2023-02-12T10:52:04Z</time>
      </trkpt>
      <trkpt lat="47.1176" lon="8.49855">
        <ele>425</ele>
        <time>2023-02-12T10:52:05Z</time>
      </trkpt>
      <trkpt lat="47.11762" lon="8.4985">
        <ele>425.2</ele>
        <time>2023-02-12T10:52:06Z</time>
      </trkpt>
      <trkpt lat="47.11765" lon="8.49844">
        <ele>425.2</ele>
        <time>2023-02-12T10:52:07Z</time>
      </trkpt>
      <trkpt lat="47.11767" lon="8.49838">
        <ele>425.2</ele>
        <time>2023-02-12T10:52:08Z</time>
      </trkpt>
      <trkpt lat="47.11769" lon="8.49832">
        <ele>425.2</ele>
        <time>2023-02-12T10:52:09Z</time>
      </trkpt>
      <trkpt lat="47.11772" lon="8.49825">
        <ele>425.2</ele>
        <time>2023-02-12T10:52:10Z</time>
      </trkpt>
      <trkpt lat="47.11775" lon="8.49818">
        <ele>425.2</ele>
        <time>2023-02-12T10:52:11Z</time>
      </trkpt>
      <trkpt lat="47.11777" lon="8.49811">
        <ele>425.2</ele>
        <time>2023-02-12T10:52:12Z</time>
      </trkpt>
      <trkpt lat="47.11779" lon="8.49804">
        <ele>425.2</ele>
        <time>2023-02-12T10:52:13Z</time>
      </trkpt>
      <trkpt lat="47.11781" lon="8.49796">
        <ele>425.4</ele>
        <time>2023-02-12T10:52:14Z</time>
      </trkpt>
      <trkpt lat="47.11784" lon="8.49789">
        <ele>425.4</ele>
        <time>2023-02-12T10:52:15Z</time>
      </trkpt>
      <trkpt lat="47.11787" lon="8.49782">
        <ele>425.4</ele>
        <time>2023-02-12T10:52:16Z</time>
      </trkpt>
      <trkpt lat="47.1179" lon="8.49775">
        <ele>425.4</ele>
        <time>2023-02-12T10:52:17Z</time>
      </trkpt>
      <trkpt lat="47.11793" lon="8.49768">
        <ele>425.4</ele>
        <time>2023-02-12T10:52:18Z</time>
      </trkpt>
      <trkpt lat="47.11797" lon="8.49761">
        <ele>425.4</ele>
        <time>2023-02-12T10:52:19Z</time>
      </trkpt>
      <trkpt lat="47.11801" lon="8.49755">
        <ele>425.4</ele>
        <time>2023-02-12T10:52:20Z</time>
      </trkpt>
      <trkpt lat="47.11805" lon="8.49749">
        <ele>425.4</ele>
        <time>2023-02-12T10:52:21Z</time>
      </trkpt>
      <trkpt lat="47.1181" lon="8.49744">
        <ele>425.4</ele>
        <time>2023-02-12T10:52:22Z</time>
      </trkpt>
      <trkpt lat="47.11815" lon="8.49739">
        <ele>425.4</ele>
        <time>2023-02-12T10:52:23Z</time>
      </trkpt>
      <trkpt lat="47.1182" lon="8.49734">
        <ele>425.4</ele>
        <time>2023-02-12T10:52:24Z</time>
      </trkpt>
      <trkpt lat="47.11826" lon="8.49729">
        <ele>425.4</ele>
        <time>2023-02-12T10:52:25Z</time>
      </trkpt>
      <trkpt lat="47.11831" lon="8.49725">
        <ele>425.2</ele>
        <time>2023-02-12T10:52:26Z</time>
      </trkpt>
      <trkpt lat="47.11837" lon="8.4972">
        <ele>425.2</ele>
        <time>2023-02-12T10:52:27Z</time>
      </trkpt>
      <trkpt lat="47.11843" lon="8.49716">
        <ele>425</ele>
        <time>2023-02-12T10:52:28Z</time>
      </trkpt>
      <trkpt lat="47.11848" lon="8.49711">
        <ele>425</ele>
        <time>2023-02-12T10:52:29Z</time>
      </trkpt>
      <trkpt lat="47.11853" lon="8.49707">
        <ele>425</ele>
        <time>2023-02-12T10:52:30Z</time>
      </trkpt>
      <trkpt lat="47.11859" lon="8.49702">
        <ele>425</ele>
        <time>2023-02-12T10:52:31Z</time>
      </trkpt>
      <trkpt lat="47.11864" lon="8.49697">
        <ele>425</ele>
        <time>2023-02-12T10:52:32Z</time>
      </trkpt>
      <trkpt lat="47.1187" lon="8.49693">
        <ele>425</ele>
        <time>2023-02-12T10:52:33Z</time>
      </trkpt>
      <trkpt lat="47.11875" lon="8.49689">
        <ele>425</ele>
        <time>2023-02-12T10:52:34Z</time>
      </trkpt>
      <trkpt lat="47.11881" lon="8.49684">
        <ele>424.8</ele>
        <time>2023-02-12T10:52:35Z</time>
      </trkpt>
      <trkpt lat="47.11886" lon="8.49679">
        <ele>424.8</ele>
        <time>2023-02-12T10:52:36Z</time>
      </trkpt>
      <trkpt lat="47.11892" lon="8.49674">
        <ele>424.6</ele>
        <time>2023-02-12T10:52:37Z</time>
      </trkpt>
      <trkpt lat="47.11897" lon="8.4967">
        <ele>424.6</ele>
        <time>2023-02-12T10:52:38Z</time>
      </trkpt>
      <trkpt lat="47.11903" lon="8.49666">
        <ele>424.6</ele>
        <time>2023-02-12T10:52:39Z</time>
      </trkpt>
      <trkpt lat="47.11909" lon="8.49663">
        <ele>424.4</ele>
        <time>2023-02-12T10:52:40Z</time>
      </trkpt>
      <trkpt lat="47.11915" lon="8.49661">
        <ele>424.4</ele>
        <time>2023-02-12T10:52:41Z</time>
      </trkpt>
      <trkpt lat="47.11921" lon="8.49659">
        <ele>424.4</ele>
        <time>2023-02-12T10:52:42Z</time>
      </trkpt>
      <trkpt lat="47.11928" lon="8.49658">
        <ele>424.4</ele>
        <time>2023-02-12T10:52:43Z</time>
      </trkpt>
      <trkpt lat="47.11934" lon="8.49657">
        <ele>424.4</ele>
        <time>2023-02-12T10:52:44Z</time>
      </trkpt>
      <trkpt lat="47.1194" lon="8.49656">
        <ele>424.2</ele>
        <time>2023-02-12T10:52:45Z</time>
      </trkpt>
      <trkpt lat="47.11947" lon="8.49656">
        <ele>424.2</ele>
        <time>2023-02-12T10:52:46Z</time>
      </trkpt>
      <trkpt lat="47.11953" lon="8.49656">
        <ele>424.2</ele>
        <time>2023-02-12T10:52:47Z</time>
      </trkpt>
      <trkpt lat="47.11958" lon="8.49656">
        <ele>424.2</ele>
        <time>2023-02-12T10:52:48Z</time>
      </trkpt>
      <trkpt lat="47.11964" lon="8.49656">
        <ele>424.2</ele>
        <time>2023-02-12T10:52:49Z</time>
      </trkpt>
      <trkpt lat="47.1197" lon="8.49656">
        <ele>424.2</ele>
        <time>2023-02-12T10:52:50Z</time>
      </trkpt>
      <trkpt lat="47.11976" lon="8.49655">
        <ele>424.2</ele>
        <time>2023-02-12T10:52:51Z</time>
      </trkpt>
      <trkpt lat="47.11982" lon="8.49654">
        <ele>424.2</ele>
        <time>2023-02-12T10:52:52Z</time>
      </trkpt>
      <trkpt lat="47.11988" lon="8.49653">
        <ele>424.2</ele>
        <time>2023-02-12T10:52:53Z</time>
      </trkpt>
      <trkpt lat="47.11994" lon="8.49652">
        <ele>424.2</ele>
        <time>2023-02-12T10:52:54Z</time>
      </trkpt>
      <trkpt lat="47.11999" lon="8.49651">
        <ele>424.2</ele>
        <time>2023-02-12T10:52:55Z</time>
      </trkpt>
      <trkpt lat="47.12005" lon="8.49649">
        <ele>424.2</ele>
        <time>2023-02-12T10:52:56Z</time>
      </trkpt>
      <trkpt lat="47.12011" lon="8.49648">
        <ele>424.4</ele>
        <time>2023-02-12T10:52:57Z</time>
      </trkpt>
      <trkpt lat="47.12017" lon="8.49646">
        <ele>424.4</ele>
        <time>2023-02-12T10:52:58Z</time>
      </trkpt>
      <trkpt lat="47.12023" lon="8.49644">
        <ele>424.4</ele>
        <time>2023-02-12T10:52:59Z</time>
      </trkpt>
      <trkpt lat="47.12029" lon="8.49642">
        <ele>424.6</ele>
        <time>2023-02-12T10:53:00Z</time>
      </trkpt>
      <trkpt lat="47.12035" lon="8.49641">
        <ele>424.6</ele>
        <time>2023-02-12T10:53:01Z</time>
      </trkpt>
      <trkpt lat="47.12041" lon="8.49638">
        <ele>424.6</ele>
        <time>2023-02-12T10:53:02Z</time>
      </trkpt>
      <trkpt lat="47.12047" lon="8.49637">
        <ele>424.6</ele>
        <time>2023-02-12T10:53:03Z</time>
      </trkpt>
      <trkpt lat="47.12053" lon="8.49635">
        <ele>424.8</ele>
        <time>2023-02-12T10:53:04Z</time>
      </trkpt>
      <trkpt lat="47.12059" lon="8.49634">
        <ele>424.8</ele>
        <time>2023-02-12T10:53:05Z</time>
      </trkpt>
      <trkpt lat="47.12065" lon="8.49633">
        <ele>424.8</ele>
        <time>2023-02-12T10:53:06Z</time>
      </trkpt>
      <trkpt lat="47.12071" lon="8.49631">
        <ele>424.8</ele>
        <time>2023-02-12T10:53:07Z</time>
      </trkpt>
      <trkpt lat="47.12077" lon="8.49629">
        <ele>424.8</ele>
        <time>2023-02-12T10:53:08Z</time>
      </trkpt>
      <trkpt lat="47.12083" lon="8.49628">
        <ele>425</ele>
        <time>2023-02-12T10:53:09Z</time>
      </trkpt>
      <trkpt lat="47.1209" lon="8.49626">
        <ele>425</ele>
        <time>2023-02-12T10:53:10Z</time>
      </trkpt>
      <trkpt lat="47.12096" lon="8.49624">
        <ele>425</ele>
        <time>2023-02-12T10:53:11Z</time>
      </trkpt>
      <trkpt lat="47.12101" lon="8.49622">
        <ele>425.2</ele>
        <time>2023-02-12T10:53:12Z</time>
      </trkpt>
      <trkpt lat="47.12107" lon="8.49621">
        <ele>425.2</ele>
        <time>2023-02-12T10:53:13Z</time>
      </trkpt>
      <trkpt lat="47.12112" lon="8.49619">
        <ele>425.2</ele>
        <time>2023-02-12T10:53:14Z</time>
      </trkpt>
      <trkpt lat="47.12118" lon="8.49618">
        <ele>425.2</ele>
        <time>2023-02-12T10:53:15Z</time>
      </trkpt>
      <trkpt lat="47.12124" lon="8.49617">
        <ele>425.4</ele>
        <time>2023-02-12T10:53:16Z</time>
      </trkpt>
      <trkpt lat="47.12129" lon="8.49615">
        <ele>425.4</ele>
        <time>2023-02-12T10:53:17Z</time>
      </trkpt>
      <trkpt lat="47.12135" lon="8.49613">
        <ele>425.6</ele>
        <time>2023-02-12T10:53:18Z</time>
      </trkpt>
      <trkpt lat="47.12141" lon="8.49611">
        <ele>425.6</ele>
        <time>2023-02-12T10:53:19Z</time>
      </trkpt>
      <trkpt lat="47.12147" lon="8.4961">
        <ele>425.6</ele>
        <time>2023-02-12T10:53:20Z</time>
      </trkpt>
      <trkpt lat="47.12153" lon="8.49608">
        <ele>425.8</ele>
        <time>2023-02-12T10:53:21Z</time>
      </trkpt>
      <trkpt lat="47.12159" lon="8.49607">
        <ele>425.8</ele>
        <time>2023-02-12T10:53:22Z</time>
      </trkpt>
      <trkpt lat="47.12166" lon="8.49606">
        <ele>426</ele>
        <time>2023-02-12T10:53:23Z</time>
      </trkpt>
      <trkpt lat="47.12172" lon="8.49604">
        <ele>426</ele>
        <time>2023-02-12T10:53:24Z</time>
      </trkpt>
      <trkpt lat="47.12178" lon="8.49602">
        <ele>426</ele>
        <time>2023-02-12T10:53:25Z</time>
      </trkpt>
      <trkpt lat="47.12184" lon="8.49599">
        <ele>426.2</ele>
        <time>2023-02-12T10:53:26Z</time>
      </trkpt>
      <trkpt lat="47.1219" lon="8.49597">
        <ele>426.2</ele>
        <time>2023-02-12T10:53:27Z</time>
      </trkpt>
      <trkpt lat="47.12196" lon="8.49595">
        <ele>426.2</ele>
        <time>2023-02-12T10:53:28Z</time>
      </trkpt>
      <trkpt lat="47.12202" lon="8.49592">
        <ele>426.4</ele>
        <time>2023-02-12T10:53:29Z</time>
      </trkpt>
      <trkpt lat="47.12207" lon="8.4959">
        <ele>426.6</ele>
        <time>2023-02-12T10:53:30Z</time>
      </trkpt>
      <trkpt lat="47.12213" lon="8.49587">
        <ele>426.6</ele>
        <time>2023-02-12T10:53:31Z</time>
      </trkpt>
      <trkpt lat="47.12218" lon="8.49584">
        <ele>426.8</ele>
        <time>2023-02-12T10:53:32Z</time>
      </trkpt>
      <trkpt lat="47.12224" lon="8.49582">
        <ele>426.8</ele>
        <time>2023-02-12T10:53:33Z</time>
      </trkpt>
      <trkpt lat="47.12229" lon="8.49579">
        <ele>427</ele>
        <time>2023-02-12T10:53:34Z</time>
      </trkpt>
      <trkpt lat="47.12235" lon="8.49576">
        <ele>427</ele>
        <time>2023-02-12T10:53:35Z</time>
      </trkpt>
      <trkpt lat="47.1224" lon="8.49574">
        <ele>427.2</ele>
        <time>2023-02-12T10:53:36Z</time>
      </trkpt>
      <trkpt lat="47.12246" lon="8.49572">
        <ele>427.4</ele>
        <time>2023-02-12T10:53:37Z</time>
      </trkpt>
      <trkpt lat="47.12252" lon="8.49569">
        <ele>427.6</ele>
        <time>2023-02-12T10:53:38Z</time>
      </trkpt>
      <trkpt lat="47.12258" lon="8.49566">
        <ele>427.6</ele>
        <time>2023-02-12T10:53:39Z</time>
      </trkpt>
      <trkpt lat="47.12263" lon="8.49564">
        <ele>427.8</ele>
        <time>2023-02-12T10:53:40Z</time>
      </trkpt>
      <trkpt lat="47.12269" lon="8.49562">
        <ele>428</ele>
        <time>2023-02-12T10:53:41Z</time>
      </trkpt>
      <trkpt lat="47.12275" lon="8.49559">
        <ele>428</ele>
        <time>2023-02-12T10:53:42Z</time>
      </trkpt>
      <trkpt lat="47.12281" lon="8.49557">
        <ele>428</ele>
        <time>2023-02-12T10:53:43Z</time>
      </trkpt>
      <trkpt lat="47.12287" lon="8.49555">
        <ele>428</ele>
        <time>2023-02-12T10:53:44Z</time>
      </trkpt>
      <trkpt lat="47.12293" lon="8.49555">
        <ele>428</ele>
        <time>2023-02-12T10:53:45Z</time>
      </trkpt>
      <trkpt lat="47.12299" lon="8.49556">
        <ele>428</ele>
        <time>2023-02-12T10:53:46Z</time>
      </trkpt>
      <trkpt lat="47.12306" lon="8.49556">
        <ele>428</ele>
        <time>2023-02-12T10:53:47Z</time>
      </trkpt>
      <trkpt lat="47.12312" lon="8.49556">
        <ele>428</ele>
        <time>2023-02-12T10:53:48Z</time>
      </trkpt>
      <trkpt lat="47.12318" lon="8.49557">
        <ele>428</ele>
        <time>2023-02-12T10:53:49Z</time>
      </trkpt>
      <trkpt lat="47.12324" lon="8.49557">
        <ele>427.8</ele>
        <time>2023-02-12T10:53:50Z</time>
      </trkpt>
      <trkpt lat="47.12331" lon="8.49558">
        <ele>427.8</ele>
        <time>2023-02-12T10:53:51Z</time>
      </trkpt>
      <trkpt lat="47.12337" lon="8.49559">
        <ele>427.6</ele>
        <time>2023-02-12T10:53:52Z</time>
      </trkpt>
      <trkpt lat="47.12343" lon="8.49559">
        <ele>427.6</ele>
        <time>2023-02-12T10:53:53Z</time>
      </trkpt>
      <trkpt lat="47.1235" lon="8.4956">
        <ele>427.4</ele>
        <time>2023-02-12T10:53:54Z</time>
      </trkpt>
      <trkpt lat="47.12356" lon="8.49561">
        <ele>427.4</ele>
        <time>2023-02-12T10:53:55Z</time>
      </trkpt>
      <trkpt lat="47.12362" lon="8.49562">
        <ele>427.4</ele>
        <time>2023-02-12T10:53:56Z</time>
      </trkpt>
      <trkpt lat="47.12368" lon="8.49564">
        <ele>427.2</ele>
        <time>2023-02-12T10:53:57Z</time>
      </trkpt>
      <trkpt lat="47.12374" lon="8.49565">
        <ele>427.2</ele>
        <time>2023-02-12T10:53:58Z</time>
      </trkpt>
      <trkpt lat="47.1238" lon="8.49566">
        <ele>427</ele>
        <time>2023-02-12T10:53:59Z</time>
      </trkpt>
      <trkpt lat="47.12385" lon="8.49568">
        <ele>427</ele>
        <time>2023-02-12T10:54:00Z</time>
      </trkpt>
      <trkpt lat="47.12391" lon="8.49571">
        <ele>426.8</ele>
        <time>2023-02-12T10:54:01Z</time>
      </trkpt>
      <trkpt lat="47.12396" lon="8.49574">
        <ele>426.6</ele>
        <time>2023-02-12T10:54:02Z</time>
      </trkpt>
      <trkpt lat="47.12401" lon="8.49577">
        <ele>426.4</ele>
        <time>2023-02-12T10:54:03Z</time>
      </trkpt>
      <trkpt lat="47.12406" lon="8.49581">
        <ele>426.4</ele>
        <time>2023-02-12T10:54:04Z</time>
      </trkpt>
      <trkpt lat="47.12412" lon="8.49584">
        <ele>426.2</ele>
        <time>2023-02-12T10:54:05Z</time>
      </trkpt>
      <trkpt lat="47.12417" lon="8.49588">
        <ele>426.2</ele>
        <time>2023-02-12T10:54:06Z</time>
      </trkpt>
      <trkpt lat="47.12422" lon="8.49593">
        <ele>426</ele>
        <time>2023-02-12T10:54:07Z</time>
      </trkpt>
      <trkpt lat="47.12427" lon="8.49598">
        <ele>425.8</ele>
        <time>2023-02-12T10:54:08Z</time>
      </trkpt>
      <trkpt lat="47.12432" lon="8.49603">
        <ele>425.8</ele>
        <time>2023-02-12T10:54:09Z</time>
      </trkpt>
      <trkpt lat="47.12437" lon="8.49608">
        <ele>425.8</ele>
        <time>2023-02-12T10:54:10Z</time>
      </trkpt>
      <trkpt lat="47.12443" lon="8.49614">
        <ele>425.6</ele>
        <time>2023-02-12T10:54:11Z</time>
      </trkpt>
      <trkpt lat="47.12448" lon="8.4962">
        <ele>425.2</ele>
        <time>2023-02-12T10:54:12Z</time>
      </trkpt>
      <trkpt lat="47.12452" lon="8.49626">
        <ele>425</ele>
        <time>2023-02-12T10:54:13Z</time>
      </trkpt>
      <trkpt lat="47.12457" lon="8.49633">
        <ele>424.6</ele>
        <time>2023-02-12T10:54:14Z</time>
      </trkpt>
      <trkpt lat="47.12462" lon="8.4964">
        <ele>424.4</ele>
        <time>2023-02-12T10:54:15Z</time>
      </trkpt>
      <trkpt lat="47.12467" lon="8.49647">
        <ele>424</ele>
        <time>2023-02-12T10:54:16Z</time>
      </trkpt>
      <trkpt lat="47.12471" lon="8.49655">
        <ele>423.8</ele>
        <time>2023-02-12T10:54:17Z</time>
      </trkpt>
      <trkpt lat="47.12476" lon="8.49663">
        <ele>423.4</ele>
        <time>2023-02-12T10:54:18Z</time>
      </trkpt>
      <trkpt lat="47.1248" lon="8.49671">
        <ele>423.2</ele>
        <time>2023-02-12T10:54:19Z</time>
      </trkpt>
      <trkpt lat="47.12485" lon="8.49678">
        <ele>423</ele>
        <time>2023-02-12T10:54:20Z</time>
      </trkpt>
      <trkpt lat="47.1249" lon="8.49686">
        <ele>423</ele>
        <time>2023-02-12T10:54:21Z</time>
      </trkpt>
      <trkpt lat="47.12495" lon="8.49694">
        <ele>422.8</ele>
        <time>2023-02-12T10:54:22Z</time>
      </trkpt>
      <trkpt lat="47.125" lon="8.49701">
        <ele>422.4</ele>
        <time>2023-02-12T10:54:23Z</time>
      </trkpt>
      <trkpt lat="47.12505" lon="8.49708">
        <ele>422.2</ele>
        <time>2023-02-12T10:54:24Z</time>
      </trkpt>
      <trkpt lat="47.1251" lon="8.49714">
        <ele>422</ele>
        <time>2023-02-12T10:54:25Z</time>
      </trkpt>
      <trkpt lat="47.12515" lon="8.49721">
        <ele>422</ele>
        <time>2023-02-12T10:54:26Z</time>
      </trkpt>
      <trkpt lat="47.1252" lon="8.49728">
        <ele>421.8</ele>
        <time>2023-02-12T10:54:27Z</time>
      </trkpt>
      <trkpt lat="47.12526" lon="8.49735">
        <ele>421.8</ele>
        <time>2023-02-12T10:54:28Z</time>
      </trkpt>
      <trkpt lat="47.12531" lon="8.49742">
        <ele>421.6</ele>
        <time>2023-02-12T10:54:29Z</time>
      </trkpt>
      <trkpt lat="47.12536" lon="8.49748">
        <ele>421.6</ele>
        <time>2023-02-12T10:54:30Z</time>
      </trkpt>
      <trkpt lat="47.12541" lon="8.49755">
        <ele>421.6</ele>
        <time>2023-02-12T10:54:31Z</time>
      </trkpt>
      <trkpt lat="47.12547" lon="8.49761">
        <ele>421.6</ele>
        <time>2023-02-12T10:54:32Z</time>
      </trkpt>
      <trkpt lat="47.12552" lon="8.49768">
        <ele>421.4</ele>
        <time>2023-02-12T10:54:33Z</time>
      </trkpt>
      <trkpt lat="47.12557" lon="8.49774">
        <ele>421.4</ele>
        <time>2023-02-12T10:54:34Z</time>
      </trkpt>
      <trkpt lat="47.12563" lon="8.49781">
        <ele>421.4</ele>
        <time>2023-02-12T10:54:35Z</time>
      </trkpt>
      <trkpt lat="47.12569" lon="8.49786">
        <ele>421.4</ele>
        <time>2023-02-12T10:54:36Z</time>
      </trkpt>
      <trkpt lat="47.12575" lon="8.49792">
        <ele>421.2</ele>
        <time>2023-02-12T10:54:37Z</time>
      </trkpt>
      <trkpt lat="47.12581" lon="8.49797">
        <ele>421.2</ele>
        <time>2023-02-12T10:54:38Z</time>
      </trkpt>
      <trkpt lat="47.12586" lon="8.49801">
        <ele>421</ele>
        <time>2023-02-12T10:54:39Z</time>
      </trkpt>
      <trkpt lat="47.12593" lon="8.49804">
        <ele>421</ele>
        <time>2023-02-12T10:54:40Z</time>
      </trkpt>
      <trkpt lat="47.12599" lon="8.49807">
        <ele>421</ele>
        <time>2023-02-12T10:54:41Z</time>
      </trkpt>
      <trkpt lat="47.12606" lon="8.49809">
        <ele>421</ele>
        <time>2023-02-12T10:54:42Z</time>
      </trkpt>
      <trkpt lat="47.12612" lon="8.49811">
        <ele>421</ele>
        <time>2023-02-12T10:54:43Z</time>
      </trkpt>
      <trkpt lat="47.12619" lon="8.49813">
        <ele>420.8</ele>
        <time>2023-02-12T10:54:44Z</time>
      </trkpt>
      <trkpt lat="47.12626" lon="8.49814">
        <ele>420.8</ele>
        <time>2023-02-12T10:54:45Z</time>
      </trkpt>
      <trkpt lat="47.12632" lon="8.49815">
        <ele>420.8</ele>
        <time>2023-02-12T10:54:46Z</time>
      </trkpt>
      <trkpt lat="47.12639" lon="8.49816">
        <ele>420.8</ele>
        <time>2023-02-12T10:54:47Z</time>
      </trkpt>
      <trkpt lat="47.12646" lon="8.49818">
        <ele>420.6</ele>
        <time>2023-02-12T10:54:48Z</time>
      </trkpt>
      <trkpt lat="47.12653" lon="8.49819">
        <ele>420.6</ele>
        <time>2023-02-12T10:54:49Z</time>
      </trkpt>
      <trkpt lat="47.12659" lon="8.49819">
        <ele>420.4</ele>
        <time>2023-02-12T10:54:50Z</time>
      </trkpt>
      <trkpt lat="47.12666" lon="8.4982">
        <ele>420.4</ele>
        <time>2023-02-12T10:54:51Z</time>
      </trkpt>
      <trkpt lat="47.12673" lon="8.49821">
        <ele>420.4</ele>
        <time>2023-02-12T10:54:52Z</time>
      </trkpt>
      <trkpt lat="47.12679" lon="8.49822">
        <ele>420.4</ele>
        <time>2023-02-12T10:54:53Z</time>
      </trkpt>
      <trkpt lat="47.12686" lon="8.49824">
        <ele>420.6</ele>
        <time>2023-02-12T10:54:54Z</time>
      </trkpt>
      <trkpt lat="47.12693" lon="8.49825">
        <ele>420.6</ele>
        <time>2023-02-12T10:54:55Z</time>
      </trkpt>
      <trkpt lat="47.12699" lon="8.49825">
        <ele>420.6</ele>
        <time>2023-02-12T10:54:56Z</time>
      </trkpt>
      <trkpt lat="47.12706" lon="8.49826">
        <ele>420.6</ele>
        <time>2023-02-12T10:54:57Z</time>
      </trkpt>
      <trkpt lat="47.12713" lon="8.49827">
        <ele>420.6</ele>
        <time>2023-02-12T10:54:58Z</time>
      </trkpt>
      <trkpt lat="47.12719" lon="8.49828">
        <ele>420.8</ele>
        <time>2023-02-12T10:54:59Z</time>
      </trkpt>
      <trkpt lat="47.12726" lon="8.49829">
        <ele>420.8</ele>
        <time>2023-02-12T10:55:00Z</time>
      </trkpt>
      <trkpt lat="47.12732" lon="8.49829">
        <ele>420.8</ele>
        <time>2023-02-12T10:55:01Z</time>
      </trkpt>
      <trkpt lat="47.12739" lon="8.49831">
        <ele>420.8</ele>
        <time>2023-02-12T10:55:02Z</time>
      </trkpt>
      <trkpt lat="47.12745" lon="8.49832">
        <ele>421</ele>
        <time>2023-02-12T10:55:03Z</time>
      </trkpt>
      <trkpt lat="47.12751" lon="8.49833">
        <ele>421</ele>
        <time>2023-02-12T10:55:04Z</time>
      </trkpt>
      <trkpt lat="47.12758" lon="8.49835">
        <ele>421</ele>
        <time>2023-02-12T10:55:05Z</time>
      </trkpt>
      <trkpt lat="47.12764" lon="8.49837">
        <ele>421</ele>
        <time>2023-02-12T10:55:06Z</time>
      </trkpt>
      <trkpt lat="47.1277" lon="8.49838">
        <ele>421</ele>
        <time>2023-02-12T10:55:07Z</time>
      </trkpt>
      <trkpt lat="47.12777" lon="8.4984">
        <ele>421.2</ele>
        <time>2023-02-12T10:55:08Z</time>
      </trkpt>
      <trkpt lat="47.12783" lon="8.49843">
        <ele>421.2</ele>
        <time>2023-02-12T10:55:09Z</time>
      </trkpt>
      <trkpt lat="47.12789" lon="8.49846">
        <ele>421.2</ele>
        <time>2023-02-12T10:55:10Z</time>
      </trkpt>
      <trkpt lat="47.12795" lon="8.49848">
        <ele>421.2</ele>
        <time>2023-02-12T10:55:11Z</time>
      </trkpt>
      <trkpt lat="47.12801" lon="8.49852">
        <ele>421.2</ele>
        <time>2023-02-12T10:55:12Z</time>
      </trkpt>
      <trkpt lat="47.12807" lon="8.49855">
        <ele>421.2</ele>
        <time>2023-02-12T10:55:13Z</time>
      </trkpt>
      <trkpt lat="47.12813" lon="8.49858">
        <ele>421.4</ele>
        <time>2023-02-12T10:55:14Z</time>
      </trkpt>
      <trkpt lat="47.12818" lon="8.49862">
        <ele>421.4</ele>
        <time>2023-02-12T10:55:15Z</time>
      </trkpt>
      <trkpt lat="47.12824" lon="8.49865">
        <ele>421.4</ele>
        <time>2023-02-12T10:55:16Z</time>
      </trkpt>
      <trkpt lat="47.1283" lon="8.49869">
        <ele>421.4</ele>
        <time>2023-02-12T10:55:17Z</time>
      </trkpt>
      <trkpt lat="47.12836" lon="8.49873">
        <ele>421.4</ele>
        <time>2023-02-12T10:55:18Z</time>
      </trkpt>
      <trkpt lat="47.12842" lon="8.49877">
        <ele>421.4</ele>
        <time>2023-02-12T10:55:19Z</time>
      </trkpt>
      <trkpt lat="47.12847" lon="8.4988">
        <ele>421.4</ele>
        <time>2023-02-12T10:55:20Z</time>
      </trkpt>
      <trkpt lat="47.12853" lon="8.49884">
        <ele>421.4</ele>
        <time>2023-02-12T10:55:21Z</time>
      </trkpt>
      <trkpt lat="47.12859" lon="8.49887">
        <ele>421.4</ele>
        <time>2023-02-12T10:55:22Z</time>
      </trkpt>
      <trkpt lat="47.12864" lon="8.49891">
        <ele>421.6</ele>
        <time>2023-02-12T10:55:23Z</time>
      </trkpt>
      <trkpt lat="47.1287" lon="8.49894">
        <ele>421.6</ele>
        <time>2023-02-12T10:55:24Z</time>
      </trkpt>
      <trkpt lat="47.12876" lon="8.49898">
        <ele>421.6</ele>
        <time>2023-02-12T10:55:25Z</time>
      </trkpt>
      <trkpt lat="47.12881" lon="8.49901">
        <ele>421.8</ele>
        <time>2023-02-12T10:55:26Z</time>
      </trkpt>
      <trkpt lat="47.12887" lon="8.49904">
        <ele>421.8</ele>
        <time>2023-02-12T10:55:27Z</time>
      </trkpt>
      <trkpt lat="47.12893" lon="8.49908">
        <ele>422</ele>
        <time>2023-02-12T10:55:28Z</time>
      </trkpt>
      <trkpt lat="47.12898" lon="8.49912">
        <ele>422</ele>
        <time>2023-02-12T10:55:29Z</time>
      </trkpt>
      <trkpt lat="47.12903" lon="8.49915">
        <ele>422</ele>
        <time>2023-02-12T10:55:30Z</time>
      </trkpt>
      <trkpt lat="47.12909" lon="8.49919">
        <ele>422.2</ele>
        <time>2023-02-12T10:55:31Z</time>
      </trkpt>
      <trkpt lat="47.12914" lon="8.49922">
        <ele>422.2</ele>
        <time>2023-02-12T10:55:32Z</time>
      </trkpt>
      <trkpt lat="47.12919" lon="8.49926">
        <ele>422.4</ele>
        <time>2023-02-12T10:55:33Z</time>
      </trkpt>
      <trkpt lat="47.12925" lon="8.49929">
        <ele>422.4</ele>
        <time>2023-02-12T10:55:34Z</time>
      </trkpt>
      <trkpt lat="47.1293" lon="8.49933">
        <ele>422.4</ele>
        <time>2023-02-12T10:55:35Z</time>
      </trkpt>
      <trkpt lat="47.12935" lon="8.49936">
        <ele>422.6</ele>
        <time>2023-02-12T10:55:36Z</time>
      </trkpt>
      <trkpt lat="47.1294" lon="8.4994">
        <ele>422.6</ele>
        <time>2023-02-12T10:55:37Z</time>
      </trkpt>
      <trkpt lat="47.12945" lon="8.49944">
        <ele>422.6</ele>
        <time>2023-02-12T10:55:38Z</time>
      </trkpt>
      <trkpt lat="47.12951" lon="8.49948">
        <ele>422.8</ele>
        <time>2023-02-12T10:55:39Z</time>
      </trkpt>
      <trkpt lat="47.12956" lon="8.49951">
        <ele>423</ele>
        <time>2023-02-12T10:55:40Z</time>
      </trkpt>
      <trkpt lat="47.12961" lon="8.49955">
        <ele>423</ele>
        <time>2023-02-12T10:55:41Z</time>
      </trkpt>
      <trkpt lat="47.12966" lon="8.49958">
        <ele>423.2</ele>
        <time>2023-02-12T10:55:42Z</time>
      </trkpt>
      <trkpt lat="47.12971" lon="8.49961">
        <ele>423.4</ele>
        <time>2023-02-12T10:55:43Z</time>
      </trkpt>
      <trkpt lat="47.12977" lon="8.49965">
        <ele>423.6</ele>
        <time>2023-02-12T10:55:44Z</time>
      </trkpt>
      <trkpt lat="47.12982" lon="8.49969">
        <ele>423.8</ele>
        <time>2023-02-12T10:55:45Z</time>
      </trkpt>
      <trkpt lat="47.12987" lon="8.49973">
        <ele>424</ele>
        <time>2023-02-12T10:55:46Z</time>
      </trkpt>
      <trkpt lat="47.12992" lon="8.49977">
        <ele>424</ele>
        <time>2023-02-12T10:55:47Z</time>
      </trkpt>
      <trkpt lat="47.12997" lon="8.49982">
        <ele>424.2</ele>
        <time>2023-02-12T10:55:48Z</time>
      </trkpt>
      <trkpt lat="47.13001" lon="8.49987">
        <ele>424.4</ele>
        <time>2023-02-12T10:55:49Z</time>
      </trkpt>
      <trkpt lat="47.13005" lon="8.49992">
        <ele>424.6</ele>
        <time>2023-02-12T10:55:50Z</time>
      </trkpt>
      <trkpt lat="47.1301" lon="8.49997">
        <ele>424.8</ele>
        <time>2023-02-12T10:55:51Z</time>
      </trkpt>
      <trkpt lat="47.13013" lon="8.50003">
        <ele>425</ele>
        <time>2023-02-12T10:55:52Z</time>
      </trkpt>
      <trkpt lat="47.13017" lon="8.50009">
        <ele>425</ele>
        <time>2023-02-12T10:55:53Z</time>
      </trkpt>
      <trkpt lat="47.1302" lon="8.50015">
        <ele>425.2</ele>
        <time>2023-02-12T10:55:54Z</time>
      </trkpt>
      <trkpt lat="47.13024" lon="8.50021">
        <ele>425.4</ele>
        <time>2023-02-12T10:55:55Z</time>
      </trkpt>
      <trkpt lat="47.13026" lon="8.50027">
        <ele>425.4</ele>
        <time>2023-02-12T10:55:56Z</time>
      </trkpt>
      <trkpt lat="47.13029" lon="8.50033">
        <ele>425.6</ele>
        <time>2023-02-12T10:55:57Z</time>
      </trkpt>
      <trkpt lat="47.13032" lon="8.50039">
        <ele>425.6</ele>
        <time>2023-02-12T10:55:58Z</time>
      </trkpt>
      <trkpt lat="47.13035" lon="8.50046">
        <ele>425.8</ele>
        <time>2023-02-12T10:55:59Z</time>
      </trkpt>
      <trkpt lat="47.13038" lon="8.50052">
        <ele>425.8</ele>
        <time>2023-02-12T10:56:00Z</time>
      </trkpt>
      <trkpt lat="47.13041" lon="8.50059">
        <ele>426</ele>
        <time>2023-02-12T10:56:01Z</time>
      </trkpt>
      <trkpt lat="47.13044" lon="8.50065">
        <ele>426.2</ele>
        <time>2023-02-12T10:56:02Z</time>
      </trkpt>
      <trkpt lat="47.13047" lon="8.50071">
        <ele>426.2</ele>
        <time>2023-02-12T10:56:03Z</time>
      </trkpt>
      <trkpt lat="47.1305" lon="8.50078">
        <ele>426.4</ele>
        <time>2023-02-12T10:56:04Z</time>
      </trkpt>
      <trkpt lat="47.13053" lon="8.50085">
        <ele>426.4</ele>
        <time>2023-02-12T10:56:05Z</time>
      </trkpt>
      <trkpt lat="47.13056" lon="8.50091">
        <ele>426.4</ele>
        <time>2023-02-12T10:56:06Z</time>
      </trkpt>
      <trkpt lat="47.13059" lon="8.50098">
        <ele>426.6</ele>
        <time>2023-02-12T10:56:07Z</time>
      </trkpt>
      <trkpt lat="47.13062" lon="8.50104">
        <ele>426.6</ele>
        <time>2023-02-12T10:56:08Z</time>
      </trkpt>
      <trkpt lat="47.13065" lon="8.5011">
        <ele>426.8</ele>
        <time>2023-02-12T10:56:09Z</time>
      </trkpt>
      <trkpt lat="47.13068" lon="8.50117">
        <ele>426.8</ele>
        <time>2023-02-12T10:56:10Z</time>
      </trkpt>
      <trkpt lat="47.13071" lon="8.50123">
        <ele>427</ele>
        <time>2023-02-12T10:56:11Z</time>
      </trkpt>
      <trkpt lat="47.13073" lon="8.50129">
        <ele>427</ele>
        <time>2023-02-12T10:56:12Z</time>
      </trkpt>
      <trkpt lat="47.13076" lon="8.50136">
        <ele>427.2</ele>
        <time>2023-02-12T10:56:13Z</time>
      </trkpt>
      <trkpt lat="47.13079" lon="8.50142">
        <ele>427.4</ele>
        <time>2023-02-12T10:56:14Z</time>
      </trkpt>
      <trkpt lat="47.13082" lon="8.50149">
        <ele>427.4</ele>
        <time>2023-02-12T10:56:15Z</time>
      </trkpt>
      <trkpt lat="47.13085" lon="8.50155">
        <ele>427.6</ele>
        <time>2023-02-12T10:56:16Z</time>
      </trkpt>
      <trkpt lat="47.13088" lon="8.50162">
        <ele>427.6</ele>
        <time>2023-02-12T10:56:17Z</time>
      </trkpt>
      <trkpt lat="47.13092" lon="8.50169">
        <ele>427.8</ele>
        <time>2023-02-12T10:56:18Z</time>
      </trkpt>
      <trkpt lat="47.13095" lon="8.50175">
        <ele>427.8</ele>
        <time>2023-02-12T10:56:19Z</time>
      </trkpt>
      <trkpt lat="47.13099" lon="8.50181">
        <ele>428</ele>
        <time>2023-02-12T10:56:20Z</time>
      </trkpt>
      <trkpt lat="47.13102" lon="8.50186">
        <ele>428</ele>
        <time>2023-02-12T10:56:21Z</time>
      </trkpt>
      <trkpt lat="47.13106" lon="8.50192">
        <ele>428.2</ele>
        <time>2023-02-12T10:56:22Z</time>
      </trkpt>
      <trkpt lat="47.13111" lon="8.50197">
        <ele>428.4</ele>
        <time>2023-02-12T10:56:23Z</time>
      </trkpt>
      <trkpt lat="47.13115" lon="8.50202">
        <ele>428.6</ele>
        <time>2023-02-12T10:56:24Z</time>
      </trkpt>
      <trkpt lat="47.1312" lon="8.50207">
        <ele>428.6</ele>
        <time>2023-02-12T10:56:25Z</time>
      </trkpt>
      <trkpt lat="47.13124" lon="8.50211">
        <ele>428.8</ele>
        <time>2023-02-12T10:56:26Z</time>
      </trkpt>
      <trkpt lat="47.13129" lon="8.50215">
        <ele>428.8</ele>
        <time>2023-02-12T10:56:27Z</time>
      </trkpt>
      <trkpt lat="47.13134" lon="8.50219">
        <ele>428.8</ele>
        <time>2023-02-12T10:56:28Z</time>
      </trkpt>
      <trkpt lat="47.13139" lon="8.50224">
        <ele>428.8</ele>
        <time>2023-02-12T10:56:29Z</time>
      </trkpt>
      <trkpt lat="47.13144" lon="8.50228">
        <ele>428.8</ele>
        <time>2023-02-12T10:56:30Z</time>
      </trkpt>
      <trkpt lat="47.13149" lon="8.50232">
        <ele>428.8</ele>
        <time>2023-02-12T10:56:31Z</time>
      </trkpt>
      <trkpt lat="47.13153" lon="8.50236">
        <ele>428.8</ele>
        <time>2023-02-12T10:56:32Z</time>
      </trkpt>
      <trkpt lat="47.13158" lon="8.50241">
        <ele>428.8</ele>
        <time>2023-02-12T10:56:33Z</time>
      </trkpt>
      <trkpt lat="47.13164" lon="8.50245">
        <ele>428.6</ele>
        <time>2023-02-12T10:56:34Z</time>
      </trkpt>
      <trkpt lat="47.13169" lon="8.50249">
        <ele>428.6</ele>
        <time>2023-02-12T10:56:35Z</time>
      </trkpt>
      <trkpt lat="47.13175" lon="8.50253">
        <ele>428.4</ele>
        <time>2023-02-12T10:56:36Z</time>
      </trkpt>
      <trkpt lat="47.1318" lon="8.50258">
        <ele>428.4</ele>
        <time>2023-02-12T10:56:37Z</time>
      </trkpt>
      <trkpt lat="47.13186" lon="8.50262">
        <ele>428.2</ele>
        <time>2023-02-12T10:56:38Z</time>
      </trkpt>
      <trkpt lat="47.13191" lon="8.50266">
        <ele>428.2</ele>
        <time>2023-02-12T10:56:39Z</time>
      </trkpt>
      <trkpt lat="47.13196" lon="8.50271">
        <ele>428.2</ele>
        <time>2023-02-12T10:56:40Z</time>
      </trkpt>
      <trkpt lat="47.13202" lon="8.50275">
        <ele>428.2</ele>
        <time>2023-02-12T10:56:41Z</time>
      </trkpt>
      <trkpt lat="47.13207" lon="8.5028">
        <ele>428</ele>
        <time>2023-02-12T10:56:42Z</time>
      </trkpt>
      <trkpt lat="47.13213" lon="8.50284">
        <ele>428</ele>
        <time>2023-02-12T10:56:43Z</time>
      </trkpt>
      <trkpt lat="47.13219" lon="8.50289">
        <ele>428</ele>
        <time>2023-02-12T10:56:44Z</time>
      </trkpt>
      <trkpt lat="47.13224" lon="8.50294">
        <ele>427.8</ele>
        <time>2023-02-12T10:56:45Z</time>
      </trkpt>
      <trkpt lat="47.1323" lon="8.50298">
        <ele>427.6</ele>
        <time>2023-02-12T10:56:46Z</time>
      </trkpt>
      <trkpt lat="47.13235" lon="8.50303">
        <ele>427.6</ele>
        <time>2023-02-12T10:56:47Z</time>
      </trkpt>
      <trkpt lat="47.1324" lon="8.50307">
        <ele>427.4</ele>
        <time>2023-02-12T10:56:48Z</time>
      </trkpt>
      <trkpt lat="47.13246" lon="8.50312">
        <ele>427.4</ele>
        <time>2023-02-12T10:56:49Z</time>
      </trkpt>
      <trkpt lat="47.13252" lon="8.50317">
        <ele>427.2</ele>
        <time>2023-02-12T10:56:50Z</time>
      </trkpt>
      <trkpt lat="47.13257" lon="8.50322">
        <ele>427.2</ele>
        <time>2023-02-12T10:56:51Z</time>
      </trkpt>
      <trkpt lat="47.13263" lon="8.50327">
        <ele>427</ele>
        <time>2023-02-12T10:56:52Z</time>
      </trkpt>
      <trkpt lat="47.13268" lon="8.50332">
        <ele>426.8</ele>
        <time>2023-02-12T10:56:53Z</time>
      </trkpt>
      <trkpt lat="47.13274" lon="8.50337">
        <ele>426.8</ele>
        <time>2023-02-12T10:56:54Z</time>
      </trkpt>
      <trkpt lat="47.13279" lon="8.50341">
        <ele>426.6</ele>
        <time>2023-02-12T10:56:55Z</time>
      </trkpt>
      <trkpt lat="47.13285" lon="8.50346">
        <ele>426.4</ele>
        <time>2023-02-12T10:56:56Z</time>
      </trkpt>
      <trkpt lat="47.1329" lon="8.50351">
        <ele>426.2</ele>
        <time>2023-02-12T10:56:57Z</time>
      </trkpt>
      <trkpt lat="47.13295" lon="8.50356">
        <ele>426</ele>
        <time>2023-02-12T10:56:58Z</time>
      </trkpt>
      <trkpt lat="47.133" lon="8.50361">
        <ele>426</ele>
        <time>2023-02-12T10:56:59Z</time>
      </trkpt>
      <trkpt lat="47.13306" lon="8.50367">
        <ele>425.8</ele>
        <time>2023-02-12T10:57:00Z</time>
      </trkpt>
      <trkpt lat="47.13311" lon="8.50372">
        <ele>425.6</ele>
        <time>2023-02-12T10:57:01Z</time>
      </trkpt>
      <trkpt lat="47.13316" lon="8.50378">
        <ele>425.4</ele>
        <time>2023-02-12T10:57:02Z</time>
      </trkpt>
      <trkpt lat="47.13321" lon="8.50383">
        <ele>425.2</ele>
        <time>2023-02-12T10:57:03Z</time>
      </trkpt>
      <trkpt lat="47.13327" lon="8.50389">
        <ele>425.2</ele>
        <time>2023-02-12T10:57:04Z</time>
      </trkpt>
      <trkpt lat="47.13333" lon="8.50395">
        <ele>425</ele>
        <time>2023-02-12T10:57:05Z</time>
      </trkpt>
      <trkpt lat="47.13338" lon="8.50401">
        <ele>424.8</ele>
        <time>2023-02-12T10:57:06Z</time>
      </trkpt>
      <trkpt lat="47.13345" lon="8.50407">
        <ele>424.6</ele>
        <time>2023-02-12T10:57:07Z</time>
      </trkpt>
      <trkpt lat="47.13351" lon="8.50412">
        <ele>424.4</ele>
        <time>2023-02-12T10:57:08Z</time>
      </trkpt>
      <trkpt lat="47.13357" lon="8.50417">
        <ele>424</ele>
        <time>2023-02-12T10:57:09Z</time>
      </trkpt>
      <trkpt lat="47.13364" lon="8.50421">
        <ele>423.8</ele>
        <time>2023-02-12T10:57:10Z</time>
      </trkpt>
      <trkpt lat="47.1337" lon="8.50425">
        <ele>423.8</ele>
        <time>2023-02-12T10:57:11Z</time>
      </trkpt>
      <trkpt lat="47.13377" lon="8.50429">
        <ele>423.4</ele>
        <time>2023-02-12T10:57:12Z</time>
      </trkpt>
      <trkpt lat="47.13383" lon="8.50433">
        <ele>423.2</ele>
        <time>2023-02-12T10:57:13Z</time>
      </trkpt>
      <trkpt lat="47.13389" lon="8.50436">
        <ele>423</ele>
        <time>2023-02-12T10:57:14Z</time>
      </trkpt>
      <trkpt lat="47.13396" lon="8.5044">
        <ele>422.8</ele>
        <time>2023-02-12T10:57:15Z</time>
      </trkpt>
      <trkpt lat="47.13402" lon="8.50443">
        <ele>422.6</ele>
        <time>2023-02-12T10:57:16Z</time>
      </trkpt>
      <trkpt lat="47.13408" lon="8.50446">
        <ele>422.4</ele>
        <time>2023-02-12T10:57:17Z</time>
      </trkpt>
      <trkpt lat="47.13414" lon="8.5045">
        <ele>422.2</ele>
        <time>2023-02-12T10:57:18Z</time>
      </trkpt>
      <trkpt lat="47.1342" lon="8.50455">
        <ele>422</ele>
        <time>2023-02-12T10:57:19Z</time>
      </trkpt>
      <trkpt lat="47.13426" lon="8.50459">
        <ele>422</ele>
        <time>2023-02-12T10:57:20Z</time>
      </trkpt>
      <trkpt lat="47.13431" lon="8.50463">
        <ele>421.8</ele>
        <time>2023-02-12T10:57:21Z</time>
      </trkpt>
      <trkpt lat="47.13437" lon="8.50467">
        <ele>421.8</ele>
        <time>2023-02-12T10:57:22Z</time>
      </trkpt>
      <trkpt lat="47.13442" lon="8.50472">
        <ele>421.6</ele>
        <time>2023-02-12T10:57:23Z</time>
      </trkpt>
      <trkpt lat="47.13447" lon="8.50477">
        <ele>421.6</ele>
        <time>2023-02-12T10:57:24Z</time>
      </trkpt>
      <trkpt lat="47.13452" lon="8.50482">
        <ele>421.4</ele>
        <time>2023-02-12T10:57:25Z</time>
      </trkpt>
      <trkpt lat="47.13457" lon="8.50486">
        <ele>421.4</ele>
        <time>2023-02-12T10:57:26Z</time>
      </trkpt>
      <trkpt lat="47.13462" lon="8.5049">
        <ele>421.2</ele>
        <time>2023-02-12T10:57:27Z</time>
      </trkpt>
      <trkpt lat="47.13467" lon="8.50495">
        <ele>421.2</ele>
        <time>2023-02-12T10:57:28Z</time>
      </trkpt>
      <trkpt lat="47.13473" lon="8.50499">
        <ele>421.2</ele>
        <time>2023-02-12T10:57:29Z</time>
      </trkpt>
      <trkpt lat="47.13478" lon="8.50502">
        <ele>421</ele>
        <time>2023-02-12T10:57:30Z</time>
      </trkpt>
      <trkpt lat="47.13484" lon="8.50504">
        <ele>421</ele>
        <time>2023-02-12T10:57:31Z</time>
      </trkpt>
      <trkpt lat="47.13489" lon="8.50504">
        <ele>421</ele>
        <time>2023-02-12T10:57:32Z</time>
      </trkpt>
      <trkpt lat="47.13494" lon="8.50506">
        <ele>420.8</ele>
        <time>2023-02-12T10:57:33Z</time>
      </trkpt>
      <trkpt lat="47.13499" lon="8.5051">
        <ele>420.8</ele>
        <time>2023-02-12T10:57:34Z</time>
      </trkpt>
      <trkpt lat="47.13504" lon="8.50515">
        <ele>420.8</ele>
        <time>2023-02-12T10:57:35Z</time>
      </trkpt>
      <trkpt lat="47.13509" lon="8.50517">
        <ele>420.8</ele>
        <time>2023-02-12T10:57:36Z</time>
      </trkpt>
      <trkpt lat="47.13514" lon="8.5052">
        <ele>420.8</ele>
        <time>2023-02-12T10:57:37Z</time>
      </trkpt>
      <trkpt lat="47.1352" lon="8.50523">
        <ele>420.8</ele>
        <time>2023-02-12T10:57:38Z</time>
      </trkpt>
      <trkpt lat="47.13525" lon="8.50526">
        <ele>420.8</ele>
        <time>2023-02-12T10:57:39Z</time>
      </trkpt>
      <trkpt lat="47.1353" lon="8.5053">
        <ele>420.8</ele>
        <time>2023-02-12T10:57:40Z</time>
      </trkpt>
      <trkpt lat="47.13535" lon="8.50534">
        <ele>420.8</ele>
        <time>2023-02-12T10:57:41Z</time>
      </trkpt>
      <trkpt lat="47.13539" lon="8.50538">
        <ele>420.8</ele>
        <time>2023-02-12T10:57:42Z</time>
      </trkpt>
      <trkpt lat="47.13544" lon="8.50542">
        <ele>420.8</ele>
        <time>2023-02-12T10:57:43Z</time>
      </trkpt>
      <trkpt lat="47.13549" lon="8.50546">
        <ele>420.8</ele>
        <time>2023-02-12T10:57:44Z</time>
      </trkpt>
      <trkpt lat="47.13554" lon="8.50551">
        <ele>420.6</ele>
        <time>2023-02-12T10:57:45Z</time>
      </trkpt>
      <trkpt lat="47.13559" lon="8.50555">
        <ele>420.6</ele>
        <time>2023-02-12T10:57:46Z</time>
      </trkpt>
      <trkpt lat="47.13564" lon="8.50559">
        <ele>420.4</ele>
        <time>2023-02-12T10:57:47Z</time>
      </trkpt>
      <trkpt lat="47.13569" lon="8.50564">
        <ele>420.4</ele>
        <time>2023-02-12T10:57:48Z</time>
      </trkpt>
      <trkpt lat="47.13574" lon="8.50568">
        <ele>420.4</ele>
        <time>2023-02-12T10:57:49Z</time>
      </trkpt>
      <trkpt lat="47.13579" lon="8.50573">
        <ele>420.4</ele>
        <time>2023-02-12T10:57:50Z</time>
      </trkpt>
      <trkpt lat="47.13584" lon="8.50578">
        <ele>420.4</ele>
        <time>2023-02-12T10:57:51Z</time>
      </trkpt>
      <trkpt lat="47.13589" lon="8.50582">
        <ele>420.4</ele>
        <time>2023-02-12T10:57:52Z</time>
      </trkpt>
      <trkpt lat="47.13594" lon="8.50586">
        <ele>420.4</ele>
        <time>2023-02-12T10:57:53Z</time>
      </trkpt>
      <trkpt lat="47.13598" lon="8.5059">
        <ele>420.4</ele>
        <time>2023-02-12T10:57:54Z</time>
      </trkpt>
      <trkpt lat="47.13603" lon="8.50594">
        <ele>420.4</ele>
        <time>2023-02-12T10:57:55Z</time>
      </trkpt>
      <trkpt lat="47.13608" lon="8.50598">
        <ele>420.4</ele>
        <time>2023-02-12T10:57:56Z</time>
      </trkpt>
      <trkpt lat="47.13613" lon="8.50602">
        <ele>420.4</ele>
        <time>2023-02-12T10:57:57Z</time>
      </trkpt>
      <trkpt lat="47.13618" lon="8.50606">
        <ele>420.4</ele>
        <time>2023-02-12T10:57:58Z</time>
      </trkpt>
      <trkpt lat="47.13624" lon="8.50609">
        <ele>420.4</ele>
        <time>2023-02-12T10:57:59Z</time>
      </trkpt>
      <trkpt lat="47.13629" lon="8.50612">
        <ele>420.4</ele>
        <time>2023-02-12T10:58:00Z</time>
      </trkpt>
      <trkpt lat="47.13635" lon="8.50615">
        <ele>420.6</ele>
        <time>2023-02-12T10:58:01Z</time>
      </trkpt>
      <trkpt lat="47.13641" lon="8.50617">
        <ele>420.6</ele>
        <time>2023-02-12T10:58:02Z</time>
      </trkpt>
      <trkpt lat="47.13646" lon="8.50619">
        <ele>420.6</ele>
        <time>2023-02-12T10:58:03Z</time>
      </trkpt>
      <trkpt lat="47.13652" lon="8.5062">
        <ele>420.6</ele>
        <time>2023-02-12T10:58:04Z</time>
      </trkpt>
      <trkpt lat="47.13658" lon="8.50621">
        <ele>420.6</ele>
        <time>2023-02-12T10:58:05Z</time>
      </trkpt>
      <trkpt lat="47.13663" lon="8.50622">
        <ele>420.6</ele>
        <time>2023-02-12T10:58:06Z</time>
      </trkpt>
      <trkpt lat="47.13669" lon="8.50621">
        <ele>420.8</ele>
        <time>2023-02-12T10:58:07Z</time>
      </trkpt>
      <trkpt lat="47.13674" lon="8.50621">
        <ele>420.8</ele>
        <time>2023-02-12T10:58:08Z</time>
      </trkpt>
      <trkpt lat="47.13679" lon="8.5062">
        <ele>420.8</ele>
        <time>2023-02-12T10:58:09Z</time>
      </trkpt>
      <trkpt lat="47.13685" lon="8.50619">
        <ele>420.8</ele>
        <time>2023-02-12T10:58:10Z</time>
      </trkpt>
      <trkpt lat="47.1369" lon="8.50617">
        <ele>420.8</ele>
        <time>2023-02-12T10:58:11Z</time>
      </trkpt>
      <trkpt lat="47.13696" lon="8.50616">
        <ele>421</ele>
        <time>2023-02-12T10:58:12Z</time>
      </trkpt>
      <trkpt lat="47.13701" lon="8.50614">
        <ele>421</ele>
        <time>2023-02-12T10:58:13Z</time>
      </trkpt>
      <trkpt lat="47.13707" lon="8.50612">
        <ele>421</ele>
        <time>2023-02-12T10:58:14Z</time>
      </trkpt>
      <trkpt lat="47.13712" lon="8.50611">
        <ele>421</ele>
        <time>2023-02-12T10:58:15Z</time>
      </trkpt>
      <trkpt lat="47.13717" lon="8.50608">
        <ele>421</ele>
        <time>2023-02-12T10:58:16Z</time>
      </trkpt>
      <trkpt lat="47.13723" lon="8.50606">
        <ele>421</ele>
        <time>2023-02-12T10:58:17Z</time>
      </trkpt>
      <trkpt lat="47.13727" lon="8.50603">
        <ele>421</ele>
        <time>2023-02-12T10:58:18Z</time>
      </trkpt>
      <trkpt lat="47.13732" lon="8.506">
        <ele>421.2</ele>
        <time>2023-02-12T10:58:19Z</time>
      </trkpt>
      <trkpt lat="47.13737" lon="8.50597">
        <ele>421.2</ele>
        <time>2023-02-12T10:58:20Z</time>
      </trkpt>
      <trkpt lat="47.13741" lon="8.50595">
        <ele>421.2</ele>
        <time>2023-02-12T10:58:21Z</time>
      </trkpt>
      <trkpt lat="47.13746" lon="8.50592">
        <ele>421.4</ele>
        <time>2023-02-12T10:58:22Z</time>
      </trkpt>
      <trkpt lat="47.1375" lon="8.50589">
        <ele>421.4</ele>
        <time>2023-02-12T10:58:23Z</time>
      </trkpt>
      <trkpt lat="47.13755" lon="8.50586">
        <ele>421.4</ele>
        <time>2023-02-12T10:58:24Z</time>
      </trkpt>
      <trkpt lat="47.13759" lon="8.50581">
        <ele>421.4</ele>
        <time>2023-02-12T10:58:25Z</time>
      </trkpt>
      <trkpt lat="47.13762" lon="8.50577">
        <ele>421.6</ele>
        <time>2023-02-12T10:58:26Z</time>
      </trkpt>
      <trkpt lat="47.13767" lon="8.50575">
        <ele>421.6</ele>
        <time>2023-02-12T10:58:27Z</time>
      </trkpt>
      <trkpt lat="47.13772" lon="8.50574">
        <ele>421.6</ele>
        <time>2023-02-12T10:58:28Z</time>
      </trkpt>
      <trkpt lat="47.13776" lon="8.50573">
        <ele>421.6</ele>
        <time>2023-02-12T10:58:29Z</time>
      </trkpt>
      <trkpt lat="47.13781" lon="8.5057">
        <ele>421.6</ele>
        <time>2023-02-12T10:58:30Z</time>
      </trkpt>
      <trkpt lat="47.13787" lon="8.50567">
        <ele>421.6</ele>
        <time>2023-02-12T10:58:31Z</time>
      </trkpt>
      <trkpt lat="47.13791" lon="8.50564">
        <ele>421.6</ele>
        <time>2023-02-12T10:58:32Z</time>
      </trkpt>
      <trkpt lat="47.13796" lon="8.50561">
        <ele>421.6</ele>
        <time>2023-02-12T10:58:33Z</time>
      </trkpt>
      <trkpt lat="47.138" lon="8.50557">
        <ele>421.8</ele>
        <time>2023-02-12T10:58:34Z</time>
      </trkpt>
      <trkpt lat="47.13804" lon="8.50553">
        <ele>421.8</ele>
        <time>2023-02-12T10:58:35Z</time>
      </trkpt>
      <trkpt lat="47.13809" lon="8.50549">
        <ele>422</ele>
        <time>2023-02-12T10:58:36Z</time>
      </trkpt>
      <trkpt lat="47.13813" lon="8.50545">
        <ele>422</ele>
        <time>2023-02-12T10:58:37Z</time>
      </trkpt>
      <trkpt lat="47.13817" lon="8.5054">
        <ele>422</ele>
        <time>2023-02-12T10:58:38Z</time>
      </trkpt>
      <trkpt lat="47.13822" lon="8.50535">
        <ele>422</ele>
        <time>2023-02-12T10:58:39Z</time>
      </trkpt>
      <trkpt lat="47.13826" lon="8.50531">
        <ele>422</ele>
        <time>2023-02-12T10:58:40Z</time>
      </trkpt>
      <trkpt lat="47.1383" lon="8.50527">
        <ele>422</ele>
        <time>2023-02-12T10:58:41Z</time>
      </trkpt>
      <trkpt lat="47.13834" lon="8.50522">
        <ele>422</ele>
        <time>2023-02-12T10:58:42Z</time>
      </trkpt>
      <trkpt lat="47.13838" lon="8.50518">
        <ele>422</ele>
        <time>2023-02-12T10:58:43Z</time>
      </trkpt>
      <trkpt lat="47.13842" lon="8.50514">
        <ele>422</ele>
        <time>2023-02-12T10:58:44Z</time>
      </trkpt>
      <trkpt lat="47.13846" lon="8.5051">
        <ele>422</ele>
        <time>2023-02-12T10:58:45Z</time>
      </trkpt>
      <trkpt lat="47.1385" lon="8.50506">
        <ele>422.2</ele>
        <time>2023-02-12T10:58:46Z</time>
      </trkpt>
      <trkpt lat="47.13855" lon="8.50501">
        <ele>422.2</ele>
        <time>2023-02-12T10:58:47Z</time>
      </trkpt>
      <trkpt lat="47.13859" lon="8.50497">
        <ele>422.4</ele>
        <time>2023-02-12T10:58:48Z</time>
      </trkpt>
      <trkpt lat="47.13863" lon="8.50493">
        <ele>422.4</ele>
        <time>2023-02-12T10:58:49Z</time>
      </trkpt>
      <trkpt lat="47.13868" lon="8.50489">
        <ele>422.4</ele>
        <time>2023-02-12T10:58:50Z</time>
      </trkpt>
      <trkpt lat="47.13872" lon="8.50485">
        <ele>422.6</ele>
        <time>2023-02-12T10:58:51Z</time>
      </trkpt>
      <trkpt lat="47.13877" lon="8.50482">
        <ele>422.6</ele>
        <time>2023-02-12T10:58:52Z</time>
      </trkpt>
      <trkpt lat="47.13881" lon="8.5048">
        <ele>422.6</ele>
        <time>2023-02-12T10:58:53Z</time>
      </trkpt>
      <trkpt lat="47.13886" lon="8.50477">
        <ele>422.6</ele>
        <time>2023-02-12T10:58:54Z</time>
      </trkpt>
      <trkpt lat="47.13891" lon="8.50475">
        <ele>422.8</ele>
        <time>2023-02-12T10:58:55Z</time>
      </trkpt>
      <trkpt lat="47.13897" lon="8.50474">
        <ele>422.8</ele>
        <time>2023-02-12T10:58:56Z</time>
      </trkpt>
      <trkpt lat="47.13902" lon="8.50472">
        <ele>423</ele>
        <time>2023-02-12T10:58:57Z</time>
      </trkpt>
      <trkpt lat="47.13907" lon="8.50472">
        <ele>423.2</ele>
        <time>2023-02-12T10:58:58Z</time>
      </trkpt>
      <trkpt lat="47.13911" lon="8.50471">
        <ele>423.2</ele>
        <time>2023-02-12T10:58:59Z</time>
      </trkpt>
      <trkpt lat="47.13916" lon="8.5047">
        <ele>423.4</ele>
        <time>2023-02-12T10:59:00Z</time>
      </trkpt>
      <trkpt lat="47.13922" lon="8.50469">
        <ele>423.4</ele>
        <time>2023-02-12T10:59:01Z</time>
      </trkpt>
      <trkpt lat="47.13927" lon="8.50469">
        <ele>423.4</ele>
        <time>2023-02-12T10:59:02Z</time>
      </trkpt>
      <trkpt lat="47.13933" lon="8.50469">
        <ele>423.4</ele>
        <time>2023-02-12T10:59:03Z</time>
      </trkpt>
      <trkpt lat="47.13938" lon="8.50469">
        <ele>423.4</ele>
        <time>2023-02-12T10:59:04Z</time>
      </trkpt>
      <trkpt lat="47.13943" lon="8.50469">
        <ele>423.4</ele>
        <time>2023-02-12T10:59:05Z</time>
      </trkpt>
      <trkpt lat="47.13949" lon="8.5047">
        <ele>423.2</ele>
        <time>2023-02-12T10:59:06Z</time>
      </trkpt>
      <trkpt lat="47.13955" lon="8.5047">
        <ele>423.2</ele>
        <time>2023-02-12T10:59:07Z</time>
      </trkpt>
      <trkpt lat="47.1396" lon="8.50472">
        <ele>423.2</ele>
        <time>2023-02-12T10:59:08Z</time>
      </trkpt>
      <trkpt lat="47.13965" lon="8.50472">
        <ele>423.2</ele>
        <time>2023-02-12T10:59:09Z</time>
      </trkpt>
      <trkpt lat="47.13971" lon="8.50474">
        <ele>423.2</ele>
        <time>2023-02-12T10:59:10Z</time>
      </trkpt>
      <trkpt lat="47.13977" lon="8.50475">
        <ele>423</ele>
        <time>2023-02-12T10:59:11Z</time>
      </trkpt>
      <trkpt lat="47.13983" lon="8.50477">
        <ele>422.8</ele>
        <time>2023-02-12T10:59:12Z</time>
      </trkpt>
      <trkpt lat="47.13988" lon="8.50479">
        <ele>422.8</ele>
        <time>2023-02-12T10:59:13Z</time>
      </trkpt>
      <trkpt lat="47.13994" lon="8.50481">
        <ele>422.6</ele>
        <time>2023-02-12T10:59:14Z</time>
      </trkpt>
      <trkpt lat="47.14" lon="8.50483">
        <ele>422.6</ele>
        <time>2023-02-12T10:59:15Z</time>
      </trkpt>
      <trkpt lat="47.14004" lon="8.50485">
        <ele>422.4</ele>
        <time>2023-02-12T10:59:16Z</time>
      </trkpt>
      <trkpt lat="47.14009" lon="8.50487">
        <ele>422.2</ele>
        <time>2023-02-12T10:59:17Z</time>
      </trkpt>
      <trkpt lat="47.14015" lon="8.50489">
        <ele>422.2</ele>
        <time>2023-02-12T10:59:18Z</time>
      </trkpt>
      <trkpt lat="47.14021" lon="8.50491">
        <ele>422.2</ele>
        <time>2023-02-12T10:59:19Z</time>
      </trkpt>
      <trkpt lat="47.14027" lon="8.50493">
        <ele>422</ele>
        <time>2023-02-12T10:59:20Z</time>
      </trkpt>
      <trkpt lat="47.14033" lon="8.50496">
        <ele>422</ele>
        <time>2023-02-12T10:59:21Z</time>
      </trkpt>
      <trkpt lat="47.14038" lon="8.50498">
        <ele>421.8</ele>
        <time>2023-02-12T10:59:22Z</time>
      </trkpt>
      <trkpt lat="47.14043" lon="8.505">
        <ele>421.8</ele>
        <time>2023-02-12T10:59:23Z</time>
      </trkpt>
      <trkpt lat="47.14049" lon="8.50502">
        <ele>421.6</ele>
        <time>2023-02-12T10:59:24Z</time>
      </trkpt>
      <trkpt lat="47.14054" lon="8.50505">
        <ele>421.6</ele>
        <time>2023-02-12T10:59:25Z</time>
      </trkpt>
      <trkpt lat="47.14059" lon="8.50507">
        <ele>421.4</ele>
        <time>2023-02-12T10:59:26Z</time>
      </trkpt>
      <trkpt lat="47.14065" lon="8.50509">
        <ele>421.4</ele>
        <time>2023-02-12T10:59:27Z</time>
      </trkpt>
      <trkpt lat="47.1407" lon="8.50511">
        <ele>421.4</ele>
        <time>2023-02-12T10:59:28Z</time>
      </trkpt>
      <trkpt lat="47.14075" lon="8.50513">
        <ele>421.4</ele>
        <time>2023-02-12T10:59:29Z</time>
      </trkpt>
      <trkpt lat="47.14081" lon="8.50515">
        <ele>421.4</ele>
        <time>2023-02-12T10:59:30Z</time>
      </trkpt>
      <trkpt lat="47.14086" lon="8.50518">
        <ele>421.4</ele>
        <time>2023-02-12T10:59:31Z</time>
      </trkpt>
      <trkpt lat="47.1409" lon="8.50522">
        <ele>421.4</ele>
        <time>2023-02-12T10:59:32Z</time>
      </trkpt>
      <trkpt lat="47.14095" lon="8.50526">
        <ele>421.4</ele>
        <time>2023-02-12T10:59:33Z</time>
      </trkpt>
      <trkpt lat="47.14099" lon="8.50529">
        <ele>421.4</ele>
        <time>2023-02-12T10:59:34Z</time>
      </trkpt>
      <trkpt lat="47.14103" lon="8.50532">
        <ele>421.6</ele>
        <time>2023-02-12T10:59:35Z</time>
      </trkpt>
      <trkpt lat="47.14109" lon="8.50535">
        <ele>421.6</ele>
        <time>2023-02-12T10:59:36Z</time>
      </trkpt>
      <trkpt lat="47.14114" lon="8.50537">
        <ele>421.6</ele>
        <time>2023-02-12T10:59:37Z</time>
      </trkpt>
      <trkpt lat="47.14119" lon="8.50539">
        <ele>421.6</ele>
        <time>2023-02-12T10:59:38Z</time>
      </trkpt>
      <trkpt lat="47.14125" lon="8.50542">
        <ele>421.6</ele>
        <time>2023-02-12T10:59:39Z</time>
      </trkpt>
      <trkpt lat="47.1413" lon="8.50544">
        <ele>421.8</ele>
        <time>2023-02-12T10:59:40Z</time>
      </trkpt>
      <trkpt lat="47.14136" lon="8.50547">
        <ele>421.8</ele>
        <time>2023-02-12T10:59:41Z</time>
      </trkpt>
      <trkpt lat="47.14142" lon="8.50549">
        <ele>421.8</ele>
        <time>2023-02-12T10:59:42Z</time>
      </trkpt>
      <trkpt lat="47.14148" lon="8.50552">
        <ele>421.8</ele>
        <time>2023-02-12T10:59:43Z</time>
      </trkpt>
      <trkpt lat="47.14154" lon="8.50553">
        <ele>421.8</ele>
        <time>2023-02-12T10:59:44Z</time>
      </trkpt>
      <trkpt lat="47.1416" lon="8.50555">
        <ele>421.8</ele>
        <time>2023-02-12T10:59:45Z</time>
      </trkpt>
      <trkpt lat="47.14166" lon="8.50557">
        <ele>421.8</ele>
        <time>2023-02-12T10:59:46Z</time>
      </trkpt>
      <trkpt lat="47.14171" lon="8.50558">
        <ele>421.8</ele>
        <time>2023-02-12T10:59:47Z</time>
      </trkpt>
      <trkpt lat="47.14177" lon="8.5056">
        <ele>421.8</ele>
        <time>2023-02-12T10:59:48Z</time>
      </trkpt>
      <trkpt lat="47.14183" lon="8.50561">
        <ele>421.8</ele>
        <time>2023-02-12T10:59:49Z</time>
      </trkpt>
      <trkpt lat="47.14189" lon="8.50562">
        <ele>421.8</ele>
        <time>2023-02-12T10:59:50Z</time>
      </trkpt>
      <trkpt lat="47.14195" lon="8.50564">
        <ele>421.8</ele>
        <time>2023-02-12T10:59:51Z</time>
      </trkpt>
      <trkpt lat="47.14201" lon="8.50565">
        <ele>421.8</ele>
        <time>2023-02-12T10:59:52Z</time>
      </trkpt>
      <trkpt lat="47.14206" lon="8.50567">
        <ele>421.8</ele>
        <time>2023-02-12T10:59:53Z</time>
      </trkpt>
      <trkpt lat="47.14213" lon="8.50568">
        <ele>421.6</ele>
        <time>2023-02-12T10:59:54Z</time>
      </trkpt>
      <trkpt lat="47.14219" lon="8.50569">
        <ele>421.6</ele>
        <time>2023-02-12T10:59:55Z</time>
      </trkpt>
      <trkpt lat="47.14225" lon="8.5057">
        <ele>421.6</ele>
        <time>2023-02-12T10:59:56Z</time>
      </trkpt>
      <trkpt lat="47.1423" lon="8.50571">
        <ele>421.6</ele>
        <time>2023-02-12T10:59:57Z</time>
      </trkpt>
      <trkpt lat="47.14236" lon="8.50572">
        <ele>421.4</ele>
        <time>2023-02-12T10:59:58Z</time>
      </trkpt>
      <trkpt lat="47.14242" lon="8.50573">
        <ele>421.4</ele>
        <time>2023-02-12T10:59:59Z</time>
      </trkpt>
      <trkpt lat="47.14248" lon="8.50573">
        <ele>421.4</ele>
        <time>2023-02-12T11:00:00Z</time>
      </trkpt>
      <trkpt lat="47.14255" lon="8.50574">
        <ele>421.6</ele>
        <time>2023-02-12T11:00:01Z</time>
      </trkpt>
      <trkpt lat="47.14261" lon="8.50575">
        <ele>421.6</ele>
        <time>2023-02-12T11:00:02Z</time>
      </trkpt>
      <trkpt lat="47.14267" lon="8.50576">
        <ele>421.6</ele>
        <time>2023-02-12T11:00:03Z</time>
      </trkpt>
      <trkpt lat="47.14273" lon="8.50576">
        <ele>421.6</ele>
        <time>2023-02-12T11:00:04Z</time>
      </trkpt>
      <trkpt lat="47.14279" lon="8.50577">
        <ele>421.6</ele>
        <time>2023-02-12T11:00:05Z</time>
      </trkpt>
      <trkpt lat="47.14285" lon="8.50577">
        <ele>421.6</ele>
        <time>2023-02-12T11:00:06Z</time>
      </trkpt>
      <trkpt lat="47.14291" lon="8.50578">
        <ele>421.6</ele>
        <time>2023-02-12T11:00:07Z</time>
      </trkpt>
      <trkpt lat="47.14297" lon="8.50578">
        <ele>421.4</ele>
        <time>2023-02-12T11:00:08Z</time>
      </trkpt>
      <trkpt lat="47.14303" lon="8.50578">
        <ele>421.4</ele>
        <time>2023-02-12T11:00:09Z</time>
      </trkpt>
      <trkpt lat="47.14309" lon="8.50579">
        <ele>421.4</ele>
        <time>2023-02-12T11:00:10Z</time>
      </trkpt>
      <trkpt lat="47.14315" lon="8.5058">
        <ele>421.4</ele>
        <time>2023-02-12T11:00:11Z</time>
      </trkpt>
      <trkpt lat="47.14321" lon="8.5058">
        <ele>421.4</ele>
        <time>2023-02-12T11:00:12Z</time>
      </trkpt>
      <trkpt lat="47.14327" lon="8.5058">
        <ele>421.4</ele>
        <time>2023-02-12T11:00:13Z</time>
      </trkpt>
      <trkpt lat="47.14334" lon="8.50579">
        <ele>421.4</ele>
        <time>2023-02-12T11:00:14Z</time>
      </trkpt>
      <trkpt lat="47.1434" lon="8.5058">
        <ele>421.4</ele>
        <time>2023-02-12T11:00:15Z</time>
      </trkpt>
      <trkpt lat="47.14347" lon="8.5058">
        <ele>421.4</ele>
        <time>2023-02-12T11:00:16Z</time>
      </trkpt>
      <trkpt lat="47.14353" lon="8.50579">
        <ele>421.2</ele>
        <time>2023-02-12T11:00:17Z</time>
      </trkpt>
      <trkpt lat="47.14359" lon="8.50579">
        <ele>421.2</ele>
        <time>2023-02-12T11:00:18Z</time>
      </trkpt>
      <trkpt lat="47.14365" lon="8.50579">
        <ele>421.2</ele>
        <time>2023-02-12T11:00:19Z</time>
      </trkpt>
      <trkpt lat="47.14371" lon="8.50579">
        <ele>421.2</ele>
        <time>2023-02-12T11:00:20Z</time>
      </trkpt>
      <trkpt lat="47.14378" lon="8.50579">
        <ele>421.2</ele>
        <time>2023-02-12T11:00:21Z</time>
      </trkpt>
      <trkpt lat="47.14384" lon="8.5058">
        <ele>421.2</ele>
        <time>2023-02-12T11:00:22Z</time>
      </trkpt>
      <trkpt lat="47.14391" lon="8.50579">
        <ele>421</ele>
        <time>2023-02-12T11:00:23Z</time>
      </trkpt>
      <trkpt lat="47.14397" lon="8.50579">
        <ele>421</ele>
        <time>2023-02-12T11:00:24Z</time>
      </trkpt>
      <trkpt lat="47.14403" lon="8.50579">
        <ele>421</ele>
        <time>2023-02-12T11:00:25Z</time>
      </trkpt>
      <trkpt lat="47.1441" lon="8.50579">
        <ele>421</ele>
        <time>2023-02-12T11:00:26Z</time>
      </trkpt>
      <trkpt lat="47.14416" lon="8.50579">
        <ele>421</ele>
        <time>2023-02-12T11:00:27Z</time>
      </trkpt>
      <trkpt lat="47.14423" lon="8.50579">
        <ele>421</ele>
        <time>2023-02-12T11:00:28Z</time>
      </trkpt>
      <trkpt lat="47.1443" lon="8.50579">
        <ele>421</ele>
        <time>2023-02-12T11:00:29Z</time>
      </trkpt>
      <trkpt lat="47.14436" lon="8.50579">
        <ele>421</ele>
        <time>2023-02-12T11:00:30Z</time>
      </trkpt>
      <trkpt lat="47.14442" lon="8.50579">
        <ele>421</ele>
        <time>2023-02-12T11:00:31Z</time>
      </trkpt>
      <trkpt lat="47.14449" lon="8.50579">
        <ele>421</ele>
        <time>2023-02-12T11:00:32Z</time>
      </trkpt>
      <trkpt lat="47.14455" lon="8.50578">
        <ele>421</ele>
        <time>2023-02-12T11:00:33Z</time>
      </trkpt>
      <trkpt lat="47.14461" lon="8.50578">
        <ele>421</ele>
        <time>2023-02-12T11:00:34Z</time>
      </trkpt>
      <trkpt lat="47.14467" lon="8.50578">
        <ele>421</ele>
        <time>2023-02-12T11:00:35Z</time>
      </trkpt>
      <trkpt lat="47.14474" lon="8.50578">
        <ele>421.2</ele>
        <time>2023-02-12T11:00:36Z</time>
      </trkpt>
      <trkpt lat="47.1448" lon="8.50578">
        <ele>421.2</ele>
        <time>2023-02-12T11:00:37Z</time>
      </trkpt>
      <trkpt lat="47.14486" lon="8.50578">
        <ele>421.2</ele>
        <time>2023-02-12T11:00:38Z</time>
      </trkpt>
      <trkpt lat="47.14492" lon="8.50577">
        <ele>421.2</ele>
        <time>2023-02-12T11:00:39Z</time>
      </trkpt>
      <trkpt lat="47.14499" lon="8.50577">
        <ele>421.4</ele>
        <time>2023-02-12T11:00:40Z</time>
      </trkpt>
      <trkpt lat="47.14505" lon="8.50577">
        <ele>421.4</ele>
        <time>2023-02-12T11:00:41Z</time>
      </trkpt>
      <trkpt lat="47.14511" lon="8.50577">
        <ele>421.4</ele>
        <time>2023-02-12T11:00:42Z</time>
      </trkpt>
      <trkpt lat="47.14517" lon="8.50577">
        <ele>421.4</ele>
        <time>2023-02-12T11:00:43Z</time>
      </trkpt>
      <trkpt lat="47.14523" lon="8.50577">
        <ele>421.4</ele>
        <time>2023-02-12T11:00:44Z</time>
      </trkpt>
      <trkpt lat="47.14529" lon="8.50577">
        <ele>421.4</ele>
        <time>2023-02-12T11:00:45Z</time>
      </trkpt>
      <trkpt lat="47.14536" lon="8.50578">
        <ele>421.6</ele>
        <time>2023-02-12T11:00:46Z</time>
      </trkpt>
      <trkpt lat="47.14542" lon="8.50578">
        <ele>421.6</ele>
        <time>2023-02-12T11:00:47Z</time>
      </trkpt>
      <trkpt lat="47.14548" lon="8.50578">
        <ele>421.6</ele>
        <time>2023-02-12T11:00:48Z</time>
      </trkpt>
      <trkpt lat="47.14554" lon="8.50579">
        <ele>421.6</ele>
        <time>2023-02-12T11:00:49Z</time>
      </trkpt>
      <trkpt lat="47.1456" lon="8.5058">
        <ele>421.8</ele>
        <time>2023-02-12T11:00:50Z</time>
      </trkpt>
      <trkpt lat="47.14566" lon="8.50581">
        <ele>421.8</ele>
        <time>2023-02-12T11:00:51Z</time>
      </trkpt>
      <trkpt lat="47.14572" lon="8.50581">
        <ele>422</ele>
        <time>2023-02-12T11:00:52Z</time>
      </trkpt>
      <trkpt lat="47.14579" lon="8.50583">
        <ele>422</ele>
        <time>2023-02-12T11:00:53Z</time>
      </trkpt>
      <trkpt lat="47.14585" lon="8.50584">
        <ele>422</ele>
        <time>2023-02-12T11:00:54Z</time>
      </trkpt>
      <trkpt lat="47.14591" lon="8.50585">
        <ele>422</ele>
        <time>2023-02-12T11:00:55Z</time>
      </trkpt>
      <trkpt lat="47.14597" lon="8.50586">
        <ele>422</ele>
        <time>2023-02-12T11:00:56Z</time>
      </trkpt>
      <trkpt lat="47.14602" lon="8.50588">
        <ele>422</ele>
        <time>2023-02-12T11:00:57Z</time>
      </trkpt>
      <trkpt lat="47.14607" lon="8.5059">
        <ele>422</ele>
        <time>2023-02-12T11:00:58Z</time>
      </trkpt>
      <trkpt lat="47.14613" lon="8.50592">
        <ele>422.2</ele>
        <time>2023-02-12T11:00:59Z</time>
      </trkpt>
      <trkpt lat="47.14618" lon="8.50594">
        <ele>422.2</ele>
        <time>2023-02-12T11:01:00Z</time>
      </trkpt>
      <trkpt lat="47.14623" lon="8.50596">
        <ele>422.2</ele>
        <time>2023-02-12T11:01:01Z</time>
      </trkpt>
      <trkpt lat="47.14629" lon="8.50598">
        <ele>422.2</ele>
        <time>2023-02-12T11:01:02Z</time>
      </trkpt>
      <trkpt lat="47.14635" lon="8.50601">
        <ele>422.2</ele>
        <time>2023-02-12T11:01:03Z</time>
      </trkpt>
      <trkpt lat="47.14641" lon="8.50603">
        <ele>422.2</ele>
        <time>2023-02-12T11:01:04Z</time>
      </trkpt>
      <trkpt lat="47.14647" lon="8.50605">
        <ele>422.2</ele>
        <time>2023-02-12T11:01:05Z</time>
      </trkpt>
      <trkpt lat="47.14653" lon="8.50607">
        <ele>422.2</ele>
        <time>2023-02-12T11:01:06Z</time>
      </trkpt>
      <trkpt lat="47.1466" lon="8.5061">
        <ele>422.2</ele>
        <time>2023-02-12T11:01:07Z</time>
      </trkpt>
      <trkpt lat="47.14665" lon="8.50612">
        <ele>422.2</ele>
        <time>2023-02-12T11:01:08Z</time>
      </trkpt>
      <trkpt lat="47.14671" lon="8.50614">
        <ele>422.2</ele>
        <time>2023-02-12T11:01:09Z</time>
      </trkpt>
      <trkpt lat="47.14676" lon="8.50616">
        <ele>422.2</ele>
        <time>2023-02-12T11:01:10Z</time>
      </trkpt>
      <trkpt lat="47.14681" lon="8.50617">
        <ele>422.2</ele>
        <time>2023-02-12T11:01:11Z</time>
      </trkpt>
      <trkpt lat="47.14687" lon="8.50619">
        <ele>422.4</ele>
        <time>2023-02-12T11:01:12Z</time>
      </trkpt>
      <trkpt lat="47.14693" lon="8.50621">
        <ele>422.4</ele>
        <time>2023-02-12T11:01:13Z</time>
      </trkpt>
      <trkpt lat="47.14699" lon="8.50623">
        <ele>422.4</ele>
        <time>2023-02-12T11:01:14Z</time>
      </trkpt>
      <trkpt lat="47.14704" lon="8.50625">
        <ele>422.6</ele>
        <time>2023-02-12T11:01:15Z</time>
      </trkpt>
      <trkpt lat="47.1471" lon="8.50628">
        <ele>422.6</ele>
        <time>2023-02-12T11:01:16Z</time>
      </trkpt>
      <trkpt lat="47.14716" lon="8.5063">
        <ele>422.6</ele>
        <time>2023-02-12T11:01:17Z</time>
      </trkpt>
      <trkpt lat="47.14722" lon="8.50633">
        <ele>422.6</ele>
        <time>2023-02-12T11:01:18Z</time>
      </trkpt>
      <trkpt lat="47.14729" lon="8.50636">
        <ele>422.4</ele>
        <time>2023-02-12T11:01:19Z</time>
      </trkpt>
      <trkpt lat="47.14734" lon="8.50638">
        <ele>422.4</ele>
        <time>2023-02-12T11:01:20Z</time>
      </trkpt>
      <trkpt lat="47.14741" lon="8.50641">
        <ele>422.2</ele>
        <time>2023-02-12T11:01:21Z</time>
      </trkpt>
      <trkpt lat="47.14747" lon="8.50644">
        <ele>422.2</ele>
        <time>2023-02-12T11:01:22Z</time>
      </trkpt>
      <trkpt lat="47.14753" lon="8.50647">
        <ele>422</ele>
        <time>2023-02-12T11:01:23Z</time>
      </trkpt>
      <trkpt lat="47.14759" lon="8.50651">
        <ele>421.8</ele>
        <time>2023-02-12T11:01:24Z</time>
      </trkpt>
      <trkpt lat="47.14765" lon="8.50655">
        <ele>421.8</ele>
        <time>2023-02-12T11:01:25Z</time>
      </trkpt>
      <trkpt lat="47.14771" lon="8.5066">
        <ele>421.8</ele>
        <time>2023-02-12T11:01:26Z</time>
      </trkpt>
      <trkpt lat="47.14777" lon="8.50665">
        <ele>421.6</ele>
        <time>2023-02-12T11:01:27Z</time>
      </trkpt>
      <trkpt lat="47.14784" lon="8.5067">
        <ele>421.6</ele>
        <time>2023-02-12T11:01:28Z</time>
      </trkpt>
      <trkpt lat="47.1479" lon="8.50675">
        <ele>421.6</ele>
        <time>2023-02-12T11:01:29Z</time>
      </trkpt>
      <trkpt lat="47.14795" lon="8.50679">
        <ele>421.6</ele>
        <time>2023-02-12T11:01:30Z</time>
      </trkpt>
      <trkpt lat="47.148" lon="8.50683">
        <ele>421.4</ele>
        <time>2023-02-12T11:01:31Z</time>
      </trkpt>
      <trkpt lat="47.14806" lon="8.50687">
        <ele>421.4</ele>
        <time>2023-02-12T11:01:32Z</time>
      </trkpt>
      <trkpt lat="47.14812" lon="8.5069">
        <ele>421.4</ele>
        <time>2023-02-12T11:01:33Z</time>
      </trkpt>
      <trkpt lat="47.14818" lon="8.50693">
        <ele>421.4</ele>
        <time>2023-02-12T11:01:34Z</time>
      </trkpt>
      <trkpt lat="47.14824" lon="8.50697">
        <ele>421.4</ele>
        <time>2023-02-12T11:01:35Z</time>
      </trkpt>
      <trkpt lat="47.1483" lon="8.50699">
        <ele>421.6</ele>
        <time>2023-02-12T11:01:36Z</time>
      </trkpt>
      <trkpt lat="47.14835" lon="8.50702">
        <ele>421.6</ele>
        <time>2023-02-12T11:01:37Z</time>
      </trkpt>
      <trkpt lat="47.14841" lon="8.50704">
        <ele>421.6</ele>
        <time>2023-02-12T11:01:38Z</time>
      </trkpt>
      <trkpt lat="47.14847" lon="8.50706">
        <ele>421.6</ele>
        <time>2023-02-12T11:01:39Z</time>
      </trkpt>
      <trkpt lat="47.14852" lon="8.50708">
        <ele>421.6</ele>
        <time>2023-02-12T11:01:40Z</time>
      </trkpt>
      <trkpt lat="47.14858" lon="8.5071">
        <ele>421.8</ele>
        <time>2023-02-12T11:01:41Z</time>
      </trkpt>
      <trkpt lat="47.14864" lon="8.50713">
        <ele>421.8</ele>
        <time>2023-02-12T11:01:42Z</time>
      </trkpt>
      <trkpt lat="47.1487" lon="8.50716">
        <ele>421.8</ele>
        <time>2023-02-12T11:01:43Z</time>
      </trkpt>
      <trkpt lat="47.14875" lon="8.50719">
        <ele>422</ele>
        <time>2023-02-12T11:01:44Z</time>
      </trkpt>
      <trkpt lat="47.1488" lon="8.50723">
        <ele>422</ele>
        <time>2023-02-12T11:01:45Z</time>
      </trkpt>
      <trkpt lat="47.14885" lon="8.50726">
        <ele>422.2</ele>
        <time>2023-02-12T11:01:46Z</time>
      </trkpt>
      <trkpt lat="47.14891" lon="8.50729">
        <ele>422.2</ele>
        <time>2023-02-12T11:01:47Z</time>
      </trkpt>
      <trkpt lat="47.14896" lon="8.50733">
        <ele>422.2</ele>
        <time>2023-02-12T11:01:48Z</time>
      </trkpt>
      <trkpt lat="47.14902" lon="8.50736">
        <ele>422.4</ele>
        <time>2023-02-12T11:01:49Z</time>
      </trkpt>
      <trkpt lat="47.14908" lon="8.5074">
        <ele>422.4</ele>
        <time>2023-02-12T11:01:50Z</time>
      </trkpt>
      <trkpt lat="47.14913" lon="8.50744">
        <ele>422.6</ele>
        <time>2023-02-12T11:01:51Z</time>
      </trkpt>
      <trkpt lat="47.14918" lon="8.50749">
        <ele>422.6</ele>
        <time>2023-02-12T11:01:52Z</time>
      </trkpt>
      <trkpt lat="47.14923" lon="8.50753">
        <ele>422.8</ele>
        <time>2023-02-12T11:01:53Z</time>
      </trkpt>
      <trkpt lat="47.14928" lon="8.50758">
        <ele>422.8</ele>
        <time>2023-02-12T11:01:54Z</time>
      </trkpt>
      <trkpt lat="47.14933" lon="8.50764">
        <ele>423</ele>
        <time>2023-02-12T11:01:55Z</time>
      </trkpt>
      <trkpt lat="47.14938" lon="8.5077">
        <ele>423</ele>
        <time>2023-02-12T11:01:56Z</time>
      </trkpt>
      <trkpt lat="47.14942" lon="8.50776">
        <ele>423</ele>
        <time>2023-02-12T11:01:57Z</time>
      </trkpt>
      <trkpt lat="47.14946" lon="8.50781">
        <ele>423.2</ele>
        <time>2023-02-12T11:01:58Z</time>
      </trkpt>
      <trkpt lat="47.14951" lon="8.50787">
        <ele>423.2</ele>
        <time>2023-02-12T11:01:59Z</time>
      </trkpt>
      <trkpt lat="47.14956" lon="8.50794">
        <ele>423.2</ele>
        <time>2023-02-12T11:02:00Z</time>
      </trkpt>
      <trkpt lat="47.14961" lon="8.508">
        <ele>423.2</ele>
        <time>2023-02-12T11:02:01Z</time>
      </trkpt>
      <trkpt lat="47.14966" lon="8.50807">
        <ele>423.2</ele>
        <time>2023-02-12T11:02:02Z</time>
      </trkpt>
      <trkpt lat="47.14971" lon="8.50813">
        <ele>423.2</ele>
        <time>2023-02-12T11:02:03Z</time>
      </trkpt>
      <trkpt lat="47.14977" lon="8.5082">
        <ele>423</ele>
        <time>2023-02-12T11:02:04Z</time>
      </trkpt>
      <trkpt lat="47.14982" lon="8.50825">
        <ele>423</ele>
        <time>2023-02-12T11:02:05Z</time>
      </trkpt>
      <trkpt lat="47.14988" lon="8.50831">
        <ele>423</ele>
        <time>2023-02-12T11:02:06Z</time>
      </trkpt>
      <trkpt lat="47.14993" lon="8.50835">
        <ele>423</ele>
        <time>2023-02-12T11:02:07Z</time>
      </trkpt>
      <trkpt lat="47.14999" lon="8.5084">
        <ele>422.8</ele>
        <time>2023-02-12T11:02:08Z</time>
      </trkpt>
      <trkpt lat="47.15005" lon="8.50844">
        <ele>422.8</ele>
        <time>2023-02-12T11:02:09Z</time>
      </trkpt>
      <trkpt lat="47.15011" lon="8.50848">
        <ele>422.6</ele>
        <time>2023-02-12T11:02:10Z</time>
      </trkpt>
      <trkpt lat="47.15017" lon="8.50852">
        <ele>422.4</ele>
        <time>2023-02-12T11:02:11Z</time>
      </trkpt>
      <trkpt lat="47.15023" lon="8.50855">
        <ele>422.4</ele>
        <time>2023-02-12T11:02:12Z</time>
      </trkpt>
      <trkpt lat="47.1503" lon="8.50859">
        <ele>422.2</ele>
        <time>2023-02-12T11:02:13Z</time>
      </trkpt>
      <trkpt lat="47.15036" lon="8.50861">
        <ele>422.2</ele>
        <time>2023-02-12T11:02:14Z</time>
      </trkpt>
      <trkpt lat="47.15042" lon="8.50864">
        <ele>422</ele>
        <time>2023-02-12T11:02:15Z</time>
      </trkpt>
      <trkpt lat="47.15048" lon="8.50866">
        <ele>422</ele>
        <time>2023-02-12T11:02:16Z</time>
      </trkpt>
      <trkpt lat="47.15055" lon="8.50869">
        <ele>422</ele>
        <time>2023-02-12T11:02:17Z</time>
      </trkpt>
      <trkpt lat="47.15061" lon="8.5087">
        <ele>422</ele>
        <time>2023-02-12T11:02:18Z</time>
      </trkpt>
      <trkpt lat="47.15067" lon="8.50872">
        <ele>421.8</ele>
        <time>2023-02-12T11:02:19Z</time>
      </trkpt>
      <trkpt lat="47.15073" lon="8.50873">
        <ele>421.8</ele>
        <time>2023-02-12T11:02:20Z</time>
      </trkpt>
      <trkpt lat="47.1508" lon="8.50874">
        <ele>421.8</ele>
        <time>2023-02-12T11:02:21Z</time>
      </trkpt>
      <trkpt lat="47.15086" lon="8.50875">
        <ele>421.8</ele>
        <time>2023-02-12T11:02:22Z</time>
      </trkpt>
      <trkpt lat="47.15093" lon="8.50876">
        <ele>421.6</ele>
        <time>2023-02-12T11:02:23Z</time>
      </trkpt>
      <trkpt lat="47.151" lon="8.50877">
        <ele>421.6</ele>
        <time>2023-02-12T11:02:24Z</time>
      </trkpt>
      <trkpt lat="47.15106" lon="8.50877">
        <ele>421.6</ele>
        <time>2023-02-12T11:02:25Z</time>
      </trkpt>
      <trkpt lat="47.15112" lon="8.50878">
        <ele>421.6</ele>
        <time>2023-02-12T11:02:26Z</time>
      </trkpt>
      <trkpt lat="47.15118" lon="8.50878">
        <ele>421.6</ele>
        <time>2023-02-12T11:02:27Z</time>
      </trkpt>
      <trkpt lat="47.15125" lon="8.50879">
        <ele>421.6</ele>
        <time>2023-02-12T11:02:28Z</time>
      </trkpt>
      <trkpt lat="47.15131" lon="8.50879">
        <ele>421.6</ele>
        <time>2023-02-12T11:02:29Z</time>
      </trkpt>
      <trkpt lat="47.15138" lon="8.5088">
        <ele>421.6</ele>
        <time>2023-02-12T11:02:30Z</time>
      </trkpt>
      <trkpt lat="47.15144" lon="8.5088">
        <ele>421.6</ele>
        <time>2023-02-12T11:02:31Z</time>
      </trkpt>
      <trkpt lat="47.1515" lon="8.5088">
        <ele>421.6</ele>
        <time>2023-02-12T11:02:32Z</time>
      </trkpt>
      <trkpt lat="47.15157" lon="8.50881">
        <ele>421.6</ele>
        <time>2023-02-12T11:02:33Z</time>
      </trkpt>
      <trkpt lat="47.15162" lon="8.50882">
        <ele>421.6</ele>
        <time>2023-02-12T11:02:34Z</time>
      </trkpt>
      <trkpt lat="47.15169" lon="8.50882">
        <ele>421.6</ele>
        <time>2023-02-12T11:02:35Z</time>
      </trkpt>
      <trkpt lat="47.15175" lon="8.50883">
        <ele>421.6</ele>
        <time>2023-02-12T11:02:36Z</time>
      </trkpt>
      <trkpt lat="47.15181" lon="8.50884">
        <ele>421.6</ele>
        <time>2023-02-12T11:02:37Z</time>
      </trkpt>
      <trkpt lat="47.15187" lon="8.50884">
        <ele>421.6</ele>
        <time>2023-02-12T11:02:38Z</time>
      </trkpt>
      <trkpt lat="47.15193" lon="8.50885">
        <ele>421.6</ele>
        <time>2023-02-12T11:02:39Z</time>
      </trkpt>
      <trkpt lat="47.15199" lon="8.50886">
        <ele>421.6</ele>
        <time>2023-02-12T11:02:40Z</time>
      </trkpt>
      <trkpt lat="47.15205" lon="8.50887">
        <ele>421.4</ele>
        <time>2023-02-12T11:02:41Z</time>
      </trkpt>
      <trkpt lat="47.15211" lon="8.50889">
        <ele>421.4</ele>
        <time>2023-02-12T11:02:42Z</time>
      </trkpt>
      <trkpt lat="47.15217" lon="8.5089">
        <ele>421.4</ele>
        <time>2023-02-12T11:02:43Z</time>
      </trkpt>
      <trkpt lat="47.15222" lon="8.50892">
        <ele>421.4</ele>
        <time>2023-02-12T11:02:44Z</time>
      </trkpt>
      <trkpt lat="47.15228" lon="8.50896">
        <ele>421.2</ele>
        <time>2023-02-12T11:02:45Z</time>
      </trkpt>
      <trkpt lat="47.15233" lon="8.509">
        <ele>421.2</ele>
        <time>2023-02-12T11:02:46Z</time>
      </trkpt>
      <trkpt lat="47.15239" lon="8.50904">
        <ele>421.2</ele>
        <time>2023-02-12T11:02:47Z</time>
      </trkpt>
      <trkpt lat="47.15244" lon="8.50909">
        <ele>421.2</ele>
        <time>2023-02-12T11:02:48Z</time>
      </trkpt>
      <trkpt lat="47.15249" lon="8.50913">
        <ele>421.2</ele>
        <time>2023-02-12T11:02:49Z</time>
      </trkpt>
      <trkpt lat="47.15254" lon="8.50917">
        <ele>421.2</ele>
        <time>2023-02-12T11:02:50Z</time>
      </trkpt>
      <trkpt lat="47.15259" lon="8.50922">
        <ele>421.4</ele>
        <time>2023-02-12T11:02:51Z</time>
      </trkpt>
      <trkpt lat="47.15264" lon="8.50927">
        <ele>421.4</ele>
        <time>2023-02-12T11:02:52Z</time>
      </trkpt>
      <trkpt lat="47.15269" lon="8.50932">
        <ele>421.6</ele>
        <time>2023-02-12T11:02:53Z</time>
      </trkpt>
      <trkpt lat="47.15273" lon="8.50937">
        <ele>421.6</ele>
        <time>2023-02-12T11:02:54Z</time>
      </trkpt>
      <trkpt lat="47.15278" lon="8.50942">
        <ele>421.6</ele>
        <time>2023-02-12T11:02:55Z</time>
      </trkpt>
      <trkpt lat="47.15283" lon="8.50947">
        <ele>421.6</ele>
        <time>2023-02-12T11:02:56Z</time>
      </trkpt>
      <trkpt lat="47.15289" lon="8.50951">
        <ele>421.6</ele>
        <time>2023-02-12T11:02:57Z</time>
      </trkpt>
      <trkpt lat="47.15294" lon="8.50956">
        <ele>421.6</ele>
        <time>2023-02-12T11:02:58Z</time>
      </trkpt>
      <trkpt lat="47.15299" lon="8.50962">
        <ele>421.6</ele>
        <time>2023-02-12T11:02:59Z</time>
      </trkpt>
      <trkpt lat="47.15304" lon="8.50967">
        <ele>421.6</ele>
        <time>2023-02-12T11:03:00Z</time>
      </trkpt>
      <trkpt lat="47.15308" lon="8.50973">
        <ele>421.6</ele>
        <time>2023-02-12T11:03:01Z</time>
      </trkpt>
      <trkpt lat="47.15312" lon="8.50979">
        <ele>421.4</ele>
        <time>2023-02-12T11:03:02Z</time>
      </trkpt>
      <trkpt lat="47.15316" lon="8.50985">
        <ele>421.4</ele>
        <time>2023-02-12T11:03:03Z</time>
      </trkpt>
      <trkpt lat="47.15321" lon="8.50992">
        <ele>421.2</ele>
        <time>2023-02-12T11:03:04Z</time>
      </trkpt>
      <trkpt lat="47.15324" lon="8.50998">
        <ele>421.2</ele>
        <time>2023-02-12T11:03:05Z</time>
      </trkpt>
      <trkpt lat="47.15329" lon="8.51005">
        <ele>421.2</ele>
        <time>2023-02-12T11:03:06Z</time>
      </trkpt>
      <trkpt lat="47.15333" lon="8.51012">
        <ele>421.2</ele>
        <time>2023-02-12T11:03:07Z</time>
      </trkpt>
      <trkpt lat="47.15337" lon="8.51019">
        <ele>421.2</ele>
        <time>2023-02-12T11:03:08Z</time>
      </trkpt>
      <trkpt lat="47.15341" lon="8.51026">
        <ele>421.4</ele>
        <time>2023-02-12T11:03:09Z</time>
      </trkpt>
      <trkpt lat="47.15345" lon="8.51033">
        <ele>421.4</ele>
        <time>2023-02-12T11:03:10Z</time>
      </trkpt>
      <trkpt lat="47.15349" lon="8.5104">
        <ele>421.4</ele>
        <time>2023-02-12T11:03:11Z</time>
      </trkpt>
      <trkpt lat="47.15353" lon="8.51047">
        <ele>421.4</ele>
        <time>2023-02-12T11:03:12Z</time>
      </trkpt>
      <trkpt lat="47.15358" lon="8.51054">
        <ele>421.4</ele>
        <time>2023-02-12T11:03:13Z</time>
      </trkpt>
      <trkpt lat="47.15362" lon="8.51062">
        <ele>421.2</ele>
        <time>2023-02-12T11:03:14Z</time>
      </trkpt>
      <trkpt lat="47.15366" lon="8.5107">
        <ele>421.2</ele>
        <time>2023-02-12T11:03:15Z</time>
      </trkpt>
      <trkpt lat="47.15372" lon="8.51077">
        <ele>421.2</ele>
        <time>2023-02-12T11:03:16Z</time>
      </trkpt>
      <trkpt lat="47.15378" lon="8.51084">
        <ele>421.2</ele>
        <time>2023-02-12T11:03:17Z</time>
      </trkpt>
      <trkpt lat="47.15384" lon="8.5109">
        <ele>421.2</ele>
        <time>2023-02-12T11:03:18Z</time>
      </trkpt>
      <trkpt lat="47.1539" lon="8.51094">
        <ele>421.2</ele>
        <time>2023-02-12T11:03:19Z</time>
      </trkpt>
      <trkpt lat="47.15396" lon="8.51098">
        <ele>421.2</ele>
        <time>2023-02-12T11:03:20Z</time>
      </trkpt>
      <trkpt lat="47.15403" lon="8.51101">
        <ele>421.4</ele>
        <time>2023-02-12T11:03:21Z</time>
      </trkpt>
      <trkpt lat="47.1541" lon="8.51104">
        <ele>421.4</ele>
        <time>2023-02-12T11:03:22Z</time>
      </trkpt>
      <trkpt lat="47.15417" lon="8.51107">
        <ele>421.4</ele>
        <time>2023-02-12T11:03:23Z</time>
      </trkpt>
      <trkpt lat="47.15424" lon="8.5111">
        <ele>421.6</ele>
        <time>2023-02-12T11:03:24Z</time>
      </trkpt>
      <trkpt lat="47.15431" lon="8.51111">
        <ele>421.6</ele>
        <time>2023-02-12T11:03:25Z</time>
      </trkpt>
      <trkpt lat="47.15437" lon="8.51113">
        <ele>421.6</ele>
        <time>2023-02-12T11:03:26Z</time>
      </trkpt>
      <trkpt lat="47.15443" lon="8.51114">
        <ele>421.6</ele>
        <time>2023-02-12T11:03:27Z</time>
      </trkpt>
      <trkpt lat="47.1545" lon="8.51116">
        <ele>421.6</ele>
        <time>2023-02-12T11:03:28Z</time>
      </trkpt>
      <trkpt lat="47.15456" lon="8.51116">
        <ele>421.6</ele>
        <time>2023-02-12T11:03:29Z</time>
      </trkpt>
      <trkpt lat="47.15463" lon="8.51117">
        <ele>421.8</ele>
        <time>2023-02-12T11:03:30Z</time>
      </trkpt>
      <trkpt lat="47.15469" lon="8.51118">
        <ele>421.8</ele>
        <time>2023-02-12T11:03:31Z</time>
      </trkpt>
      <trkpt lat="47.15476" lon="8.51119">
        <ele>421.8</ele>
        <time>2023-02-12T11:03:32Z</time>
      </trkpt>
      <trkpt lat="47.15482" lon="8.51118">
        <ele>422</ele>
        <time>2023-02-12T11:03:33Z</time>
      </trkpt>
      <trkpt lat="47.15488" lon="8.51118">
        <ele>422</ele>
        <time>2023-02-12T11:03:34Z</time>
      </trkpt>
      <trkpt lat="47.15494" lon="8.51116">
        <ele>422</ele>
        <time>2023-02-12T11:03:35Z</time>
      </trkpt>
      <trkpt lat="47.155" lon="8.51115">
        <ele>422</ele>
        <time>2023-02-12T11:03:36Z</time>
      </trkpt>
      <trkpt lat="47.15505" lon="8.51114">
        <ele>422</ele>
        <time>2023-02-12T11:03:37Z</time>
      </trkpt>
      <trkpt lat="47.1551" lon="8.51112">
        <ele>422.2</ele>
        <time>2023-02-12T11:03:38Z</time>
      </trkpt>
      <trkpt lat="47.15515" lon="8.51111">
        <ele>422.2</ele>
        <time>2023-02-12T11:03:39Z</time>
      </trkpt>
      <trkpt lat="47.15521" lon="8.51109">
        <ele>422.4</ele>
        <time>2023-02-12T11:03:40Z</time>
      </trkpt>
      <trkpt lat="47.15527" lon="8.51108">
        <ele>422.4</ele>
        <time>2023-02-12T11:03:41Z</time>
      </trkpt>
      <trkpt lat="47.15533" lon="8.51107">
        <ele>422.4</ele>
        <time>2023-02-12T11:03:42Z</time>
      </trkpt>
      <trkpt lat="47.1554" lon="8.51106">
        <ele>422.4</ele>
        <time>2023-02-12T11:03:43Z</time>
      </trkpt>
      <trkpt lat="47.15545" lon="8.51103">
        <ele>422.6</ele>
        <time>2023-02-12T11:03:44Z</time>
      </trkpt>
      <trkpt lat="47.15551" lon="8.51102">
        <ele>422.6</ele>
        <time>2023-02-12T11:03:45Z</time>
      </trkpt>
      <trkpt lat="47.15556" lon="8.511">
        <ele>422.6</ele>
        <time>2023-02-12T11:03:46Z</time>
      </trkpt>
      <trkpt lat="47.15563" lon="8.51099">
        <ele>422.8</ele>
        <time>2023-02-12T11:03:47Z</time>
      </trkpt>
      <trkpt lat="47.15569" lon="8.51099">
        <ele>422.8</ele>
        <time>2023-02-12T11:03:48Z</time>
      </trkpt>
      <trkpt lat="47.15574" lon="8.51098">
        <ele>423</ele>
        <time>2023-02-12T11:03:49Z</time>
      </trkpt>
      <trkpt lat="47.1558" lon="8.51098">
        <ele>423.2</ele>
        <time>2023-02-12T11:03:50Z</time>
      </trkpt>
      <trkpt lat="47.15585" lon="8.51097">
        <ele>423.2</ele>
        <time>2023-02-12T11:03:51Z</time>
      </trkpt>
      <trkpt lat="47.15591" lon="8.51097">
        <ele>423.4</ele>
        <time>2023-02-12T11:03:52Z</time>
      </trkpt>
      <trkpt lat="47.15596" lon="8.51097">
        <ele>423.6</ele>
        <time>2023-02-12T11:03:53Z</time>
      </trkpt>
      <trkpt lat="47.15602" lon="8.51097">
        <ele>423.6</ele>
        <time>2023-02-12T11:03:54Z</time>
      </trkpt>
      <trkpt lat="47.15607" lon="8.51097">
        <ele>423.8</ele>
        <time>2023-02-12T11:03:55Z</time>
      </trkpt>
      <trkpt lat="47.15612" lon="8.51098">
        <ele>423.8</ele>
        <time>2023-02-12T11:03:56Z</time>
      </trkpt>
      <trkpt lat="47.15618" lon="8.51099">
        <ele>423.8</ele>
        <time>2023-02-12T11:03:57Z</time>
      </trkpt>
      <trkpt lat="47.15623" lon="8.511">
        <ele>424</ele>
        <time>2023-02-12T11:03:58Z</time>
      </trkpt>
      <trkpt lat="47.15628" lon="8.511">
        <ele>424.2</ele>
        <time>2023-02-12T11:03:59Z</time>
      </trkpt>
      <trkpt lat="47.15633" lon="8.51102">
        <ele>424.2</ele>
        <time>2023-02-12T11:04:00Z</time>
      </trkpt>
      <trkpt lat="47.15639" lon="8.51102">
        <ele>424.4</ele>
        <time>2023-02-12T11:04:01Z</time>
      </trkpt>
      <trkpt lat="47.15644" lon="8.51104">
        <ele>424.4</ele>
        <time>2023-02-12T11:04:02Z</time>
      </trkpt>
      <trkpt lat="47.1565" lon="8.51106">
        <ele>424.6</ele>
        <time>2023-02-12T11:04:03Z</time>
      </trkpt>
      <trkpt lat="47.15655" lon="8.51109">
        <ele>424.6</ele>
        <time>2023-02-12T11:04:04Z</time>
      </trkpt>
      <trkpt lat="47.15661" lon="8.51111">
        <ele>424.6</ele>
        <time>2023-02-12T11:04:05Z</time>
      </trkpt>
      <trkpt lat="47.15666" lon="8.51113">
        <ele>424.6</ele>
        <time>2023-02-12T11:04:06Z</time>
      </trkpt>
      <trkpt lat="47.15672" lon="8.51116">
        <ele>424.6</ele>
        <time>2023-02-12T11:04:07Z</time>
      </trkpt>
      <trkpt lat="47.15677" lon="8.51118">
        <ele>424.6</ele>
        <time>2023-02-12T11:04:08Z</time>
      </trkpt>
      <trkpt lat="47.15683" lon="8.51121">
        <ele>424.6</ele>
        <time>2023-02-12T11:04:09Z</time>
      </trkpt>
      <trkpt lat="47.15688" lon="8.51124">
        <ele>424.4</ele>
        <time>2023-02-12T11:04:10Z</time>
      </trkpt>
      <trkpt lat="47.15694" lon="8.51127">
        <ele>424.4</ele>
        <time>2023-02-12T11:04:11Z</time>
      </trkpt>
      <trkpt lat="47.15699" lon="8.51131">
        <ele>424.4</ele>
        <time>2023-02-12T11:04:12Z</time>
      </trkpt>
      <trkpt lat="47.15705" lon="8.51134">
        <ele>424.4</ele>
        <time>2023-02-12T11:04:13Z</time>
      </trkpt>
      <trkpt lat="47.1571" lon="8.51138">
        <ele>424.2</ele>
        <time>2023-02-12T11:04:14Z</time>
      </trkpt>
      <trkpt lat="47.15716" lon="8.51142">
        <ele>424.2</ele>
        <time>2023-02-12T11:04:15Z</time>
      </trkpt>
      <trkpt lat="47.15722" lon="8.51145">
        <ele>424</ele>
        <time>2023-02-12T11:04:16Z</time>
      </trkpt>
      <trkpt lat="47.15728" lon="8.51149">
        <ele>424</ele>
        <time>2023-02-12T11:04:17Z</time>
      </trkpt>
      <trkpt lat="47.15734" lon="8.51153">
        <ele>424</ele>
        <time>2023-02-12T11:04:18Z</time>
      </trkpt>
      <trkpt lat="47.1574" lon="8.51156">
        <ele>423.8</ele>
        <time>2023-02-12T11:04:19Z</time>
      </trkpt>
      <trkpt lat="47.15746" lon="8.5116">
        <ele>423.6</ele>
        <time>2023-02-12T11:04:20Z</time>
      </trkpt>
      <trkpt lat="47.15752" lon="8.51163">
        <ele>423.4</ele>
        <time>2023-02-12T11:04:21Z</time>
      </trkpt>
      <trkpt lat="47.15759" lon="8.51167">
        <ele>423.2</ele>
        <time>2023-02-12T11:04:22Z</time>
      </trkpt>
      <trkpt lat="47.15765" lon="8.51171">
        <ele>423</ele>
        <time>2023-02-12T11:04:23Z</time>
      </trkpt>
      <trkpt lat="47.15771" lon="8.51175">
        <ele>423</ele>
        <time>2023-02-12T11:04:24Z</time>
      </trkpt>
      <trkpt lat="47.15777" lon="8.51178">
        <ele>422.8</ele>
        <time>2023-02-12T11:04:25Z</time>
      </trkpt>
      <trkpt lat="47.15783" lon="8.51181">
        <ele>422.6</ele>
        <time>2023-02-12T11:04:26Z</time>
      </trkpt>
      <trkpt lat="47.15789" lon="8.51185">
        <ele>422.6</ele>
        <time>2023-02-12T11:04:27Z</time>
      </trkpt>
      <trkpt lat="47.15795" lon="8.51188">
        <ele>422.4</ele>
        <time>2023-02-12T11:04:28Z</time>
      </trkpt>
      <trkpt lat="47.15801" lon="8.51191">
        <ele>422.4</ele>
        <time>2023-02-12T11:04:29Z</time>
      </trkpt>
      <trkpt lat="47.15806" lon="8.51195">
        <ele>422.2</ele>
        <time>2023-02-12T11:04:30Z</time>
      </trkpt>
      <trkpt lat="47.15811" lon="8.51198">
        <ele>422</ele>
        <time>2023-02-12T11:04:31Z</time>
      </trkpt>
      <trkpt lat="47.15816" lon="8.51201">
        <ele>421.8</ele>
        <time>2023-02-12T11:04:32Z</time>
      </trkpt>
      <trkpt lat="47.15821" lon="8.51203">
        <ele>421.8</ele>
        <time>2023-02-12T11:04:33Z</time>
      </trkpt>
      <trkpt lat="47.15826" lon="8.51206">
        <ele>421.8</ele>
        <time>2023-02-12T11:04:34Z</time>
      </trkpt>
      <trkpt lat="47.15832" lon="8.51209">
        <ele>421.6</ele>
        <time>2023-02-12T11:04:35Z</time>
      </trkpt>
      <trkpt lat="47.15836" lon="8.51212">
        <ele>421.6</ele>
        <time>2023-02-12T11:04:36Z</time>
      </trkpt>
      <trkpt lat="47.15841" lon="8.51215">
        <ele>421.6</ele>
        <time>2023-02-12T11:04:37Z</time>
      </trkpt>
      <trkpt lat="47.15846" lon="8.51217">
        <ele>421.6</ele>
        <time>2023-02-12T11:04:38Z</time>
      </trkpt>
      <trkpt lat="47.15852" lon="8.5122">
        <ele>421.8</ele>
        <time>2023-02-12T11:04:39Z</time>
      </trkpt>
      <trkpt lat="47.15857" lon="8.51223">
        <ele>421.8</ele>
        <time>2023-02-12T11:04:40Z</time>
      </trkpt>
      <trkpt lat="47.15863" lon="8.51226">
        <ele>421.8</ele>
        <time>2023-02-12T11:04:41Z</time>
      </trkpt>
      <trkpt lat="47.15868" lon="8.51228">
        <ele>421.8</ele>
        <time>2023-02-12T11:04:42Z</time>
      </trkpt>
      <trkpt lat="47.15874" lon="8.51231">
        <ele>421.8</ele>
        <time>2023-02-12T11:04:43Z</time>
      </trkpt>
      <trkpt lat="47.1588" lon="8.51233">
        <ele>421.8</ele>
        <time>2023-02-12T11:04:44Z</time>
      </trkpt>
      <trkpt lat="47.15886" lon="8.51235">
        <ele>421.8</ele>
        <time>2023-02-12T11:04:45Z</time>
      </trkpt>
      <trkpt lat="47.15892" lon="8.51238">
        <ele>421.8</ele>
        <time>2023-02-12T11:04:46Z</time>
      </trkpt>
      <trkpt lat="47.15898" lon="8.5124">
        <ele>421.8</ele>
        <time>2023-02-12T11:04:47Z</time>
      </trkpt>
      <trkpt lat="47.15905" lon="8.51242">
        <ele>421.8</ele>
        <time>2023-02-12T11:04:48Z</time>
      </trkpt>
      <trkpt lat="47.15911" lon="8.51244">
        <ele>421.8</ele>
        <time>2023-02-12T11:04:49Z</time>
      </trkpt>
      <trkpt lat="47.15917" lon="8.51246">
        <ele>421.8</ele>
        <time>2023-02-12T11:04:50Z</time>
      </trkpt>
      <trkpt lat="47.15923" lon="8.51248">
        <ele>421.8</ele>
        <time>2023-02-12T11:04:51Z</time>
      </trkpt>
      <trkpt lat="47.15929" lon="8.5125">
        <ele>421.8</ele>
        <time>2023-02-12T11:04:52Z</time>
      </trkpt>
      <trkpt lat="47.15936" lon="8.51252">
        <ele>421.8</ele>
        <time>2023-02-12T11:04:53Z</time>
      </trkpt>
      <trkpt lat="47.15942" lon="8.51253">
        <ele>421.8</ele>
        <time>2023-02-12T11:04:54Z</time>
      </trkpt>
      <trkpt lat="47.15948" lon="8.51255">
        <ele>421.8</ele>
        <time>2023-02-12T11:04:55Z</time>
      </trkpt>
      <trkpt lat="47.15953" lon="8.51257">
        <ele>422</ele>
        <time>2023-02-12T11:04:56Z</time>
      </trkpt>
      <trkpt lat="47.1596" lon="8.51259">
        <ele>422</ele>
        <time>2023-02-12T11:04:57Z</time>
      </trkpt>
      <trkpt lat="47.15966" lon="8.51261">
        <ele>422</ele>
        <time>2023-02-12T11:04:58Z</time>
      </trkpt>
      <trkpt lat="47.15972" lon="8.51263">
        <ele>422</ele>
        <time>2023-02-12T11:04:59Z</time>
      </trkpt>
      <trkpt lat="47.15978" lon="8.51265">
        <ele>422.2</ele>
        <time>2023-02-12T11:05:00Z</time>
      </trkpt>
      <trkpt lat="47.15984" lon="8.51268">
        <ele>422.2</ele>
        <time>2023-02-12T11:05:01Z</time>
      </trkpt>
      <trkpt lat="47.1599" lon="8.5127">
        <ele>422.4</ele>
        <time>2023-02-12T11:05:02Z</time>
      </trkpt>
      <trkpt lat="47.15995" lon="8.51272">
        <ele>422.4</ele>
        <time>2023-02-12T11:05:03Z</time>
      </trkpt>
      <trkpt lat="47.16001" lon="8.51274">
        <ele>422.4</ele>
        <time>2023-02-12T11:05:04Z</time>
      </trkpt>
      <trkpt lat="47.16006" lon="8.51277">
        <ele>422.6</ele>
        <time>2023-02-12T11:05:05Z</time>
      </trkpt>
      <trkpt lat="47.16011" lon="8.51279">
        <ele>422.6</ele>
        <time>2023-02-12T11:05:06Z</time>
      </trkpt>
      <trkpt lat="47.16017" lon="8.51282">
        <ele>422.8</ele>
        <time>2023-02-12T11:05:07Z</time>
      </trkpt>
      <trkpt lat="47.16022" lon="8.51284">
        <ele>422.8</ele>
        <time>2023-02-12T11:05:08Z</time>
      </trkpt>
      <trkpt lat="47.16028" lon="8.51286">
        <ele>422.8</ele>
        <time>2023-02-12T11:05:09Z</time>
      </trkpt>
      <trkpt lat="47.16032" lon="8.51289">
        <ele>423</ele>
        <time>2023-02-12T11:05:10Z</time>
      </trkpt>
      <trkpt lat="47.16037" lon="8.51291">
        <ele>423</ele>
        <time>2023-02-12T11:05:11Z</time>
      </trkpt>
      <trkpt lat="47.16042" lon="8.51293">
        <ele>423.2</ele>
        <time>2023-02-12T11:05:12Z</time>
      </trkpt>
      <trkpt lat="47.16047" lon="8.51295">
        <ele>423.2</ele>
        <time>2023-02-12T11:05:13Z</time>
      </trkpt>
      <trkpt lat="47.16053" lon="8.51298">
        <ele>423.2</ele>
        <time>2023-02-12T11:05:14Z</time>
      </trkpt>
      <trkpt lat="47.16057" lon="8.513">
        <ele>423.4</ele>
        <time>2023-02-12T11:05:15Z</time>
      </trkpt>
      <trkpt lat="47.16062" lon="8.51301">
        <ele>423.4</ele>
        <time>2023-02-12T11:05:16Z</time>
      </trkpt>
      <trkpt lat="47.16067" lon="8.51303">
        <ele>423.6</ele>
        <time>2023-02-12T11:05:17Z</time>
      </trkpt>
      <trkpt lat="47.16073" lon="8.51305">
        <ele>423.8</ele>
        <time>2023-02-12T11:05:18Z</time>
      </trkpt>
      <trkpt lat="47.16078" lon="8.51307">
        <ele>423.8</ele>
        <time>2023-02-12T11:05:19Z</time>
      </trkpt>
      <trkpt lat="47.16083" lon="8.51309">
        <ele>424</ele>
        <time>2023-02-12T11:05:20Z</time>
      </trkpt>
      <trkpt lat="47.16088" lon="8.51311">
        <ele>424</ele>
        <time>2023-02-12T11:05:21Z</time>
      </trkpt>
      <trkpt lat="47.16094" lon="8.51314">
        <ele>424</ele>
        <time>2023-02-12T11:05:22Z</time>
      </trkpt>
      <trkpt lat="47.161" lon="8.51316">
        <ele>424.2</ele>
        <time>2023-02-12T11:05:23Z</time>
      </trkpt>
      <trkpt lat="47.16105" lon="8.51318">
        <ele>424.2</ele>
        <time>2023-02-12T11:05:24Z</time>
      </trkpt>
      <trkpt lat="47.1611" lon="8.5132">
        <ele>424.4</ele>
        <time>2023-02-12T11:05:25Z</time>
      </trkpt>
      <trkpt lat="47.16115" lon="8.51321">
        <ele>424.4</ele>
        <time>2023-02-12T11:05:26Z</time>
      </trkpt>
      <trkpt lat="47.1612" lon="8.51323">
        <ele>424.6</ele>
        <time>2023-02-12T11:05:27Z</time>
      </trkpt>
      <trkpt lat="47.16126" lon="8.51324">
        <ele>424.6</ele>
        <time>2023-02-12T11:05:28Z</time>
      </trkpt>
      <trkpt lat="47.16131" lon="8.51325">
        <ele>424.8</ele>
        <time>2023-02-12T11:05:29Z</time>
      </trkpt>
      <trkpt lat="47.16137" lon="8.51327">
        <ele>424.8</ele>
        <time>2023-02-12T11:05:30Z</time>
      </trkpt>
      <trkpt lat="47.16142" lon="8.51329">
        <ele>425</ele>
        <time>2023-02-12T11:05:31Z</time>
      </trkpt>
      <trkpt lat="47.16147" lon="8.51331">
        <ele>425.2</ele>
        <time>2023-02-12T11:05:32Z</time>
      </trkpt>
      <trkpt lat="47.16152" lon="8.51333">
        <ele>425.2</ele>
        <time>2023-02-12T11:05:33Z</time>
      </trkpt>
      <trkpt lat="47.16158" lon="8.51336">
        <ele>425.2</ele>
        <time>2023-02-12T11:05:34Z</time>
      </trkpt>
      <trkpt lat="47.16163" lon="8.51338">
        <ele>425.4</ele>
        <time>2023-02-12T11:05:35Z</time>
      </trkpt>
      <trkpt lat="47.16168" lon="8.5134">
        <ele>425.4</ele>
        <time>2023-02-12T11:05:36Z</time>
      </trkpt>
      <trkpt lat="47.16172" lon="8.51342">
        <ele>425.6</ele>
        <time>2023-02-12T11:05:37Z</time>
      </trkpt>
      <trkpt lat="47.16177" lon="8.51344">
        <ele>425.6</ele>
        <time>2023-02-12T11:05:38Z</time>
      </trkpt>
      <trkpt lat="47.16182" lon="8.51346">
        <ele>425.8</ele>
        <time>2023-02-12T11:05:39Z</time>
      </trkpt>
      <trkpt lat="47.16187" lon="8.51348">
        <ele>425.8</ele>
        <time>2023-02-12T11:05:40Z</time>
      </trkpt>
      <trkpt lat="47.16192" lon="8.5135">
        <ele>425.8</ele>
        <time>2023-02-12T11:05:41Z</time>
      </trkpt>
      <trkpt lat="47.16198" lon="8.51352">
        <ele>426</ele>
        <time>2023-02-12T11:05:42Z</time>
      </trkpt>
      <trkpt lat="47.16203" lon="8.51354">
        <ele>426</ele>
        <time>2023-02-12T11:05:43Z</time>
      </trkpt>
      <trkpt lat="47.16208" lon="8.51356">
        <ele>426.2</ele>
        <time>2023-02-12T11:05:44Z</time>
      </trkpt>
      <trkpt lat="47.16213" lon="8.51358">
        <ele>426.2</ele>
        <time>2023-02-12T11:05:45Z</time>
      </trkpt>
      <trkpt lat="47.16218" lon="8.5136">
        <ele>426.4</ele>
        <time>2023-02-12T11:05:46Z</time>
      </trkpt>
      <trkpt lat="47.16224" lon="8.51362">
        <ele>426.4</ele>
        <time>2023-02-12T11:05:47Z</time>
      </trkpt>
      <trkpt lat="47.16229" lon="8.51364">
        <ele>426.6</ele>
        <time>2023-02-12T11:05:48Z</time>
      </trkpt>
      <trkpt lat="47.16235" lon="8.51366">
        <ele>426.8</ele>
        <time>2023-02-12T11:05:49Z</time>
      </trkpt>
      <trkpt lat="47.1624" lon="8.51368">
        <ele>426.8</ele>
        <time>2023-02-12T11:05:50Z</time>
      </trkpt>
      <trkpt lat="47.16245" lon="8.51371">
        <ele>427</ele>
        <time>2023-02-12T11:05:51Z</time>
      </trkpt>
      <trkpt lat="47.16251" lon="8.51373">
        <ele>427</ele>
        <time>2023-02-12T11:05:52Z</time>
      </trkpt>
      <trkpt lat="47.16256" lon="8.51376">
        <ele>427.2</ele>
        <time>2023-02-12T11:05:53Z</time>
      </trkpt>
      <trkpt lat="47.16262" lon="8.51378">
        <ele>427.2</ele>
        <time>2023-02-12T11:05:54Z</time>
      </trkpt>
      <trkpt lat="47.16267" lon="8.5138">
        <ele>427.4</ele>
        <time>2023-02-12T11:05:55Z</time>
      </trkpt>
      <trkpt lat="47.16272" lon="8.51382">
        <ele>427.6</ele>
        <time>2023-02-12T11:05:56Z</time>
      </trkpt>
      <trkpt lat="47.16276" lon="8.51384">
        <ele>427.6</ele>
        <time>2023-02-12T11:05:57Z</time>
      </trkpt>
      <trkpt lat="47.16281" lon="8.51386">
        <ele>427.8</ele>
        <time>2023-02-12T11:05:58Z</time>
      </trkpt>
      <trkpt lat="47.16286" lon="8.51388">
        <ele>428</ele>
        <time>2023-02-12T11:05:59Z</time>
      </trkpt>
      <trkpt lat="47.16291" lon="8.51391">
        <ele>428.2</ele>
        <time>2023-02-12T11:06:00Z</time>
      </trkpt>
      <trkpt lat="47.16296" lon="8.51393">
        <ele>428.2</ele>
        <time>2023-02-12T11:06:01Z</time>
      </trkpt>
      <trkpt lat="47.16301" lon="8.51395">
        <ele>428.4</ele>
        <time>2023-02-12T11:06:02Z</time>
      </trkpt>
      <trkpt lat="47.16306" lon="8.51396">
        <ele>428.6</ele>
        <time>2023-02-12T11:06:03Z</time>
      </trkpt>
      <trkpt lat="47.16311" lon="8.51398">
        <ele>428.6</ele>
        <time>2023-02-12T11:06:04Z</time>
      </trkpt>
      <trkpt lat="47.16316" lon="8.514">
        <ele>428.8</ele>
        <time>2023-02-12T11:06:05Z</time>
      </trkpt>
      <trkpt lat="47.16321" lon="8.51402">
        <ele>429</ele>
        <time>2023-02-12T11:06:06Z</time>
      </trkpt>
      <trkpt lat="47.16326" lon="8.51404">
        <ele>429</ele>
        <time>2023-02-12T11:06:07Z</time>
      </trkpt>
      <trkpt lat="47.16332" lon="8.51406">
        <ele>429.2</ele>
        <time>2023-02-12T11:06:08Z</time>
      </trkpt>
      <trkpt lat="47.16336" lon="8.51408">
        <ele>429.4</ele>
        <time>2023-02-12T11:06:09Z</time>
      </trkpt>
      <trkpt lat="47.16342" lon="8.5141">
        <ele>429.4</ele>
        <time>2023-02-12T11:06:10Z</time>
      </trkpt>
      <trkpt lat="47.16346" lon="8.51411">
        <ele>429.6</ele>
        <time>2023-02-12T11:06:11Z</time>
      </trkpt>
      <trkpt lat="47.16351" lon="8.51413">
        <ele>429.6</ele>
        <time>2023-02-12T11:06:12Z</time>
      </trkpt>
      <trkpt lat="47.16355" lon="8.51415">
        <ele>429.8</ele>
        <time>2023-02-12T11:06:13Z</time>
      </trkpt>
      <trkpt lat="47.16361" lon="8.51417">
        <ele>429.8</ele>
        <time>2023-02-12T11:06:14Z</time>
      </trkpt>
      <trkpt lat="47.16366" lon="8.51419">
        <ele>429.8</ele>
        <time>2023-02-12T11:06:15Z</time>
      </trkpt>
      <trkpt lat="47.16371" lon="8.51421">
        <ele>430</ele>
        <time>2023-02-12T11:06:16Z</time>
      </trkpt>
      <trkpt lat="47.16376" lon="8.51423">
        <ele>430</ele>
        <time>2023-02-12T11:06:17Z</time>
      </trkpt>
      <trkpt lat="47.1638" lon="8.51425">
        <ele>430</ele>
        <time>2023-02-12T11:06:18Z</time>
      </trkpt>
      <trkpt lat="47.16385" lon="8.51426">
        <ele>430</ele>
        <time>2023-02-12T11:06:19Z</time>
      </trkpt>
      <trkpt lat="47.16389" lon="8.51428">
        <ele>430</ele>
        <time>2023-02-12T11:06:20Z</time>
      </trkpt>
      <trkpt lat="47.16394" lon="8.51431">
        <ele>430</ele>
        <time>2023-02-12T11:06:21Z</time>
      </trkpt>
      <trkpt lat="47.16398" lon="8.51433">
        <ele>430.2</ele>
        <time>2023-02-12T11:06:22Z</time>
      </trkpt>
      <trkpt lat="47.16403" lon="8.51435">
        <ele>430.2</ele>
        <time>2023-02-12T11:06:23Z</time>
      </trkpt>
      <trkpt lat="47.16407" lon="8.51437">
        <ele>430.2</ele>
        <time>2023-02-12T11:06:24Z</time>
      </trkpt>
      <trkpt lat="47.16413" lon="8.51439">
        <ele>430.2</ele>
        <time>2023-02-12T11:06:25Z</time>
      </trkpt>
      <trkpt lat="47.16419" lon="8.51441">
        <ele>430.4</ele>
        <time>2023-02-12T11:06:26Z</time>
      </trkpt>
      <trkpt lat="47.16425" lon="8.51444">
        <ele>430.4</ele>
        <time>2023-02-12T11:06:27Z</time>
      </trkpt>
      <trkpt lat="47.16431" lon="8.51446">
        <ele>430.4</ele>
        <time>2023-02-12T11:06:28Z</time>
      </trkpt>
      <trkpt lat="47.16436" lon="8.51449">
        <ele>430.4</ele>
        <time>2023-02-12T11:06:29Z</time>
      </trkpt>
      <trkpt lat="47.16441" lon="8.51451">
        <ele>430.4</ele>
        <time>2023-02-12T11:06:30Z</time>
      </trkpt>
      <trkpt lat="47.16446" lon="8.51453">
        <ele>430.6</ele>
        <time>2023-02-12T11:06:31Z</time>
      </trkpt>
      <trkpt lat="47.16451" lon="8.51457">
        <ele>430.6</ele>
        <time>2023-02-12T11:06:32Z</time>
      </trkpt>
      <trkpt lat="47.16456" lon="8.51459">
        <ele>430.6</ele>
        <time>2023-02-12T11:06:33Z</time>
      </trkpt>
      <trkpt lat="47.1646" lon="8.51462">
        <ele>430.6</ele>
        <time>2023-02-12T11:06:34Z</time>
      </trkpt>
      <trkpt lat="47.16465" lon="8.51464">
        <ele>430.6</ele>
        <time>2023-02-12T11:06:35Z</time>
      </trkpt>
      <trkpt lat="47.16469" lon="8.51465">
        <ele>430.6</ele>
        <time>2023-02-12T11:06:36Z</time>
      </trkpt>
      <trkpt lat="47.16473" lon="8.51467">
        <ele>430.6</ele>
        <time>2023-02-12T11:06:37Z</time>
      </trkpt>
      <trkpt lat="47.16478" lon="8.51469">
        <ele>430.6</ele>
        <time>2023-02-12T11:06:38Z</time>
      </trkpt>
      <trkpt lat="47.16482" lon="8.51472">
        <ele>430.6</ele>
        <time>2023-02-12T11:06:39Z</time>
      </trkpt>
      <trkpt lat="47.16486" lon="8.51475">
        <ele>430.6</ele>
        <time>2023-02-12T11:06:40Z</time>
      </trkpt>
      <trkpt lat="47.16491" lon="8.51478">
        <ele>430.6</ele>
        <time>2023-02-12T11:06:41Z</time>
      </trkpt>
      <trkpt lat="47.16496" lon="8.51481">
        <ele>430.6</ele>
        <time>2023-02-12T11:06:42Z</time>
      </trkpt>
      <trkpt lat="47.16501" lon="8.51484">
        <ele>430.6</ele>
        <time>2023-02-12T11:06:43Z</time>
      </trkpt>
      <trkpt lat="47.16505" lon="8.51488">
        <ele>430.6</ele>
        <time>2023-02-12T11:06:44Z</time>
      </trkpt>
      <trkpt lat="47.16509" lon="8.51492">
        <ele>430.6</ele>
        <time>2023-02-12T11:06:45Z</time>
      </trkpt>
      <trkpt lat="47.16514" lon="8.51496">
        <ele>430.6</ele>
        <time>2023-02-12T11:06:46Z</time>
      </trkpt>
      <trkpt lat="47.16518" lon="8.515">
        <ele>430.6</ele>
        <time>2023-02-12T11:06:47Z</time>
      </trkpt>
      <trkpt lat="47.16522" lon="8.51504">
        <ele>430.6</ele>
        <time>2023-02-12T11:06:48Z</time>
      </trkpt>
      <trkpt lat="47.16526" lon="8.51508">
        <ele>430.6</ele>
        <time>2023-02-12T11:06:49Z</time>
      </trkpt>
      <trkpt lat="47.16531" lon="8.51512">
        <ele>430.6</ele>
        <time>2023-02-12T11:06:50Z</time>
      </trkpt>
      <trkpt lat="47.16536" lon="8.51515">
        <ele>430.6</ele>
        <time>2023-02-12T11:06:51Z</time>
      </trkpt>
      <trkpt lat="47.16541" lon="8.51518">
        <ele>430.6</ele>
        <time>2023-02-12T11:06:52Z</time>
      </trkpt>
      <trkpt lat="47.16546" lon="8.51521">
        <ele>430.6</ele>
        <time>2023-02-12T11:06:53Z</time>
      </trkpt>
      <trkpt lat="47.16551" lon="8.51524">
        <ele>430.6</ele>
        <time>2023-02-12T11:06:54Z</time>
      </trkpt>
      <trkpt lat="47.16556" lon="8.51527">
        <ele>430.6</ele>
        <time>2023-02-12T11:06:55Z</time>
      </trkpt>
      <trkpt lat="47.16561" lon="8.5153">
        <ele>430.4</ele>
        <time>2023-02-12T11:06:56Z</time>
      </trkpt>
      <trkpt lat="47.16566" lon="8.51533">
        <ele>430.4</ele>
        <time>2023-02-12T11:06:57Z</time>
      </trkpt>
      <trkpt lat="47.1657" lon="8.51536">
        <ele>430.4</ele>
        <time>2023-02-12T11:06:58Z</time>
      </trkpt>
      <trkpt lat="47.16575" lon="8.51539">
        <ele>430.4</ele>
        <time>2023-02-12T11:06:59Z</time>
      </trkpt>
      <trkpt lat="47.16581" lon="8.51543">
        <ele>430.2</ele>
        <time>2023-02-12T11:07:00Z</time>
      </trkpt>
      <trkpt lat="47.16585" lon="8.51546">
        <ele>430.2</ele>
        <time>2023-02-12T11:07:01Z</time>
      </trkpt>
      <trkpt lat="47.1659" lon="8.51549">
        <ele>430.2</ele>
        <time>2023-02-12T11:07:02Z</time>
      </trkpt>
      <trkpt lat="47.16596" lon="8.51551">
        <ele>430</ele>
        <time>2023-02-12T11:07:03Z</time>
      </trkpt>
      <trkpt lat="47.16601" lon="8.51552">
        <ele>429.8</ele>
        <time>2023-02-12T11:07:04Z</time>
      </trkpt>
      <trkpt lat="47.16608" lon="8.51553">
        <ele>429.6</ele>
        <time>2023-02-12T11:07:05Z</time>
      </trkpt>
      <trkpt lat="47.16614" lon="8.51554">
        <ele>429.6</ele>
        <time>2023-02-12T11:07:06Z</time>
      </trkpt>
      <trkpt lat="47.16621" lon="8.51555">
        <ele>429.2</ele>
        <time>2023-02-12T11:07:07Z</time>
      </trkpt>
      <trkpt lat="47.16628" lon="8.51556">
        <ele>429</ele>
        <time>2023-02-12T11:07:08Z</time>
      </trkpt>
      <trkpt lat="47.16634" lon="8.51557">
        <ele>428.8</ele>
        <time>2023-02-12T11:07:09Z</time>
      </trkpt>
      <trkpt lat="47.16641" lon="8.51557">
        <ele>428.6</ele>
        <time>2023-02-12T11:07:10Z</time>
      </trkpt>
      <trkpt lat="47.16646" lon="8.51557">
        <ele>428.4</ele>
        <time>2023-02-12T11:07:11Z</time>
      </trkpt>
      <trkpt lat="47.16652" lon="8.51557">
        <ele>428.2</ele>
        <time>2023-02-12T11:07:12Z</time>
      </trkpt>
      <trkpt lat="47.16658" lon="8.51557">
        <ele>428</ele>
        <time>2023-02-12T11:07:13Z</time>
      </trkpt>
      <trkpt lat="47.16664" lon="8.51557">
        <ele>427.8</ele>
        <time>2023-02-12T11:07:14Z</time>
      </trkpt>
      <trkpt lat="47.16671" lon="8.51557">
        <ele>427.6</ele>
        <time>2023-02-12T11:07:15Z</time>
      </trkpt>
      <trkpt lat="47.16678" lon="8.51557">
        <ele>427.4</ele>
        <time>2023-02-12T11:07:16Z</time>
      </trkpt>
      <trkpt lat="47.16684" lon="8.51557">
        <ele>427</ele>
        <time>2023-02-12T11:07:17Z</time>
      </trkpt>
      <trkpt lat="47.16691" lon="8.51558">
        <ele>426.8</ele>
        <time>2023-02-12T11:07:18Z</time>
      </trkpt>
      <trkpt lat="47.16699" lon="8.5156">
        <ele>426.6</ele>
        <time>2023-02-12T11:07:19Z</time>
      </trkpt>
      <trkpt lat="47.16706" lon="8.51562">
        <ele>426.2</ele>
        <time>2023-02-12T11:07:20Z</time>
      </trkpt>
      <trkpt lat="47.16712" lon="8.51563">
        <ele>426</ele>
        <time>2023-02-12T11:07:21Z</time>
      </trkpt>
      <trkpt lat="47.16719" lon="8.51564">
        <ele>425.8</ele>
        <time>2023-02-12T11:07:22Z</time>
      </trkpt>
      <trkpt lat="47.16724" lon="8.51564">
        <ele>425.6</ele>
        <time>2023-02-12T11:07:23Z</time>
      </trkpt>
      <trkpt lat="47.1673" lon="8.51565">
        <ele>425.6</ele>
        <time>2023-02-12T11:07:24Z</time>
      </trkpt>
      <trkpt lat="47.16735" lon="8.51566">
        <ele>425.6</ele>
        <time>2023-02-12T11:07:25Z</time>
      </trkpt>
      <trkpt lat="47.16741" lon="8.51567">
        <ele>425.6</ele>
        <time>2023-02-12T11:07:26Z</time>
      </trkpt>
      <trkpt lat="47.16746" lon="8.51567">
        <ele>425.6</ele>
        <time>2023-02-12T11:07:27Z</time>
      </trkpt>
      <trkpt lat="47.16752" lon="8.51567">
        <ele>425.8</ele>
        <time>2023-02-12T11:07:28Z</time>
      </trkpt>
      <trkpt lat="47.16759" lon="8.51568">
        <ele>425.8</ele>
        <time>2023-02-12T11:07:29Z</time>
      </trkpt>
      <trkpt lat="47.16766" lon="8.51568">
        <ele>426</ele>
        <time>2023-02-12T11:07:30Z</time>
      </trkpt>
      <trkpt lat="47.16772" lon="8.51569">
        <ele>426</ele>
        <time>2023-02-12T11:07:31Z</time>
      </trkpt>
      <trkpt lat="47.16779" lon="8.5157">
        <ele>426</ele>
        <time>2023-02-12T11:07:32Z</time>
      </trkpt>
      <trkpt lat="47.16785" lon="8.51571">
        <ele>426</ele>
        <time>2023-02-12T11:07:33Z</time>
      </trkpt>
      <trkpt lat="47.1679" lon="8.51572">
        <ele>426.2</ele>
        <time>2023-02-12T11:07:34Z</time>
      </trkpt>
      <trkpt lat="47.16795" lon="8.51573">
        <ele>426.2</ele>
        <time>2023-02-12T11:07:35Z</time>
      </trkpt>
      <trkpt lat="47.168" lon="8.51574">
        <ele>426.2</ele>
        <time>2023-02-12T11:07:36Z</time>
      </trkpt>
      <trkpt lat="47.16804" lon="8.51575">
        <ele>426.2</ele>
        <time>2023-02-12T11:07:37Z</time>
      </trkpt>
      <trkpt lat="47.16808" lon="8.51576">
        <ele>426.2</ele>
        <time>2023-02-12T11:07:38Z</time>
      </trkpt>
      <trkpt lat="47.16812" lon="8.51576">
        <ele>426.2</ele>
        <time>2023-02-12T11:07:39Z</time>
      </trkpt>
      <trkpt lat="47.16816" lon="8.51576">
        <ele>426.2</ele>
        <time>2023-02-12T11:07:40Z</time>
      </trkpt>
      <trkpt lat="47.16821" lon="8.51577">
        <ele>426.2</ele>
        <time>2023-02-12T11:07:41Z</time>
      </trkpt>
      <trkpt lat="47.16826" lon="8.51576">
        <ele>426.2</ele>
        <time>2023-02-12T11:07:42Z</time>
      </trkpt>
      <trkpt lat="47.1683" lon="8.51575">
        <ele>426.4</ele>
        <time>2023-02-12T11:07:43Z</time>
      </trkpt>
      <trkpt lat="47.16836" lon="8.51575">
        <ele>426.2</ele>
        <time>2023-02-12T11:07:44Z</time>
      </trkpt>
      <trkpt lat="47.16841" lon="8.51576">
        <ele>426.2</ele>
        <time>2023-02-12T11:07:45Z</time>
      </trkpt>
      <trkpt lat="47.16846" lon="8.51577">
        <ele>426.2</ele>
        <time>2023-02-12T11:07:46Z</time>
      </trkpt>
      <trkpt lat="47.16851" lon="8.51577">
        <ele>426.2</ele>
        <time>2023-02-12T11:07:47Z</time>
      </trkpt>
      <trkpt lat="47.16855" lon="8.51577">
        <ele>426</ele>
        <time>2023-02-12T11:07:48Z</time>
      </trkpt>
      <trkpt lat="47.16861" lon="8.51578">
        <ele>426</ele>
        <time>2023-02-12T11:07:49Z</time>
      </trkpt>
      <trkpt lat="47.16866" lon="8.51578">
        <ele>426</ele>
        <time>2023-02-12T11:07:50Z</time>
      </trkpt>
      <trkpt lat="47.16872" lon="8.51579">
        <ele>426</ele>
        <time>2023-02-12T11:07:51Z</time>
      </trkpt>
      <trkpt lat="47.16877" lon="8.5158">
        <ele>426</ele>
        <time>2023-02-12T11:07:52Z</time>
      </trkpt>
      <trkpt lat="47.16884" lon="8.51578">
        <ele>426</ele>
        <time>2023-02-12T11:07:53Z</time>
      </trkpt>
      <trkpt lat="47.16891" lon="8.51577">
        <ele>426</ele>
        <time>2023-02-12T11:07:54Z</time>
      </trkpt>
      <trkpt lat="47.16898" lon="8.51575">
        <ele>426.2</ele>
        <time>2023-02-12T11:07:55Z</time>
      </trkpt>
      <trkpt lat="47.16905" lon="8.51575">
        <ele>426.2</ele>
        <time>2023-02-12T11:07:56Z</time>
      </trkpt>
      <trkpt lat="47.16911" lon="8.51575">
        <ele>426.2</ele>
        <time>2023-02-12T11:07:57Z</time>
      </trkpt>
      <trkpt lat="47.16917" lon="8.51574">
        <ele>426.2</ele>
        <time>2023-02-12T11:07:58Z</time>
      </trkpt>
      <trkpt lat="47.16924" lon="8.51574">
        <ele>426.2</ele>
        <time>2023-02-12T11:07:59Z</time>
      </trkpt>
      <trkpt lat="47.16929" lon="8.51574">
        <ele>426.2</ele>
        <time>2023-02-12T11:08:00Z</time>
      </trkpt>
      <trkpt lat="47.16935" lon="8.51574">
        <ele>426</ele>
        <time>2023-02-12T11:08:01Z</time>
      </trkpt>
      <trkpt lat="47.16941" lon="8.51574">
        <ele>426</ele>
        <time>2023-02-12T11:08:02Z</time>
      </trkpt>
      <trkpt lat="47.16947" lon="8.51575">
        <ele>426</ele>
        <time>2023-02-12T11:08:03Z</time>
      </trkpt>
      <trkpt lat="47.16953" lon="8.51576">
        <ele>426</ele>
        <time>2023-02-12T11:08:04Z</time>
      </trkpt>
      <trkpt lat="47.16959" lon="8.51575">
        <ele>425.8</ele>
        <time>2023-02-12T11:08:05Z</time>
      </trkpt>
      <trkpt lat="47.16965" lon="8.51577">
        <ele>425.8</ele>
        <time>2023-02-12T11:08:06Z</time>
      </trkpt>
      <trkpt lat="47.16972" lon="8.51576">
        <ele>425.8</ele>
        <time>2023-02-12T11:08:07Z</time>
      </trkpt>
      <trkpt lat="47.16977" lon="8.51575">
        <ele>425.8</ele>
        <time>2023-02-12T11:08:08Z</time>
      </trkpt>
      <trkpt lat="47.16979" lon="8.51571">
        <ele>425.8</ele>
        <time>2023-02-12T11:08:09Z</time>
      </trkpt>
      <trkpt lat="47.16981" lon="8.51567">
        <ele>425.8</ele>
        <time>2023-02-12T11:08:10Z</time>
      </trkpt>
      <trkpt lat="47.16982" lon="8.51563">
        <ele>425.8</ele>
        <time>2023-02-12T11:08:11Z</time>
      </trkpt>
      <trkpt lat="47.16984" lon="8.51559">
        <ele>425.8</ele>
        <time>2023-02-12T11:08:12Z</time>
      </trkpt>
      <trkpt lat="47.16987" lon="8.51553">
        <ele>425.6</ele>
        <time>2023-02-12T11:08:13Z</time>
      </trkpt>
      <trkpt lat="47.1699" lon="8.51549">
        <ele>425.6</ele>
        <time>2023-02-12T11:08:14Z</time>
      </trkpt>
      <trkpt lat="47.16993" lon="8.51544">
        <ele>425.4</ele>
        <time>2023-02-12T11:08:15Z</time>
      </trkpt>
      <trkpt lat="47.16995" lon="8.51539">
        <ele>425.4</ele>
        <time>2023-02-12T11:08:16Z</time>
      </trkpt>
      <trkpt lat="47.16998" lon="8.51535">
        <ele>425.2</ele>
        <time>2023-02-12T11:08:17Z</time>
      </trkpt>
      <trkpt lat="47.17001" lon="8.5153">
        <ele>425.2</ele>
        <time>2023-02-12T11:08:18Z</time>
      </trkpt>
      <trkpt lat="47.17003" lon="8.51526">
        <ele>425</ele>
        <time>2023-02-12T11:08:19Z</time>
      </trkpt>
      <trkpt lat="47.17006" lon="8.5152">
        <ele>424.8</ele>
        <time>2023-02-12T11:08:20Z</time>
      </trkpt>
      <trkpt lat="47.17009" lon="8.51516">
        <ele>424.8</ele>
        <time>2023-02-12T11:08:21Z</time>
      </trkpt>
      <trkpt lat="47.17012" lon="8.5151">
        <ele>424.8</ele>
        <time>2023-02-12T11:08:22Z</time>
      </trkpt>
      <trkpt lat="47.17015" lon="8.51504">
        <ele>424.8</ele>
        <time>2023-02-12T11:08:23Z</time>
      </trkpt>
      <trkpt lat="47.17019" lon="8.51499">
        <ele>424.6</ele>
        <time>2023-02-12T11:08:24Z</time>
      </trkpt>
      <trkpt lat="47.17022" lon="8.51493">
        <ele>424.4</ele>
        <time>2023-02-12T11:08:25Z</time>
      </trkpt>
      <trkpt lat="47.17026" lon="8.51486">
        <ele>424.4</ele>
        <time>2023-02-12T11:08:26Z</time>
      </trkpt>
      <trkpt lat="47.17029" lon="8.5148">
        <ele>424.2</ele>
        <time>2023-02-12T11:08:27Z</time>
      </trkpt>
      <trkpt lat="47.17032" lon="8.51475">
        <ele>424</ele>
        <time>2023-02-12T11:08:28Z</time>
      </trkpt>
      <trkpt lat="47.17033" lon="8.5147">
        <ele>424</ele>
        <time>2023-02-12T11:08:29Z</time>
      </trkpt>
      <trkpt lat="47.17034" lon="8.51466">
        <ele>423.8</ele>
        <time>2023-02-12T11:08:30Z</time>
      </trkpt>
      <trkpt lat="47.17036" lon="8.51462">
        <ele>423.8</ele>
        <time>2023-02-12T11:08:31Z</time>
      </trkpt>
      <trkpt lat="47.17039" lon="8.51458">
        <ele>423.8</ele>
        <time>2023-02-12T11:08:32Z</time>
      </trkpt>
      <trkpt lat="47.1704" lon="8.51453">
        <ele>423.8</ele>
        <time>2023-02-12T11:08:33Z</time>
      </trkpt>
      <trkpt lat="47.17042" lon="8.51448">
        <ele>423.6</ele>
        <time>2023-02-12T11:08:34Z</time>
      </trkpt>
      <trkpt lat="47.17043" lon="8.51442">
        <ele>423.6</ele>
        <time>2023-02-12T11:08:35Z</time>
      </trkpt>
      <trkpt lat="47.17045" lon="8.51435">
        <ele>423.6</ele>
        <time>2023-02-12T11:08:36Z</time>
      </trkpt>
      <trkpt lat="47.17047" lon="8.51428">
        <ele>423.6</ele>
        <time>2023-02-12T11:08:37Z</time>
      </trkpt>
      <trkpt lat="47.17049" lon="8.51422">
        <ele>423.4</ele>
        <time>2023-02-12T11:08:38Z</time>
      </trkpt>
      <trkpt lat="47.17051" lon="8.51416">
        <ele>423.4</ele>
        <time>2023-02-12T11:08:39Z</time>
      </trkpt>
      <trkpt lat="47.17052" lon="8.5141">
        <ele>423.2</ele>
        <time>2023-02-12T11:08:40Z</time>
      </trkpt>
      <trkpt lat="47.17054" lon="8.51404">
        <ele>423.2</ele>
        <time>2023-02-12T11:08:41Z</time>
      </trkpt>
      <trkpt lat="47.17056" lon="8.51398">
        <ele>423.2</ele>
        <time>2023-02-12T11:08:42Z</time>
      </trkpt>
      <trkpt lat="47.17058" lon="8.51392">
        <ele>423</ele>
        <time>2023-02-12T11:08:43Z</time>
      </trkpt>
      <trkpt lat="47.1706" lon="8.51386">
        <ele>422.8</ele>
        <time>2023-02-12T11:08:44Z</time>
      </trkpt>
      <trkpt lat="47.17062" lon="8.5138">
        <ele>422.8</ele>
        <time>2023-02-12T11:08:45Z</time>
      </trkpt>
      <trkpt lat="47.17064" lon="8.51374">
        <ele>422.6</ele>
        <time>2023-02-12T11:08:46Z</time>
      </trkpt>
      <trkpt lat="47.17065" lon="8.51368">
        <ele>422.6</ele>
        <time>2023-02-12T11:08:47Z</time>
      </trkpt>
      <trkpt lat="47.17068" lon="8.51366">
        <ele>422.6</ele>
        <time>2023-02-12T11:08:48Z</time>
      </trkpt>
      <trkpt lat="47.17072" lon="8.51366">
        <ele>422.4</ele>
        <time>2023-02-12T11:08:49Z</time>
      </trkpt>
      <trkpt lat="47.17075" lon="8.51368">
        <ele>422.6</ele>
        <time>2023-02-12T11:08:50Z</time>
      </trkpt>
      <trkpt lat="47.17078" lon="8.51369">
        <ele>422.6</ele>
        <time>2023-02-12T11:08:51Z</time>
      </trkpt>
      <trkpt lat="47.17081" lon="8.51371">
        <ele>422.6</ele>
        <time>2023-02-12T11:08:52Z</time>
      </trkpt>
      <trkpt lat="47.17085" lon="8.51372">
        <ele>422.6</ele>
        <time>2023-02-12T11:08:53Z</time>
      </trkpt>
      <trkpt lat="47.17088" lon="8.51374">
        <ele>422.8</ele>
        <time>2023-02-12T11:08:54Z</time>
      </trkpt>
      <trkpt lat="47.17092" lon="8.51377">
        <ele>422.8</ele>
        <time>2023-02-12T11:08:55Z</time>
      </trkpt>
      <trkpt lat="47.17095" lon="8.51379">
        <ele>423</ele>
        <time>2023-02-12T11:08:56Z</time>
      </trkpt>
      <trkpt lat="47.17099" lon="8.51382">
        <ele>423</ele>
        <time>2023-02-12T11:08:57Z</time>
      </trkpt>
      <trkpt lat="47.17103" lon="8.51384">
        <ele>423.2</ele>
        <time>2023-02-12T11:08:58Z</time>
      </trkpt>
      <trkpt lat="47.17107" lon="8.51387">
        <ele>423.2</ele>
        <time>2023-02-12T11:08:59Z</time>
      </trkpt>
      <trkpt lat="47.17111" lon="8.51391">
        <ele>423.4</ele>
        <time>2023-02-12T11:09:00Z</time>
      </trkpt>
      <trkpt lat="47.17116" lon="8.51396">
        <ele>423.6</ele>
        <time>2023-02-12T11:09:01Z</time>
      </trkpt>
      <trkpt lat="47.1712" lon="8.51402">
        <ele>423.8</ele>
        <time>2023-02-12T11:09:02Z</time>
      </trkpt>
      <trkpt lat="47.17123" lon="8.51406">
        <ele>424</ele>
        <time>2023-02-12T11:09:03Z</time>
      </trkpt>
      <trkpt lat="47.17124" lon="8.51411">
        <ele>424.2</ele>
        <time>2023-02-12T11:09:04Z</time>
      </trkpt>
      <trkpt lat="47.17124" lon="8.51415">
        <ele>424.4</ele>
        <time>2023-02-12T11:09:05Z</time>
      </trkpt>
      <trkpt lat="47.17124" lon="8.5142">
        <ele>424.6</ele>
        <time>2023-02-12T11:09:06Z</time>
      </trkpt>
      <trkpt lat="47.17124" lon="8.51426">
        <ele>424.8</ele>
        <time>2023-02-12T11:09:07Z</time>
      </trkpt>
      <trkpt lat="47.17124" lon="8.51431">
        <ele>424.8</ele>
        <time>2023-02-12T11:09:08Z</time>
      </trkpt>
      <trkpt lat="47.17127" lon="8.51433">
        <ele>425</ele>
        <time>2023-02-12T11:09:09Z</time>
      </trkpt>
      <trkpt lat="47.1713" lon="8.51432">
        <ele>425</ele>
        <time>2023-02-12T11:09:10Z</time>
      </trkpt>
      <trkpt lat="47.17132" lon="8.51429">
        <ele>425.2</ele>
        <time>2023-02-12T11:09:11Z</time>
      </trkpt>
      <trkpt lat="47.17134" lon="8.51425">
        <ele>425.2</ele>
        <time>2023-02-12T11:09:12Z</time>
      </trkpt>
      <trkpt lat="47.17136" lon="8.51422">
        <ele>425.2</ele>
        <time>2023-02-12T11:09:13Z</time>
      </trkpt>
      <trkpt lat="47.17138" lon="8.51418">
        <ele>425.2</ele>
        <time>2023-02-12T11:09:14Z</time>
      </trkpt>
      <trkpt lat="47.17141" lon="8.51416">
        <ele>425.2</ele>
        <time>2023-02-12T11:09:15Z</time>
      </trkpt>
      <trkpt lat="47.17145" lon="8.51416">
        <ele>425.2</ele>
        <time>2023-02-12T11:09:16Z</time>
      </trkpt>
      <trkpt lat="47.17148" lon="8.51419">
        <ele>425.2</ele>
        <time>2023-02-12T11:09:17Z</time>
      </trkpt>
      <trkpt lat="47.17152" lon="8.51421">
        <ele>425</ele>
        <time>2023-02-12T11:09:18Z</time>
      </trkpt>
      <trkpt lat="47.17156" lon="8.51424">
        <ele>425</ele>
        <time>2023-02-12T11:09:19Z</time>
      </trkpt>
      <trkpt lat="47.1716" lon="8.51426">
        <ele>425</ele>
        <time>2023-02-12T11:09:20Z</time>
      </trkpt>
      <trkpt lat="47.17164" lon="8.51429">
        <ele>425</ele>
        <time>2023-02-12T11:09:21Z</time>
      </trkpt>
      <trkpt lat="47.17169" lon="8.51431">
        <ele>425</ele>
        <time>2023-02-12T11:09:22Z</time>
      </trkpt>
      <trkpt lat="47.17173" lon="8.51433">
        <ele>425</ele>
        <time>2023-02-12T11:09:23Z</time>
      </trkpt>
      <trkpt lat="47.17178" lon="8.51436">
        <ele>425</ele>
        <time>2023-02-12T11:09:24Z</time>
      </trkpt>
      <trkpt lat="47.17183" lon="8.51438">
        <ele>425.2</ele>
        <time>2023-02-12T11:09:25Z</time>
      </trkpt>
      <trkpt lat="47.17187" lon="8.51441">
        <ele>425.2</ele>
        <time>2023-02-12T11:09:26Z</time>
      </trkpt>
      <trkpt lat="47.17191" lon="8.51444">
        <ele>425.2</ele>
        <time>2023-02-12T11:09:27Z</time>
      </trkpt>
      <trkpt lat="47.17195" lon="8.51447">
        <ele>425.2</ele>
        <time>2023-02-12T11:09:28Z</time>
      </trkpt>
      <trkpt lat="47.17198" lon="8.5145">
        <ele>425.2</ele>
        <time>2023-02-12T11:09:29Z</time>
      </trkpt>
      <trkpt lat="47.17202" lon="8.51453">
        <ele>425.2</ele>
        <time>2023-02-12T11:09:30Z</time>
      </trkpt>
      <trkpt lat="47.17206" lon="8.51455">
        <ele>425.2</ele>
        <time>2023-02-12T11:09:31Z</time>
      </trkpt>
      <trkpt lat="47.1721" lon="8.51457">
        <ele>425.2</ele>
        <time>2023-02-12T11:09:32Z</time>
      </trkpt>
      <trkpt lat="47.17214" lon="8.5146">
        <ele>425.2</ele>
        <time>2023-02-12T11:09:33Z</time>
      </trkpt>
      <trkpt lat="47.17219" lon="8.51463">
        <ele>425.2</ele>
        <time>2023-02-12T11:09:34Z</time>
      </trkpt>
      <trkpt lat="47.17224" lon="8.51465">
        <ele>425.4</ele>
        <time>2023-02-12T11:09:35Z</time>
      </trkpt>
      <trkpt lat="47.17229" lon="8.51468">
        <ele>425.4</ele>
        <time>2023-02-12T11:09:36Z</time>
      </trkpt>
      <trkpt lat="47.17235" lon="8.51469">
        <ele>425.4</ele>
        <time>2023-02-12T11:09:37Z</time>
      </trkpt>
      <trkpt lat="47.17239" lon="8.51468">
        <ele>425.4</ele>
        <time>2023-02-12T11:09:38Z</time>
      </trkpt>
      <trkpt lat="47.17242" lon="8.51464">
        <ele>425.4</ele>
        <time>2023-02-12T11:09:39Z</time>
      </trkpt>
      <trkpt lat="47.17245" lon="8.51459">
        <ele>425.4</ele>
        <time>2023-02-12T11:09:40Z</time>
      </trkpt>
      <trkpt lat="47.17247" lon="8.51454">
        <ele>425.4</ele>
        <time>2023-02-12T11:09:41Z</time>
      </trkpt>
      <trkpt lat="47.17249" lon="8.51448">
        <ele>425.4</ele>
        <time>2023-02-12T11:09:42Z</time>
      </trkpt>
      <trkpt lat="47.17251" lon="8.51442">
        <ele>425.4</ele>
        <time>2023-02-12T11:09:43Z</time>
      </trkpt>
      <trkpt lat="47.17253" lon="8.51434">
        <ele>425.4</ele>
        <time>2023-02-12T11:09:44Z</time>
      </trkpt>
      <trkpt lat="47.17255" lon="8.51427">
        <ele>425.4</ele>
        <time>2023-02-12T11:09:45Z</time>
      </trkpt>
      <trkpt lat="47.17257" lon="8.5142">
        <ele>425.4</ele>
        <time>2023-02-12T11:09:46Z</time>
      </trkpt>
      <trkpt lat="47.17259" lon="8.51412">
        <ele>425.2</ele>
        <time>2023-02-12T11:09:47Z</time>
      </trkpt>
      <trkpt lat="47.17261" lon="8.51406">
        <ele>425.2</ele>
        <time>2023-02-12T11:09:48Z</time>
      </trkpt>
      <trkpt lat="47.17263" lon="8.51399">
        <ele>425.2</ele>
        <time>2023-02-12T11:09:49Z</time>
      </trkpt>
      <trkpt lat="47.17266" lon="8.51392">
        <ele>425.2</ele>
        <time>2023-02-12T11:09:50Z</time>
      </trkpt>
      <trkpt lat="47.17269" lon="8.51384">
        <ele>425</ele>
        <time>2023-02-12T11:09:51Z</time>
      </trkpt>
      <trkpt lat="47.17272" lon="8.51376">
        <ele>425</ele>
        <time>2023-02-12T11:09:52Z</time>
      </trkpt>
      <trkpt lat="47.17275" lon="8.51369">
        <ele>424.8</ele>
        <time>2023-02-12T11:09:53Z</time>
      </trkpt>
      <trkpt lat="47.17277" lon="8.51362">
        <ele>424.8</ele>
        <time>2023-02-12T11:09:54Z</time>
      </trkpt>
      <trkpt lat="47.1728" lon="8.51354">
        <ele>424.6</ele>
        <time>2023-02-12T11:09:55Z</time>
      </trkpt>
      <trkpt lat="47.17284" lon="8.5135">
        <ele>424.4</ele>
        <time>2023-02-12T11:09:56Z</time>
      </trkpt>
      <trkpt lat="47.17288" lon="8.51346">
        <ele>424.4</ele>
        <time>2023-02-12T11:09:57Z</time>
      </trkpt>
      <trkpt lat="47.17292" lon="8.51344">
        <ele>424.2</ele>
        <time>2023-02-12T11:09:58Z</time>
      </trkpt>
      <trkpt lat="47.17296" lon="8.51342">
        <ele>424.2</ele>
        <time>2023-02-12T11:09:59Z</time>
      </trkpt>
      <trkpt lat="47.17303" lon="8.51338">
        <ele>424</ele>
        <time>2023-02-12T11:10:00Z</time>
      </trkpt>
      <trkpt lat="47.17308" lon="8.5134">
        <ele>424</ele>
        <time>2023-02-12T11:10:01Z</time>
      </trkpt>
      <trkpt lat="47.17312" lon="8.51345">
        <ele>423.8</ele>
        <time>2023-02-12T11:10:02Z</time>
      </trkpt>
      <trkpt lat="47.17318" lon="8.51349">
        <ele>423.8</ele>
        <time>2023-02-12T11:10:03Z</time>
      </trkpt>
      <trkpt lat="47.1732" lon="8.51354">
        <ele>423.8</ele>
        <time>2023-02-12T11:10:04Z</time>
      </trkpt>
      <trkpt lat="47.17321" lon="8.51358">
        <ele>423.8</ele>
        <time>2023-02-12T11:10:05Z</time>
      </trkpt>
      <trkpt lat="47.17323" lon="8.51363">
        <ele>423.8</ele>
        <time>2023-02-12T11:10:06Z</time>
      </trkpt>
      <trkpt lat="47.17324" lon="8.51367">
        <ele>424</ele>
        <time>2023-02-12T11:10:07Z</time>
      </trkpt>
      <trkpt lat="47.17325" lon="8.51371">
        <ele>424</ele>
        <time>2023-02-12T11:10:08Z</time>
      </trkpt>
      <trkpt lat="47.17326" lon="8.51374">
        <ele>424.2</ele>
        <time>2023-02-12T11:10:09Z</time>
      </trkpt>
      <trkpt lat="47.17325" lon="8.51377">
        <ele>424.4</ele>
        <time>2023-02-12T11:10:10Z</time>
      </trkpt>
      <trkpt lat="47.17325" lon="8.51377">
        <ele>424.4</ele>
        <time>2023-02-12T11:10:11Z</time>
      </trkpt>
      <trkpt lat="47.17325" lon="8.51378">
        <ele>424.8</ele>
        <time>2023-02-12T11:10:12Z</time>
      </trkpt>
      <trkpt lat="47.17325" lon="8.51377">
        <ele>424.8</ele>
        <time>2023-02-12T11:10:13Z</time>
      </trkpt>
      <trkpt lat="47.17325" lon="8.51377">
        <ele>424.8</ele>
        <time>2023-02-12T11:10:14Z</time>
      </trkpt>
      <trkpt lat="47.17326" lon="8.51376">
        <ele>424.8</ele>
        <time>2023-02-12T11:10:15Z</time>
      </trkpt>
      <trkpt lat="47.17326" lon="8.51376">
        <ele>424.8</ele>
        <time>2023-02-12T11:10:16Z</time>
      </trkpt>
    </trkseg>
  </trk>
</gpx>